<?xml version='1.0' encoding='UTF-8'?><gpx version="1.1" creator="JPX - https://github.com/jenetics/jpx" xmlns="http://www.topografix.com/GPX/1/1"><trk><trkseg><trkpt lat="40.012159495076084" lon="18.177836616551826"><ele>144.0</ele><time>2026-04-12T11:26:31.005Z</time></trkpt><trkpt lat="40.012132899054386" lon="18.17771022813227"><ele>144.0</ele><time>2026-04-12T11:26:33.005Z</time></trkpt><trkpt lat="40.012078114512136" lon="18.177573114670814"><ele>144.0</ele><time>2026-04-12T11:26:35.005Z</time></trkpt><trkpt lat="40.01218199018978" lon="18.177420445106502"><ele>144.0</ele><time>2026-04-12T11:26:40.005Z</time></trkpt><trkpt lat="40.01224476430955" lon="18.177387438051404"><ele>144.0</ele><time>2026-04-12T11:26:41.005Z</time></trkpt><trkpt lat="40.01230880366722" lon="18.177344365872845"><ele>143.83333333333334</ele><time>2026-04-12T11:26:42.005Z</time></trkpt><trkpt lat="40.01237914162679" lon="18.1773274543943"><ele>143.66666666666666</ele><time>2026-04-12T11:26:43.005Z</time></trkpt><trkpt lat="40.01247687684897" lon="18.177294740497178"><ele>143.5</ele><time>2026-04-12T11:26:45.005Z</time></trkpt><trkpt lat="40.01257810542546" lon="18.177362080005203"><ele>143.33333333333331</ele><time>2026-04-12T11:26:50.005Z</time></trkpt><trkpt lat="40.01260696399872" lon="18.177439080688842"><ele>143.16666666666666</ele><time>2026-04-12T11:26:51.005Z</time></trkpt><trkpt lat="40.0126272880501" lon="18.17752517190704"><ele>143.0</ele><time>2026-04-12T11:26:52.005Z</time></trkpt><trkpt lat="40.01265745350628" lon="18.17761950612447"><ele>143.0</ele><time>2026-04-12T11:26:53.005Z</time></trkpt><trkpt lat="40.01269541557467" lon="18.177716776685944"><ele>143.0</ele><time>2026-04-12T11:26:54.005Z</time></trkpt><trkpt lat="40.01272849667883" lon="18.17783309548133"><ele>143.0</ele><time>2026-04-12T11:26:55.005Z</time></trkpt><trkpt lat="40.01277063297904" lon="18.177974940800773"><ele>143.0</ele><time>2026-04-12T11:26:56.005Z</time></trkpt><trkpt lat="40.012844403347046" lon="18.178273576543422"><ele>142.75</ele><time>2026-04-12T11:26:58.005Z</time></trkpt><trkpt lat="40.012902654013544" lon="18.17843042258836"><ele>142.5</ele><time>2026-04-12T11:26:59.005Z</time></trkpt><trkpt lat="40.012947633493816" lon="18.178588243120792"><ele>142.25</ele><time>2026-04-12T11:27:00.005Z</time></trkpt><trkpt lat="40.01299712049098" lon="18.17873241297454"><ele>142.0</ele><time>2026-04-12T11:27:01.005Z</time></trkpt><trkpt lat="40.01303535604611" lon="18.178874455487485"><ele>141.75</ele><time>2026-04-12T11:27:02.005Z</time></trkpt><trkpt lat="40.01307409673339" lon="18.179019563760864"><ele>141.5</ele><time>2026-04-12T11:27:03.005Z</time></trkpt><trkpt lat="40.0131166606644" lon="18.179169229257976"><ele>141.25</ele><time>2026-04-12T11:27:04.005Z</time></trkpt><trkpt lat="40.01316705442944" lon="18.179326322575857"><ele>141.0</ele><time>2026-04-12T11:27:05.005Z</time></trkpt><trkpt lat="40.013214668882355" lon="18.179470693790336"><ele>141.0</ele><time>2026-04-12T11:27:06.005Z</time></trkpt><trkpt lat="40.01325522589441" lon="18.17959878436089"><ele>141.0</ele><time>2026-04-12T11:27:07.005Z</time></trkpt><trkpt lat="40.01329361772628" lon="18.17971216079848"><ele>141.0</ele><time>2026-04-12T11:27:08.005Z</time></trkpt><trkpt lat="40.01332571738733" lon="18.179812574519175"><ele>141.0</ele><time>2026-04-12T11:27:09.005Z</time></trkpt><trkpt lat="40.01335030991603" lon="18.17989630174233"><ele>141.0</ele><time>2026-04-12T11:27:10.005Z</time></trkpt><trkpt lat="40.01341272067053" lon="18.17997753775293"><ele>141.0</ele><time>2026-04-12T11:27:12.005Z</time></trkpt><trkpt lat="40.01350778405481" lon="18.17995404925517"><ele>141.0</ele><time>2026-04-12T11:27:14.006Z</time></trkpt><trkpt lat="40.01356498496196" lon="18.179902490406135"><ele>141.0</ele><time>2026-04-12T11:27:15.006Z</time></trkpt><trkpt lat="40.01362490409225" lon="18.17983376454169"><ele>141.0</ele><time>2026-04-12T11:27:16.006Z</time></trkpt><trkpt lat="40.013779665442435" lon="18.179704826947567"><ele>141.0</ele><time>2026-04-12T11:27:18.006Z</time></trkpt><trkpt lat="40.01386817865251" lon="18.179636249489036"><ele>141.0</ele><time>2026-04-12T11:27:19.006Z</time></trkpt><trkpt lat="40.01394670109491" lon="18.17957521874655"><ele>140.8</ele><time>2026-04-12T11:27:20.006Z</time></trkpt><trkpt lat="40.01401559532105" lon="18.179521123238644"><ele>140.6</ele><time>2026-04-12T11:27:21.006Z</time></trkpt><trkpt lat="40.014075384097616" lon="18.179475718272307"><ele>140.4</ele><time>2026-04-12T11:27:22.006Z</time></trkpt><trkpt lat="40.014151334982486" lon="18.17942104955702"><ele>140.2</ele><time>2026-04-12T11:27:24.006Z</time></trkpt><trkpt lat="40.01422009581232" lon="18.179371764117295"><ele>140.0</ele><time>2026-04-12T11:28:12.007Z</time></trkpt><trkpt lat="40.01435018896192" lon="18.17925211888069"><ele>139.75</ele><time>2026-04-12T11:28:14.007Z</time></trkpt><trkpt lat="40.01443463091736" lon="18.17918332494763"><ele>139.5</ele><time>2026-04-12T11:28:15.007Z</time></trkpt><trkpt lat="40.014539853960144" lon="18.179097816529268"><ele>139.25</ele><time>2026-04-12T11:28:16.007Z</time></trkpt><trkpt lat="40.01465975096143" lon="18.178995821325238"><ele>139.0</ele><time>2026-04-12T11:28:17.007Z</time></trkpt><trkpt lat="40.01478588923761" lon="18.178885717476046"><ele>138.66666666666669</ele><time>2026-04-12T11:28:18.007Z</time></trkpt><trkpt lat="40.0149391684541" lon="18.17877936673016"><ele>138.33333333333334</ele><time>2026-04-12T11:28:19.007Z</time></trkpt><trkpt lat="40.015105557729036" lon="18.178660772780393"><ele>138.0</ele><time>2026-04-12T11:28:20.007Z</time></trkpt><trkpt lat="40.01527865270841" lon="18.178534302256978"><ele>139.33333333333334</ele><time>2026-04-12T11:28:21.007Z</time></trkpt><trkpt lat="40.01545588619736" lon="18.178401911757973"><ele>140.66666666666669</ele><time>2026-04-12T11:28:22.007Z</time></trkpt><trkpt lat="40.015638652680835" lon="18.17825938587963"><ele>142.0</ele><time>2026-04-12T11:28:23.007Z</time></trkpt><trkpt lat="40.015832221754735" lon="18.178116314752838"><ele>142.5</ele><time>2026-04-12T11:28:24.007Z</time></trkpt><trkpt lat="40.01603233462695" lon="18.17797249260656"><ele>143.0</ele><time>2026-04-12T11:28:25.007Z</time></trkpt><trkpt lat="40.016227693665044" lon="18.177828517411328"><ele>143.0</ele><time>2026-04-12T11:28:26.007Z</time></trkpt><trkpt lat="40.01642097210939" lon="18.177688485878196"><ele>143.0</ele><time>2026-04-12T11:28:27.007Z</time></trkpt><trkpt lat="40.016619869154475" lon="18.177551370081936"><ele>143.0</ele><time>2026-04-12T11:28:28.007Z</time></trkpt><trkpt lat="40.016820560452004" lon="18.177406554972652"><ele>145.5</ele><time>2026-04-12T11:28:29.007Z</time></trkpt><trkpt lat="40.017025854998636" lon="18.17724718877123"><ele>148.0</ele><time>2026-04-12T11:28:30.007Z</time></trkpt><trkpt lat="40.01723296134777" lon="18.177100284696593"><ele>148.0</ele><time>2026-04-12T11:28:31.007Z</time></trkpt><trkpt lat="40.017439354897405" lon="18.176943427324616"><ele>148.0</ele><time>2026-04-12T11:28:32.007Z</time></trkpt><trkpt lat="40.01764712600466" lon="18.176791666532967"><ele>149.0</ele><time>2026-04-12T11:28:33.007Z</time></trkpt><trkpt lat="40.018067779189224" lon="18.176483138453086"><ele>149.0</ele><time>2026-04-12T11:28:35.007Z</time></trkpt><trkpt lat="40.01825986736815" lon="18.176341592573174"><ele>149.0</ele><time>2026-04-12T11:28:36.007Z</time></trkpt><trkpt lat="40.01842677137139" lon="18.176214238664354"><ele>149.0</ele><time>2026-04-12T11:28:37.007Z</time></trkpt><trkpt lat="40.01857208355989" lon="18.17610577068451"><ele>148.75</ele><time>2026-04-12T11:28:38.007Z</time></trkpt><trkpt lat="40.018698251375454" lon="18.176015730930835"><ele>148.5</ele><time>2026-04-12T11:28:39.007Z</time></trkpt><trkpt lat="40.01880128806543" lon="18.175943117518703"><ele>148.25</ele><time>2026-04-12T11:28:40.007Z</time></trkpt><trkpt lat="40.01888891687201" lon="18.17587847277317"><ele>148.0</ele><time>2026-04-12T11:28:41.007Z</time></trkpt><trkpt lat="40.01897946226628" lon="18.1758117273686"><ele>148.0</ele><time>2026-04-12T11:28:42.007Z</time></trkpt><trkpt lat="40.01908773005528" lon="18.17572221753732"><ele>148.0</ele><time>2026-04-12T11:28:43.007Z</time></trkpt><trkpt lat="40.0192190252974" lon="18.17563219803521"><ele>148.0</ele><time>2026-04-12T11:28:44.007Z</time></trkpt><trkpt lat="40.01937607477182" lon="18.175521501762944"><ele>148.0</ele><time>2026-04-12T11:28:45.007Z</time></trkpt><trkpt lat="40.01954196287301" lon="18.175385698176022"><ele>148.0</ele><time>2026-04-12T11:28:46.007Z</time></trkpt><trkpt lat="40.01971502932248" lon="18.17523564494518"><ele>148.0</ele><time>2026-04-12T11:28:47.007Z</time></trkpt><trkpt lat="40.019894035932204" lon="18.17507913979574"><ele>148.5</ele><time>2026-04-12T11:28:48.007Z</time></trkpt><trkpt lat="40.02007853937951" lon="18.17490519140692"><ele>149.0</ele><time>2026-04-12T11:28:49.007Z</time></trkpt><trkpt lat="40.02026620758936" lon="18.174716829431322"><ele>149.5</ele><time>2026-04-12T11:28:50.007Z</time></trkpt><trkpt lat="40.02045774228614" lon="18.174516277315604"><ele>150.0</ele><time>2026-04-12T11:28:51.007Z</time></trkpt><trkpt lat="40.02065204972094" lon="18.174304876034284"><ele>151.5</ele><time>2026-04-12T11:28:52.007Z</time></trkpt><trkpt lat="40.02085073166949" lon="18.174087739439074"><ele>153.0</ele><time>2026-04-12T11:28:53.007Z</time></trkpt><trkpt lat="40.021045389148114" lon="18.17387002700407"><ele>153.0</ele><time>2026-04-12T11:28:54.007Z</time></trkpt><trkpt lat="40.02143588871895" lon="18.17342795290677"><ele>153.0</ele><time>2026-04-12T11:28:56.007Z</time></trkpt><trkpt lat="40.02163264429177" lon="18.173202024932536"><ele>153.0</ele><time>2026-04-12T11:28:57.007Z</time></trkpt><trkpt lat="40.021829280542896" lon="18.172980179958685"><ele>152.0</ele><time>2026-04-12T11:28:58.007Z</time></trkpt><trkpt lat="40.02202629336799" lon="18.17275505677894"><ele>151.0</ele><time>2026-04-12T11:28:59.007Z</time></trkpt><trkpt lat="40.02222388142799" lon="18.17253185102657"><ele>151.0</ele><time>2026-04-12T11:29:00.008Z</time></trkpt><trkpt lat="40.02241924995729" lon="18.17231011859642"><ele>151.0</ele><time>2026-04-12T11:29:01.008Z</time></trkpt><trkpt lat="40.022617139934546" lon="18.172083681070035"><ele>151.0</ele><time>2026-04-12T11:29:02.008Z</time></trkpt><trkpt lat="40.02281339374696" lon="18.171860916368047"><ele>151.0</ele><time>2026-04-12T11:29:03.008Z</time></trkpt><trkpt lat="40.023011770514586" lon="18.171638311754197"><ele>151.0</ele><time>2026-04-12T11:29:04.008Z</time></trkpt><trkpt lat="40.02320840768922" lon="18.1714153404564"><ele>151.0</ele><time>2026-04-12T11:29:05.008Z</time></trkpt><trkpt lat="40.023399033992426" lon="18.171203871067465"><ele>151.0</ele><time>2026-04-12T11:29:06.008Z</time></trkpt><trkpt lat="40.02357221164663" lon="18.171011015436967"><ele>151.0</ele><time>2026-04-12T11:29:07.008Z</time></trkpt><trkpt lat="40.02372895233794" lon="18.170826732487722"><ele>151.0</ele><time>2026-04-12T11:29:08.008Z</time></trkpt><trkpt lat="40.02388291436122" lon="18.170663015092966"><ele>150.33333333333334</ele><time>2026-04-12T11:29:09.008Z</time></trkpt><trkpt lat="40.02402657004254" lon="18.17052782287366"><ele>149.66666666666666</ele><time>2026-04-12T11:29:10.008Z</time></trkpt><trkpt lat="40.024182539875596" lon="18.17043282405262"><ele>149.0</ele><time>2026-04-12T11:29:11.008Z</time></trkpt><trkpt lat="40.02435013399144" lon="18.170398153315123"><ele>149.0</ele><time>2026-04-12T11:29:12.008Z</time></trkpt><trkpt lat="40.024511359511564" lon="18.170382652848474"><ele>149.0</ele><time>2026-04-12T11:29:13.008Z</time></trkpt><trkpt lat="40.024679872780766" lon="18.17038786319386"><ele>149.0</ele><time>2026-04-12T11:29:14.008Z</time></trkpt><trkpt lat="40.02451915062014" lon="18.16993439839422"><ele>147.33333333333331</ele><time>2026-04-12T11:29:15.008Z</time></trkpt><trkpt lat="40.024714718796226" lon="18.169712563960623"><ele>145.66666666666666</ele><time>2026-04-12T11:29:17.008Z</time></trkpt><trkpt lat="40.02482134273367" lon="18.169580326204542"><ele>144.0</ele><time>2026-04-12T11:29:18.008Z</time></trkpt><trkpt lat="40.02495212287094" lon="18.169437440704982"><ele>144.66666666666666</ele><time>2026-04-12T11:29:19.008Z</time></trkpt><trkpt lat="40.025091788730926" lon="18.1692737248077"><ele>145.33333333333331</ele><time>2026-04-12T11:29:20.008Z</time></trkpt><trkpt lat="40.02524332604414" lon="18.16908882041639"><ele>146.0</ele><time>2026-04-12T11:29:21.008Z</time></trkpt><trkpt lat="40.02540190313225" lon="18.168886428472742"><ele>146.0</ele><time>2026-04-12T11:29:22.008Z</time></trkpt><trkpt lat="40.02557237506747" lon="18.168686025864492"><ele>146.0</ele><time>2026-04-12T11:29:23.008Z</time></trkpt><trkpt lat="40.02575377332659" lon="18.1684869232347"><ele>146.0</ele><time>2026-04-12T11:29:24.008Z</time></trkpt><trkpt lat="40.0259426364805" lon="18.168289292484012"><ele>146.0</ele><time>2026-04-12T11:29:25.008Z</time></trkpt><trkpt lat="40.026134173502285" lon="18.168085080359035"><ele>146.0</ele><time>2026-04-12T11:29:26.008Z</time></trkpt><trkpt lat="40.02632736870599" lon="18.167874472802875"><ele>146.0</ele><time>2026-04-12T11:29:27.008Z</time></trkpt><trkpt lat="40.026515718645875" lon="18.167660633722445"><ele>146.0</ele><time>2026-04-12T11:29:28.008Z</time></trkpt><trkpt lat="40.02669368071944" lon="18.167461503898654"><ele>146.0</ele><time>2026-04-12T11:29:29.008Z</time></trkpt><trkpt lat="40.02684331547405" lon="18.16729352452113"><ele>146.0</ele><time>2026-04-12T11:29:30.008Z</time></trkpt><trkpt lat="40.02696830313173" lon="18.167154894797243"><ele>146.0</ele><time>2026-04-12T11:29:31.008Z</time></trkpt><trkpt lat="40.027072816448005" lon="18.16704156473669"><ele>146.0</ele><time>2026-04-12T11:29:32.008Z</time></trkpt><trkpt lat="40.02716576387823" lon="18.166951317833654"><ele>146.0</ele><time>2026-04-12T11:29:33.008Z</time></trkpt><trkpt lat="40.02725292559157" lon="18.166879492794067"><ele>146.0</ele><time>2026-04-12T11:29:34.008Z</time></trkpt><trkpt lat="40.02733184308406" lon="18.16684145729047"><ele>146.0</ele><time>2026-04-12T11:29:35.008Z</time></trkpt><trkpt lat="40.02749211789345" lon="18.166848712585537"><ele>146.0</ele><time>2026-04-12T11:29:37.008Z</time></trkpt><trkpt lat="40.02757497009787" lon="18.166890769111433"><ele>146.0</ele><time>2026-04-12T11:29:38.008Z</time></trkpt><trkpt lat="40.027670633811134" lon="18.167021628537128"><ele>146.0</ele><time>2026-04-12T11:29:39.008Z</time></trkpt><trkpt lat="40.027802155190386" lon="18.16712007567789"><ele>146.0</ele><time>2026-04-12T11:29:40.008Z</time></trkpt><trkpt lat="40.02795332652058" lon="18.167229825817728"><ele>146.0</ele><time>2026-04-12T11:29:41.008Z</time></trkpt><trkpt lat="40.02811479608911" lon="18.167343633458596"><ele>146.0</ele><time>2026-04-12T11:29:42.008Z</time></trkpt><trkpt lat="40.0282889218697" lon="18.16746367576461"><ele>146.0</ele><time>2026-04-12T11:29:43.008Z</time></trkpt><trkpt lat="40.02846664772226" lon="18.167585204201917"><ele>146.66666666666666</ele><time>2026-04-12T11:29:44.008Z</time></trkpt><trkpt lat="40.028640975250354" lon="18.167697250636856"><ele>147.33333333333334</ele><time>2026-04-12T11:29:45.008Z</time></trkpt><trkpt lat="40.028791679277695" lon="18.16780144196489"><ele>148.0</ele><time>2026-04-12T11:29:46.008Z</time></trkpt><trkpt lat="40.02893784736322" lon="18.1678995935847"><ele>148.0</ele><time>2026-04-12T11:29:47.008Z</time></trkpt><trkpt lat="40.02908410975516" lon="18.167986717789802"><ele>148.0</ele><time>2026-04-12T11:29:48.008Z</time></trkpt><trkpt lat="40.02922456997344" lon="18.168051952413602"><ele>148.0</ele><time>2026-04-12T11:29:49.008Z</time></trkpt><trkpt lat="40.029371966789306" lon="18.168108917704423"><ele>148.66666666666669</ele><time>2026-04-12T11:29:50.008Z</time></trkpt><trkpt lat="40.02954186299816" lon="18.16814053488585"><ele>149.33333333333334</ele><time>2026-04-12T11:29:51.008Z</time></trkpt><trkpt lat="40.02971460919461" lon="18.168183854620914"><ele>150.0</ele><time>2026-04-12T11:29:52.008Z</time></trkpt><trkpt lat="40.029905937987245" lon="18.16823316219334"><ele>150.66666666666666</ele><time>2026-04-12T11:29:53.009Z</time></trkpt><trkpt lat="40.03010904089923" lon="18.16829970155758"><ele>151.33333333333331</ele><time>2026-04-12T11:29:54.009Z</time></trkpt><trkpt lat="40.030314409652355" lon="18.168381176759873"><ele>152.0</ele><time>2026-04-12T11:29:55.009Z</time></trkpt><trkpt lat="40.03052369224183" lon="18.168473851876865"><ele>152.66666666666666</ele><time>2026-04-12T11:29:56.009Z</time></trkpt><trkpt lat="40.03082073208326" lon="18.168580095572295"><ele>153.33333333333334</ele><time>2026-04-12T11:29:58.009Z</time></trkpt><trkpt lat="40.03091739683572" lon="18.16863663808809"><ele>154.0</ele><time>2026-04-12T11:29:59.009Z</time></trkpt><trkpt lat="40.030987279074814" lon="18.168702682659752"><ele>154.0</ele><time>2026-04-12T11:30:00.009Z</time></trkpt><trkpt lat="40.031049174447595" lon="18.16878165129204"><ele>154.0</ele><time>2026-04-12T11:30:01.009Z</time></trkpt><trkpt lat="40.03111504695097" lon="18.168842943982682"><ele>154.0</ele><time>2026-04-12T11:30:02.009Z</time></trkpt><trkpt lat="40.03118685427991" lon="18.16884440848194"><ele>154.0</ele><time>2026-04-12T11:30:03.009Z</time></trkpt><trkpt lat="40.031268557352476" lon="18.168803968591714"><ele>154.0</ele><time>2026-04-12T11:30:04.009Z</time></trkpt><trkpt lat="40.03135690379314" lon="18.168720856298197"><ele>154.0</ele><time>2026-04-12T11:30:05.009Z</time></trkpt><trkpt lat="40.0314666126319" lon="18.16863979155538"><ele>154.0</ele><time>2026-04-12T11:30:06.009Z</time></trkpt><trkpt lat="40.03161130220495" lon="18.168603365000926"><ele>154.0</ele><time>2026-04-12T11:30:07.009Z</time></trkpt><trkpt lat="40.03178836252617" lon="18.168598939799196"><ele>154.0</ele><time>2026-04-12T11:30:08.009Z</time></trkpt><trkpt lat="40.03198340124439" lon="18.168615836531114"><ele>155.0</ele><time>2026-04-12T11:30:09.009Z</time></trkpt><trkpt lat="40.03218953345856" lon="18.168650999901374"><ele>156.0</ele><time>2026-04-12T11:30:10.009Z</time></trkpt><trkpt lat="40.03241184215411" lon="18.1686938242498"><ele>157.0</ele><time>2026-04-12T11:30:11.009Z</time></trkpt><trkpt lat="40.03264708276169" lon="18.168739891805497"><ele>157.0</ele><time>2026-04-12T11:30:12.009Z</time></trkpt><trkpt lat="40.03288998391432" lon="18.16878327883013"><ele>157.0</ele><time>2026-04-12T11:30:13.009Z</time></trkpt><trkpt lat="40.03314466300525" lon="18.16882235021964"><ele>159.0</ele><time>2026-04-12T11:30:14.009Z</time></trkpt><trkpt lat="40.033406644893596" lon="18.168872066391636"><ele>161.0</ele><time>2026-04-12T11:30:15.009Z</time></trkpt><trkpt lat="40.033646078362196" lon="18.168909654795257"><ele>161.0</ele><time>2026-04-12T11:30:16.009Z</time></trkpt><trkpt lat="40.0338666819993" lon="18.168949396796666"><ele>161.0</ele><time>2026-04-12T11:30:17.009Z</time></trkpt><trkpt lat="40.03431182006022" lon="18.1691034381168"><ele>160.5</ele><time>2026-04-12T11:30:19.009Z</time></trkpt><trkpt lat="40.03453200939196" lon="18.169193313072554"><ele>160.0</ele><time>2026-04-12T11:30:20.009Z</time></trkpt><trkpt lat="40.03476389755433" lon="18.169256715752255"><ele>161.0</ele><time>2026-04-12T11:30:21.009Z</time></trkpt><trkpt lat="40.035005048360304" lon="18.16929968801873"><ele>162.0</ele><time>2026-04-12T11:30:22.009Z</time></trkpt><trkpt lat="40.03524756452072" lon="18.16931525426518"><ele>162.0</ele><time>2026-04-12T11:30:23.009Z</time></trkpt><trkpt lat="40.03549942569149" lon="18.169315952582835"><ele>162.0</ele><time>2026-04-12T11:30:24.009Z</time></trkpt><trkpt lat="40.03575087321479" lon="18.169332748295215"><ele>162.5</ele><time>2026-04-12T11:30:25.009Z</time></trkpt><trkpt lat="40.03600636213935" lon="18.169345837218994"><ele>163.0</ele><time>2026-04-12T11:30:26.009Z</time></trkpt><trkpt lat="40.0362604863996" lon="18.16936097213969"><ele>163.0</ele><time>2026-04-12T11:30:27.009Z</time></trkpt><trkpt lat="40.036510658496006" lon="18.169390224254645"><ele>163.0</ele><time>2026-04-12T11:30:28.009Z</time></trkpt><trkpt lat="40.036757704999644" lon="18.169435757584992"><ele>164.0</ele><time>2026-04-12T11:30:29.009Z</time></trkpt><trkpt lat="40.03700184751118" lon="18.169507475970473"><ele>165.0</ele><time>2026-04-12T11:30:30.009Z</time></trkpt><trkpt lat="40.03724474557794" lon="18.169592493178907"><ele>164.5</ele><time>2026-04-12T11:30:31.009Z</time></trkpt><trkpt lat="40.03748906070669" lon="18.169673701758036"><ele>164.0</ele><time>2026-04-12T11:30:32.009Z</time></trkpt><trkpt lat="40.03774097591054" lon="18.169722760898996"><ele>164.0</ele><time>2026-04-12T11:30:33.009Z</time></trkpt><trkpt lat="40.03799477378156" lon="18.169757587526416"><ele>164.0</ele><time>2026-04-12T11:30:34.009Z</time></trkpt><trkpt lat="40.03824581121028" lon="18.169791662530415"><ele>164.0</ele><time>2026-04-12T11:30:35.009Z</time></trkpt><trkpt lat="40.038474310688876" lon="18.16982889559224"><ele>164.0</ele><time>2026-04-12T11:30:36.009Z</time></trkpt><trkpt lat="40.03868871402282" lon="18.169878300317485"><ele>164.0</ele><time>2026-04-12T11:30:37.009Z</time></trkpt><trkpt lat="40.0388964247245" lon="18.1699513075882"><ele>166.0</ele><time>2026-04-12T11:30:38.009Z</time></trkpt><trkpt lat="40.039316065667286" lon="18.170180430704786"><ele>166.0</ele><time>2026-04-12T11:30:40.009Z</time></trkpt><trkpt lat="40.039530750817455" lon="18.170304383853313"><ele>166.0</ele><time>2026-04-12T11:30:41.009Z</time></trkpt><trkpt lat="40.039751903352894" lon="18.170431450560763"><ele>165.5</ele><time>2026-04-12T11:30:42.009Z</time></trkpt><trkpt lat="40.039979239802825" lon="18.170567000096472"><ele>165.0</ele><time>2026-04-12T11:30:43.009Z</time></trkpt><trkpt lat="40.040208972644166" lon="18.170693743750988"><ele>163.5</ele><time>2026-04-12T11:30:44.009Z</time></trkpt><trkpt lat="40.0404423344536" lon="18.170820773258185"><ele>162.0</ele><time>2026-04-12T11:30:45.009Z</time></trkpt><trkpt lat="40.04066712008852" lon="18.170946243114074"><ele>161.0</ele><time>2026-04-12T11:30:46.009Z</time></trkpt><trkpt lat="40.0408771304314" lon="18.171068572129734"><ele>160.0</ele><time>2026-04-12T11:30:47.01Z</time></trkpt><trkpt lat="40.04107854359536" lon="18.171181784732706"><ele>159.0</ele><time>2026-04-12T11:30:48.01Z</time></trkpt><trkpt lat="40.04127514442375" lon="18.171288170398515"><ele>159.0</ele><time>2026-04-12T11:30:49.01Z</time></trkpt><trkpt lat="40.04146531424002" lon="18.17139053890743"><ele>159.0</ele><time>2026-04-12T11:30:50.01Z</time></trkpt><trkpt lat="40.04166432766348" lon="18.171475151164735"><ele>159.0</ele><time>2026-04-12T11:30:51.01Z</time></trkpt><trkpt lat="40.041871079231946" lon="18.171524542822173"><ele>158.66666666666666</ele><time>2026-04-12T11:30:52.01Z</time></trkpt><trkpt lat="40.042083839644505" lon="18.17154870225905"><ele>158.33333333333331</ele><time>2026-04-12T11:30:53.01Z</time></trkpt><trkpt lat="40.04230478701332" lon="18.171567306381803"><ele>158.0</ele><time>2026-04-12T11:30:54.01Z</time></trkpt><trkpt lat="40.04253271840585" lon="18.171584137459806"><ele>157.5</ele><time>2026-04-12T11:30:55.01Z</time></trkpt><trkpt lat="40.0427611144296" lon="18.171601634737318"><ele>157.0</ele><time>2026-04-12T11:30:56.01Z</time></trkpt><trkpt lat="40.042994762318955" lon="18.171616781401625"><ele>157.0</ele><time>2026-04-12T11:30:57.01Z</time></trkpt><trkpt lat="40.04323218029551" lon="18.171627956371182"><ele>157.0</ele><time>2026-04-12T11:30:58.01Z</time></trkpt><trkpt lat="40.04347244352828" lon="18.17164144996546"><ele>156.0</ele><time>2026-04-12T11:30:59.01Z</time></trkpt><trkpt lat="40.04396236534372" lon="18.171670690315096"><ele>157.5</ele><time>2026-04-12T11:31:01.01Z</time></trkpt><trkpt lat="40.04420924056251" lon="18.171692056521046"><ele>159.0</ele><time>2026-04-12T11:31:02.01Z</time></trkpt><trkpt lat="40.04445924958137" lon="18.17170494094318"><ele>159.0</ele><time>2026-04-12T11:31:03.01Z</time></trkpt><trkpt lat="40.04470725365194" lon="18.17171466492696"><ele>159.0</ele><time>2026-04-12T11:31:04.01Z</time></trkpt><trkpt lat="40.04495420617163" lon="18.171717578165175"><ele>157.5</ele><time>2026-04-12T11:31:05.01Z</time></trkpt><trkpt lat="40.04520225673522" lon="18.171703697431592"><ele>156.0</ele><time>2026-04-12T11:31:06.01Z</time></trkpt><trkpt lat="40.045445230015886" lon="18.17166287297081"><ele>156.0</ele><time>2026-04-12T11:31:07.01Z</time></trkpt><trkpt lat="40.04568460575805" lon="18.17159316090436"><ele>156.0</ele><time>2026-04-12T11:31:08.01Z</time></trkpt><trkpt lat="40.045921845133996" lon="18.171496819813097"><ele>157.5</ele><time>2026-04-12T11:31:09.01Z</time></trkpt><trkpt lat="40.0461586856535" lon="18.171396114861523"><ele>159.0</ele><time>2026-04-12T11:31:10.01Z</time></trkpt><trkpt lat="40.0464002225732" lon="18.17129360606935"><ele>158.0</ele><time>2026-04-12T11:31:11.01Z</time></trkpt><trkpt lat="40.046640534824824" lon="18.171183751587122"><ele>157.0</ele><time>2026-04-12T11:31:12.01Z</time></trkpt><trkpt lat="40.04688079895182" lon="18.17108064399529"><ele>157.0</ele><time>2026-04-12T11:31:13.01Z</time></trkpt><trkpt lat="40.047121458493635" lon="18.170963368471828"><ele>157.0</ele><time>2026-04-12T11:31:14.01Z</time></trkpt><trkpt lat="40.04736350080957" lon="18.170827185555133"><ele>157.0</ele><time>2026-04-12T11:31:15.01Z</time></trkpt><trkpt lat="40.04760389999697" lon="18.17068804201655"><ele>157.0</ele><time>2026-04-12T11:31:16.01Z</time></trkpt><trkpt lat="40.04783768086379" lon="18.170540239467773"><ele>157.0</ele><time>2026-04-12T11:31:17.01Z</time></trkpt><trkpt lat="40.04807555529513" lon="18.170392337432478"><ele>157.0</ele><time>2026-04-12T11:31:18.01Z</time></trkpt><trkpt lat="40.04831907624218" lon="18.170238060413993"><ele>156.5</ele><time>2026-04-12T11:31:19.01Z</time></trkpt><trkpt lat="40.04856137450099" lon="18.17009243569363"><ele>156.0</ele><time>2026-04-12T11:31:20.01Z</time></trkpt><trkpt lat="40.049043559279205" lon="18.169794274170517"><ele>156.0</ele><time>2026-04-12T11:31:22.01Z</time></trkpt><trkpt lat="40.04928585998061" lon="18.169646351144728"><ele>156.0</ele><time>2026-04-12T11:31:23.01Z</time></trkpt><trkpt lat="40.049529270179534" lon="18.169507991223046"><ele>156.0</ele><time>2026-04-12T11:31:24.01Z</time></trkpt><trkpt lat="40.049774216932235" lon="18.16937243384665"><ele>156.0</ele><time>2026-04-12T11:31:25.01Z</time></trkpt><trkpt lat="40.05002900024307" lon="18.169254100709832"><ele>153.5</ele><time>2026-04-12T11:31:26.01Z</time></trkpt><trkpt lat="40.05028780925926" lon="18.169158013756853"><ele>151.0</ele><time>2026-04-12T11:31:27.01Z</time></trkpt><trkpt lat="40.050553149350904" lon="18.169076864356846"><ele>152.0</ele><time>2026-04-12T11:31:28.01Z</time></trkpt><trkpt lat="40.050824873709274" lon="18.169001827959935"><ele>153.0</ele><time>2026-04-12T11:31:29.01Z</time></trkpt><trkpt lat="40.05109288272577" lon="18.168933686775702"><ele>153.0</ele><time>2026-04-12T11:31:30.01Z</time></trkpt><trkpt lat="40.051377158676694" lon="18.168862344863925"><ele>153.0</ele><time>2026-04-12T11:31:31.01Z</time></trkpt><trkpt lat="40.05164976833826" lon="18.16878314507854"><ele>152.0</ele><time>2026-04-12T11:31:32.01Z</time></trkpt><trkpt lat="40.05192404218474" lon="18.16870744155472"><ele>151.0</ele><time>2026-04-12T11:31:33.01Z</time></trkpt><trkpt lat="40.0521990993517" lon="18.168628258650536"><ele>149.0</ele><time>2026-04-12T11:31:34.01Z</time></trkpt><trkpt lat="40.052471089051934" lon="18.16855792038272"><ele>147.0</ele><time>2026-04-12T11:31:35.01Z</time></trkpt><trkpt lat="40.052744965077565" lon="18.168494254601782"><ele>147.0</ele><time>2026-04-12T11:31:36.01Z</time></trkpt><trkpt lat="40.0530277868596" lon="18.16845333379642"><ele>147.0</ele><time>2026-04-12T11:31:37.01Z</time></trkpt><trkpt lat="40.05331319843" lon="18.168450065066725"><ele>144.5</ele><time>2026-04-12T11:31:38.01Z</time></trkpt><trkpt lat="40.05358328982922" lon="18.168451528115536"><ele>142.0</ele><time>2026-04-12T11:31:39.01Z</time></trkpt><trkpt lat="40.05386452266508" lon="18.16845888528819"><ele>139.5</ele><time>2026-04-12T11:31:40.011Z</time></trkpt><trkpt lat="40.054146252468236" lon="18.168463517507323"><ele>137.0</ele><time>2026-04-12T11:31:41.011Z</time></trkpt><trkpt lat="40.054722774084084" lon="18.168484549290454"><ele>135.5</ele><time>2026-04-12T11:31:43.011Z</time></trkpt><trkpt lat="40.05501589849104" lon="18.168495437028746"><ele>134.0</ele><time>2026-04-12T11:31:44.011Z</time></trkpt><trkpt lat="40.05530120905197" lon="18.16850926433676"><ele>134.0</ele><time>2026-04-12T11:31:45.011Z</time></trkpt><trkpt lat="40.05559130339123" lon="18.168518393071174"><ele>134.0</ele><time>2026-04-12T11:31:46.011Z</time></trkpt><trkpt lat="40.05588025724971" lon="18.168522050407315"><ele>132.0</ele><time>2026-04-12T11:31:47.011Z</time></trkpt><trkpt lat="40.056166711567435" lon="18.168514799404527"><ele>130.0</ele><time>2026-04-12T11:31:48.011Z</time></trkpt><trkpt lat="40.056454415246186" lon="18.168488449937914"><ele>129.0</ele><time>2026-04-12T11:31:49.011Z</time></trkpt><trkpt lat="40.05672715025985" lon="18.16843330391337"><ele>128.0</ele><time>2026-04-12T11:31:50.011Z</time></trkpt><trkpt lat="40.05699846889978" lon="18.168374285220104"><ele>128.0</ele><time>2026-04-12T11:31:51.011Z</time></trkpt><trkpt lat="40.057273399714916" lon="18.168299779513685"><ele>128.0</ele><time>2026-04-12T11:31:52.011Z</time></trkpt><trkpt lat="40.05756272739126" lon="18.168224674591492"><ele>128.5</ele><time>2026-04-12T11:31:53.011Z</time></trkpt><trkpt lat="40.05784747655044" lon="18.168151773280165"><ele>129.0</ele><time>2026-04-12T11:31:54.011Z</time></trkpt><trkpt lat="40.058134760086894" lon="18.16808154283351"><ele>128.0</ele><time>2026-04-12T11:31:55.011Z</time></trkpt><trkpt lat="40.05842616366936" lon="18.168013804435848"><ele>127.0</ele><time>2026-04-12T11:31:56.011Z</time></trkpt><trkpt lat="40.05871549596831" lon="18.167943880954734"><ele>127.0</ele><time>2026-04-12T11:31:57.011Z</time></trkpt><trkpt lat="40.059001472703514" lon="18.16787232258279"><ele>127.0</ele><time>2026-04-12T11:31:58.011Z</time></trkpt><trkpt lat="40.05928727495826" lon="18.16779726285038"><ele>126.5</ele><time>2026-04-12T11:31:59.011Z</time></trkpt><trkpt lat="40.059568956666475" lon="18.167721113307202"><ele>126.0</ele><time>2026-04-12T11:32:00.011Z</time></trkpt><trkpt lat="40.0598526539517" lon="18.167644436950933"><ele>125.5</ele><time>2026-04-12T11:32:01.011Z</time></trkpt><trkpt lat="40.06013668444233" lon="18.167563505872092"><ele>125.0</ele><time>2026-04-12T11:32:02.011Z</time></trkpt><trkpt lat="40.06069465229764" lon="18.167405383639476"><ele>126.5</ele><time>2026-04-12T11:32:04.011Z</time></trkpt><trkpt lat="40.06097136070047" lon="18.167325309383713"><ele>128.0</ele><time>2026-04-12T11:32:05.011Z</time></trkpt><trkpt lat="40.06124235852542" lon="18.16724645406124"><ele>128.0</ele><time>2026-04-12T11:32:06.011Z</time></trkpt><trkpt lat="40.06147610535401" lon="18.167172533469063"><ele>128.0</ele><time>2026-04-12T11:32:07.011Z</time></trkpt><trkpt lat="40.06166977107439" lon="18.167099590656022"><ele>128.0</ele><time>2026-04-12T11:32:08.011Z</time></trkpt><trkpt lat="40.06184800756817" lon="18.1670152188018"><ele>127.5</ele><time>2026-04-12T11:32:09.011Z</time></trkpt><trkpt lat="40.06204390564179" lon="18.166927844775778"><ele>127.0</ele><time>2026-04-12T11:32:10.011Z</time></trkpt><trkpt lat="40.06241047611973" lon="18.166846392634973"><ele>126.66666666666667</ele><time>2026-04-12T11:32:11.011Z</time></trkpt><trkpt lat="40.062609704168224" lon="18.16671752968829"><ele>126.33333333333334</ele><time>2026-04-12T11:32:12.011Z</time></trkpt><trkpt lat="40.062797753366084" lon="18.166560212738727"><ele>126.0</ele><time>2026-04-12T11:32:13.011Z</time></trkpt><trkpt lat="40.06296997760997" lon="18.1663670535617"><ele>126.0</ele><time>2026-04-12T11:32:14.011Z</time></trkpt><trkpt lat="40.06314439738169" lon="18.166163540236496"><ele>126.0</ele><time>2026-04-12T11:32:15.011Z</time></trkpt><trkpt lat="40.06332365023769" lon="18.165970213342867"><ele>125.33333333333334</ele><time>2026-04-12T11:32:16.011Z</time></trkpt><trkpt lat="40.0634902599942" lon="18.165787642499623"><ele>124.66666666666667</ele><time>2026-04-12T11:32:17.011Z</time></trkpt><trkpt lat="40.06365464690918" lon="18.165625965330207"><ele>124.0</ele><time>2026-04-12T11:32:18.011Z</time></trkpt><trkpt lat="40.06383130591051" lon="18.165485411514688"><ele>124.0</ele><time>2026-04-12T11:32:19.011Z</time></trkpt><trkpt lat="40.06401595864715" lon="18.165357253426727"><ele>124.0</ele><time>2026-04-12T11:32:20.011Z</time></trkpt><trkpt lat="40.06420576915397" lon="18.165241709622347"><ele>124.0</ele><time>2026-04-12T11:32:21.011Z</time></trkpt><trkpt lat="40.064408475662034" lon="18.16514574074143"><ele>124.0</ele><time>2026-04-12T11:32:22.011Z</time></trkpt><trkpt lat="40.06462056349374" lon="18.165087641915875"><ele>124.0</ele><time>2026-04-12T11:32:23.011Z</time></trkpt><trkpt lat="40.06502890070509" lon="18.16503278865537"><ele>124.0</ele><time>2026-04-12T11:32:25.011Z</time></trkpt><trkpt lat="40.06522231942023" lon="18.165032269250244"><ele>124.0</ele><time>2026-04-12T11:32:26.011Z</time></trkpt><trkpt lat="40.06541799722462" lon="18.165057687894116"><ele>124.0</ele><time>2026-04-12T11:32:27.011Z</time></trkpt><trkpt lat="40.06562632604587" lon="18.165094264677712"><ele>123.66666666666667</ele><time>2026-04-12T11:32:28.011Z</time></trkpt><trkpt lat="40.06582478155138" lon="18.165092169509812"><ele>123.33333333333334</ele><time>2026-04-12T11:32:29.011Z</time></trkpt><trkpt lat="40.06599896057851" lon="18.165057692269148"><ele>123.0</ele><time>2026-04-12T11:32:30.011Z</time></trkpt><trkpt lat="40.06619294807894" lon="18.164984656561224"><ele>123.0</ele><time>2026-04-12T11:32:31.011Z</time></trkpt><trkpt lat="40.06638870545198" lon="18.16490794665204"><ele>123.0</ele><time>2026-04-12T11:32:32.011Z</time></trkpt><trkpt lat="40.06657291664089" lon="18.164833397078972"><ele>123.0</ele><time>2026-04-12T11:32:33.011Z</time></trkpt><trkpt lat="40.066714733980355" lon="18.164782643542242"><ele>123.0</ele><time>2026-04-12T11:32:34.012Z</time></trkpt><trkpt lat="40.066824449003036" lon="18.164723850617637"><ele>123.00000000000001</ele><time>2026-04-12T11:32:35.012Z</time></trkpt><trkpt lat="40.06689382914359" lon="18.164665642373986"><ele>123.00000000000001</ele><time>2026-04-12T11:32:36.012Z</time></trkpt><trkpt lat="40.06695148057393" lon="18.164632136425514"><ele>123.0</ele><time>2026-04-12T11:32:38.012Z</time></trkpt><trkpt lat="40.067029259070715" lon="18.164559317594225"><ele>123.0</ele><time>2026-04-12T11:32:42.012Z</time></trkpt><trkpt lat="40.067116054275644" lon="18.16449023762355"><ele>123.0</ele><time>2026-04-12T11:32:43.012Z</time></trkpt><trkpt lat="40.06723289904244" lon="18.16441764864089"><ele>123.0</ele><time>2026-04-12T11:32:44.012Z</time></trkpt><trkpt lat="40.06756132905764" lon="18.16423138083721"><ele>123.0</ele><time>2026-04-12T11:32:46.012Z</time></trkpt><trkpt lat="40.06774458896256" lon="18.164118375670984"><ele>123.0</ele><time>2026-04-12T11:32:47.012Z</time></trkpt><trkpt lat="40.06794047010558" lon="18.164006995396388"><ele>123.0</ele><time>2026-04-12T11:32:48.012Z</time></trkpt><trkpt lat="40.0681148942438" lon="18.163914547671617"><ele>123.0</ele><time>2026-04-12T11:32:49.012Z</time></trkpt><trkpt lat="40.068266532954716" lon="18.163822774391047"><ele>123.0</ele><time>2026-04-12T11:32:50.012Z</time></trkpt><trkpt lat="40.06841731392839" lon="18.16375966151038"><ele>123.0</ele><time>2026-04-12T11:32:51.012Z</time></trkpt><trkpt lat="40.06855285987268" lon="18.163693896429432"><ele>123.0</ele><time>2026-04-12T11:32:52.012Z</time></trkpt><trkpt lat="40.06865860421687" lon="18.16363502773079"><ele>123.0</ele><time>2026-04-12T11:32:53.012Z</time></trkpt><trkpt lat="40.068725035215884" lon="18.163589769670065"><ele>123.0</ele><time>2026-04-12T11:32:54.012Z</time></trkpt><trkpt lat="40.068793616997645" lon="18.163552345191988"><ele>123.0</ele><time>2026-04-12T11:32:56.012Z</time></trkpt><trkpt lat="40.068779128551725" lon="18.163450250366086"><ele>123.0</ele><time>2026-04-12T11:33:00.012Z</time></trkpt><trkpt lat="40.06872362475894" lon="18.163359209605208"><ele>123.0</ele><time>2026-04-12T11:33:01.012Z</time></trkpt><trkpt lat="40.06864899932704" lon="18.163241737098154"><ele>123.25</ele><time>2026-04-12T11:33:02.012Z</time></trkpt><trkpt lat="40.06857603239603" lon="18.163065705712096"><ele>123.5</ele><time>2026-04-12T11:33:03.012Z</time></trkpt><trkpt lat="40.068506070684016" lon="18.162938005069815"><ele>123.75</ele><time>2026-04-12T11:33:04.012Z</time></trkpt><trkpt lat="40.068448588944676" lon="18.162857059302613"><ele>124.0</ele><time>2026-04-12T11:33:05.012Z</time></trkpt><trkpt lat="40.06845542167404" lon="18.162720075138374"><ele>124.0</ele><time>2026-04-12T11:33:10.012Z</time></trkpt><trkpt lat="40.06853055670079" lon="18.162658563282985"><ele>124.0</ele><time>2026-04-12T11:33:11.012Z</time></trkpt><trkpt lat="40.068599334460934" lon="18.162572800533667"><ele>124.0</ele><time>2026-04-12T11:33:12.012Z</time></trkpt><trkpt lat="40.06868379785582" lon="18.162468525003213"><ele>124.0</ele><time>2026-04-12T11:33:13.012Z</time></trkpt><trkpt lat="40.0687922424259" lon="18.16235018759237"><ele>124.0</ele><time>2026-04-12T11:33:14.012Z</time></trkpt><trkpt lat="40.068915700894614" lon="18.162246898058797"><ele>123.75</ele><time>2026-04-12T11:33:15.012Z</time></trkpt><trkpt lat="40.069017668219075" lon="18.162137602906146"><ele>123.5</ele><time>2026-04-12T11:33:16.012Z</time></trkpt><trkpt lat="40.06910263513511" lon="18.162036015602858"><ele>123.25</ele><time>2026-04-12T11:33:17.012Z</time></trkpt><trkpt lat="40.069185566470146" lon="18.161943826980508"><ele>123.0</ele><time>2026-04-12T11:33:18.012Z</time></trkpt><trkpt lat="40.06925856299333" lon="18.161852660484826"><ele>123.0</ele><time>2026-04-12T11:33:19.012Z</time></trkpt><trkpt lat="40.0693356636956" lon="18.16177005949697"><ele>123.0</ele><time>2026-04-12T11:33:20.012Z</time></trkpt><trkpt lat="40.069422260738826" lon="18.16168129971806"><ele>123.0</ele><time>2026-04-12T11:33:21.012Z</time></trkpt><trkpt lat="40.0695187238453" lon="18.16157613207345"><ele>123.0</ele><time>2026-04-12T11:33:22.012Z</time></trkpt><trkpt lat="40.06960422779449" lon="18.161476967076496"><ele>123.0</ele><time>2026-04-12T11:33:23.012Z</time></trkpt><trkpt lat="40.06968585910194" lon="18.161395716070967"><ele>123.0</ele><time>2026-04-12T11:33:24.012Z</time></trkpt><trkpt lat="40.069759480225265" lon="18.161326355214438"><ele>123.0</ele><time>2026-04-12T11:33:25.012Z</time></trkpt><trkpt lat="40.06980883461829" lon="18.161270792979117"><ele>123.0</ele><time>2026-04-12T11:33:26.012Z</time></trkpt><trkpt lat="40.069990076876586" lon="18.16105929493431"><ele>123.0</ele><time>2026-04-12T11:33:39.013Z</time></trkpt><trkpt lat="40.07007712630662" lon="18.160966385871067"><ele>123.0</ele><time>2026-04-12T11:33:40.013Z</time></trkpt><trkpt lat="40.07018552868088" lon="18.16085347600577"><ele>123.0</ele><time>2026-04-12T11:33:41.013Z</time></trkpt><trkpt lat="40.070291640915926" lon="18.160739325541968"><ele>123.0</ele><time>2026-04-12T11:33:42.013Z</time></trkpt><trkpt lat="40.07034563649499" lon="18.16067623462634"><ele>123.0</ele><time>2026-04-12T11:33:43.013Z</time></trkpt><trkpt lat="40.07043546068565" lon="18.160598915063183"><ele>123.0</ele><time>2026-04-12T11:33:47.013Z</time></trkpt><trkpt lat="40.07059026441589" lon="18.160422028296612"><ele>123.0</ele><time>2026-04-12T11:33:49.013Z</time></trkpt><trkpt lat="40.07068803736383" lon="18.16030512802389"><ele>123.0</ele><time>2026-04-12T11:33:50.013Z</time></trkpt><trkpt lat="40.070780468805935" lon="18.160193146725756"><ele>122.80000000000001</ele><time>2026-04-12T11:33:51.013Z</time></trkpt><trkpt lat="40.07082617256127" lon="18.160131998559148"><ele>122.60000000000001</ele><time>2026-04-12T11:33:52.013Z</time></trkpt><trkpt lat="40.0709183569703" lon="18.16003332727347"><ele>122.39999999999999</ele><time>2026-04-12T11:33:56.013Z</time></trkpt><trkpt lat="40.071001749259565" lon="18.159965890608078"><ele>122.19999999999999</ele><time>2026-04-12T11:33:57.013Z</time></trkpt><trkpt lat="40.07109396195255" lon="18.159873327501188"><ele>122.0</ele><time>2026-04-12T11:33:58.013Z</time></trkpt><trkpt lat="40.071200895903445" lon="18.15976602697085"><ele>122.0</ele><time>2026-04-12T11:33:59.013Z</time></trkpt><trkpt lat="40.07131406840851" lon="18.159652334157464"><ele>121.99999999999999</ele><time>2026-04-12T11:34:00.013Z</time></trkpt><trkpt lat="40.07140811197495" lon="18.159559708519485"><ele>121.99999999999999</ele><time>2026-04-12T11:34:01.013Z</time></trkpt><trkpt lat="40.071472865844655" lon="18.159488271860564"><ele>122.0</ele><time>2026-04-12T11:34:02.013Z</time></trkpt><trkpt lat="40.07154628488997" lon="18.1594157858804"><ele>122.0</ele><time>2026-04-12T11:34:04.013Z</time></trkpt><trkpt lat="40.07161931387864" lon="18.15944983025967"><ele>121.5</ele><time>2026-04-12T11:34:07.013Z</time></trkpt><trkpt lat="40.07167821192866" lon="18.15948876649107"><ele>121.0</ele><time>2026-04-12T11:34:08.013Z</time></trkpt><trkpt lat="40.071830633760435" lon="18.159693854558295"><ele>120.5</ele><time>2026-04-12T11:34:10.013Z</time></trkpt><trkpt lat="40.07191746047289" lon="18.15978642937938"><ele>120.0</ele><time>2026-04-12T11:34:11.013Z</time></trkpt><trkpt lat="40.07200797556849" lon="18.159902331254674"><ele>120.0</ele><time>2026-04-12T11:34:12.013Z</time></trkpt><trkpt lat="40.07209498494836" lon="18.16001322194369"><ele>120.0</ele><time>2026-04-12T11:34:13.013Z</time></trkpt><trkpt lat="40.072156269877425" lon="18.160097256666884"><ele>120.0</ele><time>2026-04-12T11:34:14.013Z</time></trkpt><trkpt lat="40.07220818415504" lon="18.160165886877866"><ele>120.0</ele><time>2026-04-12T11:34:15.013Z</time></trkpt><trkpt lat="40.07228148193877" lon="18.1603008882192"><ele>120.0</ele><time>2026-04-12T11:34:17.013Z</time></trkpt><trkpt lat="40.072298435495355" lon="18.16041045048922"><ele>120.0</ele><time>2026-04-12T11:34:18.013Z</time></trkpt><trkpt lat="40.07232167187078" lon="18.16050712895516"><ele>120.0</ele><time>2026-04-12T11:34:19.013Z</time></trkpt><trkpt lat="40.07237528752717" lon="18.16062542969868"><ele>120.0</ele><time>2026-04-12T11:34:21.014Z</time></trkpt><trkpt lat="40.07246092107801" lon="18.160655838232046"><ele>120.0</ele><time>2026-04-12T11:34:23.014Z</time></trkpt><trkpt lat="40.0725216371879" lon="18.16063380630823"><ele>120.0</ele><time>2026-04-12T11:34:24.014Z</time></trkpt><trkpt lat="40.07258936167361" lon="18.160584187473788"><ele>120.0</ele><time>2026-04-12T11:34:25.014Z</time></trkpt><trkpt lat="40.07267299348382" lon="18.160552289458764"><ele>119.8</ele><time>2026-04-12T11:34:26.014Z</time></trkpt><trkpt lat="40.072751546670396" lon="18.160528043137617"><ele>119.6</ele><time>2026-04-12T11:34:27.014Z</time></trkpt><trkpt lat="40.072820101403615" lon="18.16050231083765"><ele>119.4</ele><time>2026-04-12T11:34:28.014Z</time></trkpt><trkpt lat="40.07296987541095" lon="18.160534373818322"><ele>119.2</ele><time>2026-04-12T11:34:31.014Z</time></trkpt><trkpt lat="40.073048465050746" lon="18.16059656908589"><ele>119.0</ele><time>2026-04-12T11:34:32.014Z</time></trkpt><trkpt lat="40.07313538052465" lon="18.16066877574174"><ele>119.5</ele><time>2026-04-12T11:34:33.014Z</time></trkpt><trkpt lat="40.07321674257487" lon="18.160766971710654"><ele>120.0</ele><time>2026-04-12T11:34:34.014Z</time></trkpt><trkpt lat="40.07330266926095" lon="18.160898832471467"><ele>120.5</ele><time>2026-04-12T11:34:35.014Z</time></trkpt><trkpt lat="40.07341550877322" lon="18.161039420323"><ele>121.0</ele><time>2026-04-12T11:34:36.014Z</time></trkpt><trkpt lat="40.073515641480896" lon="18.161185140324662"><ele>121.0</ele><time>2026-04-12T11:34:37.014Z</time></trkpt><trkpt lat="40.073617008425074" lon="18.161310248566878"><ele>121.0</ele><time>2026-04-12T11:34:38.014Z</time></trkpt><trkpt lat="40.073702976904464" lon="18.161428793950453"><ele>121.0</ele><time>2026-04-12T11:34:39.014Z</time></trkpt><trkpt lat="40.07379134889867" lon="18.161537680621272"><ele>121.0</ele><time>2026-04-12T11:34:40.014Z</time></trkpt><trkpt lat="40.07388244541282" lon="18.161649493477704"><ele>120.8</ele><time>2026-04-12T11:34:41.014Z</time></trkpt><trkpt lat="40.07395513017157" lon="18.16174519829591"><ele>120.6</ele><time>2026-04-12T11:34:42.014Z</time></trkpt><trkpt lat="40.07401546698021" lon="18.161834474071135"><ele>120.4</ele><time>2026-04-12T11:34:43.014Z</time></trkpt><trkpt lat="40.07407539322447" lon="18.16189728624394"><ele>120.2</ele><time>2026-04-12T11:34:44.014Z</time></trkpt><trkpt lat="40.07415993879857" lon="18.161939956338575"><ele>120.0</ele><time>2026-04-12T11:34:45.014Z</time></trkpt><trkpt lat="40.07425075818156" lon="18.162027331170574"><ele>120.0</ele><time>2026-04-12T11:34:46.014Z</time></trkpt><trkpt lat="40.07435130865051" lon="18.16215556326852"><ele>120.0</ele><time>2026-04-12T11:34:47.014Z</time></trkpt><trkpt lat="40.07447804153513" lon="18.16229684149705"><ele>120.0</ele><time>2026-04-12T11:34:48.014Z</time></trkpt><trkpt lat="40.07459398748214" lon="18.162399213114455"><ele>120.0</ele><time>2026-04-12T11:34:49.014Z</time></trkpt><trkpt lat="40.074832589905284" lon="18.162602257826236"><ele>120.0</ele><time>2026-04-12T11:34:51.014Z</time></trkpt><trkpt lat="40.07492459261788" lon="18.162722232977274"><ele>120.0</ele><time>2026-04-12T11:34:52.014Z</time></trkpt><trkpt lat="40.075002416152444" lon="18.16282821298665"><ele>120.0</ele><time>2026-04-12T11:34:53.014Z</time></trkpt><trkpt lat="40.07509511492572" lon="18.162927406948025"><ele>120.0</ele><time>2026-04-12T11:34:54.014Z</time></trkpt><trkpt lat="40.07516919405597" lon="18.163000540603928"><ele>119.4</ele><time>2026-04-12T11:34:55.014Z</time></trkpt><trkpt lat="40.075241774865525" lon="18.163031969492273"><ele>118.8</ele><time>2026-04-12T11:34:56.014Z</time></trkpt><trkpt lat="40.07532176035279" lon="18.163048539641665"><ele>118.19999999999999</ele><time>2026-04-12T11:34:57.014Z</time></trkpt><trkpt lat="40.07543496332419" lon="18.16303456746857"><ele>117.6</ele><time>2026-04-12T11:34:58.014Z</time></trkpt><trkpt lat="40.075548501940105" lon="18.163020154212965"><ele>117.0</ele><time>2026-04-12T11:34:59.014Z</time></trkpt><trkpt lat="40.075641217218546" lon="18.163021017833657"><ele>117.0</ele><time>2026-04-12T11:35:00.014Z</time></trkpt><trkpt lat="40.07571877569429" lon="18.163027349937476"><ele>117.0</ele><time>2026-04-12T11:35:01.014Z</time></trkpt><trkpt lat="40.07579310093256" lon="18.163058952200526"><ele>117.0</ele><time>2026-04-12T11:35:03.014Z</time></trkpt><trkpt lat="40.07643116947238" lon="18.16295856350745"><ele>116.0</ele><time>2026-04-12T11:42:48.023Z</time></trkpt><trkpt lat="40.07654721742884" lon="18.162969657494195"><ele>115.0</ele><time>2026-04-12T11:42:49.023Z</time></trkpt><trkpt lat="40.076688812572684" lon="18.16298785293428"><ele>114.0</ele><time>2026-04-12T11:42:50.023Z</time></trkpt><trkpt lat="40.07682627392681" lon="18.163005061275186"><ele>113.0</ele><time>2026-04-12T11:42:51.023Z</time></trkpt><trkpt lat="40.07695454847673" lon="18.163022449888885"><ele>111.66666666666666</ele><time>2026-04-12T11:42:52.023Z</time></trkpt><trkpt lat="40.07722132003629" lon="18.163038491958496"><ele>110.33333333333334</ele><time>2026-04-12T11:42:54.023Z</time></trkpt><trkpt lat="40.077362911909745" lon="18.163051514285236"><ele>109.0</ele><time>2026-04-12T11:42:55.023Z</time></trkpt><trkpt lat="40.07750135125987" lon="18.163053221502793"><ele>109.0</ele><time>2026-04-12T11:42:56.023Z</time></trkpt><trkpt lat="40.07763331269413" lon="18.163056089434576"><ele>109.0</ele><time>2026-04-12T11:42:57.023Z</time></trkpt><trkpt lat="40.07777217816974" lon="18.163069553275818"><ele>109.0</ele><time>2026-04-12T11:42:58.023Z</time></trkpt><trkpt lat="40.07790654981011" lon="18.163079598807524"><ele>109.0</ele><time>2026-04-12T11:42:59.024Z</time></trkpt><trkpt lat="40.078035911560775" lon="18.16308944389124"><ele>109.0</ele><time>2026-04-12T11:43:00.024Z</time></trkpt><trkpt lat="40.078167127182304" lon="18.163103283262437"><ele>109.0</ele><time>2026-04-12T11:43:01.024Z</time></trkpt><trkpt lat="40.07830610832798" lon="18.16311750528544"><ele>109.0</ele><time>2026-04-12T11:43:02.023Z</time></trkpt><trkpt lat="40.078455091324464" lon="18.16312786719821"><ele>109.0</ele><time>2026-04-12T11:43:03.023Z</time></trkpt><trkpt lat="40.07859941959222" lon="18.163139288821647"><ele>109.33333333333334</ele><time>2026-04-12T11:43:04.023Z</time></trkpt><trkpt lat="40.07874202324103" lon="18.163142790190964"><ele>109.66666666666666</ele><time>2026-04-12T11:43:05.024Z</time></trkpt><trkpt lat="40.078892835165306" lon="18.163150054860473"><ele>110.0</ele><time>2026-04-12T11:43:06.024Z</time></trkpt><trkpt lat="40.07905097809434" lon="18.163159418617138"><ele>110.33333333333333</ele><time>2026-04-12T11:43:07.024Z</time></trkpt><trkpt lat="40.07922310479986" lon="18.163157807114633"><ele>110.66666666666666</ele><time>2026-04-12T11:43:08.024Z</time></trkpt><trkpt lat="40.07940703416644" lon="18.163167040405778"><ele>111.0</ele><time>2026-04-12T11:43:09.024Z</time></trkpt><trkpt lat="40.0796045050919" lon="18.163186596090537"><ele>111.33333333333334</ele><time>2026-04-12T11:43:10.023Z</time></trkpt><trkpt lat="40.0798054284308" lon="18.163201272164542"><ele>111.66666666666667</ele><time>2026-04-12T11:43:11.024Z</time></trkpt><trkpt lat="40.08001148551443" lon="18.16321422861915"><ele>112.0</ele><time>2026-04-12T11:43:12.024Z</time></trkpt><trkpt lat="40.08022293356977" lon="18.163226698471483"><ele>112.5</ele><time>2026-04-12T11:43:13.023Z</time></trkpt><trkpt lat="40.08065458233291" lon="18.16326040070484"><ele>113.0</ele><time>2026-04-12T11:43:15.024Z</time></trkpt><trkpt lat="40.080872980625244" lon="18.163275636854845"><ele>114.0</ele><time>2026-04-12T11:43:16.024Z</time></trkpt><trkpt lat="40.081093102576105" lon="18.163297245307213"><ele>115.0</ele><time>2026-04-12T11:43:17.024Z</time></trkpt><trkpt lat="40.08131108977919" lon="18.16331011811737"><ele>116.0</ele><time>2026-04-12T11:43:18.024Z</time></trkpt><trkpt lat="40.081529323495154" lon="18.163327386125694"><ele>116.0</ele><time>2026-04-12T11:43:19.024Z</time></trkpt><trkpt lat="40.08176021810246" lon="18.163330491937277"><ele>116.0</ele><time>2026-04-12T11:43:20.024Z</time></trkpt><trkpt lat="40.08199697512332" lon="18.163335410031795"><ele>116.0</ele><time>2026-04-12T11:43:21.024Z</time></trkpt><trkpt lat="40.08223612061133" lon="18.16333732404421"><ele>116.0</ele><time>2026-04-12T11:43:22.024Z</time></trkpt><trkpt lat="40.08247401626348" lon="18.163350557868604"><ele>115.0</ele><time>2026-04-12T11:43:23.024Z</time></trkpt><trkpt lat="40.082714108388416" lon="18.163370684055486"><ele>114.0</ele><time>2026-04-12T11:43:24.024Z</time></trkpt><trkpt lat="40.082954152925765" lon="18.163388428610528"><ele>114.0</ele><time>2026-04-12T11:43:25.024Z</time></trkpt><trkpt lat="40.08319548035337" lon="18.16341157770276"><ele>114.0</ele><time>2026-04-12T11:43:26.024Z</time></trkpt><trkpt lat="40.083441298336176" lon="18.16343743325887"><ele>113.5</ele><time>2026-04-12T11:43:27.024Z</time></trkpt><trkpt lat="40.08368031681814" lon="18.16345902284384"><ele>113.0</ele><time>2026-04-12T11:43:28.024Z</time></trkpt><trkpt lat="40.083926357972366" lon="18.163473102122456"><ele>112.5</ele><time>2026-04-12T11:43:29.024Z</time></trkpt><trkpt lat="40.0841730687823" lon="18.163486159031873"><ele>112.0</ele><time>2026-04-12T11:43:30.024Z</time></trkpt><trkpt lat="40.08442003104579" lon="18.163501488596115"><ele>112.0</ele><time>2026-04-12T11:43:31.024Z</time></trkpt><trkpt lat="40.08465694478527" lon="18.163516450166764"><ele>112.0</ele><time>2026-04-12T11:43:32.024Z</time></trkpt><trkpt lat="40.08486014270524" lon="18.163524564117562"><ele>112.0</ele><time>2026-04-12T11:43:33.024Z</time></trkpt><trkpt lat="40.085053324749055" lon="18.16353547623919"><ele>112.5</ele><time>2026-04-12T11:43:34.024Z</time></trkpt><trkpt lat="40.08541549898391" lon="18.163564947229357"><ele>113.0</ele><time>2026-04-12T11:43:36.025Z</time></trkpt><trkpt lat="40.08557796156745" lon="18.163567044074274"><ele>113.0</ele><time>2026-04-12T11:43:37.025Z</time></trkpt><trkpt lat="40.085715416087815" lon="18.163554143636148"><ele>113.0</ele><time>2026-04-12T11:43:38.025Z</time></trkpt><trkpt lat="40.085835576602015" lon="18.163541227775323"><ele>113.0</ele><time>2026-04-12T11:43:39.025Z</time></trkpt><trkpt lat="40.085950203337674" lon="18.163530587407596"><ele>113.0</ele><time>2026-04-12T11:43:40.025Z</time></trkpt><trkpt lat="40.0860706893577" lon="18.163536845403932"><ele>112.75</ele><time>2026-04-12T11:43:41.025Z</time></trkpt><trkpt lat="40.08620253147135" lon="18.163530833657216"><ele>112.5</ele><time>2026-04-12T11:43:42.025Z</time></trkpt><trkpt lat="40.086329672762815" lon="18.16352443022929"><ele>112.25</ele><time>2026-04-12T11:43:43.025Z</time></trkpt><trkpt lat="40.08646686479056" lon="18.163548041793042"><ele>112.0</ele><time>2026-04-12T11:43:44.025Z</time></trkpt><trkpt lat="40.08661909261818" lon="18.163593047519637"><ele>112.0</ele><time>2026-04-12T11:43:45.025Z</time></trkpt><trkpt lat="40.08679140635261" lon="18.163629155553018"><ele>112.0</ele><time>2026-04-12T11:43:46.025Z</time></trkpt><trkpt lat="40.08697251471201" lon="18.16364039554999"><ele>112.0</ele><time>2026-04-12T11:43:47.025Z</time></trkpt><trkpt lat="40.087169615057846" lon="18.163653191686432"><ele>112.0</ele><time>2026-04-12T11:43:48.025Z</time></trkpt><trkpt lat="40.08737343978668" lon="18.163664061767463"><ele>112.0</ele><time>2026-04-12T11:43:49.025Z</time></trkpt><trkpt lat="40.08759001587643" lon="18.163676420272026"><ele>112.0</ele><time>2026-04-12T11:43:50.025Z</time></trkpt><trkpt lat="40.08781538701697" lon="18.163691677094903"><ele>111.5</ele><time>2026-04-12T11:43:51.025Z</time></trkpt><trkpt lat="40.08804078368023" lon="18.16370771727314"><ele>111.0</ele><time>2026-04-12T11:43:52.025Z</time></trkpt><trkpt lat="40.0882716153888" lon="18.163722844437142"><ele>110.5</ele><time>2026-04-12T11:43:53.025Z</time></trkpt><trkpt lat="40.088507625889285" lon="18.163735759514363"><ele>110.0</ele><time>2026-04-12T11:43:54.025Z</time></trkpt><trkpt lat="40.08874197287946" lon="18.16375229290513"><ele>110.0</ele><time>2026-04-12T11:43:55.025Z</time></trkpt><trkpt lat="40.08920371157984" lon="18.163787273349108"><ele>110.0</ele><time>2026-04-12T11:43:57.025Z</time></trkpt><trkpt lat="40.08943679962947" lon="18.16379785108164"><ele>110.0</ele><time>2026-04-12T11:43:58.025Z</time></trkpt><trkpt lat="40.08966304790549" lon="18.163810694710225"><ele>110.0</ele><time>2026-04-12T11:43:59.025Z</time></trkpt><trkpt lat="40.08989309465449" lon="18.16382553407929"><ele>110.0</ele><time>2026-04-12T11:44:00.025Z</time></trkpt><trkpt lat="40.09012676202581" lon="18.163839781099345"><ele>108.0</ele><time>2026-04-12T11:44:01.025Z</time></trkpt><trkpt lat="40.090361555923444" lon="18.163856323463897"><ele>106.0</ele><time>2026-04-12T11:44:02.025Z</time></trkpt><trkpt lat="40.090599732728805" lon="18.163871143716996"><ele>106.0</ele><time>2026-04-12T11:44:03.025Z</time></trkpt><trkpt lat="40.090840553250494" lon="18.163888625682407"><ele>106.0</ele><time>2026-04-12T11:44:04.025Z</time></trkpt><trkpt lat="40.091086199469274" lon="18.16390347427346"><ele>106.0</ele><time>2026-04-12T11:44:05.025Z</time></trkpt><trkpt lat="40.09132955035348" lon="18.16391780686353"><ele>106.0</ele><time>2026-04-12T11:44:06.025Z</time></trkpt><trkpt lat="40.0915705332809" lon="18.16392961696556"><ele>105.0</ele><time>2026-04-12T11:44:07.025Z</time></trkpt><trkpt lat="40.091817834466255" lon="18.163942348549472"><ele>104.0</ele><time>2026-04-12T11:44:08.025Z</time></trkpt><trkpt lat="40.09206319569588" lon="18.16395867910818"><ele>104.0</ele><time>2026-04-12T11:44:09.025Z</time></trkpt><trkpt lat="40.0923059799059" lon="18.163972850550653"><ele>104.0</ele><time>2026-04-12T11:44:10.025Z</time></trkpt><trkpt lat="40.09254264330757" lon="18.16398676845881"><ele>103.5</ele><time>2026-04-12T11:44:11.025Z</time></trkpt><trkpt lat="40.09278020365748" lon="18.164000105710294"><ele>103.0</ele><time>2026-04-12T11:44:12.025Z</time></trkpt><trkpt lat="40.093012074649074" lon="18.164011943623894"><ele>103.0</ele><time>2026-04-12T11:44:13.025Z</time></trkpt><trkpt lat="40.09324677578271" lon="18.16402540971694"><ele>103.0</ele><time>2026-04-12T11:44:14.025Z</time></trkpt><trkpt lat="40.09347989453392" lon="18.16404552577931"><ele>103.0</ele><time>2026-04-12T11:44:15.025Z</time></trkpt><trkpt lat="40.09370797030264" lon="18.164059916824012"><ele>103.0</ele><time>2026-04-12T11:44:16.025Z</time></trkpt><trkpt lat="40.09415109481999" lon="18.164087287835244"><ele>103.33333333333334</ele><time>2026-04-12T11:44:18.025Z</time></trkpt><trkpt lat="40.09436945478235" lon="18.16409920628405"><ele>103.66666666666666</ele><time>2026-04-12T11:44:19.025Z</time></trkpt><trkpt lat="40.094588926843215" lon="18.16411269972042"><ele>104.0</ele><time>2026-04-12T11:44:20.025Z</time></trkpt><trkpt lat="40.09481042050305" lon="18.16412490485944"><ele>104.0</ele><time>2026-04-12T11:44:21.025Z</time></trkpt><trkpt lat="40.095034494418634" lon="18.164137147437863"><ele>104.0</ele><time>2026-04-12T11:44:22.025Z</time></trkpt><trkpt lat="40.095258806660674" lon="18.16415355111096"><ele>104.0</ele><time>2026-04-12T11:44:23.025Z</time></trkpt><trkpt lat="40.095480419622085" lon="18.164168869017388"><ele>104.0</ele><time>2026-04-12T11:44:24.025Z</time></trkpt><trkpt lat="40.09570098073693" lon="18.164181535692666"><ele>104.0</ele><time>2026-04-12T11:44:25.025Z</time></trkpt><trkpt lat="40.095921189681874" lon="18.164193758418712"><ele>104.0</ele><time>2026-04-12T11:44:26.025Z</time></trkpt><trkpt lat="40.09613998778042" lon="18.16420746318749"><ele>103.66666666666666</ele><time>2026-04-12T11:44:27.025Z</time></trkpt><trkpt lat="40.09636042514203" lon="18.164220676260996"><ele>103.33333333333334</ele><time>2026-04-12T11:44:28.026Z</time></trkpt><trkpt lat="40.09657805907829" lon="18.164234099145055"><ele>103.0</ele><time>2026-04-12T11:44:29.026Z</time></trkpt><trkpt lat="40.09679834165193" lon="18.164247348824397"><ele>102.33333333333334</ele><time>2026-04-12T11:44:30.026Z</time></trkpt><trkpt lat="40.097017593585164" lon="18.164261001614516"><ele>101.66666666666666</ele><time>2026-04-12T11:44:31.026Z</time></trkpt><trkpt lat="40.09723735220143" lon="18.16427875269434"><ele>101.0</ele><time>2026-04-12T11:44:32.026Z</time></trkpt><trkpt lat="40.097456908078954" lon="18.164295092430077"><ele>100.66666666666666</ele><time>2026-04-12T11:44:33.026Z</time></trkpt><trkpt lat="40.09767236211065" lon="18.164308918568594"><ele>100.33333333333334</ele><time>2026-04-12T11:44:34.026Z</time></trkpt><trkpt lat="40.0978858777117" lon="18.164324674953054"><ele>100.0</ele><time>2026-04-12T11:44:35.026Z</time></trkpt><trkpt lat="40.09809899314457" lon="18.164340406402683"><ele>99.0</ele><time>2026-04-12T11:44:36.026Z</time></trkpt><trkpt lat="40.09830479305494" lon="18.164356237800664"><ele>98.0</ele><time>2026-04-12T11:44:37.026Z</time></trkpt><trkpt lat="40.09869162963147" lon="18.16438212447619"><ele>98.0</ele><time>2026-04-12T11:44:39.026Z</time></trkpt><trkpt lat="40.098888853795195" lon="18.16438827379461"><ele>98.0</ele><time>2026-04-12T11:44:40.026Z</time></trkpt><trkpt lat="40.09909192862273" lon="18.164402138864283"><ele>98.0</ele><time>2026-04-12T11:44:41.026Z</time></trkpt><trkpt lat="40.09929722760691" lon="18.16442502644398"><ele>98.33333333333333</ele><time>2026-04-12T11:44:42.026Z</time></trkpt><trkpt lat="40.09950651520148" lon="18.164444037765556"><ele>98.66666666666666</ele><time>2026-04-12T11:44:43.026Z</time></trkpt><trkpt lat="40.09970938493074" lon="18.164446570750712"><ele>99.0</ele><time>2026-04-12T11:44:44.026Z</time></trkpt><trkpt lat="40.099911683658334" lon="18.164458579939772"><ele>99.0</ele><time>2026-04-12T11:44:45.026Z</time></trkpt><trkpt lat="40.100114270637185" lon="18.164474227382062"><ele>99.0</ele><time>2026-04-12T11:44:46.026Z</time></trkpt><trkpt lat="40.10031841786523" lon="18.164486993346337"><ele>99.0</ele><time>2026-04-12T11:44:47.026Z</time></trkpt><trkpt lat="40.100525746285065" lon="18.16449878173246"><ele>99.0</ele><time>2026-04-12T11:44:48.026Z</time></trkpt><trkpt lat="40.100734044856274" lon="18.164526964963994"><ele>99.0</ele><time>2026-04-12T11:44:49.026Z</time></trkpt><trkpt lat="40.10094199079654" lon="18.164519695273945"><ele>99.0</ele><time>2026-04-12T11:44:50.026Z</time></trkpt><trkpt lat="40.10113620681766" lon="18.164500634161367"><ele>98.0</ele><time>2026-04-12T11:44:51.026Z</time></trkpt><trkpt lat="40.101345929409185" lon="18.164537675098646"><ele>97.0</ele><time>2026-04-12T11:44:52.026Z</time></trkpt><trkpt lat="40.101554499379624" lon="18.16458309369389"><ele>96.0</ele><time>2026-04-12T11:44:53.026Z</time></trkpt><trkpt lat="40.101759352274954" lon="18.16461057963086"><ele>95.66666666666667</ele><time>2026-04-12T11:44:54.026Z</time></trkpt><trkpt lat="40.1019604397037" lon="18.164627188043866"><ele>95.33333333333334</ele><time>2026-04-12T11:44:55.026Z</time></trkpt><trkpt lat="40.10216284304066" lon="18.164638971146"><ele>95.0</ele><time>2026-04-12T11:44:56.026Z</time></trkpt><trkpt lat="40.10236525409551" lon="18.164650122783062"><ele>95.0</ele><time>2026-04-12T11:44:57.026Z</time></trkpt><trkpt lat="40.102570263829364" lon="18.164656012090983"><ele>95.0</ele><time>2026-04-12T11:44:58.026Z</time></trkpt><trkpt lat="40.1029804505992" lon="18.164679665555013"><ele>95.0</ele><time>2026-04-12T11:45:00.026Z</time></trkpt><trkpt lat="40.10318486870214" lon="18.164697966029088"><ele>95.0</ele><time>2026-04-12T11:45:01.026Z</time></trkpt><trkpt lat="40.10339090923417" lon="18.164710269656954"><ele>95.0</ele><time>2026-04-12T11:45:02.026Z</time></trkpt><trkpt lat="40.10359734944448" lon="18.1647205380206"><ele>95.0</ele><time>2026-04-12T11:45:03.026Z</time></trkpt><trkpt lat="40.103804907073076" lon="18.164734068147915"><ele>95.0</ele><time>2026-04-12T11:45:04.026Z</time></trkpt><trkpt lat="40.10401205698374" lon="18.164755381291123"><ele>95.0</ele><time>2026-04-12T11:45:05.026Z</time></trkpt><trkpt lat="40.104223168103495" lon="18.164765816457116"><ele>95.0</ele><time>2026-04-12T11:45:06.026Z</time></trkpt><trkpt lat="40.104426222727355" lon="18.164754024590145"><ele>95.0</ele><time>2026-04-12T11:45:07.026Z</time></trkpt><trkpt lat="40.10463377076436" lon="18.164791902112906"><ele>95.0</ele><time>2026-04-12T11:45:08.024Z</time></trkpt><trkpt lat="40.104842659835285" lon="18.164803019427644"><ele>94.33333333333334</ele><time>2026-04-12T11:45:09.024Z</time></trkpt><trkpt lat="40.1050535464848" lon="18.164816023187594"><ele>93.66666666666667</ele><time>2026-04-12T11:45:10.026Z</time></trkpt><trkpt lat="40.10526231948759" lon="18.16482683863908"><ele>93.0</ele><time>2026-04-12T11:45:11.025Z</time></trkpt><trkpt lat="40.10546453888802" lon="18.164841280599493"><ele>93.0</ele><time>2026-04-12T11:45:12.025Z</time></trkpt><trkpt lat="40.10567178139764" lon="18.16485066017841"><ele>93.0</ele><time>2026-04-12T11:45:13.025Z</time></trkpt><trkpt lat="40.10587872409228" lon="18.164865292703013"><ele>93.0</ele><time>2026-04-12T11:45:14.025Z</time></trkpt><trkpt lat="40.10608848865031" lon="18.164876551242777"><ele>92.66666666666667</ele><time>2026-04-12T11:45:15.025Z</time></trkpt><trkpt lat="40.106297778545226" lon="18.164888426169526"><ele>92.33333333333334</ele><time>2026-04-12T11:45:16.025Z</time></trkpt><trkpt lat="40.10650693413831" lon="18.164902583526267"><ele>92.0</ele><time>2026-04-12T11:45:17.025Z</time></trkpt><trkpt lat="40.10671810923104" lon="18.164918101828867"><ele>92.0</ele><time>2026-04-12T11:45:18.025Z</time></trkpt><trkpt lat="40.10693037933313" lon="18.16493056350992"><ele>92.0</ele><time>2026-04-12T11:45:19.025Z</time></trkpt><trkpt lat="40.10734928730379" lon="18.164955736832116"><ele>92.33333333333334</ele><time>2026-04-12T11:45:21.025Z</time></trkpt><trkpt lat="40.10756067604187" lon="18.164973535621836"><ele>92.66666666666667</ele><time>2026-04-12T11:45:22.025Z</time></trkpt><trkpt lat="40.10777137297264" lon="18.16499199818308"><ele>93.0</ele><time>2026-04-12T11:45:23.025Z</time></trkpt><trkpt lat="40.10798586053618" lon="18.165000190941043"><ele>93.0</ele><time>2026-04-12T11:45:24.025Z</time></trkpt><trkpt lat="40.108197546279804" lon="18.165014599410593"><ele>93.0</ele><time>2026-04-12T11:45:25.025Z</time></trkpt><trkpt lat="40.10841185510256" lon="18.16502684351051"><ele>93.0</ele><time>2026-04-12T11:45:26.025Z</time></trkpt><trkpt lat="40.108620965111726" lon="18.165037440441743"><ele>92.66666666666667</ele><time>2026-04-12T11:45:27.025Z</time></trkpt><trkpt lat="40.10882547448397" lon="18.165049135369195"><ele>92.33333333333334</ele><time>2026-04-12T11:45:28.025Z</time></trkpt><trkpt lat="40.109031854308405" lon="18.165063821605074"><ele>92.0</ele><time>2026-04-12T11:45:29.025Z</time></trkpt><trkpt lat="40.10924083420612" lon="18.165078724648897"><ele>91.33333333333334</ele><time>2026-04-12T11:45:30.025Z</time></trkpt><trkpt lat="40.109445102008195" lon="18.165083037862736"><ele>90.66666666666667</ele><time>2026-04-12T11:45:31.025Z</time></trkpt><trkpt lat="40.10966854770436" lon="18.16509602053903"><ele>90.0</ele><time>2026-04-12T11:45:32.025Z</time></trkpt><trkpt lat="40.10988349798966" lon="18.165121309843677"><ele>90.33333333333333</ele><time>2026-04-12T11:45:33.025Z</time></trkpt><trkpt lat="40.11009576738573" lon="18.165134386750346"><ele>90.66666666666666</ele><time>2026-04-12T11:45:34.025Z</time></trkpt><trkpt lat="40.11030568561761" lon="18.16514957475536"><ele>91.0</ele><time>2026-04-12T11:45:35.025Z</time></trkpt><trkpt lat="40.110512616102056" lon="18.165155729643484"><ele>91.0</ele><time>2026-04-12T11:45:36.025Z</time></trkpt><trkpt lat="40.11072229100561" lon="18.165173117635465"><ele>91.0</ele><time>2026-04-12T11:45:37.025Z</time></trkpt><trkpt lat="40.1109318468657" lon="18.165184018301023"><ele>91.0</ele><time>2026-04-12T11:45:38.025Z</time></trkpt><trkpt lat="40.11113304655741" lon="18.165185896794462"><ele>90.0</ele><time>2026-04-12T11:45:39.025Z</time></trkpt><trkpt lat="40.11133859083721" lon="18.165191757229906"><ele>89.0</ele><time>2026-04-12T11:45:40.025Z</time></trkpt><trkpt lat="40.11177698979428" lon="18.165242338689755"><ele>89.0</ele><time>2026-04-12T11:45:42.025Z</time></trkpt><trkpt lat="40.11199695906478" lon="18.165258594236622"><ele>89.0</ele><time>2026-04-12T11:45:43.025Z</time></trkpt><trkpt lat="40.1121962558955" lon="18.165263146620973"><ele>89.0</ele><time>2026-04-12T11:45:44.025Z</time></trkpt><trkpt lat="40.112411573402085" lon="18.165270497786466"><ele>89.0</ele><time>2026-04-12T11:45:45.025Z</time></trkpt><trkpt lat="40.1126285342983" lon="18.16527803419288"><ele>89.0</ele><time>2026-04-12T11:45:46.025Z</time></trkpt><trkpt lat="40.1128404500866" lon="18.16529496893782"><ele>89.0</ele><time>2026-04-12T11:45:47.025Z</time></trkpt><trkpt lat="40.11305316034354" lon="18.165308410316904"><ele>88.66666666666667</ele><time>2026-04-12T11:45:48.025Z</time></trkpt><trkpt lat="40.113258169006905" lon="18.16532869595868"><ele>88.33333333333333</ele><time>2026-04-12T11:45:49.025Z</time></trkpt><trkpt lat="40.11347445798119" lon="18.16534114623698"><ele>88.0</ele><time>2026-04-12T11:45:50.025Z</time></trkpt><trkpt lat="40.11369230867199" lon="18.165351195407883"><ele>88.0</ele><time>2026-04-12T11:45:51.025Z</time></trkpt><trkpt lat="40.113905785237705" lon="18.165365324582318"><ele>88.0</ele><time>2026-04-12T11:45:52.025Z</time></trkpt><trkpt lat="40.11412308165939" lon="18.165381716609808"><ele>88.0</ele><time>2026-04-12T11:45:53.025Z</time></trkpt><trkpt lat="40.11433654615176" lon="18.16539804202658"><ele>87.66666666666666</ele><time>2026-04-12T11:45:54.025Z</time></trkpt><trkpt lat="40.11455604163264" lon="18.165416279975137"><ele>87.33333333333333</ele><time>2026-04-12T11:45:55.025Z</time></trkpt><trkpt lat="40.114776461611676" lon="18.16543213146924"><ele>87.0</ele><time>2026-04-12T11:45:56.025Z</time></trkpt><trkpt lat="40.115004711171956" lon="18.165448768397734"><ele>87.0</ele><time>2026-04-12T11:45:57.025Z</time></trkpt><trkpt lat="40.11524191715269" lon="18.16546594226106"><ele>87.0</ele><time>2026-04-12T11:45:58.025Z</time></trkpt><trkpt lat="40.115472113768185" lon="18.16547891925941"><ele>87.0</ele><time>2026-04-12T11:45:59.025Z</time></trkpt><trkpt lat="40.11571046017306" lon="18.165485043765823"><ele>87.0</ele><time>2026-04-12T11:46:00.025Z</time></trkpt><trkpt lat="40.11594695031401" lon="18.165500150999943"><ele>87.0</ele><time>2026-04-12T11:46:01.025Z</time></trkpt><trkpt lat="40.11641975971409" lon="18.165530921655183"><ele>87.0</ele><time>2026-04-12T11:46:03.025Z</time></trkpt><trkpt lat="40.116654507789775" lon="18.165543043787576"><ele>87.0</ele><time>2026-04-12T11:46:04.025Z</time></trkpt><trkpt lat="40.11689495109236" lon="18.16555229316063"><ele>87.0</ele><time>2026-04-12T11:46:05.025Z</time></trkpt><trkpt lat="40.117128688004215" lon="18.165572927140655"><ele>87.0</ele><time>2026-04-12T11:46:06.025Z</time></trkpt><trkpt lat="40.11736758880941" lon="18.1655774422252"><ele>86.0</ele><time>2026-04-12T11:46:07.025Z</time></trkpt><trkpt lat="40.11760593980169" lon="18.16559646976459"><ele>85.0</ele><time>2026-04-12T11:46:08.026Z</time></trkpt><trkpt lat="40.117844629616016" lon="18.165611125240545"><ele>85.0</ele><time>2026-04-12T11:46:09.026Z</time></trkpt><trkpt lat="40.11808405415411" lon="18.16562867983122"><ele>85.0</ele><time>2026-04-12T11:46:10.026Z</time></trkpt><trkpt lat="40.11832274323316" lon="18.165645179756474"><ele>84.5</ele><time>2026-04-12T11:46:11.026Z</time></trkpt><trkpt lat="40.11856103023718" lon="18.165660180434752"><ele>84.0</ele><time>2026-04-12T11:46:12.026Z</time></trkpt><trkpt lat="40.11879906181882" lon="18.16567702961572"><ele>84.0</ele><time>2026-04-12T11:46:13.026Z</time></trkpt><trkpt lat="40.119039738356236" lon="18.165691825317086"><ele>84.0</ele><time>2026-04-12T11:46:14.026Z</time></trkpt><trkpt lat="40.11927361566971" lon="18.165706020818114"><ele>84.0</ele><time>2026-04-12T11:46:15.026Z</time></trkpt><trkpt lat="40.1195098306428" lon="18.165724338722317"><ele>84.0</ele><time>2026-04-12T11:46:16.026Z</time></trkpt><trkpt lat="40.119748271686355" lon="18.16574067919492"><ele>84.5</ele><time>2026-04-12T11:46:17.026Z</time></trkpt><trkpt lat="40.11998447185558" lon="18.16575373187858"><ele>85.0</ele><time>2026-04-12T11:46:18.026Z</time></trkpt><trkpt lat="40.12021905413921" lon="18.165770085489438"><ele>85.0</ele><time>2026-04-12T11:46:19.026Z</time></trkpt><trkpt lat="40.12045426847995" lon="18.16578608415025"><ele>85.0</ele><time>2026-04-12T11:46:20.026Z</time></trkpt><trkpt lat="40.12068709200333" lon="18.165801687943446"><ele>84.0</ele><time>2026-04-12T11:46:21.026Z</time></trkpt><trkpt lat="40.120919794713856" lon="18.165816196551784"><ele>83.0</ele><time>2026-04-12T11:46:22.026Z</time></trkpt><trkpt lat="40.12138523820709" lon="18.165843231024173"><ele>83.5</ele><time>2026-04-12T11:46:24.026Z</time></trkpt><trkpt lat="40.12161720200101" lon="18.165853687561235"><ele>84.0</ele><time>2026-04-12T11:46:25.026Z</time></trkpt><trkpt lat="40.12184226295816" lon="18.16586907724974"><ele>84.0</ele><time>2026-04-12T11:46:26.026Z</time></trkpt><trkpt lat="40.122069615261495" lon="18.165883875545212"><ele>84.0</ele><time>2026-04-12T11:46:27.026Z</time></trkpt><trkpt lat="40.122297179811895" lon="18.16589709610261"><ele>84.0</ele><time>2026-04-12T11:46:28.026Z</time></trkpt><trkpt lat="40.122520002924034" lon="18.165914628673313"><ele>84.0</ele><time>2026-04-12T11:46:29.026Z</time></trkpt><trkpt lat="40.12274237046557" lon="18.16592811421176"><ele>84.0</ele><time>2026-04-12T11:46:30.026Z</time></trkpt><trkpt lat="40.12296388117907" lon="18.16594015143472"><ele>84.0</ele><time>2026-04-12T11:46:31.026Z</time></trkpt><trkpt lat="40.123185909308376" lon="18.165953534513353"><ele>84.0</ele><time>2026-04-12T11:46:32.026Z</time></trkpt><trkpt lat="40.12340614012167" lon="18.165969053093832"><ele>84.0</ele><time>2026-04-12T11:46:33.026Z</time></trkpt><trkpt lat="40.123627517876535" lon="18.165980177571743"><ele>83.33333333333333</ele><time>2026-04-12T11:46:34.026Z</time></trkpt><trkpt lat="40.123848055036376" lon="18.165994110750795"><ele>82.66666666666666</ele><time>2026-04-12T11:46:35.026Z</time></trkpt><trkpt lat="40.12406874350784" lon="18.166005067537554"><ele>82.0</ele><time>2026-04-12T11:46:36.026Z</time></trkpt><trkpt lat="40.12428887424823" lon="18.166021738611462"><ele>81.66666666666666</ele><time>2026-04-12T11:46:37.026Z</time></trkpt><trkpt lat="40.12450617304524" lon="18.166032680670313"><ele>81.33333333333333</ele><time>2026-04-12T11:46:38.026Z</time></trkpt><trkpt lat="40.12472501557878" lon="18.16605039356522"><ele>81.0</ele><time>2026-04-12T11:46:39.026Z</time></trkpt><trkpt lat="40.12493906326888" lon="18.166067765224778"><ele>80.66666666666667</ele><time>2026-04-12T11:46:40.026Z</time></trkpt><trkpt lat="40.12514179554643" lon="18.16608565644491"><ele>80.33333333333334</ele><time>2026-04-12T11:46:41.026Z</time></trkpt><trkpt lat="40.125340080194476" lon="18.16609782710951"><ele>80.0</ele><time>2026-04-12T11:46:42.026Z</time></trkpt><trkpt lat="40.125543501284945" lon="18.166103450799298"><ele>80.0</ele><time>2026-04-12T11:46:43.026Z</time></trkpt><trkpt lat="40.12597042435763" lon="18.166134216574708"><ele>80.0</ele><time>2026-04-12T11:46:45.026Z</time></trkpt><trkpt lat="40.126164208385674" lon="18.16615924447789"><ele>80.0</ele><time>2026-04-12T11:46:46.026Z</time></trkpt><trkpt lat="40.12634810033711" lon="18.166168823725982"><ele>80.0</ele><time>2026-04-12T11:46:47.026Z</time></trkpt><trkpt lat="40.12651953618941" lon="18.166169711836353"><ele>80.0</ele><time>2026-04-12T11:46:48.026Z</time></trkpt><trkpt lat="40.12668558493286" lon="18.166164354796784"><ele>80.5</ele><time>2026-04-12T11:46:49.026Z</time></trkpt><trkpt lat="40.12683655519339" lon="18.166187255921713"><ele>81.0</ele><time>2026-04-12T11:46:50.026Z</time></trkpt><trkpt lat="40.126984984868486" lon="18.166198708562305"><ele>81.5</ele><time>2026-04-12T11:46:51.026Z</time></trkpt><trkpt lat="40.127112239860935" lon="18.166202886085046"><ele>82.0</ele><time>2026-04-12T11:46:52.026Z</time></trkpt><trkpt lat="40.127225603644014" lon="18.16622364890598"><ele>82.0</ele><time>2026-04-12T11:46:53.026Z</time></trkpt><trkpt lat="40.12732686911393" lon="18.166256673112752"><ele>82.0</ele><time>2026-04-12T11:46:54.026Z</time></trkpt><trkpt lat="40.12740834786216" lon="18.166315651201796"><ele>82.0</ele><time>2026-04-12T11:46:55.026Z</time></trkpt><trkpt lat="40.127483870687776" lon="18.166388752032326"><ele>82.0</ele><time>2026-04-12T11:46:56.026Z</time></trkpt><trkpt lat="40.127555210731025" lon="18.16646104183355"><ele>82.0</ele><time>2026-04-12T11:46:57.026Z</time></trkpt><trkpt lat="40.127632930692386" lon="18.166510810832104"><ele>81.8</ele><time>2026-04-12T11:46:58.026Z</time></trkpt><trkpt lat="40.12772099971094" lon="18.16652872461352"><ele>81.6</ele><time>2026-04-12T11:46:59.026Z</time></trkpt><trkpt lat="40.12781321643927" lon="18.16650635366733"><ele>81.39999999999999</ele><time>2026-04-12T11:47:00.026Z</time></trkpt><trkpt lat="40.12790552020389" lon="18.166449471681528"><ele>81.19999999999999</ele><time>2026-04-12T11:47:01.026Z</time></trkpt><trkpt lat="40.1280004663181" lon="18.166372808344352"><ele>81.0</ele><time>2026-04-12T11:47:02.027Z</time></trkpt><trkpt lat="40.12811041523804" lon="18.16630712033828"><ele>78.0</ele><time>2026-04-12T11:47:03.027Z</time></trkpt><trkpt lat="40.12824524856067" lon="18.166275111784838"><ele>75.0</ele><time>2026-04-12T11:47:04.027Z</time></trkpt><trkpt lat="40.128568240596664" lon="18.166273280584054"><ele>75.0</ele><time>2026-04-12T11:47:06.027Z</time></trkpt><trkpt lat="40.128745869093834" lon="18.166296900529094"><ele>75.0</ele><time>2026-04-12T11:47:07.027Z</time></trkpt><trkpt lat="40.12893619074874" lon="18.166308844646633"><ele>75.0</ele><time>2026-04-12T11:47:08.027Z</time></trkpt><trkpt lat="40.129105736868276" lon="18.166307044225146"><ele>74.66666666666667</ele><time>2026-04-12T11:47:09.027Z</time></trkpt><trkpt lat="40.12927947745961" lon="18.166318883474318"><ele>74.33333333333334</ele><time>2026-04-12T11:47:10.027Z</time></trkpt><trkpt lat="40.129450695796216" lon="18.166329824096387"><ele>74.0</ele><time>2026-04-12T11:47:11.027Z</time></trkpt><trkpt lat="40.12963068860102" lon="18.16634410867364"><ele>74.0</ele><time>2026-04-12T11:47:12.027Z</time></trkpt><trkpt lat="40.129815048015935" lon="18.166361167299186"><ele>74.0</ele><time>2026-04-12T11:47:13.027Z</time></trkpt><trkpt lat="40.13001176707608" lon="18.166379053274202"><ele>74.0</ele><time>2026-04-12T11:47:14.027Z</time></trkpt><trkpt lat="40.130216337271676" lon="18.166392457910366"><ele>74.0</ele><time>2026-04-12T11:47:15.027Z</time></trkpt><trkpt lat="40.130426916717624" lon="18.166406194872526"><ele>74.0</ele><time>2026-04-12T11:47:16.027Z</time></trkpt><trkpt lat="40.13064018154567" lon="18.16641654837169"><ele>74.0</ele><time>2026-04-12T11:47:17.026Z</time></trkpt><trkpt lat="40.1308560450782" lon="18.166430979522453"><ele>74.0</ele><time>2026-04-12T11:47:18.026Z</time></trkpt><trkpt lat="40.131064715616866" lon="18.166441053663764"><ele>74.0</ele><time>2026-04-12T11:47:19.027Z</time></trkpt><trkpt lat="40.13126632698733" lon="18.166455483686228"><ele>74.0</ele><time>2026-04-12T11:47:20.027Z</time></trkpt><trkpt lat="40.13146411791635" lon="18.16646454321779"><ele>73.66666666666667</ele><time>2026-04-12T11:47:21.027Z</time></trkpt><trkpt lat="40.13166144432921" lon="18.16647405072984"><ele>73.33333333333333</ele><time>2026-04-12T11:47:22.027Z</time></trkpt><trkpt lat="40.131854922741645" lon="18.16649358773172"><ele>73.0</ele><time>2026-04-12T11:47:23.027Z</time></trkpt><trkpt lat="40.132052702200866" lon="18.166502107164714"><ele>73.0</ele><time>2026-04-12T11:47:24.027Z</time></trkpt><trkpt lat="40.132254876475315" lon="18.166516467264987"><ele>73.0</ele><time>2026-04-12T11:47:25.027Z</time></trkpt><trkpt lat="40.13266120975661" lon="18.166550804357836"><ele>72.66666666666666</ele><time>2026-04-12T11:47:27.027Z</time></trkpt><trkpt lat="40.13285855850686" lon="18.166562062814048"><ele>72.33333333333333</ele><time>2026-04-12T11:47:28.027Z</time></trkpt><trkpt lat="40.13305351361922" lon="18.16657652115375"><ele>72.0</ele><time>2026-04-12T11:47:29.027Z</time></trkpt><trkpt lat="40.13325283956727" lon="18.166589226871825"><ele>72.66666666666667</ele><time>2026-04-12T11:47:30.027Z</time></trkpt><trkpt lat="40.13345148378732" lon="18.166607264403194"><ele>73.33333333333334</ele><time>2026-04-12T11:47:31.027Z</time></trkpt><trkpt lat="40.1336509908274" lon="18.166617329677496"><ele>74.0</ele><time>2026-04-12T11:47:32.027Z</time></trkpt><trkpt lat="40.13384706125977" lon="18.166632083192173"><ele>74.0</ele><time>2026-04-12T11:47:33.027Z</time></trkpt><trkpt lat="40.13405086784989" lon="18.166640143174128"><ele>74.0</ele><time>2026-04-12T11:47:34.027Z</time></trkpt><trkpt lat="40.13424651293628" lon="18.166655054199335"><ele>74.0</ele><time>2026-04-12T11:47:35.027Z</time></trkpt><trkpt lat="40.13445041425989" lon="18.166668769364225"><ele>74.0</ele><time>2026-04-12T11:47:36.027Z</time></trkpt><trkpt lat="40.13465440716337" lon="18.16667905134105"><ele>74.0</ele><time>2026-04-12T11:47:37.028Z</time></trkpt><trkpt lat="40.13486168206724" lon="18.166685333783224"><ele>74.0</ele><time>2026-04-12T11:47:38.028Z</time></trkpt><trkpt lat="40.13507479990205" lon="18.166696707873278"><ele>74.0</ele><time>2026-04-12T11:47:39.028Z</time></trkpt><trkpt lat="40.135295909365226" lon="18.166719800147355"><ele>74.0</ele><time>2026-04-12T11:47:40.028Z</time></trkpt><trkpt lat="40.135499114430765" lon="18.166730424675166"><ele>74.0</ele><time>2026-04-12T11:47:41.028Z</time></trkpt><trkpt lat="40.13569844604778" lon="18.16674277965927"><ele>73.33333333333334</ele><time>2026-04-12T11:47:42.028Z</time></trkpt><trkpt lat="40.13589851946793" lon="18.166749206001047"><ele>72.66666666666667</ele><time>2026-04-12T11:47:43.028Z</time></trkpt><trkpt lat="40.13610160816857" lon="18.16676375985125"><ele>72.0</ele><time>2026-04-12T11:47:44.028Z</time></trkpt><trkpt lat="40.1363010490019" lon="18.166777919990224"><ele>72.0</ele><time>2026-04-12T11:47:45.028Z</time></trkpt><trkpt lat="40.13650178398808" lon="18.166794754310615"><ele>72.0</ele><time>2026-04-12T11:47:46.028Z</time></trkpt><trkpt lat="40.1368993975172" lon="18.16681981270724"><ele>72.33333333333333</ele><time>2026-04-12T11:47:48.028Z</time></trkpt><trkpt lat="40.137088194809955" lon="18.166825151870793"><ele>72.66666666666666</ele><time>2026-04-12T11:47:49.028Z</time></trkpt><trkpt lat="40.13725850920777" lon="18.166814735327304"><ele>73.0</ele><time>2026-04-12T11:47:50.028Z</time></trkpt><trkpt lat="40.13741232251903" lon="18.166803714618055"><ele>72.0</ele><time>2026-04-12T11:47:51.028Z</time></trkpt><trkpt lat="40.1375755520652" lon="18.166795635300897"><ele>71.0</ele><time>2026-04-12T11:47:52.028Z</time></trkpt><trkpt lat="40.13775087968144" lon="18.166826966441757"><ele>70.0</ele><time>2026-04-12T11:47:53.028Z</time></trkpt><trkpt lat="40.13791755078397" lon="18.16684214794954"><ele>70.0</ele><time>2026-04-12T11:47:54.028Z</time></trkpt><trkpt lat="40.1380891993285" lon="18.166870928361973"><ele>70.0</ele><time>2026-04-12T11:47:55.028Z</time></trkpt><trkpt lat="40.138242355644785" lon="18.166888553888537"><ele>70.0</ele><time>2026-04-12T11:47:56.028Z</time></trkpt><trkpt lat="40.13838637716587" lon="18.166904668306977"><ele>69.75</ele><time>2026-04-12T11:47:57.028Z</time></trkpt><trkpt lat="40.13852111562421" lon="18.16691401246352"><ele>69.5</ele><time>2026-04-12T11:47:58.028Z</time></trkpt><trkpt lat="40.13864170319417" lon="18.16691290705488"><ele>69.25</ele><time>2026-04-12T11:47:59.028Z</time></trkpt><trkpt lat="40.138751137999584" lon="18.166913577457823"><ele>69.0</ele><time>2026-04-12T11:48:00.028Z</time></trkpt><trkpt lat="40.13884673000956" lon="18.16693229817462"><ele>69.0</ele><time>2026-04-12T11:48:01.028Z</time></trkpt><trkpt lat="40.13892804888904" lon="18.166970815157754"><ele>69.0</ele><time>2026-04-12T11:48:02.028Z</time></trkpt><trkpt lat="40.13901236157814" lon="18.167037277173627"><ele>69.0</ele><time>2026-04-12T11:48:03.028Z</time></trkpt><trkpt lat="40.13910090417661" lon="18.167146463889473"><ele>69.0</ele><time>2026-04-12T11:48:04.028Z</time></trkpt><trkpt lat="40.139202247480206" lon="18.167271176697003"><ele>69.0</ele><time>2026-04-12T11:48:05.028Z</time></trkpt><trkpt lat="40.13932100875889" lon="18.167410209525798"><ele>68.5</ele><time>2026-04-12T11:48:06.028Z</time></trkpt><trkpt lat="40.13945525681253" lon="18.16756043766757"><ele>68.0</ele><time>2026-04-12T11:48:07.028Z</time></trkpt><trkpt lat="40.139737094688144" lon="18.167895484530188"><ele>68.33333333333334</ele><time>2026-04-12T11:48:09.028Z</time></trkpt><trkpt lat="40.1398927221754" lon="18.16807486669909"><ele>68.66666666666667</ele><time>2026-04-12T11:48:10.028Z</time></trkpt><trkpt lat="40.14005205111484" lon="18.168273255222463"><ele>69.0</ele><time>2026-04-12T11:48:11.028Z</time></trkpt><trkpt lat="40.14021174343888" lon="18.16847834708243"><ele>69.0</ele><time>2026-04-12T11:48:12.028Z</time></trkpt><trkpt lat="40.14036228406045" lon="18.168712276532833"><ele>69.0</ele><time>2026-04-12T11:48:13.028Z</time></trkpt><trkpt lat="40.140515731915585" lon="18.168946843372026"><ele>69.0</ele><time>2026-04-12T11:48:14.028Z</time></trkpt><trkpt lat="40.140656511475505" lon="18.16919580356058"><ele>69.0</ele><time>2026-04-12T11:48:15.028Z</time></trkpt><trkpt lat="40.140790666294656" lon="18.16946018907067"><ele>69.0</ele><time>2026-04-12T11:48:16.028Z</time></trkpt><trkpt lat="40.14093264362599" lon="18.16972690909544"><ele>69.0</ele><time>2026-04-12T11:48:17.028Z</time></trkpt><trkpt lat="40.14107355490932" lon="18.170002234964063"><ele>69.0</ele><time>2026-04-12T11:48:18.028Z</time></trkpt><trkpt lat="40.14138881963163" lon="18.169848699390496"><ele>69.0</ele><time>2026-04-12T11:48:19.028Z</time></trkpt><trkpt lat="40.14155803248291" lon="18.17005796893262"><ele>69.0</ele><time>2026-04-12T11:48:20.028Z</time></trkpt><trkpt lat="40.141728179234754" lon="18.17026728810455"><ele>69.0</ele><time>2026-04-12T11:48:21.028Z</time></trkpt><trkpt lat="40.14190265301803" lon="18.17046753353632"><ele>69.0</ele><time>2026-04-12T11:48:22.028Z</time></trkpt><trkpt lat="40.14207512130273" lon="18.170671203243778"><ele>69.0</ele><time>2026-04-12T11:48:23.028Z</time></trkpt><trkpt lat="40.142246106199416" lon="18.17088091586497"><ele>69.0</ele><time>2026-04-12T11:48:24.028Z</time></trkpt><trkpt lat="40.14241997945129" lon="18.171086818617148"><ele>69.0</ele><time>2026-04-12T11:48:25.028Z</time></trkpt><trkpt lat="40.142585276927235" lon="18.171288790776643"><ele>69.0</ele><time>2026-04-12T11:48:26.028Z</time></trkpt><trkpt lat="40.14275039161519" lon="18.171493871814917"><ele>69.0</ele><time>2026-04-12T11:48:27.028Z</time></trkpt><trkpt lat="40.1429175187929" lon="18.17169526466716"><ele>68.0</ele><time>2026-04-12T11:48:28.028Z</time></trkpt><trkpt lat="40.143252363776895" lon="18.172100764970892"><ele>68.0</ele><time>2026-04-12T11:48:30.029Z</time></trkpt><trkpt lat="40.14341722571079" lon="18.172302817294263"><ele>68.0</ele><time>2026-04-12T11:48:31.029Z</time></trkpt><trkpt lat="40.14359080066592" lon="18.172504221923116"><ele>68.0</ele><time>2026-04-12T11:48:32.029Z</time></trkpt><trkpt lat="40.143759616334265" lon="18.17270989648248"><ele>68.0</ele><time>2026-04-12T11:48:33.029Z</time></trkpt><trkpt lat="40.14393224048182" lon="18.172917231659977"><ele>68.5</ele><time>2026-04-12T11:48:34.029Z</time></trkpt><trkpt lat="40.144101654345604" lon="18.173124329069996"><ele>69.0</ele><time>2026-04-12T11:48:35.029Z</time></trkpt><trkpt lat="40.14426874669595" lon="18.17332036258547"><ele>69.0</ele><time>2026-04-12T11:48:36.029Z</time></trkpt><trkpt lat="40.14443971886936" lon="18.173514388456955"><ele>69.0</ele><time>2026-04-12T11:48:37.029Z</time></trkpt><trkpt lat="40.144617466323204" lon="18.17370127907369"><ele>69.0</ele><time>2026-04-12T11:48:38.029Z</time></trkpt><trkpt lat="40.14480675816704" lon="18.17388932950108"><ele>69.0</ele><time>2026-04-12T11:48:39.029Z</time></trkpt><trkpt lat="40.14500063468241" lon="18.17407413434569"><ele>70.0</ele><time>2026-04-12T11:48:40.029Z</time></trkpt><trkpt lat="40.145204186883994" lon="18.174254894468028"><ele>71.0</ele><time>2026-04-12T11:48:41.029Z</time></trkpt><trkpt lat="40.14543197681287" lon="18.174420005243558"><ele>71.0</ele><time>2026-04-12T11:48:42.029Z</time></trkpt><trkpt lat="40.145647488618664" lon="18.1745878510574"><ele>71.0</ele><time>2026-04-12T11:48:43.029Z</time></trkpt><trkpt lat="40.14587671946527" lon="18.174750503698558"><ele>70.0</ele><time>2026-04-12T11:48:44.029Z</time></trkpt><trkpt lat="40.146086452805974" lon="18.17491722657927"><ele>69.0</ele><time>2026-04-12T11:48:45.029Z</time></trkpt><trkpt lat="40.14629995818474" lon="18.175093592428887"><ele>69.0</ele><time>2026-04-12T11:48:46.029Z</time></trkpt><trkpt lat="40.14652865360011" lon="18.175266221200513"><ele>69.0</ele><time>2026-04-12T11:48:47.029Z</time></trkpt><trkpt lat="40.14675359093261" lon="18.17544335155781"><ele>68.5</ele><time>2026-04-12T11:48:48.029Z</time></trkpt><trkpt lat="40.14697568915027" lon="18.175612901488"><ele>68.0</ele><time>2026-04-12T11:48:49.029Z</time></trkpt><trkpt lat="40.14741480718589" lon="18.175946863396515"><ele>68.0</ele><time>2026-04-12T11:48:51.029Z</time></trkpt><trkpt lat="40.147631252204434" lon="18.17611861290624"><ele>68.0</ele><time>2026-04-12T11:48:52.029Z</time></trkpt><trkpt lat="40.14784323175723" lon="18.176290591390792"><ele>68.0</ele><time>2026-04-12T11:48:53.029Z</time></trkpt><trkpt lat="40.148061411136766" lon="18.17645335676959"><ele>68.0</ele><time>2026-04-12T11:48:54.029Z</time></trkpt><trkpt lat="40.14826955982655" lon="18.17663740703494"><ele>68.5</ele><time>2026-04-12T11:48:55.029Z</time></trkpt><trkpt lat="40.14847341882919" lon="18.176838453325264"><ele>69.0</ele><time>2026-04-12T11:48:56.029Z</time></trkpt><trkpt lat="40.14867795500176" lon="18.1770383191498"><ele>69.0</ele><time>2026-04-12T11:48:57.029Z</time></trkpt><trkpt lat="40.14888304417294" lon="18.177252322793937"><ele>69.0</ele><time>2026-04-12T11:48:58.029Z</time></trkpt><trkpt lat="40.14906895526278" lon="18.177487618525277"><ele>68.5</ele><time>2026-04-12T11:48:59.029Z</time></trkpt><trkpt lat="40.14924864465772" lon="18.177715234021072"><ele>68.0</ele><time>2026-04-12T11:49:00.029Z</time></trkpt><trkpt lat="40.14943460357829" lon="18.17794392976523"><ele>68.0</ele><time>2026-04-12T11:49:01.029Z</time></trkpt><trkpt lat="40.1496356842829" lon="18.17815456779239"><ele>68.0</ele><time>2026-04-12T11:49:02.029Z</time></trkpt><trkpt lat="40.1498119847873" lon="18.178356818202264"><ele>68.0</ele><time>2026-04-12T11:49:03.029Z</time></trkpt><trkpt lat="40.149986717968446" lon="18.17856232733594"><ele>68.0</ele><time>2026-04-12T11:49:04.029Z</time></trkpt><trkpt lat="40.150174088477584" lon="18.178764252337533"><ele>68.0</ele><time>2026-04-12T11:49:05.029Z</time></trkpt><trkpt lat="40.15034656809561" lon="18.178958194419504"><ele>68.0</ele><time>2026-04-12T11:49:06.029Z</time></trkpt><trkpt lat="40.15049386044423" lon="18.17912070833135"><ele>68.0</ele><time>2026-04-12T11:49:07.029Z</time></trkpt><trkpt lat="40.150621766847884" lon="18.179278570474274"><ele>69.0</ele><time>2026-04-12T11:49:08.029Z</time></trkpt><trkpt lat="40.1507342169075" lon="18.179412903826705"><ele>70.0</ele><time>2026-04-12T11:49:09.029Z</time></trkpt><trkpt lat="40.150842490308825" lon="18.179537822047102"><ele>71.0</ele><time>2026-04-12T11:49:10.029Z</time></trkpt><trkpt lat="40.1509799283731" lon="18.179716076057048"><ele>71.0</ele><time>2026-04-12T11:49:12.029Z</time></trkpt><trkpt lat="40.15102605656347" lon="18.179790293914635"><ele>71.0</ele><time>2026-04-12T11:49:13.029Z</time></trkpt><trkpt lat="40.15105183207488" lon="18.179881405921964"><ele>71.0</ele><time>2026-04-12T11:49:14.029Z</time></trkpt><trkpt lat="40.151065995353314" lon="18.179998858438793"><ele>71.0</ele><time>2026-04-12T11:49:15.029Z</time></trkpt><trkpt lat="40.15106350107689" lon="18.180127289727803"><ele>71.0</ele><time>2026-04-12T11:49:16.029Z</time></trkpt><trkpt lat="40.15108655091088" lon="18.180228688398348"><ele>71.0</ele><time>2026-04-12T11:49:17.029Z</time></trkpt><trkpt lat="40.1511324254997" lon="18.18031619815683"><ele>71.2</ele><time>2026-04-12T11:49:18.029Z</time></trkpt><trkpt lat="40.151208850854054" lon="18.18039125198256"><ele>71.39999999999999</ele><time>2026-04-12T11:49:19.029Z</time></trkpt><trkpt lat="40.15130384308267" lon="18.180451941242836"><ele>71.6</ele><time>2026-04-12T11:49:20.029Z</time></trkpt><trkpt lat="40.151407260398706" lon="18.18053336220479"><ele>71.8</ele><time>2026-04-12T11:49:21.029Z</time></trkpt><trkpt lat="40.15150254615875" lon="18.180642965167834"><ele>72.0</ele><time>2026-04-12T11:49:22.029Z</time></trkpt><trkpt lat="40.15158728205929" lon="18.180780022639503"><ele>72.5</ele><time>2026-04-12T11:49:23.029Z</time></trkpt><trkpt lat="40.151665247647735" lon="18.1809399671649"><ele>73.0</ele><time>2026-04-12T11:49:24.029Z</time></trkpt><trkpt lat="40.151738901853726" lon="18.181088674230516"><ele>73.5</ele><time>2026-04-12T11:49:25.029Z</time></trkpt><trkpt lat="40.15180365901927" lon="18.181217146395575"><ele>74.0</ele><time>2026-04-12T11:49:26.029Z</time></trkpt><trkpt lat="40.15187527420824" lon="18.181350714875844"><ele>74.0</ele><time>2026-04-12T11:49:27.029Z</time></trkpt><trkpt lat="40.15194701044857" lon="18.181486395653717"><ele>74.0</ele><time>2026-04-12T11:49:28.029Z</time></trkpt><trkpt lat="40.15201822342956" lon="18.18162616945256"><ele>74.0</ele><time>2026-04-12T11:49:29.03Z</time></trkpt><trkpt lat="40.15209912524382" lon="18.18177647357087"><ele>74.0</ele><time>2026-04-12T11:49:30.03Z</time></trkpt><trkpt lat="40.152181411738944" lon="18.18192658974315"><ele>73.0</ele><time>2026-04-12T11:49:31.03Z</time></trkpt><trkpt lat="40.15235892551624" lon="18.18224448270972"><ele>72.0</ele><time>2026-04-12T11:49:33.029Z</time></trkpt><trkpt lat="40.15244786811246" lon="18.18240992739771"><ele>71.0</ele><time>2026-04-12T11:49:34.029Z</time></trkpt><trkpt lat="40.15253509790916" lon="18.182565321064725"><ele>70.0</ele><time>2026-04-12T11:49:35.029Z</time></trkpt><trkpt lat="40.15262397818339" lon="18.18272732846031"><ele>69.0</ele><time>2026-04-12T11:49:36.029Z</time></trkpt><trkpt lat="40.152724848798975" lon="18.182883298075954"><ele>69.0</ele><time>2026-04-12T11:49:37.029Z</time></trkpt><trkpt lat="40.152833748291954" lon="18.183044834145413"><ele>69.0</ele><time>2026-04-12T11:49:38.029Z</time></trkpt><trkpt lat="40.15295088988195" lon="18.183194464617248"><ele>69.0</ele><time>2026-04-12T11:49:39.029Z</time></trkpt><trkpt lat="40.153073797992135" lon="18.183350312950402"><ele>69.0</ele><time>2026-04-12T11:49:40.029Z</time></trkpt><trkpt lat="40.15319316295793" lon="18.18348968435712"><ele>69.0</ele><time>2026-04-12T11:49:41.029Z</time></trkpt><trkpt lat="40.15331295364112" lon="18.183624796096108"><ele>69.0</ele><time>2026-04-12T11:49:42.029Z</time></trkpt><trkpt lat="40.15343909636674" lon="18.18375335268546"><ele>69.33333333333333</ele><time>2026-04-12T11:49:43.029Z</time></trkpt><trkpt lat="40.15356825735811" lon="18.18388200130363"><ele>69.66666666666666</ele><time>2026-04-12T11:49:44.029Z</time></trkpt><trkpt lat="40.15370120744037" lon="18.184020649043173"><ele>70.0</ele><time>2026-04-12T11:49:45.029Z</time></trkpt><trkpt lat="40.15384021132262" lon="18.184142589956686"><ele>70.0</ele><time>2026-04-12T11:49:46.029Z</time></trkpt><trkpt lat="40.153979921611686" lon="18.18425508947277"><ele>70.0</ele><time>2026-04-12T11:49:47.029Z</time></trkpt><trkpt lat="40.15411723517514" lon="18.184357894325238"><ele>70.0</ele><time>2026-04-12T11:49:48.029Z</time></trkpt><trkpt lat="40.154261409345764" lon="18.184454096493006"><ele>69.33333333333333</ele><time>2026-04-12T11:49:49.029Z</time></trkpt><trkpt lat="40.15440953980051" lon="18.18454152299618"><ele>68.66666666666667</ele><time>2026-04-12T11:49:50.029Z</time></trkpt><trkpt lat="40.154559241572585" lon="18.184636152422495"><ele>68.0</ele><time>2026-04-12T11:49:51.029Z</time></trkpt><trkpt lat="40.15471175407986" lon="18.18472764050263"><ele>68.0</ele><time>2026-04-12T11:49:52.03Z</time></trkpt><trkpt lat="40.15502429561085" lon="18.184884839843445"><ele>68.0</ele><time>2026-04-12T11:49:54.03Z</time></trkpt><trkpt lat="40.1551785692309" lon="18.184953575030583"><ele>68.0</ele><time>2026-04-12T11:49:55.03Z</time></trkpt><trkpt lat="40.15533499360657" lon="18.185018083831878"><ele>68.0</ele><time>2026-04-12T11:49:56.03Z</time></trkpt><trkpt lat="40.155495444090846" lon="18.185079396428968"><ele>68.0</ele><time>2026-04-12T11:49:57.03Z</time></trkpt><trkpt lat="40.155653560218816" lon="18.18513032612031"><ele>68.0</ele><time>2026-04-12T11:49:58.03Z</time></trkpt><trkpt lat="40.155809070449266" lon="18.185177937284394"><ele>68.0</ele><time>2026-04-12T11:49:59.03Z</time></trkpt><trkpt lat="40.155967651030245" lon="18.185210338593734"><ele>68.0</ele><time>2026-04-12T11:50:00.03Z</time></trkpt><trkpt lat="40.15613221147061" lon="18.185235400555822"><ele>68.0</ele><time>2026-04-12T11:50:01.03Z</time></trkpt><trkpt lat="40.15630537064369" lon="18.185251128997304"><ele>68.0</ele><time>2026-04-12T11:50:02.03Z</time></trkpt><trkpt lat="40.15648154764601" lon="18.185262753915033"><ele>68.0</ele><time>2026-04-12T11:50:03.03Z</time></trkpt><trkpt lat="40.15666339626177" lon="18.18526881789258"><ele>68.33333333333334</ele><time>2026-04-12T11:50:04.03Z</time></trkpt><trkpt lat="40.15684489379785" lon="18.185269308448326"><ele>68.66666666666667</ele><time>2026-04-12T11:50:05.03Z</time></trkpt><trkpt lat="40.157023300148886" lon="18.185264883850476"><ele>69.0</ele><time>2026-04-12T11:50:06.03Z</time></trkpt><trkpt lat="40.15719900660331" lon="18.185249490069623"><ele>69.0</ele><time>2026-04-12T11:50:07.03Z</time></trkpt><trkpt lat="40.15737629023653" lon="18.185222659798523"><ele>69.0</ele><time>2026-04-12T11:50:08.03Z</time></trkpt><trkpt lat="40.15754512212952" lon="18.185199479770713"><ele>69.0</ele><time>2026-04-12T11:50:09.03Z</time></trkpt><trkpt lat="40.15770246525417" lon="18.185180743090687"><ele>69.0</ele><time>2026-04-12T11:50:10.03Z</time></trkpt><trkpt lat="40.157851963932714" lon="18.185164012635404"><ele>69.0</ele><time>2026-04-12T11:50:11.03Z</time></trkpt><trkpt lat="40.158014417846445" lon="18.185146496079618"><ele>69.0</ele><time>2026-04-12T11:50:12.03Z</time></trkpt><trkpt lat="40.158178720872634" lon="18.18513639923375"><ele>68.5</ele><time>2026-04-12T11:50:13.03Z</time></trkpt><trkpt lat="40.158538593718184" lon="18.185153990811862"><ele>68.0</ele><time>2026-04-12T11:50:15.03Z</time></trkpt><trkpt lat="40.158723969626436" lon="18.18517447998542"><ele>68.0</ele><time>2026-04-12T11:50:16.03Z</time></trkpt><trkpt lat="40.158914528418734" lon="18.185196582515626"><ele>68.0</ele><time>2026-04-12T11:50:17.03Z</time></trkpt><trkpt lat="40.15911029349692" lon="18.18522313580566"><ele>68.0</ele><time>2026-04-12T11:50:18.03Z</time></trkpt><trkpt lat="40.159305694011636" lon="18.185253533477766"><ele>67.33333333333334</ele><time>2026-04-12T11:50:19.03Z</time></trkpt><trkpt lat="40.15950333848422" lon="18.185293042160215"><ele>66.66666666666667</ele><time>2026-04-12T11:50:20.03Z</time></trkpt><trkpt lat="40.15970245341282" lon="18.185340097061037"><ele>66.0</ele><time>2026-04-12T11:50:21.03Z</time></trkpt><trkpt lat="40.159904187590975" lon="18.185391774978346"><ele>66.0</ele><time>2026-04-12T11:50:22.03Z</time></trkpt><trkpt lat="40.16010731645043" lon="18.18544885286015"><ele>66.0</ele><time>2026-04-12T11:50:23.03Z</time></trkpt><trkpt lat="40.16030712931445" lon="18.185500306761412"><ele>66.0</ele><time>2026-04-12T11:50:24.03Z</time></trkpt><trkpt lat="40.160509490783745" lon="18.185553737907227"><ele>66.33333333333333</ele><time>2026-04-12T11:50:25.03Z</time></trkpt><trkpt lat="40.160707394422786" lon="18.185604313068925"><ele>66.66666666666666</ele><time>2026-04-12T11:50:26.03Z</time></trkpt><trkpt lat="40.16090116878662" lon="18.185651805071455"><ele>67.0</ele><time>2026-04-12T11:50:27.03Z</time></trkpt><trkpt lat="40.16109519590734" lon="18.185699959051476"><ele>67.0</ele><time>2026-04-12T11:50:28.03Z</time></trkpt><trkpt lat="40.16129068172313" lon="18.18575528730023"><ele>67.0</ele><time>2026-04-12T11:50:29.03Z</time></trkpt><trkpt lat="40.16149307330107" lon="18.185809253139354"><ele>67.0</ele><time>2026-04-12T11:50:30.03Z</time></trkpt><trkpt lat="40.16169158222084" lon="18.185863754795495"><ele>66.66666666666666</ele><time>2026-04-12T11:50:31.03Z</time></trkpt><trkpt lat="40.16187672796075" lon="18.185912071483067"><ele>66.33333333333333</ele><time>2026-04-12T11:50:32.03Z</time></trkpt><trkpt lat="40.1620597532265" lon="18.185961308547455"><ele>66.0</ele><time>2026-04-12T11:50:33.03Z</time></trkpt><trkpt lat="40.1622526489966" lon="18.18601424388386"><ele>66.0</ele><time>2026-04-12T11:50:34.03Z</time></trkpt><trkpt lat="40.162653760692734" lon="18.186119160475986"><ele>66.0</ele><time>2026-04-12T11:50:36.03Z</time></trkpt><trkpt lat="40.162861853765214" lon="18.186165258543557"><ele>66.0</ele><time>2026-04-12T11:50:37.03Z</time></trkpt><trkpt lat="40.163086692367806" lon="18.1862223840733"><ele>66.0</ele><time>2026-04-12T11:50:38.03Z</time></trkpt><trkpt lat="40.16331891069364" lon="18.18629025180725"><ele>66.5</ele><time>2026-04-12T11:50:39.03Z</time></trkpt><trkpt lat="40.163552747191204" lon="18.186356971125008"><ele>67.0</ele><time>2026-04-12T11:50:40.03Z</time></trkpt><trkpt lat="40.1637909497624" lon="18.1864330825027"><ele>67.0</ele><time>2026-04-12T11:50:41.03Z</time></trkpt><trkpt lat="40.164028702652814" lon="18.18652758304014"><ele>67.0</ele><time>2026-04-12T11:50:42.03Z</time></trkpt><trkpt lat="40.1642638793493" lon="18.18664239215607"><ele>67.0</ele><time>2026-04-12T11:50:43.03Z</time></trkpt><trkpt lat="40.1644898396019" lon="18.186777615463573"><ele>67.0</ele><time>2026-04-12T11:50:44.03Z</time></trkpt><trkpt lat="40.16470317169555" lon="18.18693240326319"><ele>66.5</ele><time>2026-04-12T11:50:45.031Z</time></trkpt><trkpt lat="40.1649006951691" lon="18.187100491352258"><ele>66.0</ele><time>2026-04-12T11:50:46.031Z</time></trkpt><trkpt lat="40.165085140655485" lon="18.187284392898242"><ele>66.0</ele><time>2026-04-12T11:50:47.031Z</time></trkpt><trkpt lat="40.165260551658626" lon="18.18748597883704"><ele>66.0</ele><time>2026-04-12T11:50:48.031Z</time></trkpt><trkpt lat="40.16542447900137" lon="18.18769969918039"><ele>66.0</ele><time>2026-04-12T11:50:49.031Z</time></trkpt><trkpt lat="40.1655759757917" lon="18.18792713843867"><ele>66.0</ele><time>2026-04-12T11:50:50.031Z</time></trkpt><trkpt lat="40.165718570894064" lon="18.188175203618798"><ele>66.0</ele><time>2026-04-12T11:50:51.031Z</time></trkpt><trkpt lat="40.165859819401724" lon="18.188432602913462"><ele>66.0</ele><time>2026-04-12T11:50:52.031Z</time></trkpt><trkpt lat="40.16600041032623" lon="18.188692624392328"><ele>66.0</ele><time>2026-04-12T11:50:53.031Z</time></trkpt><trkpt lat="40.16613844144007" lon="18.18893484968519"><ele>66.0</ele><time>2026-04-12T11:50:54.031Z</time></trkpt><trkpt lat="40.16627519140812" lon="18.18917196405836"><ele>65.0</ele><time>2026-04-12T11:50:55.031Z</time></trkpt><trkpt lat="40.16656185722546" lon="18.189631998376328"><ele>64.33333333333334</ele><time>2026-04-12T11:50:57.031Z</time></trkpt><trkpt lat="40.16671470522886" lon="18.189849899181656"><ele>63.66666666666667</ele><time>2026-04-12T11:50:58.031Z</time></trkpt><trkpt lat="40.16686716705423" lon="18.19005221599349"><ele>63.0</ele><time>2026-04-12T11:50:59.031Z</time></trkpt><trkpt lat="40.16703101753409" lon="18.190243877930946"><ele>63.0</ele><time>2026-04-12T11:51:00.031Z</time></trkpt><trkpt lat="40.16719853516757" lon="18.19042683428267"><ele>63.0</ele><time>2026-04-12T11:51:01.031Z</time></trkpt><trkpt lat="40.16738137391344" lon="18.190604599380016"><ele>63.0</ele><time>2026-04-12T11:51:02.031Z</time></trkpt><trkpt lat="40.167569113749295" lon="18.190770435408567"><ele>64.5</ele><time>2026-04-12T11:51:03.031Z</time></trkpt><trkpt lat="40.16776623109773" lon="18.190926337786653"><ele>66.0</ele><time>2026-04-12T11:51:04.031Z</time></trkpt><trkpt lat="40.1679675893737" lon="18.191074571789713"><ele>66.0</ele><time>2026-04-12T11:51:05.031Z</time></trkpt><trkpt lat="40.168179199414546" lon="18.19121855540315"><ele>66.0</ele><time>2026-04-12T11:51:06.031Z</time></trkpt><trkpt lat="40.168396406909615" lon="18.191350401691764"><ele>67.0</ele><time>2026-04-12T11:51:07.031Z</time></trkpt><trkpt lat="40.16860815138448" lon="18.191478820268497"><ele>68.0</ele><time>2026-04-12T11:51:08.031Z</time></trkpt><trkpt lat="40.168815535289596" lon="18.191605477316887"><ele>68.33333333333334</ele><time>2026-04-12T11:51:09.031Z</time></trkpt><trkpt lat="40.16902384640714" lon="18.19172379998216"><ele>68.66666666666667</ele><time>2026-04-12T11:51:10.031Z</time></trkpt><trkpt lat="40.169218468813185" lon="18.19183297990971"><ele>69.0</ele><time>2026-04-12T11:51:11.031Z</time></trkpt><trkpt lat="40.169402198853035" lon="18.19194959931908"><ele>69.0</ele><time>2026-04-12T11:51:12.031Z</time></trkpt><trkpt lat="40.169571294286655" lon="18.192056729022994"><ele>69.0</ele><time>2026-04-12T11:51:13.031Z</time></trkpt><trkpt lat="40.16973152198761" lon="18.192148865624404"><ele>69.0</ele><time>2026-04-12T11:51:14.031Z</time></trkpt><trkpt lat="40.16988112732723" lon="18.192233116105673"><ele>69.33333333333333</ele><time>2026-04-12T11:51:15.031Z</time></trkpt><trkpt lat="40.17001972307225" lon="18.192310751411743"><ele>69.66666666666666</ele><time>2026-04-12T11:51:16.031Z</time></trkpt><trkpt lat="40.170250570771024" lon="18.19244229838473"><ele>70.0</ele><time>2026-04-12T11:51:18.031Z</time></trkpt><trkpt lat="40.17033574330449" lon="18.19252423094264"><ele>70.0</ele><time>2026-04-12T11:51:19.031Z</time></trkpt><trkpt lat="40.17040892786335" lon="18.1926183301597"><ele>70.0</ele><time>2026-04-12T11:51:20.031Z</time></trkpt><trkpt lat="40.170500103639654" lon="18.19273441659736"><ele>70.0</ele><time>2026-04-12T11:51:21.031Z</time></trkpt><trkpt lat="40.170570034266156" lon="18.19283904757745"><ele>70.0</ele><time>2026-04-12T11:51:22.031Z</time></trkpt><trkpt lat="40.17065411143386" lon="18.19291104248028"><ele>70.0</ele><time>2026-04-12T11:51:23.031Z</time></trkpt><trkpt lat="40.170749473202804" lon="18.192939518213826"><ele>70.0</ele><time>2026-04-12T11:51:24.031Z</time></trkpt><trkpt lat="40.17085163773668" lon="18.192935430949152"><ele>70.0</ele><time>2026-04-12T11:51:25.031Z</time></trkpt><trkpt lat="40.17096592888676" lon="18.192901917473606"><ele>70.0</ele><time>2026-04-12T11:51:26.031Z</time></trkpt><trkpt lat="40.17108299411185" lon="18.19285754161207"><ele>70.0</ele><time>2026-04-12T11:51:27.031Z</time></trkpt><trkpt lat="40.17120012225532" lon="18.192858326337927"><ele>70.0</ele><time>2026-04-12T11:51:28.032Z</time></trkpt><trkpt lat="40.171318339929954" lon="18.19290413044445"><ele>70.0</ele><time>2026-04-12T11:51:29.032Z</time></trkpt><trkpt lat="40.17144181081971" lon="18.19298619051373"><ele>70.0</ele><time>2026-04-12T11:51:30.032Z</time></trkpt><trkpt lat="40.17157840493276" lon="18.193088433566565"><ele>70.0</ele><time>2026-04-12T11:51:31.031Z</time></trkpt><trkpt lat="40.17172591535544" lon="18.193199031304882"><ele>69.33333333333333</ele><time>2026-04-12T11:51:32.031Z</time></trkpt><trkpt lat="40.17189158847561" lon="18.19330732234856"><ele>68.66666666666667</ele><time>2026-04-12T11:51:33.031Z</time></trkpt><trkpt lat="40.1720616384908" lon="18.19342201307623"><ele>68.0</ele><time>2026-04-12T11:51:34.031Z</time></trkpt><trkpt lat="40.17222261756259" lon="18.19353305313244"><ele>69.0</ele><time>2026-04-12T11:51:35.031Z</time></trkpt><trkpt lat="40.17236924555715" lon="18.19363237009018"><ele>70.0</ele><time>2026-04-12T11:51:36.031Z</time></trkpt><trkpt lat="40.172500814494576" lon="18.193718115425945"><ele>71.0</ele><time>2026-04-12T11:51:37.031Z</time></trkpt><trkpt lat="40.172799764618496" lon="18.193867999011346"><ele>71.0</ele><time>2026-04-12T11:51:39.031Z</time></trkpt><trkpt lat="40.17296678159531" lon="18.193934067048023"><ele>71.0</ele><time>2026-04-12T11:51:40.031Z</time></trkpt><trkpt lat="40.17314429058611" lon="18.19399356904365"><ele>71.0</ele><time>2026-04-12T11:51:41.031Z</time></trkpt><trkpt lat="40.1733334785686" lon="18.19404096408872"><ele>71.33333333333334</ele><time>2026-04-12T11:51:42.031Z</time></trkpt><trkpt lat="40.17353091850681" lon="18.194073577748064"><ele>71.66666666666667</ele><time>2026-04-12T11:51:43.031Z</time></trkpt><trkpt lat="40.173756047102835" lon="18.194075251842428"><ele>72.0</ele><time>2026-04-12T11:51:44.031Z</time></trkpt><trkpt lat="40.17396559137463" lon="18.194081813836984"><ele>72.33333333333333</ele><time>2026-04-12T11:51:45.031Z</time></trkpt><trkpt lat="40.174175480597015" lon="18.194075651248657"><ele>72.66666666666666</ele><time>2026-04-12T11:51:46.031Z</time></trkpt><trkpt lat="40.1743793423441" lon="18.194041392348222"><ele>73.0</ele><time>2026-04-12T11:51:47.031Z</time></trkpt><trkpt lat="40.17459023867977" lon="18.193991772992327"><ele>72.33333333333333</ele><time>2026-04-12T11:51:48.031Z</time></trkpt><trkpt lat="40.174803947361816" lon="18.19393898188137"><ele>71.66666666666667</ele><time>2026-04-12T11:51:49.031Z</time></trkpt><trkpt lat="40.17501790468607" lon="18.19388764162717"><ele>71.0</ele><time>2026-04-12T11:51:50.031Z</time></trkpt><trkpt lat="40.17522736880964" lon="18.193839458808945"><ele>71.0</ele><time>2026-04-12T11:51:51.031Z</time></trkpt><trkpt lat="40.17543921576134" lon="18.193795544705292"><ele>71.0</ele><time>2026-04-12T11:51:52.031Z</time></trkpt><trkpt lat="40.17565714412575" lon="18.19374485804093"><ele>71.0</ele><time>2026-04-12T11:51:53.031Z</time></trkpt><trkpt lat="40.1758796651561" lon="18.19369884019609"><ele>71.5</ele><time>2026-04-12T11:51:54.031Z</time></trkpt><trkpt lat="40.1761029754901" lon="18.19364868431581"><ele>72.0</ele><time>2026-04-12T11:51:55.031Z</time></trkpt><trkpt lat="40.17633459351772" lon="18.193595541539054"><ele>72.0</ele><time>2026-04-12T11:51:56.031Z</time></trkpt><trkpt lat="40.17656344784356" lon="18.193544554571293"><ele>72.0</ele><time>2026-04-12T11:51:57.031Z</time></trkpt><trkpt lat="40.17679938165367" lon="18.193491749711395"><ele>72.0</ele><time>2026-04-12T11:51:58.031Z</time></trkpt><trkpt lat="40.17727011316544" lon="18.19336696065873"><ele>72.5</ele><time>2026-04-12T11:52:00.031Z</time></trkpt><trkpt lat="40.17750922409682" lon="18.193285587931978"><ele>73.0</ele><time>2026-04-12T11:52:01.031Z</time></trkpt><trkpt lat="40.17773557814758" lon="18.193186201336843"><ele>72.5</ele><time>2026-04-12T11:52:02.031Z</time></trkpt><trkpt lat="40.177956682360005" lon="18.193071168886636"><ele>72.0</ele><time>2026-04-12T11:52:03.031Z</time></trkpt><trkpt lat="40.17817786324029" lon="18.192944903574347"><ele>73.5</ele><time>2026-04-12T11:52:04.031Z</time></trkpt><trkpt lat="40.17839676292453" lon="18.192813301275322"><ele>75.0</ele><time>2026-04-12T11:52:05.031Z</time></trkpt><trkpt lat="40.17860891532975" lon="18.192657039380386"><ele>75.0</ele><time>2026-04-12T11:52:06.031Z</time></trkpt><trkpt lat="40.17881765513244" lon="18.192495205829797"><ele>75.0</ele><time>2026-04-12T11:52:07.031Z</time></trkpt><trkpt lat="40.17901723287687" lon="18.192328022389795"><ele>73.5</ele><time>2026-04-12T11:52:08.031Z</time></trkpt><trkpt lat="40.17921699418401" lon="18.192158058444324"><ele>72.0</ele><time>2026-04-12T11:52:09.031Z</time></trkpt><trkpt lat="40.17941942502682" lon="18.191989693358792"><ele>72.0</ele><time>2026-04-12T11:52:10.031Z</time></trkpt><trkpt lat="40.179619786132896" lon="18.191821638118494"><ele>72.0</ele><time>2026-04-12T11:52:11.032Z</time></trkpt><trkpt lat="40.17982732713937" lon="18.191652856343158"><ele>72.0</ele><time>2026-04-12T11:52:12.032Z</time></trkpt><trkpt lat="40.180036903582" lon="18.191481330370337"><ele>72.0</ele><time>2026-04-12T11:52:13.032Z</time></trkpt><trkpt lat="40.180247940858415" lon="18.191307309334057"><ele>72.0</ele><time>2026-04-12T11:52:14.032Z</time></trkpt><trkpt lat="40.18046515036299" lon="18.191132780094303"><ele>72.0</ele><time>2026-04-12T11:52:15.032Z</time></trkpt><trkpt lat="40.18068609561114" lon="18.19095469696939"><ele>71.5</ele><time>2026-04-12T11:52:16.032Z</time></trkpt><trkpt lat="40.18090945144944" lon="18.190772280428504"><ele>71.0</ele><time>2026-04-12T11:52:17.032Z</time></trkpt><trkpt lat="40.181140488417746" lon="18.19058353441289"><ele>71.0</ele><time>2026-04-12T11:52:18.032Z</time></trkpt><trkpt lat="40.18137585489884" lon="18.190394119534908"><ele>71.0</ele><time>2026-04-12T11:52:19.032Z</time></trkpt><trkpt lat="40.1818438311851" lon="18.189997165357706"><ele>70.5</ele><time>2026-04-12T11:52:21.032Z</time></trkpt><trkpt lat="40.18210756499805" lon="18.189806857629105"><ele>70.0</ele><time>2026-04-12T11:52:22.032Z</time></trkpt><trkpt lat="40.18236522462521" lon="18.18959224098835"><ele>70.0</ele><time>2026-04-12T11:52:23.032Z</time></trkpt><trkpt lat="40.182614453808995" lon="18.189383781970392"><ele>70.0</ele><time>2026-04-12T11:52:24.032Z</time></trkpt><trkpt lat="40.18286986820521" lon="18.18917734450806"><ele>71.0</ele><time>2026-04-12T11:52:25.032Z</time></trkpt><trkpt lat="40.183118763520625" lon="18.188979304959823"><ele>72.0</ele><time>2026-04-12T11:52:26.032Z</time></trkpt><trkpt lat="40.18336488556419" lon="18.188782058231382"><ele>72.5</ele><time>2026-04-12T11:52:27.032Z</time></trkpt><trkpt lat="40.18360782843396" lon="18.18857411833584"><ele>73.0</ele><time>2026-04-12T11:52:28.032Z</time></trkpt><trkpt lat="40.18385486578999" lon="18.188369088809853"><ele>73.0</ele><time>2026-04-12T11:52:29.032Z</time></trkpt><trkpt lat="40.18409912553073" lon="18.188161662726433"><ele>73.0</ele><time>2026-04-12T11:52:30.032Z</time></trkpt><trkpt lat="40.18434242208541" lon="18.187946570420397"><ele>73.0</ele><time>2026-04-12T11:52:31.032Z</time></trkpt><trkpt lat="40.184582714425204" lon="18.187721866359905"><ele>73.0</ele><time>2026-04-12T11:52:32.032Z</time></trkpt><trkpt lat="40.18481425884731" lon="18.18748629228213"><ele>71.5</ele><time>2026-04-12T11:52:33.032Z</time></trkpt><trkpt lat="40.18504185393847" lon="18.187233956480334"><ele>70.0</ele><time>2026-04-12T11:52:34.032Z</time></trkpt><trkpt lat="40.18526906991795" lon="18.18698145345944"><ele>70.0</ele><time>2026-04-12T11:52:35.032Z</time></trkpt><trkpt lat="40.185502038276" lon="18.18672610640421"><ele>70.0</ele><time>2026-04-12T11:52:36.032Z</time></trkpt><trkpt lat="40.18573245504294" lon="18.18647480329495"><ele>69.5</ele><time>2026-04-12T11:52:37.032Z</time></trkpt><trkpt lat="40.18595295640548" lon="18.18623743742615"><ele>69.0</ele><time>2026-04-12T11:52:38.032Z</time></trkpt><trkpt lat="40.186157922726395" lon="18.186013910969763"><ele>69.0</ele><time>2026-04-12T11:52:39.032Z</time></trkpt><trkpt lat="40.186350036009294" lon="18.185804700427543"><ele>69.0</ele><time>2026-04-12T11:52:40.032Z</time></trkpt><trkpt lat="40.18672606141948" lon="18.185409407065812"><ele>69.0</ele><time>2026-04-12T11:52:42.032Z</time></trkpt><trkpt lat="40.18689083109139" lon="18.185232146735625"><ele>69.0</ele><time>2026-04-12T11:52:43.032Z</time></trkpt><trkpt lat="40.187040794704004" lon="18.1850591435728"><ele>69.0</ele><time>2026-04-12T11:52:44.032Z</time></trkpt><trkpt lat="40.18718716879064" lon="18.18490033466136"><ele>68.5</ele><time>2026-04-12T11:52:45.032Z</time></trkpt><trkpt lat="40.187317906721866" lon="18.18475844400048"><ele>68.0</ele><time>2026-04-12T11:52:46.032Z</time></trkpt><trkpt lat="40.187428152336494" lon="18.184648771824847"><ele>67.5</ele><time>2026-04-12T11:52:47.032Z</time></trkpt><trkpt lat="40.187527718094444" lon="18.184574949955348"><ele>67.0</ele><time>2026-04-12T11:52:48.032Z</time></trkpt><trkpt lat="40.187615794302936" lon="18.18453517364497"><ele>67.0</ele><time>2026-04-12T11:52:49.032Z</time></trkpt><trkpt lat="40.187695958373936" lon="18.184533695166145"><ele>67.0</ele><time>2026-04-12T11:52:50.032Z</time></trkpt><trkpt lat="40.187785086023446" lon="18.18455067240927"><ele>67.0</ele><time>2026-04-12T11:52:51.032Z</time></trkpt><trkpt lat="40.187891481997546" lon="18.184576274308217"><ele>67.0</ele><time>2026-04-12T11:52:52.032Z</time></trkpt><trkpt lat="40.18800128043057" lon="18.184576944855767"><ele>67.0</ele><time>2026-04-12T11:52:53.032Z</time></trkpt><trkpt lat="40.18810549716786" lon="18.18453113532153"><ele>67.5</ele><time>2026-04-12T11:52:54.032Z</time></trkpt><trkpt lat="40.18819374447336" lon="18.18443867471979"><ele>68.0</ele><time>2026-04-12T11:52:55.032Z</time></trkpt><trkpt lat="40.18826977520026" lon="18.184319932065833"><ele>68.5</ele><time>2026-04-12T11:52:56.032Z</time></trkpt><trkpt lat="40.188335421119085" lon="18.184171253456107"><ele>69.0</ele><time>2026-04-12T11:52:57.032Z</time></trkpt><trkpt lat="40.188424754090846" lon="18.184045334878473"><ele>69.0</ele><time>2026-04-12T11:52:58.032Z</time></trkpt><trkpt lat="40.18855147112472" lon="18.18393976114225"><ele>69.0</ele><time>2026-04-12T11:52:59.032Z</time></trkpt><trkpt lat="40.18872310826791" lon="18.183852959078635"><ele>69.0</ele><time>2026-04-12T11:53:00.032Z</time></trkpt><trkpt lat="40.18891914512467" lon="18.183775207829697"><ele>69.0</ele><time>2026-04-12T11:53:01.032Z</time></trkpt><trkpt lat="40.18934068368256" lon="18.18360204195555"><ele>69.0</ele><time>2026-04-12T11:53:03.032Z</time></trkpt><trkpt lat="40.18956912240356" lon="18.183500825742502"><ele>69.0</ele><time>2026-04-12T11:53:04.033Z</time></trkpt><trkpt lat="40.18980395704971" lon="18.183391585779994"><ele>69.0</ele><time>2026-04-12T11:53:05.033Z</time></trkpt><trkpt lat="40.19004071512276" lon="18.183279021850907"><ele>68.0</ele><time>2026-04-12T11:53:06.033Z</time></trkpt><trkpt lat="40.19027683042475" lon="18.18317196734262"><ele>67.0</ele><time>2026-04-12T11:53:07.033Z</time></trkpt><trkpt lat="40.190502437224396" lon="18.18307232869714"><ele>68.0</ele><time>2026-04-12T11:53:08.033Z</time></trkpt><trkpt lat="40.19071334657446" lon="18.182974507492755"><ele>69.0</ele><time>2026-04-12T11:53:09.033Z</time></trkpt><trkpt lat="40.19093061345186" lon="18.18288266994756"><ele>69.0</ele><time>2026-04-12T11:53:10.033Z</time></trkpt><trkpt lat="40.19114962493294" lon="18.182794543551918"><ele>69.0</ele><time>2026-04-12T11:53:11.033Z</time></trkpt><trkpt lat="40.191368872270225" lon="18.182696280615875"><ele>69.33333333333333</ele><time>2026-04-12T11:53:12.033Z</time></trkpt><trkpt lat="40.19158401286539" lon="18.182599929392698"><ele>69.66666666666666</ele><time>2026-04-12T11:53:13.033Z</time></trkpt><trkpt lat="40.19178650928994" lon="18.182510249772445"><ele>70.0</ele><time>2026-04-12T11:53:14.033Z</time></trkpt><trkpt lat="40.19197011936318" lon="18.18242288054649"><ele>69.66666666666666</ele><time>2026-04-12T11:53:15.033Z</time></trkpt><trkpt lat="40.19215418434436" lon="18.182347105858888"><ele>69.33333333333333</ele><time>2026-04-12T11:53:16.033Z</time></trkpt><trkpt lat="40.19234750845265" lon="18.182278773731863"><ele>69.0</ele><time>2026-04-12T11:53:17.033Z</time></trkpt><trkpt lat="40.19254095300626" lon="18.182192422899387"><ele>69.66666666666667</ele><time>2026-04-12T11:53:18.033Z</time></trkpt><trkpt lat="40.19272056928463" lon="18.182100139334356"><ele>70.33333333333334</ele><time>2026-04-12T11:53:19.033Z</time></trkpt><trkpt lat="40.19288955384633" lon="18.182017111708245"><ele>71.0</ele><time>2026-04-12T11:53:20.033Z</time></trkpt><trkpt lat="40.1930366498178" lon="18.181958435258377"><ele>71.0</ele><time>2026-04-12T11:53:21.033Z</time></trkpt><trkpt lat="40.19316008805621" lon="18.181913968334488"><ele>71.0</ele><time>2026-04-12T11:53:22.033Z</time></trkpt><trkpt lat="40.19336299223637" lon="18.18189280331765"><ele>71.0</ele><time>2026-04-12T11:53:24.033Z</time></trkpt><trkpt lat="40.19346662932619" lon="18.181918880192978"><ele>71.0</ele><time>2026-04-12T11:53:25.033Z</time></trkpt><trkpt lat="40.1935748205965" lon="18.181954148765392"><ele>70.6</ele><time>2026-04-12T11:53:26.033Z</time></trkpt><trkpt lat="40.19367537824719" lon="18.181960832883487"><ele>70.19999999999999</ele><time>2026-04-12T11:53:27.033Z</time></trkpt><trkpt lat="40.19378151553314" lon="18.18191920757303"><ele>69.80000000000001</ele><time>2026-04-12T11:53:28.033Z</time></trkpt><trkpt lat="40.19387846205726" lon="18.18184115117221"><ele>69.4</ele><time>2026-04-12T11:53:29.033Z</time></trkpt><trkpt lat="40.193944540481034" lon="18.181729594551502"><ele>69.0</ele><time>2026-04-12T11:53:30.033Z</time></trkpt><trkpt lat="40.19399798685067" lon="18.181593112012674"><ele>68.75</ele><time>2026-04-12T11:53:31.034Z</time></trkpt><trkpt lat="40.19404947473042" lon="18.181435437914814"><ele>68.5</ele><time>2026-04-12T11:53:32.033Z</time></trkpt><trkpt lat="40.194129272714925" lon="18.181292890215232"><ele>68.25</ele><time>2026-04-12T11:53:33.033Z</time></trkpt><trkpt lat="40.19425445518028" lon="18.18117702857836"><ele>68.0</ele><time>2026-04-12T11:53:34.033Z</time></trkpt><trkpt lat="40.1944041553519" lon="18.18107987915283"><ele>68.0</ele><time>2026-04-12T11:53:35.033Z</time></trkpt><trkpt lat="40.19456542976652" lon="18.180977587529693"><ele>68.0</ele><time>2026-04-12T11:53:36.033Z</time></trkpt><trkpt lat="40.19473750076048" lon="18.18086412097109"><ele>68.0</ele><time>2026-04-12T11:53:37.034Z</time></trkpt><trkpt lat="40.19491511941285" lon="18.18073161124181"><ele>68.0</ele><time>2026-04-12T11:53:38.033Z</time></trkpt><trkpt lat="40.19510290775329" lon="18.180585993157415"><ele>68.0</ele><time>2026-04-12T11:53:39.033Z</time></trkpt><trkpt lat="40.195298714360185" lon="18.18044290510157"><ele>68.0</ele><time>2026-04-12T11:53:40.034Z</time></trkpt><trkpt lat="40.19549730582863" lon="18.180294253795623"><ele>68.0</ele><time>2026-04-12T11:53:41.034Z</time></trkpt><trkpt lat="40.195705258823004" lon="18.180140167002932"><ele>68.0</ele><time>2026-04-12T11:53:42.034Z</time></trkpt><trkpt lat="40.19591155628609" lon="18.17998089748885"><ele>67.0</ele><time>2026-04-12T11:53:43.033Z</time></trkpt><trkpt lat="40.19632483869269" lon="18.179670960031583"><ele>67.0</ele><time>2026-04-12T11:53:45.033Z</time></trkpt><trkpt lat="40.196534650221274" lon="18.17951871161615"><ele>67.0</ele><time>2026-04-12T11:53:46.033Z</time></trkpt><trkpt lat="40.196740887926126" lon="18.17936056932729"><ele>67.0</ele><time>2026-04-12T11:53:47.033Z</time></trkpt><trkpt lat="40.19694848120594" lon="18.17920319009337"><ele>67.0</ele><time>2026-04-12T11:53:48.033Z</time></trkpt><trkpt lat="40.19716495233921" lon="18.17906414847452"><ele>66.5</ele><time>2026-04-12T11:53:49.033Z</time></trkpt><trkpt lat="40.19738799149311" lon="18.178937404286003"><ele>66.0</ele><time>2026-04-12T11:53:50.033Z</time></trkpt><trkpt lat="40.19761862084543" lon="18.178824874962743"><ele>66.0</ele><time>2026-04-12T11:53:51.033Z</time></trkpt><trkpt lat="40.19785218684699" lon="18.178722476867325"><ele>66.0</ele><time>2026-04-12T11:53:52.033Z</time></trkpt><trkpt lat="40.1980853231458" lon="18.17862414407011"><ele>65.5</ele><time>2026-04-12T11:53:53.033Z</time></trkpt><trkpt lat="40.198321780191414" lon="18.17853004455106"><ele>65.0</ele><time>2026-04-12T11:53:54.033Z</time></trkpt><trkpt lat="40.19855461904739" lon="18.178425018128838"><ele>65.0</ele><time>2026-04-12T11:53:55.033Z</time></trkpt><trkpt lat="40.19878693554643" lon="18.178322644468217"><ele>65.0</ele><time>2026-04-12T11:53:56.033Z</time></trkpt><trkpt lat="40.19902189472586" lon="18.178219443248096"><ele>64.5</ele><time>2026-04-12T11:53:57.033Z</time></trkpt><trkpt lat="40.199255122936734" lon="18.17812028434195"><ele>64.0</ele><time>2026-04-12T11:53:58.033Z</time></trkpt><trkpt lat="40.19948834530129" lon="18.1780203077685"><ele>64.0</ele><time>2026-04-12T11:53:59.033Z</time></trkpt><trkpt lat="40.19971996571554" lon="18.1779211339672"><ele>64.0</ele><time>2026-04-12T11:54:00.033Z</time></trkpt><trkpt lat="40.19994765645318" lon="18.17782018074729"><ele>65.0</ele><time>2026-04-12T11:54:01.033Z</time></trkpt><trkpt lat="40.20017923350449" lon="18.177717292559695"><ele>66.0</ele><time>2026-04-12T11:54:02.033Z</time></trkpt><trkpt lat="40.200414715964044" lon="18.177615565556472"><ele>66.0</ele><time>2026-04-12T11:54:03.033Z</time></trkpt><trkpt lat="40.20064935931847" lon="18.177513000194292"><ele>66.0</ele><time>2026-04-12T11:54:04.033Z</time></trkpt><trkpt lat="40.201118786666946" lon="18.177311300629547"><ele>66.0</ele><time>2026-04-12T11:54:06.034Z</time></trkpt><trkpt lat="40.20135162939902" lon="18.177210811895517"><ele>66.0</ele><time>2026-04-12T11:54:07.034Z</time></trkpt><trkpt lat="40.20157889558747" lon="18.177107969548487"><ele>65.33333333333333</ele><time>2026-04-12T11:54:08.034Z</time></trkpt><trkpt lat="40.2017912415114" lon="18.177017672118957"><ele>64.66666666666666</ele><time>2026-04-12T11:54:09.034Z</time></trkpt><trkpt lat="40.2019839269639" lon="18.176931893911103"><ele>64.0</ele><time>2026-04-12T11:54:10.034Z</time></trkpt><trkpt lat="40.20216633417671" lon="18.17685276814828"><ele>64.0</ele><time>2026-04-12T11:54:11.034Z</time></trkpt><trkpt lat="40.20232890496486" lon="18.176781424776294"><ele>64.0</ele><time>2026-04-12T11:54:12.034Z</time></trkpt><trkpt lat="40.20246715666591" lon="18.176713965250787"><ele>64.0</ele><time>2026-04-12T11:54:13.034Z</time></trkpt><trkpt lat="40.20258657616038" lon="18.176666042811963"><ele>64.0</ele><time>2026-04-12T11:54:14.034Z</time></trkpt><trkpt lat="40.20269183910691" lon="18.17664954789672"><ele>64.4</ele><time>2026-04-12T11:54:15.034Z</time></trkpt><trkpt lat="40.20279725787291" lon="18.17666978247099"><ele>64.80000000000001</ele><time>2026-04-12T11:54:16.034Z</time></trkpt><trkpt lat="40.202893623931054" lon="18.17670508678529"><ele>65.19999999999999</ele><time>2026-04-12T11:54:17.034Z</time></trkpt><trkpt lat="40.202986412397635" lon="18.17673923878844"><ele>65.6</ele><time>2026-04-12T11:54:18.034Z</time></trkpt><trkpt lat="40.20306326397971" lon="18.176755146753344"><ele>66.0</ele><time>2026-04-12T11:54:19.034Z</time></trkpt><trkpt lat="40.20315057128642" lon="18.176730520119783"><ele>65.75</ele><time>2026-04-12T11:54:20.034Z</time></trkpt><trkpt lat="40.20324876820717" lon="18.176668908678504"><ele>65.5</ele><time>2026-04-12T11:54:21.034Z</time></trkpt><trkpt lat="40.2033476966523" lon="18.176577291991652"><ele>65.25</ele><time>2026-04-12T11:54:22.034Z</time></trkpt><trkpt lat="40.203442942324074" lon="18.17646088452947"><ele>65.0</ele><time>2026-04-12T11:54:23.034Z</time></trkpt><trkpt lat="40.20355269982385" lon="18.17634056649783"><ele>64.5</ele><time>2026-04-12T11:54:24.034Z</time></trkpt><trkpt lat="40.20366843280344" lon="18.176244335712546"><ele>64.0</ele><time>2026-04-12T11:54:25.034Z</time></trkpt><trkpt lat="40.203975173199375" lon="18.176103704205037"><ele>63.33333333333333</ele><time>2026-04-12T11:54:27.034Z</time></trkpt><trkpt lat="40.2041663938353" lon="18.17602797638389"><ele>62.66666666666667</ele><time>2026-04-12T11:54:28.034Z</time></trkpt><trkpt lat="40.204380592284956" lon="18.175941769701257"><ele>62.0</ele><time>2026-04-12T11:54:29.034Z</time></trkpt><trkpt lat="40.20460039667691" lon="18.17584039930929"><ele>62.0</ele><time>2026-04-12T11:54:30.034Z</time></trkpt><trkpt lat="40.204825133954635" lon="18.175734553108672"><ele>62.0</ele><time>2026-04-12T11:54:31.034Z</time></trkpt><trkpt lat="40.20506011472007" lon="18.17563470381534"><ele>63.0</ele><time>2026-04-12T11:54:32.034Z</time></trkpt><trkpt lat="40.20529651716733" lon="18.17553476962366"><ele>64.0</ele><time>2026-04-12T11:54:33.034Z</time></trkpt><trkpt lat="40.20553418668889" lon="18.175428900733"><ele>63.5</ele><time>2026-04-12T11:54:34.034Z</time></trkpt><trkpt lat="40.20577503275502" lon="18.175322991839913"><ele>63.0</ele><time>2026-04-12T11:54:35.034Z</time></trkpt><trkpt lat="40.20601662546887" lon="18.17521606406094"><ele>63.0</ele><time>2026-04-12T11:54:36.034Z</time></trkpt><trkpt lat="40.20625947763109" lon="18.1751076505544"><ele>63.0</ele><time>2026-04-12T11:54:37.034Z</time></trkpt><trkpt lat="40.206504652001954" lon="18.175003490859336"><ele>63.0</ele><time>2026-04-12T11:54:38.034Z</time></trkpt><trkpt lat="40.20675098245037" lon="18.17490059016312"><ele>63.0</ele><time>2026-04-12T11:54:39.034Z</time></trkpt><trkpt lat="40.20699240991117" lon="18.174792744270597"><ele>63.0</ele><time>2026-04-12T11:54:40.034Z</time></trkpt><trkpt lat="40.20723579282799" lon="18.174682512631545"><ele>63.0</ele><time>2026-04-12T11:54:41.034Z</time></trkpt><trkpt lat="40.20747535405641" lon="18.174572106320625"><ele>62.5</ele><time>2026-04-12T11:54:42.034Z</time></trkpt><trkpt lat="40.207720119158594" lon="18.174477568924686"><ele>62.0</ele><time>2026-04-12T11:54:43.034Z</time></trkpt><trkpt lat="40.20796070110181" lon="18.174375995770617"><ele>61.5</ele><time>2026-04-12T11:54:44.034Z</time></trkpt><trkpt lat="40.208197474241516" lon="18.17426562062693"><ele>61.0</ele><time>2026-04-12T11:54:45.034Z</time></trkpt><trkpt lat="40.208434263495704" lon="18.17415467660345"><ele>60.0</ele><time>2026-04-12T11:54:46.034Z</time></trkpt><trkpt lat="40.2089029947403" lon="18.17395184028524"><ele>60.0</ele><time>2026-04-12T11:54:48.034Z</time></trkpt><trkpt lat="40.20914688342213" lon="18.173850802298077"><ele>60.0</ele><time>2026-04-12T11:54:49.034Z</time></trkpt><trkpt lat="40.2093780884693" lon="18.173747870900936"><ele>60.0</ele><time>2026-04-12T11:54:50.034Z</time></trkpt><trkpt lat="40.20961243009127" lon="18.17364257575193"><ele>60.0</ele><time>2026-04-12T11:54:51.034Z</time></trkpt><trkpt lat="40.209853451662134" lon="18.173538027402902"><ele>60.0</ele><time>2026-04-12T11:54:52.034Z</time></trkpt><trkpt lat="40.2100855580557" lon="18.173431333625345"><ele>60.0</ele><time>2026-04-12T11:54:53.034Z</time></trkpt><trkpt lat="40.21031933567049" lon="18.173330047916007"><ele>60.0</ele><time>2026-04-12T11:54:54.034Z</time></trkpt><trkpt lat="40.21055618534749" lon="18.173228185453965"><ele>60.0</ele><time>2026-04-12T11:54:55.034Z</time></trkpt><trkpt lat="40.21079099080995" lon="18.1731280465153"><ele>59.0</ele><time>2026-04-12T11:54:56.034Z</time></trkpt><trkpt lat="40.2110236125079" lon="18.173022086453592"><ele>58.0</ele><time>2026-04-12T11:54:57.034Z</time></trkpt><trkpt lat="40.211258205002686" lon="18.1729155494937"><ele>57.5</ele><time>2026-04-12T11:54:58.035Z</time></trkpt><trkpt lat="40.21149198159393" lon="18.172810351851087"><ele>57.0</ele><time>2026-04-12T11:54:59.035Z</time></trkpt><trkpt lat="40.211723990903295" lon="18.17270130086611"><ele>57.0</ele><time>2026-04-12T11:55:00.035Z</time></trkpt><trkpt lat="40.21195962728973" lon="18.172579368991304"><ele>57.0</ele><time>2026-04-12T11:55:01.035Z</time></trkpt><trkpt lat="40.21218476729261" lon="18.172444614462123"><ele>57.5</ele><time>2026-04-12T11:55:02.035Z</time></trkpt><trkpt lat="40.21240511001664" lon="18.17228714025696"><ele>58.0</ele><time>2026-04-12T11:55:03.035Z</time></trkpt><trkpt lat="40.21262270638866" lon="18.17211851354163"><ele>58.0</ele><time>2026-04-12T11:55:04.035Z</time></trkpt><trkpt lat="40.21282690031797" lon="18.171925855970404"><ele>58.0</ele><time>2026-04-12T11:55:05.035Z</time></trkpt><trkpt lat="40.21303059227403" lon="18.171727525949706"><ele>57.0</ele><time>2026-04-12T11:55:06.035Z</time></trkpt><trkpt lat="40.21323429424499" lon="18.171529610977046"><ele>56.0</ele><time>2026-04-12T11:55:07.035Z</time></trkpt><trkpt lat="40.2136394171903" lon="18.17114683493879"><ele>55.5</ele><time>2026-04-12T11:55:09.035Z</time></trkpt><trkpt lat="40.21384644593251" lon="18.170953905102504"><ele>55.0</ele><time>2026-04-12T11:55:10.035Z</time></trkpt><trkpt lat="40.21405000884011" lon="18.170770651135644"><ele>54.5</ele><time>2026-04-12T11:55:11.035Z</time></trkpt><trkpt lat="40.21426146913938" lon="18.170579498020388"><ele>54.0</ele><time>2026-04-12T11:55:12.035Z</time></trkpt><trkpt lat="40.214467120809836" lon="18.17039841489582"><ele>54.0</ele><time>2026-04-12T11:55:13.035Z</time></trkpt><trkpt lat="40.21467402557966" lon="18.170213412600198"><ele>54.0</ele><time>2026-04-12T11:55:14.035Z</time></trkpt><trkpt lat="40.21487933288496" lon="18.170024709569386"><ele>54.5</ele><time>2026-04-12T11:55:15.035Z</time></trkpt><trkpt lat="40.21508783847809" lon="18.1698309114173"><ele>55.0</ele><time>2026-04-12T11:55:16.035Z</time></trkpt><trkpt lat="40.21529355730174" lon="18.169634554702306"><ele>55.0</ele><time>2026-04-12T11:55:17.035Z</time></trkpt><trkpt lat="40.2155010519993" lon="18.169438764612227"><ele>55.0</ele><time>2026-04-12T11:55:18.035Z</time></trkpt><trkpt lat="40.21570810103117" lon="18.169241982974253"><ele>55.0</ele><time>2026-04-12T11:55:19.035Z</time></trkpt><trkpt lat="40.215913987323006" lon="18.169046444750922"><ele>55.0</ele><time>2026-04-12T11:55:20.035Z</time></trkpt><trkpt lat="40.21612154210973" lon="18.168851043422098"><ele>55.0</ele><time>2026-04-12T11:55:21.035Z</time></trkpt><trkpt lat="40.21633532344395" lon="18.168653647887552"><ele>55.0</ele><time>2026-04-12T11:55:22.035Z</time></trkpt><trkpt lat="40.21654908179967" lon="18.168456696773134"><ele>54.5</ele><time>2026-04-12T11:55:23.035Z</time></trkpt><trkpt lat="40.21676262086243" lon="18.16825662537509"><ele>54.0</ele><time>2026-04-12T11:55:24.035Z</time></trkpt><trkpt lat="40.21697313081971" lon="18.168054232196663"><ele>54.0</ele><time>2026-04-12T11:55:25.035Z</time></trkpt><trkpt lat="40.2171869309689" lon="18.16785185980975"><ele>54.0</ele><time>2026-04-12T11:55:26.035Z</time></trkpt><trkpt lat="40.217388290890284" lon="18.16765832379741"><ele>53.5</ele><time>2026-04-12T11:55:27.035Z</time></trkpt><trkpt lat="40.21758450400269" lon="18.16747200983687"><ele>53.0</ele><time>2026-04-12T11:55:28.035Z</time></trkpt><trkpt lat="40.21793262516473" lon="18.16715924797518"><ele>53.0</ele><time>2026-04-12T11:55:30.035Z</time></trkpt><trkpt lat="40.218079632648966" lon="18.167021851521024"><ele>53.0</ele><time>2026-04-12T11:55:31.035Z</time></trkpt><trkpt lat="40.21820461426558" lon="18.166900211527174"><ele>53.0</ele><time>2026-04-12T11:55:32.035Z</time></trkpt><trkpt lat="40.218315161602625" lon="18.16679587453848"><ele>53.4</ele><time>2026-04-12T11:55:33.035Z</time></trkpt><trkpt lat="40.21841331382629" lon="18.166712073276127"><ele>53.8</ele><time>2026-04-12T11:55:34.035Z</time></trkpt><trkpt lat="40.218507689931705" lon="18.166661895560324"><ele>54.2</ele><time>2026-04-12T11:55:35.035Z</time></trkpt><trkpt lat="40.218609672643446" lon="18.16664675558759"><ele>54.6</ele><time>2026-04-12T11:55:36.036Z</time></trkpt><trkpt lat="40.218715059614844" lon="18.16663509788093"><ele>55.0</ele><time>2026-04-12T11:55:37.035Z</time></trkpt><trkpt lat="40.21881614231947" lon="18.16660934753328"><ele>55.0</ele><time>2026-04-12T11:55:38.035Z</time></trkpt><trkpt lat="40.21893591775796" lon="18.166565941502164"><ele>55.0</ele><time>2026-04-12T11:55:39.036Z</time></trkpt><trkpt lat="40.219037778104706" lon="18.166469472829153"><ele>55.0</ele><time>2026-04-12T11:55:40.035Z</time></trkpt><trkpt lat="40.219141555513936" lon="18.16635183702879"><ele>55.0</ele><time>2026-04-12T11:55:41.035Z</time></trkpt><trkpt lat="40.219249333351215" lon="18.166251280753933"><ele>54.666666666666664</ele><time>2026-04-12T11:55:42.035Z</time></trkpt><trkpt lat="40.21937907707919" lon="18.16619101195778"><ele>54.33333333333333</ele><time>2026-04-12T11:55:43.036Z</time></trkpt><trkpt lat="40.2195238343548" lon="18.166171454473105"><ele>54.0</ele><time>2026-04-12T11:55:44.036Z</time></trkpt><trkpt lat="40.21969185415308" lon="18.166176085764388"><ele>53.66666666666667</ele><time>2026-04-12T11:55:45.036Z</time></trkpt><trkpt lat="40.219879235216304" lon="18.166183611478637"><ele>53.333333333333336</ele><time>2026-04-12T11:55:46.036Z</time></trkpt><trkpt lat="40.22007179168628" lon="18.1661773254848"><ele>53.0</ele><time>2026-04-12T11:55:47.036Z</time></trkpt><trkpt lat="40.220282281635996" lon="18.16616266180383"><ele>53.0</ele><time>2026-04-12T11:55:48.035Z</time></trkpt><trkpt lat="40.22049898618029" lon="18.166147848373893"><ele>53.0</ele><time>2026-04-12T11:55:49.035Z</time></trkpt><trkpt lat="40.22093816739683" lon="18.166120498039355"><ele>52.0</ele><time>2026-04-12T11:55:51.035Z</time></trkpt><trkpt lat="40.221162512624794" lon="18.166106161245267"><ele>51.0</ele><time>2026-04-12T11:55:52.035Z</time></trkpt><trkpt lat="40.22138841095038" lon="18.166096979929094"><ele>50.5</ele><time>2026-04-12T11:55:53.035Z</time></trkpt><trkpt lat="40.221616332417256" lon="18.166081204740635"><ele>50.0</ele><time>2026-04-12T11:55:54.035Z</time></trkpt><trkpt lat="40.22183786205389" lon="18.166069256556725"><ele>50.0</ele><time>2026-04-12T11:55:55.035Z</time></trkpt><trkpt lat="40.22206302222427" lon="18.16605559606455"><ele>50.0</ele><time>2026-04-12T11:55:56.035Z</time></trkpt><trkpt lat="40.22228949239939" lon="18.166043496623786"><ele>49.5</ele><time>2026-04-12T11:55:57.035Z</time></trkpt><trkpt lat="40.222514427686086" lon="18.166030866779508"><ele>49.0</ele><time>2026-04-12T11:55:58.035Z</time></trkpt><trkpt lat="40.22274523942294" lon="18.166017356020113"><ele>49.0</ele><time>2026-04-12T11:55:59.035Z</time></trkpt><trkpt lat="40.22297994516976" lon="18.165999668024593"><ele>49.0</ele><time>2026-04-12T11:56:00.036Z</time></trkpt><trkpt lat="40.22321560090235" lon="18.165979310255324"><ele>50.0</ele><time>2026-04-12T11:56:01.036Z</time></trkpt><trkpt lat="40.223447444533974" lon="18.165963081575185"><ele>51.0</ele><time>2026-04-12T11:56:02.036Z</time></trkpt><trkpt lat="40.22367953575211" lon="18.165948322186743"><ele>51.0</ele><time>2026-04-12T11:56:03.036Z</time></trkpt><trkpt lat="40.22391327282592" lon="18.16593577438022"><ele>51.0</ele><time>2026-04-12T11:56:04.036Z</time></trkpt><trkpt lat="40.224146944667076" lon="18.16592396521577"><ele>51.0</ele><time>2026-04-12T11:56:05.036Z</time></trkpt><trkpt lat="40.22438179826493" lon="18.16591456907654"><ele>51.0</ele><time>2026-04-12T11:56:06.036Z</time></trkpt><trkpt lat="40.22461554869407" lon="18.165901089224445"><ele>52.0</ele><time>2026-04-12T11:56:07.036Z</time></trkpt><trkpt lat="40.22485201112731" lon="18.165885917564907"><ele>53.0</ele><time>2026-04-12T11:56:08.036Z</time></trkpt><trkpt lat="40.225088793044" lon="18.165873693154058"><ele>53.0</ele><time>2026-04-12T11:56:09.036Z</time></trkpt><trkpt lat="40.2253299910715" lon="18.165855861425023"><ele>53.0</ele><time>2026-04-12T11:56:10.036Z</time></trkpt><trkpt lat="40.225807015827094" lon="18.165822960404675"><ele>53.0</ele><time>2026-04-12T11:56:12.036Z</time></trkpt><trkpt lat="40.226049296250615" lon="18.1658109991696"><ele>53.0</ele><time>2026-04-12T11:56:13.036Z</time></trkpt><trkpt lat="40.22629182116891" lon="18.165800215210076"><ele>53.0</ele><time>2026-04-12T11:56:14.036Z</time></trkpt><trkpt lat="40.22653580236232" lon="18.165784779766202"><ele>53.0</ele><time>2026-04-12T11:56:15.036Z</time></trkpt><trkpt lat="40.226781392181984" lon="18.16576811105764"><ele>53.0</ele><time>2026-04-12T11:56:16.036Z</time></trkpt><trkpt lat="40.22702782249112" lon="18.165753085402397"><ele>53.0</ele><time>2026-04-12T11:56:17.036Z</time></trkpt><trkpt lat="40.227279162389536" lon="18.16573752485225"><ele>52.5</ele><time>2026-04-12T11:56:18.036Z</time></trkpt><trkpt lat="40.22752405163292" lon="18.165724164115137"><ele>52.0</ele><time>2026-04-12T11:56:19.036Z</time></trkpt><trkpt lat="40.22777339401703" lon="18.165709110169413"><ele>52.0</ele><time>2026-04-12T11:56:20.036Z</time></trkpt><trkpt lat="40.22802358245355" lon="18.165695663072178"><ele>52.0</ele><time>2026-04-12T11:56:21.036Z</time></trkpt><trkpt lat="40.22827640119503" lon="18.165677523331333"><ele>52.0</ele><time>2026-04-12T11:56:22.036Z</time></trkpt><trkpt lat="40.22852238987356" lon="18.16566422220705"><ele>52.0</ele><time>2026-04-12T11:56:23.036Z</time></trkpt><trkpt lat="40.228779895567946" lon="18.165647467626812"><ele>52.0</ele><time>2026-04-12T11:56:24.036Z</time></trkpt><trkpt lat="40.229031728451375" lon="18.165631589031012"><ele>52.0</ele><time>2026-04-12T11:56:25.036Z</time></trkpt><trkpt lat="40.22928398550966" lon="18.165619063505858"><ele>52.0</ele><time>2026-04-12T11:56:26.036Z</time></trkpt><trkpt lat="40.22953917420817" lon="18.165605020250187"><ele>52.0</ele><time>2026-04-12T11:56:27.036Z</time></trkpt><trkpt lat="40.22979397833427" lon="18.165590971422866"><ele>52.0</ele><time>2026-04-12T11:56:28.036Z</time></trkpt><trkpt lat="40.23004956668426" lon="18.165575753951313"><ele>52.0</ele><time>2026-04-12T11:56:29.036Z</time></trkpt><trkpt lat="40.23030859822624" lon="18.165556185912397"><ele>52.0</ele><time>2026-04-12T11:56:30.036Z</time></trkpt><trkpt lat="40.230559198043416" lon="18.165540147098838"><ele>52.0</ele><time>2026-04-12T11:56:31.036Z</time></trkpt><trkpt lat="40.2310599663425" lon="18.165522736167027"><ele>52.0</ele><time>2026-04-12T11:56:33.036Z</time></trkpt><trkpt lat="40.23131019128186" lon="18.165504612211723"><ele>52.0</ele><time>2026-04-12T11:56:34.036Z</time></trkpt><trkpt lat="40.23155713470912" lon="18.16548900770352"><ele>51.5</ele><time>2026-04-12T11:56:35.036Z</time></trkpt><trkpt lat="40.23180248765396" lon="18.1654763337463"><ele>51.0</ele><time>2026-04-12T11:56:36.036Z</time></trkpt><trkpt lat="40.23204609757217" lon="18.1654610340293"><ele>51.0</ele><time>2026-04-12T11:56:37.036Z</time></trkpt><trkpt lat="40.23228508484561" lon="18.165449149846328"><ele>51.0</ele><time>2026-04-12T11:56:38.036Z</time></trkpt><trkpt lat="40.2325201596653" lon="18.165436846963253"><ele>50.0</ele><time>2026-04-12T11:56:39.036Z</time></trkpt><trkpt lat="40.23275365109846" lon="18.165422129737564"><ele>49.0</ele><time>2026-04-12T11:56:40.036Z</time></trkpt><trkpt lat="40.23298995099934" lon="18.16540575933791"><ele>49.0</ele><time>2026-04-12T11:56:41.036Z</time></trkpt><trkpt lat="40.23322030119108" lon="18.16539287544774"><ele>49.0</ele><time>2026-04-12T11:56:42.036Z</time></trkpt><trkpt lat="40.23345163816981" lon="18.16537998547383"><ele>49.0</ele><time>2026-04-12T11:56:43.036Z</time></trkpt><trkpt lat="40.2336823979056" lon="18.165365695809353"><ele>49.0</ele><time>2026-04-12T11:56:44.036Z</time></trkpt><trkpt lat="40.233912028109344" lon="18.1653546340694"><ele>50.0</ele><time>2026-04-12T11:56:45.036Z</time></trkpt><trkpt lat="40.23414440402585" lon="18.165342427895236"><ele>51.0</ele><time>2026-04-12T11:56:46.036Z</time></trkpt><trkpt lat="40.2343755156187" lon="18.165328807799646"><ele>51.0</ele><time>2026-04-12T11:56:47.036Z</time></trkpt><trkpt lat="40.23460538174038" lon="18.16531716634738"><ele>51.0</ele><time>2026-04-12T11:56:48.036Z</time></trkpt><trkpt lat="40.23483628061429" lon="18.16530746343641"><ele>51.5</ele><time>2026-04-12T11:56:49.036Z</time></trkpt><trkpt lat="40.23507077601232" lon="18.16529732009332"><ele>52.0</ele><time>2026-04-12T11:56:50.036Z</time></trkpt><trkpt lat="40.23530215843902" lon="18.1652837667177"><ele>52.0</ele><time>2026-04-12T11:56:51.036Z</time></trkpt><trkpt lat="40.23553687096114" lon="18.165269121486755"><ele>52.0</ele><time>2026-04-12T11:56:52.036Z</time></trkpt><trkpt lat="40.236007067795455" lon="18.1652391966769"><ele>52.0</ele><time>2026-04-12T11:56:54.037Z</time></trkpt><trkpt lat="40.23624202380341" lon="18.165222444807704"><ele>52.0</ele><time>2026-04-12T11:56:55.037Z</time></trkpt><trkpt lat="40.23647533538023" lon="18.165207385239388"><ele>52.0</ele><time>2026-04-12T11:56:56.037Z</time></trkpt><trkpt lat="40.23670492775856" lon="18.165200430510218"><ele>52.0</ele><time>2026-04-12T11:56:57.037Z</time></trkpt><trkpt lat="40.23693907043704" lon="18.165185942170663"><ele>52.0</ele><time>2026-04-12T11:56:58.037Z</time></trkpt><trkpt lat="40.23717747757971" lon="18.165169671317496"><ele>52.0</ele><time>2026-04-12T11:56:59.037Z</time></trkpt><trkpt lat="40.237414333687205" lon="18.165154019777678"><ele>52.0</ele><time>2026-04-12T11:57:00.037Z</time></trkpt><trkpt lat="40.237655898583206" lon="18.165137525700214"><ele>52.0</ele><time>2026-04-12T11:57:01.037Z</time></trkpt><trkpt lat="40.23789737470767" lon="18.165119542796408"><ele>51.5</ele><time>2026-04-12T11:57:02.037Z</time></trkpt><trkpt lat="40.23813783794093" lon="18.165107167931094"><ele>51.0</ele><time>2026-04-12T11:57:03.037Z</time></trkpt><trkpt lat="40.23837779658385" lon="18.16509495249443"><ele>51.0</ele><time>2026-04-12T11:57:04.037Z</time></trkpt><trkpt lat="40.23862079116249" lon="18.165079302995547"><ele>51.0</ele><time>2026-04-12T11:57:05.037Z</time></trkpt><trkpt lat="40.238862734138884" lon="18.165062982125264"><ele>50.0</ele><time>2026-04-12T11:57:06.037Z</time></trkpt><trkpt lat="40.23910737558509" lon="18.165048128817364"><ele>49.0</ele><time>2026-04-12T11:57:07.037Z</time></trkpt><trkpt lat="40.239355714157576" lon="18.165033618777564"><ele>49.0</ele><time>2026-04-12T11:57:08.037Z</time></trkpt><trkpt lat="40.239603124836364" lon="18.165018403951944"><ele>49.0</ele><time>2026-04-12T11:57:09.037Z</time></trkpt><trkpt lat="40.239849062208386" lon="18.16500247272164"><ele>48.5</ele><time>2026-04-12T11:57:10.037Z</time></trkpt><trkpt lat="40.24009810921129" lon="18.164985686721813"><ele>48.0</ele><time>2026-04-12T11:57:11.037Z</time></trkpt><trkpt lat="40.24034700162432" lon="18.16497039519246"><ele>48.0</ele><time>2026-04-12T11:57:12.037Z</time></trkpt><trkpt lat="40.240597926194305" lon="18.16495927512344"><ele>48.0</ele><time>2026-04-12T11:57:13.037Z</time></trkpt><trkpt lat="40.24110511885206" lon="18.16493750140099"><ele>48.5</ele><time>2026-04-12T11:57:15.037Z</time></trkpt><trkpt lat="40.2413536262914" lon="18.16492664792849"><ele>49.0</ele><time>2026-04-12T11:57:16.037Z</time></trkpt><trkpt lat="40.24160918826705" lon="18.16491244908422"><ele>49.5</ele><time>2026-04-12T11:57:17.037Z</time></trkpt><trkpt lat="40.241866441763506" lon="18.164898346318434"><ele>50.0</ele><time>2026-04-12T11:57:18.037Z</time></trkpt><trkpt lat="40.24211318243295" lon="18.16487974657787"><ele>50.0</ele><time>2026-04-12T11:57:19.037Z</time></trkpt><trkpt lat="40.24235406508107" lon="18.164865048631487"><ele>50.0</ele><time>2026-04-12T11:57:20.037Z</time></trkpt><trkpt lat="40.24259656727624" lon="18.16485162309043"><ele>49.0</ele><time>2026-04-12T11:57:21.037Z</time></trkpt><trkpt lat="40.242839883729495" lon="18.164834204286336"><ele>48.0</ele><time>2026-04-12T11:57:22.037Z</time></trkpt><trkpt lat="40.24306732617657" lon="18.164819377026344"><ele>48.0</ele><time>2026-04-12T11:57:23.037Z</time></trkpt><trkpt lat="40.243281980918226" lon="18.16480645738528"><ele>48.0</ele><time>2026-04-12T11:57:24.037Z</time></trkpt><trkpt lat="40.2434748697718" lon="18.164799948977222"><ele>48.0</ele><time>2026-04-12T11:57:25.037Z</time></trkpt><trkpt lat="40.24364034855213" lon="18.16478439562997"><ele>48.0</ele><time>2026-04-12T11:57:26.037Z</time></trkpt><trkpt lat="40.243790729975785" lon="18.164777326096576"><ele>48.0</ele><time>2026-04-12T11:57:27.037Z</time></trkpt><trkpt lat="40.24391636343946" lon="18.16478382145928"><ele>48.0</ele><time>2026-04-12T11:57:28.037Z</time></trkpt><trkpt lat="40.24402017235725" lon="18.16479741307032"><ele>48.0</ele><time>2026-04-12T11:57:29.037Z</time></trkpt><trkpt lat="40.24411561059129" lon="18.16482910776116"><ele>48.4</ele><time>2026-04-12T11:57:30.037Z</time></trkpt><trkpt lat="40.24419657413663" lon="18.16488013726344"><ele>48.8</ele><time>2026-04-12T11:57:31.037Z</time></trkpt><trkpt lat="40.24426607533128" lon="18.16494694668988"><ele>49.2</ele><time>2026-04-12T11:57:32.037Z</time></trkpt><trkpt lat="40.244335732926125" lon="18.164995920020704"><ele>49.6</ele><time>2026-04-12T11:57:33.037Z</time></trkpt><trkpt lat="40.244411647559126" lon="18.16501124358479"><ele>50.0</ele><time>2026-04-12T11:57:34.037Z</time></trkpt><trkpt lat="40.24459397537183" lon="18.16494987200937"><ele>50.0</ele><time>2026-04-12T11:57:36.037Z</time></trkpt><trkpt lat="40.24468584383871" lon="18.1648703867778"><ele>50.0</ele><time>2026-04-12T11:57:37.037Z</time></trkpt><trkpt lat="40.24478039754626" lon="18.16479988807309"><ele>50.0</ele><time>2026-04-12T11:57:38.037Z</time></trkpt><trkpt lat="40.24490285015059" lon="18.16475021767214"><ele>50.0</ele><time>2026-04-12T11:57:39.037Z</time></trkpt><trkpt lat="40.24505938763931" lon="18.1647316251979"><ele>49.66666666666667</ele><time>2026-04-12T11:57:40.037Z</time></trkpt><trkpt lat="40.245229677687846" lon="18.164722682069197"><ele>49.33333333333333</ele><time>2026-04-12T11:57:41.037Z</time></trkpt><trkpt lat="40.245419588876516" lon="18.164716346922454"><ele>49.0</ele><time>2026-04-12T11:57:42.037Z</time></trkpt><trkpt lat="40.24562299176891" lon="18.164704246482547"><ele>49.33333333333333</ele><time>2026-04-12T11:57:43.038Z</time></trkpt><trkpt lat="40.24583962457176" lon="18.164694230327424"><ele>49.66666666666667</ele><time>2026-04-12T11:57:44.038Z</time></trkpt><trkpt lat="40.246067353652094" lon="18.164697555195445"><ele>50.0</ele><time>2026-04-12T11:57:45.037Z</time></trkpt><trkpt lat="40.2463006392244" lon="18.164721731502837"><ele>50.0</ele><time>2026-04-12T11:57:46.038Z</time></trkpt><trkpt lat="40.2465367905508" lon="18.164770666058175"><ele>50.0</ele><time>2026-04-12T11:57:47.038Z</time></trkpt><trkpt lat="40.24676324725471" lon="18.164835541055755"><ele>50.333333333333336</ele><time>2026-04-12T11:57:48.038Z</time></trkpt><trkpt lat="40.246981548983605" lon="18.164912596049522"><ele>50.66666666666667</ele><time>2026-04-12T11:57:49.038Z</time></trkpt><trkpt lat="40.24719397026002" lon="18.165001654830913"><ele>51.0</ele><time>2026-04-12T11:57:50.038Z</time></trkpt><trkpt lat="40.24740700401698" lon="18.16509159083811"><ele>51.33333333333333</ele><time>2026-04-12T11:57:51.038Z</time></trkpt><trkpt lat="40.2476177875938" lon="18.16518082340357"><ele>51.666666666666664</ele><time>2026-04-12T11:57:52.037Z</time></trkpt><trkpt lat="40.24782712760907" lon="18.165265737763868"><ele>52.0</ele><time>2026-04-12T11:57:53.037Z</time></trkpt><trkpt lat="40.24803963133936" lon="18.165348813302526"><ele>51.5</ele><time>2026-04-12T11:57:54.037Z</time></trkpt><trkpt lat="40.24825552572565" lon="18.16543139999715"><ele>51.0</ele><time>2026-04-12T11:57:55.037Z</time></trkpt><trkpt lat="40.24868719559329" lon="18.165601177050327"><ele>51.0</ele><time>2026-04-12T11:57:57.037Z</time></trkpt><trkpt lat="40.24890501657194" lon="18.16568807403934"><ele>51.0</ele><time>2026-04-12T11:57:58.037Z</time></trkpt><trkpt lat="40.24911506575167" lon="18.165777528322653"><ele>51.0</ele><time>2026-04-12T11:57:59.037Z</time></trkpt><trkpt lat="40.24930838252616" lon="18.16586191237466"><ele>52.0</ele><time>2026-04-12T11:58:00.037Z</time></trkpt><trkpt lat="40.24949269514124" lon="18.165935563496745"><ele>53.0</ele><time>2026-04-12T11:58:01.037Z</time></trkpt><trkpt lat="40.24966546961872" lon="18.165994279064943"><ele>54.0</ele><time>2026-04-12T11:58:02.037Z</time></trkpt><trkpt lat="40.24983100056333" lon="18.16603287356529"><ele>54.33333333333333</ele><time>2026-04-12T11:58:03.037Z</time></trkpt><trkpt lat="40.24999742903703" lon="18.166045396759802"><ele>54.666666666666664</ele><time>2026-04-12T11:58:04.037Z</time></trkpt><trkpt lat="40.25016583369171" lon="18.16603177680467"><ele>55.0</ele><time>2026-04-12T11:58:05.037Z</time></trkpt><trkpt lat="40.25033742776384" lon="18.16599428125084"><ele>55.0</ele><time>2026-04-12T11:58:06.037Z</time></trkpt><trkpt lat="40.250515446135466" lon="18.165937304493617"><ele>55.0</ele><time>2026-04-12T11:58:07.037Z</time></trkpt><trkpt lat="40.25069670247286" lon="18.165861948844423"><ele>55.0</ele><time>2026-04-12T11:58:08.038Z</time></trkpt><trkpt lat="40.25087560933019" lon="18.16575946103949"><ele>54.666666666666664</ele><time>2026-04-12T11:58:09.038Z</time></trkpt><trkpt lat="40.25104853790089" lon="18.165637534221826"><ele>54.33333333333333</ele><time>2026-04-12T11:58:10.038Z</time></trkpt><trkpt lat="40.25121844605381" lon="18.16548860032494"><ele>54.0</ele><time>2026-04-12T11:58:11.038Z</time></trkpt><trkpt lat="40.25138249484885" lon="18.165322148346874"><ele>54.33333333333333</ele><time>2026-04-12T11:58:12.038Z</time></trkpt><trkpt lat="40.2515495549761" lon="18.165142327959927"><ele>54.666666666666664</ele><time>2026-04-12T11:58:13.038Z</time></trkpt><trkpt lat="40.25172769285063" lon="18.164955983255478"><ele>55.0</ele><time>2026-04-12T11:58:14.038Z</time></trkpt><trkpt lat="40.25192173587374" lon="18.16474870463191"><ele>55.0</ele><time>2026-04-12T11:58:15.038Z</time></trkpt><trkpt lat="40.25211670393481" lon="18.164566001938226"><ele>55.0</ele><time>2026-04-12T11:58:16.038Z</time></trkpt><trkpt lat="40.25253050367139" lon="18.164178631888195"><ele>55.5</ele><time>2026-04-12T11:58:18.038Z</time></trkpt><trkpt lat="40.25275942936107" lon="18.164000365819817"><ele>56.0</ele><time>2026-04-12T11:58:19.038Z</time></trkpt><trkpt lat="40.25300006187203" lon="18.163835078951035"><ele>56.0</ele><time>2026-04-12T11:58:20.038Z</time></trkpt><trkpt lat="40.25269174153126" lon="18.163479914194305"><ele>56.0</ele><time>2026-04-12T11:58:21.038Z</time></trkpt><trkpt lat="40.252854780967546" lon="18.163323837547452"><ele>56.0</ele><time>2026-04-12T11:58:22.038Z</time></trkpt><trkpt lat="40.253032594605386" lon="18.16318915418962"><ele>56.0</ele><time>2026-04-12T11:58:23.038Z</time></trkpt><trkpt lat="40.25322003868676" lon="18.16305670236465"><ele>56.0</ele><time>2026-04-12T11:58:24.038Z</time></trkpt><trkpt lat="40.25341267133822" lon="18.162915326400853"><ele>59.5</ele><time>2026-04-12T11:58:25.038Z</time></trkpt><trkpt lat="40.253610267346644" lon="18.162767989567595"><ele>63.0</ele><time>2026-04-12T11:58:26.038Z</time></trkpt><trkpt lat="40.253810860841675" lon="18.162615955649798"><ele>62.5</ele><time>2026-04-12T11:58:27.038Z</time></trkpt><trkpt lat="40.2540201972326" lon="18.162463908673704"><ele>62.0</ele><time>2026-04-12T11:58:28.038Z</time></trkpt><trkpt lat="40.254233518909544" lon="18.16231537044702"><ele>61.5</ele><time>2026-04-12T11:58:29.038Z</time></trkpt><trkpt lat="40.2544552613962" lon="18.162164132256773"><ele>61.0</ele><time>2026-04-12T11:58:30.038Z</time></trkpt><trkpt lat="40.25467834734599" lon="18.162009736327125"><ele>61.0</ele><time>2026-04-12T11:58:31.038Z</time></trkpt><trkpt lat="40.25490633681745" lon="18.16184770042498"><ele>61.0</ele><time>2026-04-12T11:58:32.038Z</time></trkpt><trkpt lat="40.2551381920228" lon="18.16168286835866"><ele>62.0</ele><time>2026-04-12T11:58:33.038Z</time></trkpt><trkpt lat="40.25536840393003" lon="18.16151682725157"><ele>63.0</ele><time>2026-04-12T11:58:34.038Z</time></trkpt><trkpt lat="40.25560123491435" lon="18.161342426318924"><ele>63.5</ele><time>2026-04-12T11:58:35.038Z</time></trkpt><trkpt lat="40.25583459531169" lon="18.16116102553557"><ele>64.0</ele><time>2026-04-12T11:58:36.038Z</time></trkpt><trkpt lat="40.25606839597654" lon="18.16096889855428"><ele>64.0</ele><time>2026-04-12T11:58:37.038Z</time></trkpt><trkpt lat="40.25653275214739" lon="18.160578148000567"><ele>64.0</ele><time>2026-04-12T11:58:39.038Z</time></trkpt><trkpt lat="40.25675703120861" lon="18.160381931528732"><ele>64.0</ele><time>2026-04-12T11:58:40.038Z</time></trkpt><trkpt lat="40.256974291191845" lon="18.160182060652787"><ele>64.0</ele><time>2026-04-12T11:58:41.038Z</time></trkpt><trkpt lat="40.257188859550965" lon="18.159979864594053"><ele>64.0</ele><time>2026-04-12T11:58:42.038Z</time></trkpt><trkpt lat="40.25739867511208" lon="18.15977703259051"><ele>63.5</ele><time>2026-04-12T11:58:43.038Z</time></trkpt><trkpt lat="40.257605741548964" lon="18.159566809372404"><ele>63.0</ele><time>2026-04-12T11:58:44.038Z</time></trkpt><trkpt lat="40.25780595105226" lon="18.159346624794207"><ele>63.0</ele><time>2026-04-12T11:58:45.038Z</time></trkpt><trkpt lat="40.25801070484538" lon="18.159130730773995"><ele>63.0</ele><time>2026-04-12T11:58:46.038Z</time></trkpt><trkpt lat="40.2582134007266" lon="18.158909660882493"><ele>63.0</ele><time>2026-04-12T11:58:47.038Z</time></trkpt><trkpt lat="40.25841718690166" lon="18.1586894910025"><ele>63.0</ele><time>2026-04-12T11:58:48.038Z</time></trkpt><trkpt lat="40.25861878996073" lon="18.158462296502282"><ele>63.0</ele><time>2026-04-12T11:58:49.038Z</time></trkpt><trkpt lat="40.258818495896115" lon="18.158233578854844"><ele>63.0</ele><time>2026-04-12T11:58:50.038Z</time></trkpt><trkpt lat="40.25901720879925" lon="18.15799938950408"><ele>63.5</ele><time>2026-04-12T11:58:51.038Z</time></trkpt><trkpt lat="40.25921617714939" lon="18.15775850442466"><ele>64.0</ele><time>2026-04-12T11:58:52.038Z</time></trkpt><trkpt lat="40.25941679228159" lon="18.157516361985508"><ele>64.0</ele><time>2026-04-12T11:58:53.038Z</time></trkpt><trkpt lat="40.25961638350362" lon="18.157273839021233"><ele>64.0</ele><time>2026-04-12T11:58:54.038Z</time></trkpt><trkpt lat="40.25981622517683" lon="18.157032320220353"><ele>64.0</ele><time>2026-04-12T11:58:55.038Z</time></trkpt><trkpt lat="40.2600190460096" lon="18.156795010044757"><ele>64.0</ele><time>2026-04-12T11:58:56.038Z</time></trkpt><trkpt lat="40.260223675016235" lon="18.156551617862114"><ele>64.0</ele><time>2026-04-12T11:58:57.038Z</time></trkpt><trkpt lat="40.2604298365241" lon="18.156306711692817"><ele>64.0</ele><time>2026-04-12T11:58:58.038Z</time></trkpt><trkpt lat="40.26083662036844" lon="18.155819274689925"><ele>64.0</ele><time>2026-04-12T11:59:00.038Z</time></trkpt><trkpt lat="40.26104298122715" lon="18.155571050124774"><ele>64.0</ele><time>2026-04-12T11:59:01.039Z</time></trkpt><trkpt lat="40.26123450628512" lon="18.155338541002777"><ele>64.0</ele><time>2026-04-12T11:59:02.039Z</time></trkpt><trkpt lat="40.2614331214533" lon="18.155085773969773"><ele>64.0</ele><time>2026-04-12T11:59:03.039Z</time></trkpt><trkpt lat="40.26163223020759" lon="18.15484074761663"><ele>64.0</ele><time>2026-04-12T11:59:04.039Z</time></trkpt><trkpt lat="40.26182400859693" lon="18.15459850095126"><ele>64.0</ele><time>2026-04-12T11:59:05.039Z</time></trkpt><trkpt lat="40.26201649346401" lon="18.154355723102622"><ele>64.0</ele><time>2026-04-12T11:59:06.039Z</time></trkpt><trkpt lat="40.262204428906934" lon="18.154117107360392"><ele>64.0</ele><time>2026-04-12T11:59:07.039Z</time></trkpt><trkpt lat="40.26239175415144" lon="18.153879908830692"><ele>64.0</ele><time>2026-04-12T11:59:08.039Z</time></trkpt><trkpt lat="40.26257788050368" lon="18.15364563477006"><ele>64.0</ele><time>2026-04-12T11:59:09.039Z</time></trkpt><trkpt lat="40.26276480517239" lon="18.153410966628122"><ele>64.0</ele><time>2026-04-12T11:59:10.039Z</time></trkpt><trkpt lat="40.26295257380183" lon="18.153173697578215"><ele>64.0</ele><time>2026-04-12T11:59:11.039Z</time></trkpt><trkpt lat="40.26314074872672" lon="18.15293331400218"><ele>64.0</ele><time>2026-04-12T11:59:12.039Z</time></trkpt><trkpt lat="40.26333361086242" lon="18.15269511899389"><ele>64.0</ele><time>2026-04-12T11:59:13.039Z</time></trkpt><trkpt lat="40.263529806182106" lon="18.152454402021053"><ele>64.5</ele><time>2026-04-12T11:59:14.039Z</time></trkpt><trkpt lat="40.26372995597501" lon="18.152212340604336"><ele>65.0</ele><time>2026-04-12T11:59:15.039Z</time></trkpt><trkpt lat="40.2639297191146" lon="18.151974013434256"><ele>65.0</ele><time>2026-04-12T11:59:16.039Z</time></trkpt><trkpt lat="40.26413553565736" lon="18.151742766325228"><ele>65.0</ele><time>2026-04-12T11:59:17.039Z</time></trkpt><trkpt lat="40.26434299164086" lon="18.151511822932946"><ele>64.0</ele><time>2026-04-12T11:59:18.039Z</time></trkpt><trkpt lat="40.26454674398261" lon="18.151278980889508"><ele>63.0</ele><time>2026-04-12T11:59:19.039Z</time></trkpt><trkpt lat="40.264961096272835" lon="18.150811822543684"><ele>63.0</ele><time>2026-04-12T11:59:21.039Z</time></trkpt><trkpt lat="40.26516984651945" lon="18.150580306717174"><ele>63.0</ele><time>2026-04-12T11:59:22.039Z</time></trkpt><trkpt lat="40.26538019350337" lon="18.150348595403376"><ele>63.0</ele><time>2026-04-12T11:59:23.039Z</time></trkpt><trkpt lat="40.26558510637237" lon="18.150113170631467"><ele>63.0</ele><time>2026-04-12T11:59:24.039Z</time></trkpt><trkpt lat="40.2657867593328" lon="18.149879217702992"><ele>63.0</ele><time>2026-04-12T11:59:25.039Z</time></trkpt><trkpt lat="40.26598561715466" lon="18.149638762707802"><ele>63.0</ele><time>2026-04-12T11:59:26.039Z</time></trkpt><trkpt lat="40.26617929499329" lon="18.14938902026699"><ele>63.0</ele><time>2026-04-12T11:59:27.039Z</time></trkpt><trkpt lat="40.26635952921309" lon="18.149123563986567"><ele>63.0</ele><time>2026-04-12T11:59:28.039Z</time></trkpt><trkpt lat="40.266530936649616" lon="18.14884655760019"><ele>63.0</ele><time>2026-04-12T11:59:29.039Z</time></trkpt><trkpt lat="40.26669401888696" lon="18.148561445170294"><ele>63.0</ele><time>2026-04-12T11:59:30.039Z</time></trkpt><trkpt lat="40.26684988408666" lon="18.148267675094303"><ele>62.0</ele><time>2026-04-12T11:59:31.039Z</time></trkpt><trkpt lat="40.26699609358386" lon="18.1479620417687"><ele>61.0</ele><time>2026-04-12T11:59:32.039Z</time></trkpt><trkpt lat="40.267134239926534" lon="18.1476561059904"><ele>61.0</ele><time>2026-04-12T11:59:33.039Z</time></trkpt><trkpt lat="40.26726538034931" lon="18.147340238574863"><ele>61.0</ele><time>2026-04-12T11:59:34.039Z</time></trkpt><trkpt lat="40.26738494518954" lon="18.147014731962194"><ele>61.5</ele><time>2026-04-12T11:59:35.039Z</time></trkpt><trkpt lat="40.26749424650259" lon="18.1466857304006"><ele>62.0</ele><time>2026-04-12T11:59:36.039Z</time></trkpt><trkpt lat="40.26759443666847" lon="18.14634633915944"><ele>62.0</ele><time>2026-04-12T11:59:37.039Z</time></trkpt><trkpt lat="40.26767826821683" lon="18.146004569855194"><ele>62.0</ele><time>2026-04-12T11:59:38.039Z</time></trkpt><trkpt lat="40.26775743142839" lon="18.14565251109432"><ele>60.5</ele><time>2026-04-12T11:59:39.039Z</time></trkpt><trkpt lat="40.26781720207175" lon="18.14531647644977"><ele>59.0</ele><time>2026-04-12T11:59:40.039Z</time></trkpt><trkpt lat="40.2679173789651" lon="18.144703498247484"><ele>58.0</ele><time>2026-04-12T11:59:42.039Z</time></trkpt><trkpt lat="40.26798266116531" lon="18.14423361370117"><ele>57.0</ele><time>2026-04-12T11:59:43.039Z</time></trkpt><trkpt lat="40.26800868960416" lon="18.143868654420846"><ele>56.5</ele><time>2026-04-12T11:59:44.039Z</time></trkpt><trkpt lat="40.26801845810294" lon="18.143500967399937"><ele>56.0</ele><time>2026-04-12T11:59:45.039Z</time></trkpt><trkpt lat="40.26802086514187" lon="18.14312877157952"><ele>54.5</ele><time>2026-04-12T11:59:46.039Z</time></trkpt><trkpt lat="40.268010547040774" lon="18.142758077630642"><ele>53.0</ele><time>2026-04-12T11:59:47.039Z</time></trkpt><trkpt lat="40.26798724777471" lon="18.14238570415944"><ele>52.5</ele><time>2026-04-12T11:59:48.039Z</time></trkpt><trkpt lat="40.26796246541799" lon="18.142016286381814"><ele>52.0</ele><time>2026-04-12T11:59:49.039Z</time></trkpt><trkpt lat="40.26793614196889" lon="18.141641408802638"><ele>52.0</ele><time>2026-04-12T11:59:50.039Z</time></trkpt><trkpt lat="40.26791281212941" lon="18.141268329514602"><ele>52.0</ele><time>2026-04-12T11:59:51.039Z</time></trkpt><trkpt lat="40.26789062225332" lon="18.140888830108597"><ele>52.5</ele><time>2026-04-12T11:59:52.039Z</time></trkpt><trkpt lat="40.26786732066079" lon="18.14051646435022"><ele>53.0</ele><time>2026-04-12T11:59:53.039Z</time></trkpt><trkpt lat="40.26784723681586" lon="18.140141310684008"><ele>51.5</ele><time>2026-04-12T11:59:54.04Z</time></trkpt><trkpt lat="40.26782487627112" lon="18.13976678206368"><ele>50.0</ele><time>2026-04-12T11:59:55.039Z</time></trkpt><trkpt lat="40.26780190678843" lon="18.13939098213529"><ele>49.5</ele><time>2026-04-12T11:59:56.039Z</time></trkpt><trkpt lat="40.2677829188824" lon="18.139019242996937"><ele>49.0</ele><time>2026-04-12T11:59:57.04Z</time></trkpt><trkpt lat="40.26776070597155" lon="18.138646096013797"><ele>49.0</ele><time>2026-04-12T11:59:58.039Z</time></trkpt><trkpt lat="40.26774270566065" lon="18.138273245074107"><ele>49.0</ele><time>2026-04-12T11:59:59.039Z</time></trkpt><trkpt lat="40.26771966066119" lon="18.13790120230688"><ele>49.5</ele><time>2026-04-12T12:00:00.04Z</time></trkpt><trkpt lat="40.26769489819672" lon="18.137529019956652"><ele>50.0</ele><time>2026-04-12T12:00:01.04Z</time></trkpt><trkpt lat="40.26765201794475" lon="18.136790914009467"><ele>50.0</ele><time>2026-04-12T12:00:03.04Z</time></trkpt><trkpt lat="40.26763285320322" lon="18.13642190476652"><ele>50.0</ele><time>2026-04-12T12:00:04.04Z</time></trkpt><trkpt lat="40.26761156806449" lon="18.13605371671058"><ele>49.0</ele><time>2026-04-12T12:00:05.04Z</time></trkpt><trkpt lat="40.26759526237199" lon="18.13569236952972"><ele>48.0</ele><time>2026-04-12T12:00:06.04Z</time></trkpt><trkpt lat="40.26758050644565" lon="18.135332858427393"><ele>48.0</ele><time>2026-04-12T12:00:07.04Z</time></trkpt><trkpt lat="40.26757186721934" lon="18.13497054881266"><ele>48.0</ele><time>2026-04-12T12:00:08.04Z</time></trkpt><trkpt lat="40.26757081229176" lon="18.134599379575967"><ele>48.0</ele><time>2026-04-12T12:00:09.04Z</time></trkpt><trkpt lat="40.26757448369369" lon="18.134252194476577"><ele>48.0</ele><time>2026-04-12T12:00:10.04Z</time></trkpt><trkpt lat="40.26757976359819" lon="18.133902985174032"><ele>47.5</ele><time>2026-04-12T12:00:11.04Z</time></trkpt><trkpt lat="40.26753971621984" lon="18.13358089630454"><ele>47.0</ele><time>2026-04-12T12:00:12.04Z</time></trkpt><trkpt lat="40.267512022653285" lon="18.133254439646315"><ele>49.0</ele><time>2026-04-12T12:00:13.04Z</time></trkpt><trkpt lat="40.26767836644539" lon="18.13279780314705"><ele>51.0</ele><time>2026-04-12T12:00:14.04Z</time></trkpt><trkpt lat="40.26773104730371" lon="18.132439343376955"><ele>50.0</ele><time>2026-04-12T12:00:15.04Z</time></trkpt><trkpt lat="40.267789663264864" lon="18.13208271647267"><ele>49.0</ele><time>2026-04-12T12:00:16.04Z</time></trkpt><trkpt lat="40.267855643922566" lon="18.13173164286288"><ele>47.5</ele><time>2026-04-12T12:00:17.04Z</time></trkpt><trkpt lat="40.26793379001652" lon="18.13138173417376"><ele>46.0</ele><time>2026-04-12T12:00:18.04Z</time></trkpt><trkpt lat="40.26802249065221" lon="18.131036804541267"><ele>47.5</ele><time>2026-04-12T12:00:19.04Z</time></trkpt><trkpt lat="40.26811433583703" lon="18.130694507694944"><ele>49.0</ele><time>2026-04-12T12:00:20.04Z</time></trkpt><trkpt lat="40.26820816361588" lon="18.13035239637948"><ele>49.0</ele><time>2026-04-12T12:00:21.04Z</time></trkpt><trkpt lat="40.26830104341307" lon="18.130010615232738"><ele>49.0</ele><time>2026-04-12T12:00:22.04Z</time></trkpt><trkpt lat="40.268481376990486" lon="18.129333141165574"><ele>49.5</ele><time>2026-04-12T12:00:24.04Z</time></trkpt><trkpt lat="40.268570747458014" lon="18.12902324469824"><ele>50.0</ele><time>2026-04-12T12:00:25.04Z</time></trkpt><trkpt lat="40.2686471876098" lon="18.128752761700948"><ele>50.0</ele><time>2026-04-12T12:00:26.04Z</time></trkpt><trkpt lat="40.268727028195535" lon="18.128506362345146"><ele>50.0</ele><time>2026-04-12T12:00:27.04Z</time></trkpt><trkpt lat="40.26880947787249" lon="18.12827455394421"><ele>50.0</ele><time>2026-04-12T12:00:28.041Z</time></trkpt><trkpt lat="40.268898962800925" lon="18.12805679541772"><ele>50.0</ele><time>2026-04-12T12:00:29.041Z</time></trkpt><trkpt lat="40.268996865571076" lon="18.127859053276516"><ele>50.0</ele><time>2026-04-12T12:00:30.041Z</time></trkpt><trkpt lat="40.26910109831851" lon="18.127681869774154"><ele>50.0</ele><time>2026-04-12T12:00:31.041Z</time></trkpt><trkpt lat="40.26921493320378" lon="18.127507908840755"><ele>49.0</ele><time>2026-04-12T12:00:32.041Z</time></trkpt><trkpt lat="40.26933292643286" lon="18.12734124081194"><ele>48.0</ele><time>2026-04-12T12:00:33.041Z</time></trkpt><trkpt lat="40.26946376072025" lon="18.127185232572025"><ele>47.0</ele><time>2026-04-12T12:00:34.041Z</time></trkpt><trkpt lat="40.26961171315497" lon="18.12704496483933"><ele>47.0</ele><time>2026-04-12T12:00:35.041Z</time></trkpt><trkpt lat="40.269772710953006" lon="18.126902082251807"><ele>47.0</ele><time>2026-04-12T12:00:36.041Z</time></trkpt><trkpt lat="40.26997758721424" lon="18.12679156448194"><ele>47.0</ele><time>2026-04-12T12:00:37.041Z</time></trkpt><trkpt lat="40.27017928549323" lon="18.126657524490344"><ele>46.666666666666664</ele><time>2026-04-12T12:00:38.041Z</time></trkpt><trkpt lat="40.27037851097943" lon="18.12652371917665"><ele>46.333333333333336</ele><time>2026-04-12T12:00:39.041Z</time></trkpt><trkpt lat="40.270570078663305" lon="18.12639963200211"><ele>46.0</ele><time>2026-04-12T12:00:40.041Z</time></trkpt><trkpt lat="40.27076185534" lon="18.126276086841102"><ele>46.0</ele><time>2026-04-12T12:00:41.041Z</time></trkpt><trkpt lat="40.27094603791695" lon="18.126153359134655"><ele>46.0</ele><time>2026-04-12T12:00:42.041Z</time></trkpt><trkpt lat="40.271119590678275" lon="18.126033902695113"><ele>46.0</ele><time>2026-04-12T12:00:43.041Z</time></trkpt><trkpt lat="40.271442622050905" lon="18.125818561373976"><ele>45.333333333333336</ele><time>2026-04-12T12:00:45.041Z</time></trkpt><trkpt lat="40.271611522105815" lon="18.125740095329657"><ele>44.666666666666664</ele><time>2026-04-12T12:00:46.041Z</time></trkpt><trkpt lat="40.271786940937254" lon="18.12568367576897"><ele>44.0</ele><time>2026-04-12T12:00:47.041Z</time></trkpt><trkpt lat="40.271965187114056" lon="18.125631828581888"><ele>43.666666666666664</ele><time>2026-04-12T12:00:48.041Z</time></trkpt><trkpt lat="40.27214587420328" lon="18.125593701558703"><ele>43.333333333333336</ele><time>2026-04-12T12:00:49.041Z</time></trkpt><trkpt lat="40.27232650753841" lon="18.125577925574994"><ele>43.0</ele><time>2026-04-12T12:00:50.041Z</time></trkpt><trkpt lat="40.272507564803085" lon="18.12556787744735"><ele>43.66666666666667</ele><time>2026-04-12T12:00:51.041Z</time></trkpt><trkpt lat="40.272695770503105" lon="18.12557745735503"><ele>44.333333333333336</ele><time>2026-04-12T12:00:52.041Z</time></trkpt><trkpt lat="40.272871447072056" lon="18.12560259055278"><ele>45.0</ele><time>2026-04-12T12:00:53.041Z</time></trkpt><trkpt lat="40.27303767877912" lon="18.125637473459385"><ele>44.333333333333336</ele><time>2026-04-12T12:00:54.041Z</time></trkpt><trkpt lat="40.27320215342324" lon="18.125693342229514"><ele>43.66666666666667</ele><time>2026-04-12T12:00:55.041Z</time></trkpt><trkpt lat="40.27336916912486" lon="18.125759569083808"><ele>43.0</ele><time>2026-04-12T12:00:56.041Z</time></trkpt><trkpt lat="40.27356020786597" lon="18.125842987029536"><ele>42.66666666666667</ele><time>2026-04-12T12:00:57.041Z</time></trkpt><trkpt lat="40.2737639755115" lon="18.12592461133015"><ele>42.333333333333336</ele><time>2026-04-12T12:00:58.041Z</time></trkpt><trkpt lat="40.273982663177605" lon="18.126006815455167"><ele>42.0</ele><time>2026-04-12T12:00:59.041Z</time></trkpt><trkpt lat="40.27421259980967" lon="18.12609495626967"><ele>43.0</ele><time>2026-04-12T12:01:00.041Z</time></trkpt><trkpt lat="40.27445363677815" lon="18.12619134491081"><ele>44.0</ele><time>2026-04-12T12:01:01.041Z</time></trkpt><trkpt lat="40.27469608649613" lon="18.126303575738724"><ele>46.0</ele><time>2026-04-12T12:01:02.041Z</time></trkpt><trkpt lat="40.274943680009876" lon="18.12641901580181"><ele>48.0</ele><time>2026-04-12T12:01:03.041Z</time></trkpt><trkpt lat="40.27519689269996" lon="18.126537176348165"><ele>49.0</ele><time>2026-04-12T12:01:04.041Z</time></trkpt><trkpt lat="40.27570412398474" lon="18.12677874922311"><ele>49.0</ele><time>2026-04-12T12:01:06.041Z</time></trkpt><trkpt lat="40.27596164061472" lon="18.126899268438958"><ele>49.0</ele><time>2026-04-12T12:01:07.041Z</time></trkpt><trkpt lat="40.276221764967175" lon="18.127018471173646"><ele>51.0</ele><time>2026-04-12T12:01:08.041Z</time></trkpt><trkpt lat="40.27648483250793" lon="18.127132518994326"><ele>53.0</ele><time>2026-04-12T12:01:09.041Z</time></trkpt><trkpt lat="40.276746079432414" lon="18.127246146793684"><ele>53.0</ele><time>2026-04-12T12:01:10.041Z</time></trkpt><trkpt lat="40.27700545361304" lon="18.127365922947167"><ele>53.0</ele><time>2026-04-12T12:01:11.041Z</time></trkpt><trkpt lat="40.27726414019331" lon="18.127480541046396"><ele>54.5</ele><time>2026-04-12T12:01:12.041Z</time></trkpt><trkpt lat="40.27752515896522" lon="18.127594911879918"><ele>56.0</ele><time>2026-04-12T12:01:13.041Z</time></trkpt><trkpt lat="40.27778578979897" lon="18.127707177381136"><ele>56.0</ele><time>2026-04-12T12:01:14.041Z</time></trkpt><trkpt lat="40.27804658506469" lon="18.127825283968406"><ele>56.0</ele><time>2026-04-12T12:01:15.041Z</time></trkpt><trkpt lat="40.2783119081394" lon="18.12794183274562"><ele>52.5</ele><time>2026-04-12T12:01:16.041Z</time></trkpt><trkpt lat="40.27857082514794" lon="18.128053191188805"><ele>49.0</ele><time>2026-04-12T12:01:17.041Z</time></trkpt><trkpt lat="40.278843097482095" lon="18.128167320364316"><ele>48.5</ele><time>2026-04-12T12:01:18.041Z</time></trkpt><trkpt lat="40.27911579933433" lon="18.12828460997836"><ele>48.0</ele><time>2026-04-12T12:01:19.041Z</time></trkpt><trkpt lat="40.27939237002566" lon="18.128401669756254"><ele>48.0</ele><time>2026-04-12T12:01:20.041Z</time></trkpt><trkpt lat="40.2796668788476" lon="18.12852032607252"><ele>48.0</ele><time>2026-04-12T12:01:21.041Z</time></trkpt><trkpt lat="40.279942645006436" lon="18.12864160522958"><ele>49.0</ele><time>2026-04-12T12:01:22.042Z</time></trkpt><trkpt lat="40.28021584700803" lon="18.128765268105663"><ele>50.0</ele><time>2026-04-12T12:01:23.042Z</time></trkpt><trkpt lat="40.28049149594497" lon="18.1288863176527"><ele>50.0</ele><time>2026-04-12T12:01:24.042Z</time></trkpt><trkpt lat="40.28076582887519" lon="18.12900247926278"><ele>50.0</ele><time>2026-04-12T12:01:25.042Z</time></trkpt><trkpt lat="40.28131204701445" lon="18.12924898113469"><ele>49.0</ele><time>2026-04-12T12:01:27.042Z</time></trkpt><trkpt lat="40.28156635552006" lon="18.129361776449446"><ele>48.0</ele><time>2026-04-12T12:01:28.042Z</time></trkpt><trkpt lat="40.28180757844658" lon="18.12946948220603"><ele>48.0</ele><time>2026-04-12T12:01:29.042Z</time></trkpt><trkpt lat="40.28203080272114" lon="18.12958371493278"><ele>48.0</ele><time>2026-04-12T12:01:30.042Z</time></trkpt><trkpt lat="40.28224259523153" lon="18.129690066933932"><ele>47.5</ele><time>2026-04-12T12:01:31.042Z</time></trkpt><trkpt lat="40.282460202786496" lon="18.129790038426737"><ele>47.0</ele><time>2026-04-12T12:01:32.042Z</time></trkpt><trkpt lat="40.28267976224594" lon="18.129889232481332"><ele>47.5</ele><time>2026-04-12T12:01:33.042Z</time></trkpt><trkpt lat="40.2828976733855" lon="18.129984403454984"><ele>48.0</ele><time>2026-04-12T12:01:34.042Z</time></trkpt><trkpt lat="40.28311126534245" lon="18.130075037104262"><ele>48.0</ele><time>2026-04-12T12:01:35.042Z</time></trkpt><trkpt lat="40.28332413543105" lon="18.130168538328043"><ele>48.0</ele><time>2026-04-12T12:01:36.042Z</time></trkpt><trkpt lat="40.283537388350375" lon="18.130265640132446"><ele>48.0</ele><time>2026-04-12T12:01:37.042Z</time></trkpt><trkpt lat="40.28375542211175" lon="18.130361615618295"><ele>48.0</ele><time>2026-04-12T12:01:38.042Z</time></trkpt><trkpt lat="40.28397624918679" lon="18.130460962461612"><ele>47.5</ele><time>2026-04-12T12:01:39.042Z</time></trkpt><trkpt lat="40.28420157545781" lon="18.130562646069258"><ele>47.0</ele><time>2026-04-12T12:01:40.042Z</time></trkpt><trkpt lat="40.28442906065655" lon="18.130672161482522"><ele>48.5</ele><time>2026-04-12T12:01:41.042Z</time></trkpt><trkpt lat="40.28465030942863" lon="18.130776019557747"><ele>50.0</ele><time>2026-04-12T12:01:42.042Z</time></trkpt><trkpt lat="40.28487196265974" lon="18.13087831496326"><ele>50.0</ele><time>2026-04-12T12:01:43.042Z</time></trkpt><trkpt lat="40.28508947124375" lon="18.130975166817223"><ele>50.0</ele><time>2026-04-12T12:01:44.042Z</time></trkpt><trkpt lat="40.285310919364335" lon="18.13107143065468"><ele>50.0</ele><time>2026-04-12T12:01:45.042Z</time></trkpt><trkpt lat="40.285528236137374" lon="18.131170328691844"><ele>50.0</ele><time>2026-04-12T12:01:46.042Z</time></trkpt><trkpt lat="40.285960747426564" lon="18.131367812243536"><ele>50.0</ele><time>2026-04-12T12:01:48.042Z</time></trkpt><trkpt lat="40.28617960566673" lon="18.131467855591303"><ele>50.0</ele><time>2026-04-12T12:01:49.042Z</time></trkpt><trkpt lat="40.28639548277646" lon="18.131567384090395"><ele>49.5</ele><time>2026-04-12T12:01:50.042Z</time></trkpt><trkpt lat="40.286613397119105" lon="18.13166616733803"><ele>49.0</ele><time>2026-04-12T12:01:51.042Z</time></trkpt><trkpt lat="40.28682972522813" lon="18.1317623481186"><ele>49.0</ele><time>2026-04-12T12:01:52.042Z</time></trkpt><trkpt lat="40.28703896127044" lon="18.1318597686048"><ele>49.0</ele><time>2026-04-12T12:01:53.042Z</time></trkpt><trkpt lat="40.28724377396877" lon="18.13195531289943"><ele>49.0</ele><time>2026-04-12T12:01:54.042Z</time></trkpt><trkpt lat="40.2874572723273" lon="18.13204953439019"><ele>48.5</ele><time>2026-04-12T12:01:55.041Z</time></trkpt><trkpt lat="40.287676093087214" lon="18.132137146603423"><ele>48.0</ele><time>2026-04-12T12:01:56.041Z</time></trkpt><trkpt lat="40.28789563419056" lon="18.132233659668668"><ele>47.5</ele><time>2026-04-12T12:01:57.042Z</time></trkpt><trkpt lat="40.28810901068413" lon="18.132328901538713"><ele>47.0</ele><time>2026-04-12T12:01:58.041Z</time></trkpt><trkpt lat="40.288323938561554" lon="18.132430508692384"><ele>47.666666666666664</ele><time>2026-04-12T12:01:59.041Z</time></trkpt><trkpt lat="40.28853108851982" lon="18.132522052478546"><ele>48.33333333333333</ele><time>2026-04-12T12:02:00.041Z</time></trkpt><trkpt lat="40.28871947497562" lon="18.132612999695905"><ele>49.0</ele><time>2026-04-12T12:02:01.041Z</time></trkpt><trkpt lat="40.28890028912756" lon="18.13268695813839"><ele>50.0</ele><time>2026-04-12T12:02:02.041Z</time></trkpt><trkpt lat="40.289091779987636" lon="18.13276767503254"><ele>51.0</ele><time>2026-04-12T12:02:03.042Z</time></trkpt><trkpt lat="40.2892813708014" lon="18.132846959581656"><ele>52.0</ele><time>2026-04-12T12:02:04.041Z</time></trkpt><trkpt lat="40.28948205198801" lon="18.132933513262365"><ele>52.0</ele><time>2026-04-12T12:02:05.041Z</time></trkpt><trkpt lat="40.28967999071379" lon="18.133014097549154"><ele>52.0</ele><time>2026-04-12T12:02:06.042Z</time></trkpt><trkpt lat="40.2898826544164" lon="18.13306810755106"><ele>52.0</ele><time>2026-04-12T12:02:07.041Z</time></trkpt><trkpt lat="40.290274650046356" lon="18.133106542720604"><ele>52.0</ele><time>2026-04-12T12:02:09.041Z</time></trkpt><trkpt lat="40.290487762262515" lon="18.133133999994484"><ele>52.0</ele><time>2026-04-12T12:02:10.041Z</time></trkpt><trkpt lat="40.29071936082418" lon="18.133196797302645"><ele>52.0</ele><time>2026-04-12T12:02:11.041Z</time></trkpt><trkpt lat="40.29093813208435" lon="18.133211626993827"><ele>52.0</ele><time>2026-04-12T12:02:12.041Z</time></trkpt><trkpt lat="40.29115516417492" lon="18.133202484776326"><ele>52.0</ele><time>2026-04-12T12:02:13.041Z</time></trkpt><trkpt lat="40.29136891908247" lon="18.133182285706507"><ele>51.666666666666664</ele><time>2026-04-12T12:02:14.041Z</time></trkpt><trkpt lat="40.29158204397095" lon="18.13314340818169"><ele>51.33333333333333</ele><time>2026-04-12T12:02:15.041Z</time></trkpt><trkpt lat="40.29180063915677" lon="18.133101498716595"><ele>51.0</ele><time>2026-04-12T12:02:16.041Z</time></trkpt><trkpt lat="40.2920183118535" lon="18.13305591091115"><ele>51.0</ele><time>2026-04-12T12:02:17.042Z</time></trkpt><trkpt lat="40.29224517668076" lon="18.13301362451308"><ele>51.0</ele><time>2026-04-12T12:02:18.042Z</time></trkpt><trkpt lat="40.292470158860155" lon="18.13297356331295"><ele>50.66666666666667</ele><time>2026-04-12T12:02:19.042Z</time></trkpt><trkpt lat="40.29269223355667" lon="18.132936913846294"><ele>50.333333333333336</ele><time>2026-04-12T12:02:20.042Z</time></trkpt><trkpt lat="40.29291238066652" lon="18.132901688698713"><ele>50.0</ele><time>2026-04-12T12:02:21.042Z</time></trkpt><trkpt lat="40.29313658485028" lon="18.132865315399194"><ele>49.0</ele><time>2026-04-12T12:02:22.042Z</time></trkpt><trkpt lat="40.29336707875277" lon="18.132827437847865"><ele>48.0</ele><time>2026-04-12T12:02:23.042Z</time></trkpt><trkpt lat="40.29359840419041" lon="18.132782695739024"><ele>48.0</ele><time>2026-04-12T12:02:24.042Z</time></trkpt><trkpt lat="40.29382822048244" lon="18.13274009770188"><ele>48.0</ele><time>2026-04-12T12:02:25.042Z</time></trkpt><trkpt lat="40.29406079699272" lon="18.132698598330904"><ele>47.0</ele><time>2026-04-12T12:02:26.042Z</time></trkpt><trkpt lat="40.2942835676389" lon="18.132661142776715"><ele>46.0</ele><time>2026-04-12T12:02:27.042Z</time></trkpt><trkpt lat="40.29450430647913" lon="18.132622041567572"><ele>45.0</ele><time>2026-04-12T12:02:28.042Z</time></trkpt><trkpt lat="40.29494807412625" lon="18.13254589913486"><ele>44.333333333333336</ele><time>2026-04-12T12:02:30.042Z</time></trkpt><trkpt lat="40.295170258845864" lon="18.132504867258227"><ele>43.66666666666667</ele><time>2026-04-12T12:02:31.042Z</time></trkpt><trkpt lat="40.295385978765204" lon="18.13246539699535"><ele>43.0</ele><time>2026-04-12T12:02:32.042Z</time></trkpt><trkpt lat="40.295592925640456" lon="18.132431312935772"><ele>43.0</ele><time>2026-04-12T12:02:33.042Z</time></trkpt><trkpt lat="40.29579936254772" lon="18.132395405573487"><ele>43.0</ele><time>2026-04-12T12:02:34.042Z</time></trkpt><trkpt lat="40.296006718667954" lon="18.13235927441307"><ele>43.0</ele><time>2026-04-12T12:02:35.042Z</time></trkpt><trkpt lat="40.2962199270879" lon="18.132323171548805"><ele>43.333333333333336</ele><time>2026-04-12T12:02:36.042Z</time></trkpt><trkpt lat="40.296429924863006" lon="18.132290045530457"><ele>43.666666666666664</ele><time>2026-04-12T12:02:37.042Z</time></trkpt><trkpt lat="40.29664716402196" lon="18.132257569643293"><ele>44.0</ele><time>2026-04-12T12:02:38.042Z</time></trkpt><trkpt lat="40.29686426364847" lon="18.132232412378123"><ele>44.0</ele><time>2026-04-12T12:02:39.042Z</time></trkpt><trkpt lat="40.29708612989379" lon="18.132216378121793"><ele>44.0</ele><time>2026-04-12T12:02:40.042Z</time></trkpt><trkpt lat="40.2973134243348" lon="18.132204213793564"><ele>43.0</ele><time>2026-04-12T12:02:41.042Z</time></trkpt><trkpt lat="40.297544750927926" lon="18.132199578377325"><ele>42.0</ele><time>2026-04-12T12:02:42.042Z</time></trkpt><trkpt lat="40.29777624651273" lon="18.13220855973611"><ele>42.0</ele><time>2026-04-12T12:02:43.042Z</time></trkpt><trkpt lat="40.29801231183011" lon="18.132219031805455"><ele>42.0</ele><time>2026-04-12T12:02:44.042Z</time></trkpt><trkpt lat="40.29824426024164" lon="18.132238786071916"><ele>42.0</ele><time>2026-04-12T12:02:45.042Z</time></trkpt><trkpt lat="40.29846521707831" lon="18.132263013308965"><ele>42.0</ele><time>2026-04-12T12:02:46.042Z</time></trkpt><trkpt lat="40.298686419556084" lon="18.132302011004388"><ele>42.0</ele><time>2026-04-12T12:02:47.042Z</time></trkpt><trkpt lat="40.29891398353431" lon="18.132346789302215"><ele>42.0</ele><time>2026-04-12T12:02:48.042Z</time></trkpt><trkpt lat="40.29913776611744" lon="18.132398703455074"><ele>42.0</ele><time>2026-04-12T12:02:49.042Z</time></trkpt><trkpt lat="40.29957438245449" lon="18.132541314320218"><ele>40.5</ele><time>2026-04-12T12:02:51.042Z</time></trkpt><trkpt lat="40.299793568409136" lon="18.132617165235242"><ele>39.0</ele><time>2026-04-12T12:02:52.042Z</time></trkpt><trkpt lat="40.300010869238044" lon="18.13270280035569"><ele>39.0</ele><time>2026-04-12T12:02:53.042Z</time></trkpt><trkpt lat="40.300230944425266" lon="18.13279250281051"><ele>39.0</ele><time>2026-04-12T12:02:54.042Z</time></trkpt><trkpt lat="40.30044133055536" lon="18.13288856390286"><ele>38.333333333333336</ele><time>2026-04-12T12:02:55.042Z</time></trkpt><trkpt lat="40.300646327300456" lon="18.1329849996352"><ele>37.66666666666667</ele><time>2026-04-12T12:02:56.042Z</time></trkpt><trkpt lat="40.3008552939761" lon="18.13307751807523"><ele>37.0</ele><time>2026-04-12T12:02:57.042Z</time></trkpt><trkpt lat="40.30106461560587" lon="18.13317159039993"><ele>37.66666666666667</ele><time>2026-04-12T12:02:58.042Z</time></trkpt><trkpt lat="40.3012710122306" lon="18.13326625303233"><ele>38.333333333333336</ele><time>2026-04-12T12:02:59.042Z</time></trkpt><trkpt lat="40.301479130985825" lon="18.13336015020819"><ele>39.0</ele><time>2026-04-12T12:03:00.042Z</time></trkpt><trkpt lat="40.30168802792944" lon="18.133451111253162"><ele>39.333333333333336</ele><time>2026-04-12T12:03:01.042Z</time></trkpt><trkpt lat="40.30189608877377" lon="18.133542098524618"><ele>39.66666666666667</ele><time>2026-04-12T12:03:02.042Z</time></trkpt><trkpt lat="40.302103351647816" lon="18.133639833439673"><ele>40.0</ele><time>2026-04-12T12:03:03.042Z</time></trkpt><trkpt lat="40.30231348006857" lon="18.133730468300488"><ele>40.333333333333336</ele><time>2026-04-12T12:03:04.042Z</time></trkpt><trkpt lat="40.302519178608556" lon="18.133822478499532"><ele>40.666666666666664</ele><time>2026-04-12T12:03:05.042Z</time></trkpt><trkpt lat="40.30272305550113" lon="18.133916880673713"><ele>41.0</ele><time>2026-04-12T12:03:06.042Z</time></trkpt><trkpt lat="40.30293004199874" lon="18.134005110005756"><ele>41.666666666666664</ele><time>2026-04-12T12:03:07.042Z</time></trkpt><trkpt lat="40.30314091893091" lon="18.134104791111323"><ele>42.333333333333336</ele><time>2026-04-12T12:03:08.042Z</time></trkpt><trkpt lat="40.303352436045174" lon="18.13420118645494"><ele>43.0</ele><time>2026-04-12T12:03:09.042Z</time></trkpt><trkpt lat="40.30356565217794" lon="18.134301313747866"><ele>41.0</ele><time>2026-04-12T12:03:10.042Z</time></trkpt><trkpt lat="40.30399725540527" lon="18.134488874244887"><ele>41.0</ele><time>2026-04-12T12:03:12.043Z</time></trkpt><trkpt lat="40.304214575249304" lon="18.134580372602432"><ele>41.0</ele><time>2026-04-12T12:03:13.043Z</time></trkpt><trkpt lat="40.30443337973689" lon="18.13466383840565"><ele>41.0</ele><time>2026-04-12T12:03:14.043Z</time></trkpt><trkpt lat="40.30465367089049" lon="18.13474055139702"><ele>41.0</ele><time>2026-04-12T12:03:15.043Z</time></trkpt><trkpt lat="40.30487606843419" lon="18.134816098305386"><ele>40.5</ele><time>2026-04-12T12:03:16.043Z</time></trkpt><trkpt lat="40.305100428942204" lon="18.13489179557374"><ele>40.0</ele><time>2026-04-12T12:03:17.043Z</time></trkpt><trkpt lat="40.30532005964073" lon="18.134966792743164"><ele>40.0</ele><time>2026-04-12T12:03:18.043Z</time></trkpt><trkpt lat="40.30553818522682" lon="18.135039638926386"><ele>40.0</ele><time>2026-04-12T12:03:19.043Z</time></trkpt><trkpt lat="40.305759332955155" lon="18.13511521302253"><ele>40.5</ele><time>2026-04-12T12:03:20.043Z</time></trkpt><trkpt lat="40.30598109556044" lon="18.135191207648614"><ele>41.0</ele><time>2026-04-12T12:03:21.043Z</time></trkpt><trkpt lat="40.30620198039567" lon="18.13527168248309"><ele>41.0</ele><time>2026-04-12T12:03:22.043Z</time></trkpt><trkpt lat="40.3064248998003" lon="18.135356072428873"><ele>41.0</ele><time>2026-04-12T12:03:23.043Z</time></trkpt><trkpt lat="40.30665119119179" lon="18.135437549258743"><ele>41.0</ele><time>2026-04-12T12:03:24.043Z</time></trkpt><trkpt lat="40.306879653813844" lon="18.13551916780213"><ele>41.0</ele><time>2026-04-12T12:03:25.043Z</time></trkpt><trkpt lat="40.30710768338006" lon="18.13560144863553"><ele>39.5</ele><time>2026-04-12T12:03:26.043Z</time></trkpt><trkpt lat="40.30733896186637" lon="18.13568958675115"><ele>38.0</ele><time>2026-04-12T12:03:27.043Z</time></trkpt><trkpt lat="40.30757015613093" lon="18.13577024110112"><ele>37.5</ele><time>2026-04-12T12:03:28.043Z</time></trkpt><trkpt lat="40.30780247809234" lon="18.13584611983293"><ele>37.0</ele><time>2026-04-12T12:03:29.043Z</time></trkpt><trkpt lat="40.30803184345862" lon="18.13592095896029"><ele>36.5</ele><time>2026-04-12T12:03:30.043Z</time></trkpt><trkpt lat="40.30825886901605" lon="18.136000254945674"><ele>36.0</ele><time>2026-04-12T12:03:31.043Z</time></trkpt><trkpt lat="40.30870826885781" lon="18.136158117591247"><ele>36.0</ele><time>2026-04-12T12:03:33.043Z</time></trkpt><trkpt lat="40.30892719107735" lon="18.13623592358669"><ele>36.0</ele><time>2026-04-12T12:03:34.043Z</time></trkpt><trkpt lat="40.30914673834896" lon="18.136309084894467"><ele>36.0</ele><time>2026-04-12T12:03:35.043Z</time></trkpt><trkpt lat="40.30936279959979" lon="18.13638294295963"><ele>36.0</ele><time>2026-04-12T12:03:36.043Z</time></trkpt><trkpt lat="40.309577004885156" lon="18.136457949761425"><ele>36.0</ele><time>2026-04-12T12:03:37.043Z</time></trkpt><trkpt lat="40.30979178666791" lon="18.136534981639937"><ele>35.666666666666664</ele><time>2026-04-12T12:03:38.043Z</time></trkpt><trkpt lat="40.310005190355305" lon="18.136612098415725"><ele>35.33333333333333</ele><time>2026-04-12T12:03:39.043Z</time></trkpt><trkpt lat="40.310220072537334" lon="18.13668986766006"><ele>35.0</ele><time>2026-04-12T12:03:40.043Z</time></trkpt><trkpt lat="40.310437922350786" lon="18.136768835137776"><ele>35.33333333333333</ele><time>2026-04-12T12:03:41.043Z</time></trkpt><trkpt lat="40.3106564259988" lon="18.136845733923106"><ele>35.666666666666664</ele><time>2026-04-12T12:03:42.043Z</time></trkpt><trkpt lat="40.31087415351701" lon="18.136905381337385"><ele>36.0</ele><time>2026-04-12T12:03:43.043Z</time></trkpt><trkpt lat="40.311081936184436" lon="18.136973170058432"><ele>36.0</ele><time>2026-04-12T12:03:44.043Z</time></trkpt><trkpt lat="40.31128914584923" lon="18.137044192944742"><ele>36.0</ele><time>2026-04-12T12:03:45.043Z</time></trkpt><trkpt lat="40.31149495021385" lon="18.13711621563951"><ele>36.0</ele><time>2026-04-12T12:03:46.043Z</time></trkpt><trkpt lat="40.311706346247256" lon="18.137193203880237"><ele>36.0</ele><time>2026-04-12T12:03:47.043Z</time></trkpt><trkpt lat="40.31191276449708" lon="18.13727024854001"><ele>36.0</ele><time>2026-04-12T12:03:48.043Z</time></trkpt><trkpt lat="40.31211785392423" lon="18.137353039793584"><ele>36.0</ele><time>2026-04-12T12:03:49.043Z</time></trkpt><trkpt lat="40.31232559504974" lon="18.137447422811228"><ele>36.0</ele><time>2026-04-12T12:03:50.043Z</time></trkpt><trkpt lat="40.31252877547289" lon="18.137562347919303"><ele>36.0</ele><time>2026-04-12T12:03:51.043Z</time></trkpt><trkpt lat="40.31272531667185" lon="18.137691139134155"><ele>36.0</ele><time>2026-04-12T12:03:52.043Z</time></trkpt><trkpt lat="40.31309625101919" lon="18.137996368850352"><ele>35.666666666666664</ele><time>2026-04-12T12:03:54.043Z</time></trkpt><trkpt lat="40.313267298774946" lon="18.138167179268454"><ele>35.33333333333333</ele><time>2026-04-12T12:03:55.043Z</time></trkpt><trkpt lat="40.31343101032107" lon="18.138350112044193"><ele>35.0</ele><time>2026-04-12T12:03:56.043Z</time></trkpt><trkpt lat="40.31358545070189" lon="18.1385430375693"><ele>35.0</ele><time>2026-04-12T12:03:57.043Z</time></trkpt><trkpt lat="40.31372790438722" lon="18.138748362604638"><ele>35.0</ele><time>2026-04-12T12:03:58.043Z</time></trkpt><trkpt lat="40.3138632247026" lon="18.138961191017557"><ele>35.0</ele><time>2026-04-12T12:03:59.043Z</time></trkpt><trkpt lat="40.31399423886275" lon="18.139183841753063"><ele>35.33333333333333</ele><time>2026-04-12T12:04:00.044Z</time></trkpt><trkpt lat="40.31411634243607" lon="18.139417379563085"><ele>35.666666666666664</ele><time>2026-04-12T12:04:01.043Z</time></trkpt><trkpt lat="40.31422995082904" lon="18.1396611427993"><ele>36.0</ele><time>2026-04-12T12:04:02.043Z</time></trkpt><trkpt lat="40.314331176697365" lon="18.139891899713458"><ele>36.0</ele><time>2026-04-12T12:04:03.044Z</time></trkpt><trkpt lat="40.314432765299586" lon="18.140125132327594"><ele>36.0</ele><time>2026-04-12T12:04:04.043Z</time></trkpt><trkpt lat="40.314534963695635" lon="18.140362435394987"><ele>36.0</ele><time>2026-04-12T12:04:05.043Z</time></trkpt><trkpt lat="40.31463734499585" lon="18.140598588590258"><ele>35.333333333333336</ele><time>2026-04-12T12:04:06.044Z</time></trkpt><trkpt lat="40.31473128526058" lon="18.140844452917605"><ele>34.66666666666667</ele><time>2026-04-12T12:04:07.043Z</time></trkpt><trkpt lat="40.314834896642466" lon="18.141083715484264"><ele>34.0</ele><time>2026-04-12T12:04:08.043Z</time></trkpt><trkpt lat="40.31493648097247" lon="18.141325610063756"><ele>34.333333333333336</ele><time>2026-04-12T12:04:09.043Z</time></trkpt><trkpt lat="40.315046518135745" lon="18.141564854638446"><ele>34.666666666666664</ele><time>2026-04-12T12:04:10.043Z</time></trkpt><trkpt lat="40.31516670588584" lon="18.14180350045057"><ele>35.0</ele><time>2026-04-12T12:04:11.043Z</time></trkpt><trkpt lat="40.315288244567164" lon="18.142045812887556"><ele>35.0</ele><time>2026-04-12T12:04:12.043Z</time></trkpt><trkpt lat="40.31540305110322" lon="18.142291446441625"><ele>35.0</ele><time>2026-04-12T12:04:13.044Z</time></trkpt><trkpt lat="40.315628835618966" lon="18.142792764806416"><ele>35.33333333333333</ele><time>2026-04-12T12:04:15.044Z</time></trkpt><trkpt lat="40.3157370905778" lon="18.14303826398654"><ele>35.666666666666664</ele><time>2026-04-12T12:04:16.044Z</time></trkpt><trkpt lat="40.31584190650778" lon="18.143256473662102"><ele>36.0</ele><time>2026-04-12T12:04:17.044Z</time></trkpt><trkpt lat="40.315942610952035" lon="18.143459581263993"><ele>35.333333333333336</ele><time>2026-04-12T12:04:18.044Z</time></trkpt><trkpt lat="40.31603840529204" lon="18.14366323360138"><ele>34.66666666666667</ele><time>2026-04-12T12:04:19.044Z</time></trkpt><trkpt lat="40.31614203820758" lon="18.143883291423233"><ele>34.0</ele><time>2026-04-12T12:04:20.044Z</time></trkpt><trkpt lat="40.31625391062092" lon="18.1441057267364"><ele>34.0</ele><time>2026-04-12T12:04:21.044Z</time></trkpt><trkpt lat="40.31638515582795" lon="18.144314155358"><ele>34.0</ele><time>2026-04-12T12:04:22.044Z</time></trkpt><trkpt lat="40.316528271627696" lon="18.144514751303692"><ele>34.0</ele><time>2026-04-12T12:04:23.044Z</time></trkpt><trkpt lat="40.316677307933425" lon="18.144705207222085"><ele>33.0</ele><time>2026-04-12T12:04:24.044Z</time></trkpt><trkpt lat="40.316833644174174" lon="18.14488481617056"><ele>32.0</ele><time>2026-04-12T12:04:25.044Z</time></trkpt><trkpt lat="40.31698390953724" lon="18.14504914439008"><ele>31.0</ele><time>2026-04-12T12:04:26.044Z</time></trkpt><trkpt lat="40.31714617845571" lon="18.14520661862861"><ele>30.666666666666668</ele><time>2026-04-12T12:04:27.044Z</time></trkpt><trkpt lat="40.31731598688486" lon="18.14535394200258"><ele>30.333333333333336</ele><time>2026-04-12T12:04:28.044Z</time></trkpt><trkpt lat="40.31749273849943" lon="18.14549868858412"><ele>30.0</ele><time>2026-04-12T12:04:29.044Z</time></trkpt><trkpt lat="40.317675493456704" lon="18.145635345397743"><ele>29.0</ele><time>2026-04-12T12:04:30.044Z</time></trkpt><trkpt lat="40.31786180110428" lon="18.145759047522702"><ele>28.0</ele><time>2026-04-12T12:04:31.044Z</time></trkpt><trkpt lat="40.31806015782563" lon="18.145868817718014"><ele>27.0</ele><time>2026-04-12T12:04:32.044Z</time></trkpt><trkpt lat="40.318262772347346" lon="18.145970083942537"><ele>25.0</ele><time>2026-04-12T12:04:33.044Z</time></trkpt><trkpt lat="40.31846772763255" lon="18.14607191444897"><ele>23.0</ele><time>2026-04-12T12:04:34.044Z</time></trkpt><trkpt lat="40.31887649383205" lon="18.14628201372223"><ele>23.0</ele><time>2026-04-12T12:04:36.044Z</time></trkpt><trkpt lat="40.31908032432364" lon="18.146390957038616"><ele>23.0</ele><time>2026-04-12T12:04:37.044Z</time></trkpt><trkpt lat="40.31928647204089" lon="18.14649607237478"><ele>23.0</ele><time>2026-04-12T12:04:38.044Z</time></trkpt><trkpt lat="40.319493642499154" lon="18.14660107461624"><ele>23.0</ele><time>2026-04-12T12:04:39.044Z</time></trkpt><trkpt lat="40.31969735565842" lon="18.146706611821223"><ele>23.0</ele><time>2026-04-12T12:04:40.044Z</time></trkpt><trkpt lat="40.31989666963996" lon="18.146813248764346"><ele>23.0</ele><time>2026-04-12T12:04:41.044Z</time></trkpt><trkpt lat="40.32009900493771" lon="18.14691702906583"><ele>23.0</ele><time>2026-04-12T12:04:42.044Z</time></trkpt><trkpt lat="40.32030444801846" lon="18.147019693926268"><ele>23.0</ele><time>2026-04-12T12:04:43.044Z</time></trkpt><trkpt lat="40.320507862608785" lon="18.147116752616267"><ele>23.0</ele><time>2026-04-12T12:04:44.044Z</time></trkpt><trkpt lat="40.320707310467974" lon="18.147217872387003"><ele>22.666666666666668</ele><time>2026-04-12T12:04:45.044Z</time></trkpt><trkpt lat="40.32090361838314" lon="18.147323103503883"><ele>22.333333333333332</ele><time>2026-04-12T12:04:46.044Z</time></trkpt><trkpt lat="40.32110262512806" lon="18.147431864174315"><ele>22.0</ele><time>2026-04-12T12:04:47.044Z</time></trkpt><trkpt lat="40.321301691550765" lon="18.147540641207247"><ele>22.666666666666664</ele><time>2026-04-12T12:04:48.045Z</time></trkpt><trkpt lat="40.321506820583195" lon="18.147647606276223"><ele>23.333333333333332</ele><time>2026-04-12T12:04:49.045Z</time></trkpt><trkpt lat="40.321711087619896" lon="18.14775183380498"><ele>24.0</ele><time>2026-04-12T12:04:50.045Z</time></trkpt><trkpt lat="40.32191117944302" lon="18.147865415522727"><ele>24.0</ele><time>2026-04-12T12:04:51.045Z</time></trkpt><trkpt lat="40.322111058269925" lon="18.147978466119998"><ele>24.0</ele><time>2026-04-12T12:04:52.045Z</time></trkpt><trkpt lat="40.3223125095475" lon="18.14808539338352"><ele>24.0</ele><time>2026-04-12T12:04:53.045Z</time></trkpt><trkpt lat="40.32250690195896" lon="18.148179822188418"><ele>24.0</ele><time>2026-04-12T12:04:54.045Z</time></trkpt><trkpt lat="40.32270239370988" lon="18.148285075214236"><ele>24.0</ele><time>2026-04-12T12:04:55.045Z</time></trkpt><trkpt lat="40.32309530586903" lon="18.148496809980866"><ele>24.666666666666664</ele><time>2026-04-12T12:04:57.045Z</time></trkpt><trkpt lat="40.323294642488165" lon="18.148604469985326"><ele>25.333333333333332</ele><time>2026-04-12T12:04:58.045Z</time></trkpt><trkpt lat="40.32349849418744" lon="18.148712346970623"><ele>26.0</ele><time>2026-04-12T12:04:59.045Z</time></trkpt><trkpt lat="40.32370300470685" lon="18.14882245179073"><ele>26.333333333333332</ele><time>2026-04-12T12:05:00.045Z</time></trkpt><trkpt lat="40.32390822709871" lon="18.148932893536994"><ele>26.666666666666664</ele><time>2026-04-12T12:05:01.045Z</time></trkpt><trkpt lat="40.32410838529571" lon="18.14904085560132"><ele>27.0</ele><time>2026-04-12T12:05:02.045Z</time></trkpt><trkpt lat="40.32430524014901" lon="18.149142557989624"><ele>27.0</ele><time>2026-04-12T12:05:03.045Z</time></trkpt><trkpt lat="40.324503915246716" lon="18.149242555896148"><ele>27.0</ele><time>2026-04-12T12:05:04.045Z</time></trkpt><trkpt lat="40.324696952102464" lon="18.149345630593338"><ele>27.0</ele><time>2026-04-12T12:05:05.045Z</time></trkpt><trkpt lat="40.32489735662978" lon="18.149447980260664"><ele>28.666666666666664</ele><time>2026-04-12T12:05:06.045Z</time></trkpt><trkpt lat="40.32509203183448" lon="18.149547871969293"><ele>30.333333333333332</ele><time>2026-04-12T12:05:07.045Z</time></trkpt><trkpt lat="40.32528963557446" lon="18.149672072565313"><ele>32.0</ele><time>2026-04-12T12:05:08.045Z</time></trkpt><trkpt lat="40.325491241416486" lon="18.149801648486363"><ele>31.333333333333332</ele><time>2026-04-12T12:05:09.045Z</time></trkpt><trkpt lat="40.325665793188726" lon="18.149865246961127"><ele>30.666666666666664</ele><time>2026-04-12T12:05:10.045Z</time></trkpt><trkpt lat="40.325847111132745" lon="18.149951351709102"><ele>30.0</ele><time>2026-04-12T12:05:11.045Z</time></trkpt><trkpt lat="40.32603430068504" lon="18.15004519074301"><ele>29.666666666666664</ele><time>2026-04-12T12:05:12.045Z</time></trkpt><trkpt lat="40.326222946885785" lon="18.15014104636785"><ele>29.333333333333332</ele><time>2026-04-12T12:05:13.045Z</time></trkpt><trkpt lat="40.32640336393999" lon="18.15023532628868"><ele>29.0</ele><time>2026-04-12T12:05:14.045Z</time></trkpt><trkpt lat="40.326594094694684" lon="18.15033030514244"><ele>29.0</ele><time>2026-04-12T12:05:15.045Z</time></trkpt><trkpt lat="40.326778688415075" lon="18.15044986396176"><ele>29.0</ele><time>2026-04-12T12:05:16.045Z</time></trkpt><trkpt lat="40.3271638492408" lon="18.15065481373732"><ele>29.666666666666664</ele><time>2026-04-12T12:05:18.045Z</time></trkpt><trkpt lat="40.3273483172651" lon="18.15075272594426"><ele>30.333333333333336</ele><time>2026-04-12T12:05:19.045Z</time></trkpt><trkpt lat="40.327536025538365" lon="18.150844181974165"><ele>31.0</ele><time>2026-04-12T12:05:20.045Z</time></trkpt><trkpt lat="40.32771894556566" lon="18.150944192628785"><ele>31.0</ele><time>2026-04-12T12:05:21.045Z</time></trkpt><trkpt lat="40.32790217262013" lon="18.151043470600662"><ele>31.0</ele><time>2026-04-12T12:05:22.045Z</time></trkpt><trkpt lat="40.328086730908005" lon="18.151145179168317"><ele>31.0</ele><time>2026-04-12T12:05:23.045Z</time></trkpt><trkpt lat="40.32828038034423" lon="18.151249761456675"><ele>31.666666666666668</ele><time>2026-04-12T12:05:24.045Z</time></trkpt><trkpt lat="40.32846874612451" lon="18.151345196573224"><ele>32.333333333333336</ele><time>2026-04-12T12:05:25.045Z</time></trkpt><trkpt lat="40.32866504244758" lon="18.151443781867336"><ele>33.0</ele><time>2026-04-12T12:05:26.045Z</time></trkpt><trkpt lat="40.328858735494386" lon="18.151548964817554"><ele>33.666666666666664</ele><time>2026-04-12T12:05:27.045Z</time></trkpt><trkpt lat="40.32904810841597" lon="18.151645804173025"><ele>34.33333333333333</ele><time>2026-04-12T12:05:28.045Z</time></trkpt><trkpt lat="40.32924311069034" lon="18.15175271290965"><ele>35.0</ele><time>2026-04-12T12:05:29.045Z</time></trkpt><trkpt lat="40.32944135990722" lon="18.151865867419616"><ele>35.0</ele><time>2026-04-12T12:05:30.045Z</time></trkpt><trkpt lat="40.32964009500906" lon="18.151976157527923"><ele>35.0</ele><time>2026-04-12T12:05:31.045Z</time></trkpt><trkpt lat="40.329845864098345" lon="18.15207415488038"><ele>35.0</ele><time>2026-04-12T12:05:32.045Z</time></trkpt><trkpt lat="40.33005332295395" lon="18.15216956171384"><ele>35.0</ele><time>2026-04-12T12:05:33.045Z</time></trkpt><trkpt lat="40.330258533001434" lon="18.152271206622014"><ele>35.0</ele><time>2026-04-12T12:05:34.045Z</time></trkpt><trkpt lat="40.330465432365294" lon="18.1523771958105"><ele>35.0</ele><time>2026-04-12T12:05:35.045Z</time></trkpt><trkpt lat="40.33067926787436" lon="18.152480258448115"><ele>37.5</ele><time>2026-04-12T12:05:36.045Z</time></trkpt><trkpt lat="40.33088746213625" lon="18.15258884285222"><ele>40.0</ele><time>2026-04-12T12:05:37.045Z</time></trkpt><trkpt lat="40.33130176618363" lon="18.152813798764353"><ele>41.0</ele><time>2026-04-12T12:05:39.045Z</time></trkpt><trkpt lat="40.331493213209896" lon="18.152912836069017"><ele>42.0</ele><time>2026-04-12T12:05:40.045Z</time></trkpt><trkpt lat="40.33167014866289" lon="18.152998972109753"><ele>43.0</ele><time>2026-04-12T12:05:41.046Z</time></trkpt><trkpt lat="40.33184598473966" lon="18.153097301974125"><ele>43.0</ele><time>2026-04-12T12:05:42.046Z</time></trkpt><trkpt lat="40.33202028376523" lon="18.153197964528484"><ele>43.0</ele><time>2026-04-12T12:05:43.046Z</time></trkpt><trkpt lat="40.33219599133151" lon="18.153297020724246"><ele>43.0</ele><time>2026-04-12T12:05:44.046Z</time></trkpt><trkpt lat="40.33236977778447" lon="18.1533922997395"><ele>44.333333333333336</ele><time>2026-04-12T12:05:45.046Z</time></trkpt><trkpt lat="40.33254631260358" lon="18.153487011169283"><ele>45.666666666666664</ele><time>2026-04-12T12:05:46.046Z</time></trkpt><trkpt lat="40.33272451154503" lon="18.153576064900538"><ele>47.0</ele><time>2026-04-12T12:05:47.046Z</time></trkpt><trkpt lat="40.33290519899224" lon="18.153670315594418"><ele>47.0</ele><time>2026-04-12T12:05:48.046Z</time></trkpt><trkpt lat="40.333084554900225" lon="18.153773237297646"><ele>47.0</ele><time>2026-04-12T12:05:49.046Z</time></trkpt><trkpt lat="40.333256733400205" lon="18.153866182724705"><ele>47.0</ele><time>2026-04-12T12:05:50.046Z</time></trkpt><trkpt lat="40.33343415161949" lon="18.153957276019984"><ele>47.33333333333333</ele><time>2026-04-12T12:05:51.046Z</time></trkpt><trkpt lat="40.33360907197963" lon="18.154053677073744"><ele>47.666666666666664</ele><time>2026-04-12T12:05:52.046Z</time></trkpt><trkpt lat="40.33378337572203" lon="18.15415133331539"><ele>48.0</ele><time>2026-04-12T12:05:53.046Z</time></trkpt><trkpt lat="40.33395914626044" lon="18.154251705955364"><ele>48.0</ele><time>2026-04-12T12:05:54.046Z</time></trkpt><trkpt lat="40.33413925365997" lon="18.154346456424925"><ele>48.0</ele><time>2026-04-12T12:05:55.046Z</time></trkpt><trkpt lat="40.334318181011106" lon="18.15444104676196"><ele>48.0</ele><time>2026-04-12T12:05:56.046Z</time></trkpt><trkpt lat="40.334498135754345" lon="18.154532643878756"><ele>48.0</ele><time>2026-04-12T12:05:57.046Z</time></trkpt><trkpt lat="40.33467337297965" lon="18.154623020935347"><ele>48.0</ele><time>2026-04-12T12:05:58.046Z</time></trkpt><trkpt lat="40.33501818676222" lon="18.15481702860036"><ele>48.33333333333333</ele><time>2026-04-12T12:06:00.046Z</time></trkpt><trkpt lat="40.33519443668198" lon="18.15491135231874"><ele>48.666666666666664</ele><time>2026-04-12T12:06:01.046Z</time></trkpt><trkpt lat="40.33537225059813" lon="18.15500321778332"><ele>49.0</ele><time>2026-04-12T12:06:02.046Z</time></trkpt><trkpt lat="40.335539880564696" lon="18.155098010847784"><ele>49.33333333333333</ele><time>2026-04-12T12:06:03.046Z</time></trkpt><trkpt lat="40.33570134312002" lon="18.155176111037974"><ele>49.66666666666667</ele><time>2026-04-12T12:06:04.046Z</time></trkpt><trkpt lat="40.335853910468344" lon="18.155254196321028"><ele>50.0</ele><time>2026-04-12T12:06:05.046Z</time></trkpt><trkpt lat="40.335992532709795" lon="18.1553360815937"><ele>50.0</ele><time>2026-04-12T12:06:06.046Z</time></trkpt><trkpt lat="40.33613031340449" lon="18.155415440941805"><ele>50.0</ele><time>2026-04-12T12:06:07.046Z</time></trkpt><trkpt lat="40.33626182123866" lon="18.155484913988737"><ele>50.0</ele><time>2026-04-12T12:06:08.046Z</time></trkpt><trkpt lat="40.336389409575624" lon="18.155546183171456"><ele>50.0</ele><time>2026-04-12T12:06:09.045Z</time></trkpt><trkpt lat="40.33651822395745" lon="18.15561517761155"><ele>49.0</ele><time>2026-04-12T12:06:10.046Z</time></trkpt><trkpt lat="40.3366431534036" lon="18.155686113780646"><ele>48.0</ele><time>2026-04-12T12:06:11.046Z</time></trkpt><trkpt lat="40.336766164907466" lon="18.155753338845802"><ele>47.0</ele><time>2026-04-12T12:06:12.046Z</time></trkpt><trkpt lat="40.33688555542703" lon="18.15581676539724"><ele>46.0</ele><time>2026-04-12T12:06:13.046Z</time></trkpt><trkpt lat="40.336994261545236" lon="18.15587843015603"><ele>46.0</ele><time>2026-04-12T12:06:14.046Z</time></trkpt><trkpt lat="40.3370807353953" lon="18.15592096427232"><ele>46.0</ele><time>2026-04-12T12:06:15.046Z</time></trkpt><trkpt lat="40.337148512758354" lon="18.15595512364791"><ele>46.0</ele><time>2026-04-12T12:06:16.046Z</time></trkpt><trkpt lat="40.33722506340371" lon="18.155998405994126"><ele>46.0</ele><time>2026-04-12T12:06:17.046Z</time></trkpt><trkpt lat="40.33731221690737" lon="18.156050711658295"><ele>46.0</ele><time>2026-04-12T12:06:18.046Z</time></trkpt><trkpt lat="40.33741958955142" lon="18.15610127027474"><ele>45.66666666666667</ele><time>2026-04-12T12:06:19.046Z</time></trkpt><trkpt lat="40.33765607177859" lon="18.1562302054533"><ele>45.333333333333336</ele><time>2026-04-12T12:06:21.046Z</time></trkpt><trkpt lat="40.337789425230824" lon="18.156306411415894"><ele>45.0</ele><time>2026-04-12T12:06:22.046Z</time></trkpt><trkpt lat="40.3379446673426" lon="18.156384617735412"><ele>44.666666666666664</ele><time>2026-04-12T12:06:23.046Z</time></trkpt><trkpt lat="40.33810846137511" lon="18.156469097645317"><ele>44.33333333333333</ele><time>2026-04-12T12:06:24.046Z</time></trkpt><trkpt lat="40.3382795684801" lon="18.15656236584445"><ele>44.0</ele><time>2026-04-12T12:06:25.046Z</time></trkpt><trkpt lat="40.33842992773608" lon="18.15665234865977"><ele>44.0</ele><time>2026-04-12T12:06:26.046Z</time></trkpt><trkpt lat="40.33857191939582" lon="18.15671752912269"><ele>44.0</ele><time>2026-04-12T12:06:27.046Z</time></trkpt><trkpt lat="40.33869781917825" lon="18.156781225494335"><ele>44.0</ele><time>2026-04-12T12:06:28.046Z</time></trkpt><trkpt lat="40.33880718140777" lon="18.15684920986858"><ele>44.0</ele><time>2026-04-12T12:06:29.046Z</time></trkpt><trkpt lat="40.33891269225762" lon="18.156904133373317"><ele>44.0</ele><time>2026-04-12T12:06:30.046Z</time></trkpt><trkpt lat="40.339005458301095" lon="18.156956606203103"><ele>44.0</ele><time>2026-04-12T12:06:31.046Z</time></trkpt><trkpt lat="40.33908701182357" lon="18.157006218137244"><ele>44.0</ele><time>2026-04-12T12:06:32.046Z</time></trkpt><trkpt lat="40.33915597152364" lon="18.15704636045936"><ele>44.0</ele><time>2026-04-12T12:06:33.046Z</time></trkpt><trkpt lat="40.33921884365265" lon="18.157080686380525"><ele>44.0</ele><time>2026-04-12T12:06:34.046Z</time></trkpt><trkpt lat="40.339307238593236" lon="18.157131938074635"><ele>44.0</ele><time>2026-04-12T12:06:36.046Z</time></trkpt><trkpt lat="40.33938808523174" lon="18.157177588259017"><ele>44.0</ele><time>2026-04-12T12:06:38.046Z</time></trkpt><trkpt lat="40.33947321804673" lon="18.157213470908886"><ele>44.0</ele><time>2026-04-12T12:06:40.046Z</time></trkpt><trkpt lat="40.339620137303754" lon="18.157292238176566"><ele>44.0</ele><time>2026-04-12T12:06:42.046Z</time></trkpt><trkpt lat="40.339740379744725" lon="18.157349678208533"><ele>44.0</ele><time>2026-04-12T12:06:43.046Z</time></trkpt><trkpt lat="40.339881822894604" lon="18.157415894417273"><ele>44.33333333333333</ele><time>2026-04-12T12:06:44.046Z</time></trkpt><trkpt lat="40.34004640545764" lon="18.1575015897636"><ele>44.666666666666664</ele><time>2026-04-12T12:06:45.046Z</time></trkpt><trkpt lat="40.34021465138942" lon="18.1575925532141"><ele>45.0</ele><time>2026-04-12T12:06:46.046Z</time></trkpt><trkpt lat="40.340368409492605" lon="18.157672233445815"><ele>45.0</ele><time>2026-04-12T12:06:47.046Z</time></trkpt><trkpt lat="40.340504630651225" lon="18.157746573641777"><ele>45.0</ele><time>2026-04-12T12:06:48.046Z</time></trkpt><trkpt lat="40.34063405203481" lon="18.157816357220483"><ele>45.0</ele><time>2026-04-12T12:06:49.046Z</time></trkpt><trkpt lat="40.34075790565668" lon="18.15788307485789"><ele>45.0</ele><time>2026-04-12T12:06:50.046Z</time></trkpt><trkpt lat="40.3408759179755" lon="18.157945863798286"><ele>45.0</ele><time>2026-04-12T12:06:51.046Z</time></trkpt><trkpt lat="40.34099874356882" lon="18.15801376985463"><ele>45.0</ele><time>2026-04-12T12:06:52.046Z</time></trkpt><trkpt lat="40.341129257096085" lon="18.158085004608086"><ele>45.0</ele><time>2026-04-12T12:06:53.046Z</time></trkpt><trkpt lat="40.34126223885592" lon="18.158161404698042"><ele>45.0</ele><time>2026-04-12T12:06:54.046Z</time></trkpt><trkpt lat="40.341386512292175" lon="18.158232354029998"><ele>45.0</ele><time>2026-04-12T12:06:55.047Z</time></trkpt><trkpt lat="40.341502611409986" lon="18.15829108336144"><ele>45.0</ele><time>2026-04-12T12:06:56.047Z</time></trkpt><trkpt lat="40.34160652048985" lon="18.158352041199183"><ele>45.0</ele><time>2026-04-12T12:06:57.047Z</time></trkpt><trkpt lat="40.34169397961502" lon="18.15840044196518"><ele>45.0</ele><time>2026-04-12T12:06:58.047Z</time></trkpt><trkpt lat="40.341768805876995" lon="18.158439971641226"><ele>45.0</ele><time>2026-04-12T12:06:59.047Z</time></trkpt><trkpt lat="40.34184866824867" lon="18.158481350153053"><ele>45.0</ele><time>2026-04-12T12:07:00.047Z</time></trkpt><trkpt lat="40.34201866908512" lon="18.1585650399531"><ele>45.0</ele><time>2026-04-12T12:07:02.047Z</time></trkpt><trkpt lat="40.34212269170781" lon="18.158618991789158"><ele>45.0</ele><time>2026-04-12T12:07:03.047Z</time></trkpt><trkpt lat="40.34223151852231" lon="18.158677786798613"><ele>45.0</ele><time>2026-04-12T12:07:04.047Z</time></trkpt><trkpt lat="40.342334776857534" lon="18.158735466441854"><ele>45.2</ele><time>2026-04-12T12:07:05.047Z</time></trkpt><trkpt lat="40.34242884225163" lon="18.15878955099982"><ele>45.4</ele><time>2026-04-12T12:07:06.047Z</time></trkpt><trkpt lat="40.3425094233549" lon="18.158835548985927"><ele>45.599999999999994</ele><time>2026-04-12T12:07:07.047Z</time></trkpt><trkpt lat="40.342579858112536" lon="18.158874713545107"><ele>45.8</ele><time>2026-04-12T12:07:08.047Z</time></trkpt><trkpt lat="40.34264160091817" lon="18.1589035668388"><ele>46.0</ele><time>2026-04-12T12:07:09.047Z</time></trkpt><trkpt lat="40.34275232240653" lon="18.158965306655546"><ele>46.0</ele><time>2026-04-12T12:07:11.047Z</time></trkpt><trkpt lat="40.342864078090045" lon="18.15902680777132"><ele>46.0</ele><time>2026-04-12T12:07:13.047Z</time></trkpt><trkpt lat="40.34298044200339" lon="18.1590916039689"><ele>46.0</ele><time>2026-04-12T12:07:15.047Z</time></trkpt><trkpt lat="40.34304534723858" lon="18.159121830024596"><ele>46.0</ele><time>2026-04-12T12:07:16.047Z</time></trkpt><trkpt lat="40.34311319845053" lon="18.159151539369674"><ele>46.0</ele><time>2026-04-12T12:07:17.047Z</time></trkpt><trkpt lat="40.34318607649816" lon="18.159185196325044"><ele>46.5</ele><time>2026-04-12T12:07:18.047Z</time></trkpt><trkpt lat="40.343266453839995" lon="18.159225838864444"><ele>47.0</ele><time>2026-04-12T12:07:19.047Z</time></trkpt><trkpt lat="40.34334999927727" lon="18.159271581809104"><ele>47.5</ele><time>2026-04-12T12:07:20.047Z</time></trkpt><trkpt lat="40.34343644400234" lon="18.159318992815574"><ele>48.0</ele><time>2026-04-12T12:07:21.047Z</time></trkpt><trkpt lat="40.343636406037554" lon="18.159421792696854"><ele>48.0</ele><time>2026-04-12T12:07:23.047Z</time></trkpt><trkpt lat="40.34374402062562" lon="18.15949059752384"><ele>48.0</ele><time>2026-04-12T12:07:24.047Z</time></trkpt><trkpt lat="40.34385384998091" lon="18.15955224558219"><ele>48.0</ele><time>2026-04-12T12:07:25.047Z</time></trkpt><trkpt lat="40.343959755364736" lon="18.159613402220554"><ele>48.0</ele><time>2026-04-12T12:07:26.047Z</time></trkpt><trkpt lat="40.34407550885" lon="18.1596719895399"><ele>48.0</ele><time>2026-04-12T12:07:27.047Z</time></trkpt><trkpt lat="40.34418756963546" lon="18.159741005683916"><ele>48.0</ele><time>2026-04-12T12:07:28.047Z</time></trkpt><trkpt lat="40.34430226535801" lon="18.159805972766435"><ele>48.0</ele><time>2026-04-12T12:07:29.047Z</time></trkpt><trkpt lat="40.34441419518983" lon="18.15986489394089"><ele>48.0</ele><time>2026-04-12T12:07:30.047Z</time></trkpt><trkpt lat="40.34452181222759" lon="18.159916509240283"><ele>48.0</ele><time>2026-04-12T12:07:31.047Z</time></trkpt><trkpt lat="40.34462692697076" lon="18.15996003700762"><ele>48.0</ele><time>2026-04-12T12:07:32.047Z</time></trkpt><trkpt lat="40.344730120679564" lon="18.16000993167404"><ele>48.0</ele><time>2026-04-12T12:07:33.047Z</time></trkpt><trkpt lat="40.34483257942758" lon="18.160068225620112"><ele>48.0</ele><time>2026-04-12T12:07:34.047Z</time></trkpt><trkpt lat="40.34494795862263" lon="18.160125959845672"><ele>48.5</ele><time>2026-04-12T12:07:35.047Z</time></trkpt><trkpt lat="40.34505665531956" lon="18.16018469310107"><ele>49.0</ele><time>2026-04-12T12:07:36.047Z</time></trkpt><trkpt lat="40.34516126391839" lon="18.160241371964677"><ele>49.5</ele><time>2026-04-12T12:07:37.047Z</time></trkpt><trkpt lat="40.345267285735645" lon="18.16030050099928"><ele>50.0</ele><time>2026-04-12T12:07:38.047Z</time></trkpt><trkpt lat="40.345377345446494" lon="18.160358527812612"><ele>50.0</ele><time>2026-04-12T12:07:39.047Z</time></trkpt><trkpt lat="40.345490236264084" lon="18.16041444769885"><ele>50.0</ele><time>2026-04-12T12:07:40.047Z</time></trkpt><trkpt lat="40.34561005211475" lon="18.16047120259217"><ele>50.0</ele><time>2026-04-12T12:07:41.047Z</time></trkpt><trkpt lat="40.34572358203501" lon="18.160538495567533"><ele>50.0</ele><time>2026-04-12T12:07:42.047Z</time></trkpt><trkpt lat="40.34591711008859" lon="18.16066176429075"><ele>50.333333333333336</ele><time>2026-04-12T12:07:44.047Z</time></trkpt><trkpt lat="40.346000280906075" lon="18.160705391095952"><ele>50.66666666666667</ele><time>2026-04-12T12:07:45.047Z</time></trkpt><trkpt lat="40.346084136683075" lon="18.160753505878322"><ele>51.0</ele><time>2026-04-12T12:07:46.047Z</time></trkpt><trkpt lat="40.34615984260439" lon="18.160801758843263"><ele>51.33333333333333</ele><time>2026-04-12T12:07:47.047Z</time></trkpt><trkpt lat="40.34623827622154" lon="18.160840016430537"><ele>51.666666666666664</ele><time>2026-04-12T12:07:48.048Z</time></trkpt><trkpt lat="40.34630043902391" lon="18.16087518462534"><ele>52.0</ele><time>2026-04-12T12:07:49.048Z</time></trkpt><trkpt lat="40.346399619820474" lon="18.160945080699307"><ele>52.2</ele><time>2026-04-12T12:07:51.048Z</time></trkpt><trkpt lat="40.34644844204137" lon="18.16100052168843"><ele>52.400000000000006</ele><time>2026-04-12T12:07:52.048Z</time></trkpt><trkpt lat="40.34655410520497" lon="18.16108321887011"><ele>52.599999999999994</ele><time>2026-04-12T12:07:54.048Z</time></trkpt><trkpt lat="40.34666836414556" lon="18.161165421470955"><ele>52.8</ele><time>2026-04-12T12:07:56.048Z</time></trkpt><trkpt lat="40.34673041407792" lon="18.16119802913622"><ele>53.0</ele><time>2026-04-12T12:07:57.048Z</time></trkpt><trkpt lat="40.34681195129261" lon="18.16126109782548"><ele>53.0</ele><time>2026-04-12T12:07:58.048Z</time></trkpt><trkpt lat="40.34689629418592" lon="18.16130716338696"><ele>53.0</ele><time>2026-04-12T12:07:59.048Z</time></trkpt><trkpt lat="40.34696830378545" lon="18.161348687878576"><ele>53.0</ele><time>2026-04-12T12:08:00.048Z</time></trkpt><trkpt lat="40.34703386287807" lon="18.161378603624513"><ele>53.0</ele><time>2026-04-12T12:08:01.048Z</time></trkpt><trkpt lat="40.34714081759175" lon="18.161384578284657"><ele>53.0</ele><time>2026-04-12T12:08:03.048Z</time></trkpt><trkpt lat="40.34724885751323" lon="18.161133662255992"><ele>52.4</ele><time>2026-04-12T12:08:06.048Z</time></trkpt><trkpt lat="40.347304193200394" lon="18.16100792405684"><ele>51.8</ele><time>2026-04-12T12:08:07.048Z</time></trkpt><trkpt lat="40.347369582161626" lon="18.16087863885577"><ele>51.2</ele><time>2026-04-12T12:08:08.048Z</time></trkpt><trkpt lat="40.34744245369501" lon="18.160768454559076"><ele>50.6</ele><time>2026-04-12T12:08:09.048Z</time></trkpt><trkpt lat="40.347529761406165" lon="18.160685233651105"><ele>50.0</ele><time>2026-04-12T12:08:10.048Z</time></trkpt><trkpt lat="40.347632144391035" lon="18.160642352257504"><ele>50.0</ele><time>2026-04-12T12:08:11.048Z</time></trkpt><trkpt lat="40.347732945098905" lon="18.1606224258038"><ele>50.0</ele><time>2026-04-12T12:08:12.048Z</time></trkpt><trkpt lat="40.34784450668598" lon="18.160656313810485"><ele>50.0</ele><time>2026-04-12T12:08:13.047Z</time></trkpt><trkpt lat="40.34794646581993" lon="18.16071524274398"><ele>50.0</ele><time>2026-04-12T12:08:14.047Z</time></trkpt><trkpt lat="40.348051337377996" lon="18.160823254872838"><ele>50.0</ele><time>2026-04-12T12:08:15.047Z</time></trkpt><trkpt lat="40.34816242740154" lon="18.160942142454665"><ele>50.0</ele><time>2026-04-12T12:08:16.047Z</time></trkpt><trkpt lat="40.34828475359469" lon="18.16105444604799"><ele>50.0</ele><time>2026-04-12T12:08:17.047Z</time></trkpt><trkpt lat="40.34840063651051" lon="18.16116704386198"><ele>50.0</ele><time>2026-04-12T12:08:18.048Z</time></trkpt><trkpt lat="40.34852553570729" lon="18.161286853930893"><ele>50.0</ele><time>2026-04-12T12:08:19.047Z</time></trkpt><trkpt lat="40.34860809808599" lon="18.16139376498887"><ele>50.0</ele><time>2026-04-12T12:08:20.047Z</time></trkpt><trkpt lat="40.348666612704974" lon="18.16149749360558"><ele>50.0</ele><time>2026-04-12T12:08:21.048Z</time></trkpt><trkpt lat="40.34869987369274" lon="18.1616018264099"><ele>50.0</ele><time>2026-04-12T12:08:22.047Z</time></trkpt><trkpt lat="40.34872470240422" lon="18.16171040000578"><ele>50.0</ele><time>2026-04-12T12:08:23.048Z</time></trkpt><trkpt lat="40.34874324440877" lon="18.161825912714722"><ele>50.2</ele><time>2026-04-12T12:08:24.047Z</time></trkpt><trkpt lat="40.34874175565785" lon="18.162058991211484"><ele>50.4</ele><time>2026-04-12T12:08:26.047Z</time></trkpt><trkpt lat="40.34872608241296" lon="18.162157390780482"><ele>50.599999999999994</ele><time>2026-04-12T12:08:27.047Z</time></trkpt><trkpt lat="40.34871337946771" lon="18.162268045931864"><ele>50.8</ele><time>2026-04-12T12:08:29.047Z</time></trkpt><trkpt lat="40.34878889276382" lon="18.16234891718576"><ele>51.0</ele><time>2026-04-12T12:08:31.048Z</time></trkpt><trkpt lat="40.348864555075394" lon="18.162400310512"><ele>51.5</ele><time>2026-04-12T12:08:32.048Z</time></trkpt><trkpt lat="40.34896275126846" lon="18.16245869542877"><ele>52.0</ele><time>2026-04-12T12:08:33.048Z</time></trkpt><trkpt lat="40.349073682144216" lon="18.162520734291483"><ele>52.5</ele><time>2026-04-12T12:08:34.048Z</time></trkpt><trkpt lat="40.34918437002649" lon="18.16258766138717"><ele>53.0</ele><time>2026-04-12T12:08:35.048Z</time></trkpt><trkpt lat="40.34928972359232" lon="18.16263244943398"><ele>53.0</ele><time>2026-04-12T12:08:36.048Z</time></trkpt><trkpt lat="40.349378781318435" lon="18.16269474537124"><ele>53.0</ele><time>2026-04-12T12:08:37.048Z</time></trkpt><trkpt lat="40.349463048766836" lon="18.162741160495855"><ele>53.0</ele><time>2026-04-12T12:08:38.048Z</time></trkpt><trkpt lat="40.349528280186405" lon="18.16279167611322"><ele>53.0</ele><time>2026-04-12T12:08:39.048Z</time></trkpt><trkpt lat="40.34960251669027" lon="18.162870412432085"><ele>53.0</ele><time>2026-04-12T12:08:41.048Z</time></trkpt><trkpt lat="40.34959173151311" lon="18.162989258863114"><ele>53.0</ele><time>2026-04-12T12:08:44.048Z</time></trkpt><trkpt lat="40.34949225869953" lon="18.16312771805381"><ele>53.0</ele><time>2026-04-12T12:08:46.048Z</time></trkpt><trkpt lat="40.34938074181339" lon="18.163323895391922"><ele>53.0</ele><time>2026-04-12T12:08:48.048Z</time></trkpt><trkpt lat="40.34931499775793" lon="18.16342154738139"><ele>53.0</ele><time>2026-04-12T12:08:49.048Z</time></trkpt><trkpt lat="40.349257725484264" lon="18.163543641927777"><ele>53.25</ele><time>2026-04-12T12:08:50.048Z</time></trkpt><trkpt lat="40.34917160133425" lon="18.163687635639928"><ele>53.5</ele><time>2026-04-12T12:08:51.048Z</time></trkpt><trkpt lat="40.349096834021786" lon="18.163841822026107"><ele>53.75</ele><time>2026-04-12T12:08:52.048Z</time></trkpt><trkpt lat="40.34902904006731" lon="18.163967760239245"><ele>54.0</ele><time>2026-04-12T12:08:53.048Z</time></trkpt><trkpt lat="40.348964816292465" lon="18.164056071154008"><ele>54.0</ele><time>2026-04-12T12:08:54.048Z</time></trkpt><trkpt lat="40.34890540134567" lon="18.1641502521679"><ele>54.0</ele><time>2026-04-12T12:08:55.048Z</time></trkpt><trkpt lat="40.348852554465196" lon="18.164244896268574"><ele>54.0</ele><time>2026-04-12T12:08:56.048Z</time></trkpt><trkpt lat="40.34880107002158" lon="18.164311407759634"><ele>54.0</ele><time>2026-04-12T12:08:57.048Z</time></trkpt><trkpt lat="40.34873776114956" lon="18.16439738696322"><ele>54.0</ele><time>2026-04-12T12:08:59.048Z</time></trkpt><trkpt lat="40.348682706657705" lon="18.164481696068012"><ele>54.0</ele><time>2026-04-12T12:09:02.048Z</time></trkpt><trkpt lat="40.34862288731862" lon="18.164598383202293"><ele>54.0</ele><time>2026-04-12T12:09:04.048Z</time></trkpt><trkpt lat="40.3485802957087" lon="18.164687160189317"><ele>54.0</ele><time>2026-04-12T12:09:05.048Z</time></trkpt><trkpt lat="40.34851304760034" lon="18.164800542474172"><ele>54.0</ele><time>2026-04-12T12:09:06.048Z</time></trkpt><trkpt lat="40.34835364008513" lon="18.16509836814171"><ele>54.0</ele><time>2026-04-12T12:09:08.048Z</time></trkpt><trkpt lat="40.34829733193932" lon="18.16519278196814"><ele>54.00000000000001</ele><time>2026-04-12T12:09:09.048Z</time></trkpt><trkpt lat="40.348229150712584" lon="18.165275433227656"><ele>54.00000000000001</ele><time>2026-04-12T12:09:11.048Z</time></trkpt><trkpt lat="40.34816071375225" lon="18.16527825306089"><ele>54.0</ele><time>2026-04-12T12:09:13.048Z</time></trkpt><trkpt lat="40.34808601431383" lon="18.16520938579191"><ele>54.0</ele><time>2026-04-12T12:09:15.048Z</time></trkpt><trkpt lat="40.347991391462585" lon="18.165106078251085"><ele>54.0</ele><time>2026-04-12T12:09:17.048Z</time></trkpt><trkpt lat="40.34790973629285" lon="18.165031675621847"><ele>54.00000000000001</ele><time>2026-04-12T12:09:18.048Z</time></trkpt><trkpt lat="40.34784631740166" lon="18.164962370187563"><ele>54.00000000000001</ele><time>2026-04-12T12:09:19.048Z</time></trkpt><trkpt lat="40.34778675861665" lon="18.164899019866827"><ele>54.0</ele><time>2026-04-12T12:09:20.048Z</time></trkpt><trkpt lat="40.34768027556349" lon="18.16480729144759"><ele>54.0</ele><time>2026-04-12T12:09:22.048Z</time></trkpt><trkpt lat="40.347603108696035" lon="18.164729092911642"><ele>53.5</ele><time>2026-04-12T12:09:24.048Z</time></trkpt><trkpt lat="40.34759316745673" lon="18.16459931187346"><ele>53.0</ele><time>2026-04-12T12:09:27.049Z</time></trkpt><trkpt lat="40.34770946635535" lon="18.164368379674787"><ele>52.5</ele><time>2026-04-12T12:09:29.049Z</time></trkpt><trkpt lat="40.34778046572366" lon="18.164211740279306"><ele>52.0</ele><time>2026-04-12T12:09:30.049Z</time></trkpt><trkpt lat="40.3478593805099" lon="18.16407755006493"><ele>51.666666666666664</ele><time>2026-04-12T12:09:31.049Z</time></trkpt><trkpt lat="40.34791632202446" lon="18.163980640292458"><ele>51.33333333333333</ele><time>2026-04-12T12:09:32.049Z</time></trkpt><trkpt lat="40.347960049924836" lon="18.16390431781195"><ele>51.0</ele><time>2026-04-12T12:09:33.049Z</time></trkpt><trkpt lat="40.34801689945248" lon="18.163814897892102"><ele>50.66666666666667</ele><time>2026-04-12T12:09:35.049Z</time></trkpt><trkpt lat="40.348080263928985" lon="18.163814376386295"><ele>50.333333333333336</ele><time>2026-04-12T12:09:37.049Z</time></trkpt><trkpt lat="40.34814410331077" lon="18.16390209118524"><ele>50.0</ele><time>2026-04-12T12:09:38.049Z</time></trkpt><trkpt lat="40.3482219958344" lon="18.16401667142543"><ele>50.833333333333336</ele><time>2026-04-12T12:09:39.049Z</time></trkpt><trkpt lat="40.34831176476421" lon="18.164105046017017"><ele>51.66666666666667</ele><time>2026-04-12T12:09:40.049Z</time></trkpt><trkpt lat="40.34837235562474" lon="18.16415075511493"><ele>52.5</ele><time>2026-04-12T12:09:41.049Z</time></trkpt><trkpt lat="40.34844144585496" lon="18.164168340729827"><ele>53.33333333333333</ele><time>2026-04-12T12:09:44.049Z</time></trkpt><trkpt lat="40.348500198098655" lon="18.16408650127216"><ele>54.166666666666664</ele><time>2026-04-12T12:09:46.049Z</time></trkpt><trkpt lat="40.34854606894167" lon="18.16401301437749"><ele>55.0</ele><time>2026-04-12T12:09:47.049Z</time></trkpt><trkpt lat="40.34865781628909" lon="18.163802854600586"><ele>55.0</ele><time>2026-04-12T12:09:50.049Z</time></trkpt><trkpt lat="40.34872381761848" lon="18.163721424393"><ele>55.0</ele><time>2026-04-12T12:09:52.049Z</time></trkpt><trkpt lat="40.3487891518986" lon="18.163648681824217"><ele>55.0</ele><time>2026-04-12T12:09:56.049Z</time></trkpt><trkpt lat="40.34874165518904" lon="18.16376355936902"><ele>55.0</ele><time>2026-04-12T12:19:24.059Z</time></trkpt><trkpt lat="40.34866056282532" lon="18.163859164467745"><ele>55.0</ele><time>2026-04-12T12:19:26.059Z</time></trkpt><trkpt lat="40.34861199531571" lon="18.163932891348097"><ele>55.0</ele><time>2026-04-12T12:19:27.059Z</time></trkpt><trkpt lat="40.348486055327314" lon="18.164104156810694"><ele>55.0</ele><time>2026-04-12T12:19:31.059Z</time></trkpt><trkpt lat="40.348440797525356" lon="18.164175540700086"><ele>55.0</ele><time>2026-04-12T12:19:36.059Z</time></trkpt><trkpt lat="40.348523132900986" lon="18.164259822319615"><ele>55.0</ele><time>2026-04-12T12:19:39.059Z</time></trkpt><trkpt lat="40.348605025557866" lon="18.164362256369913"><ele>55.0</ele><time>2026-04-12T12:19:41.059Z</time></trkpt><trkpt lat="40.348663699286085" lon="18.16443635650083"><ele>55.0</ele><time>2026-04-12T12:19:43.06Z</time></trkpt><trkpt lat="40.34870190751966" lon="18.16451231855698"><ele>55.0</ele><time>2026-04-12T12:19:46.06Z</time></trkpt><trkpt lat="40.3487821256772" lon="18.164599035109617"><ele>55.0</ele><time>2026-04-12T12:19:48.06Z</time></trkpt><trkpt lat="40.34889623713025" lon="18.164733174779315"><ele>55.0</ele><time>2026-04-12T12:19:50.06Z</time></trkpt><trkpt lat="40.34896117005847" lon="18.164820087592677"><ele>54.2</ele><time>2026-04-12T12:19:51.06Z</time></trkpt><trkpt lat="40.34904741538606" lon="18.164916172997096"><ele>53.4</ele><time>2026-04-12T12:19:52.06Z</time></trkpt><trkpt lat="40.34912863779789" lon="18.16500833585014"><ele>52.599999999999994</ele><time>2026-04-12T12:19:53.06Z</time></trkpt><trkpt lat="40.34918835545727" lon="18.165090481770136"><ele>51.8</ele><time>2026-04-12T12:19:54.06Z</time></trkpt><trkpt lat="40.34924672469934" lon="18.165158647193874"><ele>51.0</ele><time>2026-04-12T12:19:55.06Z</time></trkpt><trkpt lat="40.34930131765135" lon="18.165215814269253"><ele>51.0</ele><time>2026-04-12T12:19:56.06Z</time></trkpt><trkpt lat="40.34935394949056" lon="18.16527473375112"><ele>51.0</ele><time>2026-04-12T12:19:57.06Z</time></trkpt><trkpt lat="40.34940496287788" lon="18.165325600515214"><ele>51.0</ele><time>2026-04-12T12:19:58.06Z</time></trkpt><trkpt lat="40.349458876710955" lon="18.165394358835453"><ele>51.0</ele><time>2026-04-12T12:20:00.06Z</time></trkpt><trkpt lat="40.34953134584727" lon="18.165398065600595"><ele>51.0</ele><time>2026-04-12T12:20:04.06Z</time></trkpt><trkpt lat="40.34962285056499" lon="18.16531336082191"><ele>51.0</ele><time>2026-04-12T12:20:06.06Z</time></trkpt><trkpt lat="40.34966917948353" lon="18.16523520418546"><ele>51.199999999999996</ele><time>2026-04-12T12:20:07.06Z</time></trkpt><trkpt lat="40.34971526167905" lon="18.165152672888397"><ele>51.4</ele><time>2026-04-12T12:20:08.06Z</time></trkpt><trkpt lat="40.34976103681426" lon="18.165066162031216"><ele>51.6</ele><time>2026-04-12T12:20:09.06Z</time></trkpt><trkpt lat="40.349877799898294" lon="18.16486937223015"><ele>51.8</ele><time>2026-04-12T12:20:11.06Z</time></trkpt><trkpt lat="40.34993854507527" lon="18.16476781178194"><ele>52.0</ele><time>2026-04-12T12:20:12.06Z</time></trkpt><trkpt lat="40.35000060977554" lon="18.164662512004497"><ele>52.8</ele><time>2026-04-12T12:20:13.06Z</time></trkpt><trkpt lat="40.350055416038586" lon="18.164549209773966"><ele>53.6</ele><time>2026-04-12T12:20:14.06Z</time></trkpt><trkpt lat="40.350121291308696" lon="18.164443787655262"><ele>54.39999999999999</ele><time>2026-04-12T12:20:15.06Z</time></trkpt><trkpt lat="40.35018264383999" lon="18.164329653383408"><ele>55.199999999999996</ele><time>2026-04-12T12:20:16.06Z</time></trkpt><trkpt lat="40.35024114862944" lon="18.164227435667264"><ele>56.0</ele><time>2026-04-12T12:20:17.06Z</time></trkpt><trkpt lat="40.35029491639268" lon="18.164129747714792"><ele>55.833333333333336</ele><time>2026-04-12T12:20:18.06Z</time></trkpt><trkpt lat="40.35034502212529" lon="18.164029390495003"><ele>55.66666666666667</ele><time>2026-04-12T12:20:19.06Z</time></trkpt><trkpt lat="40.350400996642406" lon="18.163938349670154"><ele>55.5</ele><time>2026-04-12T12:20:20.06Z</time></trkpt><trkpt lat="40.35045012669687" lon="18.163846422083402"><ele>55.33333333333333</ele><time>2026-04-12T12:20:21.06Z</time></trkpt><trkpt lat="40.35049959375962" lon="18.163756965255722"><ele>55.166666666666664</ele><time>2026-04-12T12:20:22.06Z</time></trkpt><trkpt lat="40.35054340102783" lon="18.163686282952412"><ele>55.0</ele><time>2026-04-12T12:20:23.06Z</time></trkpt><trkpt lat="40.350610171581" lon="18.163585792682426"><ele>54.75</ele><time>2026-04-12T12:20:25.06Z</time></trkpt><trkpt lat="40.35068465033256" lon="18.163550797083072"><ele>54.5</ele><time>2026-04-12T12:20:27.06Z</time></trkpt><trkpt lat="40.3507774514054" lon="18.16356572190832"><ele>54.25</ele><time>2026-04-12T12:20:29.06Z</time></trkpt><trkpt lat="40.35085783667673" lon="18.163628969935647"><ele>54.0</ele><time>2026-04-12T12:20:30.06Z</time></trkpt><trkpt lat="40.351027140424634" lon="18.16375706337397"><ele>54.0</ele><time>2026-04-12T12:20:32.06Z</time></trkpt><trkpt lat="40.351109009698014" lon="18.163814666341022"><ele>54.00000000000001</ele><time>2026-04-12T12:20:33.06Z</time></trkpt><trkpt lat="40.35119711491213" lon="18.163873537595414"><ele>54.00000000000001</ele><time>2026-04-12T12:20:34.06Z</time></trkpt><trkpt lat="40.35128570483027" lon="18.163940175028245"><ele>54.0</ele><time>2026-04-12T12:20:35.061Z</time></trkpt><trkpt lat="40.35137551707008" lon="18.163997245956207"><ele>54.0</ele><time>2026-04-12T12:20:36.061Z</time></trkpt><trkpt lat="40.35146871613144" lon="18.16405229810196"><ele>53.2</ele><time>2026-04-12T12:20:37.061Z</time></trkpt><trkpt lat="40.35156148343246" lon="18.164108009484462"><ele>52.400000000000006</ele><time>2026-04-12T12:20:38.061Z</time></trkpt><trkpt lat="40.3516583307077" lon="18.16416773659924"><ele>51.6</ele><time>2026-04-12T12:20:39.061Z</time></trkpt><trkpt lat="40.35174871502947" lon="18.1642251125951"><ele>50.8</ele><time>2026-04-12T12:20:40.061Z</time></trkpt><trkpt lat="40.35184017292118" lon="18.164280675597144"><ele>50.0</ele><time>2026-04-12T12:20:41.061Z</time></trkpt><trkpt lat="40.351931923496316" lon="18.164337747987517"><ele>50.0</ele><time>2026-04-12T12:20:42.061Z</time></trkpt><trkpt lat="40.35202355502848" lon="18.16439899480675"><ele>50.0</ele><time>2026-04-12T12:20:43.061Z</time></trkpt><trkpt lat="40.352116986758226" lon="18.16446171952727"><ele>50.0</ele><time>2026-04-12T12:20:44.061Z</time></trkpt><trkpt lat="40.35222191495275" lon="18.164522491756554"><ele>50.0</ele><time>2026-04-12T12:20:45.061Z</time></trkpt><trkpt lat="40.35233999604987" lon="18.164595861376952"><ele>50.0</ele><time>2026-04-12T12:20:46.061Z</time></trkpt><trkpt lat="40.35246449450145" lon="18.16466555518821"><ele>50.0</ele><time>2026-04-12T12:20:47.061Z</time></trkpt><trkpt lat="40.3525886721401" lon="18.164728205362426"><ele>50.0</ele><time>2026-04-12T12:20:48.061Z</time></trkpt><trkpt lat="40.35270986568086" lon="18.164784447382193"><ele>50.0</ele><time>2026-04-12T12:20:49.061Z</time></trkpt><trkpt lat="40.35281438101246" lon="18.164838355070213"><ele>50.25</ele><time>2026-04-12T12:20:50.061Z</time></trkpt><trkpt lat="40.35291036072858" lon="18.16491932973094"><ele>50.5</ele><time>2026-04-12T12:20:51.061Z</time></trkpt><trkpt lat="40.3531125661835" lon="18.16506027886867"><ele>50.75</ele><time>2026-04-12T12:20:53.061Z</time></trkpt><trkpt lat="40.353208046758915" lon="18.165118960056056"><ele>51.0</ele><time>2026-04-12T12:20:54.061Z</time></trkpt><trkpt lat="40.35329786811057" lon="18.165177698361294"><ele>51.0</ele><time>2026-04-12T12:20:55.061Z</time></trkpt><trkpt lat="40.35338719391711" lon="18.165231649903408"><ele>51.0</ele><time>2026-04-12T12:20:56.061Z</time></trkpt><trkpt lat="40.353471426225894" lon="18.165287284676516"><ele>51.0</ele><time>2026-04-12T12:20:57.062Z</time></trkpt><trkpt lat="40.35355264558664" lon="18.165344307989766"><ele>51.0</ele><time>2026-04-12T12:20:58.061Z</time></trkpt><trkpt lat="40.35363097789028" lon="18.165403069788237"><ele>51.0</ele><time>2026-04-12T12:20:59.061Z</time></trkpt><trkpt lat="40.35371077508833" lon="18.16545251516748"><ele>51.0</ele><time>2026-04-12T12:21:00.061Z</time></trkpt><trkpt lat="40.35379072133473" lon="18.1655097042591"><ele>51.0</ele><time>2026-04-12T12:21:01.061Z</time></trkpt><trkpt lat="40.353879974025105" lon="18.165574278498102"><ele>51.0</ele><time>2026-04-12T12:21:02.061Z</time></trkpt><trkpt lat="40.353966667641515" lon="18.165640375411627"><ele>51.0</ele><time>2026-04-12T12:21:03.061Z</time></trkpt><trkpt lat="40.35405464537255" lon="18.1656962060415"><ele>51.0</ele><time>2026-04-12T12:21:04.061Z</time></trkpt><trkpt lat="40.354140911989475" lon="18.16574641216995"><ele>50.599999999999994</ele><time>2026-04-12T12:21:05.061Z</time></trkpt><trkpt lat="40.35422747322514" lon="18.16579930907712"><ele>50.2</ele><time>2026-04-12T12:21:06.061Z</time></trkpt><trkpt lat="40.35431731796645" lon="18.165846025067466"><ele>49.8</ele><time>2026-04-12T12:21:07.061Z</time></trkpt><trkpt lat="40.35442056662519" lon="18.165904740807193"><ele>49.400000000000006</ele><time>2026-04-12T12:21:08.061Z</time></trkpt><trkpt lat="40.35451364152455" lon="18.16596698483117"><ele>49.0</ele><time>2026-04-12T12:21:09.061Z</time></trkpt><trkpt lat="40.354601115567974" lon="18.16603964549017"><ele>49.0</ele><time>2026-04-12T12:21:10.061Z</time></trkpt><trkpt lat="40.35469776562532" lon="18.166112167485235"><ele>49.0</ele><time>2026-04-12T12:21:11.061Z</time></trkpt><trkpt lat="40.354817490026576" lon="18.16614677318966"><ele>49.0</ele><time>2026-04-12T12:21:12.061Z</time></trkpt><trkpt lat="40.35501793946271" lon="18.1662827025833"><ele>49.0</ele><time>2026-04-12T12:21:14.061Z</time></trkpt><trkpt lat="40.3551112894246" lon="18.16634898243427"><ele>49.0</ele><time>2026-04-12T12:21:15.061Z</time></trkpt><trkpt lat="40.3552067667665" lon="18.166408216905776"><ele>49.0</ele><time>2026-04-12T12:21:16.061Z</time></trkpt><trkpt lat="40.35529618324166" lon="18.16645999189307"><ele>49.0</ele><time>2026-04-12T12:21:17.061Z</time></trkpt><trkpt lat="40.35537629993074" lon="18.166509125796843"><ele>49.0</ele><time>2026-04-12T12:21:18.061Z</time></trkpt><trkpt lat="40.35545948780578" lon="18.16655654593017"><ele>49.0</ele><time>2026-04-12T12:21:19.061Z</time></trkpt><trkpt lat="40.35555571602545" lon="18.166613144183923"><ele>49.0</ele><time>2026-04-12T12:21:20.061Z</time></trkpt><trkpt lat="40.35565938311832" lon="18.166675426478513"><ele>49.0</ele><time>2026-04-12T12:21:21.061Z</time></trkpt><trkpt lat="40.35575689807362" lon="18.166741051722155"><ele>49.0</ele><time>2026-04-12T12:21:22.061Z</time></trkpt><trkpt lat="40.35584711294337" lon="18.166794164247353"><ele>49.0</ele><time>2026-04-12T12:21:23.062Z</time></trkpt><trkpt lat="40.355934212945805" lon="18.166849650172917"><ele>49.0</ele><time>2026-04-12T12:21:24.062Z</time></trkpt><trkpt lat="40.35602150374925" lon="18.16690035704054"><ele>49.0</ele><time>2026-04-12T12:21:25.062Z</time></trkpt><trkpt lat="40.35611017269719" lon="18.166963128483864"><ele>49.0</ele><time>2026-04-12T12:21:26.062Z</time></trkpt><trkpt lat="40.35619871066536" lon="18.1670303009872"><ele>49.0</ele><time>2026-04-12T12:21:27.062Z</time></trkpt><trkpt lat="40.35628965373557" lon="18.16710366792354"><ele>49.0</ele><time>2026-04-12T12:21:28.062Z</time></trkpt><trkpt lat="40.356373980945015" lon="18.1671558339413"><ele>48.800000000000004</ele><time>2026-04-12T12:21:29.062Z</time></trkpt><trkpt lat="40.35645434056709" lon="18.167205223904446"><ele>48.6</ele><time>2026-04-12T12:21:30.062Z</time></trkpt><trkpt lat="40.35653120699488" lon="18.167251375482422"><ele>48.4</ele><time>2026-04-12T12:21:31.062Z</time></trkpt><trkpt lat="40.35659759379021" lon="18.167292548174874"><ele>48.2</ele><time>2026-04-12T12:21:32.062Z</time></trkpt><trkpt lat="40.356690393231766" lon="18.16734489201353"><ele>48.0</ele><time>2026-04-12T12:21:34.062Z</time></trkpt><trkpt lat="40.356820492166605" lon="18.167489613364616"><ele>47.8</ele><time>2026-04-12T12:21:38.062Z</time></trkpt><trkpt lat="40.3569059517043" lon="18.167542454133468"><ele>47.599999999999994</ele><time>2026-04-12T12:21:40.062Z</time></trkpt><trkpt lat="40.35703486231956" lon="18.167547857425983"><ele>47.400000000000006</ele><time>2026-04-12T12:21:42.062Z</time></trkpt><trkpt lat="40.35711777127761" lon="18.16757086725605"><ele>47.2</ele><time>2026-04-12T12:21:43.062Z</time></trkpt><trkpt lat="40.35720527530203" lon="18.167613227982354"><ele>47.0</ele><time>2026-04-12T12:21:44.062Z</time></trkpt><trkpt lat="40.35729453319148" lon="18.16766217198433"><ele>47.400000000000006</ele><time>2026-04-12T12:21:45.062Z</time></trkpt><trkpt lat="40.35737271907883" lon="18.167726784725172"><ele>47.800000000000004</ele><time>2026-04-12T12:21:46.062Z</time></trkpt><trkpt lat="40.3574580614484" lon="18.167783412878652"><ele>48.2</ele><time>2026-04-12T12:21:47.062Z</time></trkpt><trkpt lat="40.357538885880146" lon="18.16784068208623"><ele>48.6</ele><time>2026-04-12T12:21:48.062Z</time></trkpt><trkpt lat="40.35762369287447" lon="18.1678929757802"><ele>49.0</ele><time>2026-04-12T12:21:49.062Z</time></trkpt><trkpt lat="40.357715894069806" lon="18.16794185116774"><ele>49.0</ele><time>2026-04-12T12:21:50.062Z</time></trkpt><trkpt lat="40.35780930056409" lon="18.16798994698624"><ele>49.0</ele><time>2026-04-12T12:21:51.062Z</time></trkpt><trkpt lat="40.35789651575244" lon="18.168043509651216"><ele>49.0</ele><time>2026-04-12T12:21:52.062Z</time></trkpt><trkpt lat="40.357973780645146" lon="18.168093341379752"><ele>49.0</ele><time>2026-04-12T12:21:53.062Z</time></trkpt><trkpt lat="40.358055280509305" lon="18.168139629246976"><ele>49.0</ele><time>2026-04-12T12:21:54.062Z</time></trkpt><trkpt lat="40.35813193277432" lon="18.168173952996156"><ele>48.75</ele><time>2026-04-12T12:21:55.062Z</time></trkpt><trkpt lat="40.35830244717317" lon="18.16829691378133"><ele>48.5</ele><time>2026-04-12T12:21:57.062Z</time></trkpt><trkpt lat="40.35839777258681" lon="18.168362597536245"><ele>48.25</ele><time>2026-04-12T12:21:58.062Z</time></trkpt><trkpt lat="40.35849661237917" lon="18.168418407724133"><ele>48.0</ele><time>2026-04-12T12:21:59.062Z</time></trkpt><trkpt lat="40.35859664895155" lon="18.16847168630543"><ele>48.0</ele><time>2026-04-12T12:22:00.062Z</time></trkpt><trkpt lat="40.35868682271903" lon="18.16853204083301"><ele>48.0</ele><time>2026-04-12T12:22:01.062Z</time></trkpt><trkpt lat="40.35877308958167" lon="18.168589126116125"><ele>48.0</ele><time>2026-04-12T12:22:02.062Z</time></trkpt><trkpt lat="40.358858931971895" lon="18.16864218428027"><ele>48.0</ele><time>2026-04-12T12:22:03.062Z</time></trkpt><trkpt lat="40.358939857381664" lon="18.16869756470978"><ele>48.0</ele><time>2026-04-12T12:22:04.062Z</time></trkpt><trkpt lat="40.359025128399914" lon="18.168750320064646"><ele>48.0</ele><time>2026-04-12T12:22:05.062Z</time></trkpt><trkpt lat="40.35911744156159" lon="18.16881143620436"><ele>48.0</ele><time>2026-04-12T12:22:06.062Z</time></trkpt><trkpt lat="40.359218504862916" lon="18.168874752016606"><ele>48.0</ele><time>2026-04-12T12:22:07.062Z</time></trkpt><trkpt lat="40.35931768424815" lon="18.168929890891434"><ele>48.0</ele><time>2026-04-12T12:22:08.062Z</time></trkpt><trkpt lat="40.35941693750728" lon="18.16899361230865"><ele>48.0</ele><time>2026-04-12T12:22:09.062Z</time></trkpt><trkpt lat="40.35952392398204" lon="18.16905955467208"><ele>48.25</ele><time>2026-04-12T12:22:10.062Z</time></trkpt><trkpt lat="40.35962989348787" lon="18.169120756387983"><ele>48.5</ele><time>2026-04-12T12:22:11.062Z</time></trkpt><trkpt lat="40.35974463095293" lon="18.169188137573002"><ele>48.75</ele><time>2026-04-12T12:22:12.062Z</time></trkpt><trkpt lat="40.35986251192477" lon="18.169254928781836"><ele>49.0</ele><time>2026-04-12T12:22:13.062Z</time></trkpt><trkpt lat="40.359983982162284" lon="18.16932254654738"><ele>49.33333333333333</ele><time>2026-04-12T12:22:14.062Z</time></trkpt><trkpt lat="40.36008992541009" lon="18.169393702419065"><ele>49.66666666666667</ele><time>2026-04-12T12:22:15.062Z</time></trkpt><trkpt lat="40.36019855271949" lon="18.169470112815517"><ele>50.0</ele><time>2026-04-12T12:22:16.062Z</time></trkpt><trkpt lat="40.36041972732099" lon="18.169652583046414"><ele>50.00000000000001</ele><time>2026-04-12T12:22:18.063Z</time></trkpt><trkpt lat="40.36050292861845" lon="18.169721795044016"><ele>50.0</ele><time>2026-04-12T12:22:19.063Z</time></trkpt><trkpt lat="40.36055611256118" lon="18.16977710034005"><ele>50.0</ele><time>2026-04-12T12:22:20.063Z</time></trkpt><trkpt lat="40.360597525426876" lon="18.169858313645992"><ele>50.0</ele><time>2026-04-12T12:22:22.063Z</time></trkpt><trkpt lat="40.360613392766815" lon="18.16996483493807"><ele>50.00000000000001</ele><time>2026-04-12T12:22:26.063Z</time></trkpt><trkpt lat="40.36065436589628" lon="18.170113786117522"><ele>50.0</ele><time>2026-04-12T12:22:28.063Z</time></trkpt><trkpt lat="40.36069670369494" lon="18.170189623189447"><ele>49.42857142857143</ele><time>2026-04-12T12:22:29.063Z</time></trkpt><trkpt lat="40.36075620410543" lon="18.17024148362508"><ele>48.85714285714286</ele><time>2026-04-12T12:22:30.063Z</time></trkpt><trkpt lat="40.36082677006892" lon="18.17026310860668"><ele>48.28571428571429</ele><time>2026-04-12T12:22:31.063Z</time></trkpt><trkpt lat="40.36089599673528" lon="18.170249364933618"><ele>47.714285714285715</ele><time>2026-04-12T12:22:32.063Z</time></trkpt><trkpt lat="40.36096124937259" lon="18.170206998389375"><ele>47.14285714285714</ele><time>2026-04-12T12:22:33.063Z</time></trkpt><trkpt lat="40.361011643688975" lon="18.1701375946808"><ele>46.57142857142858</ele><time>2026-04-12T12:22:34.063Z</time></trkpt><trkpt lat="40.36105821819159" lon="18.170043497406365"><ele>46.0</ele><time>2026-04-12T12:22:35.063Z</time></trkpt><trkpt lat="40.361103209468496" lon="18.16994376106708"><ele>46.0</ele><time>2026-04-12T12:22:36.063Z</time></trkpt><trkpt lat="40.36115505080579" lon="18.169844822472406"><ele>46.0</ele><time>2026-04-12T12:22:37.063Z</time></trkpt><trkpt lat="40.36131721400159" lon="18.16965096449887"><ele>46.0</ele><time>2026-04-12T12:22:39.063Z</time></trkpt><trkpt lat="40.3614017639456" lon="18.16955824847606"><ele>46.0</ele><time>2026-04-12T12:22:40.063Z</time></trkpt><trkpt lat="40.361487362845565" lon="18.16946583405298"><ele>45.4</ele><time>2026-04-12T12:22:41.063Z</time></trkpt><trkpt lat="40.36156847209308" lon="18.16936408126434"><ele>44.8</ele><time>2026-04-12T12:22:42.063Z</time></trkpt><trkpt lat="40.36164178258482" lon="18.169257374034256"><ele>44.199999999999996</ele><time>2026-04-12T12:22:43.063Z</time></trkpt><trkpt lat="40.36171292661855" lon="18.169154734205655"><ele>43.599999999999994</ele><time>2026-04-12T12:22:44.063Z</time></trkpt><trkpt lat="40.361780988837396" lon="18.1690573790487"><ele>43.0</ele><time>2026-04-12T12:22:45.063Z</time></trkpt><trkpt lat="40.361848341511596" lon="18.16896509916559"><ele>43.0</ele><time>2026-04-12T12:22:46.063Z</time></trkpt><trkpt lat="40.36190500650379" lon="18.168884283825815"><ele>43.0</ele><time>2026-04-12T12:22:47.063Z</time></trkpt><trkpt lat="40.361964029810096" lon="18.16879900109718"><ele>43.0</ele><time>2026-04-12T12:22:48.063Z</time></trkpt><trkpt lat="40.362016934348354" lon="18.16870407204193"><ele>43.0</ele><time>2026-04-12T12:22:49.063Z</time></trkpt><trkpt lat="40.36207977893972" lon="18.1686053372984"><ele>43.0</ele><time>2026-04-12T12:22:50.063Z</time></trkpt><trkpt lat="40.3621348717722" lon="18.16851769854493"><ele>43.0</ele><time>2026-04-12T12:22:51.063Z</time></trkpt><trkpt lat="40.36218577111749" lon="18.168423871352704"><ele>43.16666666666667</ele><time>2026-04-12T12:22:52.063Z</time></trkpt><trkpt lat="40.36224803812244" lon="18.168351689162893"><ele>43.333333333333336</ele><time>2026-04-12T12:22:53.063Z</time></trkpt><trkpt lat="40.3623071832018" lon="18.16827998597413"><ele>43.5</ele><time>2026-04-12T12:22:54.062Z</time></trkpt><trkpt lat="40.362365780545986" lon="18.168204114522357"><ele>43.666666666666664</ele><time>2026-04-12T12:22:55.062Z</time></trkpt><trkpt lat="40.36242459945793" lon="18.168152685729723"><ele>43.83333333333333</ele><time>2026-04-12T12:22:56.062Z</time></trkpt><trkpt lat="40.36248454973466" lon="18.168116307581883"><ele>44.0</ele><time>2026-04-12T12:22:57.063Z</time></trkpt><trkpt lat="40.362640325401905" lon="18.168090250805104"><ele>43.5</ele><time>2026-04-12T12:22:59.063Z</time></trkpt><trkpt lat="40.36282817512027" lon="18.16800858138493"><ele>43.0</ele><time>2026-04-12T12:23:01.063Z</time></trkpt><trkpt lat="40.362890107310136" lon="18.167924217622584"><ele>42.5</ele><time>2026-04-12T12:23:02.063Z</time></trkpt><trkpt lat="40.362942204301575" lon="18.16780193405073"><ele>42.0</ele><time>2026-04-12T12:23:03.063Z</time></trkpt><trkpt lat="40.36297603512448" lon="18.16765616027702"><ele>42.0</ele><time>2026-04-12T12:23:04.062Z</time></trkpt><trkpt lat="40.36299443091301" lon="18.167504725816872"><ele>42.0</ele><time>2026-04-12T12:23:05.062Z</time></trkpt><trkpt lat="40.363023575543785" lon="18.16734776578196"><ele>42.0</ele><time>2026-04-12T12:23:06.063Z</time></trkpt><trkpt lat="40.363078505271694" lon="18.16718789890883"><ele>42.0</ele><time>2026-04-12T12:23:07.063Z</time></trkpt><trkpt lat="40.3631726284024" lon="18.16703382868891"><ele>42.0</ele><time>2026-04-12T12:23:08.063Z</time></trkpt><trkpt lat="40.36328003233834" lon="18.166875749172988"><ele>42.0</ele><time>2026-04-12T12:23:09.063Z</time></trkpt><trkpt lat="40.363394362591016" lon="18.166721660090488"><ele>42.0</ele><time>2026-04-12T12:23:10.063Z</time></trkpt><trkpt lat="40.36352027830112" lon="18.166562407306262"><ele>41.666666666666664</ele><time>2026-04-12T12:23:11.063Z</time></trkpt><trkpt lat="40.36364801974148" lon="18.166402545723646"><ele>41.33333333333333</ele><time>2026-04-12T12:23:12.063Z</time></trkpt><trkpt lat="40.36377292071035" lon="18.166235276819528"><ele>41.0</ele><time>2026-04-12T12:23:13.063Z</time></trkpt><trkpt lat="40.363886455125915" lon="18.166076658261176"><ele>41.0</ele><time>2026-04-12T12:23:14.063Z</time></trkpt><trkpt lat="40.36399266253361" lon="18.165923982984697"><ele>41.0</ele><time>2026-04-12T12:23:15.063Z</time></trkpt><trkpt lat="40.364099496728514" lon="18.165774939860203"><ele>41.0</ele><time>2026-04-12T12:23:16.063Z</time></trkpt><trkpt lat="40.364210603823906" lon="18.16562504037765"><ele>40.33333333333333</ele><time>2026-04-12T12:23:17.063Z</time></trkpt><trkpt lat="40.36432500646108" lon="18.165476628715314"><ele>39.666666666666664</ele><time>2026-04-12T12:23:18.063Z</time></trkpt><trkpt lat="40.364438098701704" lon="18.16533117973297"><ele>39.0</ele><time>2026-04-12T12:23:19.063Z</time></trkpt><trkpt lat="40.364553097590665" lon="18.1651817670958"><ele>40.0</ele><time>2026-04-12T12:23:20.063Z</time></trkpt><trkpt lat="40.36477908097785" lon="18.16488039002704"><ele>41.0</ele><time>2026-04-12T12:23:22.063Z</time></trkpt><trkpt lat="40.364884902838554" lon="18.164721189377538"><ele>41.0</ele><time>2026-04-12T12:23:23.063Z</time></trkpt><trkpt lat="40.364998198981525" lon="18.164566901941676"><ele>41.0</ele><time>2026-04-12T12:23:24.063Z</time></trkpt><trkpt lat="40.36510774511845" lon="18.164407305252634"><ele>41.0</ele><time>2026-04-12T12:23:25.063Z</time></trkpt><trkpt lat="40.365213556804584" lon="18.1642393527663"><ele>41.0</ele><time>2026-04-12T12:23:26.063Z</time></trkpt><trkpt lat="40.36531983754573" lon="18.164060367877504"><ele>41.0</ele><time>2026-04-12T12:23:27.063Z</time></trkpt><trkpt lat="40.36542324525612" lon="18.163886988324172"><ele>41.0</ele><time>2026-04-12T12:23:28.063Z</time></trkpt><trkpt lat="40.365523059130396" lon="18.163705289339486"><ele>41.0</ele><time>2026-04-12T12:23:29.063Z</time></trkpt><trkpt lat="40.36561687545612" lon="18.16351557640981"><ele>41.0</ele><time>2026-04-12T12:23:30.063Z</time></trkpt><trkpt lat="40.365706788583914" lon="18.163327621477148"><ele>41.0</ele><time>2026-04-12T12:23:31.063Z</time></trkpt><trkpt lat="40.36580061488315" lon="18.16313144095655"><ele>41.0</ele><time>2026-04-12T12:23:32.063Z</time></trkpt><trkpt lat="40.365897475174755" lon="18.162935237990396"><ele>41.0</ele><time>2026-04-12T12:23:33.063Z</time></trkpt><trkpt lat="40.36599063487781" lon="18.162735445654143"><ele>41.0</ele><time>2026-04-12T12:23:34.063Z</time></trkpt><trkpt lat="40.36608387833551" lon="18.162534035971767"><ele>41.0</ele><time>2026-04-12T12:23:35.063Z</time></trkpt><trkpt lat="40.36618153361289" lon="18.16232872580403"><ele>41.0</ele><time>2026-04-12T12:23:36.063Z</time></trkpt><trkpt lat="40.36627933225012" lon="18.162124172037863"><ele>41.0</ele><time>2026-04-12T12:23:37.063Z</time></trkpt><trkpt lat="40.3663775004964" lon="18.161917595283924"><ele>41.666666666666664</ele><time>2026-04-12T12:23:38.063Z</time></trkpt><trkpt lat="40.36647620198024" lon="18.161707993278537"><ele>42.333333333333336</ele><time>2026-04-12T12:23:39.063Z</time></trkpt><trkpt lat="40.36658520974045" lon="18.161498828079523"><ele>43.0</ele><time>2026-04-12T12:23:40.063Z</time></trkpt><trkpt lat="40.36669331609022" lon="18.161290613180054"><ele>43.5</ele><time>2026-04-12T12:23:41.063Z</time></trkpt><trkpt lat="40.36691520176493" lon="18.160867916978876"><ele>44.0</ele><time>2026-04-12T12:23:43.063Z</time></trkpt><trkpt lat="40.3670346985672" lon="18.160644432112196"><ele>44.0</ele><time>2026-04-12T12:23:44.063Z</time></trkpt><trkpt lat="40.367135386764716" lon="18.1604227920428"><ele>44.0</ele><time>2026-04-12T12:23:45.063Z</time></trkpt><trkpt lat="40.367251549563875" lon="18.16018517316429"><ele>44.0</ele><time>2026-04-12T12:23:46.063Z</time></trkpt><trkpt lat="40.367370716752085" lon="18.15993902251016"><ele>43.5</ele><time>2026-04-12T12:23:47.063Z</time></trkpt><trkpt lat="40.36748507242276" lon="18.159684194390362"><ele>43.0</ele><time>2026-04-12T12:23:48.063Z</time></trkpt><trkpt lat="40.36760270270089" lon="18.15942669966515"><ele>43.0</ele><time>2026-04-12T12:23:49.063Z</time></trkpt><trkpt lat="40.36772602341112" lon="18.15916932545493"><ele>43.0</ele><time>2026-04-12T12:23:50.064Z</time></trkpt><trkpt lat="40.367859469778494" lon="18.15891993011445"><ele>43.0</ele><time>2026-04-12T12:23:51.064Z</time></trkpt><trkpt lat="40.36800158137847" lon="18.15866807229811"><ele>43.0</ele><time>2026-04-12T12:23:52.064Z</time></trkpt><trkpt lat="40.368126939122035" lon="18.158397728597887"><ele>43.0</ele><time>2026-04-12T12:23:53.064Z</time></trkpt><trkpt lat="40.36823511983318" lon="18.158110691557496"><ele>43.0</ele><time>2026-04-12T12:23:54.064Z</time></trkpt><trkpt lat="40.36834412089" lon="18.157826026874467"><ele>43.0</ele><time>2026-04-12T12:23:55.064Z</time></trkpt><trkpt lat="40.36845441379458" lon="18.157535919645557"><ele>43.0</ele><time>2026-04-12T12:23:56.064Z</time></trkpt><trkpt lat="40.368560007674894" lon="18.157242563942795"><ele>42.0</ele><time>2026-04-12T12:23:57.064Z</time></trkpt><trkpt lat="40.36867052129801" lon="18.15694690222373"><ele>41.0</ele><time>2026-04-12T12:23:58.064Z</time></trkpt><trkpt lat="40.36878026260095" lon="18.156658253408644"><ele>41.5</ele><time>2026-04-12T12:23:59.064Z</time></trkpt><trkpt lat="40.3688920485077" lon="18.15636545957259"><ele>42.0</ele><time>2026-04-12T12:24:00.064Z</time></trkpt><trkpt lat="40.36900112517972" lon="18.156073189794885"><ele>42.0</ele><time>2026-04-12T12:24:01.064Z</time></trkpt><trkpt lat="40.36910725610643" lon="18.155782650713196"><ele>42.0</ele><time>2026-04-12T12:24:02.064Z</time></trkpt><trkpt lat="40.369324394478944" lon="18.155203273014365"><ele>42.0</ele><time>2026-04-12T12:24:04.064Z</time></trkpt><trkpt lat="40.36943582639332" lon="18.154913797720543"><ele>42.0</ele><time>2026-04-12T12:24:05.064Z</time></trkpt><trkpt lat="40.36954391830314" lon="18.1546231396964"><ele>42.0</ele><time>2026-04-12T12:24:06.064Z</time></trkpt><trkpt lat="40.36965497882411" lon="18.154331079850103"><ele>42.0</ele><time>2026-04-12T12:24:07.064Z</time></trkpt><trkpt lat="40.36976513870436" lon="18.15403826874134"><ele>40.0</ele><time>2026-04-12T12:24:08.064Z</time></trkpt><trkpt lat="40.369876398156386" lon="18.153749195906048"><ele>38.0</ele><time>2026-04-12T12:24:09.064Z</time></trkpt><trkpt lat="40.369986830046166" lon="18.15345928369194"><ele>38.0</ele><time>2026-04-12T12:24:10.064Z</time></trkpt><trkpt lat="40.370097906186636" lon="18.15317059855521"><ele>38.0</ele><time>2026-04-12T12:24:11.064Z</time></trkpt><trkpt lat="40.37020943817896" lon="18.152881431435585"><ele>38.0</ele><time>2026-04-12T12:24:12.064Z</time></trkpt><trkpt lat="40.370316577376435" lon="18.152591890693156"><ele>38.0</ele><time>2026-04-12T12:24:13.064Z</time></trkpt><trkpt lat="40.37042766864166" lon="18.15229815257778"><ele>39.5</ele><time>2026-04-12T12:24:14.064Z</time></trkpt><trkpt lat="40.37053431137537" lon="18.152004444485204"><ele>41.0</ele><time>2026-04-12T12:24:15.064Z</time></trkpt><trkpt lat="40.37064034211278" lon="18.151710245624237"><ele>42.0</ele><time>2026-04-12T12:24:16.064Z</time></trkpt><trkpt lat="40.37075018580787" lon="18.151419004157706"><ele>43.0</ele><time>2026-04-12T12:24:17.064Z</time></trkpt><trkpt lat="40.37086256984042" lon="18.15112590679732"><ele>43.0</ele><time>2026-04-12T12:24:18.064Z</time></trkpt><trkpt lat="40.37097201649908" lon="18.15083788286589"><ele>43.0</ele><time>2026-04-12T12:24:19.064Z</time></trkpt><trkpt lat="40.37108298362314" lon="18.15054901699964"><ele>42.5</ele><time>2026-04-12T12:24:20.064Z</time></trkpt><trkpt lat="40.3711861800859" lon="18.150262298430903"><ele>42.0</ele><time>2026-04-12T12:24:21.064Z</time></trkpt><trkpt lat="40.37128421783915" lon="18.149991248658857"><ele>41.5</ele><time>2026-04-12T12:24:22.064Z</time></trkpt><trkpt lat="40.371464922263904" lon="18.149504130493092"><ele>41.0</ele><time>2026-04-12T12:24:24.064Z</time></trkpt><trkpt lat="40.371549448054274" lon="18.149279903082757"><ele>41.0</ele><time>2026-04-12T12:24:25.064Z</time></trkpt><trkpt lat="40.37163138624508" lon="18.149060546362588"><ele>41.0</ele><time>2026-04-12T12:24:26.064Z</time></trkpt><trkpt lat="40.37171013773215" lon="18.148857821176783"><ele>41.0</ele><time>2026-04-12T12:24:27.064Z</time></trkpt><trkpt lat="40.3717824975771" lon="18.148666133471917"><ele>40.666666666666664</ele><time>2026-04-12T12:24:28.064Z</time></trkpt><trkpt lat="40.371852991525465" lon="18.1484865505104"><ele>40.333333333333336</ele><time>2026-04-12T12:24:29.064Z</time></trkpt><trkpt lat="40.37192340207947" lon="18.148311468401047"><ele>40.0</ele><time>2026-04-12T12:24:30.064Z</time></trkpt><trkpt lat="40.37198619841043" lon="18.148139275491463"><ele>40.25</ele><time>2026-04-12T12:24:31.064Z</time></trkpt><trkpt lat="40.37205203703026" lon="18.147966922412476"><ele>40.5</ele><time>2026-04-12T12:24:32.064Z</time></trkpt><trkpt lat="40.3721143514266" lon="18.147795935745112"><ele>40.75</ele><time>2026-04-12T12:24:33.064Z</time></trkpt><trkpt lat="40.37217868765034" lon="18.14763048743482"><ele>41.0</ele><time>2026-04-12T12:24:34.064Z</time></trkpt><trkpt lat="40.372236034588184" lon="18.147474107124086"><ele>40.75</ele><time>2026-04-12T12:24:35.064Z</time></trkpt><trkpt lat="40.3722930319231" lon="18.14732531390767"><ele>40.5</ele><time>2026-04-12T12:24:36.064Z</time></trkpt><trkpt lat="40.372349117467806" lon="18.147174941444106"><ele>40.25</ele><time>2026-04-12T12:24:37.064Z</time></trkpt><trkpt lat="40.372411575424856" lon="18.147026461023678"><ele>40.0</ele><time>2026-04-12T12:24:38.064Z</time></trkpt><trkpt lat="40.37247430795516" lon="18.146881365665028"><ele>40.0</ele><time>2026-04-12T12:24:39.064Z</time></trkpt><trkpt lat="40.372534735297464" lon="18.1467420254763"><ele>40.0</ele><time>2026-04-12T12:24:40.064Z</time></trkpt><trkpt lat="40.37259531988997" lon="18.14660363794674"><ele>40.0</ele><time>2026-04-12T12:24:41.064Z</time></trkpt><trkpt lat="40.372645766655104" lon="18.146473698983115"><ele>40.0</ele><time>2026-04-12T12:24:42.064Z</time></trkpt><trkpt lat="40.37269024441739" lon="18.146363717337174"><ele>40.2</ele><time>2026-04-12T12:24:43.065Z</time></trkpt><trkpt lat="40.372788228178436" lon="18.14620512968951"><ele>40.4</ele><time>2026-04-12T12:24:45.065Z</time></trkpt><trkpt lat="40.372849779704836" lon="18.14614740282741"><ele>40.599999999999994</ele><time>2026-04-12T12:24:46.065Z</time></trkpt><trkpt lat="40.37291687846469" lon="18.14609704684688"><ele>40.8</ele><time>2026-04-12T12:24:47.065Z</time></trkpt><trkpt lat="40.372993593555734" lon="18.146051137584376"><ele>41.0</ele><time>2026-04-12T12:24:48.065Z</time></trkpt><trkpt lat="40.373076776580206" lon="18.145995893921086"><ele>41.0</ele><time>2026-04-12T12:24:49.065Z</time></trkpt><trkpt lat="40.37315896860964" lon="18.145937995076743"><ele>41.0</ele><time>2026-04-12T12:24:50.065Z</time></trkpt><trkpt lat="40.37325061828541" lon="18.145875079750127"><ele>41.0</ele><time>2026-04-12T12:24:51.065Z</time></trkpt><trkpt lat="40.373341158827735" lon="18.145814555719895"><ele>41.0</ele><time>2026-04-12T12:24:52.065Z</time></trkpt><trkpt lat="40.373437635979336" lon="18.145742852399295"><ele>41.0</ele><time>2026-04-12T12:24:53.065Z</time></trkpt><trkpt lat="40.37353654533276" lon="18.145674210779337"><ele>40.83333333333333</ele><time>2026-04-12T12:24:54.065Z</time></trkpt><trkpt lat="40.373634964455455" lon="18.145611917056645"><ele>40.666666666666664</ele><time>2026-04-12T12:24:55.065Z</time></trkpt><trkpt lat="40.37372216240032" lon="18.145567351852243"><ele>40.5</ele><time>2026-04-12T12:24:56.065Z</time></trkpt><trkpt lat="40.37378261048263" lon="18.145533064369015"><ele>40.333333333333336</ele><time>2026-04-12T12:24:57.065Z</time></trkpt><trkpt lat="40.37385173675995" lon="18.145521958426208"><ele>40.16666666666667</ele><time>2026-04-12T12:24:59.065Z</time></trkpt><trkpt lat="40.37390396923011" lon="18.145612547011044"><ele>40.0</ele><time>2026-04-12T12:25:01.064Z</time></trkpt><trkpt lat="40.37393051230031" lon="18.145690101092903"><ele>40.5</ele><time>2026-04-12T12:25:02.064Z</time></trkpt><trkpt lat="40.37394606918999" lon="18.14579488566464"><ele>41.0</ele><time>2026-04-12T12:25:03.064Z</time></trkpt><trkpt lat="40.37396715071709" lon="18.14592341060549"><ele>41.5</ele><time>2026-04-12T12:25:04.064Z</time></trkpt><trkpt lat="40.37404028897664" lon="18.146177526381674"><ele>42.0</ele><time>2026-04-12T12:25:06.064Z</time></trkpt><trkpt lat="40.37407136714728" lon="18.146281302259197"><ele>42.0</ele><time>2026-04-12T12:25:07.063Z</time></trkpt><trkpt lat="40.37411407007519" lon="18.14636447825232"><ele>42.0</ele><time>2026-04-12T12:25:09.063Z</time></trkpt><trkpt lat="40.37420197679395" lon="18.146334325825762"><ele>42.0</ele><time>2026-04-12T12:25:11.064Z</time></trkpt><trkpt lat="40.37427256291117" lon="18.14628626401856"><ele>42.0</ele><time>2026-04-12T12:25:12.064Z</time></trkpt><trkpt lat="40.37436729723156" lon="18.14621944701832"><ele>42.0</ele><time>2026-04-12T12:25:13.064Z</time></trkpt><trkpt lat="40.374488370669724" lon="18.14614195255878"><ele>42.0</ele><time>2026-04-12T12:25:14.064Z</time></trkpt><trkpt lat="40.37462465256039" lon="18.14606725187998"><ele>42.0</ele><time>2026-04-12T12:25:15.064Z</time></trkpt><trkpt lat="40.37476148074507" lon="18.145988263778793"><ele>42.0</ele><time>2026-04-12T12:25:16.064Z</time></trkpt><trkpt lat="40.37490154393736" lon="18.14590233626517"><ele>42.0</ele><time>2026-04-12T12:25:17.065Z</time></trkpt><trkpt lat="40.37503142510694" lon="18.14582481644511"><ele>42.0</ele><time>2026-04-12T12:25:18.065Z</time></trkpt><trkpt lat="40.375131025280076" lon="18.14576791419311"><ele>42.0</ele><time>2026-04-12T12:25:19.065Z</time></trkpt><trkpt lat="40.375203259491336" lon="18.145729297461994"><ele>42.0</ele><time>2026-04-12T12:25:20.065Z</time></trkpt><trkpt lat="40.375285239058" lon="18.145684900476528"><ele>42.0</ele><time>2026-04-12T12:25:23.065Z</time></trkpt><trkpt lat="40.37535709987923" lon="18.145790135821"><ele>42.0</ele><time>2026-04-12T12:25:26.065Z</time></trkpt><trkpt lat="40.375416335579075" lon="18.146032971992852"><ele>42.0</ele><time>2026-04-12T12:25:28.065Z</time></trkpt><trkpt lat="40.37546084533703" lon="18.146174014122867"><ele>42.0</ele><time>2026-04-12T12:25:29.065Z</time></trkpt><trkpt lat="40.37552240633932" lon="18.146350019089574"><ele>41.8</ele><time>2026-04-12T12:25:30.065Z</time></trkpt><trkpt lat="40.37558019932945" lon="18.146537963952497"><ele>41.6</ele><time>2026-04-12T12:25:31.065Z</time></trkpt><trkpt lat="40.375630812903985" lon="18.14669047083472"><ele>41.4</ele><time>2026-04-12T12:25:32.065Z</time></trkpt><trkpt lat="40.37566701240281" lon="18.146805993079745"><ele>41.199999999999996</ele><time>2026-04-12T12:25:33.065Z</time></trkpt><trkpt lat="40.37569447631818" lon="18.146892741212195"><ele>41.0</ele><time>2026-04-12T12:25:34.065Z</time></trkpt><trkpt lat="40.37569950034112" lon="18.146990644655293"><ele>41.0</ele><time>2026-04-12T12:25:37.065Z</time></trkpt><trkpt lat="40.37563660086123" lon="18.14704433263379"><ele>41.0</ele><time>2026-04-12T12:25:40.065Z</time></trkpt><trkpt lat="40.37555378014378" lon="18.147087530970072"><ele>41.0</ele><time>2026-04-12T12:25:43.065Z</time></trkpt><trkpt lat="40.37548119591382" lon="18.1471012936768"><ele>40.0</ele><time>2026-04-12T12:25:46.065Z</time></trkpt><trkpt lat="40.375415812573166" lon="18.1471318837717"><ele>40.0</ele><time>2026-04-12T12:25:50.065Z</time></trkpt></trkseg><trkseg><trkpt lat="40.37535508102712" lon="18.147172047067723"><ele>40.0</ele><time>2026-04-12T13:08:44.006Z</time></trkpt><trkpt lat="40.375254956195164" lon="18.14722237423885"><ele>40.0</ele><time>2026-04-12T13:08:46.006Z</time></trkpt><trkpt lat="40.37517844461319" lon="18.14728341188213"><ele>40.0</ele><time>2026-04-12T13:08:48.006Z</time></trkpt><trkpt lat="40.37515729251157" lon="18.147369693224057"><ele>40.0</ele><time>2026-04-12T13:08:50.006Z</time></trkpt><trkpt lat="40.37518649308235" lon="18.1474999483315"><ele>40.0</ele><time>2026-04-12T13:08:52.006Z</time></trkpt><trkpt lat="40.3752160481859" lon="18.147604479174063"><ele>40.0</ele><time>2026-04-12T13:08:54.006Z</time></trkpt><trkpt lat="40.3753080194121" lon="18.147608798856737"><ele>40.0</ele><time>2026-04-12T13:08:57.005Z</time></trkpt><trkpt lat="40.37541852248903" lon="18.147523930289886"><ele>40.0</ele><time>2026-04-12T13:08:59.005Z</time></trkpt><trkpt lat="40.37547987142818" lon="18.147481174933784"><ele>40.0</ele><time>2026-04-12T13:09:00.005Z</time></trkpt><trkpt lat="40.375541164165284" lon="18.147435780551135"><ele>40.0</ele><time>2026-04-12T13:09:01.005Z</time></trkpt><trkpt lat="40.37560987075306" lon="18.147395500658057"><ele>40.0</ele><time>2026-04-12T13:09:02.005Z</time></trkpt><trkpt lat="40.37567771132621" lon="18.147364660930215"><ele>40.2</ele><time>2026-04-12T13:09:03.005Z</time></trkpt><trkpt lat="40.375755128273184" lon="18.147333490717337"><ele>40.4</ele><time>2026-04-12T13:09:05.005Z</time></trkpt><trkpt lat="40.375826841756115" lon="18.147368373874645"><ele>40.599999999999994</ele><time>2026-04-12T13:09:12.005Z</time></trkpt><trkpt lat="40.375882876090536" lon="18.147499470883137"><ele>40.8</ele><time>2026-04-12T13:09:14.005Z</time></trkpt><trkpt lat="40.37592922265493" lon="18.147640684681846"><ele>41.0</ele><time>2026-04-12T13:09:16.005Z</time></trkpt><trkpt lat="40.37597132053497" lon="18.147778815452874"><ele>40.599999999999994</ele><time>2026-04-12T13:09:18.005Z</time></trkpt><trkpt lat="40.376012303640856" lon="18.147910297973734"><ele>40.199999999999996</ele><time>2026-04-12T13:09:20.005Z</time></trkpt><trkpt lat="40.37604894947202" lon="18.148008522259985"><ele>39.8</ele><time>2026-04-12T13:09:23.005Z</time></trkpt><trkpt lat="40.37608992047823" lon="18.14808156732561"><ele>39.4</ele><time>2026-04-12T13:09:26.005Z</time></trkpt><trkpt lat="40.37619991431147" lon="18.148081587997464"><ele>39.0</ele><time>2026-04-12T13:09:28.005Z</time></trkpt><trkpt lat="40.37627468834143" lon="18.148047166112523"><ele>39.4</ele><time>2026-04-12T13:09:29.005Z</time></trkpt><trkpt lat="40.37635482479506" lon="18.14800571220243"><ele>39.8</ele><time>2026-04-12T13:09:30.005Z</time></trkpt><trkpt lat="40.37645272433257" lon="18.147963020160773"><ele>40.199999999999996</ele><time>2026-04-12T13:09:31.005Z</time></trkpt><trkpt lat="40.376546088020795" lon="18.147911877976878"><ele>40.599999999999994</ele><time>2026-04-12T13:09:32.005Z</time></trkpt><trkpt lat="40.37663785923315" lon="18.14785701128202"><ele>41.0</ele><time>2026-04-12T13:09:33.005Z</time></trkpt><trkpt lat="40.376733960456335" lon="18.1478040147784"><ele>41.0</ele><time>2026-04-12T13:09:34.005Z</time></trkpt><trkpt lat="40.376832163456235" lon="18.147746243831193"><ele>41.0</ele><time>2026-04-12T13:09:35.005Z</time></trkpt><trkpt lat="40.37692979137338" lon="18.147680823961274"><ele>41.0</ele><time>2026-04-12T13:09:36.005Z</time></trkpt><trkpt lat="40.37703042540545" lon="18.147626542255324"><ele>41.0</ele><time>2026-04-12T13:09:37.005Z</time></trkpt><trkpt lat="40.377137323751455" lon="18.14756211066092"><ele>41.0</ele><time>2026-04-12T13:09:38.005Z</time></trkpt><trkpt lat="40.377236227216805" lon="18.147505604466442"><ele>41.8</ele><time>2026-04-12T13:09:39.005Z</time></trkpt><trkpt lat="40.377329001297994" lon="18.147467658434632"><ele>42.599999999999994</ele><time>2026-04-12T13:09:40.005Z</time></trkpt><trkpt lat="40.37740358314309" lon="18.147437415717725"><ele>43.4</ele><time>2026-04-12T13:09:41.005Z</time></trkpt><trkpt lat="40.37750186077458" lon="18.14743049303209"><ele>44.2</ele><time>2026-04-12T13:09:43.005Z</time></trkpt><trkpt lat="40.377610936649575" lon="18.147415614490427"><ele>45.0</ele><time>2026-04-12T13:09:45.005Z</time></trkpt><trkpt lat="40.377685205236844" lon="18.147403441342167"><ele>45.0</ele><time>2026-04-12T13:09:46.005Z</time></trkpt><trkpt lat="40.37777943702392" lon="18.147398193929643"><ele>45.0</ele><time>2026-04-12T13:09:47.005Z</time></trkpt><trkpt lat="40.377897250323294" lon="18.147396491123562"><ele>45.0</ele><time>2026-04-12T13:09:48.005Z</time></trkpt><trkpt lat="40.37800689675733" lon="18.147389386626912"><ele>45.0</ele><time>2026-04-12T13:09:49.005Z</time></trkpt><trkpt lat="40.37810394222108" lon="18.147380271910812"><ele>45.0</ele><time>2026-04-12T13:09:50.005Z</time></trkpt><trkpt lat="40.37819808453946" lon="18.147395031042123"><ele>45.2</ele><time>2026-04-12T13:09:51.005Z</time></trkpt><trkpt lat="40.378291984374755" lon="18.147440999146237"><ele>45.4</ele><time>2026-04-12T13:09:52.005Z</time></trkpt><trkpt lat="40.37836660237041" lon="18.147510317054127"><ele>45.599999999999994</ele><time>2026-04-12T13:09:53.005Z</time></trkpt><trkpt lat="40.37842791311199" lon="18.14761090852168"><ele>45.8</ele><time>2026-04-12T13:09:54.005Z</time></trkpt><trkpt lat="40.37848217910596" lon="18.14772392656944"><ele>46.0</ele><time>2026-04-12T13:09:55.005Z</time></trkpt><trkpt lat="40.37852509778947" lon="18.14785761567295"><ele>46.0</ele><time>2026-04-12T13:09:56.005Z</time></trkpt><trkpt lat="40.378545710918274" lon="18.14801314364387"><ele>46.0</ele><time>2026-04-12T13:09:57.005Z</time></trkpt><trkpt lat="40.37855720424645" lon="18.148190532801667"><ele>46.0</ele><time>2026-04-12T13:09:58.005Z</time></trkpt><trkpt lat="40.37857148664182" lon="18.14838761758087"><ele>46.0</ele><time>2026-04-12T13:09:59.005Z</time></trkpt><trkpt lat="40.378589809761266" lon="18.148611387900814"><ele>45.333333333333336</ele><time>2026-04-12T13:10:00.005Z</time></trkpt><trkpt lat="40.37861016344142" lon="18.14886180431315"><ele>44.666666666666664</ele><time>2026-04-12T13:10:01.005Z</time></trkpt><trkpt lat="40.37863668957923" lon="18.149125952331282"><ele>44.0</ele><time>2026-04-12T13:10:02.005Z</time></trkpt><trkpt lat="40.37867020644252" lon="18.149404591816918"><ele>44.0</ele><time>2026-04-12T13:10:03.005Z</time></trkpt><trkpt lat="40.378698568569156" lon="18.14967431693804"><ele>44.0</ele><time>2026-04-12T13:10:04.005Z</time></trkpt><trkpt lat="40.37871342355762" lon="18.14991799942393"><ele>44.0</ele><time>2026-04-12T13:10:05.005Z</time></trkpt><trkpt lat="40.3787351738617" lon="18.150146129026403"><ele>44.0</ele><time>2026-04-12T13:10:06.005Z</time></trkpt><trkpt lat="40.378756019030526" lon="18.150358335604565"><ele>44.0</ele><time>2026-04-12T13:10:07.005Z</time></trkpt><trkpt lat="40.37877659944567" lon="18.150557700511794"><ele>44.0</ele><time>2026-04-12T13:10:08.005Z</time></trkpt><trkpt lat="40.37879961917577" lon="18.150745538281903"><ele>44.2</ele><time>2026-04-12T13:10:09.004Z</time></trkpt><trkpt lat="40.378821880840874" lon="18.150913504824764"><ele>44.400000000000006</ele><time>2026-04-12T13:10:10.004Z</time></trkpt><trkpt lat="40.378828847468526" lon="18.151048023942824"><ele>44.6</ele><time>2026-04-12T13:10:11.005Z</time></trkpt><trkpt lat="40.378818411788" lon="18.151145767281598"><ele>44.8</ele><time>2026-04-12T13:10:12.005Z</time></trkpt><trkpt lat="40.3787871223407" lon="18.151232457603466"><ele>45.0</ele><time>2026-04-12T13:10:13.005Z</time></trkpt><trkpt lat="40.37873202614742" lon="18.151316366485844"><ele>45.0</ele><time>2026-04-12T13:10:14.005Z</time></trkpt><trkpt lat="40.37865996809708" lon="18.15138829785056"><ele>45.0</ele><time>2026-04-12T13:10:15.004Z</time></trkpt><trkpt lat="40.37858465275865" lon="18.151428136834244"><ele>45.0</ele><time>2026-04-12T13:10:16.004Z</time></trkpt><trkpt lat="40.37849731152107" lon="18.151437694055353"><ele>45.0</ele><time>2026-04-12T13:10:17.005Z</time></trkpt><trkpt lat="40.37839291904274" lon="18.151423407177923"><ele>45.0</ele><time>2026-04-12T13:10:18.005Z</time></trkpt><trkpt lat="40.378280076004955" lon="18.151414624938507"><ele>45.0</ele><time>2026-04-12T13:10:19.005Z</time></trkpt><trkpt lat="40.378181719892474" lon="18.151404726603847"><ele>45.0</ele><time>2026-04-12T13:10:20.005Z</time></trkpt><trkpt lat="40.378081508445355" lon="18.151400757153716"><ele>45.0</ele><time>2026-04-12T13:10:21.004Z</time></trkpt><trkpt lat="40.37796198680386" lon="18.151404081366092"><ele>45.0</ele><time>2026-04-12T13:10:22.004Z</time></trkpt><trkpt lat="40.37781595441612" lon="18.151416658889875"><ele>44.333333333333336</ele><time>2026-04-12T13:10:23.004Z</time></trkpt><trkpt lat="40.37764245958683" lon="18.15142026943302"><ele>43.66666666666667</ele><time>2026-04-12T13:10:24.004Z</time></trkpt><trkpt lat="40.377441543573575" lon="18.151405783884655"><ele>43.0</ele><time>2026-04-12T13:10:25.004Z</time></trkpt><trkpt lat="40.3772263284866" lon="18.151383395265288"><ele>42.0</ele><time>2026-04-12T13:10:26.004Z</time></trkpt><trkpt lat="40.377003082918556" lon="18.151349082039438"><ele>41.0</ele><time>2026-04-12T13:10:27.004Z</time></trkpt><trkpt lat="40.37678388990755" lon="18.151302323589903"><ele>40.0</ele><time>2026-04-12T13:10:28.004Z</time></trkpt><trkpt lat="40.37657334991337" lon="18.151244907862626"><ele>40.0</ele><time>2026-04-12T13:10:29.004Z</time></trkpt><trkpt lat="40.37636225254893" lon="18.151183605147807"><ele>40.0</ele><time>2026-04-12T13:10:30.004Z</time></trkpt><trkpt lat="40.376149213863606" lon="18.15111197067832"><ele>40.0</ele><time>2026-04-12T13:10:31.004Z</time></trkpt><trkpt lat="40.375936684357235" lon="18.151027748317247"><ele>40.0</ele><time>2026-04-12T13:10:32.004Z</time></trkpt><trkpt lat="40.37572154176664" lon="18.15093537474745"><ele>40.0</ele><time>2026-04-12T13:10:33.004Z</time></trkpt><trkpt lat="40.37550950255859" lon="18.150837632453108"><ele>40.333333333333336</ele><time>2026-04-12T13:10:34.004Z</time></trkpt><trkpt lat="40.37529998765606" lon="18.15072867564297"><ele>40.666666666666664</ele><time>2026-04-12T13:10:35.004Z</time></trkpt><trkpt lat="40.3751010840943" lon="18.150615326368612"><ele>41.0</ele><time>2026-04-12T13:10:36.004Z</time></trkpt><trkpt lat="40.37491178179892" lon="18.150498551162958"><ele>41.0</ele><time>2026-04-12T13:10:37.004Z</time></trkpt><trkpt lat="40.37473295783563" lon="18.150371907382613"><ele>41.0</ele><time>2026-04-12T13:10:38.004Z</time></trkpt><trkpt lat="40.37455042643238" lon="18.15024396233112"><ele>41.0</ele><time>2026-04-12T13:10:39.004Z</time></trkpt><trkpt lat="40.37437410223992" lon="18.150111224770008"><ele>41.0</ele><time>2026-04-12T13:10:40.004Z</time></trkpt><trkpt lat="40.37420071667184" lon="18.149968645533697"><ele>41.0</ele><time>2026-04-12T13:10:41.004Z</time></trkpt><trkpt lat="40.37403462409357" lon="18.149819404842827"><ele>41.0</ele><time>2026-04-12T13:10:42.004Z</time></trkpt><trkpt lat="40.37386750468388" lon="18.149664874542932"><ele>40.666666666666664</ele><time>2026-04-12T13:10:43.004Z</time></trkpt><trkpt lat="40.37370242161758" lon="18.149509445061174"><ele>40.333333333333336</ele><time>2026-04-12T13:10:44.004Z</time></trkpt><trkpt lat="40.37353339640368" lon="18.149356259057118"><ele>40.0</ele><time>2026-04-12T13:10:45.004Z</time></trkpt><trkpt lat="40.373363811806406" lon="18.149202322602697"><ele>40.0</ele><time>2026-04-12T13:10:46.004Z</time></trkpt><trkpt lat="40.37319546308417" lon="18.149051657453555"><ele>40.0</ele><time>2026-04-12T13:10:47.004Z</time></trkpt><trkpt lat="40.373021294275304" lon="18.148901316285862"><ele>40.0</ele><time>2026-04-12T13:10:48.004Z</time></trkpt><trkpt lat="40.372846086429725" lon="18.14876456947275"><ele>40.0</ele><time>2026-04-12T13:10:49.004Z</time></trkpt><trkpt lat="40.37267058573367" lon="18.14860315614306"><ele>40.0</ele><time>2026-04-12T13:10:50.004Z</time></trkpt><trkpt lat="40.372494273201646" lon="18.14842898273087"><ele>40.0</ele><time>2026-04-12T13:10:51.004Z</time></trkpt><trkpt lat="40.37231726604523" lon="18.148261535545878"><ele>40.66666666666667</ele><time>2026-04-12T13:10:52.004Z</time></trkpt><trkpt lat="40.372137640725995" lon="18.14810177718324"><ele>41.333333333333336</ele><time>2026-04-12T13:10:53.004Z</time></trkpt><trkpt lat="40.371960809880136" lon="18.14794885565851"><ele>42.0</ele><time>2026-04-12T13:10:54.004Z</time></trkpt><trkpt lat="40.37178201670227" lon="18.14778959880217"><ele>42.0</ele><time>2026-04-12T13:10:55.004Z</time></trkpt><trkpt lat="40.37160754649005" lon="18.147628650690727"><ele>42.0</ele><time>2026-04-12T13:10:56.004Z</time></trkpt><trkpt lat="40.37142702595916" lon="18.147463557583833"><ele>42.0</ele><time>2026-04-12T13:10:57.004Z</time></trkpt><trkpt lat="40.37123990302768" lon="18.147300377463683"><ele>43.333333333333336</ele><time>2026-04-12T13:10:58.004Z</time></trkpt><trkpt lat="40.371055985397746" lon="18.14713796339201"><ele>44.66666666666667</ele><time>2026-04-12T13:10:59.004Z</time></trkpt><trkpt lat="40.370872630538194" lon="18.14697611955625"><ele>46.0</ele><time>2026-04-12T13:11:00.004Z</time></trkpt><trkpt lat="40.370688413446715" lon="18.146814993008526"><ele>46.0</ele><time>2026-04-12T13:11:01.004Z</time></trkpt><trkpt lat="40.37050651249597" lon="18.146653271530386"><ele>46.0</ele><time>2026-04-12T13:11:02.004Z</time></trkpt><trkpt lat="40.370323409610776" lon="18.146493749265925"><ele>46.0</ele><time>2026-04-12T13:11:03.004Z</time></trkpt><trkpt lat="40.37014475479551" lon="18.146335809773372"><ele>46.0</ele><time>2026-04-12T13:11:04.004Z</time></trkpt><trkpt lat="40.36996426875389" lon="18.146177638107563"><ele>46.0</ele><time>2026-04-12T13:11:05.004Z</time></trkpt><trkpt lat="40.36978403284497" lon="18.14602014595194"><ele>46.0</ele><time>2026-04-12T13:11:06.004Z</time></trkpt><trkpt lat="40.36960491302794" lon="18.145864977509643"><ele>46.0</ele><time>2026-04-12T13:11:07.004Z</time></trkpt><trkpt lat="40.369425049952085" lon="18.145712112557206"><ele>46.0</ele><time>2026-04-12T13:11:08.004Z</time></trkpt><trkpt lat="40.36924059310606" lon="18.145568833905674"><ele>46.0</ele><time>2026-04-12T13:11:09.004Z</time></trkpt><trkpt lat="40.369054969147854" lon="18.145434008029632"><ele>46.333333333333336</ele><time>2026-04-12T13:11:10.004Z</time></trkpt><trkpt lat="40.36886410604152" lon="18.14530433111314"><ele>46.666666666666664</ele><time>2026-04-12T13:11:11.004Z</time></trkpt><trkpt lat="40.36867445657123" lon="18.145175321856637"><ele>47.0</ele><time>2026-04-12T13:11:12.004Z</time></trkpt><trkpt lat="40.36847991676729" lon="18.14505975756605"><ele>47.0</ele><time>2026-04-12T13:11:13.004Z</time></trkpt><trkpt lat="40.368281335918816" lon="18.144947668794035"><ele>47.0</ele><time>2026-04-12T13:11:14.004Z</time></trkpt><trkpt lat="40.36808159970254" lon="18.144836557010287"><ele>47.0</ele><time>2026-04-12T13:11:15.004Z</time></trkpt><trkpt lat="40.36787978768544" lon="18.14473191545198"><ele>46.33333333333333</ele><time>2026-04-12T13:11:16.004Z</time></trkpt><trkpt lat="40.367669890539524" lon="18.14463575807728"><ele>45.666666666666664</ele><time>2026-04-12T13:11:17.004Z</time></trkpt><trkpt lat="40.36746022867149" lon="18.144543344362987"><ele>45.0</ele><time>2026-04-12T13:11:18.004Z</time></trkpt><trkpt lat="40.367249400680244" lon="18.144446359585213"><ele>45.5</ele><time>2026-04-12T13:11:19.004Z</time></trkpt><trkpt lat="40.36703376095226" lon="18.144342273371667"><ele>46.0</ele><time>2026-04-12T13:11:20.004Z</time></trkpt><trkpt lat="40.366817163796725" lon="18.144242142518458"><ele>46.0</ele><time>2026-04-12T13:11:21.004Z</time></trkpt><trkpt lat="40.3666009598485" lon="18.14414216595352"><ele>46.0</ele><time>2026-04-12T13:11:22.004Z</time></trkpt><trkpt lat="40.36638560404896" lon="18.144039538560737"><ele>49.0</ele><time>2026-04-12T13:11:23.004Z</time></trkpt><trkpt lat="40.366169945269625" lon="18.143936153249115"><ele>52.0</ele><time>2026-04-12T13:11:24.004Z</time></trkpt><trkpt lat="40.365955135740016" lon="18.143836561616617"><ele>52.0</ele><time>2026-04-12T13:11:25.004Z</time></trkpt><trkpt lat="40.36574460081339" lon="18.143739325910307"><ele>52.0</ele><time>2026-04-12T13:11:26.004Z</time></trkpt><trkpt lat="40.365529136707046" lon="18.143635445411533"><ele>51.0</ele><time>2026-04-12T13:11:27.004Z</time></trkpt><trkpt lat="40.365317415672216" lon="18.14353374040846"><ele>50.0</ele><time>2026-04-12T13:11:28.004Z</time></trkpt><trkpt lat="40.3651059963195" lon="18.14343661198655"><ele>49.0</ele><time>2026-04-12T13:11:29.004Z</time></trkpt><trkpt lat="40.36489595705622" lon="18.14333799301256"><ele>48.33333333333333</ele><time>2026-04-12T13:11:30.004Z</time></trkpt><trkpt lat="40.364686782388766" lon="18.14323660924502"><ele>47.666666666666664</ele><time>2026-04-12T13:11:31.004Z</time></trkpt><trkpt lat="40.36448041638433" lon="18.1431376082091"><ele>47.0</ele><time>2026-04-12T13:11:32.004Z</time></trkpt><trkpt lat="40.364275466942004" lon="18.143037781566"><ele>47.0</ele><time>2026-04-12T13:11:33.004Z</time></trkpt><trkpt lat="40.36406825388319" lon="18.142946714918892"><ele>47.0</ele><time>2026-04-12T13:11:34.004Z</time></trkpt><trkpt lat="40.363857870732694" lon="18.142857906222442"><ele>47.0</ele><time>2026-04-12T13:11:35.004Z</time></trkpt><trkpt lat="40.36365033895058" lon="18.142762174916164"><ele>47.33333333333333</ele><time>2026-04-12T13:11:36.004Z</time></trkpt><trkpt lat="40.36344192989702" lon="18.142669331066436"><ele>47.666666666666664</ele><time>2026-04-12T13:11:37.004Z</time></trkpt><trkpt lat="40.36323529802361" lon="18.142573913169404"><ele>48.0</ele><time>2026-04-12T13:11:38.004Z</time></trkpt><trkpt lat="40.36302703545866" lon="18.142475244983743"><ele>48.66666666666667</ele><time>2026-04-12T13:11:39.004Z</time></trkpt><trkpt lat="40.36281456497729" lon="18.142379126701247"><ele>49.333333333333336</ele><time>2026-04-12T13:11:40.004Z</time></trkpt><trkpt lat="40.36260443048747" lon="18.14228384225881"><ele>50.0</ele><time>2026-04-12T13:11:41.004Z</time></trkpt><trkpt lat="40.362391080413" lon="18.14218749685305"><ele>49.5</ele><time>2026-04-12T13:11:42.004Z</time></trkpt><trkpt lat="40.36217443804217" lon="18.1420854599852"><ele>49.0</ele><time>2026-04-12T13:11:43.004Z</time></trkpt><trkpt lat="40.3619595794069" lon="18.141985805422166"><ele>49.0</ele><time>2026-04-12T13:11:44.004Z</time></trkpt><trkpt lat="40.36174116205362" lon="18.141885190680938"><ele>49.0</ele><time>2026-04-12T13:11:45.004Z</time></trkpt><trkpt lat="40.36152404875588" lon="18.141787174771675"><ele>49.0</ele><time>2026-04-12T13:11:46.004Z</time></trkpt><trkpt lat="40.361304776237645" lon="18.14169168362785"><ele>49.0</ele><time>2026-04-12T13:11:47.004Z</time></trkpt><trkpt lat="40.3610821944782" lon="18.1415885061467"><ele>49.5</ele><time>2026-04-12T13:11:48.004Z</time></trkpt><trkpt lat="40.36085737346716" lon="18.141484164160296"><ele>50.0</ele><time>2026-04-12T13:11:49.004Z</time></trkpt><trkpt lat="40.36063737232606" lon="18.14137244060885"><ele>50.0</ele><time>2026-04-12T13:11:50.004Z</time></trkpt><trkpt lat="40.36041687226498" lon="18.141242048549948"><ele>50.0</ele><time>2026-04-12T13:11:51.004Z</time></trkpt><trkpt lat="40.360198166308926" lon="18.141096885403798"><ele>50.0</ele><time>2026-04-12T13:11:52.003Z</time></trkpt><trkpt lat="40.3599817614557" lon="18.140928920354817"><ele>50.0</ele><time>2026-04-12T13:11:53.003Z</time></trkpt><trkpt lat="40.35976617111406" lon="18.14075544867375"><ele>49.5</ele><time>2026-04-12T13:11:54.003Z</time></trkpt><trkpt lat="40.35955684142232" lon="18.140571736517515"><ele>49.0</ele><time>2026-04-12T13:11:55.003Z</time></trkpt><trkpt lat="40.35935335162796" lon="18.140383454376018"><ele>49.0</ele><time>2026-04-12T13:11:56.003Z</time></trkpt><trkpt lat="40.359157543590264" lon="18.140189948978573"><ele>49.0</ele><time>2026-04-12T13:11:57.003Z</time></trkpt><trkpt lat="40.35897249643136" lon="18.13999116386874"><ele>48.5</ele><time>2026-04-12T13:11:58.003Z</time></trkpt><trkpt lat="40.358793644816934" lon="18.13978464370938"><ele>48.0</ele><time>2026-04-12T13:11:59.003Z</time></trkpt><trkpt lat="40.3586215355668" lon="18.139570185509577"><ele>48.0</ele><time>2026-04-12T13:12:00.003Z</time></trkpt><trkpt lat="40.3584597709584" lon="18.139343193734618"><ele>48.0</ele><time>2026-04-12T13:12:01.003Z</time></trkpt><trkpt lat="40.35830402809465" lon="18.139110584105705"><ele>48.0</ele><time>2026-04-12T13:12:02.003Z</time></trkpt><trkpt lat="40.35815464546292" lon="18.138878395697276"><ele>48.0</ele><time>2026-04-12T13:12:03.003Z</time></trkpt><trkpt lat="40.35801285379974" lon="18.138648244769676"><ele>48.0</ele><time>2026-04-12T13:12:04.003Z</time></trkpt><trkpt lat="40.35787821712248" lon="18.138408735257126"><ele>48.0</ele><time>2026-04-12T13:12:05.003Z</time></trkpt><trkpt lat="40.35774923982266" lon="18.138172916898373"><ele>48.0</ele><time>2026-04-12T13:12:06.003Z</time></trkpt><trkpt lat="40.357624367520735" lon="18.13793034983199"><ele>48.0</ele><time>2026-04-12T13:12:07.003Z</time></trkpt><trkpt lat="40.3574931390707" lon="18.13770207915834"><ele>48.0</ele><time>2026-04-12T13:12:08.003Z</time></trkpt><trkpt lat="40.35736661949239" lon="18.137470657852425"><ele>48.0</ele><time>2026-04-12T13:12:09.003Z</time></trkpt><trkpt lat="40.35724163893664" lon="18.137233255600744"><ele>49.5</ele><time>2026-04-12T13:12:10.003Z</time></trkpt><trkpt lat="40.3571069847016" lon="18.136999906289425"><ele>51.0</ele><time>2026-04-12T13:12:11.003Z</time></trkpt><trkpt lat="40.3569594117032" lon="18.136759732589734"><ele>50.0</ele><time>2026-04-12T13:12:12.003Z</time></trkpt><trkpt lat="40.35681332757706" lon="18.136515553441555"><ele>49.0</ele><time>2026-04-12T13:12:13.003Z</time></trkpt><trkpt lat="40.356671010549974" lon="18.136265182442983"><ele>49.0</ele><time>2026-04-12T13:12:14.003Z</time></trkpt><trkpt lat="40.356528902885955" lon="18.136018251306528"><ele>49.0</ele><time>2026-04-12T13:12:15.003Z</time></trkpt><trkpt lat="40.356385990764025" lon="18.135768257009047"><ele>47.0</ele><time>2026-04-12T13:12:16.003Z</time></trkpt><trkpt lat="40.35624419001472" lon="18.13551741604772"><ele>45.0</ele><time>2026-04-12T13:12:17.003Z</time></trkpt><trkpt lat="40.35610325613743" lon="18.13526432978608"><ele>45.0</ele><time>2026-04-12T13:12:18.003Z</time></trkpt><trkpt lat="40.35596373659588" lon="18.13500674571669"><ele>45.0</ele><time>2026-04-12T13:12:19.003Z</time></trkpt><trkpt lat="40.355826229753454" lon="18.13474998282379"><ele>45.0</ele><time>2026-04-12T13:12:20.003Z</time></trkpt><trkpt lat="40.355684964693715" lon="18.134499068322633"><ele>45.0</ele><time>2026-04-12T13:12:21.003Z</time></trkpt><trkpt lat="40.35554001241844" lon="18.13424474107709"><ele>44.5</ele><time>2026-04-12T13:12:22.003Z</time></trkpt><trkpt lat="40.3553980642655" lon="18.133991236366935"><ele>44.0</ele><time>2026-04-12T13:12:23.003Z</time></trkpt><trkpt lat="40.35525529041242" lon="18.133735670046832"><ele>44.0</ele><time>2026-04-12T13:12:24.003Z</time></trkpt><trkpt lat="40.35511211899633" lon="18.13348199432909"><ele>44.0</ele><time>2026-04-12T13:12:25.003Z</time></trkpt><trkpt lat="40.35497166984427" lon="18.133228304608757"><ele>43.5</ele><time>2026-04-12T13:12:26.003Z</time></trkpt><trkpt lat="40.35483000875469" lon="18.132974511778105"><ele>43.0</ele><time>2026-04-12T13:12:27.003Z</time></trkpt><trkpt lat="40.354687982420316" lon="18.13272287866612"><ele>43.0</ele><time>2026-04-12T13:12:28.003Z</time></trkpt><trkpt lat="40.354547598525905" lon="18.132471668651483"><ele>43.0</ele><time>2026-04-12T13:12:29.003Z</time></trkpt><trkpt lat="40.35440777600784" lon="18.132221837806078"><ele>42.0</ele><time>2026-04-12T13:12:30.003Z</time></trkpt><trkpt lat="40.35426276475696" lon="18.131973817181333"><ele>41.0</ele><time>2026-04-12T13:12:31.003Z</time></trkpt><trkpt lat="40.35412140169589" lon="18.13172136955942"><ele>39.0</ele><time>2026-04-12T13:12:32.003Z</time></trkpt><trkpt lat="40.35397831936073" lon="18.131471556934816"><ele>37.0</ele><time>2026-04-12T13:12:33.003Z</time></trkpt><trkpt lat="40.353835531944725" lon="18.131225250298986"><ele>37.0</ele><time>2026-04-12T13:12:34.003Z</time></trkpt><trkpt lat="40.35369440613637" lon="18.130975529871865"><ele>37.0</ele><time>2026-04-12T13:12:35.003Z</time></trkpt><trkpt lat="40.35355499809835" lon="18.130725748774534"><ele>35.5</ele><time>2026-04-12T13:12:36.003Z</time></trkpt><trkpt lat="40.35341652542734" lon="18.130478126871733"><ele>34.0</ele><time>2026-04-12T13:12:37.003Z</time></trkpt><trkpt lat="40.35327466242668" lon="18.130231104582112"><ele>34.0</ele><time>2026-04-12T13:12:38.003Z</time></trkpt><trkpt lat="40.353126721473934" lon="18.12998455908451"><ele>34.0</ele><time>2026-04-12T13:12:39.003Z</time></trkpt><trkpt lat="40.35297615502964" lon="18.12974806118114"><ele>34.0</ele><time>2026-04-12T13:12:40.003Z</time></trkpt><trkpt lat="40.352820280349015" lon="18.12951391944063"><ele>34.0</ele><time>2026-04-12T13:12:41.003Z</time></trkpt><trkpt lat="40.35265659921503" lon="18.129288844373786"><ele>34.0</ele><time>2026-04-12T13:12:42.003Z</time></trkpt><trkpt lat="40.35248950073561" lon="18.129067349547483"><ele>34.0</ele><time>2026-04-12T13:12:43.003Z</time></trkpt><trkpt lat="40.35231768400701" lon="18.128849350447958"><ele>33.0</ele><time>2026-04-12T13:12:44.003Z</time></trkpt><trkpt lat="40.35214350531515" lon="18.128634520995398"><ele>32.0</ele><time>2026-04-12T13:12:45.003Z</time></trkpt><trkpt lat="40.351965583656245" lon="18.12842066593568"><ele>30.0</ele><time>2026-04-12T13:12:46.003Z</time></trkpt><trkpt lat="40.351784197709506" lon="18.128210730143426"><ele>28.0</ele><time>2026-04-12T13:12:47.003Z</time></trkpt><trkpt lat="40.35160255492519" lon="18.128005216030708"><ele>28.0</ele><time>2026-04-12T13:12:48.003Z</time></trkpt><trkpt lat="40.35141192410469" lon="18.127809815916482"><ele>28.0</ele><time>2026-04-12T13:12:49.003Z</time></trkpt><trkpt lat="40.351217807232" lon="18.127622687231074"><ele>28.0</ele><time>2026-04-12T13:12:50.003Z</time></trkpt><trkpt lat="40.35101826334463" lon="18.127439370699427"><ele>28.0</ele><time>2026-04-12T13:12:51.003Z</time></trkpt><trkpt lat="40.3508190211489" lon="18.12726042432894"><ele>28.0</ele><time>2026-04-12T13:12:52.003Z</time></trkpt><trkpt lat="40.35061452784879" lon="18.12709062321163"><ele>28.0</ele><time>2026-04-12T13:12:53.003Z</time></trkpt><trkpt lat="40.350413863017764" lon="18.126937122221154"><ele>27.0</ele><time>2026-04-12T13:12:54.003Z</time></trkpt><trkpt lat="40.35021620102873" lon="18.126787877372088"><ele>26.0</ele><time>2026-04-12T13:12:55.003Z</time></trkpt><trkpt lat="40.35001996987657" lon="18.126645204193135"><ele>26.333333333333332</ele><time>2026-04-12T13:12:56.003Z</time></trkpt><trkpt lat="40.349824109744574" lon="18.126509998913885"><ele>26.666666666666664</ele><time>2026-04-12T13:12:57.003Z</time></trkpt><trkpt lat="40.34962663887838" lon="18.126383579595565"><ele>27.0</ele><time>2026-04-12T13:12:58.003Z</time></trkpt><trkpt lat="40.34942281761262" lon="18.126261135281858"><ele>27.0</ele><time>2026-04-12T13:12:59.003Z</time></trkpt><trkpt lat="40.349215299909" lon="18.12614153736729"><ele>27.0</ele><time>2026-04-12T13:13:00.003Z</time></trkpt><trkpt lat="40.349007960767715" lon="18.126030980128487"><ele>26.666666666666664</ele><time>2026-04-12T13:13:01.003Z</time></trkpt><trkpt lat="40.34880766892086" lon="18.1259335203435"><ele>26.333333333333332</ele><time>2026-04-12T13:13:02.003Z</time></trkpt><trkpt lat="40.34860531009213" lon="18.125838538117936"><ele>26.0</ele><time>2026-04-12T13:13:03.003Z</time></trkpt><trkpt lat="40.34840093112319" lon="18.125752040172355"><ele>26.333333333333332</ele><time>2026-04-12T13:13:04.003Z</time></trkpt><trkpt lat="40.34819492861052" lon="18.12566983738001"><ele>26.666666666666664</ele><time>2026-04-12T13:13:05.003Z</time></trkpt><trkpt lat="40.347984586271835" lon="18.125595097830097"><ele>27.0</ele><time>2026-04-12T13:13:06.003Z</time></trkpt><trkpt lat="40.34777338821158" lon="18.12552625503871"><ele>26.333333333333336</ele><time>2026-04-12T13:13:07.003Z</time></trkpt><trkpt lat="40.34755840646001" lon="18.125457574517817"><ele>25.666666666666668</ele><time>2026-04-12T13:13:08.003Z</time></trkpt><trkpt lat="40.34734014512575" lon="18.125393657831335"><ele>25.0</ele><time>2026-04-12T13:13:09.003Z</time></trkpt><trkpt lat="40.34711985003445" lon="18.12533673838357"><ele>25.0</ele><time>2026-04-12T13:13:10.003Z</time></trkpt><trkpt lat="40.34689589072386" lon="18.125284951170052"><ele>25.0</ele><time>2026-04-12T13:13:11.003Z</time></trkpt><trkpt lat="40.346680181517385" lon="18.125248959334556"><ele>25.0</ele><time>2026-04-12T13:13:12.003Z</time></trkpt><trkpt lat="40.346465282364186" lon="18.12522471845896"><ele>24.0</ele><time>2026-04-12T13:13:13.003Z</time></trkpt><trkpt lat="40.34625310957461" lon="18.125201866862838"><ele>23.0</ele><time>2026-04-12T13:13:14.003Z</time></trkpt><trkpt lat="40.34604510321409" lon="18.12519509924995"><ele>22.0</ele><time>2026-04-12T13:13:15.003Z</time></trkpt><trkpt lat="40.345838414298306" lon="18.12522887851676"><ele>22.0</ele><time>2026-04-12T13:13:16.003Z</time></trkpt><trkpt lat="40.345628582720764" lon="18.125290012288445"><ele>22.0</ele><time>2026-04-12T13:13:17.003Z</time></trkpt><trkpt lat="40.34542862624363" lon="18.125374842140186"><ele>22.0</ele><time>2026-04-12T13:13:18.003Z</time></trkpt><trkpt lat="40.345223320487705" lon="18.12548264567108"><ele>21.666666666666664</ele><time>2026-04-12T13:13:19.003Z</time></trkpt><trkpt lat="40.34503412108918" lon="18.125590037108008"><ele>21.333333333333332</ele><time>2026-04-12T13:13:20.003Z</time></trkpt><trkpt lat="40.34483887866066" lon="18.12572116259846"><ele>21.0</ele><time>2026-04-12T13:13:21.003Z</time></trkpt><trkpt lat="40.344675835867086" lon="18.125107310945356"><ele>20.333333333333332</ele><time>2026-04-12T13:13:22.003Z</time></trkpt><trkpt lat="40.344484779143" lon="18.12510035909435"><ele>19.666666666666664</ele><time>2026-04-12T13:13:23.003Z</time></trkpt><trkpt lat="40.34430125315384" lon="18.12509385899084"><ele>19.0</ele><time>2026-04-12T13:13:24.003Z</time></trkpt><trkpt lat="40.34412781666517" lon="18.125088491159307"><ele>19.0</ele><time>2026-04-12T13:13:25.003Z</time></trkpt><trkpt lat="40.34396229516857" lon="18.125083868733338"><ele>19.0</ele><time>2026-04-12T13:13:26.003Z</time></trkpt><trkpt lat="40.343800584537995" lon="18.125079511757672"><ele>19.0</ele><time>2026-04-12T13:13:27.003Z</time></trkpt><trkpt lat="40.3436389310282" lon="18.125079434448825"><ele>19.0</ele><time>2026-04-12T13:13:28.003Z</time></trkpt><trkpt lat="40.34347749504926" lon="18.1250758432913"><ele>19.0</ele><time>2026-04-12T13:13:29.003Z</time></trkpt><trkpt lat="40.343325608395254" lon="18.125072186760978"><ele>19.0</ele><time>2026-04-12T13:13:30.003Z</time></trkpt><trkpt lat="40.34318019171852" lon="18.125069561577334"><ele>19.666666666666664</ele><time>2026-04-12T13:13:31.003Z</time></trkpt><trkpt lat="40.343010344414495" lon="18.12506533535491"><ele>20.333333333333332</ele><time>2026-04-12T13:13:32.003Z</time></trkpt><trkpt lat="40.342820593617446" lon="18.125065872691998"><ele>21.0</ele><time>2026-04-12T13:13:33.003Z</time></trkpt><trkpt lat="40.34263956456381" lon="18.125057630086417"><ele>21.0</ele><time>2026-04-12T13:13:34.003Z</time></trkpt><trkpt lat="40.34245356621676" lon="18.12505442119271"><ele>21.0</ele><time>2026-04-12T13:13:35.003Z</time></trkpt><trkpt lat="40.342271296840366" lon="18.125052471757897"><ele>21.0</ele><time>2026-04-12T13:13:36.003Z</time></trkpt><trkpt lat="40.342090849322226" lon="18.12504888266627"><ele>22.0</ele><time>2026-04-12T13:13:37.003Z</time></trkpt><trkpt lat="40.341909684459374" lon="18.12504523636871"><ele>23.0</ele><time>2026-04-12T13:13:38.003Z</time></trkpt><trkpt lat="40.34172811985608" lon="18.12504155315159"><ele>24.0</ele><time>2026-04-12T13:13:39.003Z</time></trkpt><trkpt lat="40.341546341682104" lon="18.125037886103648"><ele>17.0</ele><time>2026-04-12T13:13:40.003Z</time></trkpt><trkpt lat="40.33506012268305" lon="18.130475836993284"><ele>17.0</ele><time>2026-04-12T13:14:05.003Z</time></trkpt><trkpt lat="40.3346091430124" lon="18.131112920965283"><ele>17.0</ele><time>2026-04-12T13:14:07.003Z</time></trkpt><trkpt lat="40.33436673602885" lon="18.131476910589132"><ele>17.0</ele><time>2026-04-12T13:14:08.003Z</time></trkpt><trkpt lat="40.334205590614914" lon="18.131757759499028"><ele>17.0</ele><time>2026-04-12T13:14:09.003Z</time></trkpt><trkpt lat="40.33406955011569" lon="18.132020180904018"><ele>17.0</ele><time>2026-04-12T13:14:10.003Z</time></trkpt><trkpt lat="40.333940824656196" lon="18.132275052065214"><ele>18.5</ele><time>2026-04-12T13:14:11.003Z</time></trkpt><trkpt lat="40.33381339973124" lon="18.13252948420303"><ele>20.0</ele><time>2026-04-12T13:14:12.003Z</time></trkpt><trkpt lat="40.33368712516466" lon="18.13277814724434"><ele>20.0</ele><time>2026-04-12T13:14:13.003Z</time></trkpt><trkpt lat="40.33356527671604" lon="18.133025503971396"><ele>20.0</ele><time>2026-04-12T13:14:14.003Z</time></trkpt><trkpt lat="40.33343848806568" lon="18.13327057838841"><ele>20.0</ele><time>2026-04-12T13:14:15.003Z</time></trkpt><trkpt lat="40.33331505431972" lon="18.133516696294606"><ele>20.0</ele><time>2026-04-12T13:14:16.003Z</time></trkpt><trkpt lat="40.333198297569346" lon="18.133757779375575"><ele>20.0</ele><time>2026-04-12T13:14:17.003Z</time></trkpt><trkpt lat="40.33307864844562" lon="18.133998078338436"><ele>20.333333333333336</ele><time>2026-04-12T13:14:18.003Z</time></trkpt><trkpt lat="40.332957888438685" lon="18.13423783782199"><ele>20.666666666666668</ele><time>2026-04-12T13:14:19.003Z</time></trkpt><trkpt lat="40.33284111003135" lon="18.13447543513698"><ele>21.0</ele><time>2026-04-12T13:14:20.003Z</time></trkpt><trkpt lat="40.33272507654054" lon="18.134710760979043"><ele>19.666666666666668</ele><time>2026-04-12T13:14:21.003Z</time></trkpt><trkpt lat="40.3326109717748" lon="18.13494590792261"><ele>18.333333333333336</ele><time>2026-04-12T13:14:22.003Z</time></trkpt><trkpt lat="40.332502911582004" lon="18.13517772644617"><ele>17.0</ele><time>2026-04-12T13:14:23.002Z</time></trkpt><trkpt lat="40.33239421683685" lon="18.135386403207658"><ele>17.0</ele><time>2026-04-12T13:14:24.003Z</time></trkpt><trkpt lat="40.332282030718176" lon="18.135607991470163"><ele>17.0</ele><time>2026-04-12T13:14:25.003Z</time></trkpt><trkpt lat="40.3321773327016" lon="18.135828417083555"><ele>17.0</ele><time>2026-04-12T13:14:26.003Z</time></trkpt><trkpt lat="40.33206933976668" lon="18.13605086511925"><ele>18.0</ele><time>2026-04-12T13:14:27.002Z</time></trkpt><trkpt lat="40.33196373425748" lon="18.13627127078084"><ele>19.0</ele><time>2026-04-12T13:14:28.002Z</time></trkpt><trkpt lat="40.33185338653433" lon="18.136490676071524"><ele>20.0</ele><time>2026-04-12T13:14:29.003Z</time></trkpt><trkpt lat="40.33174316796989" lon="18.136707212826806"><ele>20.666666666666668</ele><time>2026-04-12T13:14:30.002Z</time></trkpt><trkpt lat="40.33163228854288" lon="18.136930288286052"><ele>21.333333333333332</ele><time>2026-04-12T13:14:31.002Z</time></trkpt><trkpt lat="40.33152231845297" lon="18.1371478529683"><ele>22.0</ele><time>2026-04-12T13:14:32.003Z</time></trkpt><trkpt lat="40.33141865751029" lon="18.137355516940552"><ele>21.666666666666664</ele><time>2026-04-12T13:14:33.002Z</time></trkpt><trkpt lat="40.331313024858794" lon="18.137561868040706"><ele>21.333333333333332</ele><time>2026-04-12T13:14:34.002Z</time></trkpt><trkpt lat="40.33120913708066" lon="18.137766803869976"><ele>21.0</ele><time>2026-04-12T13:14:35.002Z</time></trkpt><trkpt lat="40.33110513945935" lon="18.13797440284202"><ele>21.0</ele><time>2026-04-12T13:14:36.002Z</time></trkpt><trkpt lat="40.330996705434416" lon="18.138185048334133"><ele>21.0</ele><time>2026-04-12T13:14:37.002Z</time></trkpt><trkpt lat="40.33088911243209" lon="18.138398901592822"><ele>21.0</ele><time>2026-04-12T13:14:38.002Z</time></trkpt><trkpt lat="40.330787733642275" lon="18.138620521741355"><ele>21.333333333333332</ele><time>2026-04-12T13:14:39.002Z</time></trkpt><trkpt lat="40.330681339562" lon="18.13884451967216"><ele>21.666666666666664</ele><time>2026-04-12T13:14:40.002Z</time></trkpt><trkpt lat="40.33057009793095" lon="18.13906808312647"><ele>22.0</ele><time>2026-04-12T13:14:41.002Z</time></trkpt><trkpt lat="40.33046028681136" lon="18.139281655467776"><ele>22.333333333333332</ele><time>2026-04-12T13:14:42.002Z</time></trkpt><trkpt lat="40.33034689192153" lon="18.139506085621292"><ele>22.666666666666668</ele><time>2026-04-12T13:14:43.002Z</time></trkpt><trkpt lat="40.330235308186005" lon="18.13972897462633"><ele>23.0</ele><time>2026-04-12T13:14:44.002Z</time></trkpt><trkpt lat="40.33012378655055" lon="18.13995869637927"><ele>23.0</ele><time>2026-04-12T13:14:45.002Z</time></trkpt><trkpt lat="40.33001099543265" lon="18.140187576800688"><ele>23.0</ele><time>2026-04-12T13:14:46.002Z</time></trkpt><trkpt lat="40.32990106136582" lon="18.14041903834831"><ele>23.0</ele><time>2026-04-12T13:14:47.002Z</time></trkpt><trkpt lat="40.329773752979" lon="18.14063461979713"><ele>23.666666666666668</ele><time>2026-04-12T13:14:48.002Z</time></trkpt><trkpt lat="40.329619396583375" lon="18.140840656864953"><ele>24.333333333333336</ele><time>2026-04-12T13:14:49.002Z</time></trkpt><trkpt lat="40.329467461990085" lon="18.14103505085688"><ele>25.0</ele><time>2026-04-12T13:14:50.002Z</time></trkpt><trkpt lat="40.329325729688264" lon="18.1412200242412"><ele>25.0</ele><time>2026-04-12T13:14:51.002Z</time></trkpt><trkpt lat="40.329181776482116" lon="18.141395599840642"><ele>25.0</ele><time>2026-04-12T13:14:52.002Z</time></trkpt><trkpt lat="40.329029706018304" lon="18.141559993620266"><ele>25.0</ele><time>2026-04-12T13:14:53.002Z</time></trkpt><trkpt lat="40.328869718200366" lon="18.14171583464999"><ele>25.0</ele><time>2026-04-12T13:14:54.002Z</time></trkpt><trkpt lat="40.32870543709262" lon="18.14186822500102"><ele>25.0</ele><time>2026-04-12T13:14:55.002Z</time></trkpt><trkpt lat="40.32854629029671" lon="18.14202593105592"><ele>25.0</ele><time>2026-04-12T13:14:56.002Z</time></trkpt><trkpt lat="40.32839096731753" lon="18.142187670367363"><ele>25.0</ele><time>2026-04-12T13:14:57.002Z</time></trkpt><trkpt lat="40.328241693825426" lon="18.14235076861955"><ele>25.0</ele><time>2026-04-12T13:14:58.002Z</time></trkpt><trkpt lat="40.32809198602281" lon="18.142532590014014"><ele>25.0</ele><time>2026-04-12T13:14:59.002Z</time></trkpt><trkpt lat="40.3279530663394" lon="18.142717370309835"><ele>24.333333333333336</ele><time>2026-04-12T13:15:00.002Z</time></trkpt><trkpt lat="40.327821693355645" lon="18.142905212329786"><ele>23.666666666666668</ele><time>2026-04-12T13:15:01.002Z</time></trkpt><trkpt lat="40.32769626055148" lon="18.143094270369197"><ele>23.0</ele><time>2026-04-12T13:15:02.002Z</time></trkpt><trkpt lat="40.3275682813116" lon="18.143287034773415"><ele>23.0</ele><time>2026-04-12T13:15:03.002Z</time></trkpt><trkpt lat="40.327448148856206" lon="18.14349154540943"><ele>23.0</ele><time>2026-04-12T13:15:04.002Z</time></trkpt><trkpt lat="40.32733216080949" lon="18.1437032617108"><ele>23.0</ele><time>2026-04-12T13:15:05.002Z</time></trkpt><trkpt lat="40.32721645388969" lon="18.143919880966543"><ele>22.666666666666668</ele><time>2026-04-12T13:15:06.002Z</time></trkpt><trkpt lat="40.327107775095634" lon="18.14414281289601"><ele>22.333333333333332</ele><time>2026-04-12T13:15:07.002Z</time></trkpt><trkpt lat="40.32700358129131" lon="18.144372875537947"><ele>22.0</ele><time>2026-04-12T13:15:08.002Z</time></trkpt><trkpt lat="40.32690531894927" lon="18.14460802086383"><ele>22.0</ele><time>2026-04-12T13:15:09.002Z</time></trkpt><trkpt lat="40.326815953222514" lon="18.144840957827636"><ele>22.0</ele><time>2026-04-12T13:15:10.002Z</time></trkpt><trkpt lat="40.326739068464725" lon="18.14505726982476"><ele>22.0</ele><time>2026-04-12T13:15:11.002Z</time></trkpt><trkpt lat="40.326666925458916" lon="18.145266888561487"><ele>22.666666666666664</ele><time>2026-04-12T13:15:12.002Z</time></trkpt><trkpt lat="40.32659971731615" lon="18.145475479253104"><ele>23.333333333333332</ele><time>2026-04-12T13:15:13.002Z</time></trkpt><trkpt lat="40.326533020396134" lon="18.145681245902054"><ele>24.0</ele><time>2026-04-12T13:15:14.002Z</time></trkpt><trkpt lat="40.326471364084796" lon="18.14587138935358"><ele>24.333333333333336</ele><time>2026-04-12T13:15:15.002Z</time></trkpt><trkpt lat="40.32641894840726" lon="18.14606477078496"><ele>24.666666666666668</ele><time>2026-04-12T13:15:16.002Z</time></trkpt><trkpt lat="40.326372843073656" lon="18.1462485590077"><ele>25.0</ele><time>2026-04-12T13:15:17.002Z</time></trkpt><trkpt lat="40.326329148975" lon="18.146430998645044"><ele>25.5</ele><time>2026-04-12T13:15:18.002Z</time></trkpt><trkpt lat="40.32627684878636" lon="18.14659952261316"><ele>26.0</ele><time>2026-04-12T13:15:19.002Z</time></trkpt><trkpt lat="40.326220127926575" lon="18.14675544819298"><ele>26.5</ele><time>2026-04-12T13:15:20.002Z</time></trkpt><trkpt lat="40.326144603437406" lon="18.146895185627667"><ele>27.0</ele><time>2026-04-12T13:15:21.002Z</time></trkpt><trkpt lat="40.32605730446055" lon="18.147013347912086"><ele>27.0</ele><time>2026-04-12T13:15:22.002Z</time></trkpt><trkpt lat="40.32594531650155" lon="18.147103881673928"><ele>27.0</ele><time>2026-04-12T13:15:23.002Z</time></trkpt><trkpt lat="40.325806093933906" lon="18.147153592543717"><ele>27.0</ele><time>2026-04-12T13:15:24.002Z</time></trkpt><trkpt lat="40.325638173229805" lon="18.147175796330334"><ele>27.0</ele><time>2026-04-12T13:15:25.002Z</time></trkpt><trkpt lat="40.325454061301215" lon="18.14718693631127"><ele>26.0</ele><time>2026-04-12T13:15:26.002Z</time></trkpt><trkpt lat="40.32524253012715" lon="18.147191535788572"><ele>25.0</ele><time>2026-04-12T13:15:27.002Z</time></trkpt><trkpt lat="40.32501756692117" lon="18.147189853359958"><ele>24.0</ele><time>2026-04-12T13:15:28.002Z</time></trkpt><trkpt lat="40.32477757927111" lon="18.1471972330808"><ele>23.0</ele><time>2026-04-12T13:15:29.002Z</time></trkpt><trkpt lat="40.32451902452242" lon="18.14721120316061"><ele>22.0</ele><time>2026-04-12T13:15:30.002Z</time></trkpt><trkpt lat="40.32426043246137" lon="18.147228384056465"><ele>22.0</ele><time>2026-04-12T13:15:31.002Z</time></trkpt><trkpt lat="40.32402576341116" lon="18.147239220158525"><ele>22.0</ele><time>2026-04-12T13:15:32.002Z</time></trkpt><trkpt lat="40.32383521968876" lon="18.147242844334055"><ele>22.0</ele><time>2026-04-12T13:15:33.002Z</time></trkpt><trkpt lat="40.32367899728696" lon="18.14724732092317"><ele>22.0</ele><time>2026-04-12T13:15:34.002Z</time></trkpt><trkpt lat="40.3235474040096" lon="18.147258170367426"><ele>22.0</ele><time>2026-04-12T13:15:35.002Z</time></trkpt><trkpt lat="40.32341740920575" lon="18.14728487483123"><ele>22.0</ele><time>2026-04-12T13:15:36.002Z</time></trkpt><trkpt lat="40.3232983986553" lon="18.14735190195367"><ele>22.0</ele><time>2026-04-12T13:15:37.002Z</time></trkpt><trkpt lat="40.32320396961008" lon="18.147458716873622"><ele>22.75</ele><time>2026-04-12T13:15:38.002Z</time></trkpt><trkpt lat="40.32312638513641" lon="18.147597568536582"><ele>23.5</ele><time>2026-04-12T13:15:39.002Z</time></trkpt><trkpt lat="40.32306539488094" lon="18.147746630403233"><ele>24.25</ele><time>2026-04-12T13:15:40.002Z</time></trkpt><trkpt lat="40.322994527545795" lon="18.14788477002262"><ele>25.0</ele><time>2026-04-12T13:15:41.002Z</time></trkpt><trkpt lat="40.32291001730467" lon="18.147975222949036"><ele>25.25</ele><time>2026-04-12T13:15:42.002Z</time></trkpt><trkpt lat="40.32279842254236" lon="18.14802852316498"><ele>25.5</ele><time>2026-04-12T13:15:43.002Z</time></trkpt><trkpt lat="40.32266251556381" lon="18.148028107293392"><ele>25.75</ele><time>2026-04-12T13:15:44.002Z</time></trkpt><trkpt lat="40.32252458919879" lon="18.147991987978823"><ele>26.0</ele><time>2026-04-12T13:15:45.002Z</time></trkpt><trkpt lat="40.32238043987123" lon="18.147927784705384"><ele>25.333333333333332</ele><time>2026-04-12T13:15:46.002Z</time></trkpt><trkpt lat="40.322211945987725" lon="18.147833176545614"><ele>24.666666666666664</ele><time>2026-04-12T13:15:47.002Z</time></trkpt><trkpt lat="40.32203059691424" lon="18.147733572959236"><ele>24.0</ele><time>2026-04-12T13:15:48.002Z</time></trkpt><trkpt lat="40.321829798133294" lon="18.147635598352238"><ele>24.0</ele><time>2026-04-12T13:15:49.002Z</time></trkpt><trkpt lat="40.321615115466464" lon="18.14753094627785"><ele>24.0</ele><time>2026-04-12T13:15:50.002Z</time></trkpt><trkpt lat="40.3213921000421" lon="18.14741960603642"><ele>23.0</ele><time>2026-04-12T13:15:51.002Z</time></trkpt><trkpt lat="40.321156855856806" lon="18.147297836125265"><ele>22.0</ele><time>2026-04-12T13:15:52.002Z</time></trkpt><trkpt lat="40.32092011870464" lon="18.147168835616974"><ele>22.0</ele><time>2026-04-12T13:15:53.002Z</time></trkpt><trkpt lat="40.3206771164223" lon="18.14703726499807"><ele>22.0</ele><time>2026-04-12T13:15:54.002Z</time></trkpt><trkpt lat="40.320433642897555" lon="18.14690944329328"><ele>22.5</ele><time>2026-04-12T13:15:55.002Z</time></trkpt><trkpt lat="40.32018677346522" lon="18.14678519668662"><ele>23.0</ele><time>2026-04-12T13:15:56.002Z</time></trkpt><trkpt lat="40.319937676932796" lon="18.146654513030334"><ele>22.5</ele><time>2026-04-12T13:15:57.002Z</time></trkpt><trkpt lat="40.31968877954464" lon="18.146523783988663"><ele>22.0</ele><time>2026-04-12T13:15:58.002Z</time></trkpt><trkpt lat="40.31944181108437" lon="18.146400623959448"><ele>22.0</ele><time>2026-04-12T13:15:59.002Z</time></trkpt><trkpt lat="40.319192414454285" lon="18.146285331046403"><ele>22.0</ele><time>2026-04-12T13:16:00.002Z</time></trkpt><trkpt lat="40.318944427077554" lon="18.146171648268222"><ele>22.5</ele><time>2026-04-12T13:16:01.002Z</time></trkpt><trkpt lat="40.31869655761425" lon="18.14605357197119"><ele>23.0</ele><time>2026-04-12T13:16:02.002Z</time></trkpt><trkpt lat="40.318457245588995" lon="18.145928787013634"><ele>23.0</ele><time>2026-04-12T13:16:03.002Z</time></trkpt><trkpt lat="40.318217023504275" lon="18.145801365761418"><ele>23.0</ele><time>2026-04-12T13:16:04.002Z</time></trkpt><trkpt lat="40.31798131860733" lon="18.14566850917137"><ele>26.5</ele><time>2026-04-12T13:16:05.002Z</time></trkpt><trkpt lat="40.317752268185615" lon="18.145526793769086"><ele>30.0</ele><time>2026-04-12T13:16:06.002Z</time></trkpt><trkpt lat="40.31753349096624" lon="18.145365962621476"><ele>30.0</ele><time>2026-04-12T13:16:07.002Z</time></trkpt><trkpt lat="40.31732164083891" lon="18.145192009727356"><ele>30.0</ele><time>2026-04-12T13:16:08.002Z</time></trkpt><trkpt lat="40.31712046836853" lon="18.145001687779317"><ele>31.0</ele><time>2026-04-12T13:16:09.002Z</time></trkpt><trkpt lat="40.31692946757657" lon="18.144805521220352"><ele>32.0</ele><time>2026-04-12T13:16:10.002Z</time></trkpt><trkpt lat="40.316749468779676" lon="18.144596563133998"><ele>32.0</ele><time>2026-04-12T13:16:11.002Z</time></trkpt><trkpt lat="40.316580920324576" lon="18.144372698496564"><ele>32.0</ele><time>2026-04-12T13:16:12.002Z</time></trkpt><trkpt lat="40.316422831458986" lon="18.144137780857065"><ele>33.0</ele><time>2026-04-12T13:16:13.002Z</time></trkpt><trkpt lat="40.31627191735746" lon="18.143893889267485"><ele>34.0</ele><time>2026-04-12T13:16:14.002Z</time></trkpt><trkpt lat="40.316133433898514" lon="18.14364812702944"><ele>34.0</ele><time>2026-04-12T13:16:15.002Z</time></trkpt><trkpt lat="40.31600644950254" lon="18.143391663902754"><ele>34.0</ele><time>2026-04-12T13:16:16.002Z</time></trkpt><trkpt lat="40.31588602804314" lon="18.14313182944382"><ele>35.0</ele><time>2026-04-12T13:16:17.002Z</time></trkpt><trkpt lat="40.315770831839345" lon="18.142872816398683"><ele>36.0</ele><time>2026-04-12T13:16:18.002Z</time></trkpt><trkpt lat="40.315656852018435" lon="18.142614400621035"><ele>35.5</ele><time>2026-04-12T13:16:19.002Z</time></trkpt><trkpt lat="40.3155416715046" lon="18.142356932015602"><ele>35.0</ele><time>2026-04-12T13:16:20.002Z</time></trkpt><trkpt lat="40.315423726566145" lon="18.142102797125116"><ele>35.0</ele><time>2026-04-12T13:16:21.002Z</time></trkpt><trkpt lat="40.31530661244619" lon="18.141848857330437"><ele>35.0</ele><time>2026-04-12T13:16:22.002Z</time></trkpt><trkpt lat="40.31518918418005" lon="18.1415922938316"><ele>34.5</ele><time>2026-04-12T13:16:23.002Z</time></trkpt><trkpt lat="40.31507531257315" lon="18.141335527474673"><ele>34.0</ele><time>2026-04-12T13:16:24.002Z</time></trkpt><trkpt lat="40.3149568701792" lon="18.141080181249627"><ele>34.0</ele><time>2026-04-12T13:16:25.002Z</time></trkpt><trkpt lat="40.31483721242219" lon="18.140826571999423"><ele>34.0</ele><time>2026-04-12T13:16:26.002Z</time></trkpt><trkpt lat="40.314719637164764" lon="18.140574224370372"><ele>35.0</ele><time>2026-04-12T13:16:27.002Z</time></trkpt><trkpt lat="40.314606520665485" lon="18.14031880443897"><ele>36.0</ele><time>2026-04-12T13:16:28.002Z</time></trkpt><trkpt lat="40.31449283981594" lon="18.14006026434961"><ele>36.0</ele><time>2026-04-12T13:16:29.001Z</time></trkpt><trkpt lat="40.31437402896897" lon="18.13980097232359"><ele>36.0</ele><time>2026-04-12T13:16:30.001Z</time></trkpt><trkpt lat="40.314252275524424" lon="18.139550596247243"><ele>36.0</ele><time>2026-04-12T13:16:31.001Z</time></trkpt><trkpt lat="40.31412885811021" lon="18.139306954047083"><ele>36.0</ele><time>2026-04-12T13:16:32.002Z</time></trkpt><trkpt lat="40.31400679108809" lon="18.139069904284195"><ele>36.0</ele><time>2026-04-12T13:16:33.002Z</time></trkpt><trkpt lat="40.3138800777988" lon="18.138840918675278"><ele>35.666666666666664</ele><time>2026-04-12T13:16:34.002Z</time></trkpt><trkpt lat="40.31373747118547" lon="18.138616621411543"><ele>35.33333333333333</ele><time>2026-04-12T13:16:35.001Z</time></trkpt><trkpt lat="40.31358648282244" lon="18.138404112239197"><ele>35.0</ele><time>2026-04-12T13:16:36.001Z</time></trkpt><trkpt lat="40.313423533682666" lon="18.138200712623448"><ele>35.0</ele><time>2026-04-12T13:16:37.001Z</time></trkpt><trkpt lat="40.31325488976922" lon="18.138005821362732"><ele>35.0</ele><time>2026-04-12T13:16:38.001Z</time></trkpt><trkpt lat="40.313076235955144" lon="18.137822148485576"><ele>35.5</ele><time>2026-04-12T13:16:39.001Z</time></trkpt><trkpt lat="40.31288848266947" lon="18.137654657927527"><ele>36.0</ele><time>2026-04-12T13:16:40.001Z</time></trkpt><trkpt lat="40.312690706325334" lon="18.137505235543973"><ele>35.0</ele><time>2026-04-12T13:16:41.001Z</time></trkpt><trkpt lat="40.31248565759333" lon="18.137374844010097"><ele>34.0</ele><time>2026-04-12T13:16:42.001Z</time></trkpt><trkpt lat="40.31227945828864" lon="18.137255201956744"><ele>34.0</ele><time>2026-04-12T13:16:43.001Z</time></trkpt><trkpt lat="40.312063343651026" lon="18.137148833424693"><ele>34.0</ele><time>2026-04-12T13:16:44.001Z</time></trkpt><trkpt lat="40.31184464227218" lon="18.13705440130474"><ele>34.0</ele><time>2026-04-12T13:16:45.001Z</time></trkpt><trkpt lat="40.31162214376786" lon="18.136975694310685"><ele>34.0</ele><time>2026-04-12T13:16:46.001Z</time></trkpt><trkpt lat="40.311396261664214" lon="18.136901743127193"><ele>35.0</ele><time>2026-04-12T13:16:47.001Z</time></trkpt><trkpt lat="40.31116873473899" lon="18.13682801947342"><ele>36.0</ele><time>2026-04-12T13:16:48.001Z</time></trkpt><trkpt lat="40.31094089923777" lon="18.136752352472197"><ele>36.0</ele><time>2026-04-12T13:16:49.001Z</time></trkpt><trkpt lat="40.310711408831516" lon="18.136674837454756"><ele>36.0</ele><time>2026-04-12T13:16:50.001Z</time></trkpt><trkpt lat="40.310481092099565" lon="18.13659646470588"><ele>35.0</ele><time>2026-04-12T13:16:51.001Z</time></trkpt><trkpt lat="40.31024921819684" lon="18.136518969937832"><ele>34.0</ele><time>2026-04-12T13:16:52.001Z</time></trkpt><trkpt lat="40.31001714627153" lon="18.136439427928824"><ele>34.0</ele><time>2026-04-12T13:16:53.001Z</time></trkpt><trkpt lat="40.30978615274149" lon="18.13636021878265"><ele>34.0</ele><time>2026-04-12T13:16:54.001Z</time></trkpt><trkpt lat="40.30955533765239" lon="18.136280145728847"><ele>35.0</ele><time>2026-04-12T13:16:55.001Z</time></trkpt><trkpt lat="40.30932571255246" lon="18.136203492471708"><ele>36.0</ele><time>2026-04-12T13:16:56.001Z</time></trkpt><trkpt lat="40.30909701754667" lon="18.136121720237657"><ele>36.0</ele><time>2026-04-12T13:16:57.001Z</time></trkpt><trkpt lat="40.30886547208575" lon="18.13604186611069"><ele>36.0</ele><time>2026-04-12T13:16:58.001Z</time></trkpt><trkpt lat="40.308637851678775" lon="18.135962587632925"><ele>36.0</ele><time>2026-04-12T13:16:59.001Z</time></trkpt><trkpt lat="40.30840639133459" lon="18.135886829666735"><ele>36.0</ele><time>2026-04-12T13:17:00.001Z</time></trkpt><trkpt lat="40.30817382715349" lon="18.13580682533365"><ele>36.5</ele><time>2026-04-12T13:17:01.001Z</time></trkpt><trkpt lat="40.30794031951935" lon="18.135724955917222"><ele>37.0</ele><time>2026-04-12T13:17:02.001Z</time></trkpt><trkpt lat="40.30770376027602" lon="18.13563996795278"><ele>37.5</ele><time>2026-04-12T13:17:03.001Z</time></trkpt><trkpt lat="40.30746547343633" lon="18.135561239083884"><ele>38.0</ele><time>2026-04-12T13:17:04.001Z</time></trkpt><trkpt lat="40.30723086682903" lon="18.13547713163751"><ele>39.5</ele><time>2026-04-12T13:17:05.001Z</time></trkpt><trkpt lat="40.3069969657377" lon="18.135388191012076"><ele>41.0</ele><time>2026-04-12T13:17:06.001Z</time></trkpt><trkpt lat="40.30676560453031" lon="18.135303324146143"><ele>41.0</ele><time>2026-04-12T13:17:07.001Z</time></trkpt><trkpt lat="40.30653646863668" lon="18.135220275140444"><ele>41.0</ele><time>2026-04-12T13:17:08.001Z</time></trkpt><trkpt lat="40.306305226193" lon="18.135134939522604"><ele>41.0</ele><time>2026-04-12T13:17:09.001Z</time></trkpt><trkpt lat="40.30607625681383" lon="18.135052383393408"><ele>41.0</ele><time>2026-04-12T13:17:10.001Z</time></trkpt><trkpt lat="40.30584679110032" lon="18.134972028613593"><ele>41.0</ele><time>2026-04-12T13:17:11.001Z</time></trkpt><trkpt lat="40.30562207291708" lon="18.13489488147576"><ele>41.0</ele><time>2026-04-12T13:17:12.001Z</time></trkpt><trkpt lat="40.30539605518166" lon="18.134816629771166"><ele>41.0</ele><time>2026-04-12T13:17:13.001Z</time></trkpt><trkpt lat="40.30516826132385" lon="18.13473997460835"><ele>41.0</ele><time>2026-04-12T13:17:14.001Z</time></trkpt><trkpt lat="40.30493889566527" lon="18.13466206453257"><ele>41.0</ele><time>2026-04-12T13:17:15.001Z</time></trkpt><trkpt lat="40.30471273755806" lon="18.13458317565927"><ele>41.0</ele><time>2026-04-12T13:17:16.001Z</time></trkpt><trkpt lat="40.304484099668" lon="18.134503427794154"><ele>41.0</ele><time>2026-04-12T13:17:17.001Z</time></trkpt><trkpt lat="40.304256041216966" lon="18.134421971555525"><ele>41.0</ele><time>2026-04-12T13:17:18.001Z</time></trkpt><trkpt lat="40.304024200567476" lon="18.134331414389063"><ele>42.0</ele><time>2026-04-12T13:17:19.001Z</time></trkpt><trkpt lat="40.30379620683491" lon="18.13423232464968"><ele>43.0</ele><time>2026-04-12T13:17:20.001Z</time></trkpt><trkpt lat="40.303570967613055" lon="18.134132375092133"><ele>43.0</ele><time>2026-04-12T13:17:21.001Z</time></trkpt><trkpt lat="40.303344105586596" lon="18.13403271699472"><ele>43.0</ele><time>2026-04-12T13:17:22.001Z</time></trkpt><trkpt lat="40.30311901935471" lon="18.133938555170136"><ele>42.0</ele><time>2026-04-12T13:17:23.001Z</time></trkpt><trkpt lat="40.302896865061946" lon="18.13384702383611"><ele>41.0</ele><time>2026-04-12T13:17:24.001Z</time></trkpt><trkpt lat="40.302672676301505" lon="18.13375802560179"><ele>41.0</ele><time>2026-04-12T13:17:25.001Z</time></trkpt><trkpt lat="40.30244944521017" lon="18.133668292181895"><ele>41.0</ele><time>2026-04-12T13:17:26.001Z</time></trkpt><trkpt lat="40.302229999215825" lon="18.1335766651105"><ele>40.5</ele><time>2026-04-12T13:17:27.001Z</time></trkpt><trkpt lat="40.30201365886941" lon="18.133479125343452"><ele>40.0</ele><time>2026-04-12T13:17:28.001Z</time></trkpt><trkpt lat="40.30179808003478" lon="18.133373185192845"><ele>40.0</ele><time>2026-04-12T13:17:29.001Z</time></trkpt><trkpt lat="40.301579795523324" lon="18.13327101830283"><ele>40.0</ele><time>2026-04-12T13:17:30.001Z</time></trkpt><trkpt lat="40.3013633960087" lon="18.133169791749594"><ele>38.5</ele><time>2026-04-12T13:17:31.001Z</time></trkpt><trkpt lat="40.30114584316759" lon="18.13306599581132"><ele>37.0</ele><time>2026-04-12T13:17:32.001Z</time></trkpt><trkpt lat="40.300926503083225" lon="18.13295839300523"><ele>37.0</ele><time>2026-04-12T13:17:33.001Z</time></trkpt><trkpt lat="40.30071043289495" lon="18.1328544848558"><ele>37.0</ele><time>2026-04-12T13:17:34.001Z</time></trkpt><trkpt lat="40.30049441795757" lon="18.132751627073986"><ele>38.0</ele><time>2026-04-12T13:17:35.001Z</time></trkpt><trkpt lat="40.300275892026086" lon="18.1326537917372"><ele>39.0</ele><time>2026-04-12T13:17:36.001Z</time></trkpt><trkpt lat="40.30005749193901" lon="18.13256328063001"><ele>39.0</ele><time>2026-04-12T13:17:37.001Z</time></trkpt><trkpt lat="40.29984124290195" lon="18.132476047708053"><ele>39.0</ele><time>2026-04-12T13:17:38.001Z</time></trkpt><trkpt lat="40.29962339547332" lon="18.132396727412097"><ele>39.0</ele><time>2026-04-12T13:17:39.001Z</time></trkpt><trkpt lat="40.29940211517911" lon="18.13233463039909"><ele>39.0</ele><time>2026-04-12T13:17:40.001Z</time></trkpt><trkpt lat="40.29917840420079" lon="18.132276429726534"><ele>39.0</ele><time>2026-04-12T13:17:41.001Z</time></trkpt><trkpt lat="40.298951404156135" lon="18.13222204285774"><ele>39.0</ele><time>2026-04-12T13:17:42.001Z</time></trkpt><trkpt lat="40.298723558799914" lon="18.13217787516304"><ele>40.5</ele><time>2026-04-12T13:17:43.001Z</time></trkpt><trkpt lat="40.2984945726164" lon="18.132139026819868"><ele>42.0</ele><time>2026-04-12T13:17:44.001Z</time></trkpt><trkpt lat="40.29826684873396" lon="18.13210388018774"><ele>42.0</ele><time>2026-04-12T13:17:45.001Z</time></trkpt><trkpt lat="40.29804184947992" lon="18.13207997259747"><ele>42.0</ele><time>2026-04-12T13:17:46.001Z</time></trkpt><trkpt lat="40.29781390554979" lon="18.13206761238261"><ele>42.0</ele><time>2026-04-12T13:17:47.001Z</time></trkpt><trkpt lat="40.29758116825768" lon="18.132057648063356"><ele>42.0</ele><time>2026-04-12T13:17:48.001Z</time></trkpt><trkpt lat="40.297349624782505" lon="18.13205394557935"><ele>43.0</ele><time>2026-04-12T13:17:49.001Z</time></trkpt><trkpt lat="40.29711885970006" lon="18.132058240058072"><ele>44.0</ele><time>2026-04-12T13:17:50.001Z</time></trkpt><trkpt lat="40.29689051384543" lon="18.132072332882615"><ele>44.0</ele><time>2026-04-12T13:17:51.001Z</time></trkpt><trkpt lat="40.29666168246137" lon="18.13209321095522"><ele>44.0</ele><time>2026-04-12T13:17:52.001Z</time></trkpt><trkpt lat="40.296431716116025" lon="18.1321233153044"><ele>44.0</ele><time>2026-04-12T13:17:53.001Z</time></trkpt><trkpt lat="40.29620406716767" lon="18.132160164003142"><ele>44.0</ele><time>2026-04-12T13:17:54.001Z</time></trkpt><trkpt lat="40.2959763834585" lon="18.132205277834807"><ele>44.0</ele><time>2026-04-12T13:17:55.001Z</time></trkpt><trkpt lat="40.295749161751885" lon="18.132250722127708"><ele>44.0</ele><time>2026-04-12T13:17:56.001Z</time></trkpt><trkpt lat="40.29552140907943" lon="18.132295242896458"><ele>44.0</ele><time>2026-04-12T13:17:57.001Z</time></trkpt><trkpt lat="40.29529242221977" lon="18.132337148423364"><ele>44.0</ele><time>2026-04-12T13:17:58.001Z</time></trkpt><trkpt lat="40.29506347305135" lon="18.132374402196643"><ele>43.5</ele><time>2026-04-12T13:17:59.001Z</time></trkpt><trkpt lat="40.29483677213831" lon="18.132410843467195"><ele>43.0</ele><time>2026-04-12T13:18:00.001Z</time></trkpt><trkpt lat="40.29461080753905" lon="18.13244584699017"><ele>44.0</ele><time>2026-04-12T13:18:01.001Z</time></trkpt><trkpt lat="40.2943833947821" lon="18.132480904420337"><ele>45.0</ele><time>2026-04-12T13:18:02.001Z</time></trkpt><trkpt lat="40.29415414333905" lon="18.132515415430408"><ele>45.0</ele><time>2026-04-12T13:18:03.001Z</time></trkpt><trkpt lat="40.293929301811694" lon="18.132555411076197"><ele>45.0</ele><time>2026-04-12T13:18:04.001Z</time></trkpt><trkpt lat="40.29370156694793" lon="18.132595622024283"><ele>46.5</ele><time>2026-04-12T13:18:05.001Z</time></trkpt><trkpt lat="40.29347379451453" lon="18.132634914070085"><ele>48.0</ele><time>2026-04-12T13:18:06.001Z</time></trkpt><trkpt lat="40.29324667504802" lon="18.13267304799053"><ele>49.0</ele><time>2026-04-12T13:18:07.001Z</time></trkpt><trkpt lat="40.293016387811804" lon="18.132709309148233"><ele>50.0</ele><time>2026-04-12T13:18:08.001Z</time></trkpt><trkpt lat="40.29278675830395" lon="18.13274479898082"><ele>50.0</ele><time>2026-04-12T13:18:09.001Z</time></trkpt><trkpt lat="40.29255666446597" lon="18.132782904917857"><ele>50.0</ele><time>2026-04-12T13:18:10.001Z</time></trkpt><trkpt lat="40.29232569663657" lon="18.132819327090843"><ele>50.5</ele><time>2026-04-12T13:18:11.001Z</time></trkpt><trkpt lat="40.2920978769534" lon="18.132863169809827"><ele>51.0</ele><time>2026-04-12T13:18:12.001Z</time></trkpt><trkpt lat="40.291873691081946" lon="18.132907655437535"><ele>51.0</ele><time>2026-04-12T13:18:13.001Z</time></trkpt><trkpt lat="40.29164700142882" lon="18.132952369866455"><ele>51.0</ele><time>2026-04-12T13:18:14.001Z</time></trkpt><trkpt lat="40.29141990095721" lon="18.132992497771735"><ele>51.5</ele><time>2026-04-12T13:18:15.001Z</time></trkpt><trkpt lat="40.2911923753792" lon="18.13301607382805"><ele>52.0</ele><time>2026-04-12T13:18:16.001Z</time></trkpt><trkpt lat="40.29096040820831" lon="18.133033469271968"><ele>52.0</ele><time>2026-04-12T13:18:17.001Z</time></trkpt><trkpt lat="40.29073087700489" lon="18.133034653249208"><ele>52.0</ele><time>2026-04-12T13:18:18.001Z</time></trkpt><trkpt lat="40.29050098060087" lon="18.133019778314086"><ele>51.5</ele><time>2026-04-12T13:18:19.001Z</time></trkpt><trkpt lat="40.2902750148706" lon="18.132988393893797"><ele>51.0</ele><time>2026-04-12T13:18:20.001Z</time></trkpt><trkpt lat="40.29004890604748" lon="18.132940789199456"><ele>51.0</ele><time>2026-04-12T13:18:21.001Z</time></trkpt><trkpt lat="40.289826275426385" lon="18.132877525352338"><ele>51.0</ele><time>2026-04-12T13:18:22.001Z</time></trkpt><trkpt lat="40.28960482248212" lon="18.132799890997276"><ele>51.5</ele><time>2026-04-12T13:18:23.001Z</time></trkpt><trkpt lat="40.289383771183246" lon="18.1327086078725"><ele>52.0</ele><time>2026-04-12T13:18:24.001Z</time></trkpt><trkpt lat="40.28916548599179" lon="18.132615332820265"><ele>52.0</ele><time>2026-04-12T13:18:25.001Z</time></trkpt><trkpt lat="40.2889527130298" lon="18.132521559346237"><ele>52.0</ele><time>2026-04-12T13:18:26.001Z</time></trkpt><trkpt lat="40.28873567613087" lon="18.13242758818789"><ele>49.5</ele><time>2026-04-12T13:18:27.001Z</time></trkpt><trkpt lat="40.28851566905589" lon="18.132328623728075"><ele>47.0</ele><time>2026-04-12T13:18:28.001Z</time></trkpt><trkpt lat="40.288298209465744" lon="18.13222865327595"><ele>47.5</ele><time>2026-04-12T13:18:29.001Z</time></trkpt><trkpt lat="40.28807953924326" lon="18.13212854419825"><ele>48.0</ele><time>2026-04-12T13:18:30.001Z</time></trkpt><trkpt lat="40.287862072463376" lon="18.132032132509412"><ele>48.0</ele><time>2026-04-12T13:18:31.001Z</time></trkpt><trkpt lat="40.287643299076386" lon="18.131939949560262"><ele>48.0</ele><time>2026-04-12T13:18:32.001Z</time></trkpt><trkpt lat="40.28742722260003" lon="18.13184226660623"><ele>48.5</ele><time>2026-04-12T13:18:33.001Z</time></trkpt><trkpt lat="40.28721105028022" lon="18.131742253639025"><ele>49.0</ele><time>2026-04-12T13:18:34.001Z</time></trkpt><trkpt lat="40.286993029218664" lon="18.131639303271438"><ele>48.5</ele><time>2026-04-12T13:18:35.001Z</time></trkpt><trkpt lat="40.28677813807404" lon="18.13154173764976"><ele>48.0</ele><time>2026-04-12T13:18:36.001Z</time></trkpt><trkpt lat="40.286560743007115" lon="18.131445688237676"><ele>48.5</ele><time>2026-04-12T13:18:37.001Z</time></trkpt><trkpt lat="40.28634476855403" lon="18.131349040034483"><ele>49.0</ele><time>2026-04-12T13:18:38.001Z</time></trkpt><trkpt lat="40.28612987873804" lon="18.131255451177122"><ele>49.0</ele><time>2026-04-12T13:18:39Z</time></trkpt><trkpt lat="40.28591356598323" lon="18.131159736208602"><ele>49.0</ele><time>2026-04-12T13:18:40Z</time></trkpt><trkpt lat="40.285700825806906" lon="18.131063448820637"><ele>49.5</ele><time>2026-04-12T13:18:41.001Z</time></trkpt><trkpt lat="40.285483404602445" lon="18.13097323914012"><ele>50.0</ele><time>2026-04-12T13:18:42.001Z</time></trkpt><trkpt lat="40.28526555205979" lon="18.130880106881396"><ele>50.0</ele><time>2026-04-12T13:18:43.001Z</time></trkpt><trkpt lat="40.28504197740816" lon="18.130787623157023"><ele>50.0</ele><time>2026-04-12T13:18:44.001Z</time></trkpt><trkpt lat="40.2848235485539" lon="18.130689529083018"><ele>48.5</ele><time>2026-04-12T13:18:45Z</time></trkpt><trkpt lat="40.284606972987014" lon="18.130590722457963"><ele>47.0</ele><time>2026-04-12T13:18:46Z</time></trkpt><trkpt lat="40.28439097832437" lon="18.13048977421812"><ele>47.0</ele><time>2026-04-12T13:18:47Z</time></trkpt><trkpt lat="40.28417418315457" lon="18.130386253515738"><ele>47.0</ele><time>2026-04-12T13:18:48Z</time></trkpt><trkpt lat="40.283959083513224" lon="18.130285251163865"><ele>47.5</ele><time>2026-04-12T13:18:49Z</time></trkpt><trkpt lat="40.28374155484566" lon="18.130187796851853"><ele>48.0</ele><time>2026-04-12T13:18:50Z</time></trkpt><trkpt lat="40.28352537612969" lon="18.13009516827527"><ele>48.0</ele><time>2026-04-12T13:18:51Z</time></trkpt><trkpt lat="40.28330810911877" lon="18.13000339401798"><ele>48.0</ele><time>2026-04-12T13:18:52Z</time></trkpt><trkpt lat="40.28309020370514" lon="18.129909980506838"><ele>47.5</ele><time>2026-04-12T13:18:53Z</time></trkpt><trkpt lat="40.28287323985902" lon="18.129814665538206"><ele>47.0</ele><time>2026-04-12T13:18:54Z</time></trkpt><trkpt lat="40.28265608903603" lon="18.12972014348986"><ele>47.0</ele><time>2026-04-12T13:18:55Z</time></trkpt><trkpt lat="40.28243982506591" lon="18.12962525432029"><ele>47.0</ele><time>2026-04-12T13:18:56Z</time></trkpt><trkpt lat="40.282226501587004" lon="18.12952860675414"><ele>47.5</ele><time>2026-04-12T13:18:57Z</time></trkpt><trkpt lat="40.28201110732878" lon="18.129430167576768"><ele>48.0</ele><time>2026-04-12T13:18:58Z</time></trkpt><trkpt lat="40.28179541961894" lon="18.12933242897233"><ele>48.0</ele><time>2026-04-12T13:18:59Z</time></trkpt><trkpt lat="40.281577949610046" lon="18.129234931603254"><ele>48.0</ele><time>2026-04-12T13:19:00Z</time></trkpt><trkpt lat="40.28136060771187" lon="18.12913839840392"><ele>48.5</ele><time>2026-04-12T13:19:01Z</time></trkpt><trkpt lat="40.28114326442224" lon="18.1290468343898"><ele>49.0</ele><time>2026-04-12T13:19:02Z</time></trkpt><trkpt lat="40.28092409847" lon="18.12895462150516"><ele>49.0</ele><time>2026-04-12T13:19:03Z</time></trkpt><trkpt lat="40.28070606562134" lon="18.128863102706255"><ele>49.0</ele><time>2026-04-12T13:19:04Z</time></trkpt><trkpt lat="40.28048731922083" lon="18.128772991889797"><ele>49.5</ele><time>2026-04-12T13:19:05Z</time></trkpt><trkpt lat="40.28026956838294" lon="18.12867497007424"><ele>50.0</ele><time>2026-04-12T13:19:06Z</time></trkpt><trkpt lat="40.280052883642384" lon="18.12857788627934"><ele>50.0</ele><time>2026-04-12T13:19:07Z</time></trkpt><trkpt lat="40.27983537969932" lon="18.128479339943492"><ele>50.0</ele><time>2026-04-12T13:19:08Z</time></trkpt><trkpt lat="40.27961753603455" lon="18.128381293230316"><ele>49.5</ele><time>2026-04-12T13:19:09Z</time></trkpt><trkpt lat="40.27940084472328" lon="18.1282853272686"><ele>49.0</ele><time>2026-04-12T13:19:10Z</time></trkpt><trkpt lat="40.27918305013776" lon="18.128190548488483"><ele>49.0</ele><time>2026-04-12T13:19:11Z</time></trkpt><trkpt lat="40.27896522900797" lon="18.128096338354773"><ele>49.0</ele><time>2026-04-12T13:19:12Z</time></trkpt><trkpt lat="40.278744023189155" lon="18.128000357784405"><ele>49.0</ele><time>2026-04-12T13:19:13Z</time></trkpt><trkpt lat="40.278526349927105" lon="18.127900903007784"><ele>49.0</ele><time>2026-04-12T13:19:14Z</time></trkpt><trkpt lat="40.27831055383855" lon="18.127796352643205"><ele>52.5</ele><time>2026-04-12T13:19:15Z</time></trkpt><trkpt lat="40.2780937673295" lon="18.12769368937128"><ele>56.0</ele><time>2026-04-12T13:19:16Z</time></trkpt><trkpt lat="40.27787448721007" lon="18.127592552344254"><ele>56.0</ele><time>2026-04-12T13:19:17Z</time></trkpt><trkpt lat="40.27765338714378" lon="18.127491718953024"><ele>56.0</ele><time>2026-04-12T13:19:18Z</time></trkpt><trkpt lat="40.27743354089832" lon="18.127392608494603"><ele>54.5</ele><time>2026-04-12T13:19:19Z</time></trkpt><trkpt lat="40.27721565381818" lon="18.127292319186008"><ele>53.0</ele><time>2026-04-12T13:19:20Z</time></trkpt><trkpt lat="40.2769994607147" lon="18.127193711496183"><ele>53.0</ele><time>2026-04-12T13:19:21Z</time></trkpt><trkpt lat="40.27678107999916" lon="18.127094146169572"><ele>53.0</ele><time>2026-04-12T13:19:22Z</time></trkpt><trkpt lat="40.2765615893488" lon="18.12699583396332"><ele>51.0</ele><time>2026-04-12T13:19:23Z</time></trkpt><trkpt lat="40.27634383044888" lon="18.12689296146855"><ele>49.0</ele><time>2026-04-12T13:19:24Z</time></trkpt><trkpt lat="40.27612463850321" lon="18.126793998036447"><ele>49.0</ele><time>2026-04-12T13:19:25Z</time></trkpt><trkpt lat="40.275907414191934" lon="18.126697388719304"><ele>49.0</ele><time>2026-04-12T13:19:26Z</time></trkpt><trkpt lat="40.27568821945748" lon="18.12660023012271"><ele>48.5</ele><time>2026-04-12T13:19:27Z</time></trkpt><trkpt lat="40.275470097141834" lon="18.12650765399121"><ele>48.0</ele><time>2026-04-12T13:19:28Z</time></trkpt><trkpt lat="40.27525342937933" lon="18.126416333499616"><ele>48.0</ele><time>2026-04-12T13:19:29Z</time></trkpt><trkpt lat="40.27503635681984" lon="18.126324088590554"><ele>48.0</ele><time>2026-04-12T13:19:30Z</time></trkpt><trkpt lat="40.27481916600886" lon="18.126230470610196"><ele>46.0</ele><time>2026-04-12T13:19:31Z</time></trkpt><trkpt lat="40.27460173169019" lon="18.126137358102067"><ele>44.0</ele><time>2026-04-12T13:19:32Z</time></trkpt><trkpt lat="40.27438717616427" lon="18.126044346728015"><ele>44.0</ele><time>2026-04-12T13:19:33Z</time></trkpt><trkpt lat="40.27417426753806" lon="18.125953001907252"><ele>44.0</ele><time>2026-04-12T13:19:34Z</time></trkpt><trkpt lat="40.27395884200021" lon="18.125857205111824"><ele>43.5</ele><time>2026-04-12T13:19:35Z</time></trkpt><trkpt lat="40.27374352349582" lon="18.125760969594957"><ele>43.0</ele><time>2026-04-12T13:19:36Z</time></trkpt><trkpt lat="40.27352859011822" lon="18.125663361546007"><ele>43.0</ele><time>2026-04-12T13:19:37Z</time></trkpt><trkpt lat="40.273313413979416" lon="18.12557099987293"><ele>43.0</ele><time>2026-04-12T13:19:38Z</time></trkpt><trkpt lat="40.27309756733128" lon="18.12547816046377"><ele>44.0</ele><time>2026-04-12T13:19:39Z</time></trkpt><trkpt lat="40.27288297046124" lon="18.12538503234996"><ele>45.0</ele><time>2026-04-12T13:19:40Z</time></trkpt><trkpt lat="40.27266696214636" lon="18.125291893831676"><ele>45.0</ele><time>2026-04-12T13:19:41Z</time></trkpt><trkpt lat="40.27245103317291" lon="18.12519533482084"><ele>45.0</ele><time>2026-04-12T13:19:42Z</time></trkpt><trkpt lat="40.27223476348818" lon="18.125105203425225"><ele>44.0</ele><time>2026-04-12T13:19:43Z</time></trkpt><trkpt lat="40.27201971083934" lon="18.125010889004855"><ele>43.0</ele><time>2026-04-12T13:19:44Z</time></trkpt><trkpt lat="40.271805981504805" lon="18.124917464509526"><ele>42.5</ele><time>2026-04-12T13:19:45Z</time></trkpt><trkpt lat="40.271588135366564" lon="18.124819832416172"><ele>42.0</ele><time>2026-04-12T13:19:46Z</time></trkpt><trkpt lat="40.271368871228866" lon="18.124720305106063"><ele>42.0</ele><time>2026-04-12T13:19:47Z</time></trkpt><trkpt lat="40.27114888306265" lon="18.124617746735478"><ele>42.0</ele><time>2026-04-12T13:19:48Z</time></trkpt><trkpt lat="40.27093222294849" lon="18.124516980146783"><ele>42.0</ele><time>2026-04-12T13:19:49Z</time></trkpt><trkpt lat="40.270715005882174" lon="18.124414885574453"><ele>42.0</ele><time>2026-04-12T13:19:50Z</time></trkpt><trkpt lat="40.270498161273366" lon="18.1243107098694"><ele>43.0</ele><time>2026-04-12T13:19:51Z</time></trkpt><trkpt lat="40.27028090148195" lon="18.12421053470329"><ele>44.0</ele><time>2026-04-12T13:19:52Z</time></trkpt><trkpt lat="40.27006305465733" lon="18.124113208159205"><ele>44.5</ele><time>2026-04-12T13:19:53Z</time></trkpt><trkpt lat="40.269844061537775" lon="18.124017512414795"><ele>45.0</ele><time>2026-04-12T13:19:54Z</time></trkpt><trkpt lat="40.269634420959804" lon="18.123917840821967"><ele>45.0</ele><time>2026-04-12T13:19:55Z</time></trkpt><trkpt lat="40.269423546086635" lon="18.12380800158173"><ele>45.0</ele><time>2026-04-12T13:19:56Z</time></trkpt><trkpt lat="40.26920793787157" lon="18.12370367422561"><ele>45.0</ele><time>2026-04-12T13:19:57Z</time></trkpt><trkpt lat="40.26898839984241" lon="18.12361129373038"><ele>45.0</ele><time>2026-04-12T13:19:58Z</time></trkpt><trkpt lat="40.268766295860026" lon="18.12352132988525"><ele>44.5</ele><time>2026-04-12T13:19:59Z</time></trkpt><trkpt lat="40.268546722357144" lon="18.123432020338228"><ele>44.0</ele><time>2026-04-12T13:20:00Z</time></trkpt><trkpt lat="40.26832320281233" lon="18.12333379835281"><ele>43.5</ele><time>2026-04-12T13:20:01Z</time></trkpt><trkpt lat="40.26810213542398" lon="18.123238027728092"><ele>43.0</ele><time>2026-04-12T13:20:02Z</time></trkpt><trkpt lat="40.26788647048097" lon="18.123144953240256"><ele>43.0</ele><time>2026-04-12T13:20:03Z</time></trkpt><trkpt lat="40.267670140551296" lon="18.123048397414202"><ele>43.0</ele><time>2026-04-12T13:20:04Z</time></trkpt><trkpt lat="40.26745238335459" lon="18.12295158919756"><ele>44.0</ele><time>2026-04-12T13:20:05Z</time></trkpt><trkpt lat="40.26723530413103" lon="18.122854090689053"><ele>45.0</ele><time>2026-04-12T13:20:06Z</time></trkpt><trkpt lat="40.267018709799565" lon="18.12275720219016"><ele>45.0</ele><time>2026-04-12T13:20:07Z</time></trkpt><trkpt lat="40.26680366322798" lon="18.122662228689986"><ele>45.0</ele><time>2026-04-12T13:20:08Z</time></trkpt><trkpt lat="40.26658863351499" lon="18.122566878609483"><ele>46.0</ele><time>2026-04-12T13:20:09Z</time></trkpt><trkpt lat="40.266372582481" lon="18.122474660346697"><ele>47.0</ele><time>2026-04-12T13:20:10Z</time></trkpt><trkpt lat="40.26615551045573" lon="18.122381584674006"><ele>47.5</ele><time>2026-04-12T13:20:11Z</time></trkpt><trkpt lat="40.26593683395388" lon="18.122288365357736"><ele>48.0</ele><time>2026-04-12T13:20:12Z</time></trkpt><trkpt lat="40.265717833862624" lon="18.122197482893213"><ele>46.0</ele><time>2026-04-12T13:20:13Z</time></trkpt><trkpt lat="40.26549722874706" lon="18.122104948534986"><ele>44.0</ele><time>2026-04-12T13:20:14Z</time></trkpt><trkpt lat="40.26527960634756" lon="18.12201287099314"><ele>44.0</ele><time>2026-04-12T13:20:15Z</time></trkpt><trkpt lat="40.26506536721088" lon="18.12191869461516"><ele>44.0</ele><time>2026-04-12T13:20:16Z</time></trkpt><trkpt lat="40.26484832517933" lon="18.121817909479677"><ele>45.5</ele><time>2026-04-12T13:20:17Z</time></trkpt><trkpt lat="40.264629320292634" lon="18.121714172124815"><ele>47.0</ele><time>2026-04-12T13:20:18Z</time></trkpt><trkpt lat="40.26440880647838" lon="18.12160844043703"><ele>46.5</ele><time>2026-04-12T13:20:19Z</time></trkpt><trkpt lat="40.26418867869973" lon="18.121505488267843"><ele>46.0</ele><time>2026-04-12T13:20:20Z</time></trkpt><trkpt lat="40.26396917383188" lon="18.121401800698024"><ele>46.5</ele><time>2026-04-12T13:20:21Z</time></trkpt><trkpt lat="40.26375111357492" lon="18.121302130970683"><ele>47.0</ele><time>2026-04-12T13:20:22Z</time></trkpt><trkpt lat="40.26353580639874" lon="18.121209333765286"><ele>47.0</ele><time>2026-04-12T13:20:23Z</time></trkpt><trkpt lat="40.26332023035967" lon="18.121118955820723"><ele>47.0</ele><time>2026-04-12T13:20:24Z</time></trkpt><trkpt lat="40.26310444103111" lon="18.12102427145205"><ele>47.0</ele><time>2026-04-12T13:20:25Z</time></trkpt><trkpt lat="40.26288784888871" lon="18.120926804195147"><ele>47.0</ele><time>2026-04-12T13:20:26Z</time></trkpt><trkpt lat="40.26267095005913" lon="18.120831497189794"><ele>47.0</ele><time>2026-04-12T13:20:27Z</time></trkpt><trkpt lat="40.262455003761524" lon="18.120733845804917"><ele>47.0</ele><time>2026-04-12T13:20:28Z</time></trkpt><trkpt lat="40.26223676614295" lon="18.120636333473986"><ele>46.5</ele><time>2026-04-12T13:20:29Z</time></trkpt><trkpt lat="40.26201885865595" lon="18.120539296136815"><ele>46.0</ele><time>2026-04-12T13:20:30Z</time></trkpt><trkpt lat="40.2618008715112" lon="18.120437672433592"><ele>46.0</ele><time>2026-04-12T13:20:31Z</time></trkpt><trkpt lat="40.26158191369883" lon="18.12033625641257"><ele>46.0</ele><time>2026-04-12T13:20:32Z</time></trkpt><trkpt lat="40.26136139841497" lon="18.120234679452494"><ele>46.0</ele><time>2026-04-12T13:20:33Z</time></trkpt><trkpt lat="40.261141382400616" lon="18.120131023253187"><ele>46.0</ele><time>2026-04-12T13:20:34Z</time></trkpt><trkpt lat="40.260921230863985" lon="18.120035897790228"><ele>46.0</ele><time>2026-04-12T13:20:35Z</time></trkpt><trkpt lat="40.260703450574624" lon="18.119938784714346"><ele>46.0</ele><time>2026-04-12T13:20:36Z</time></trkpt><trkpt lat="40.260482453743805" lon="18.119840218952653"><ele>46.5</ele><time>2026-04-12T13:20:37Z</time></trkpt><trkpt lat="40.260260939952815" lon="18.11973882915695"><ele>47.0</ele><time>2026-04-12T13:20:38.001Z</time></trkpt><trkpt lat="40.260040791429205" lon="18.119640933286878"><ele>47.0</ele><time>2026-04-12T13:20:39Z</time></trkpt><trkpt lat="40.25982610063354" lon="18.119547614793134"><ele>47.0</ele><time>2026-04-12T13:20:40Z</time></trkpt><trkpt lat="40.259611363554185" lon="18.119451997258714"><ele>47.0</ele><time>2026-04-12T13:20:41Z</time></trkpt><trkpt lat="40.25939801042294" lon="18.119357924369854"><ele>47.0</ele><time>2026-04-12T13:20:42.001Z</time></trkpt><trkpt lat="40.25918395463856" lon="18.119269152517777"><ele>47.0</ele><time>2026-04-12T13:20:43.001Z</time></trkpt><trkpt lat="40.258968776483385" lon="18.119178033474313"><ele>47.0</ele><time>2026-04-12T13:20:44.001Z</time></trkpt><trkpt lat="40.25875504172229" lon="18.11908731690355"><ele>47.5</ele><time>2026-04-12T13:20:45Z</time></trkpt><trkpt lat="40.25854061197463" lon="18.118995563278393"><ele>48.0</ele><time>2026-04-12T13:20:46Z</time></trkpt><trkpt lat="40.258324176268246" lon="18.118904488300213"><ele>48.0</ele><time>2026-04-12T13:20:47.001Z</time></trkpt><trkpt lat="40.25810778768701" lon="18.11881202850602"><ele>48.0</ele><time>2026-04-12T13:20:48Z</time></trkpt><trkpt lat="40.25789190836592" lon="18.118715285998736"><ele>48.0</ele><time>2026-04-12T13:20:49Z</time></trkpt><trkpt lat="40.25768583416277" lon="18.11862606276953"><ele>48.0</ele><time>2026-04-12T13:20:50Z</time></trkpt><trkpt lat="40.257472746254535" lon="18.118534957184817"><ele>48.0</ele><time>2026-04-12T13:20:51Z</time></trkpt><trkpt lat="40.25724890690133" lon="18.118436140778563"><ele>46.5</ele><time>2026-04-12T13:20:52Z</time></trkpt><trkpt lat="40.257025140160344" lon="18.118332822386613"><ele>45.0</ele><time>2026-04-12T13:20:53Z</time></trkpt><trkpt lat="40.256801956161546" lon="18.11823364525211"><ele>45.0</ele><time>2026-04-12T13:20:54Z</time></trkpt><trkpt lat="40.25658362158115" lon="18.11813314819584"><ele>45.0</ele><time>2026-04-12T13:20:55Z</time></trkpt><trkpt lat="40.25636592932563" lon="18.1180360031205"><ele>44.5</ele><time>2026-04-12T13:20:56Z</time></trkpt><trkpt lat="40.25614831480667" lon="18.11793747852433"><ele>44.0</ele><time>2026-04-12T13:20:57Z</time></trkpt><trkpt lat="40.25592937611462" lon="18.11783829992483"><ele>44.0</ele><time>2026-04-12T13:20:58Z</time></trkpt><trkpt lat="40.25571075757028" lon="18.117742278735985"><ele>44.0</ele><time>2026-04-12T13:20:59Z</time></trkpt><trkpt lat="40.25548993734429" lon="18.117644573620716"><ele>44.5</ele><time>2026-04-12T13:21:00Z</time></trkpt><trkpt lat="40.25527424525968" lon="18.117549717757026"><ele>45.0</ele><time>2026-04-12T13:21:01Z</time></trkpt><trkpt lat="40.25505617528002" lon="18.117449513908383"><ele>45.0</ele><time>2026-04-12T13:21:02Z</time></trkpt><trkpt lat="40.25483969631651" lon="18.11735342217232"><ele>45.0</ele><time>2026-04-12T13:21:03Z</time></trkpt><trkpt lat="40.25462287566886" lon="18.117255922581485"><ele>45.0</ele><time>2026-04-12T13:21:04Z</time></trkpt><trkpt lat="40.254406638124365" lon="18.11716309689378"><ele>45.0</ele><time>2026-04-12T13:21:05Z</time></trkpt><trkpt lat="40.25419332897504" lon="18.117068778417284"><ele>45.0</ele><time>2026-04-12T13:21:06Z</time></trkpt><trkpt lat="40.25397788467042" lon="18.116974972361444"><ele>45.0</ele><time>2026-04-12T13:21:07Z</time></trkpt><trkpt lat="40.253763120947006" lon="18.116882064634613"><ele>44.5</ele><time>2026-04-12T13:21:08Z</time></trkpt><trkpt lat="40.25354577079182" lon="18.11678463629199"><ele>44.0</ele><time>2026-04-12T13:21:09Z</time></trkpt><trkpt lat="40.25333090585886" lon="18.11669213532775"><ele>44.0</ele><time>2026-04-12T13:21:10Z</time></trkpt><trkpt lat="40.25311343160337" lon="18.116595170720107"><ele>44.0</ele><time>2026-04-12T13:21:11Z</time></trkpt><trkpt lat="40.252897132483696" lon="18.11650212853068"><ele>45.0</ele><time>2026-04-12T13:21:12Z</time></trkpt><trkpt lat="40.25268150891574" lon="18.11641640449358"><ele>46.0</ele><time>2026-04-12T13:21:13Z</time></trkpt><trkpt lat="40.25245866361767" lon="18.116318424304275"><ele>45.5</ele><time>2026-04-12T13:21:14Z</time></trkpt><trkpt lat="40.25224093571489" lon="18.1162176287431"><ele>45.0</ele><time>2026-04-12T13:21:15Z</time></trkpt><trkpt lat="40.25202374610409" lon="18.11611547888211"><ele>45.0</ele><time>2026-04-12T13:21:16Z</time></trkpt><trkpt lat="40.251807605150006" lon="18.116014979103774"><ele>45.0</ele><time>2026-04-12T13:21:17Z</time></trkpt><trkpt lat="40.251589381935425" lon="18.11591272182264"><ele>45.0</ele><time>2026-04-12T13:21:18Z</time></trkpt><trkpt lat="40.251368620205774" lon="18.115808982182575"><ele>45.0</ele><time>2026-04-12T13:21:19Z</time></trkpt><trkpt lat="40.25114752140878" lon="18.115706804809413"><ele>45.5</ele><time>2026-04-12T13:21:20Z</time></trkpt><trkpt lat="40.25092801372998" lon="18.115608425403472"><ele>46.0</ele><time>2026-04-12T13:21:21Z</time></trkpt><trkpt lat="40.25071020005324" lon="18.115512952707792"><ele>47.0</ele><time>2026-04-12T13:21:22Z</time></trkpt><trkpt lat="40.25049188263658" lon="18.11541649230667"><ele>48.0</ele><time>2026-04-12T13:21:23Z</time></trkpt><trkpt lat="40.250273184173935" lon="18.11532354740973"><ele>48.0</ele><time>2026-04-12T13:21:24Z</time></trkpt><trkpt lat="40.25005411306156" lon="18.115228232074827"><ele>48.0</ele><time>2026-04-12T13:21:25Z</time></trkpt><trkpt lat="40.249836220573066" lon="18.115127046837944"><ele>48.0</ele><time>2026-04-12T13:21:26Z</time></trkpt><trkpt lat="40.24961974898585" lon="18.115028497335945"><ele>48.0</ele><time>2026-04-12T13:21:27Z</time></trkpt><trkpt lat="40.2494048683216" lon="18.11493385376319"><ele>48.5</ele><time>2026-04-12T13:21:28Z</time></trkpt><trkpt lat="40.249189969085485" lon="18.114839702945055"><ele>49.0</ele><time>2026-04-12T13:21:29Z</time></trkpt><trkpt lat="40.24897172615591" lon="18.114740483986587"><ele>51.0</ele><time>2026-04-12T13:21:30Z</time></trkpt><trkpt lat="40.24875658176332" lon="18.11464301813661"><ele>53.0</ele><time>2026-04-12T13:21:31Z</time></trkpt><trkpt lat="40.24853957661197" lon="18.1145449609697"><ele>53.0</ele><time>2026-04-12T13:21:32Z</time></trkpt><trkpt lat="40.24832370991872" lon="18.114449596640256"><ele>53.0</ele><time>2026-04-12T13:21:33Z</time></trkpt><trkpt lat="40.24810740061685" lon="18.114355506052547"><ele>54.0</ele><time>2026-04-12T13:21:34Z</time></trkpt><trkpt lat="40.24788888348873" lon="18.11425705989883"><ele>55.0</ele><time>2026-04-12T13:21:35Z</time></trkpt><trkpt lat="40.24767079720508" lon="18.114154310356824"><ele>54.5</ele><time>2026-04-12T13:21:36Z</time></trkpt><trkpt lat="40.247453441401014" lon="18.114052159607457"><ele>54.0</ele><time>2026-04-12T13:21:37Z</time></trkpt><trkpt lat="40.24723562990993" lon="18.11395178923062"><ele>55.0</ele><time>2026-04-12T13:21:38Z</time></trkpt><trkpt lat="40.2470191610094" lon="18.113852413031278"><ele>56.0</ele><time>2026-04-12T13:21:39Z</time></trkpt><trkpt lat="40.246807001958985" lon="18.113763392298473"><ele>56.0</ele><time>2026-04-12T13:21:40Z</time></trkpt><trkpt lat="40.24659377808054" lon="18.113676150992994"><ele>56.0</ele><time>2026-04-12T13:21:41Z</time></trkpt><trkpt lat="40.246378593589235" lon="18.113588873410155"><ele>56.0</ele><time>2026-04-12T13:21:42Z</time></trkpt><trkpt lat="40.246165771310274" lon="18.11349747001168"><ele>56.0</ele><time>2026-04-12T13:21:43Z</time></trkpt><trkpt lat="40.24594969797708" lon="18.113405393743765"><ele>56.0</ele><time>2026-04-12T13:21:44Z</time></trkpt><trkpt lat="40.24573614221945" lon="18.113313743258015"><ele>57.0</ele><time>2026-04-12T13:21:45Z</time></trkpt><trkpt lat="40.24551759047203" lon="18.113222060578206"><ele>58.0</ele><time>2026-04-12T13:21:46Z</time></trkpt><trkpt lat="40.24529934388909" lon="18.113123287756757"><ele>58.0</ele><time>2026-04-12T13:21:47Z</time></trkpt><trkpt lat="40.24508175105954" lon="18.11302280104712"><ele>58.0</ele><time>2026-04-12T13:21:48Z</time></trkpt><trkpt lat="40.244864116455325" lon="18.11292022803532"><ele>57.5</ele><time>2026-04-12T13:21:49Z</time></trkpt><trkpt lat="40.244644879993984" lon="18.11282503189674"><ele>57.0</ele><time>2026-04-12T13:21:50Z</time></trkpt><trkpt lat="40.24442663337273" lon="18.11272887021774"><ele>57.0</ele><time>2026-04-12T13:21:51Z</time></trkpt><trkpt lat="40.24420556319326" lon="18.112626003070908"><ele>57.0</ele><time>2026-04-12T13:21:52Z</time></trkpt><trkpt lat="40.24398558649283" lon="18.11252628734165"><ele>57.0</ele><time>2026-04-12T13:21:53Z</time></trkpt><trkpt lat="40.243767798955574" lon="18.112432113769483"><ele>57.0</ele><time>2026-04-12T13:21:54Z</time></trkpt><trkpt lat="40.243551755296494" lon="18.112336605986428"><ele>57.0</ele><time>2026-04-12T13:21:55Z</time></trkpt><trkpt lat="40.243332217912574" lon="18.112237486452383"><ele>57.0</ele><time>2026-04-12T13:21:56Z</time></trkpt><trkpt lat="40.24311616228469" lon="18.112141635717027"><ele>56.5</ele><time>2026-04-12T13:21:57Z</time></trkpt><trkpt lat="40.242898467128185" lon="18.11204892169856"><ele>56.0</ele><time>2026-04-12T13:21:58Z</time></trkpt><trkpt lat="40.242680151752396" lon="18.111953892994716"><ele>56.0</ele><time>2026-04-12T13:21:59Z</time></trkpt><trkpt lat="40.24246218616909" lon="18.11185901271684"><ele>56.0</ele><time>2026-04-12T13:22:00Z</time></trkpt><trkpt lat="40.242247746551875" lon="18.11176485413955"><ele>56.0</ele><time>2026-04-12T13:22:01Z</time></trkpt><trkpt lat="40.242032404648995" lon="18.111670033287474"><ele>56.0</ele><time>2026-04-12T13:22:02Z</time></trkpt><trkpt lat="40.24181691593293" lon="18.11157337757125"><ele>57.0</ele><time>2026-04-12T13:22:03Z</time></trkpt><trkpt lat="40.24160174081898" lon="18.111476007733017"><ele>58.0</ele><time>2026-04-12T13:22:04Z</time></trkpt><trkpt lat="40.241385226539585" lon="18.111381388305134"><ele>58.0</ele><time>2026-04-12T13:22:05Z</time></trkpt><trkpt lat="40.24117056317652" lon="18.111283595141792"><ele>58.0</ele><time>2026-04-12T13:22:06Z</time></trkpt><trkpt lat="40.24095504620778" lon="18.111183121344947"><ele>58.0</ele><time>2026-04-12T13:22:07Z</time></trkpt><trkpt lat="40.2407371597468" lon="18.1110824092715"><ele>58.0</ele><time>2026-04-12T13:22:08Z</time></trkpt><trkpt lat="40.24051816737467" lon="18.11097689497595"><ele>56.5</ele><time>2026-04-12T13:22:09Z</time></trkpt><trkpt lat="40.24029859196329" lon="18.110873394287335"><ele>55.0</ele><time>2026-04-12T13:22:10Z</time></trkpt><trkpt lat="40.240081622812134" lon="18.110771850560806"><ele>55.0</ele><time>2026-04-12T13:22:11Z</time></trkpt><trkpt lat="40.23986321768337" lon="18.110673589473315"><ele>55.0</ele><time>2026-04-12T13:22:12Z</time></trkpt><trkpt lat="40.23964486537816" lon="18.110579689725114"><ele>54.5</ele><time>2026-04-12T13:22:13Z</time></trkpt><trkpt lat="40.23942851839235" lon="18.110486216862366"><ele>54.0</ele><time>2026-04-12T13:22:14Z</time></trkpt><trkpt lat="40.23920967675033" lon="18.110392261641717"><ele>54.0</ele><time>2026-04-12T13:22:15Z</time></trkpt><trkpt lat="40.23898835765882" lon="18.11029518822219"><ele>54.0</ele><time>2026-04-12T13:22:16Z</time></trkpt><trkpt lat="40.23876769383668" lon="18.110198683611877"><ele>54.0</ele><time>2026-04-12T13:22:17Z</time></trkpt><trkpt lat="40.238548306782455" lon="18.110102814665396"><ele>54.0</ele><time>2026-04-12T13:22:18Z</time></trkpt><trkpt lat="40.238327281066326" lon="18.110007699126044"><ele>54.0</ele><time>2026-04-12T13:22:19Z</time></trkpt><trkpt lat="40.23810805531793" lon="18.109909992440734"><ele>54.0</ele><time>2026-04-12T13:22:20Z</time></trkpt><trkpt lat="40.23789137156116" lon="18.109811365657592"><ele>53.5</ele><time>2026-04-12T13:22:21Z</time></trkpt><trkpt lat="40.23767452146116" lon="18.109718287349843"><ele>53.0</ele><time>2026-04-12T13:22:22Z</time></trkpt><trkpt lat="40.23745622444596" lon="18.109623267255678"><ele>52.5</ele><time>2026-04-12T13:22:23Z</time></trkpt><trkpt lat="40.23723705692693" lon="18.109526076853726"><ele>52.0</ele><time>2026-04-12T13:22:24Z</time></trkpt><trkpt lat="40.237019346842885" lon="18.109432151256918"><ele>52.0</ele><time>2026-04-12T13:22:25Z</time></trkpt><trkpt lat="40.236802100790946" lon="18.109337467453596"><ele>52.0</ele><time>2026-04-12T13:22:26Z</time></trkpt><trkpt lat="40.23658558277779" lon="18.109240966289615"><ele>52.0</ele><time>2026-04-12T13:22:27Z</time></trkpt><trkpt lat="40.236369561675886" lon="18.109143009137394"><ele>52.0</ele><time>2026-04-12T13:22:28Z</time></trkpt><trkpt lat="40.23615380791467" lon="18.109046354590205"><ele>52.0</ele><time>2026-04-12T13:22:29Z</time></trkpt><trkpt lat="40.23593882132991" lon="18.108950852768572"><ele>52.0</ele><time>2026-04-12T13:22:30Z</time></trkpt><trkpt lat="40.235724148146964" lon="18.108853351488975"><ele>52.5</ele><time>2026-04-12T13:22:31Z</time></trkpt><trkpt lat="40.235505135584845" lon="18.108755690796688"><ele>53.0</ele><time>2026-04-12T13:22:32Z</time></trkpt><trkpt lat="40.23528794642754" lon="18.108656353367344"><ele>53.0</ele><time>2026-04-12T13:22:33Z</time></trkpt><trkpt lat="40.23506977069879" lon="18.10856009452072"><ele>53.0</ele><time>2026-04-12T13:22:34Z</time></trkpt><trkpt lat="40.234852079736925" lon="18.108464605140004"><ele>52.0</ele><time>2026-04-12T13:22:35Z</time></trkpt><trkpt lat="40.23463604674276" lon="18.10836619378821"><ele>51.0</ele><time>2026-04-12T13:22:36Z</time></trkpt><trkpt lat="40.23442257959309" lon="18.10827348440829"><ele>51.0</ele><time>2026-04-12T13:22:37Z</time></trkpt><trkpt lat="40.234208078178455" lon="18.10818031221117"><ele>51.0</ele><time>2026-04-12T13:22:38Z</time></trkpt><trkpt lat="40.23399193808959" lon="18.108087530007104"><ele>50.0</ele><time>2026-04-12T13:22:39Z</time></trkpt><trkpt lat="40.23377796784438" lon="18.107993590075168"><ele>49.0</ele><time>2026-04-12T13:22:40Z</time></trkpt><trkpt lat="40.23356234361479" lon="18.107896508627334"><ele>49.0</ele><time>2026-04-12T13:22:41Z</time></trkpt><trkpt lat="40.23334295176153" lon="18.107803842727897"><ele>49.0</ele><time>2026-04-12T13:22:42Z</time></trkpt><trkpt lat="40.233126634192466" lon="18.10770966965646"><ele>49.5</ele><time>2026-04-12T13:22:43Z</time></trkpt><trkpt lat="40.232910833701034" lon="18.107611851839927"><ele>50.0</ele><time>2026-04-12T13:22:44Z</time></trkpt><trkpt lat="40.23269459788303" lon="18.107514975434142"><ele>50.0</ele><time>2026-04-12T13:22:44.999Z</time></trkpt><trkpt lat="40.23247410657364" lon="18.107418338291545"><ele>50.0</ele><time>2026-04-12T13:22:45.999Z</time></trkpt><trkpt lat="40.23225715030802" lon="18.107318875978283"><ele>50.0</ele><time>2026-04-12T13:22:47Z</time></trkpt><trkpt lat="40.23203911942704" lon="18.10721813469939"><ele>50.0</ele><time>2026-04-12T13:22:47.999Z</time></trkpt><trkpt lat="40.23181914697431" lon="18.10711823789619"><ele>50.0</ele><time>2026-04-12T13:22:48.999Z</time></trkpt><trkpt lat="40.23159950699953" lon="18.107019113634262"><ele>50.0</ele><time>2026-04-12T13:22:49.999Z</time></trkpt><trkpt lat="40.23138043231923" lon="18.106919699379514"><ele>50.0</ele><time>2026-04-12T13:22:51Z</time></trkpt><trkpt lat="40.23116158019403" lon="18.10681814164339"><ele>50.0</ele><time>2026-04-12T13:22:52Z</time></trkpt><trkpt lat="40.230941743405126" lon="18.106716778443776"><ele>50.0</ele><time>2026-04-12T13:22:53Z</time></trkpt><trkpt lat="40.23072204224832" lon="18.106615726028977"><ele>50.0</ele><time>2026-04-12T13:22:54Z</time></trkpt><trkpt lat="40.23050320666895" lon="18.106514073903934"><ele>48.0</ele><time>2026-04-12T13:22:55Z</time></trkpt><trkpt lat="40.23028808116904" lon="18.106415858639807"><ele>46.0</ele><time>2026-04-12T13:22:56Z</time></trkpt><trkpt lat="40.23007407861496" lon="18.106317790643036"><ele>46.0</ele><time>2026-04-12T13:22:56.999Z</time></trkpt><trkpt lat="40.22985841746586" lon="18.106219114962055"><ele>46.0</ele><time>2026-04-12T13:22:57.999Z</time></trkpt><trkpt lat="40.229644233737716" lon="18.10612398785403"><ele>45.5</ele><time>2026-04-12T13:22:58.999Z</time></trkpt><trkpt lat="40.22942671408368" lon="18.106023876764166"><ele>45.0</ele><time>2026-04-12T13:22:59.999Z</time></trkpt><trkpt lat="40.229209140041625" lon="18.105924086897872"><ele>45.0</ele><time>2026-04-12T13:23:00.999Z</time></trkpt><trkpt lat="40.22899217091816" lon="18.1058236545209"><ele>45.0</ele><time>2026-04-12T13:23:01.999Z</time></trkpt><trkpt lat="40.22877627400065" lon="18.10572464055533"><ele>44.5</ele><time>2026-04-12T13:23:02.999Z</time></trkpt><trkpt lat="40.228560722499935" lon="18.105627664788013"><ele>44.0</ele><time>2026-04-12T13:23:03.999Z</time></trkpt><trkpt lat="40.22834502788453" lon="18.10552944166927"><ele>46.0</ele><time>2026-04-12T13:23:04.999Z</time></trkpt><trkpt lat="40.22812723770802" lon="18.105427070778337"><ele>48.0</ele><time>2026-04-12T13:23:05.999Z</time></trkpt><trkpt lat="40.22790836720009" lon="18.105326478527687"><ele>48.0</ele><time>2026-04-12T13:23:06.999Z</time></trkpt><trkpt lat="40.22769222211734" lon="18.10522713089185"><ele>48.0</ele><time>2026-04-12T13:23:07.999Z</time></trkpt><trkpt lat="40.227474540622154" lon="18.105128327988"><ele>47.5</ele><time>2026-04-12T13:23:08.999Z</time></trkpt><trkpt lat="40.227257867483125" lon="18.105029969168427"><ele>47.0</ele><time>2026-04-12T13:23:09.999Z</time></trkpt><trkpt lat="40.22703882570519" lon="18.104933167858"><ele>47.0</ele><time>2026-04-12T13:23:10.999Z</time></trkpt><trkpt lat="40.226821744316645" lon="18.10482479749563"><ele>47.0</ele><time>2026-04-12T13:23:11.999Z</time></trkpt><trkpt lat="40.226603797682884" lon="18.104720424838714"><ele>46.5</ele><time>2026-04-12T13:23:12.999Z</time></trkpt><trkpt lat="40.22638439624055" lon="18.10462516612475"><ele>46.0</ele><time>2026-04-12T13:23:13.999Z</time></trkpt><trkpt lat="40.226166532323106" lon="18.10453611792756"><ele>46.0</ele><time>2026-04-12T13:23:14.999Z</time></trkpt><trkpt lat="40.22594716663341" lon="18.10444521665959"><ele>46.0</ele><time>2026-04-12T13:23:15.999Z</time></trkpt><trkpt lat="40.22573037437042" lon="18.104345650428932"><ele>46.0</ele><time>2026-04-12T13:23:16.999Z</time></trkpt><trkpt lat="40.22551266153016" lon="18.1042508151297"><ele>46.0</ele><time>2026-04-12T13:23:17.999Z</time></trkpt><trkpt lat="40.2252959856044" lon="18.104154713616072"><ele>46.0</ele><time>2026-04-12T13:23:18.999Z</time></trkpt><trkpt lat="40.2250785612978" lon="18.104063317930855"><ele>46.0</ele><time>2026-04-12T13:23:19.999Z</time></trkpt><trkpt lat="40.22485935946277" lon="18.103970392880914"><ele>45.5</ele><time>2026-04-12T13:23:20.999Z</time></trkpt><trkpt lat="40.224642464819254" lon="18.103876055485582"><ele>45.0</ele><time>2026-04-12T13:23:21.999Z</time></trkpt><trkpt lat="40.22442508438317" lon="18.103776148149933"><ele>45.0</ele><time>2026-04-12T13:23:22.999Z</time></trkpt><trkpt lat="40.224211223740724" lon="18.103681158078583"><ele>45.0</ele><time>2026-04-12T13:23:23.999Z</time></trkpt><trkpt lat="40.22399623991699" lon="18.10358414118686"><ele>45.5</ele><time>2026-04-12T13:23:24.999Z</time></trkpt><trkpt lat="40.22377802618474" lon="18.103486817092307"><ele>46.0</ele><time>2026-04-12T13:23:25.999Z</time></trkpt><trkpt lat="40.22356073641335" lon="18.103385534983694"><ele>46.0</ele><time>2026-04-12T13:23:26.999Z</time></trkpt><trkpt lat="40.22334164904147" lon="18.10328619717236"><ele>46.0</ele><time>2026-04-12T13:23:27.999Z</time></trkpt><trkpt lat="40.22312066692765" lon="18.103185784448648"><ele>44.5</ele><time>2026-04-12T13:23:28.999Z</time></trkpt><trkpt lat="40.22290123713328" lon="18.10308589307679"><ele>43.0</ele><time>2026-04-12T13:23:29.999Z</time></trkpt><trkpt lat="40.22268633740814" lon="18.10298292200196"><ele>43.0</ele><time>2026-04-12T13:23:30.999Z</time></trkpt><trkpt lat="40.222469878548914" lon="18.10288754959551"><ele>43.0</ele><time>2026-04-12T13:23:31.999Z</time></trkpt><trkpt lat="40.22225384094845" lon="18.1027880252025"><ele>43.5</ele><time>2026-04-12T13:23:32.999Z</time></trkpt><trkpt lat="40.2220347070132" lon="18.102687016999884"><ele>44.0</ele><time>2026-04-12T13:23:33.999Z</time></trkpt><trkpt lat="40.22181899829051" lon="18.102594223512153"><ele>44.0</ele><time>2026-04-12T13:23:34.999Z</time></trkpt><trkpt lat="40.2216017694973" lon="18.102498830589443"><ele>44.0</ele><time>2026-04-12T13:23:35.999Z</time></trkpt><trkpt lat="40.221382883640985" lon="18.1024037877698"><ele>43.5</ele><time>2026-04-12T13:23:36.999Z</time></trkpt><trkpt lat="40.22116635460798" lon="18.102309137991146"><ele>43.0</ele><time>2026-04-12T13:23:37.999Z</time></trkpt><trkpt lat="40.220946809311776" lon="18.1022107131881"><ele>43.0</ele><time>2026-04-12T13:23:38.999Z</time></trkpt><trkpt lat="40.22073425923565" lon="18.10211242902141"><ele>43.0</ele><time>2026-04-12T13:23:39.999Z</time></trkpt><trkpt lat="40.220518673182205" lon="18.10201185099672"><ele>43.5</ele><time>2026-04-12T13:23:40.999Z</time></trkpt><trkpt lat="40.22030023897738" lon="18.101913189368467"><ele>44.0</ele><time>2026-04-12T13:23:41.999Z</time></trkpt><trkpt lat="40.22008272404423" lon="18.101816271892996"><ele>44.0</ele><time>2026-04-12T13:23:42.999Z</time></trkpt><trkpt lat="40.21986561631406" lon="18.1017229379591"><ele>44.0</ele><time>2026-04-12T13:23:43.999Z</time></trkpt><trkpt lat="40.219649747278766" lon="18.101623871586252"><ele>45.0</ele><time>2026-04-12T13:23:44.999Z</time></trkpt><trkpt lat="40.21943660021818" lon="18.101524605136298"><ele>46.0</ele><time>2026-04-12T13:23:45.999Z</time></trkpt><trkpt lat="40.21921826009687" lon="18.10142586473729"><ele>46.0</ele><time>2026-04-12T13:23:46.999Z</time></trkpt><trkpt lat="40.21900179744526" lon="18.101327540895447"><ele>46.0</ele><time>2026-04-12T13:23:47.999Z</time></trkpt><trkpt lat="40.21878630941947" lon="18.10123015846278"><ele>45.5</ele><time>2026-04-12T13:23:48.999Z</time></trkpt><trkpt lat="40.218569566930256" lon="18.10113630563508"><ele>45.0</ele><time>2026-04-12T13:23:49.999Z</time></trkpt><trkpt lat="40.21834899171275" lon="18.101038668740102"><ele>44.5</ele><time>2026-04-12T13:23:50.999Z</time></trkpt><trkpt lat="40.218130226889" lon="18.100940414676344"><ele>44.0</ele><time>2026-04-12T13:23:51.999Z</time></trkpt><trkpt lat="40.21791308695537" lon="18.100839776572684"><ele>43.5</ele><time>2026-04-12T13:23:52.999Z</time></trkpt><trkpt lat="40.21770061154818" lon="18.100744843824984"><ele>43.0</ele><time>2026-04-12T13:23:53.999Z</time></trkpt><trkpt lat="40.2174869262183" lon="18.10064983376713"><ele>43.0</ele><time>2026-04-12T13:23:54.999Z</time></trkpt><trkpt lat="40.21727326140572" lon="18.100551639400834"><ele>43.0</ele><time>2026-04-12T13:23:55.999Z</time></trkpt><trkpt lat="40.21705949327547" lon="18.100454205251193"><ele>43.0</ele><time>2026-04-12T13:23:56.999Z</time></trkpt><trkpt lat="40.216843318255556" lon="18.10035445168138"><ele>43.0</ele><time>2026-04-12T13:23:57.999Z</time></trkpt><trkpt lat="40.21663016881028" lon="18.100259972895763"><ele>43.5</ele><time>2026-04-12T13:23:58.999Z</time></trkpt><trkpt lat="40.21641623327227" lon="18.100167314525525"><ele>44.0</ele><time>2026-04-12T13:23:59.999Z</time></trkpt><trkpt lat="40.2161995420204" lon="18.100067113033354"><ele>44.0</ele><time>2026-04-12T13:24:00.999Z</time></trkpt><trkpt lat="40.21597890527286" lon="18.09997078922386"><ele>44.0</ele><time>2026-04-12T13:24:01.999Z</time></trkpt><trkpt lat="40.215758359525374" lon="18.099868888890054"><ele>43.5</ele><time>2026-04-12T13:24:02.999Z</time></trkpt><trkpt lat="40.21554177923956" lon="18.0997681097591"><ele>43.0</ele><time>2026-04-12T13:24:03.999Z</time></trkpt><trkpt lat="40.215326236321594" lon="18.09966433466632"><ele>43.0</ele><time>2026-04-12T13:24:04.999Z</time></trkpt><trkpt lat="40.215110146062216" lon="18.099563145200815"><ele>43.0</ele><time>2026-04-12T13:24:05.999Z</time></trkpt><trkpt lat="40.21489302704273" lon="18.099463099330105"><ele>43.0</ele><time>2026-04-12T13:24:06.999Z</time></trkpt><trkpt lat="40.21468022307292" lon="18.09936705266924"><ele>43.0</ele><time>2026-04-12T13:24:07.999Z</time></trkpt><trkpt lat="40.214461713938185" lon="18.09927409816893"><ele>43.0</ele><time>2026-04-12T13:24:08.999Z</time></trkpt><trkpt lat="40.214244440212674" lon="18.09917801161461"><ele>43.0</ele><time>2026-04-12T13:24:09.999Z</time></trkpt><trkpt lat="40.21402651441567" lon="18.099077387853992"><ele>43.5</ele><time>2026-04-12T13:24:10.999Z</time></trkpt><trkpt lat="40.21380830768262" lon="18.098972697901463"><ele>44.0</ele><time>2026-04-12T13:24:11.999Z</time></trkpt><trkpt lat="40.21358875763349" lon="18.098871048347494"><ele>44.0</ele><time>2026-04-12T13:24:12.999Z</time></trkpt><trkpt lat="40.213371496149925" lon="18.098779704544043"><ele>44.0</ele><time>2026-04-12T13:24:13.999Z</time></trkpt><trkpt lat="40.213153049703934" lon="18.09869228574108"><ele>45.0</ele><time>2026-04-12T13:24:14.999Z</time></trkpt><trkpt lat="40.21292384949709" lon="18.09860595302581"><ele>46.0</ele><time>2026-04-12T13:24:15.999Z</time></trkpt><trkpt lat="40.21269856086506" lon="18.098506806984368"><ele>46.0</ele><time>2026-04-12T13:24:16.999Z</time></trkpt><trkpt lat="40.212483954302826" lon="18.098407657951498"><ele>46.0</ele><time>2026-04-12T13:24:17.999Z</time></trkpt><trkpt lat="40.21227019515082" lon="18.098310212424384"><ele>46.0</ele><time>2026-04-12T13:24:18.999Z</time></trkpt><trkpt lat="40.212056047229325" lon="18.098214036036907"><ele>46.0</ele><time>2026-04-12T13:24:19.999Z</time></trkpt><trkpt lat="40.2118435939547" lon="18.098116423121912"><ele>46.0</ele><time>2026-04-12T13:24:20.999Z</time></trkpt><trkpt lat="40.21163126020263" lon="18.098017302051232"><ele>46.0</ele><time>2026-04-12T13:24:21.999Z</time></trkpt><trkpt lat="40.211418978135065" lon="18.09791546386545"><ele>45.66666666666667</ele><time>2026-04-12T13:24:22.999Z</time></trkpt><trkpt lat="40.21121069642179" lon="18.09781419935213"><ele>45.333333333333336</ele><time>2026-04-12T13:24:23.999Z</time></trkpt><trkpt lat="40.21100329984841" lon="18.097719238004366"><ele>45.0</ele><time>2026-04-12T13:24:24.999Z</time></trkpt><trkpt lat="40.21079065704794" lon="18.097622695262558"><ele>45.5</ele><time>2026-04-12T13:24:25.999Z</time></trkpt><trkpt lat="40.210570780114935" lon="18.09752224140305"><ele>46.0</ele><time>2026-04-12T13:24:26.999Z</time></trkpt><trkpt lat="40.21034994669393" lon="18.097419512261588"><ele>48.0</ele><time>2026-04-12T13:24:27.999Z</time></trkpt><trkpt lat="40.21012948148348" lon="18.09731487247435"><ele>50.0</ele><time>2026-04-12T13:24:28.999Z</time></trkpt><trkpt lat="40.2099084111032" lon="18.097211710891873"><ele>51.5</ele><time>2026-04-12T13:24:29.999Z</time></trkpt><trkpt lat="40.209685831823755" lon="18.0971065925477"><ele>53.0</ele><time>2026-04-12T13:24:30.999Z</time></trkpt><trkpt lat="40.20946231664813" lon="18.09700205091624"><ele>53.0</ele><time>2026-04-12T13:24:31.999Z</time></trkpt><trkpt lat="40.20924299211209" lon="18.096899818954437"><ele>53.0</ele><time>2026-04-12T13:24:32.999Z</time></trkpt><trkpt lat="40.209026407569645" lon="18.096799020674492"><ele>54.0</ele><time>2026-04-12T13:24:33.999Z</time></trkpt><trkpt lat="40.208809962310646" lon="18.09670615358103"><ele>55.0</ele><time>2026-04-12T13:24:34.999Z</time></trkpt><trkpt lat="40.20859819173629" lon="18.09661386900767"><ele>56.0</ele><time>2026-04-12T13:24:35.999Z</time></trkpt><trkpt lat="40.20837943829706" lon="18.09651883050081"><ele>57.0</ele><time>2026-04-12T13:24:36.999Z</time></trkpt><trkpt lat="40.20815617570584" lon="18.09641899114277"><ele>58.0</ele><time>2026-04-12T13:24:37.999Z</time></trkpt><trkpt lat="40.20793996961291" lon="18.096323821443"><ele>59.0</ele><time>2026-04-12T13:24:38.999Z</time></trkpt><trkpt lat="40.20772625200614" lon="18.09623222913433"><ele>59.0</ele><time>2026-04-12T13:24:39.999Z</time></trkpt><trkpt lat="40.20750700644504" lon="18.096135683022084"><ele>59.0</ele><time>2026-04-12T13:24:40.999Z</time></trkpt><trkpt lat="40.2072914282434" lon="18.096041574984742"><ele>59.5</ele><time>2026-04-12T13:24:41.999Z</time></trkpt><trkpt lat="40.207074048157324" lon="18.095948307414652"><ele>60.0</ele><time>2026-04-12T13:24:42.999Z</time></trkpt><trkpt lat="40.20685377833977" lon="18.09585200190239"><ele>60.0</ele><time>2026-04-12T13:24:43.999Z</time></trkpt><trkpt lat="40.206634629896726" lon="18.09575379872821"><ele>60.0</ele><time>2026-04-12T13:24:44.999Z</time></trkpt><trkpt lat="40.2064185685142" lon="18.095657968579705"><ele>59.5</ele><time>2026-04-12T13:24:45.999Z</time></trkpt><trkpt lat="40.206202183981695" lon="18.095561957136326"><ele>59.0</ele><time>2026-04-12T13:24:46.999Z</time></trkpt><trkpt lat="40.205982776305" lon="18.095466514374554"><ele>59.0</ele><time>2026-04-12T13:24:47.999Z</time></trkpt><trkpt lat="40.20576514452045" lon="18.095371268861335"><ele>59.0</ele><time>2026-04-12T13:24:48.999Z</time></trkpt><trkpt lat="40.20554764323469" lon="18.09527482092458"><ele>58.5</ele><time>2026-04-12T13:24:50Z</time></trkpt><trkpt lat="40.2053350183696" lon="18.095181159164568"><ele>58.0</ele><time>2026-04-12T13:24:50.999Z</time></trkpt><trkpt lat="40.205119545192396" lon="18.095086929151766"><ele>58.0</ele><time>2026-04-12T13:24:51.999Z</time></trkpt><trkpt lat="40.20490583523401" lon="18.094991559849817"><ele>58.0</ele><time>2026-04-12T13:24:52.999Z</time></trkpt><trkpt lat="40.20468886136765" lon="18.094897758498778"><ele>58.5</ele><time>2026-04-12T13:24:53.999Z</time></trkpt><trkpt lat="40.20447250898956" lon="18.094800662690083"><ele>59.0</ele><time>2026-04-12T13:24:54.999Z</time></trkpt><trkpt lat="40.20425341224553" lon="18.09470492505528"><ele>59.0</ele><time>2026-04-12T13:24:55.999Z</time></trkpt><trkpt lat="40.20403152735244" lon="18.094603470908314"><ele>59.0</ele><time>2026-04-12T13:24:56.999Z</time></trkpt><trkpt lat="40.20381348686048" lon="18.094506466217513"><ele>59.0</ele><time>2026-04-12T13:24:57.999Z</time></trkpt><trkpt lat="40.20359682940271" lon="18.094412519009797"><ele>59.0</ele><time>2026-04-12T13:24:58.999Z</time></trkpt><trkpt lat="40.20337959838886" lon="18.094322389826335"><ele>59.5</ele><time>2026-04-12T13:24:59.999Z</time></trkpt><trkpt lat="40.20316049437488" lon="18.094228076605877"><ele>60.0</ele><time>2026-04-12T13:25:00.999Z</time></trkpt><trkpt lat="40.2029402088704" lon="18.094128639568165"><ele>59.5</ele><time>2026-04-12T13:25:02Z</time></trkpt><trkpt lat="40.20272293542447" lon="18.094031091039046"><ele>59.0</ele><time>2026-04-12T13:25:02.999Z</time></trkpt><trkpt lat="40.20250692159345" lon="18.09393379168716"><ele>58.5</ele><time>2026-04-12T13:25:03.999Z</time></trkpt><trkpt lat="40.20228884540846" lon="18.093833643083116"><ele>58.0</ele><time>2026-04-12T13:25:04.999Z</time></trkpt><trkpt lat="40.20206824001403" lon="18.093730914876705"><ele>58.0</ele><time>2026-04-12T13:25:05.999Z</time></trkpt><trkpt lat="40.20185042155794" lon="18.093631734736956"><ele>58.0</ele><time>2026-04-12T13:25:06.999Z</time></trkpt><trkpt lat="40.20163266713285" lon="18.09353285624327"><ele>58.5</ele><time>2026-04-12T13:25:07.999Z</time></trkpt><trkpt lat="40.20141766116539" lon="18.093441733845857"><ele>59.0</ele><time>2026-04-12T13:25:08.999Z</time></trkpt><trkpt lat="40.20120492676083" lon="18.09335105457444"><ele>59.0</ele><time>2026-04-12T13:25:09.999Z</time></trkpt><trkpt lat="40.200990510366914" lon="18.093256252754223"><ele>59.0</ele><time>2026-04-12T13:25:10.999Z</time></trkpt><trkpt lat="40.20077463700825" lon="18.093154977561895"><ele>58.5</ele><time>2026-04-12T13:25:11.999Z</time></trkpt><trkpt lat="40.200557496424636" lon="18.093059207917015"><ele>58.0</ele><time>2026-04-12T13:25:12.999Z</time></trkpt><trkpt lat="40.20034085265327" lon="18.092962137061143"><ele>58.0</ele><time>2026-04-12T13:25:13.999Z</time></trkpt><trkpt lat="40.2001278402666" lon="18.092870303407377"><ele>58.0</ele><time>2026-04-12T13:25:14.999Z</time></trkpt><trkpt lat="40.199913595173534" lon="18.092780997493605"><ele>58.0</ele><time>2026-04-12T13:25:15.999Z</time></trkpt><trkpt lat="40.199697358059055" lon="18.09268693373265"><ele>58.5</ele><time>2026-04-12T13:25:16.999Z</time></trkpt><trkpt lat="40.19947853021266" lon="18.092591186310436"><ele>59.0</ele><time>2026-04-12T13:25:17.999Z</time></trkpt><trkpt lat="40.199262692779335" lon="18.092494130202624"><ele>58.0</ele><time>2026-04-12T13:25:18.999Z</time></trkpt><trkpt lat="40.19904552091383" lon="18.092396700322414"><ele>57.0</ele><time>2026-04-12T13:25:19.999Z</time></trkpt><trkpt lat="40.19882839795378" lon="18.09230027588434"><ele>56.5</ele><time>2026-04-12T13:25:20.999Z</time></trkpt><trkpt lat="40.19861220575094" lon="18.092203033066063"><ele>56.0</ele><time>2026-04-12T13:25:21.999Z</time></trkpt><trkpt lat="40.198395528647225" lon="18.092103465095533"><ele>56.0</ele><time>2026-04-12T13:25:22.999Z</time></trkpt><trkpt lat="40.19817872353992" lon="18.09200632023945"><ele>56.0</ele><time>2026-04-12T13:25:23.999Z</time></trkpt><trkpt lat="40.1979609414357" lon="18.09191246552493"><ele>55.0</ele><time>2026-04-12T13:25:24.999Z</time></trkpt><trkpt lat="40.197742010758525" lon="18.091820211045317"><ele>54.0</ele><time>2026-04-12T13:25:25.999Z</time></trkpt><trkpt lat="40.197520195545444" lon="18.091722174250442"><ele>54.5</ele><time>2026-04-12T13:25:26.999Z</time></trkpt><trkpt lat="40.19729870422825" lon="18.091620971899147"><ele>55.0</ele><time>2026-04-12T13:25:27.999Z</time></trkpt><trkpt lat="40.19707918207139" lon="18.091520577607103"><ele>53.5</ele><time>2026-04-12T13:25:28.999Z</time></trkpt><trkpt lat="40.19685727452749" lon="18.091422897279905"><ele>52.0</ele><time>2026-04-12T13:25:29.999Z</time></trkpt><trkpt lat="40.19663798841526" lon="18.091325320497695"><ele>52.5</ele><time>2026-04-12T13:25:30.999Z</time></trkpt><trkpt lat="40.19641937888039" lon="18.091227634031878"><ele>53.0</ele><time>2026-04-12T13:25:31.999Z</time></trkpt><trkpt lat="40.1961978468418" lon="18.091127282150694"><ele>53.0</ele><time>2026-04-12T13:25:32.999Z</time></trkpt><trkpt lat="40.19598058237291" lon="18.091026723238024"><ele>53.0</ele><time>2026-04-12T13:25:33.999Z</time></trkpt><trkpt lat="40.19575728478719" lon="18.090929218727467"><ele>52.5</ele><time>2026-04-12T13:25:34.999Z</time></trkpt><trkpt lat="40.195540229475945" lon="18.090835865723832"><ele>52.0</ele><time>2026-04-12T13:25:35.999Z</time></trkpt><trkpt lat="40.195325369654725" lon="18.090743712203277"><ele>53.0</ele><time>2026-04-12T13:25:36.999Z</time></trkpt><trkpt lat="40.195112402234976" lon="18.090649900721584"><ele>54.0</ele><time>2026-04-12T13:25:37.999Z</time></trkpt><trkpt lat="40.19489832268824" lon="18.090558585030895"><ele>52.5</ele><time>2026-04-12T13:25:38.999Z</time></trkpt><trkpt lat="40.19468585159875" lon="18.09046687405466"><ele>51.0</ele><time>2026-04-12T13:25:39.999Z</time></trkpt><trkpt lat="40.19446764704798" lon="18.090378830503585"><ele>51.0</ele><time>2026-04-12T13:25:40.999Z</time></trkpt><trkpt lat="40.19424603564824" lon="18.09028348358969"><ele>51.0</ele><time>2026-04-12T13:25:41.999Z</time></trkpt><trkpt lat="40.19402540876751" lon="18.090183151538728"><ele>51.5</ele><time>2026-04-12T13:25:42.999Z</time></trkpt><trkpt lat="40.19380884384047" lon="18.09008217330395"><ele>52.0</ele><time>2026-04-12T13:25:43.999Z</time></trkpt><trkpt lat="40.19359067668003" lon="18.089981524798322"><ele>52.0</ele><time>2026-04-12T13:25:44.999Z</time></trkpt><trkpt lat="40.193374624985495" lon="18.089883703400293"><ele>52.0</ele><time>2026-04-12T13:25:45.999Z</time></trkpt><trkpt lat="40.193156593233226" lon="18.089785610543338"><ele>51.0</ele><time>2026-04-12T13:25:46.999Z</time></trkpt><trkpt lat="40.192938580088956" lon="18.089687254539378"><ele>50.0</ele><time>2026-04-12T13:25:47.999Z</time></trkpt><trkpt lat="40.1927228496867" lon="18.089586998085988"><ele>50.0</ele><time>2026-04-12T13:25:48.999Z</time></trkpt><trkpt lat="40.192507986403655" lon="18.089491022349083"><ele>50.0</ele><time>2026-04-12T13:25:49.999Z</time></trkpt><trkpt lat="40.19229132656495" lon="18.089394705185295"><ele>50.0</ele><time>2026-04-12T13:25:50.999Z</time></trkpt><trkpt lat="40.19207629725612" lon="18.089299580623404"><ele>50.0</ele><time>2026-04-12T13:25:51.999Z</time></trkpt><trkpt lat="40.191859332352564" lon="18.08920539044687"><ele>50.0</ele><time>2026-04-12T13:25:52.999Z</time></trkpt><trkpt lat="40.19164461872758" lon="18.089114042733854"><ele>50.0</ele><time>2026-04-12T13:25:53.999Z</time></trkpt><trkpt lat="40.19142822956202" lon="18.089022018049743"><ele>49.5</ele><time>2026-04-12T13:25:54.999Z</time></trkpt><trkpt lat="40.191211930296745" lon="18.088928115370628"><ele>49.0</ele><time>2026-04-12T13:25:55.999Z</time></trkpt><trkpt lat="40.19099593881175" lon="18.08883689131327"><ele>49.0</ele><time>2026-04-12T13:25:56.999Z</time></trkpt><trkpt lat="40.19077998780543" lon="18.088738451488528"><ele>49.0</ele><time>2026-04-12T13:25:57.999Z</time></trkpt><trkpt lat="40.190566091120715" lon="18.088642155398276"><ele>49.0</ele><time>2026-04-12T13:25:58.999Z</time></trkpt><trkpt lat="40.19034954078751" lon="18.088546616733122"><ele>49.0</ele><time>2026-04-12T13:25:59.999Z</time></trkpt><trkpt lat="40.19013085923301" lon="18.088451192200964"><ele>49.0</ele><time>2026-04-12T13:26:00.999Z</time></trkpt><trkpt lat="40.189912017795955" lon="18.088348383820147"><ele>49.0</ele><time>2026-04-12T13:26:01.999Z</time></trkpt><trkpt lat="40.18969357868078" lon="18.08824983237536"><ele>48.5</ele><time>2026-04-12T13:26:02.999Z</time></trkpt><trkpt lat="40.1894772156119" lon="18.08815362369987"><ele>48.0</ele><time>2026-04-12T13:26:03.999Z</time></trkpt><trkpt lat="40.18925944088842" lon="18.088058320789933"><ele>48.0</ele><time>2026-04-12T13:26:04.999Z</time></trkpt><trkpt lat="40.189039092154836" lon="18.08795748716907"><ele>48.0</ele><time>2026-04-12T13:26:05.999Z</time></trkpt><trkpt lat="40.188817980813454" lon="18.087854511786"><ele>48.5</ele><time>2026-04-12T13:26:06.999Z</time></trkpt><trkpt lat="40.18859818771839" lon="18.087752038728837"><ele>49.0</ele><time>2026-04-12T13:26:07.999Z</time></trkpt><trkpt lat="40.18838067023645" lon="18.087651231000685"><ele>49.0</ele><time>2026-04-12T13:26:08.999Z</time></trkpt><trkpt lat="40.188162606398144" lon="18.08755288640139"><ele>49.0</ele><time>2026-04-12T13:26:09.999Z</time></trkpt><trkpt lat="40.1879444245654" lon="18.08745710912937"><ele>48.5</ele><time>2026-04-12T13:26:10.999Z</time></trkpt><trkpt lat="40.18772597518252" lon="18.087360426590497"><ele>48.0</ele><time>2026-04-12T13:26:11.999Z</time></trkpt><trkpt lat="40.18750692516957" lon="18.087265800120083"><ele>48.0</ele><time>2026-04-12T13:26:12.999Z</time></trkpt><trkpt lat="40.18728854683321" lon="18.087171499719673"><ele>48.0</ele><time>2026-04-12T13:26:13.999Z</time></trkpt><trkpt lat="40.187069573075405" lon="18.08707709756298"><ele>48.0</ele><time>2026-04-12T13:26:14.999Z</time></trkpt><trkpt lat="40.186850055864184" lon="18.08697767489632"><ele>48.0</ele><time>2026-04-12T13:26:15.999Z</time></trkpt><trkpt lat="40.18663014137226" lon="18.086877873955437"><ele>48.5</ele><time>2026-04-12T13:26:16.999Z</time></trkpt><trkpt lat="40.18640770948214" lon="18.086781843214283"><ele>49.0</ele><time>2026-04-12T13:26:17.999Z</time></trkpt><trkpt lat="40.18618534646991" lon="18.086688389816313"><ele>49.0</ele><time>2026-04-12T13:26:18.999Z</time></trkpt><trkpt lat="40.1859611796536" lon="18.086596857065416"><ele>49.0</ele><time>2026-04-12T13:26:19.999Z</time></trkpt><trkpt lat="40.18573936713106" lon="18.08650389001338"><ele>48.5</ele><time>2026-04-12T13:26:20.999Z</time></trkpt><trkpt lat="40.18552546091814" lon="18.086406406081252"><ele>48.0</ele><time>2026-04-12T13:26:21.999Z</time></trkpt><trkpt lat="40.1853139321831" lon="18.086305568331923"><ele>48.0</ele><time>2026-04-12T13:26:22.999Z</time></trkpt><trkpt lat="40.18510149503373" lon="18.086209302081343"><ele>48.0</ele><time>2026-04-12T13:26:23.999Z</time></trkpt><trkpt lat="40.18488529440934" lon="18.086115844103837"><ele>48.0</ele><time>2026-04-12T13:26:24.999Z</time></trkpt><trkpt lat="40.18466942579545" lon="18.086018125642227"><ele>48.0</ele><time>2026-04-12T13:26:25.999Z</time></trkpt><trkpt lat="40.18445195973767" lon="18.085919506823778"><ele>48.0</ele><time>2026-04-12T13:26:26.999Z</time></trkpt><trkpt lat="40.184231026478926" lon="18.085817721361437"><ele>48.0</ele><time>2026-04-12T13:26:27.999Z</time></trkpt><trkpt lat="40.184007625471686" lon="18.08571281339793"><ele>47.5</ele><time>2026-04-12T13:26:28.999Z</time></trkpt><trkpt lat="40.183790918020655" lon="18.085611892363687"><ele>47.0</ele><time>2026-04-12T13:26:29.999Z</time></trkpt><trkpt lat="40.183578833470726" lon="18.085512214385982"><ele>47.0</ele><time>2026-04-12T13:26:30.999Z</time></trkpt><trkpt lat="40.18336659988923" lon="18.085421245927126"><ele>47.0</ele><time>2026-04-12T13:26:31.999Z</time></trkpt><trkpt lat="40.18315147713441" lon="18.085331393196217"><ele>47.0</ele><time>2026-04-12T13:26:32.999Z</time></trkpt><trkpt lat="40.18293891935743" lon="18.08523800451738"><ele>47.5</ele><time>2026-04-12T13:26:33.999Z</time></trkpt><trkpt lat="40.182726002248344" lon="18.085146518239807"><ele>48.0</ele><time>2026-04-12T13:26:34.999Z</time></trkpt><trkpt lat="40.18251074263689" lon="18.085055985004505"><ele>47.5</ele><time>2026-04-12T13:26:35.999Z</time></trkpt><trkpt lat="40.182294074385375" lon="18.084964691793523"><ele>47.0</ele><time>2026-04-12T13:26:36.999Z</time></trkpt><trkpt lat="40.18207657495719" lon="18.084872530102736"><ele>46.5</ele><time>2026-04-12T13:26:37.999Z</time></trkpt><trkpt lat="40.18185707034173" lon="18.084779649579954"><ele>46.0</ele><time>2026-04-12T13:26:38.999Z</time></trkpt><trkpt lat="40.18163868846687" lon="18.084683400878415"><ele>45.5</ele><time>2026-04-12T13:26:39.999Z</time></trkpt><trkpt lat="40.18141805953841" lon="18.08458312665329"><ele>45.0</ele><time>2026-04-12T13:26:40.999Z</time></trkpt><trkpt lat="40.18119937039875" lon="18.084483543693334"><ele>45.0</ele><time>2026-04-12T13:26:41.999Z</time></trkpt><trkpt lat="40.180982598926605" lon="18.08438600809271"><ele>45.0</ele><time>2026-04-12T13:26:42.999Z</time></trkpt><trkpt lat="40.18076572373428" lon="18.084289411061143"><ele>44.5</ele><time>2026-04-12T13:26:43.999Z</time></trkpt><trkpt lat="40.18054893527063" lon="18.084196020550582"><ele>44.0</ele><time>2026-04-12T13:26:44.999Z</time></trkpt><trkpt lat="40.18032773924359" lon="18.08410172392624"><ele>43.0</ele><time>2026-04-12T13:26:45.999Z</time></trkpt><trkpt lat="40.18010923090864" lon="18.08400573645262"><ele>42.0</ele><time>2026-04-12T13:26:46.999Z</time></trkpt><trkpt lat="40.179889693515285" lon="18.083906651978698"><ele>42.0</ele><time>2026-04-12T13:26:47.999Z</time></trkpt><trkpt lat="40.179670536064776" lon="18.083804477040104"><ele>42.0</ele><time>2026-04-12T13:26:48.999Z</time></trkpt><trkpt lat="40.17945419020371" lon="18.0836959700849"><ele>42.0</ele><time>2026-04-12T13:26:49.999Z</time></trkpt><trkpt lat="40.17923746945759" lon="18.083584017036387"><ele>42.0</ele><time>2026-04-12T13:26:50.999Z</time></trkpt><trkpt lat="40.17902465244778" lon="18.083464995495454"><ele>42.0</ele><time>2026-04-12T13:26:51.999Z</time></trkpt><trkpt lat="40.178813827794656" lon="18.08334353272546"><ele>42.0</ele><time>2026-04-12T13:26:52.999Z</time></trkpt><trkpt lat="40.178604504852125" lon="18.08321228773776"><ele>42.0</ele><time>2026-04-12T13:26:53.999Z</time></trkpt><trkpt lat="40.178399904741234" lon="18.08307406702822"><ele>42.0</ele><time>2026-04-12T13:26:54.999Z</time></trkpt><trkpt lat="40.178202466275735" lon="18.08293542724542"><ele>42.5</ele><time>2026-04-12T13:26:55.999Z</time></trkpt><trkpt lat="40.178003361614245" lon="18.082795425137533"><ele>43.0</ele><time>2026-04-12T13:26:56.998Z</time></trkpt><trkpt lat="40.17780854528916" lon="18.08264831547529"><ele>43.0</ele><time>2026-04-12T13:26:57.998Z</time></trkpt><trkpt lat="40.17761544234599" lon="18.08249885264765"><ele>43.0</ele><time>2026-04-12T13:26:58.999Z</time></trkpt><trkpt lat="40.177420664861025" lon="18.082341130139554"><ele>43.5</ele><time>2026-04-12T13:26:59.998Z</time></trkpt><trkpt lat="40.1772304706935" lon="18.082171280735743"><ele>44.0</ele><time>2026-04-12T13:27:00.998Z</time></trkpt><trkpt lat="40.17704271586928" lon="18.081994641225535"><ele>44.0</ele><time>2026-04-12T13:27:01.999Z</time></trkpt><trkpt lat="40.176860620533965" lon="18.081807992625095"><ele>44.0</ele><time>2026-04-12T13:27:02.999Z</time></trkpt><trkpt lat="40.176682569444736" lon="18.081615682047893"><ele>43.5</ele><time>2026-04-12T13:27:03.999Z</time></trkpt><trkpt lat="40.176506588886824" lon="18.08142336997503"><ele>43.0</ele><time>2026-04-12T13:27:04.998Z</time></trkpt><trkpt lat="40.176334147365424" lon="18.08122373185426"><ele>43.0</ele><time>2026-04-12T13:27:05.998Z</time></trkpt><trkpt lat="40.176164825079674" lon="18.081018192230523"><ele>43.0</ele><time>2026-04-12T13:27:06.998Z</time></trkpt><trkpt lat="40.175995560285" lon="18.08081070302959"><ele>42.5</ele><time>2026-04-12T13:27:07.998Z</time></trkpt><trkpt lat="40.17583096109277" lon="18.08059986595339"><ele>42.0</ele><time>2026-04-12T13:27:08.998Z</time></trkpt><trkpt lat="40.17567008055405" lon="18.080385477344667"><ele>42.0</ele><time>2026-04-12T13:27:09.998Z</time></trkpt><trkpt lat="40.17551456887217" lon="18.080169827603985"><ele>42.0</ele><time>2026-04-12T13:27:10.998Z</time></trkpt><trkpt lat="40.175363077127635" lon="18.079948585246814"><ele>41.5</ele><time>2026-04-12T13:27:11.998Z</time></trkpt><trkpt lat="40.17521433472015" lon="18.07972074480257"><ele>41.0</ele><time>2026-04-12T13:27:12.998Z</time></trkpt><trkpt lat="40.175067664618034" lon="18.079488151946933"><ele>41.0</ele><time>2026-04-12T13:27:13.998Z</time></trkpt><trkpt lat="40.17492483065695" lon="18.079257742106602"><ele>41.0</ele><time>2026-04-12T13:27:14.998Z</time></trkpt><trkpt lat="40.17478183641211" lon="18.07903086020222"><ele>42.0</ele><time>2026-04-12T13:27:15.998Z</time></trkpt><trkpt lat="40.17463627972106" lon="18.078800868829873"><ele>43.0</ele><time>2026-04-12T13:27:16.998Z</time></trkpt><trkpt lat="40.17449362729571" lon="18.07857133261268"><ele>43.0</ele><time>2026-04-12T13:27:17.998Z</time></trkpt><trkpt lat="40.17434878651501" lon="18.078340299802257"><ele>43.0</ele><time>2026-04-12T13:27:18.998Z</time></trkpt><trkpt lat="40.17420444450293" lon="18.078104804693652"><ele>43.5</ele><time>2026-04-12T13:27:19.998Z</time></trkpt><trkpt lat="40.17405805755443" lon="18.077872722386964"><ele>44.0</ele><time>2026-04-12T13:27:20.998Z</time></trkpt><trkpt lat="40.17391791869971" lon="18.07764132141035"><ele>43.0</ele><time>2026-04-12T13:27:21.998Z</time></trkpt><trkpt lat="40.17377522089575" lon="18.07740457153112"><ele>42.0</ele><time>2026-04-12T13:27:22.998Z</time></trkpt><trkpt lat="40.17362830569312" lon="18.077168833157724"><ele>42.0</ele><time>2026-04-12T13:27:23.998Z</time></trkpt><trkpt lat="40.1734781968093" lon="18.076937788036687"><ele>42.0</ele><time>2026-04-12T13:27:24.998Z</time></trkpt><trkpt lat="40.17333046636596" lon="18.07671224529772"><ele>43.0</ele><time>2026-04-12T13:27:25.998Z</time></trkpt><trkpt lat="40.1731816132019" lon="18.076486770046138"><ele>44.0</ele><time>2026-04-12T13:27:26.998Z</time></trkpt><trkpt lat="40.173034175886556" lon="18.07626071637238"><ele>44.0</ele><time>2026-04-12T13:27:27.998Z</time></trkpt><trkpt lat="40.172888218813945" lon="18.07603506637528"><ele>44.0</ele><time>2026-04-12T13:27:28.998Z</time></trkpt><trkpt lat="40.1727380302179" lon="18.075806952477123"><ele>44.0</ele><time>2026-04-12T13:27:29.998Z</time></trkpt><trkpt lat="40.17259174800924" lon="18.07557866477283"><ele>44.0</ele><time>2026-04-12T13:27:30.998Z</time></trkpt><trkpt lat="40.1724442989863" lon="18.07535263916453"><ele>43.0</ele><time>2026-04-12T13:27:31.998Z</time></trkpt><trkpt lat="40.172294873158435" lon="18.075134356567727"><ele>42.0</ele><time>2026-04-12T13:27:32.998Z</time></trkpt><trkpt lat="40.17215109348399" lon="18.074900087150564"><ele>42.0</ele><time>2026-04-12T13:27:33.998Z</time></trkpt><trkpt lat="40.17200074005045" lon="18.074670711934367"><ele>42.0</ele><time>2026-04-12T13:27:34.998Z</time></trkpt><trkpt lat="40.17186000752982" lon="18.074424550303917"><ele>42.0</ele><time>2026-04-12T13:27:35.998Z</time></trkpt><trkpt lat="40.171718684119234" lon="18.074178973033046"><ele>42.0</ele><time>2026-04-12T13:27:36.998Z</time></trkpt><trkpt lat="40.171574702682726" lon="18.073941202460286"><ele>43.0</ele><time>2026-04-12T13:27:37.998Z</time></trkpt><trkpt lat="40.17143111822204" lon="18.07370444261843"><ele>44.0</ele><time>2026-04-12T13:27:38.998Z</time></trkpt><trkpt lat="40.17128544974999" lon="18.073467162987768"><ele>44.0</ele><time>2026-04-12T13:27:39.998Z</time></trkpt><trkpt lat="40.17114049639724" lon="18.073228687674206"><ele>44.0</ele><time>2026-04-12T13:27:40.998Z</time></trkpt><trkpt lat="40.17099501065825" lon="18.07299350269288"><ele>44.0</ele><time>2026-04-12T13:27:41.998Z</time></trkpt><trkpt lat="40.17084987634297" lon="18.072754755114897"><ele>44.0</ele><time>2026-04-12T13:27:42.998Z</time></trkpt><trkpt lat="40.17070433736734" lon="18.07252115398372"><ele>44.5</ele><time>2026-04-12T13:27:43.998Z</time></trkpt><trkpt lat="40.17055554562217" lon="18.072293967647145"><ele>45.0</ele><time>2026-04-12T13:27:44.998Z</time></trkpt><trkpt lat="40.170411164852" lon="18.07205858244845"><ele>45.0</ele><time>2026-04-12T13:27:45.998Z</time></trkpt><trkpt lat="40.170267920614194" lon="18.071824123934118"><ele>45.0</ele><time>2026-04-12T13:27:46.998Z</time></trkpt><trkpt lat="40.170126670678954" lon="18.07159208761961"><ele>45.0</ele><time>2026-04-12T13:27:47.998Z</time></trkpt><trkpt lat="40.169986124643664" lon="18.071361571490574"><ele>45.0</ele><time>2026-04-12T13:27:48.998Z</time></trkpt><trkpt lat="40.16984035294051" lon="18.0711337493399"><ele>45.0</ele><time>2026-04-12T13:27:49.998Z</time></trkpt><trkpt lat="40.16969628065943" lon="18.070910078721248"><ele>45.0</ele><time>2026-04-12T13:27:50.998Z</time></trkpt><trkpt lat="40.169550132255516" lon="18.07068393816463"><ele>44.0</ele><time>2026-04-12T13:27:51.998Z</time></trkpt><trkpt lat="40.16940374257891" lon="18.07045734023824"><ele>43.0</ele><time>2026-04-12T13:27:52.998Z</time></trkpt><trkpt lat="40.16925707733941" lon="18.07022731408693"><ele>43.0</ele><time>2026-04-12T13:27:53.998Z</time></trkpt><trkpt lat="40.16911189475011" lon="18.069994165234522"><ele>43.0</ele><time>2026-04-12T13:27:54.998Z</time></trkpt><trkpt lat="40.16896497192146" lon="18.069758928868108"><ele>43.5</ele><time>2026-04-12T13:27:55.998Z</time></trkpt><trkpt lat="40.16882027634802" lon="18.069526142741417"><ele>44.0</ele><time>2026-04-12T13:27:56.998Z</time></trkpt><trkpt lat="40.16867529424221" lon="18.06929190778967"><ele>43.5</ele><time>2026-04-12T13:27:57.998Z</time></trkpt><trkpt lat="40.1685290376554" lon="18.069057455294743"><ele>43.0</ele><time>2026-04-12T13:27:58.998Z</time></trkpt><trkpt lat="40.168382907720584" lon="18.068826833040692"><ele>43.0</ele><time>2026-04-12T13:27:59.998Z</time></trkpt><trkpt lat="40.16823520955495" lon="18.068599495391176"><ele>43.0</ele><time>2026-04-12T13:28:00.998Z</time></trkpt><trkpt lat="40.16808745419261" lon="18.068371737571862"><ele>44.0</ele><time>2026-04-12T13:28:01.998Z</time></trkpt><trkpt lat="40.16794010515331" lon="18.068139353320653"><ele>45.0</ele><time>2026-04-12T13:28:02.998Z</time></trkpt><trkpt lat="40.16779499985762" lon="18.067906429753847"><ele>45.0</ele><time>2026-04-12T13:28:03.998Z</time></trkpt><trkpt lat="40.167650598404535" lon="18.06767341947478"><ele>45.0</ele><time>2026-04-12T13:28:04.998Z</time></trkpt><trkpt lat="40.167505536628056" lon="18.067436761809095"><ele>44.5</ele><time>2026-04-12T13:28:05.998Z</time></trkpt><trkpt lat="40.16736198163059" lon="18.06720317512928"><ele>44.0</ele><time>2026-04-12T13:28:06.998Z</time></trkpt><trkpt lat="40.167218587156" lon="18.066972924382423"><ele>45.0</ele><time>2026-04-12T13:28:07.998Z</time></trkpt><trkpt lat="40.16707216046297" lon="18.066745529273906"><ele>46.0</ele><time>2026-04-12T13:28:08.998Z</time></trkpt><trkpt lat="40.166925612531195" lon="18.066514465100195"><ele>46.0</ele><time>2026-04-12T13:28:09.998Z</time></trkpt><trkpt lat="40.16678105902452" lon="18.06627942017492"><ele>46.0</ele><time>2026-04-12T13:28:10.998Z</time></trkpt><trkpt lat="40.166635116265546" lon="18.06604657560126"><ele>45.5</ele><time>2026-04-12T13:28:11.998Z</time></trkpt><trkpt lat="40.16649129764709" lon="18.065808305399468"><ele>45.0</ele><time>2026-04-12T13:28:12.998Z</time></trkpt><trkpt lat="40.16634871484196" lon="18.065573120200014"><ele>46.0</ele><time>2026-04-12T13:28:13.998Z</time></trkpt><trkpt lat="40.1662023509733" lon="18.06534494036222"><ele>47.0</ele><time>2026-04-12T13:28:14.998Z</time></trkpt><trkpt lat="40.16605497216733" lon="18.065118500513353"><ele>45.5</ele><time>2026-04-12T13:28:15.998Z</time></trkpt><trkpt lat="40.16591087462641" lon="18.06488871894762"><ele>44.0</ele><time>2026-04-12T13:28:16.998Z</time></trkpt><trkpt lat="40.165765896557915" lon="18.06465782364481"><ele>45.0</ele><time>2026-04-12T13:28:17.998Z</time></trkpt><trkpt lat="40.16561893427535" lon="18.064430208270085"><ele>46.0</ele><time>2026-04-12T13:28:18.998Z</time></trkpt><trkpt lat="40.16547322472747" lon="18.06420271058181"><ele>46.0</ele><time>2026-04-12T13:28:19.998Z</time></trkpt><trkpt lat="40.165325549827706" lon="18.063972007344937"><ele>46.0</ele><time>2026-04-12T13:28:20.998Z</time></trkpt><trkpt lat="40.16517917084718" lon="18.063741528716722"><ele>46.0</ele><time>2026-04-12T13:28:21.998Z</time></trkpt><trkpt lat="40.16503322336029" lon="18.06351204466606"><ele>46.0</ele><time>2026-04-12T13:28:22.998Z</time></trkpt><trkpt lat="40.164888180719366" lon="18.063282790565747"><ele>46.5</ele><time>2026-04-12T13:28:23.998Z</time></trkpt><trkpt lat="40.164744036474225" lon="18.063052898794663"><ele>47.0</ele><time>2026-04-12T13:28:24.998Z</time></trkpt><trkpt lat="40.164595914340794" lon="18.062822386640462"><ele>47.0</ele><time>2026-04-12T13:28:25.998Z</time></trkpt><trkpt lat="40.16444444450565" lon="18.062595779749632"><ele>47.0</ele><time>2026-04-12T13:28:26.998Z</time></trkpt><trkpt lat="40.164295043471725" lon="18.062368892894767"><ele>47.0</ele><time>2026-04-12T13:28:27.998Z</time></trkpt><trkpt lat="40.16414571050156" lon="18.06214136686679"><ele>47.0</ele><time>2026-04-12T13:28:28.998Z</time></trkpt><trkpt lat="40.16400077977186" lon="18.06190999487291"><ele>47.5</ele><time>2026-04-12T13:28:29.998Z</time></trkpt><trkpt lat="40.163859442082554" lon="18.06167803344959"><ele>48.0</ele><time>2026-04-12T13:28:30.998Z</time></trkpt><trkpt lat="40.16371712048256" lon="18.061445977987855"><ele>48.5</ele><time>2026-04-12T13:28:31.998Z</time></trkpt><trkpt lat="40.16357435699052" lon="18.061214440383697"><ele>49.0</ele><time>2026-04-12T13:28:32.998Z</time></trkpt><trkpt lat="40.16342929640398" lon="18.060987812926754"><ele>48.5</ele><time>2026-04-12T13:28:33.998Z</time></trkpt><trkpt lat="40.1632826910093" lon="18.060757171989486"><ele>48.0</ele><time>2026-04-12T13:28:34.998Z</time></trkpt><trkpt lat="40.16313843848324" lon="18.06053028789478"><ele>47.5</ele><time>2026-04-12T13:28:35.998Z</time></trkpt><trkpt lat="40.162993390897014" lon="18.060302061565306"><ele>47.0</ele><time>2026-04-12T13:28:36.998Z</time></trkpt><trkpt lat="40.162848900172705" lon="18.060076950654476"><ele>47.5</ele><time>2026-04-12T13:28:37.998Z</time></trkpt><trkpt lat="40.16270036849327" lon="18.05984781541405"><ele>48.0</ele><time>2026-04-12T13:28:38.998Z</time></trkpt><trkpt lat="40.16254732919352" lon="18.059630338386775"><ele>48.0</ele><time>2026-04-12T13:28:39.998Z</time></trkpt><trkpt lat="40.16239796541444" lon="18.059400738754174"><ele>48.0</ele><time>2026-04-12T13:28:40.998Z</time></trkpt><trkpt lat="40.162256873571046" lon="18.059154811848803"><ele>47.0</ele><time>2026-04-12T13:28:41.998Z</time></trkpt><trkpt lat="40.16210618207033" lon="18.05892508746032"><ele>46.0</ele><time>2026-04-12T13:28:42.998Z</time></trkpt><trkpt lat="40.161963439134986" lon="18.058682187714133"><ele>46.0</ele><time>2026-04-12T13:28:43.998Z</time></trkpt><trkpt lat="40.161821406826455" lon="18.05843649253037"><ele>46.0</ele><time>2026-04-12T13:28:44.998Z</time></trkpt><trkpt lat="40.16167762520775" lon="18.058199283095664"><ele>46.0</ele><time>2026-04-12T13:28:45.998Z</time></trkpt><trkpt lat="40.16153147710533" lon="18.057967453209663"><ele>46.0</ele><time>2026-04-12T13:28:46.998Z</time></trkpt><trkpt lat="40.1613866456321" lon="18.05773237908323"><ele>46.0</ele><time>2026-04-12T13:28:47.998Z</time></trkpt><trkpt lat="40.16124189994159" lon="18.05749461807796"><ele>46.0</ele><time>2026-04-12T13:28:48.998Z</time></trkpt><trkpt lat="40.16109718464438" lon="18.057257501743933"><ele>46.0</ele><time>2026-04-12T13:28:49.998Z</time></trkpt><trkpt lat="40.16095369106892" lon="18.057018478245617"><ele>46.0</ele><time>2026-04-12T13:28:50.998Z</time></trkpt><trkpt lat="40.16080705877225" lon="18.0567803502058"><ele>46.5</ele><time>2026-04-12T13:28:51.998Z</time></trkpt><trkpt lat="40.160663444531956" lon="18.0565477627952"><ele>47.0</ele><time>2026-04-12T13:28:52.998Z</time></trkpt><trkpt lat="40.160519498968014" lon="18.056318187320148"><ele>47.0</ele><time>2026-04-12T13:28:53.998Z</time></trkpt><trkpt lat="40.16037484670041" lon="18.05609381480554"><ele>47.0</ele><time>2026-04-12T13:28:54.998Z</time></trkpt><trkpt lat="40.160228650469854" lon="18.055860317881073"><ele>46.0</ele><time>2026-04-12T13:28:55.998Z</time></trkpt><trkpt lat="40.160081927261224" lon="18.055623262211533"><ele>45.0</ele><time>2026-04-12T13:28:56.998Z</time></trkpt><trkpt lat="40.15993635356406" lon="18.05539127523604"><ele>46.0</ele><time>2026-04-12T13:28:57.998Z</time></trkpt><trkpt lat="40.15979063360439" lon="18.055162928052912"><ele>47.0</ele><time>2026-04-12T13:28:58.998Z</time></trkpt><trkpt lat="40.15964247894509" lon="18.05493772129278"><ele>47.0</ele><time>2026-04-12T13:28:59.998Z</time></trkpt><trkpt lat="40.15949536517501" lon="18.054712174894075"><ele>47.0</ele><time>2026-04-12T13:29:00.998Z</time></trkpt><trkpt lat="40.15934713465285" lon="18.054483331231125"><ele>47.0</ele><time>2026-04-12T13:29:01.998Z</time></trkpt><trkpt lat="40.159197393460715" lon="18.054256814807903"><ele>47.0</ele><time>2026-04-12T13:29:02.998Z</time></trkpt><trkpt lat="40.15904390339909" lon="18.054041313746374"><ele>47.5</ele><time>2026-04-12T13:29:03.998Z</time></trkpt><trkpt lat="40.15888677148175" lon="18.05383274039098"><ele>48.0</ele><time>2026-04-12T13:29:04.998Z</time></trkpt><trkpt lat="40.158720366737974" lon="18.053627965471392"><ele>48.0</ele><time>2026-04-12T13:29:05.999Z</time></trkpt><trkpt lat="40.15854909263149" lon="18.053432193130106"><ele>48.0</ele><time>2026-04-12T13:29:06.999Z</time></trkpt><trkpt lat="40.15837249185537" lon="18.05324481521769"><ele>47.0</ele><time>2026-04-12T13:29:07.999Z</time></trkpt><trkpt lat="40.15818944394734" lon="18.053062444328134"><ele>46.0</ele><time>2026-04-12T13:29:08.998Z</time></trkpt><trkpt lat="40.158003522654525" lon="18.052884256101695"><ele>46.0</ele><time>2026-04-12T13:29:09.998Z</time></trkpt><trkpt lat="40.15781457074856" lon="18.05271280835157"><ele>46.0</ele><time>2026-04-12T13:29:10.998Z</time></trkpt><trkpt lat="40.157624735263404" lon="18.05254478039765"><ele>46.5</ele><time>2026-04-12T13:29:11.998Z</time></trkpt><trkpt lat="40.157429338533404" lon="18.052387448669563"><ele>47.0</ele><time>2026-04-12T13:29:12.998Z</time></trkpt><trkpt lat="40.157234346763424" lon="18.052238279607803"><ele>47.0</ele><time>2026-04-12T13:29:13.998Z</time></trkpt><trkpt lat="40.15703600034639" lon="18.052091662244166"><ele>47.0</ele><time>2026-04-12T13:29:14.998Z</time></trkpt><trkpt lat="40.15683283095535" lon="18.051943102669572"><ele>47.0</ele><time>2026-04-12T13:29:15.998Z</time></trkpt><trkpt lat="40.15662948841026" lon="18.05180030321977"><ele>47.0</ele><time>2026-04-12T13:29:16.998Z</time></trkpt><trkpt lat="40.15642187266233" lon="18.051666785548345"><ele>47.0</ele><time>2026-04-12T13:29:17.998Z</time></trkpt><trkpt lat="40.1562069925531" lon="18.05153944398128"><ele>47.0</ele><time>2026-04-12T13:29:18.998Z</time></trkpt><trkpt lat="40.15599199514492" lon="18.05142048602272"><ele>47.0</ele><time>2026-04-12T13:29:19.998Z</time></trkpt><trkpt lat="40.15577676364279" lon="18.05131175276054"><ele>47.0</ele><time>2026-04-12T13:29:20.998Z</time></trkpt><trkpt lat="40.155560513934255" lon="18.051206317091847"><ele>47.0</ele><time>2026-04-12T13:29:21.998Z</time></trkpt><trkpt lat="40.15534036220091" lon="18.05110790206006"><ele>47.0</ele><time>2026-04-12T13:29:22.998Z</time></trkpt><trkpt lat="40.15511808880655" lon="18.051023821983964"><ele>47.0</ele><time>2026-04-12T13:29:23.998Z</time></trkpt><trkpt lat="40.15489247065245" lon="18.05095511610084"><ele>47.0</ele><time>2026-04-12T13:29:24.998Z</time></trkpt><trkpt lat="40.15466577807159" lon="18.050892996451854"><ele>48.0</ele><time>2026-04-12T13:29:25.998Z</time></trkpt><trkpt lat="40.15443814976702" lon="18.050833443094945"><ele>49.0</ele><time>2026-04-12T13:29:26.998Z</time></trkpt><trkpt lat="40.1542099359051" lon="18.050778060873967"><ele>48.0</ele><time>2026-04-12T13:29:27.998Z</time></trkpt><trkpt lat="40.15398597491909" lon="18.050730615802852"><ele>47.0</ele><time>2026-04-12T13:29:28.998Z</time></trkpt><trkpt lat="40.15376505607835" lon="18.050689571836507"><ele>47.0</ele><time>2026-04-12T13:29:29.998Z</time></trkpt><trkpt lat="40.15354103332299" lon="18.050642921505446"><ele>47.0</ele><time>2026-04-12T13:29:30.998Z</time></trkpt><trkpt lat="40.15331840706576" lon="18.0505906334911"><ele>47.33333333333333</ele><time>2026-04-12T13:29:31.998Z</time></trkpt><trkpt lat="40.15310116151926" lon="18.05053367961616"><ele>47.666666666666664</ele><time>2026-04-12T13:29:32.998Z</time></trkpt><trkpt lat="40.15288250824626" lon="18.050476906276522"><ele>48.0</ele><time>2026-04-12T13:29:33.998Z</time></trkpt><trkpt lat="40.152657766249085" lon="18.050423853099215"><ele>48.0</ele><time>2026-04-12T13:29:34.998Z</time></trkpt><trkpt lat="40.152433567927886" lon="18.050368224907807"><ele>48.0</ele><time>2026-04-12T13:29:35.998Z</time></trkpt><trkpt lat="40.15220871997005" lon="18.05031223366774"><ele>48.5</ele><time>2026-04-12T13:29:36.998Z</time></trkpt><trkpt lat="40.15198311469929" lon="18.0502568690078"><ele>49.0</ele><time>2026-04-12T13:29:37.998Z</time></trkpt><trkpt lat="40.15175758696238" lon="18.05019915112301"><ele>50.0</ele><time>2026-04-12T13:29:38.998Z</time></trkpt><trkpt lat="40.151531266691215" lon="18.05014413068873"><ele>51.0</ele><time>2026-04-12T13:29:39.998Z</time></trkpt><trkpt lat="40.15130514669421" lon="18.05009041412874"><ele>51.0</ele><time>2026-04-12T13:29:40.998Z</time></trkpt><trkpt lat="40.151078964231004" lon="18.050037405826192"><ele>51.0</ele><time>2026-04-12T13:29:41.998Z</time></trkpt><trkpt lat="40.15085224568969" lon="18.049979502648572"><ele>52.0</ele><time>2026-04-12T13:29:42.998Z</time></trkpt><trkpt lat="40.15062906577661" lon="18.049925179264783"><ele>53.0</ele><time>2026-04-12T13:29:43.998Z</time></trkpt><trkpt lat="40.150403941337906" lon="18.049874453134592"><ele>53.0</ele><time>2026-04-12T13:29:44.998Z</time></trkpt><trkpt lat="40.15018211786437" lon="18.04981995789038"><ele>53.0</ele><time>2026-04-12T13:29:45.998Z</time></trkpt><trkpt lat="40.149957912162314" lon="18.049762114010928"><ele>53.5</ele><time>2026-04-12T13:29:46.998Z</time></trkpt><trkpt lat="40.149733948197124" lon="18.049706646383356"><ele>54.0</ele><time>2026-04-12T13:29:47.998Z</time></trkpt><trkpt lat="40.149508115074916" lon="18.049655479129292"><ele>54.0</ele><time>2026-04-12T13:29:48.998Z</time></trkpt><trkpt lat="40.14928405753803" lon="18.049604642108804"><ele>54.0</ele><time>2026-04-12T13:29:49.998Z</time></trkpt><trkpt lat="40.14906010329458" lon="18.049553013179118"><ele>55.5</ele><time>2026-04-12T13:29:50.998Z</time></trkpt><trkpt lat="40.148832552215644" lon="18.0495001390471"><ele>57.0</ele><time>2026-04-12T13:29:51.998Z</time></trkpt><trkpt lat="40.14860537548587" lon="18.049451519839067"><ele>57.0</ele><time>2026-04-12T13:29:52.998Z</time></trkpt><trkpt lat="40.14837732030436" lon="18.04940095902747"><ele>57.0</ele><time>2026-04-12T13:29:53.998Z</time></trkpt><trkpt lat="40.1481544124846" lon="18.049354806157616"><ele>57.0</ele><time>2026-04-12T13:29:54.998Z</time></trkpt><trkpt lat="40.14793184951514" lon="18.049314376663805"><ele>57.0</ele><time>2026-04-12T13:29:55.998Z</time></trkpt><trkpt lat="40.147706475964654" lon="18.049274666570987"><ele>57.0</ele><time>2026-04-12T13:29:56.998Z</time></trkpt><trkpt lat="40.14748111206002" lon="18.04923633522726"><ele>57.0</ele><time>2026-04-12T13:29:57.998Z</time></trkpt><trkpt lat="40.147253404039105" lon="18.04919519210412"><ele>57.5</ele><time>2026-04-12T13:29:58.998Z</time></trkpt><trkpt lat="40.1470298391784" lon="18.049160180310952"><ele>58.0</ele><time>2026-04-12T13:29:59.998Z</time></trkpt><trkpt lat="40.146798760967805" lon="18.0491302466609"><ele>57.0</ele><time>2026-04-12T13:30:00.998Z</time></trkpt><trkpt lat="40.14656840618545" lon="18.04910745951158"><ele>56.0</ele><time>2026-04-12T13:30:01.998Z</time></trkpt><trkpt lat="40.146335648998026" lon="18.049087500545564"><ele>56.0</ele><time>2026-04-12T13:30:02.998Z</time></trkpt><trkpt lat="40.14610516300954" lon="18.049073754029806"><ele>56.0</ele><time>2026-04-12T13:30:03.998Z</time></trkpt><trkpt lat="40.14587176991015" lon="18.04906105569931"><ele>57.0</ele><time>2026-04-12T13:30:04.998Z</time></trkpt><trkpt lat="40.14563874441088" lon="18.049051321085855"><ele>58.0</ele><time>2026-04-12T13:30:05.998Z</time></trkpt><trkpt lat="40.14540742680514" lon="18.04904658786144"><ele>58.0</ele><time>2026-04-12T13:30:06.998Z</time></trkpt><trkpt lat="40.14517579222021" lon="18.04904917299278"><ele>58.0</ele><time>2026-04-12T13:30:07.998Z</time></trkpt><trkpt lat="40.144941651265555" lon="18.049056008597425"><ele>58.5</ele><time>2026-04-12T13:30:08.998Z</time></trkpt><trkpt lat="40.144710047313474" lon="18.049068596368876"><ele>59.0</ele><time>2026-04-12T13:30:09.998Z</time></trkpt><trkpt lat="40.14447694474606" lon="18.04908365369614"><ele>59.0</ele><time>2026-04-12T13:30:10.998Z</time></trkpt><trkpt lat="40.14424620796087" lon="18.04910628791045"><ele>59.0</ele><time>2026-04-12T13:30:11.998Z</time></trkpt><trkpt lat="40.144018423424534" lon="18.04913409283217"><ele>61.0</ele><time>2026-04-12T13:30:12.998Z</time></trkpt><trkpt lat="40.14379097990612" lon="18.04916702946779"><ele>63.0</ele><time>2026-04-12T13:30:13.998Z</time></trkpt><trkpt lat="40.143563837630595" lon="18.049201681575497"><ele>63.0</ele><time>2026-04-12T13:30:14.998Z</time></trkpt><trkpt lat="40.14333904810223" lon="18.04924394908092"><ele>63.0</ele><time>2026-04-12T13:30:15.998Z</time></trkpt><trkpt lat="40.143114602236054" lon="18.049289623401254"><ele>63.0</ele><time>2026-04-12T13:30:16.998Z</time></trkpt><trkpt lat="40.142890528547404" lon="18.04933510916019"><ele>63.0</ele><time>2026-04-12T13:30:17.998Z</time></trkpt><trkpt lat="40.142668914155934" lon="18.049382866524237"><ele>63.0</ele><time>2026-04-12T13:30:18.998Z</time></trkpt><trkpt lat="40.142446191703065" lon="18.04943961980918"><ele>63.0</ele><time>2026-04-12T13:30:19.998Z</time></trkpt><trkpt lat="40.14222347001052" lon="18.0495025312609"><ele>62.5</ele><time>2026-04-12T13:30:20.998Z</time></trkpt><trkpt lat="40.14200201362772" lon="18.04957082969536"><ele>62.0</ele><time>2026-04-12T13:30:21.998Z</time></trkpt><trkpt lat="40.14177897157363" lon="18.04963681887838"><ele>62.0</ele><time>2026-04-12T13:30:22.998Z</time></trkpt><trkpt lat="40.14155576285189" lon="18.04970905839929"><ele>62.0</ele><time>2026-04-12T13:30:23.998Z</time></trkpt><trkpt lat="40.14132960055368" lon="18.04978057800856"><ele>63.0</ele><time>2026-04-12T13:30:24.998Z</time></trkpt><trkpt lat="40.14111366514328" lon="18.04985443517899"><ele>64.0</ele><time>2026-04-12T13:30:25.998Z</time></trkpt><trkpt lat="40.14090804391116" lon="18.04992242408953"><ele>65.0</ele><time>2026-04-12T13:30:26.998Z</time></trkpt><trkpt lat="40.140704552676205" lon="18.04998691682259"><ele>66.0</ele><time>2026-04-12T13:30:27.998Z</time></trkpt><trkpt lat="40.14050096198195" lon="18.05005139340508"><ele>67.0</ele><time>2026-04-12T13:30:28.998Z</time></trkpt><trkpt lat="40.14028772115316" lon="18.050086922957128"><ele>68.0</ele><time>2026-04-12T13:30:29.998Z</time></trkpt><trkpt lat="40.14006014962009" lon="18.050112635623325"><ele>68.5</ele><time>2026-04-12T13:30:30.998Z</time></trkpt><trkpt lat="40.139818727381446" lon="18.050128202934374"><ele>69.0</ele><time>2026-04-12T13:30:31.998Z</time></trkpt><trkpt lat="40.13954600989194" lon="18.050104932347374"><ele>69.0</ele><time>2026-04-12T13:30:32.998Z</time></trkpt><trkpt lat="40.13928288964949" lon="18.050057403990003"><ele>69.0</ele><time>2026-04-12T13:30:33.998Z</time></trkpt><trkpt lat="40.13929649806987" lon="18.050359252062037"><ele>69.0</ele><time>2026-04-12T13:30:34.998Z</time></trkpt><trkpt lat="40.1391309412331" lon="18.050407201110506"><ele>69.0</ele><time>2026-04-12T13:30:35.998Z</time></trkpt><trkpt lat="40.13897735303497" lon="18.05042808621598"><ele>69.0</ele><time>2026-04-12T13:30:36.998Z</time></trkpt><trkpt lat="40.13883674917806" lon="18.050468859130433"><ele>69.0</ele><time>2026-04-12T13:30:37.998Z</time></trkpt><trkpt lat="40.13870752421502" lon="18.050508929780698"><ele>69.0</ele><time>2026-04-12T13:30:38.998Z</time></trkpt><trkpt lat="40.138597969151746" lon="18.05054314342583"><ele>69.0</ele><time>2026-04-12T13:30:39.998Z</time></trkpt><trkpt lat="40.138503414493655" lon="18.050564934051955"><ele>69.0</ele><time>2026-04-12T13:30:40.998Z</time></trkpt><trkpt lat="40.138419879886996" lon="18.05055725655095"><ele>69.0</ele><time>2026-04-12T13:30:41.998Z</time></trkpt><trkpt lat="40.138351783569384" lon="18.05051052829689"><ele>69.0</ele><time>2026-04-12T13:30:42.998Z</time></trkpt><trkpt lat="40.13828601602102" lon="18.05043851714575"><ele>69.0</ele><time>2026-04-12T13:30:43.998Z</time></trkpt><trkpt lat="40.138228485799154" lon="18.050322098861788"><ele>69.0</ele><time>2026-04-12T13:30:44.998Z</time></trkpt><trkpt lat="40.13817984916809" lon="18.050176138081216"><ele>69.0</ele><time>2026-04-12T13:30:45.998Z</time></trkpt><trkpt lat="40.13812940725416" lon="18.050007199818936"><ele>69.5</ele><time>2026-04-12T13:30:46.998Z</time></trkpt><trkpt lat="40.138089511540045" lon="18.049849925331966"><ele>70.0</ele><time>2026-04-12T13:30:47.998Z</time></trkpt><trkpt lat="40.13808802043812" lon="18.049720462686597"><ele>70.5</ele><time>2026-04-12T13:30:48.998Z</time></trkpt><trkpt lat="40.13811108244863" lon="18.04958573289743"><ele>71.0</ele><time>2026-04-12T13:30:49.998Z</time></trkpt><trkpt lat="40.13816569752813" lon="18.049447688890503"><ele>71.0</ele><time>2026-04-12T13:30:50.998Z</time></trkpt><trkpt lat="40.138244219712504" lon="18.0493319027712"><ele>71.0</ele><time>2026-04-12T13:30:51.998Z</time></trkpt><trkpt lat="40.138347648260265" lon="18.049229348772418"><ele>71.0</ele><time>2026-04-12T13:30:52.998Z</time></trkpt><trkpt lat="40.13845853448486" lon="18.049143528150555"><ele>71.0</ele><time>2026-04-12T13:30:53.998Z</time></trkpt><trkpt lat="40.138558252649766" lon="18.049083450157006"><ele>71.0</ele><time>2026-04-12T13:30:54.998Z</time></trkpt><trkpt lat="40.13863687916516" lon="18.049036040238647"><ele>71.0</ele><time>2026-04-12T13:30:55.998Z</time></trkpt><trkpt lat="40.13869655897043" lon="18.048997553808544"><ele>71.0</ele><time>2026-04-12T13:30:56.998Z</time></trkpt><trkpt lat="40.138764456160224" lon="18.048952051946124"><ele>71.0</ele><time>2026-04-12T13:30:59.998Z</time></trkpt><trkpt lat="40.13877519411647" lon="18.048839169361354"><ele>71.0</ele><time>2026-04-12T13:31:03.998Z</time></trkpt><trkpt lat="40.138729136138046" lon="18.048770060405303"><ele>71.0</ele><time>2026-04-12T13:31:04.998Z</time></trkpt><trkpt lat="40.138663363773034" lon="18.048705064912532"><ele>71.0</ele><time>2026-04-12T13:31:05.998Z</time></trkpt><trkpt lat="40.13857922791707" lon="18.048613156754318"><ele>71.0</ele><time>2026-04-12T13:31:06.998Z</time></trkpt><trkpt lat="40.138472084664585" lon="18.048499456956733"><ele>71.0</ele><time>2026-04-12T13:31:07.998Z</time></trkpt><trkpt lat="40.13835435217674" lon="18.048367480641286"><ele>71.0</ele><time>2026-04-12T13:31:08.998Z</time></trkpt><trkpt lat="40.13822151127702" lon="18.04822202206774"><ele>71.66666666666667</ele><time>2026-04-12T13:31:09.998Z</time></trkpt><trkpt lat="40.13807269805637" lon="18.0480737358701"><ele>72.33333333333333</ele><time>2026-04-12T13:31:10.998Z</time></trkpt><trkpt lat="40.13791729311941" lon="18.047920139305905"><ele>73.0</ele><time>2026-04-12T13:31:11.997Z</time></trkpt><trkpt lat="40.1377671451149" lon="18.047760084063178"><ele>73.0</ele><time>2026-04-12T13:31:12.997Z</time></trkpt><trkpt lat="40.13761926652575" lon="18.047616375549076"><ele>73.0</ele><time>2026-04-12T13:31:13.998Z</time></trkpt><trkpt lat="40.13748846772255" lon="18.047472011403258"><ele>73.0</ele><time>2026-04-12T13:31:14.998Z</time></trkpt><trkpt lat="40.137356755220395" lon="18.04733060839839"><ele>73.0</ele><time>2026-04-12T13:31:15.998Z</time></trkpt><trkpt lat="40.137223341408124" lon="18.047195278681475"><ele>73.0</ele><time>2026-04-12T13:31:16.998Z</time></trkpt><trkpt lat="40.13708845343902" lon="18.04705741502293"><ele>73.0</ele><time>2026-04-12T13:31:17.998Z</time></trkpt><trkpt lat="40.13694988302383" lon="18.04692221263496"><ele>73.0</ele><time>2026-04-12T13:31:18.998Z</time></trkpt><trkpt lat="40.13681166172981" lon="18.046776683813626"><ele>73.0</ele><time>2026-04-12T13:31:19.997Z</time></trkpt><trkpt lat="40.13667556959707" lon="18.046624888238455"><ele>73.0</ele><time>2026-04-12T13:31:20.997Z</time></trkpt><trkpt lat="40.136539298065756" lon="18.046476965152195"><ele>73.33333333333333</ele><time>2026-04-12T13:31:21.997Z</time></trkpt><trkpt lat="40.136406038394384" lon="18.046325678843278"><ele>73.66666666666667</ele><time>2026-04-12T13:31:22.997Z</time></trkpt><trkpt lat="40.136265020574186" lon="18.046163208963513"><ele>74.0</ele><time>2026-04-12T13:31:23.997Z</time></trkpt><trkpt lat="40.13613452501545" lon="18.04598504390494"><ele>74.0</ele><time>2026-04-12T13:31:24.997Z</time></trkpt><trkpt lat="40.135987301681425" lon="18.045830080553642"><ele>74.0</ele><time>2026-04-12T13:31:25.997Z</time></trkpt><trkpt lat="40.135846761781096" lon="18.04565367000631"><ele>74.0</ele><time>2026-04-12T13:31:26.997Z</time></trkpt><trkpt lat="40.135739333919126" lon="18.045435307390072"><ele>73.66666666666667</ele><time>2026-04-12T13:31:27.997Z</time></trkpt><trkpt lat="40.13562371795936" lon="18.045235038670857"><ele>73.33333333333333</ele><time>2026-04-12T13:31:28.997Z</time></trkpt><trkpt lat="40.13550025361747" lon="18.045053727143173"><ele>73.0</ele><time>2026-04-12T13:31:29.997Z</time></trkpt><trkpt lat="40.135381342372014" lon="18.044863732710333"><ele>73.0</ele><time>2026-04-12T13:31:30.997Z</time></trkpt><trkpt lat="40.1352650974447" lon="18.04465799458512"><ele>73.0</ele><time>2026-04-12T13:31:31.997Z</time></trkpt><trkpt lat="40.135147269180756" lon="18.044457564685047"><ele>73.0</ele><time>2026-04-12T13:31:32.997Z</time></trkpt><trkpt lat="40.135034114739646" lon="18.044265977244137"><ele>72.66666666666666</ele><time>2026-04-12T13:31:33.997Z</time></trkpt><trkpt lat="40.134932690070336" lon="18.044086053328037"><ele>72.33333333333333</ele><time>2026-04-12T13:31:34.997Z</time></trkpt><trkpt lat="40.13483178702995" lon="18.04391864123918"><ele>72.0</ele><time>2026-04-12T13:31:35.997Z</time></trkpt><trkpt lat="40.13473932997396" lon="18.043756069610303"><ele>72.0</ele><time>2026-04-12T13:31:36.997Z</time></trkpt><trkpt lat="40.1346528035384" lon="18.04360962718605"><ele>72.0</ele><time>2026-04-12T13:31:37.997Z</time></trkpt><trkpt lat="40.13456907098984" lon="18.04346979752504"><ele>72.0</ele><time>2026-04-12T13:31:38.997Z</time></trkpt><trkpt lat="40.1344869301176" lon="18.043335244392377"><ele>72.0</ele><time>2026-04-12T13:31:39.997Z</time></trkpt><trkpt lat="40.1344040887135" lon="18.043197238721476"><ele>72.33333333333333</ele><time>2026-04-12T13:31:40.997Z</time></trkpt><trkpt lat="40.1343241549194" lon="18.043041605273416"><ele>72.66666666666666</ele><time>2026-04-12T13:31:41.997Z</time></trkpt><trkpt lat="40.13423604546724" lon="18.042869698163887"><ele>73.0</ele><time>2026-04-12T13:31:42.997Z</time></trkpt><trkpt lat="40.13413752932496" lon="18.042689870383278"><ele>72.66666666666666</ele><time>2026-04-12T13:31:43.997Z</time></trkpt><trkpt lat="40.13403100325013" lon="18.04249378903328"><ele>72.33333333333333</ele><time>2026-04-12T13:31:44.997Z</time></trkpt><trkpt lat="40.133927363925864" lon="18.042283070204327"><ele>72.0</ele><time>2026-04-12T13:31:45.997Z</time></trkpt><trkpt lat="40.1338146582145" lon="18.042062443958795"><ele>71.66666666666667</ele><time>2026-04-12T13:31:46.997Z</time></trkpt><trkpt lat="40.133697957791995" lon="18.041837005157326"><ele>71.33333333333334</ele><time>2026-04-12T13:31:47.997Z</time></trkpt><trkpt lat="40.133575500933645" lon="18.04161046546775"><ele>71.0</ele><time>2026-04-12T13:31:48.997Z</time></trkpt><trkpt lat="40.13345756817885" lon="18.041388612692092"><ele>71.0</ele><time>2026-04-12T13:31:49.997Z</time></trkpt><trkpt lat="40.133335773213176" lon="18.0411575667379"><ele>71.0</ele><time>2026-04-12T13:31:50.997Z</time></trkpt><trkpt lat="40.1332071955694" lon="18.040917497056682"><ele>71.0</ele><time>2026-04-12T13:31:51.997Z</time></trkpt><trkpt lat="40.133083614283066" lon="18.040681733714393"><ele>71.0</ele><time>2026-04-12T13:31:52.997Z</time></trkpt><trkpt lat="40.13298212710703" lon="18.040450739358803"><ele>71.0</ele><time>2026-04-12T13:31:53.997Z</time></trkpt><trkpt lat="40.13288844581392" lon="18.040214029866892"><ele>71.0</ele><time>2026-04-12T13:31:54.997Z</time></trkpt><trkpt lat="40.13279817463448" lon="18.039966455980874"><ele>71.0</ele><time>2026-04-12T13:31:55.997Z</time></trkpt><trkpt lat="40.13271064607744" lon="18.039714509607773"><ele>71.0</ele><time>2026-04-12T13:31:56.997Z</time></trkpt><trkpt lat="40.13262251072132" lon="18.03946489692508"><ele>71.0</ele><time>2026-04-12T13:31:57.997Z</time></trkpt><trkpt lat="40.13253273833499" lon="18.039220947395354"><ele>70.66666666666667</ele><time>2026-04-12T13:31:58.997Z</time></trkpt><trkpt lat="40.13244463695155" lon="18.038970802036424"><ele>70.33333333333333</ele><time>2026-04-12T13:31:59.997Z</time></trkpt><trkpt lat="40.132356374217494" lon="18.038728146233165"><ele>70.0</ele><time>2026-04-12T13:32:00.997Z</time></trkpt><trkpt lat="40.13227094639087" lon="18.038489523131833"><ele>69.66666666666666</ele><time>2026-04-12T13:32:01.997Z</time></trkpt><trkpt lat="40.13218557421085" lon="18.038248837641785"><ele>69.33333333333333</ele><time>2026-04-12T13:32:02.997Z</time></trkpt><trkpt lat="40.13209343336854" lon="18.0380090952504"><ele>69.0</ele><time>2026-04-12T13:32:03.997Z</time></trkpt><trkpt lat="40.13199804392214" lon="18.03777322413756"><ele>69.0</ele><time>2026-04-12T13:32:04.997Z</time></trkpt><trkpt lat="40.131897620800814" lon="18.037539298872716"><ele>69.0</ele><time>2026-04-12T13:32:05.997Z</time></trkpt><trkpt lat="40.131797679507926" lon="18.03730467671526"><ele>69.0</ele><time>2026-04-12T13:32:06.997Z</time></trkpt><trkpt lat="40.13169782556006" lon="18.03706681694069"><ele>68.66666666666667</ele><time>2026-04-12T13:32:07.997Z</time></trkpt><trkpt lat="40.13159692306367" lon="18.0368320392237"><ele>68.33333333333334</ele><time>2026-04-12T13:32:08.997Z</time></trkpt><trkpt lat="40.13149850089713" lon="18.036597350550366"><ele>68.0</ele><time>2026-04-12T13:32:09.997Z</time></trkpt><trkpt lat="40.131398316300114" lon="18.03637049054382"><ele>68.66666666666667</ele><time>2026-04-12T13:32:10.997Z</time></trkpt><trkpt lat="40.13129504306465" lon="18.03613708671245"><ele>69.33333333333333</ele><time>2026-04-12T13:32:11.997Z</time></trkpt><trkpt lat="40.13119609314656" lon="18.035899535862512"><ele>70.0</ele><time>2026-04-12T13:32:12.997Z</time></trkpt><trkpt lat="40.13109166781387" lon="18.03566232246684"><ele>70.0</ele><time>2026-04-12T13:32:13.997Z</time></trkpt><trkpt lat="40.13099058493463" lon="18.035424849602865"><ele>70.0</ele><time>2026-04-12T13:32:14.997Z</time></trkpt><trkpt lat="40.13088459356657" lon="18.03518663190675"><ele>70.0</ele><time>2026-04-12T13:32:15.997Z</time></trkpt><trkpt lat="40.13077799118296" lon="18.034945229135083"><ele>70.0</ele><time>2026-04-12T13:32:16.997Z</time></trkpt><trkpt lat="40.13067133025177" lon="18.03469771544658"><ele>70.0</ele><time>2026-04-12T13:32:17.997Z</time></trkpt><trkpt lat="40.13056381278908" lon="18.034449028394235"><ele>70.0</ele><time>2026-04-12T13:32:18.997Z</time></trkpt><trkpt lat="40.130461553592454" lon="18.034202283515654"><ele>70.33333333333333</ele><time>2026-04-12T13:32:19.997Z</time></trkpt><trkpt lat="40.130356308471264" lon="18.033959767196272"><ele>70.66666666666667</ele><time>2026-04-12T13:32:20.997Z</time></trkpt><trkpt lat="40.130255533359794" lon="18.033723472233806"><ele>71.0</ele><time>2026-04-12T13:32:21.997Z</time></trkpt><trkpt lat="40.13015853329132" lon="18.033501984036704"><ele>70.66666666666667</ele><time>2026-04-12T13:32:22.997Z</time></trkpt><trkpt lat="40.130063586524614" lon="18.03328421102575"><ele>70.33333333333333</ele><time>2026-04-12T13:32:23.997Z</time></trkpt><trkpt lat="40.12996712614695" lon="18.0330663110745"><ele>70.0</ele><time>2026-04-12T13:32:24.997Z</time></trkpt><trkpt lat="40.129874376383455" lon="18.03284168932937"><ele>70.0</ele><time>2026-04-12T13:32:25.997Z</time></trkpt><trkpt lat="40.12978353802745" lon="18.03261529200551"><ele>70.0</ele><time>2026-04-12T13:32:26.997Z</time></trkpt><trkpt lat="40.129703071371665" lon="18.032380611291146"><ele>70.0</ele><time>2026-04-12T13:32:27.997Z</time></trkpt><trkpt lat="40.12962418228238" lon="18.032140624356916"><ele>70.0</ele><time>2026-04-12T13:32:28.997Z</time></trkpt><trkpt lat="40.12955603159564" lon="18.031891902475593"><ele>70.0</ele><time>2026-04-12T13:32:29.997Z</time></trkpt><trkpt lat="40.12949555667264" lon="18.031638138390424"><ele>70.0</ele><time>2026-04-12T13:32:30.997Z</time></trkpt><trkpt lat="40.12943988708049" lon="18.031378801427298"><ele>70.0</ele><time>2026-04-12T13:32:31.997Z</time></trkpt><trkpt lat="40.12938696995793" lon="18.031118664247412"><ele>70.0</ele><time>2026-04-12T13:32:32.997Z</time></trkpt><trkpt lat="40.129331453406685" lon="18.030861458525205"><ele>70.0</ele><time>2026-04-12T13:32:33.997Z</time></trkpt><trkpt lat="40.12926844144352" lon="18.030594709924795"><ele>69.33333333333333</ele><time>2026-04-12T13:32:34.997Z</time></trkpt><trkpt lat="40.12921321237432" lon="18.030327593086568"><ele>68.66666666666667</ele><time>2026-04-12T13:32:35.997Z</time></trkpt><trkpt lat="40.12915091517844" lon="18.030056842660734"><ele>68.0</ele><time>2026-04-12T13:32:36.997Z</time></trkpt><trkpt lat="40.12909516040922" lon="18.029778591143128"><ele>68.0</ele><time>2026-04-12T13:32:37.997Z</time></trkpt><trkpt lat="40.12903218700653" lon="18.0295014456012"><ele>68.0</ele><time>2026-04-12T13:32:38.997Z</time></trkpt><trkpt lat="40.12896762232031" lon="18.029225061431156"><ele>68.0</ele><time>2026-04-12T13:32:39.997Z</time></trkpt><trkpt lat="40.12891000596994" lon="18.028941339935553"><ele>68.0</ele><time>2026-04-12T13:32:40.997Z</time></trkpt><trkpt lat="40.12884955466025" lon="18.02866306495966"><ele>68.0</ele><time>2026-04-12T13:32:41.997Z</time></trkpt><trkpt lat="40.12878529145452" lon="18.02838867066323"><ele>68.0</ele><time>2026-04-12T13:32:42.997Z</time></trkpt><trkpt lat="40.1287250154179" lon="18.028113143203452"><ele>68.0</ele><time>2026-04-12T13:32:43.997Z</time></trkpt><trkpt lat="40.12866081819148" lon="18.02784521287146"><ele>68.0</ele><time>2026-04-12T13:32:44.997Z</time></trkpt><trkpt lat="40.12859780977175" lon="18.027573128652612"><ele>68.0</ele><time>2026-04-12T13:32:45.997Z</time></trkpt><trkpt lat="40.12853607200357" lon="18.02729875043967"><ele>68.66666666666667</ele><time>2026-04-12T13:32:46.997Z</time></trkpt><trkpt lat="40.12847220632249" lon="18.02702617208711"><ele>69.33333333333333</ele><time>2026-04-12T13:32:47.997Z</time></trkpt><trkpt lat="40.1284110627821" lon="18.026749732440596"><ele>70.0</ele><time>2026-04-12T13:32:48.997Z</time></trkpt><trkpt lat="40.12835228600818" lon="18.02647178384716"><ele>70.33333333333333</ele><time>2026-04-12T13:32:49.997Z</time></trkpt><trkpt lat="40.12829045167841" lon="18.026198048234473"><ele>70.66666666666667</ele><time>2026-04-12T13:32:50.997Z</time></trkpt><trkpt lat="40.128232672775084" lon="18.025934553106588"><ele>71.0</ele><time>2026-04-12T13:32:51.997Z</time></trkpt><trkpt lat="40.12818160491272" lon="18.02569143696091"><ele>70.33333333333334</ele><time>2026-04-12T13:32:52.997Z</time></trkpt><trkpt lat="40.128129375796675" lon="18.02544666312306"><ele>69.66666666666667</ele><time>2026-04-12T13:32:53.997Z</time></trkpt><trkpt lat="40.1280894678447" lon="18.025188652077485"><ele>69.0</ele><time>2026-04-12T13:32:54.997Z</time></trkpt><trkpt lat="40.12805687591477" lon="18.02492604670675"><ele>68.66666666666667</ele><time>2026-04-12T13:32:55.997Z</time></trkpt><trkpt lat="40.12803305201493" lon="18.02465736163791"><ele>68.33333333333334</ele><time>2026-04-12T13:32:56.997Z</time></trkpt><trkpt lat="40.12800500218702" lon="18.02439081185493"><ele>68.0</ele><time>2026-04-12T13:32:57.997Z</time></trkpt><trkpt lat="40.12796735884735" lon="18.024124395773896"><ele>68.0</ele><time>2026-04-12T13:32:58.997Z</time></trkpt><trkpt lat="40.127937842746896" lon="18.023848250897398"><ele>68.0</ele><time>2026-04-12T13:32:59.997Z</time></trkpt><trkpt lat="40.127916819757395" lon="18.02356792776812"><ele>68.0</ele><time>2026-04-12T13:33:00.997Z</time></trkpt><trkpt lat="40.127888517592396" lon="18.023307111967906"><ele>68.0</ele><time>2026-04-12T13:33:01.997Z</time></trkpt><trkpt lat="40.1278623214335" lon="18.02306308120732"><ele>68.0</ele><time>2026-04-12T13:33:02.997Z</time></trkpt><trkpt lat="40.12785382426179" lon="18.022825141247388"><ele>68.0</ele><time>2026-04-12T13:33:03.997Z</time></trkpt><trkpt lat="40.12785391399792" lon="18.022594717401095"><ele>68.0</ele><time>2026-04-12T13:33:04.997Z</time></trkpt><trkpt lat="40.12785680997487" lon="18.022380441981845"><ele>68.0</ele><time>2026-04-12T13:33:05.997Z</time></trkpt><trkpt lat="40.12786298571446" lon="18.022168724009443"><ele>68.0</ele><time>2026-04-12T13:33:06.997Z</time></trkpt><trkpt lat="40.12787237311" lon="18.021980162897545"><ele>68.0</ele><time>2026-04-12T13:33:07.997Z</time></trkpt><trkpt lat="40.12788270970383" lon="18.021837458093383"><ele>68.0</ele><time>2026-04-12T13:33:08.997Z</time></trkpt><trkpt lat="40.12789195568954" lon="18.021685293372062"><ele>68.0</ele><time>2026-04-12T13:33:09.997Z</time></trkpt><trkpt lat="40.12790159407081" lon="18.02152750136017"><ele>68.0</ele><time>2026-04-12T13:33:10.997Z</time></trkpt><trkpt lat="40.12790851795082" lon="18.021358890140128"><ele>68.25</ele><time>2026-04-12T13:33:11.997Z</time></trkpt><trkpt lat="40.127923283667485" lon="18.02119893656654"><ele>68.5</ele><time>2026-04-12T13:33:12.997Z</time></trkpt><trkpt lat="40.12795088061474" lon="18.02103137697733"><ele>68.75</ele><time>2026-04-12T13:33:13.997Z</time></trkpt><trkpt lat="40.12798237103433" lon="18.0208560317391"><ele>69.0</ele><time>2026-04-12T13:33:14.998Z</time></trkpt><trkpt lat="40.12801809906799" lon="18.02067948451601"><ele>69.0</ele><time>2026-04-12T13:33:15.998Z</time></trkpt><trkpt lat="40.128049389860834" lon="18.020513006940156"><ele>69.0</ele><time>2026-04-12T13:33:16.998Z</time></trkpt><trkpt lat="40.12807909425621" lon="18.020353782842296"><ele>69.0</ele><time>2026-04-12T13:33:17.997Z</time></trkpt><trkpt lat="40.12810226315104" lon="18.02021743517301"><ele>69.0</ele><time>2026-04-12T13:33:18.997Z</time></trkpt><trkpt lat="40.12812512578396" lon="18.02010565715167"><ele>69.0</ele><time>2026-04-12T13:33:19.997Z</time></trkpt><trkpt lat="40.12814733843999" lon="18.020020214250597"><ele>69.0</ele><time>2026-04-12T13:33:20.997Z</time></trkpt><trkpt lat="40.12819851998375" lon="18.019915624560586"><ele>69.0</ele><time>2026-04-12T13:33:22.998Z</time></trkpt><trkpt lat="40.12827173659256" lon="18.01983793102237"><ele>69.0</ele><time>2026-04-12T13:33:25.998Z</time></trkpt><trkpt lat="40.12833138454202" lon="18.019785238188394"><ele>69.0</ele><time>2026-04-12T13:33:26.998Z</time></trkpt><trkpt lat="40.12839508855914" lon="18.019712895474143"><ele>69.0</ele><time>2026-04-12T13:33:27.998Z</time></trkpt><trkpt lat="40.12846736435134" lon="18.019627365708672"><ele>68.8</ele><time>2026-04-12T13:33:28.998Z</time></trkpt><trkpt lat="40.12854255656029" lon="18.019554788840818"><ele>68.60000000000001</ele><time>2026-04-12T13:33:29.998Z</time></trkpt><trkpt lat="40.12862980378422" lon="18.019501762736052"><ele>68.4</ele><time>2026-04-12T13:33:30.998Z</time></trkpt><trkpt lat="40.12872234991431" lon="18.019467960002366"><ele>68.2</ele><time>2026-04-12T13:33:31.998Z</time></trkpt><trkpt lat="40.12882896863402" lon="18.019454011854517"><ele>68.0</ele><time>2026-04-12T13:33:32.998Z</time></trkpt><trkpt lat="40.12895048979878" lon="18.01944631538675"><ele>68.0</ele><time>2026-04-12T13:33:33.998Z</time></trkpt><trkpt lat="40.12908935901873" lon="18.01943817711521"><ele>68.0</ele><time>2026-04-12T13:33:34.998Z</time></trkpt><trkpt lat="40.12924362410124" lon="18.019434557861683"><ele>68.0</ele><time>2026-04-12T13:33:35.998Z</time></trkpt><trkpt lat="40.129414389317176" lon="18.019431533926134"><ele>68.0</ele><time>2026-04-12T13:33:36.998Z</time></trkpt><trkpt lat="40.12960200909357" lon="18.019411059734676"><ele>68.0</ele><time>2026-04-12T13:33:37.997Z</time></trkpt><trkpt lat="40.129828841601245" lon="18.01940957727733"><ele>68.0</ele><time>2026-04-12T13:33:38.997Z</time></trkpt><trkpt lat="40.13004672966295" lon="18.019409321438516"><ele>68.0</ele><time>2026-04-12T13:33:39.997Z</time></trkpt><trkpt lat="40.1302744584629" lon="18.019407484279498"><ele>68.0</ele><time>2026-04-12T13:33:40.997Z</time></trkpt><trkpt lat="40.130497135810934" lon="18.019402987858417"><ele>68.0</ele><time>2026-04-12T13:33:41.997Z</time></trkpt><trkpt lat="40.13070953864082" lon="18.019404832692405"><ele>68.0</ele><time>2026-04-12T13:33:42.997Z</time></trkpt><trkpt lat="40.13092456850356" lon="18.019397503417586"><ele>68.0</ele><time>2026-04-12T13:33:43.997Z</time></trkpt><trkpt lat="40.13112854491961" lon="18.019396100984213"><ele>68.0</ele><time>2026-04-12T13:33:44.997Z</time></trkpt><trkpt lat="40.13130744832895" lon="18.019369059954283"><ele>68.0</ele><time>2026-04-12T13:33:45.997Z</time></trkpt><trkpt lat="40.131456889793235" lon="18.019331418439094"><ele>68.0</ele><time>2026-04-12T13:33:46.997Z</time></trkpt><trkpt lat="40.13162137294894" lon="18.019309853172835"><ele>68.0</ele><time>2026-04-12T13:33:47.997Z</time></trkpt><trkpt lat="40.13181061274558" lon="18.019291749711595"><ele>68.0</ele><time>2026-04-12T13:33:48.997Z</time></trkpt><trkpt lat="40.132009393568175" lon="18.019277687445076"><ele>68.0</ele><time>2026-04-12T13:33:49.997Z</time></trkpt><trkpt lat="40.13220195222667" lon="18.019264024260554"><ele>67.33333333333334</ele><time>2026-04-12T13:33:50.997Z</time></trkpt><trkpt lat="40.13238973527498" lon="18.01924871330615"><ele>66.66666666666667</ele><time>2026-04-12T13:33:51.997Z</time></trkpt><trkpt lat="40.13258036861721" lon="18.019232785011976"><ele>66.0</ele><time>2026-04-12T13:33:52.997Z</time></trkpt><trkpt lat="40.13277726805413" lon="18.019216362613392"><ele>66.0</ele><time>2026-04-12T13:33:53.997Z</time></trkpt><trkpt lat="40.13297881048426" lon="18.01920314821042"><ele>66.0</ele><time>2026-04-12T13:33:54.997Z</time></trkpt><trkpt lat="40.13318430963474" lon="18.019187825376722"><ele>66.0</ele><time>2026-04-12T13:33:55.997Z</time></trkpt><trkpt lat="40.13340018607411" lon="18.019172837017187"><ele>65.66666666666667</ele><time>2026-04-12T13:33:56.997Z</time></trkpt><trkpt lat="40.13361712224287" lon="18.019160544770692"><ele>65.33333333333334</ele><time>2026-04-12T13:33:57.997Z</time></trkpt><trkpt lat="40.13384040251129" lon="18.01914447029079"><ele>65.0</ele><time>2026-04-12T13:33:58.997Z</time></trkpt><trkpt lat="40.134069057914076" lon="18.01913503109535"><ele>64.0</ele><time>2026-04-12T13:33:59.997Z</time></trkpt><trkpt lat="40.134300068249274" lon="18.0191265516849"><ele>63.0</ele><time>2026-04-12T13:34:00.997Z</time></trkpt><trkpt lat="40.13452784479508" lon="18.019125919564285"><ele>63.0</ele><time>2026-04-12T13:34:01.997Z</time></trkpt><trkpt lat="40.134737431216955" lon="18.01912123185527"><ele>63.0</ele><time>2026-04-12T13:34:02.997Z</time></trkpt><trkpt lat="40.13492688728535" lon="18.01910377490966"><ele>63.0</ele><time>2026-04-12T13:34:03.997Z</time></trkpt><trkpt lat="40.13511433449473" lon="18.01908036692539"><ele>62.33333333333333</ele><time>2026-04-12T13:34:04.997Z</time></trkpt><trkpt lat="40.135290806360025" lon="18.019042682101695"><ele>61.666666666666664</ele><time>2026-04-12T13:34:05.997Z</time></trkpt><trkpt lat="40.13546508951145" lon="18.019009035437872"><ele>61.0</ele><time>2026-04-12T13:34:06.997Z</time></trkpt><trkpt lat="40.1356273093101" lon="18.018980570814467"><ele>61.33333333333333</ele><time>2026-04-12T13:34:07.997Z</time></trkpt><trkpt lat="40.13579192080719" lon="18.018964812836174"><ele>61.66666666666667</ele><time>2026-04-12T13:34:08.997Z</time></trkpt><trkpt lat="40.13595624847527" lon="18.018961107513505"><ele>62.0</ele><time>2026-04-12T13:34:09.997Z</time></trkpt><trkpt lat="40.13612265849691" lon="18.018964232557376"><ele>62.0</ele><time>2026-04-12T13:34:10.997Z</time></trkpt><trkpt lat="40.13631086115717" lon="18.01898460192644"><ele>62.0</ele><time>2026-04-12T13:34:11.997Z</time></trkpt><trkpt lat="40.13646618253236" lon="18.018989514327867"><ele>62.0</ele><time>2026-04-12T13:34:12.997Z</time></trkpt><trkpt lat="40.13660289505604" lon="18.018986410045155"><ele>62.0</ele><time>2026-04-12T13:34:13.997Z</time></trkpt><trkpt lat="40.13673426466679" lon="18.018986283734616"><ele>62.0</ele><time>2026-04-12T13:34:14.997Z</time></trkpt><trkpt lat="40.136854168338516" lon="18.018987301378218"><ele>62.0</ele><time>2026-04-12T13:34:15.997Z</time></trkpt><trkpt lat="40.136965346303384" lon="18.018981506430613"><ele>62.0</ele><time>2026-04-12T13:34:16.997Z</time></trkpt><trkpt lat="40.13706450905942" lon="18.01898379490722"><ele>62.00000000000001</ele><time>2026-04-12T13:34:17.997Z</time></trkpt><trkpt lat="40.13714875049717" lon="18.018981866226543"><ele>62.0</ele><time>2026-04-12T13:34:18.997Z</time></trkpt><trkpt lat="40.13721871108963" lon="18.018977582016273"><ele>62.0</ele><time>2026-04-12T13:34:19.997Z</time></trkpt><trkpt lat="40.1373146515333" lon="18.018900748726285"><ele>62.0</ele><time>2026-04-12T13:34:21.997Z</time></trkpt><trkpt lat="40.13733450329719" lon="18.018804752929373"><ele>62.00000000000001</ele><time>2026-04-12T13:34:22.997Z</time></trkpt><trkpt lat="40.13735513082319" lon="18.018672904203697"><ele>62.0</ele><time>2026-04-12T13:34:23.997Z</time></trkpt><trkpt lat="40.137396857904925" lon="18.018508396512846"><ele>62.333333333333336</ele><time>2026-04-12T13:34:24.997Z</time></trkpt><trkpt lat="40.13746921398005" lon="18.018331968513856"><ele>62.66666666666667</ele><time>2026-04-12T13:34:25.997Z</time></trkpt><trkpt lat="40.137571098534146" lon="18.01815830959555"><ele>63.0</ele><time>2026-04-12T13:34:26.997Z</time></trkpt><trkpt lat="40.137687221055046" lon="18.018031333921094"><ele>63.25</ele><time>2026-04-12T13:34:27.997Z</time></trkpt><trkpt lat="40.13777781915414" lon="18.017911732883487"><ele>63.5</ele><time>2026-04-12T13:34:28.997Z</time></trkpt><trkpt lat="40.137859573280636" lon="18.01778275852224"><ele>63.75</ele><time>2026-04-12T13:34:29.997Z</time></trkpt><trkpt lat="40.137940631747085" lon="18.01765018826404"><ele>64.0</ele><time>2026-04-12T13:34:30.997Z</time></trkpt><trkpt lat="40.13802012359792" lon="18.017514994839562"><ele>64.0</ele><time>2026-04-12T13:34:31.997Z</time></trkpt><trkpt lat="40.13810882304644" lon="18.017369459349197"><ele>64.0</ele><time>2026-04-12T13:34:32.997Z</time></trkpt><trkpt lat="40.13820264965512" lon="18.01722089576739"><ele>64.0</ele><time>2026-04-12T13:34:33.997Z</time></trkpt><trkpt lat="40.13829878518497" lon="18.017067998930628"><ele>64.0</ele><time>2026-04-12T13:34:34.997Z</time></trkpt><trkpt lat="40.13839845662454" lon="18.016918457566707"><ele>64.0</ele><time>2026-04-12T13:34:35.997Z</time></trkpt><trkpt lat="40.138504138766024" lon="18.016759063577393"><ele>64.0</ele><time>2026-04-12T13:34:36.997Z</time></trkpt><trkpt lat="40.13860494491911" lon="18.016591309054462"><ele>64.0</ele><time>2026-04-12T13:34:37.997Z</time></trkpt><trkpt lat="40.13870429664469" lon="18.01642569473211"><ele>64.25</ele><time>2026-04-12T13:34:38.997Z</time></trkpt><trkpt lat="40.138800288065745" lon="18.01626872629742"><ele>64.5</ele><time>2026-04-12T13:34:39.997Z</time></trkpt><trkpt lat="40.13888198756996" lon="18.016136963514626"><ele>64.75</ele><time>2026-04-12T13:34:40.997Z</time></trkpt><trkpt lat="40.138955102416475" lon="18.015993706983362"><ele>65.0</ele><time>2026-04-12T13:34:41.997Z</time></trkpt><trkpt lat="40.139036374874486" lon="18.015836501785536"><ele>65.0</ele><time>2026-04-12T13:34:42.997Z</time></trkpt><trkpt lat="40.1391321339655" lon="18.01567468044774"><ele>65.0</ele><time>2026-04-12T13:34:43.997Z</time></trkpt><trkpt lat="40.13921887135789" lon="18.015522660814316"><ele>65.0</ele><time>2026-04-12T13:34:44.997Z</time></trkpt><trkpt lat="40.1393248544438" lon="18.015341339580118"><ele>65.0</ele><time>2026-04-12T13:34:45.997Z</time></trkpt><trkpt lat="40.13946444954812" lon="18.015162994926637"><ele>65.0</ele><time>2026-04-12T13:34:46.997Z</time></trkpt><trkpt lat="40.13961379075916" lon="18.014978323796175"><ele>65.0</ele><time>2026-04-12T13:34:47.997Z</time></trkpt><trkpt lat="40.139744196640464" lon="18.01480927379949"><ele>65.0</ele><time>2026-04-12T13:34:48.997Z</time></trkpt><trkpt lat="40.1398808197854" lon="18.01462893644053"><ele>65.0</ele><time>2026-04-12T13:34:49.997Z</time></trkpt><trkpt lat="40.140019763657094" lon="18.0144406470802"><ele>65.0</ele><time>2026-04-12T13:34:50.997Z</time></trkpt><trkpt lat="40.14017070114995" lon="18.01425106976984"><ele>64.33333333333334</ele><time>2026-04-12T13:34:51.997Z</time></trkpt><trkpt lat="40.140322646788235" lon="18.014050746083065"><ele>63.66666666666667</ele><time>2026-04-12T13:34:52.997Z</time></trkpt><trkpt lat="40.14047140968315" lon="18.013847081577666"><ele>63.0</ele><time>2026-04-12T13:34:53.997Z</time></trkpt><trkpt lat="40.14039447240807" lon="18.013867912499595"><ele>63.0</ele><time>2026-04-12T13:34:54.997Z</time></trkpt><trkpt lat="40.14049235110163" lon="18.013716904395704"><ele>63.0</ele><time>2026-04-12T13:34:55.997Z</time></trkpt><trkpt lat="40.14058749935509" lon="18.01357526420758"><ele>63.0</ele><time>2026-04-12T13:34:56.997Z</time></trkpt><trkpt lat="40.14068333578868" lon="18.01342918750804"><ele>63.0</ele><time>2026-04-12T13:34:57.997Z</time></trkpt><trkpt lat="40.140781439620255" lon="18.013270769757415"><ele>62.33333333333333</ele><time>2026-04-12T13:34:58.997Z</time></trkpt><trkpt lat="40.140889682694805" lon="18.013112356550923"><ele>61.666666666666664</ele><time>2026-04-12T13:34:59.997Z</time></trkpt><trkpt lat="40.140991618027044" lon="18.012955713370083"><ele>61.0</ele><time>2026-04-12T13:35:00.997Z</time></trkpt><trkpt lat="40.141090848134226" lon="18.012814698183227"><ele>61.0</ele><time>2026-04-12T13:35:01.997Z</time></trkpt><trkpt lat="40.141196124614225" lon="18.012668920321836"><ele>61.0</ele><time>2026-04-12T13:35:02.997Z</time></trkpt><trkpt lat="40.14129723001689" lon="18.01251840458373"><ele>61.0</ele><time>2026-04-12T13:35:03.997Z</time></trkpt><trkpt lat="40.141391239442044" lon="18.012369364977573"><ele>60.75</ele><time>2026-04-12T13:35:04.997Z</time></trkpt><trkpt lat="40.14148687475274" lon="18.01222893520597"><ele>60.5</ele><time>2026-04-12T13:35:05.997Z</time></trkpt><trkpt lat="40.14156961985558" lon="18.012088837875545"><ele>60.25</ele><time>2026-04-12T13:35:06.997Z</time></trkpt><trkpt lat="40.14165103169611" lon="18.011961092317346"><ele>60.0</ele><time>2026-04-12T13:35:07.997Z</time></trkpt><trkpt lat="40.14173262392986" lon="18.0118531903235"><ele>60.0</ele><time>2026-04-12T13:35:08.997Z</time></trkpt><trkpt lat="40.14179770279452" lon="18.011752997448188"><ele>60.0</ele><time>2026-04-12T13:35:09.997Z</time></trkpt><trkpt lat="40.14184423666555" lon="18.011685783730943"><ele>60.0</ele><time>2026-04-12T13:35:10.997Z</time></trkpt><trkpt lat="40.141906827479424" lon="18.01160203599663"><ele>60.0</ele><time>2026-04-12T13:35:12.997Z</time></trkpt><trkpt lat="40.14199618072922" lon="18.011467093682384"><ele>60.0</ele><time>2026-04-12T13:35:14.997Z</time></trkpt><trkpt lat="40.14205093364549" lon="18.011383585661726"><ele>60.4</ele><time>2026-04-12T13:35:15.997Z</time></trkpt><trkpt lat="40.14210363428688" lon="18.011307952350354"><ele>60.8</ele><time>2026-04-12T13:35:16.997Z</time></trkpt><trkpt lat="40.14215708219913" lon="18.011216945011828"><ele>61.2</ele><time>2026-04-12T13:35:17.997Z</time></trkpt><trkpt lat="40.14223075178651" lon="18.011112032478863"><ele>61.6</ele><time>2026-04-12T13:35:18.997Z</time></trkpt><trkpt lat="40.142309898326225" lon="18.010983168630936"><ele>62.0</ele><time>2026-04-12T13:35:19.996Z</time></trkpt><trkpt lat="40.14239586962414" lon="18.010851117453264"><ele>62.25</ele><time>2026-04-12T13:35:20.996Z</time></trkpt><trkpt lat="40.142490870446856" lon="18.01071075816608"><ele>62.5</ele><time>2026-04-12T13:35:21.997Z</time></trkpt><trkpt lat="40.14259251878274" lon="18.01056143857435"><ele>62.75</ele><time>2026-04-12T13:35:22.997Z</time></trkpt><trkpt lat="40.1426767686125" lon="18.01040592467902"><ele>63.0</ele><time>2026-04-12T13:35:23.997Z</time></trkpt><trkpt lat="40.142760027717806" lon="18.010276989931654"><ele>63.0</ele><time>2026-04-12T13:35:24.997Z</time></trkpt><trkpt lat="40.14284815290246" lon="18.01014692893061"><ele>63.0</ele><time>2026-04-12T13:35:25.997Z</time></trkpt><trkpt lat="40.142942402332835" lon="18.00999887922223"><ele>63.0</ele><time>2026-04-12T13:35:26.997Z</time></trkpt><trkpt lat="40.14304978114552" lon="18.009849851390356"><ele>63.0</ele><time>2026-04-12T13:35:27.998Z</time></trkpt><trkpt lat="40.143147907649485" lon="18.009708811572807"><ele>63.66666666666667</ele><time>2026-04-12T13:35:28.997Z</time></trkpt><trkpt lat="40.143241355540304" lon="18.00955966636585"><ele>64.33333333333334</ele><time>2026-04-12T13:35:29.997Z</time></trkpt><trkpt lat="40.143336574879804" lon="18.009405317697126"><ele>65.0</ele><time>2026-04-12T13:35:30.997Z</time></trkpt><trkpt lat="40.14343941559192" lon="18.009252433815654"><ele>65.0</ele><time>2026-04-12T13:35:31.997Z</time></trkpt><trkpt lat="40.14354207551073" lon="18.009095992665337"><ele>65.0</ele><time>2026-04-12T13:35:32.997Z</time></trkpt><trkpt lat="40.14364516908375" lon="18.008936482968696"><ele>65.0</ele><time>2026-04-12T13:35:33.997Z</time></trkpt><trkpt lat="40.14374715114759" lon="18.008782190802233"><ele>65.0</ele><time>2026-04-12T13:35:34.997Z</time></trkpt><trkpt lat="40.14385689099258" lon="18.00862211621159"><ele>65.0</ele><time>2026-04-12T13:35:35.997Z</time></trkpt><trkpt lat="40.14396130667577" lon="18.008457540284425"><ele>65.0</ele><time>2026-04-12T13:35:36.997Z</time></trkpt><trkpt lat="40.144063337352435" lon="18.008296533678536"><ele>65.0</ele><time>2026-04-12T13:35:37.997Z</time></trkpt><trkpt lat="40.14416723818686" lon="18.00815436252432"><ele>65.0</ele><time>2026-04-12T13:35:38.997Z</time></trkpt><trkpt lat="40.144262021817994" lon="18.00801359253799"><ele>65.0</ele><time>2026-04-12T13:35:39.997Z</time></trkpt><trkpt lat="40.144356888950234" lon="18.007872776818722"><ele>65.0</ele><time>2026-04-12T13:35:40.997Z</time></trkpt><trkpt lat="40.144451218616894" lon="18.00771792063634"><ele>65.0</ele><time>2026-04-12T13:35:41.997Z</time></trkpt><trkpt lat="40.14454483693104" lon="18.00756522041543"><ele>65.0</ele><time>2026-04-12T13:35:42.997Z</time></trkpt><trkpt lat="40.14463547530926" lon="18.007422565662978"><ele>65.0</ele><time>2026-04-12T13:35:43.997Z</time></trkpt><trkpt lat="40.14473319684762" lon="18.00727506014731"><ele>65.0</ele><time>2026-04-12T13:35:44.997Z</time></trkpt><trkpt lat="40.144836072795606" lon="18.007119763463788"><ele>64.0</ele><time>2026-04-12T13:35:45.997Z</time></trkpt><trkpt lat="40.144931461371954" lon="18.006954121221778"><ele>63.0</ele><time>2026-04-12T13:35:46.997Z</time></trkpt><trkpt lat="40.145025679109125" lon="18.00679733991095"><ele>62.0</ele><time>2026-04-12T13:35:47.997Z</time></trkpt><trkpt lat="40.1451228115464" lon="18.006641883629985"><ele>61.0</ele><time>2026-04-12T13:35:48.997Z</time></trkpt><trkpt lat="40.14522147529613" lon="18.006477558754025"><ele>60.0</ele><time>2026-04-12T13:35:49.997Z</time></trkpt><trkpt lat="40.14531837208868" lon="18.0063095624916"><ele>59.0</ele><time>2026-04-12T13:35:50.997Z</time></trkpt><trkpt lat="40.14543808400806" lon="18.00614283533388"><ele>59.0</ele><time>2026-04-12T13:35:51.997Z</time></trkpt><trkpt lat="40.14554663961374" lon="18.00597417921819"><ele>59.0</ele><time>2026-04-12T13:35:52.997Z</time></trkpt><trkpt lat="40.14565141369694" lon="18.005804896400655"><ele>59.0</ele><time>2026-04-12T13:35:53.997Z</time></trkpt><trkpt lat="40.14576330707387" lon="18.005633389994763"><ele>58.333333333333336</ele><time>2026-04-12T13:35:54.997Z</time></trkpt><trkpt lat="40.1458698105606" lon="18.005462298522325"><ele>57.66666666666667</ele><time>2026-04-12T13:35:55.997Z</time></trkpt><trkpt lat="40.14598345657936" lon="18.00529017763903"><ele>57.0</ele><time>2026-04-12T13:35:56.997Z</time></trkpt><trkpt lat="40.146099223212865" lon="18.00511507335998"><ele>56.0</ele><time>2026-04-12T13:35:57.997Z</time></trkpt><trkpt lat="40.14621177389375" lon="18.004937546949595"><ele>55.0</ele><time>2026-04-12T13:35:58.997Z</time></trkpt><trkpt lat="40.14632770302787" lon="18.004753832884244"><ele>54.0</ele><time>2026-04-12T13:35:59.997Z</time></trkpt><trkpt lat="40.146430880864045" lon="18.004575896293893"><ele>54.0</ele><time>2026-04-12T13:36:00.997Z</time></trkpt><trkpt lat="40.14653811024038" lon="18.00441092469149"><ele>54.0</ele><time>2026-04-12T13:36:01.997Z</time></trkpt><trkpt lat="40.14665636371542" lon="18.00424504870076"><ele>54.0</ele><time>2026-04-12T13:36:02.997Z</time></trkpt><trkpt lat="40.1467727294015" lon="18.004076359779717"><ele>54.0</ele><time>2026-04-12T13:36:03.997Z</time></trkpt><trkpt lat="40.14688100743175" lon="18.0039133783712"><ele>54.0</ele><time>2026-04-12T13:36:04.997Z</time></trkpt><trkpt lat="40.14698733731815" lon="18.00375710000097"><ele>54.0</ele><time>2026-04-12T13:36:05.997Z</time></trkpt><trkpt lat="40.147088630015105" lon="18.003602995573154"><ele>54.0</ele><time>2026-04-12T13:36:06.997Z</time></trkpt><trkpt lat="40.147185684845354" lon="18.00345552882192"><ele>54.0</ele><time>2026-04-12T13:36:07.997Z</time></trkpt><trkpt lat="40.14727939587787" lon="18.003309022743412"><ele>54.0</ele><time>2026-04-12T13:36:08.997Z</time></trkpt><trkpt lat="40.14736728260341" lon="18.003170361659958"><ele>54.0</ele><time>2026-04-12T13:36:09.997Z</time></trkpt><trkpt lat="40.147456158728474" lon="18.00303948440079"><ele>54.0</ele><time>2026-04-12T13:36:10.997Z</time></trkpt><trkpt lat="40.147535569670566" lon="18.002915836896804"><ele>54.0</ele><time>2026-04-12T13:36:11.997Z</time></trkpt><trkpt lat="40.14761273002309" lon="18.0028011035026"><ele>54.0</ele><time>2026-04-12T13:36:12.997Z</time></trkpt><trkpt lat="40.14768571767965" lon="18.00269193640952"><ele>54.0</ele><time>2026-04-12T13:36:13.997Z</time></trkpt><trkpt lat="40.14775791967866" lon="18.002593386508387"><ele>54.0</ele><time>2026-04-12T13:36:14.997Z</time></trkpt><trkpt lat="40.14782181017494" lon="18.002499475477688"><ele>54.00000000000001</ele><time>2026-04-12T13:36:15.997Z</time></trkpt><trkpt lat="40.14787442199682" lon="18.002415967213963"><ele>54.00000000000001</ele><time>2026-04-12T13:36:16.997Z</time></trkpt><trkpt lat="40.14794145920088" lon="18.002311212031543"><ele>54.0</ele><time>2026-04-12T13:36:18.997Z</time></trkpt><trkpt lat="40.148002002714705" lon="18.002214532906294"><ele>54.0</ele><time>2026-04-12T13:36:20.997Z</time></trkpt><trkpt lat="40.14808564522317" lon="18.002077953225218"><ele>54.0</ele><time>2026-04-12T13:36:22.996Z</time></trkpt><trkpt lat="40.1481362372249" lon="18.001995111803303"><ele>54.00000000000001</ele><time>2026-04-12T13:36:23.996Z</time></trkpt><trkpt lat="40.14819510575469" lon="18.00190017948908"><ele>54.00000000000001</ele><time>2026-04-12T13:36:24.996Z</time></trkpt><trkpt lat="40.14826523183089" lon="18.00180258953598"><ele>54.0</ele><time>2026-04-12T13:36:25.996Z</time></trkpt><trkpt lat="40.148342161715966" lon="18.00169029796052"><ele>54.0</ele><time>2026-04-12T13:36:26.996Z</time></trkpt><trkpt lat="40.14841327396948" lon="18.00158161271651"><ele>53.666666666666664</ele><time>2026-04-12T13:36:27.996Z</time></trkpt><trkpt lat="40.148478927766966" lon="18.001490774962118"><ele>53.33333333333333</ele><time>2026-04-12T13:36:28.996Z</time></trkpt><trkpt lat="40.14852973344397" lon="18.001406027221464"><ele>53.0</ele><time>2026-04-12T13:36:29.996Z</time></trkpt><trkpt lat="40.148578692773675" lon="18.001337050455064"><ele>52.666666666666664</ele><time>2026-04-12T13:36:30.996Z</time></trkpt><trkpt lat="40.14862096638179" lon="18.001272277577304"><ele>52.33333333333333</ele><time>2026-04-12T13:36:31.996Z</time></trkpt><trkpt lat="40.148682793437935" lon="18.00115853694729"><ele>52.0</ele><time>2026-04-12T13:36:33.996Z</time></trkpt><trkpt lat="40.14875700907129" lon="18.001087143531187"><ele>52.0</ele><time>2026-04-12T13:36:35.996Z</time></trkpt><trkpt lat="40.148839791271556" lon="18.001033796459932"><ele>52.0</ele><time>2026-04-12T13:36:37.996Z</time></trkpt><trkpt lat="40.14891280572222" lon="18.000970509892607"><ele>52.0</ele><time>2026-04-12T13:36:39.996Z</time></trkpt><trkpt lat="40.14892789213539" lon="18.00085263653801"><ele>52.0</ele><time>2026-04-12T13:36:41.996Z</time></trkpt><trkpt lat="40.148860245258554" lon="18.000728921378727"><ele>52.0</ele><time>2026-04-12T13:36:43.996Z</time></trkpt><trkpt lat="40.1488010663086" lon="18.00065328388856"><ele>52.75</ele><time>2026-04-12T13:36:44.996Z</time></trkpt><trkpt lat="40.14872792549967" lon="18.000552697585743"><ele>53.5</ele><time>2026-04-12T13:36:45.996Z</time></trkpt><trkpt lat="40.14865549829346" lon="18.00042096885812"><ele>54.25</ele><time>2026-04-12T13:36:46.996Z</time></trkpt><trkpt lat="40.1485912445579" lon="18.00027278357012"><ele>55.0</ele><time>2026-04-12T13:36:47.996Z</time></trkpt><trkpt lat="40.148540001305534" lon="18.000119831212416"><ele>55.0</ele><time>2026-04-12T13:36:48.996Z</time></trkpt><trkpt lat="40.14849016123589" lon="17.999977350012898"><ele>55.0</ele><time>2026-04-12T13:36:49.996Z</time></trkpt><trkpt lat="40.14844122466931" lon="17.99984024952271"><ele>55.0</ele><time>2026-04-12T13:36:50.996Z</time></trkpt><trkpt lat="40.148382687615175" lon="17.999693480300675"><ele>55.0</ele><time>2026-04-12T13:36:51.996Z</time></trkpt><trkpt lat="40.14831677805632" lon="17.99953940645403"><ele>55.0</ele><time>2026-04-12T13:36:52.996Z</time></trkpt><trkpt lat="40.14824717550428" lon="17.99937456763229"><ele>55.0</ele><time>2026-04-12T13:36:53.996Z</time></trkpt><trkpt lat="40.14818311516227" lon="17.99921005932872"><ele>55.0</ele><time>2026-04-12T13:36:54.996Z</time></trkpt><trkpt lat="40.14811960004603" lon="17.99906069185716"><ele>55.0</ele><time>2026-04-12T13:36:55.996Z</time></trkpt><trkpt lat="40.14807039662391" lon="17.998919655733612"><ele>54.75</ele><time>2026-04-12T13:36:56.996Z</time></trkpt><trkpt lat="40.1480210170166" lon="17.998784744942434"><ele>54.5</ele><time>2026-04-12T13:36:57.996Z</time></trkpt><trkpt lat="40.1479599291479" lon="17.998658413798033"><ele>54.25</ele><time>2026-04-12T13:36:58.996Z</time></trkpt><trkpt lat="40.14789918854241" lon="17.998524716402244"><ele>54.0</ele><time>2026-04-12T13:36:59.996Z</time></trkpt><trkpt lat="40.1478453141643" lon="17.99839029912044"><ele>53.75</ele><time>2026-04-12T13:37:00.996Z</time></trkpt><trkpt lat="40.147783533049086" lon="17.99825222239922"><ele>53.5</ele><time>2026-04-12T13:37:01.996Z</time></trkpt><trkpt lat="40.14772093948903" lon="17.998109501221244"><ele>53.25</ele><time>2026-04-12T13:37:02.996Z</time></trkpt><trkpt lat="40.14766078711569" lon="17.997965786045327"><ele>53.0</ele><time>2026-04-12T13:37:03.996Z</time></trkpt><trkpt lat="40.14760474338783" lon="17.99781617220468"><ele>53.0</ele><time>2026-04-12T13:37:04.996Z</time></trkpt><trkpt lat="40.147547017329174" lon="17.997668512364598"><ele>53.0</ele><time>2026-04-12T13:37:05.996Z</time></trkpt><trkpt lat="40.1474925037808" lon="17.99752670969881"><ele>53.0</ele><time>2026-04-12T13:37:06.996Z</time></trkpt><trkpt lat="40.14743761561512" lon="17.99739269211471"><ele>53.0</ele><time>2026-04-12T13:37:07.996Z</time></trkpt><trkpt lat="40.14738993420184" lon="17.99726045646615"><ele>53.0</ele><time>2026-04-12T13:37:08.996Z</time></trkpt><trkpt lat="40.147338399833586" lon="17.99714185535027"><ele>53.0</ele><time>2026-04-12T13:37:09.996Z</time></trkpt><trkpt lat="40.147292254232006" lon="17.99702718392534"><ele>53.0</ele><time>2026-04-12T13:37:10.996Z</time></trkpt><trkpt lat="40.1472539207293" lon="17.996917921052848"><ele>53.0</ele><time>2026-04-12T13:37:11.996Z</time></trkpt><trkpt lat="40.147222190274576" lon="17.996803932511668"><ele>53.0</ele><time>2026-04-12T13:37:12.996Z</time></trkpt><trkpt lat="40.14719111878099" lon="17.996677841733433"><ele>53.0</ele><time>2026-04-12T13:37:13.996Z</time></trkpt><trkpt lat="40.14715999379012" lon="17.996539484859756"><ele>53.0</ele><time>2026-04-12T13:37:14.996Z</time></trkpt><trkpt lat="40.147128124574" lon="17.996390552642143"><ele>53.0</ele><time>2026-04-12T13:37:15.996Z</time></trkpt><trkpt lat="40.14709582377364" lon="17.996251953341567"><ele>53.0</ele><time>2026-04-12T13:37:16.996Z</time></trkpt><trkpt lat="40.147062959929265" lon="17.996119977427465"><ele>53.0</ele><time>2026-04-12T13:37:17.996Z</time></trkpt><trkpt lat="40.147028984563825" lon="17.995987938650867"><ele>53.0</ele><time>2026-04-12T13:37:18.996Z</time></trkpt><trkpt lat="40.14699356755461" lon="17.995865950622754"><ele>53.0</ele><time>2026-04-12T13:37:19.996Z</time></trkpt><trkpt lat="40.14696888792302" lon="17.995734614764327"><ele>53.0</ele><time>2026-04-12T13:37:20.996Z</time></trkpt><trkpt lat="40.146939066755124" lon="17.99559960413144"><ele>53.0</ele><time>2026-04-12T13:37:21.996Z</time></trkpt><trkpt lat="40.146899395448365" lon="17.995453257284254"><ele>53.0</ele><time>2026-04-12T13:37:22.996Z</time></trkpt><trkpt lat="40.14685520942499" lon="17.99529902363205"><ele>53.25</ele><time>2026-04-12T13:37:23.996Z</time></trkpt><trkpt lat="40.146811007598295" lon="17.995119601344694"><ele>53.5</ele><time>2026-04-12T13:37:24.997Z</time></trkpt><trkpt lat="40.14677289996847" lon="17.994945569782125"><ele>53.75</ele><time>2026-04-12T13:37:25.997Z</time></trkpt><trkpt lat="40.14674407915427" lon="17.99480211626251"><ele>54.0</ele><time>2026-04-12T13:37:26.997Z</time></trkpt><trkpt lat="40.1467370679817" lon="17.994673537482885"><ele>53.6</ele><time>2026-04-12T13:37:27.996Z</time></trkpt><trkpt lat="40.14673861345708" lon="17.99454793100859"><ele>53.2</ele><time>2026-04-12T13:37:28.996Z</time></trkpt><trkpt lat="40.14676149997875" lon="17.994410124190743"><ele>52.800000000000004</ele><time>2026-04-12T13:37:29.996Z</time></trkpt><trkpt lat="40.14679914602976" lon="17.99425998435758"><ele>52.400000000000006</ele><time>2026-04-12T13:37:30.997Z</time></trkpt><trkpt lat="40.146840049623755" lon="17.99410697215709"><ele>52.0</ele><time>2026-04-12T13:37:31.997Z</time></trkpt><trkpt lat="40.146875499679176" lon="17.993949241880472"><ele>51.75</ele><time>2026-04-12T13:37:32.997Z</time></trkpt><trkpt lat="40.14691061998367" lon="17.993793812785466"><ele>51.5</ele><time>2026-04-12T13:37:33.997Z</time></trkpt><trkpt lat="40.14694880015837" lon="17.993629486737646"><ele>51.25</ele><time>2026-04-12T13:37:34.996Z</time></trkpt><trkpt lat="40.14698434057545" lon="17.99348007997756"><ele>51.0</ele><time>2026-04-12T13:37:35.996Z</time></trkpt><trkpt lat="40.14701402549374" lon="17.993343295930963"><ele>51.199999999999996</ele><time>2026-04-12T13:37:36.997Z</time></trkpt><trkpt lat="40.14703792954287" lon="17.99321510379763"><ele>51.4</ele><time>2026-04-12T13:37:37.997Z</time></trkpt><trkpt lat="40.14706674374496" lon="17.993091033876553"><ele>51.6</ele><time>2026-04-12T13:37:38.997Z</time></trkpt><trkpt lat="40.14709318113998" lon="17.99297382445772"><ele>51.8</ele><time>2026-04-12T13:37:39.997Z</time></trkpt><trkpt lat="40.14710610631312" lon="17.992856383398895"><ele>52.0</ele><time>2026-04-12T13:37:40.997Z</time></trkpt><trkpt lat="40.14710442278096" lon="17.992721039519665"><ele>52.0</ele><time>2026-04-12T13:37:41.997Z</time></trkpt><trkpt lat="40.14708342520796" lon="17.992580670778075"><ele>52.0</ele><time>2026-04-12T13:37:42.997Z</time></trkpt><trkpt lat="40.147051208788966" lon="17.992427259350162"><ele>52.0</ele><time>2026-04-12T13:37:43.997Z</time></trkpt><trkpt lat="40.14700168648547" lon="17.99225942868354"><ele>52.0</ele><time>2026-04-12T13:37:44.997Z</time></trkpt><trkpt lat="40.146973837669094" lon="17.992074823242557"><ele>52.0</ele><time>2026-04-12T13:37:45.997Z</time></trkpt><trkpt lat="40.14694104980433" lon="17.99188785437966"><ele>52.0</ele><time>2026-04-12T13:37:46.997Z</time></trkpt><trkpt lat="40.146920429937" lon="17.991703310151614"><ele>52.0</ele><time>2026-04-12T13:37:47.997Z</time></trkpt><trkpt lat="40.14691263648663" lon="17.99151049514756"><ele>52.0</ele><time>2026-04-12T13:37:48.997Z</time></trkpt><trkpt lat="40.14690004962505" lon="17.9913384854165"><ele>52.0</ele><time>2026-04-12T13:37:49.997Z</time></trkpt><trkpt lat="40.14689068404226" lon="17.99115176632773"><ele>52.0</ele><time>2026-04-12T13:37:50.997Z</time></trkpt><trkpt lat="40.14675692781146" lon="17.991134144920988"><ele>52.0</ele><time>2026-04-12T13:37:51.997Z</time></trkpt><trkpt lat="40.14672578114251" lon="17.990999091259823"><ele>52.0</ele><time>2026-04-12T13:37:52.997Z</time></trkpt><trkpt lat="40.146700469131574" lon="17.990863120901725"><ele>52.2</ele><time>2026-04-12T13:37:53.997Z</time></trkpt><trkpt lat="40.146668516458426" lon="17.990737713017207"><ele>52.400000000000006</ele><time>2026-04-12T13:37:54.997Z</time></trkpt><trkpt lat="40.1466403480397" lon="17.99060710841063"><ele>52.599999999999994</ele><time>2026-04-12T13:37:55.997Z</time></trkpt><trkpt lat="40.14661315700418" lon="17.990461290044877"><ele>52.8</ele><time>2026-04-12T13:37:56.997Z</time></trkpt><trkpt lat="40.14658699023187" lon="17.99030334916372"><ele>53.0</ele><time>2026-04-12T13:37:57.997Z</time></trkpt><trkpt lat="40.146557936329756" lon="17.99014982447071"><ele>51.5</ele><time>2026-04-12T13:37:58.997Z</time></trkpt><trkpt lat="40.146522558898596" lon="17.98998787284982"><ele>50.0</ele><time>2026-04-12T13:37:59.997Z</time></trkpt><trkpt lat="40.14649025720351" lon="17.989821624007703"><ele>48.5</ele><time>2026-04-12T13:38:00.997Z</time></trkpt><trkpt lat="40.14645480838346" lon="17.989663873875568"><ele>47.0</ele><time>2026-04-12T13:38:01.997Z</time></trkpt><trkpt lat="40.14642068805364" lon="17.989498253020678"><ele>47.0</ele><time>2026-04-12T13:38:02.997Z</time></trkpt><trkpt lat="40.1463919952877" lon="17.98934060708991"><ele>47.0</ele><time>2026-04-12T13:38:03.997Z</time></trkpt><trkpt lat="40.14636006323757" lon="17.989195813612078"><ele>47.0</ele><time>2026-04-12T13:38:04.997Z</time></trkpt><trkpt lat="40.14631517318903" lon="17.989051131626525"><ele>47.0</ele><time>2026-04-12T13:38:05.997Z</time></trkpt><trkpt lat="40.146256320450995" lon="17.98892378264223"><ele>46.75</ele><time>2026-04-12T13:38:06.997Z</time></trkpt><trkpt lat="40.14617595057995" lon="17.988805671773648"><ele>46.5</ele><time>2026-04-12T13:38:07.997Z</time></trkpt><trkpt lat="40.14608187853677" lon="17.988683521987614"><ele>46.25</ele><time>2026-04-12T13:38:08.997Z</time></trkpt><trkpt lat="40.14597682531735" lon="17.98855978067433"><ele>46.0</ele><time>2026-04-12T13:38:09.997Z</time></trkpt><trkpt lat="40.14587199733767" lon="17.98843478724437"><ele>46.0</ele><time>2026-04-12T13:38:10.997Z</time></trkpt><trkpt lat="40.14577588392788" lon="17.988322549638514"><ele>46.0</ele><time>2026-04-12T13:38:11.997Z</time></trkpt><trkpt lat="40.14569035512327" lon="17.988214161256312"><ele>46.0</ele><time>2026-04-12T13:38:12.997Z</time></trkpt><trkpt lat="40.1456168939262" lon="17.988109338818866"><ele>46.0</ele><time>2026-04-12T13:38:13.997Z</time></trkpt><trkpt lat="40.14551894281045" lon="17.988055351852786"><ele>44.599999999999994</ele><time>2026-04-12T13:38:14.997Z</time></trkpt><trkpt lat="40.145441755092705" lon="17.98796320180999"><ele>43.199999999999996</ele><time>2026-04-12T13:38:15.997Z</time></trkpt><trkpt lat="40.14536802272669" lon="17.987861620349207"><ele>41.8</ele><time>2026-04-12T13:38:16.997Z</time></trkpt><trkpt lat="40.145292290594334" lon="17.987763849520302"><ele>40.4</ele><time>2026-04-12T13:38:17.997Z</time></trkpt><trkpt lat="40.14522067614837" lon="17.987662726004157"><ele>39.0</ele><time>2026-04-12T13:38:18.997Z</time></trkpt><trkpt lat="40.14514158051115" lon="17.987575425547046"><ele>38.75</ele><time>2026-04-12T13:38:19.997Z</time></trkpt><trkpt lat="40.14505876244475" lon="17.98747251209824"><ele>38.5</ele><time>2026-04-12T13:38:20.997Z</time></trkpt><trkpt lat="40.144979893923384" lon="17.98736610414997"><ele>38.25</ele><time>2026-04-12T13:38:21.997Z</time></trkpt><trkpt lat="40.144895382338945" lon="17.98724988796408"><ele>38.0</ele><time>2026-04-12T13:38:22.997Z</time></trkpt><trkpt lat="40.14481268274161" lon="17.98714382889912"><ele>38.0</ele><time>2026-04-12T13:38:23.997Z</time></trkpt><trkpt lat="40.144738011456944" lon="17.987059053130302"><ele>38.0</ele><time>2026-04-12T13:38:24.997Z</time></trkpt><trkpt lat="40.144659735797056" lon="17.98698208226778"><ele>38.0</ele><time>2026-04-12T13:38:25.997Z</time></trkpt><trkpt lat="40.144580360755334" lon="17.986888655471365"><ele>38.0</ele><time>2026-04-12T13:38:26.997Z</time></trkpt><trkpt lat="40.14447229252075" lon="17.98679795356326"><ele>38.0</ele><time>2026-04-12T13:38:27.997Z</time></trkpt><trkpt lat="40.144386664078574" lon="17.986727100121982"><ele>37.199999999999996</ele><time>2026-04-12T13:38:28.997Z</time></trkpt><trkpt lat="40.14432912286082" lon="17.986658517676485"><ele>36.4</ele><time>2026-04-12T13:38:29.997Z</time></trkpt><trkpt lat="40.1442496785389" lon="17.98657650566839"><ele>35.599999999999994</ele><time>2026-04-12T13:38:31.997Z</time></trkpt><trkpt lat="40.144152116450734" lon="17.986507438518725"><ele>34.8</ele><time>2026-04-12T13:38:33.997Z</time></trkpt><trkpt lat="40.144049010664254" lon="17.98644610026144"><ele>34.0</ele><time>2026-04-12T13:38:35.997Z</time></trkpt><trkpt lat="40.14395452272584" lon="17.98636916890981"><ele>34.0</ele><time>2026-04-12T13:38:37.997Z</time></trkpt><trkpt lat="40.14388315541558" lon="17.986287292479208"><ele>34.0</ele><time>2026-04-12T13:38:39.997Z</time></trkpt><trkpt lat="40.14383410125826" lon="17.9861870632442"><ele>34.0</ele><time>2026-04-12T13:38:41.997Z</time></trkpt><trkpt lat="40.143791929629906" lon="17.98606439460786"><ele>34.0</ele><time>2026-04-12T13:38:43.997Z</time></trkpt><trkpt lat="40.14376665686111" lon="17.985915492015074"><ele>34.0</ele><time>2026-04-12T13:38:45.997Z</time></trkpt><trkpt lat="40.143763811926995" lon="17.985783363515644"><ele>34.8</ele><time>2026-04-12T13:38:47.997Z</time></trkpt><trkpt lat="40.14376812416344" lon="17.985666869737134"><ele>35.599999999999994</ele><time>2026-04-12T13:38:49.997Z</time></trkpt><trkpt lat="40.1437758158126" lon="17.985532509446493"><ele>36.4</ele><time>2026-04-12T13:38:51.997Z</time></trkpt><trkpt lat="40.143784420125534" lon="17.98538729859452"><ele>37.199999999999996</ele><time>2026-04-12T13:38:53.996Z</time></trkpt><trkpt lat="40.14380500469063" lon="17.985249263939313"><ele>38.0</ele><time>2026-04-12T13:38:55.996Z</time></trkpt><trkpt lat="40.1438443093422" lon="17.98509692891585"><ele>38.166666666666664</ele><time>2026-04-12T13:38:57.996Z</time></trkpt><trkpt lat="40.14386590814126" lon="17.985009748461966"><ele>38.33333333333333</ele><time>2026-04-12T13:38:58.996Z</time></trkpt><trkpt lat="40.14389356939898" lon="17.984926022210256"><ele>38.5</ele><time>2026-04-12T13:38:59.996Z</time></trkpt><trkpt lat="40.14395305241818" lon="17.984771527876937"><ele>38.666666666666664</ele><time>2026-04-12T13:39:01.996Z</time></trkpt><trkpt lat="40.14397254333012" lon="17.984686922151838"><ele>38.833333333333336</ele><time>2026-04-12T13:39:02.996Z</time></trkpt><trkpt lat="40.14399421661206" lon="17.98459694909238"><ele>39.0</ele><time>2026-04-12T13:39:03.996Z</time></trkpt><trkpt lat="40.14399825007628" lon="17.984495883317805"><ele>39.0</ele><time>2026-04-12T13:39:04.996Z</time></trkpt><trkpt lat="40.14399461337602" lon="17.984397397314513"><ele>39.0</ele><time>2026-04-12T13:39:05.996Z</time></trkpt><trkpt lat="40.14397754922948" lon="17.984298043052434"><ele>39.0</ele><time>2026-04-12T13:39:06.996Z</time></trkpt><trkpt lat="40.14395074408313" lon="17.984206570836605"><ele>39.0</ele><time>2026-04-12T13:39:07.996Z</time></trkpt><trkpt lat="40.14390986468129" lon="17.98411593029766"><ele>39.0</ele><time>2026-04-12T13:39:08.996Z</time></trkpt><trkpt lat="40.14385746395019" lon="17.984012661267336"><ele>39.0</ele><time>2026-04-12T13:39:09.996Z</time></trkpt><trkpt lat="40.14379875183369" lon="17.98394023688613"><ele>39.5</ele><time>2026-04-12T13:39:10.996Z</time></trkpt><trkpt lat="40.14373641974915" lon="17.983879721935114"><ele>40.0</ele><time>2026-04-12T13:39:11.996Z</time></trkpt><trkpt lat="40.14366688703476" lon="17.98384837492067"><ele>40.5</ele><time>2026-04-12T13:39:12.996Z</time></trkpt><trkpt lat="40.14359758531119" lon="17.98382318220351"><ele>41.0</ele><time>2026-04-12T13:39:13.996Z</time></trkpt><trkpt lat="40.143528482088506" lon="17.983817898395625"><ele>41.5</ele><time>2026-04-12T13:39:14.996Z</time></trkpt><trkpt lat="40.143451548450614" lon="17.983808580598666"><ele>42.0</ele><time>2026-04-12T13:39:15.996Z</time></trkpt><trkpt lat="40.143323296509955" lon="17.983759404096666"><ele>42.0</ele><time>2026-04-12T13:39:17.996Z</time></trkpt><trkpt lat="40.14323827247207" lon="17.983716306668732"><ele>42.0</ele><time>2026-04-12T13:39:18.996Z</time></trkpt><trkpt lat="40.14312273419258" lon="17.983658527096246"><ele>42.0</ele><time>2026-04-12T13:39:19.996Z</time></trkpt><trkpt lat="40.14300634994157" lon="17.983619051461204"><ele>42.0</ele><time>2026-04-12T13:39:20.996Z</time></trkpt><trkpt lat="40.142899237534856" lon="17.983596861243967"><ele>42.0</ele><time>2026-04-12T13:39:21.996Z</time></trkpt><trkpt lat="40.142813053577505" lon="17.983575165268824"><ele>40.666666666666664</ele><time>2026-04-12T13:39:22.996Z</time></trkpt><trkpt lat="40.14272903453579" lon="17.983548555589216"><ele>39.333333333333336</ele><time>2026-04-12T13:39:23.996Z</time></trkpt><trkpt lat="40.142640264864234" lon="17.98352348202615"><ele>38.0</ele><time>2026-04-12T13:39:24.996Z</time></trkpt><trkpt lat="40.14257100842202" lon="17.983516259790907"><ele>36.66666666666667</ele><time>2026-04-12T13:39:25.996Z</time></trkpt><trkpt lat="40.142502792937194" lon="17.98349549871839"><ele>35.333333333333336</ele><time>2026-04-12T13:39:26.996Z</time></trkpt><trkpt lat="40.14237783771897" lon="17.983452767420356"><ele>34.0</ele><time>2026-04-12T13:39:28.996Z</time></trkpt><trkpt lat="40.142274104914854" lon="17.98342023087787"><ele>32.5</ele><time>2026-04-12T13:39:29.996Z</time></trkpt><trkpt lat="40.14216404977421" lon="17.9833405980523"><ele>31.0</ele><time>2026-04-12T13:39:30.996Z</time></trkpt><trkpt lat="40.142042227146" lon="17.98320838606178"><ele>29.5</ele><time>2026-04-12T13:39:31.996Z</time></trkpt><trkpt lat="40.141922233899365" lon="17.983078095254243"><ele>28.0</ele><time>2026-04-12T13:39:32.996Z</time></trkpt><trkpt lat="40.14183054822684" lon="17.982953784085076"><ele>28.0</ele><time>2026-04-12T13:39:33.996Z</time></trkpt><trkpt lat="40.1417573947237" lon="17.98281417897677"><ele>28.0</ele><time>2026-04-12T13:39:34.996Z</time></trkpt><trkpt lat="40.141685174853556" lon="17.982680977879937"><ele>28.0</ele><time>2026-04-12T13:39:35.996Z</time></trkpt><trkpt lat="40.14162310431005" lon="17.982550676299688"><ele>28.0</ele><time>2026-04-12T13:39:36.996Z</time></trkpt><trkpt lat="40.1415776803202" lon="17.98240339287542"><ele>25.25</ele><time>2026-04-12T13:39:37.997Z</time></trkpt><trkpt lat="40.1415344038765" lon="17.982256773753445"><ele>22.5</ele><time>2026-04-12T13:39:38.997Z</time></trkpt><trkpt lat="40.141493384905544" lon="17.982117308621046"><ele>19.75</ele><time>2026-04-12T13:39:39.996Z</time></trkpt><trkpt lat="40.141446490674305" lon="17.98198171788516"><ele>17.0</ele><time>2026-04-12T13:39:40.996Z</time></trkpt><trkpt lat="40.14141762060141" lon="17.981848443687106"><ele>17.0</ele><time>2026-04-12T13:39:41.996Z</time></trkpt><trkpt lat="40.14139159492133" lon="17.98171355995885"><ele>17.0</ele><time>2026-04-12T13:39:42.996Z</time></trkpt><trkpt lat="40.14136403564723" lon="17.98158223256326"><ele>17.0</ele><time>2026-04-12T13:39:43.995Z</time></trkpt><trkpt lat="40.141336902091545" lon="17.981446032461903"><ele>17.0</ele><time>2026-04-12T13:39:44.995Z</time></trkpt><trkpt lat="40.141320443893214" lon="17.98131377647168"><ele>17.0</ele><time>2026-04-12T13:39:45.995Z</time></trkpt><trkpt lat="40.14129669872025" lon="17.981191178410874"><ele>17.166666666666668</ele><time>2026-04-12T13:39:46.995Z</time></trkpt><trkpt lat="40.141269173760776" lon="17.981093108227512"><ele>17.333333333333336</ele><time>2026-04-12T13:39:47.995Z</time></trkpt><trkpt lat="40.14123400855724" lon="17.98095814425695"><ele>17.5</ele><time>2026-04-12T13:39:49.995Z</time></trkpt><trkpt lat="40.14122580395963" lon="17.98085429991994"><ele>17.666666666666668</ele><time>2026-04-12T13:39:51.995Z</time></trkpt><trkpt lat="40.141170729800876" lon="17.980790028425538"><ele>17.833333333333332</ele><time>2026-04-12T13:39:54.995Z</time></trkpt><trkpt lat="40.14106564345204" lon="17.98078421488604"><ele>18.0</ele><time>2026-04-12T13:39:56.995Z</time></trkpt><trkpt lat="40.140993277556014" lon="17.980810525410867"><ele>18.0</ele><time>2026-04-12T13:39:57.995Z</time></trkpt><trkpt lat="40.14090148250732" lon="17.980845302654004"><ele>18.0</ele><time>2026-04-12T13:39:58.995Z</time></trkpt><trkpt lat="40.140795357283146" lon="17.98087853328388"><ele>18.0</ele><time>2026-04-12T13:39:59.995Z</time></trkpt><trkpt lat="40.14065776948774" lon="17.98091166683985"><ele>18.0</ele><time>2026-04-12T13:40:00.995Z</time></trkpt><trkpt lat="40.140527894521675" lon="17.980941878037257"><ele>16.8</ele><time>2026-04-12T13:40:01.995Z</time></trkpt><trkpt lat="40.140423613293954" lon="17.98095971252616"><ele>15.600000000000001</ele><time>2026-04-12T13:40:02.995Z</time></trkpt><trkpt lat="40.14033627236944" lon="17.980966459790185"><ele>14.399999999999999</ele><time>2026-04-12T13:40:03.995Z</time></trkpt><trkpt lat="40.1402452603596" lon="17.98093612170831"><ele>13.2</ele><time>2026-04-12T13:40:04.995Z</time></trkpt><trkpt lat="40.14013060591763" lon="17.98090702205472"><ele>12.0</ele><time>2026-04-12T13:40:05.995Z</time></trkpt><trkpt lat="40.139992649230706" lon="17.980876641357398"><ele>10.25</ele><time>2026-04-12T13:40:06.995Z</time></trkpt><trkpt lat="40.13985087686326" lon="17.980846588122404"><ele>8.5</ele><time>2026-04-12T13:40:07.995Z</time></trkpt><trkpt lat="40.13972623197729" lon="17.980823110074127"><ele>6.75</ele><time>2026-04-12T13:40:08.995Z</time></trkpt><trkpt lat="40.1396157674414" lon="17.980810538269104"><ele>5.0</ele><time>2026-04-12T13:40:09.995Z</time></trkpt><trkpt lat="40.139502243064335" lon="17.980789078701864"><ele>5.0</ele><time>2026-04-12T13:40:10.995Z</time></trkpt><trkpt lat="40.1393800870013" lon="17.98077022161008"><ele>5.0</ele><time>2026-04-12T13:40:11.995Z</time></trkpt><trkpt lat="40.1392599034277" lon="17.980746860487727"><ele>5.0</ele><time>2026-04-12T13:40:12.995Z</time></trkpt><trkpt lat="40.13915350530507" lon="17.98071371700085"><ele>5.0</ele><time>2026-04-12T13:40:13.995Z</time></trkpt><trkpt lat="40.13906028298469" lon="17.980681375741174"><ele>4.5</ele><time>2026-04-12T13:40:14.995Z</time></trkpt><trkpt lat="40.13898609601445" lon="17.980664707350353"><ele>4.0</ele><time>2026-04-12T13:40:15.995Z</time></trkpt><trkpt lat="40.13887483379868" lon="17.980681235610902"><ele>3.5</ele><time>2026-04-12T13:40:17.995Z</time></trkpt><trkpt lat="40.138779516341124" lon="17.980769600684567"><ele>3.0</ele><time>2026-04-12T13:40:19.995Z</time></trkpt><trkpt lat="40.13873355764502" lon="17.980836872457203"><ele>2.5</ele><time>2026-04-12T13:40:20.995Z</time></trkpt><trkpt lat="40.13869874565992" lon="17.980917925200444"><ele>2.0</ele><time>2026-04-12T13:40:21.995Z</time></trkpt><trkpt lat="40.138682571238036" lon="17.98102116708037"><ele>2.0</ele><time>2026-04-12T13:40:22.995Z</time></trkpt><trkpt lat="40.13870907353487" lon="17.981151721875136"><ele>2.0</ele><time>2026-04-12T13:40:23.995Z</time></trkpt><trkpt lat="40.13876813641274" lon="17.98128581612222"><ele>2.0</ele><time>2026-04-12T13:40:24.995Z</time></trkpt><trkpt lat="40.1388499321715" lon="17.981402258386566"><ele>2.0</ele><time>2026-04-12T13:40:25.995Z</time></trkpt><trkpt lat="40.138951363035254" lon="17.98150318981992"><ele>2.0</ele><time>2026-04-12T13:40:26.995Z</time></trkpt><trkpt lat="40.13906829275828" lon="17.981589433737845"><ele>2.0</ele><time>2026-04-12T13:40:27.995Z</time></trkpt><trkpt lat="40.13918547311472" lon="17.981676911973107"><ele>2.0</ele><time>2026-04-12T13:40:28.995Z</time></trkpt><trkpt lat="40.13928198571235" lon="17.981759158517693"><ele>2.0</ele><time>2026-04-12T13:40:29.995Z</time></trkpt><trkpt lat="40.13937526955853" lon="17.981852296963982"><ele>2.0</ele><time>2026-04-12T13:40:30.995Z</time></trkpt><trkpt lat="40.13947172300152" lon="17.981955592839252"><ele>2.0</ele><time>2026-04-12T13:40:31.995Z</time></trkpt><trkpt lat="40.139566228451045" lon="17.982057705505106"><ele>2.0</ele><time>2026-04-12T13:40:32.995Z</time></trkpt><trkpt lat="40.13964726764803" lon="17.982159747849213"><ele>2.0</ele><time>2026-04-12T13:40:33.995Z</time></trkpt><trkpt lat="40.139716569469144" lon="17.982277474209866"><ele>2.0</ele><time>2026-04-12T13:40:34.995Z</time></trkpt><trkpt lat="40.13978083359421" lon="17.982401785884374"><ele>2.0</ele><time>2026-04-12T13:40:35.995Z</time></trkpt><trkpt lat="40.13983874872952" lon="17.98251063846816"><ele>2.0</ele><time>2026-04-12T13:40:36.995Z</time></trkpt><trkpt lat="40.139894181373606" lon="17.982613787270974"><ele>2.0</ele><time>2026-04-12T13:40:37.995Z</time></trkpt><trkpt lat="40.139952832387515" lon="17.98271507785922"><ele>2.0</ele><time>2026-04-12T13:40:38.995Z</time></trkpt><trkpt lat="40.14001767352568" lon="17.982828932658478"><ele>2.8</ele><time>2026-04-12T13:40:39.995Z</time></trkpt><trkpt lat="40.14008220324183" lon="17.982954719327047"><ele>3.6</ele><time>2026-04-12T13:40:40.995Z</time></trkpt><trkpt lat="40.14013479061394" lon="17.98306251837429"><ele>4.3999999999999995</ele><time>2026-04-12T13:40:41.995Z</time></trkpt><trkpt lat="40.14018795680091" lon="17.98316937794097"><ele>5.2</ele><time>2026-04-12T13:40:42.995Z</time></trkpt><trkpt lat="40.14023771036098" lon="17.98327172355841"><ele>6.0</ele><time>2026-04-12T13:40:43.995Z</time></trkpt><trkpt lat="40.14028060027058" lon="17.983379347113402"><ele>6.0</ele><time>2026-04-12T13:40:44.995Z</time></trkpt><trkpt lat="40.14031275601019" lon="17.98346950156812"><ele>6.0</ele><time>2026-04-12T13:40:45.995Z</time></trkpt><trkpt lat="40.140328987283915" lon="17.983595559912047"><ele>6.0</ele><time>2026-04-12T13:40:47.995Z</time></trkpt><trkpt lat="40.140320583301495" lon="17.98370729365491"><ele>6.0</ele><time>2026-04-12T13:40:49.995Z</time></trkpt><trkpt lat="40.140291774722925" lon="17.98386870877593"><ele>6.0</ele><time>2026-04-12T13:40:51.995Z</time></trkpt><trkpt lat="40.140269048561485" lon="17.98396132296278"><ele>6.0</ele><time>2026-04-12T13:40:52.995Z</time></trkpt><trkpt lat="40.14024381776961" lon="17.984044841714773"><ele>6.0</ele><time>2026-04-12T13:40:53.995Z</time></trkpt><trkpt lat="40.14021623031137" lon="17.98412319254559"><ele>6.0</ele><time>2026-04-12T13:40:54.995Z</time></trkpt><trkpt lat="40.140168827754856" lon="17.984256966745782"><ele>6.0</ele><time>2026-04-12T13:40:56.995Z</time></trkpt><trkpt lat="40.140123188710085" lon="17.98439026321205"><ele>6.0</ele><time>2026-04-12T13:40:58.995Z</time></trkpt><trkpt lat="40.14008325394256" lon="17.984509345342367"><ele>6.166666666666667</ele><time>2026-04-12T13:41:00.995Z</time></trkpt><trkpt lat="40.14006141786356" lon="17.984619824239722"><ele>6.333333333333334</ele><time>2026-04-12T13:41:02.995Z</time></trkpt><trkpt lat="40.14003121678908" lon="17.984735244450725"><ele>6.5</ele><time>2026-04-12T13:41:05.995Z</time></trkpt><trkpt lat="40.13996747823576" lon="17.984792845470736"><ele>6.666666666666667</ele><time>2026-04-12T13:41:06.995Z</time></trkpt><trkpt lat="40.139893559201035" lon="17.98483789566276"><ele>6.833333333333334</ele><time>2026-04-12T13:41:07.995Z</time></trkpt><trkpt lat="40.13982649539259" lon="17.984869374599118"><ele>7.0</ele><time>2026-04-12T13:41:08.995Z</time></trkpt><trkpt lat="40.13974845040268" lon="17.984883281723587"><ele>6.333333333333334</ele><time>2026-04-12T13:41:09.995Z</time></trkpt><trkpt lat="40.139680068791016" lon="17.984896544941606"><ele>5.666666666666667</ele><time>2026-04-12T13:41:10.995Z</time></trkpt><trkpt lat="40.139566717317535" lon="17.984895368994213"><ele>5.0</ele><time>2026-04-12T13:41:12.995Z</time></trkpt><trkpt lat="40.139477213242444" lon="17.984924175683158"><ele>4.333333333333334</ele><time>2026-04-12T13:41:15.995Z</time></trkpt><trkpt lat="40.139413126106646" lon="17.98493722713641"><ele>3.666666666666667</ele><time>2026-04-12T13:41:17.995Z</time></trkpt><trkpt lat="40.139352893087036" lon="17.984967733023325"><ele>3.0</ele><time>2026-04-12T13:41:19.995Z</time></trkpt><trkpt lat="40.13929429194808" lon="17.985014993417096"><ele>2.9999999999999996</ele><time>2026-04-12T13:41:22.995Z</time></trkpt><trkpt lat="40.139232147172095" lon="17.985046232165036"><ele>3.0</ele><time>2026-04-12T13:41:25.995Z</time></trkpt><trkpt lat="40.13918202577098" lon="17.98510814686182"><ele>3.0</ele><time>2026-04-12T13:41:28.995Z</time></trkpt><trkpt lat="40.1392115826765" lon="17.985219534844905"><ele>3.0</ele><time>2026-04-12T13:41:31.995Z</time></trkpt><trkpt lat="40.13925162218352" lon="17.9853027007225"><ele>3.0</ele><time>2026-04-12T13:41:33.995Z</time></trkpt><trkpt lat="40.13929781677998" lon="17.985384395884658"><ele>2.9999999999999996</ele><time>2026-04-12T13:41:35.995Z</time></trkpt><trkpt lat="40.13933997462613" lon="17.985457622851733"><ele>3.0</ele><time>2026-04-12T13:41:38.995Z</time></trkpt><trkpt lat="40.13938122326933" lon="17.98554006942491"><ele>3.0</ele><time>2026-04-12T13:41:41.996Z</time></trkpt><trkpt lat="40.13943874486567" lon="17.98558176013747"><ele>3.0</ele><time>2026-04-12T13:41:43.995Z</time></trkpt><trkpt lat="40.139521317946816" lon="17.985554819964037"><ele>3.0</ele><time>2026-04-12T13:41:45.996Z</time></trkpt><trkpt lat="40.13961701290342" lon="17.98550502509115"><ele>3.0</ele><time>2026-04-12T13:41:47.995Z</time></trkpt><trkpt lat="40.139695889581134" lon="17.98547524292399"><ele>3.0</ele><time>2026-04-12T13:41:49.995Z</time></trkpt><trkpt lat="40.139756897548985" lon="17.985452098843172"><ele>3.0</ele><time>2026-04-12T13:41:51.995Z</time></trkpt><trkpt lat="40.13982174866828" lon="17.98542018070131"><ele>3.5</ele><time>2026-04-12T13:41:53.995Z</time></trkpt><trkpt lat="40.139885297273864" lon="17.985376250270072"><ele>4.0</ele><time>2026-04-12T13:41:56.995Z</time></trkpt><trkpt lat="40.139964240591034" lon="17.98533618172764"><ele>4.5</ele><time>2026-04-12T13:42:00.995Z</time></trkpt><trkpt lat="40.14003538853654" lon="17.985414528476344"><ele>5.0</ele><time>2026-04-12T13:42:03.995Z</time></trkpt><trkpt lat="40.140079939942275" lon="17.98550391875379"><ele>5.5</ele><time>2026-04-12T13:42:05.995Z</time></trkpt><trkpt lat="40.14014069844565" lon="17.985584296473302"><ele>6.0</ele><time>2026-04-12T13:42:08.995Z</time></trkpt><trkpt lat="40.14020752216953" lon="17.985593102623035"><ele>6.0</ele><time>2026-04-12T13:42:11.995Z</time></trkpt><trkpt lat="40.14027370486076" lon="17.985617319798305"><ele>6.0</ele><time>2026-04-12T13:42:14.995Z</time></trkpt><trkpt lat="40.14032171730454" lon="17.985674802094202"><ele>6.0</ele><time>2026-04-12T13:42:17.995Z</time></trkpt><trkpt lat="40.140359370143386" lon="17.98578635699845"><ele>6.0</ele><time>2026-04-12T13:42:20.995Z</time></trkpt><trkpt lat="40.1403814620969" lon="17.985885942363502"><ele>6.0</ele><time>2026-04-12T13:42:24.995Z</time></trkpt><trkpt lat="40.14041253631398" lon="17.985963901661044"><ele>6.0</ele><time>2026-04-12T13:42:26.995Z</time></trkpt><trkpt lat="40.14045163987331" lon="17.986059632413895"><ele>2.0</ele><time>2026-04-12T13:42:29.995Z</time></trkpt><trkpt lat="40.14048074963263" lon="17.986146766016788"><ele>2.0</ele><time>2026-04-12T13:42:32.995Z</time></trkpt></trkseg><trkseg><trkpt lat="40.140520363994206" lon="17.986323794234742"><ele>2.0</ele><time>2026-04-12T14:15:12.001Z</time></trkpt><trkpt lat="40.140557235080415" lon="17.98645768858785"><ele>2.0</ele><time>2026-04-12T14:15:14.001Z</time></trkpt><trkpt lat="40.14060144148811" lon="17.986623891150938"><ele>2.0</ele><time>2026-04-12T14:15:16.002Z</time></trkpt><trkpt lat="40.1406268604459" lon="17.986707526045095"><ele>2.0</ele><time>2026-04-12T14:15:17.002Z</time></trkpt><trkpt lat="40.14066517317102" lon="17.986793015597552"><ele>2.0</ele><time>2026-04-12T14:15:18.002Z</time></trkpt><trkpt lat="40.14069985157623" lon="17.98688262054241"><ele>1.9999999999999998</ele><time>2026-04-12T14:15:19.001Z</time></trkpt><trkpt lat="40.14073129201409" lon="17.98697050931373"><ele>2.0</ele><time>2026-04-12T14:15:20.001Z</time></trkpt><trkpt lat="40.14075714537061" lon="17.987048007994268"><ele>2.0</ele><time>2026-04-12T14:15:21.002Z</time></trkpt><trkpt lat="40.14077923601882" lon="17.987129855136303"><ele>2.0</ele><time>2026-04-12T14:15:22.001Z</time></trkpt><trkpt lat="40.14078567398061" lon="17.98722437588452"><ele>1.9999999999999998</ele><time>2026-04-12T14:15:23.001Z</time></trkpt><trkpt lat="40.14078377709276" lon="17.987308370178834"><ele>2.0</ele><time>2026-04-12T14:15:24.002Z</time></trkpt><trkpt lat="40.14071415528626" lon="17.987420795758283"><ele>2.0</ele><time>2026-04-12T14:15:26.001Z</time></trkpt><trkpt lat="40.14065728664286" lon="17.987459161541672"><ele>2.0</ele><time>2026-04-12T14:15:27.001Z</time></trkpt><trkpt lat="40.14059394898484" lon="17.987490143913348"><ele>2.0</ele><time>2026-04-12T14:15:28.001Z</time></trkpt><trkpt lat="40.14049477601838" lon="17.987467338403736"><ele>2.0</ele><time>2026-04-12T14:15:29.001Z</time></trkpt><trkpt lat="40.140376178569795" lon="17.987476361808785"><ele>2.0</ele><time>2026-04-12T14:15:31.001Z</time></trkpt><trkpt lat="40.14027639518627" lon="17.987491875078383"><ele>1.9999999999999998</ele><time>2026-04-12T14:15:33.001Z</time></trkpt><trkpt lat="40.14016313860099" lon="17.9875061549599"><ele>2.0</ele><time>2026-04-12T14:15:35.001Z</time></trkpt><trkpt lat="40.14005462486095" lon="17.987547620395503"><ele>2.0</ele><time>2026-04-12T14:15:37.001Z</time></trkpt><trkpt lat="40.139996176429655" lon="17.98758772676405"><ele>2.0</ele><time>2026-04-12T14:15:38.001Z</time></trkpt><trkpt lat="40.13993476304599" lon="17.987635671039193"><ele>1.9999999999999998</ele><time>2026-04-12T14:15:39.001Z</time></trkpt><trkpt lat="40.13988686601322" lon="17.987695331366663"><ele>2.0</ele><time>2026-04-12T14:15:40.001Z</time></trkpt><trkpt lat="40.13982459946963" lon="17.987818473232075"><ele>2.333333333333333</ele><time>2026-04-12T14:15:42.001Z</time></trkpt><trkpt lat="40.13977255125728" lon="17.98792803553024"><ele>2.6666666666666665</ele><time>2026-04-12T14:15:44.001Z</time></trkpt><trkpt lat="40.13971808902378" lon="17.98803730516056"><ele>3.0</ele><time>2026-04-12T14:15:46.001Z</time></trkpt><trkpt lat="40.13966999622327" lon="17.988119591697853"><ele>3.333333333333333</ele><time>2026-04-12T14:15:48.001Z</time></trkpt><trkpt lat="40.13962643563629" lon="17.988210150225385"><ele>3.6666666666666665</ele><time>2026-04-12T14:15:50.001Z</time></trkpt><trkpt lat="40.13958420941839" lon="17.98828653006677"><ele>4.0</ele><time>2026-04-12T14:15:52.001Z</time></trkpt><trkpt lat="40.13954265575388" lon="17.988367284660292"><ele>5.800000000000001</ele><time>2026-04-12T14:15:54.001Z</time></trkpt><trkpt lat="40.139494124831266" lon="17.988470590050227"><ele>7.6000000000000005</ele><time>2026-04-12T14:15:56.001Z</time></trkpt><trkpt lat="40.13941985126363" lon="17.98857608570624"><ele>9.4</ele><time>2026-04-12T14:15:58.001Z</time></trkpt><trkpt lat="40.13933170217926" lon="17.988671781929487"><ele>11.200000000000001</ele><time>2026-04-12T14:16:00.001Z</time></trkpt><trkpt lat="40.139229143446784" lon="17.98875207493428"><ele>13.0</ele><time>2026-04-12T14:16:02.001Z</time></trkpt><trkpt lat="40.13916995936338" lon="17.988783382569682"><ele>13.0</ele><time>2026-04-12T14:16:03.001Z</time></trkpt><trkpt lat="40.139059268575735" lon="17.98881042216235"><ele>13.0</ele><time>2026-04-12T14:16:05.001Z</time></trkpt><trkpt lat="40.138949753593856" lon="17.98884101029118"><ele>13.0</ele><time>2026-04-12T14:16:07.001Z</time></trkpt><trkpt lat="40.138887919281125" lon="17.9888567805564"><ele>13.0</ele><time>2026-04-12T14:16:08.001Z</time></trkpt><trkpt lat="40.1387685124113" lon="17.988881568011905"><ele>13.0</ele><time>2026-04-12T14:16:10.001Z</time></trkpt><trkpt lat="40.13870395925659" lon="17.988900997669138"><ele>12.166666666666666</ele><time>2026-04-12T14:16:11.001Z</time></trkpt><trkpt lat="40.1386363852937" lon="17.98891974233406"><ele>11.333333333333332</ele><time>2026-04-12T14:16:12.001Z</time></trkpt><trkpt lat="40.13857344780168" lon="17.988930845098896"><ele>10.5</ele><time>2026-04-12T14:16:13.001Z</time></trkpt><trkpt lat="40.13851099551088" lon="17.988949207698454"><ele>9.666666666666666</ele><time>2026-04-12T14:16:14.001Z</time></trkpt><trkpt lat="40.13839123032383" lon="17.98900269662902"><ele>8.833333333333332</ele><time>2026-04-12T14:16:16.001Z</time></trkpt><trkpt lat="40.1383268853517" lon="17.9890394112548"><ele>8.0</ele><time>2026-04-12T14:16:17.001Z</time></trkpt><trkpt lat="40.13826551264319" lon="17.98907412029638"><ele>8.0</ele><time>2026-04-12T14:16:18.001Z</time></trkpt><trkpt lat="40.13820588553806" lon="17.989115904670015"><ele>7.999999999999999</ele><time>2026-04-12T14:16:19.001Z</time></trkpt><trkpt lat="40.13814256925707" lon="17.989162066797626"><ele>8.0</ele><time>2026-04-12T14:16:20.001Z</time></trkpt><trkpt lat="40.13808037341807" lon="17.989209669271062"><ele>8.0</ele><time>2026-04-12T14:16:21.001Z</time></trkpt><trkpt lat="40.13801742194309" lon="17.989255932240063"><ele>7.999999999999999</ele><time>2026-04-12T14:16:22.001Z</time></trkpt><trkpt lat="40.13794914484861" lon="17.98930639341919"><ele>8.0</ele><time>2026-04-12T14:16:23.001Z</time></trkpt><trkpt lat="40.13788331848849" lon="17.989354083172447"><ele>8.0</ele><time>2026-04-12T14:16:24.001Z</time></trkpt><trkpt lat="40.13781964207115" lon="17.98940755320659"><ele>7.999999999999999</ele><time>2026-04-12T14:16:25.001Z</time></trkpt><trkpt lat="40.13776144350553" lon="17.98945324732881"><ele>8.0</ele><time>2026-04-12T14:16:26.001Z</time></trkpt><trkpt lat="40.13770448495658" lon="17.989492009041196"><ele>8.0</ele><time>2026-04-12T14:16:27.001Z</time></trkpt><trkpt lat="40.13764590614294" lon="17.989536992589986"><ele>8.0</ele><time>2026-04-12T14:16:28.001Z</time></trkpt><trkpt lat="40.13757734289145" lon="17.989573596212992"><ele>7.999999999999999</ele><time>2026-04-12T14:16:29.001Z</time></trkpt><trkpt lat="40.137512925098996" lon="17.98959898030356"><ele>8.0</ele><time>2026-04-12T14:16:30.001Z</time></trkpt><trkpt lat="40.13738914844962" lon="17.98961114811451"><ele>7.666666666666666</ele><time>2026-04-12T14:16:32.001Z</time></trkpt><trkpt lat="40.13731934147298" lon="17.989605817775228"><ele>7.333333333333333</ele><time>2026-04-12T14:16:33.001Z</time></trkpt><trkpt lat="40.137247363313996" lon="17.989597539073202"><ele>7.0</ele><time>2026-04-12T14:16:34.001Z</time></trkpt><trkpt lat="40.13718331645161" lon="17.989584857021953"><ele>6.666666666666666</ele><time>2026-04-12T14:16:35.001Z</time></trkpt><trkpt lat="40.13707472334083" lon="17.989567915522017"><ele>6.333333333333333</ele><time>2026-04-12T14:16:37.001Z</time></trkpt><trkpt lat="40.13700864964248" lon="17.98955593518282"><ele>6.0</ele><time>2026-04-12T14:16:38.001Z</time></trkpt><trkpt lat="40.13689161572873" lon="17.98954337583139"><ele>6.0</ele><time>2026-04-12T14:16:40.001Z</time></trkpt><trkpt lat="40.136808779928465" lon="17.989537355261326"><ele>6.0</ele><time>2026-04-12T14:16:41.001Z</time></trkpt><trkpt lat="40.13670783662727" lon="17.989523070629232"><ele>6.0</ele><time>2026-04-12T14:16:42.001Z</time></trkpt><trkpt lat="40.136597429801256" lon="17.989507610764914"><ele>6.0</ele><time>2026-04-12T14:16:43.001Z</time></trkpt><trkpt lat="40.13645492139123" lon="17.98947825314324"><ele>6.0</ele><time>2026-04-12T14:16:44.001Z</time></trkpt><trkpt lat="40.13634446058762" lon="17.989451770045733"><ele>6.0</ele><time>2026-04-12T14:16:45.001Z</time></trkpt><trkpt lat="40.13626835492206" lon="17.989429882585203"><ele>6.0</ele><time>2026-04-12T14:16:46.001Z</time></trkpt><trkpt lat="40.13615789197197" lon="17.989408568767292"><ele>6.0</ele><time>2026-04-12T14:16:48.001Z</time></trkpt><trkpt lat="40.13605896993865" lon="17.98939224673422"><ele>6.0</ele><time>2026-04-12T14:16:50.001Z</time></trkpt><trkpt lat="40.135990347841314" lon="17.989383680591658"><ele>6.0</ele><time>2026-04-12T14:16:51.001Z</time></trkpt><trkpt lat="40.135925287081314" lon="17.989381205079603"><ele>6.0</ele><time>2026-04-12T14:16:52.001Z</time></trkpt><trkpt lat="40.13581108300813" lon="17.98938307972451"><ele>5.5</ele><time>2026-04-12T14:16:54.001Z</time></trkpt><trkpt lat="40.13569757000955" lon="17.989410946633896"><ele>5.0</ele><time>2026-04-12T14:16:56.001Z</time></trkpt><trkpt lat="40.135597081856076" lon="17.989454685726958"><ele>4.5</ele><time>2026-04-12T14:16:58.001Z</time></trkpt><trkpt lat="40.135528410258566" lon="17.989497263596515"><ele>4.0</ele><time>2026-04-12T14:17:00.001Z</time></trkpt><trkpt lat="40.13547210073037" lon="17.989540503433098"><ele>3.5</ele><time>2026-04-12T14:17:02.001Z</time></trkpt><trkpt lat="40.13540644701238" lon="17.98958814678331"><ele>3.0</ele><time>2026-04-12T14:17:05.001Z</time></trkpt><trkpt lat="40.13533570392133" lon="17.989670103705002"><ele>3.0</ele><time>2026-04-12T14:17:08.001Z</time></trkpt><trkpt lat="40.13527495328536" lon="17.989755814572582"><ele>3.0</ele><time>2026-04-12T14:17:11.001Z</time></trkpt><trkpt lat="40.135227005607696" lon="17.989843127406047"><ele>3.0</ele><time>2026-04-12T14:17:13.001Z</time></trkpt><trkpt lat="40.135174837404115" lon="17.989959876740862"><ele>3.0</ele><time>2026-04-12T14:17:15.001Z</time></trkpt><trkpt lat="40.13514342819525" lon="17.99004813649768"><ele>3.0</ele><time>2026-04-12T14:17:16.001Z</time></trkpt><trkpt lat="40.13511940527452" lon="17.990158813463786"><ele>3.0</ele><time>2026-04-12T14:17:17.001Z</time></trkpt><trkpt lat="40.1350876288054" lon="17.990283419241564"><ele>3.5</ele><time>2026-04-12T14:17:18.001Z</time></trkpt><trkpt lat="40.13506730839212" lon="17.990432971916295"><ele>4.0</ele><time>2026-04-12T14:17:19.001Z</time></trkpt><trkpt lat="40.13503395501085" lon="17.990631684654186"><ele>4.5</ele><time>2026-04-12T14:17:20.001Z</time></trkpt><trkpt lat="40.13499895002231" lon="17.99084428998819"><ele>5.0</ele><time>2026-04-12T14:17:21.002Z</time></trkpt><trkpt lat="40.13496367064481" lon="17.99101083616536"><ele>5.6</ele><time>2026-04-12T14:17:22.001Z</time></trkpt><trkpt lat="40.13492447893476" lon="17.991170051571782"><ele>6.2</ele><time>2026-04-12T14:17:23.001Z</time></trkpt><trkpt lat="40.13489679671439" lon="17.991304354765656"><ele>6.800000000000001</ele><time>2026-04-12T14:17:24.001Z</time></trkpt><trkpt lat="40.13487238305537" lon="17.991429661941847"><ele>7.4</ele><time>2026-04-12T14:17:25.001Z</time></trkpt><trkpt lat="40.13484494531383" lon="17.99155070056129"><ele>8.0</ele><time>2026-04-12T14:17:26.001Z</time></trkpt><trkpt lat="40.13481588689465" lon="17.991664144520527"><ele>7.2</ele><time>2026-04-12T14:17:27.001Z</time></trkpt><trkpt lat="40.13478678775274" lon="17.99177261960438"><ele>6.4</ele><time>2026-04-12T14:17:28.001Z</time></trkpt><trkpt lat="40.13475608407561" lon="17.991877368671272"><ele>5.6000000000000005</ele><time>2026-04-12T14:17:29.001Z</time></trkpt><trkpt lat="40.134718182325244" lon="17.99199049167972"><ele>4.800000000000001</ele><time>2026-04-12T14:17:30.001Z</time></trkpt><trkpt lat="40.13467608576223" lon="17.992104709773155"><ele>4.0</ele><time>2026-04-12T14:17:31.001Z</time></trkpt><trkpt lat="40.13463615453133" lon="17.992220729939284"><ele>3.9999999999999996</ele><time>2026-04-12T14:17:32.001Z</time></trkpt><trkpt lat="40.13460496003436" lon="17.99232247623485"><ele>4.0</ele><time>2026-04-12T14:17:33.002Z</time></trkpt><trkpt lat="40.134570812376374" lon="17.992417676386395"><ele>4.0</ele><time>2026-04-12T14:17:34.001Z</time></trkpt><trkpt lat="40.13453102720274" lon="17.99251592796245"><ele>4.0</ele><time>2026-04-12T14:17:35.001Z</time></trkpt><trkpt lat="40.134486420561416" lon="17.992612540546883"><ele>3.9999999999999996</ele><time>2026-04-12T14:17:36.001Z</time></trkpt><trkpt lat="40.13443441425842" lon="17.992716168693004"><ele>4.0</ele><time>2026-04-12T14:17:37.001Z</time></trkpt><trkpt lat="40.13438323701854" lon="17.992811174563872"><ele>4.833333333333333</ele><time>2026-04-12T14:17:38.001Z</time></trkpt><trkpt lat="40.134336051315" lon="17.992894627057694"><ele>5.666666666666666</ele><time>2026-04-12T14:17:39.001Z</time></trkpt><trkpt lat="40.1342919228488" lon="17.992974188327125"><ele>6.5</ele><time>2026-04-12T14:17:40.001Z</time></trkpt><trkpt lat="40.134250802647635" lon="17.993057028348154"><ele>7.333333333333333</ele><time>2026-04-12T14:17:41.001Z</time></trkpt><trkpt lat="40.13420940326799" lon="17.993136581066825"><ele>8.166666666666666</ele><time>2026-04-12T14:17:42.001Z</time></trkpt><trkpt lat="40.134155512103824" lon="17.99320657604962"><ele>9.0</ele><time>2026-04-12T14:17:43.001Z</time></trkpt><trkpt lat="40.134082409596694" lon="17.993274708124165"><ele>9.2</ele><time>2026-04-12T14:17:44.001Z</time></trkpt><trkpt lat="40.133998309805484" lon="17.993335425147926"><ele>9.4</ele><time>2026-04-12T14:17:45.001Z</time></trkpt><trkpt lat="40.1339127825979" lon="17.99339222033767"><ele>9.6</ele><time>2026-04-12T14:17:46.001Z</time></trkpt><trkpt lat="40.13383184695449" lon="17.99344171911847"><ele>9.8</ele><time>2026-04-12T14:17:47.001Z</time></trkpt><trkpt lat="40.13374884495184" lon="17.99349122686626"><ele>10.0</ele><time>2026-04-12T14:17:48.001Z</time></trkpt><trkpt lat="40.13367537908501" lon="17.993559644632086"><ele>10.0</ele><time>2026-04-12T14:17:49.001Z</time></trkpt><trkpt lat="40.13358756768559" lon="17.993660190683922"><ele>10.0</ele><time>2026-04-12T14:17:50.001Z</time></trkpt><trkpt lat="40.133482998705226" lon="17.993781262612565"><ele>10.0</ele><time>2026-04-12T14:17:51.001Z</time></trkpt><trkpt lat="40.133357761390556" lon="17.99392759332421"><ele>10.0</ele><time>2026-04-12T14:17:52.001Z</time></trkpt><trkpt lat="40.13322240394943" lon="17.994074925864137"><ele>9.75</ele><time>2026-04-12T14:17:53.001Z</time></trkpt><trkpt lat="40.13309671734622" lon="17.99420775883301"><ele>9.5</ele><time>2026-04-12T14:17:54.001Z</time></trkpt><trkpt lat="40.133005810734375" lon="17.994321612409756"><ele>9.25</ele><time>2026-04-12T14:17:55.001Z</time></trkpt><trkpt lat="40.13293297046776" lon="17.994409946774653"><ele>9.0</ele><time>2026-04-12T14:17:56.001Z</time></trkpt><trkpt lat="40.13287751712651" lon="17.99447874285687"><ele>9.0</ele><time>2026-04-12T14:17:57.001Z</time></trkpt><trkpt lat="40.13282313763955" lon="17.994532977635057"><ele>9.0</ele><time>2026-04-12T14:17:58.001Z</time></trkpt><trkpt lat="40.13277369680053" lon="17.99459857495253"><ele>9.0</ele><time>2026-04-12T14:17:59.001Z</time></trkpt><trkpt lat="40.132728165547434" lon="17.994659226861035"><ele>9.0</ele><time>2026-04-12T14:18:00.001Z</time></trkpt><trkpt lat="40.13265981838448" lon="17.994781764675718"><ele>9.0</ele><time>2026-04-12T14:18:02.001Z</time></trkpt><trkpt lat="40.13257713616988" lon="17.994897547988955"><ele>9.0</ele><time>2026-04-12T14:18:04.001Z</time></trkpt><trkpt lat="40.13253032337196" lon="17.994981190641063"><ele>9.833333333333334</ele><time>2026-04-12T14:18:05.001Z</time></trkpt><trkpt lat="40.13249244810594" lon="17.995064358714945"><ele>10.666666666666668</ele><time>2026-04-12T14:18:06.001Z</time></trkpt><trkpt lat="40.132419913937866" lon="17.995166753660268"><ele>11.5</ele><time>2026-04-12T14:18:08.001Z</time></trkpt><trkpt lat="40.13236882506717" lon="17.995255407870378"><ele>12.333333333333334</ele><time>2026-04-12T14:18:10.001Z</time></trkpt><trkpt lat="40.13232513309083" lon="17.9953409898435"><ele>13.166666666666668</ele><time>2026-04-12T14:18:12.001Z</time></trkpt><trkpt lat="40.13228215044203" lon="17.995434245600247"><ele>14.0</ele><time>2026-04-12T14:18:14.001Z</time></trkpt><trkpt lat="40.132242334041685" lon="17.995509444255475"><ele>12.6</ele><time>2026-04-12T14:18:16.001Z</time></trkpt><trkpt lat="40.13220080434111" lon="17.99559581441078"><ele>11.2</ele><time>2026-04-12T14:18:18.001Z</time></trkpt><trkpt lat="40.13213864517629" lon="17.995763974155707"><ele>9.799999999999999</ele><time>2026-04-12T14:18:20.001Z</time></trkpt><trkpt lat="40.13209056653307" lon="17.99586684997215"><ele>8.399999999999999</ele><time>2026-04-12T14:18:21.001Z</time></trkpt><trkpt lat="40.1320513829521" lon="17.99596854589326"><ele>7.0</ele><time>2026-04-12T14:18:22.001Z</time></trkpt><trkpt lat="40.13201119959987" lon="17.9960955276465"><ele>7.0</ele><time>2026-04-12T14:18:23.001Z</time></trkpt><trkpt lat="40.131948526578846" lon="17.99625985899084"><ele>7.0</ele><time>2026-04-12T14:18:24.001Z</time></trkpt><trkpt lat="40.13190168914537" lon="17.996420196523133"><ele>7.0</ele><time>2026-04-12T14:18:25.001Z</time></trkpt><trkpt lat="40.131877234585446" lon="17.996571557819408"><ele>7.0</ele><time>2026-04-12T14:18:26.001Z</time></trkpt><trkpt lat="40.13185124720245" lon="17.996693942155158"><ele>7.500000000000001</ele><time>2026-04-12T14:18:27.001Z</time></trkpt><trkpt lat="40.13182889759235" lon="17.996805994282496"><ele>8.0</ele><time>2026-04-12T14:18:28.001Z</time></trkpt><trkpt lat="40.13179154053385" lon="17.996892654497483"><ele>8.5</ele><time>2026-04-12T14:18:29.001Z</time></trkpt><trkpt lat="40.13174887516525" lon="17.996960981043053"><ele>9.0</ele><time>2026-04-12T14:18:30.001Z</time></trkpt><trkpt lat="40.13169279423065" lon="17.997009633551162"><ele>9.5</ele><time>2026-04-12T14:18:31.001Z</time></trkpt><trkpt lat="40.131629937605744" lon="17.997045488569544"><ele>10.0</ele><time>2026-04-12T14:18:32.001Z</time></trkpt><trkpt lat="40.13150730970663" lon="17.997048355009003"><ele>10.0</ele><time>2026-04-12T14:18:34.001Z</time></trkpt><trkpt lat="40.131431317675776" lon="17.997005581106052"><ele>10.0</ele><time>2026-04-12T14:18:35.001Z</time></trkpt><trkpt lat="40.13135521568586" lon="17.99694925372361"><ele>10.0</ele><time>2026-04-12T14:18:36.001Z</time></trkpt><trkpt lat="40.13128060211522" lon="17.99689583865056"><ele>10.0</ele><time>2026-04-12T14:18:37.001Z</time></trkpt><trkpt lat="40.13121503668756" lon="17.996840705495796"><ele>10.0</ele><time>2026-04-12T14:18:38.001Z</time></trkpt><trkpt lat="40.1311387123445" lon="17.996789671371594"><ele>10.0</ele><time>2026-04-12T14:18:39.001Z</time></trkpt><trkpt lat="40.13106351574441" lon="17.996739603307546"><ele>10.0</ele><time>2026-04-12T14:18:40.001Z</time></trkpt><trkpt lat="40.130991986975204" lon="17.996691307778196"><ele>10.0</ele><time>2026-04-12T14:18:41.001Z</time></trkpt><trkpt lat="40.130925004700636" lon="17.996641805303195"><ele>10.0</ele><time>2026-04-12T14:18:42.001Z</time></trkpt><trkpt lat="40.1308636858333" lon="17.996595534928"><ele>10.0</ele><time>2026-04-12T14:18:43.001Z</time></trkpt><trkpt lat="40.130801692535364" lon="17.99654672945225"><ele>10.0</ele><time>2026-04-12T14:18:44.001Z</time></trkpt><trkpt lat="40.130738823897815" lon="17.99649457350192"><ele>10.0</ele><time>2026-04-12T14:18:45.001Z</time></trkpt><trkpt lat="40.13067177315726" lon="17.99644125233505"><ele>10.0</ele><time>2026-04-12T14:18:46.001Z</time></trkpt><trkpt lat="40.13060356961122" lon="17.99637883453053"><ele>10.0</ele><time>2026-04-12T14:18:47.001Z</time></trkpt><trkpt lat="40.13054328102117" lon="17.996324051409115"><ele>10.0</ele><time>2026-04-12T14:18:48.001Z</time></trkpt><trkpt lat="40.13048761118715" lon="17.996272727559926"><ele>10.0</ele><time>2026-04-12T14:18:49.001Z</time></trkpt><trkpt lat="40.130393081588956" lon="17.996187504447924"><ele>10.0</ele><time>2026-04-12T14:18:51.001Z</time></trkpt><trkpt lat="40.1303303112114" lon="17.99611798006438"><ele>10.0</ele><time>2026-04-12T14:18:53.001Z</time></trkpt><trkpt lat="40.13030117130152" lon="17.996043231165682"><ele>10.0</ele><time>2026-04-12T14:18:55.001Z</time></trkpt><trkpt lat="40.13033012703018" lon="17.995954646802325"><ele>10.0</ele><time>2026-04-12T14:18:57.001Z</time></trkpt><trkpt lat="40.13037471874234" lon="17.99586479951308"><ele>10.0</ele><time>2026-04-12T14:18:59.001Z</time></trkpt><trkpt lat="40.1304237505169" lon="17.99577874192807"><ele>10.0</ele><time>2026-04-12T14:19:01.001Z</time></trkpt><trkpt lat="40.13047465837036" lon="17.99568290627166"><ele>10.0</ele><time>2026-04-12T14:19:03.001Z</time></trkpt><trkpt lat="40.13052094177223" lon="17.995591704513892"><ele>10.0</ele><time>2026-04-12T14:19:05.001Z</time></trkpt><trkpt lat="40.130562840621835" lon="17.995512941895427"><ele>10.0</ele><time>2026-04-12T14:19:07.001Z</time></trkpt><trkpt lat="40.130598942102736" lon="17.995424508804916"><ele>10.0</ele><time>2026-04-12T14:19:09.001Z</time></trkpt><trkpt lat="40.13064699399117" lon="17.995318550198995"><ele>10.0</ele><time>2026-04-12T14:19:11.001Z</time></trkpt><trkpt lat="40.13069252633937" lon="17.995222423852955"><ele>10.0</ele><time>2026-04-12T14:19:13.001Z</time></trkpt><trkpt lat="40.130748515827364" lon="17.99512580771276"><ele>10.0</ele><time>2026-04-12T14:19:15.001Z</time></trkpt><trkpt lat="40.13080493676322" lon="17.995021553421"><ele>10.0</ele><time>2026-04-12T14:19:17.001Z</time></trkpt><trkpt lat="40.13084233580952" lon="17.99493174323275"><ele>9.8</ele><time>2026-04-12T14:19:19.001Z</time></trkpt><trkpt lat="40.130811627907576" lon="17.994846883797987"><ele>9.6</ele><time>2026-04-12T14:19:21.001Z</time></trkpt><trkpt lat="40.130729249011736" lon="17.994768550089177"><ele>9.4</ele><time>2026-04-12T14:19:23.001Z</time></trkpt><trkpt lat="40.13066059798313" lon="17.994699088230142"><ele>9.2</ele><time>2026-04-12T14:19:25.001Z</time></trkpt><trkpt lat="40.13057365055752" lon="17.99462042538234"><ele>9.0</ele><time>2026-04-12T14:19:27.001Z</time></trkpt><trkpt lat="40.13049303129401" lon="17.994533826308423"><ele>9.0</ele><time>2026-04-12T14:19:29.001Z</time></trkpt><trkpt lat="40.13041710977783" lon="17.994459688268932"><ele>9.0</ele><time>2026-04-12T14:19:31.001Z</time></trkpt><trkpt lat="40.130339839624995" lon="17.99438461521388"><ele>9.0</ele><time>2026-04-12T14:19:33.001Z</time></trkpt><trkpt lat="40.13026643287135" lon="17.994320080630533"><ele>9.0</ele><time>2026-04-12T14:19:35.001Z</time></trkpt><trkpt lat="40.13020366248098" lon="17.994280660033677"><ele>9.0</ele><time>2026-04-12T14:19:37.001Z</time></trkpt><trkpt lat="40.1301419982327" lon="17.994252348431335"><ele>9.0</ele><time>2026-04-12T14:19:40Z</time></trkpt><trkpt lat="40.13007328276163" lon="17.99420584102489"><ele>7.8</ele><time>2026-04-12T14:19:42Z</time></trkpt><trkpt lat="40.12996933582485" lon="17.99413710081834"><ele>6.6000000000000005</ele><time>2026-04-12T14:19:44Z</time></trkpt><trkpt lat="40.12988514585838" lon="17.99408324340834"><ele>5.4</ele><time>2026-04-12T14:19:46Z</time></trkpt><trkpt lat="40.12977073817708" lon="17.99403640527781"><ele>4.2</ele><time>2026-04-12T14:19:48Z</time></trkpt><trkpt lat="40.129713125083306" lon="17.993999595413896"><ele>3.0</ele><time>2026-04-12T14:19:49Z</time></trkpt><trkpt lat="40.12961898718236" lon="17.993936600446872"><ele>3.0</ele><time>2026-04-12T14:19:51Z</time></trkpt><trkpt lat="40.129521263071524" lon="17.993877145085776"><ele>3.0</ele><time>2026-04-12T14:19:53Z</time></trkpt><trkpt lat="40.12943435439869" lon="17.993842877826904"><ele>3.0</ele><time>2026-04-12T14:19:55Z</time></trkpt><trkpt lat="40.12935522055997" lon="17.993847020999606"><ele>3.0</ele><time>2026-04-12T14:19:57Z</time></trkpt><trkpt lat="40.129307397171395" lon="17.99391880533466"><ele>3.0</ele><time>2026-04-12T14:19:59Z</time></trkpt><trkpt lat="40.129281967659075" lon="17.99402862889364"><ele>3.0</ele><time>2026-04-12T14:20:01Z</time></trkpt><trkpt lat="40.129240495608244" lon="17.99413699615491"><ele>3.0</ele><time>2026-04-12T14:20:03Z</time></trkpt><trkpt lat="40.129197757473904" lon="17.99424122143736"><ele>3.0</ele><time>2026-04-12T14:20:05Z</time></trkpt><trkpt lat="40.12915855848897" lon="17.99434883946816"><ele>3.0</ele><time>2026-04-12T14:20:07Z</time></trkpt><trkpt lat="40.12912052343456" lon="17.99445932909798"><ele>3.0</ele><time>2026-04-12T14:20:09Z</time></trkpt><trkpt lat="40.12907512118258" lon="17.994578448854043"><ele>3.0</ele><time>2026-04-12T14:20:11Z</time></trkpt><trkpt lat="40.12904963825621" lon="17.994669188156493"><ele>3.0</ele><time>2026-04-12T14:20:12Z</time></trkpt><trkpt lat="40.12901813457803" lon="17.994811730794357"><ele>3.0</ele><time>2026-04-12T14:20:13Z</time></trkpt><trkpt lat="40.12896076387423" lon="17.99497268152598"><ele>3.0</ele><time>2026-04-12T14:20:14Z</time></trkpt><trkpt lat="40.12888985338806" lon="17.99512046948207"><ele>3.0</ele><time>2026-04-12T14:20:15Z</time></trkpt><trkpt lat="40.12881873961782" lon="17.99524207710299"><ele>3.833333333333333</ele><time>2026-04-12T14:20:16Z</time></trkpt><trkpt lat="40.12876044749319" lon="17.995359811099267"><ele>4.666666666666666</ele><time>2026-04-12T14:20:17Z</time></trkpt><trkpt lat="40.128722777507946" lon="17.99545950052647"><ele>5.5</ele><time>2026-04-12T14:20:18Z</time></trkpt><trkpt lat="40.12868288426904" lon="17.995542821702102"><ele>6.333333333333333</ele><time>2026-04-12T14:20:19Z</time></trkpt><trkpt lat="40.12865024332611" lon="17.99562273107544"><ele>7.166666666666666</ele><time>2026-04-12T14:20:20Z</time></trkpt><trkpt lat="40.12861292995095" lon="17.995699367047983"><ele>8.0</ele><time>2026-04-12T14:20:21Z</time></trkpt><trkpt lat="40.12856794551508" lon="17.995775041507"><ele>8.142857142857142</ele><time>2026-04-12T14:20:22Z</time></trkpt><trkpt lat="40.12851950186949" lon="17.995844343218824"><ele>8.285714285714285</ele><time>2026-04-12T14:20:23Z</time></trkpt><trkpt lat="40.12847569621597" lon="17.995906751515566"><ele>8.428571428571429</ele><time>2026-04-12T14:20:24Z</time></trkpt><trkpt lat="40.12842065123721" lon="17.995963652490097"><ele>8.571428571428571</ele><time>2026-04-12T14:20:25Z</time></trkpt><trkpt lat="40.12835920808877" lon="17.996021026474164"><ele>8.714285714285715</ele><time>2026-04-12T14:20:26Z</time></trkpt><trkpt lat="40.128294082010164" lon="17.996070557364813"><ele>8.857142857142858</ele><time>2026-04-12T14:20:27Z</time></trkpt><trkpt lat="40.12822540280816" lon="17.99611866070708"><ele>9.0</ele><time>2026-04-12T14:20:28Z</time></trkpt><trkpt lat="40.12815251067351" lon="17.996165785842933"><ele>9.0</ele><time>2026-04-12T14:20:29Z</time></trkpt><trkpt lat="40.12807380736717" lon="17.996210416393556"><ele>9.0</ele><time>2026-04-12T14:20:30Z</time></trkpt><trkpt lat="40.12799032489945" lon="17.99625539030472"><ele>9.0</ele><time>2026-04-12T14:20:31Z</time></trkpt><trkpt lat="40.127888856464786" lon="17.99630539896168"><ele>9.0</ele><time>2026-04-12T14:20:32Z</time></trkpt><trkpt lat="40.12775769479989" lon="17.996369611235394"><ele>9.0</ele><time>2026-04-12T14:20:33Z</time></trkpt><trkpt lat="40.1276049275395" lon="17.996443392819554"><ele>9.0</ele><time>2026-04-12T14:20:34Z</time></trkpt><trkpt lat="40.12745690897689" lon="17.996493281119676"><ele>9.0</ele><time>2026-04-12T14:20:35Z</time></trkpt><trkpt lat="40.12731737897865" lon="17.99652496043022"><ele>9.0</ele><time>2026-04-12T14:20:36Z</time></trkpt><trkpt lat="40.12721523898312" lon="17.996566834745416"><ele>9.0</ele><time>2026-04-12T14:20:37Z</time></trkpt><trkpt lat="40.127126503918554" lon="17.9966110030004"><ele>9.0</ele><time>2026-04-12T14:20:38Z</time></trkpt><trkpt lat="40.127044534410146" lon="17.996640746361717"><ele>9.0</ele><time>2026-04-12T14:20:39Z</time></trkpt><trkpt lat="40.126968388482894" lon="17.996663434480187"><ele>9.0</ele><time>2026-04-12T14:20:40Z</time></trkpt><trkpt lat="40.12689052614266" lon="17.996683229209605"><ele>9.0</ele><time>2026-04-12T14:20:41Z</time></trkpt><trkpt lat="40.12681257876752" lon="17.99671412981454"><ele>9.0</ele><time>2026-04-12T14:20:42Z</time></trkpt><trkpt lat="40.126742236823716" lon="17.996751273071073"><ele>9.0</ele><time>2026-04-12T14:20:43Z</time></trkpt><trkpt lat="40.12667259555244" lon="17.996778809680503"><ele>9.0</ele><time>2026-04-12T14:20:44Z</time></trkpt><trkpt lat="40.126605459463384" lon="17.99680544656308"><ele>9.0</ele><time>2026-04-12T14:20:45Z</time></trkpt><trkpt lat="40.126536283019504" lon="17.99683482604503"><ele>9.0</ele><time>2026-04-12T14:20:46Z</time></trkpt><trkpt lat="40.126446598461406" lon="17.99688165089637"><ele>9.0</ele><time>2026-04-12T14:20:48Z</time></trkpt><trkpt lat="40.12636447364503" lon="17.996898126246517"><ele>9.0</ele><time>2026-04-12T14:20:51Z</time></trkpt><trkpt lat="40.12629777972564" lon="17.996925471952558"><ele>9.0</ele><time>2026-04-12T14:20:54Z</time></trkpt><trkpt lat="40.126227339932356" lon="17.99696274303714"><ele>8.333333333333334</ele><time>2026-04-12T14:20:57Z</time></trkpt><trkpt lat="40.12615044832281" lon="17.99699547554179"><ele>7.666666666666667</ele><time>2026-04-12T14:21:00Z</time></trkpt><trkpt lat="40.12608393351157" lon="17.997035154953405"><ele>7.0</ele><time>2026-04-12T14:21:03Z</time></trkpt><trkpt lat="40.125968543905906" lon="17.99708414431832"><ele>6.333333333333334</ele><time>2026-04-12T14:21:07Z</time></trkpt><trkpt lat="40.1258931091415" lon="17.99712442555318"><ele>5.666666666666667</ele><time>2026-04-12T14:21:08Z</time></trkpt><trkpt lat="40.125810763930836" lon="17.997168333821282"><ele>5.0</ele><time>2026-04-12T14:21:09Z</time></trkpt><trkpt lat="40.12573419061648" lon="17.997205032904827"><ele>4.833333333333334</ele><time>2026-04-12T14:21:10Z</time></trkpt><trkpt lat="40.12566921909849" lon="17.99724551949144"><ele>4.666666666666667</ele><time>2026-04-12T14:21:11Z</time></trkpt><trkpt lat="40.125612842717274" lon="17.99728873811493"><ele>4.5</ele><time>2026-04-12T14:21:12Z</time></trkpt><trkpt lat="40.12550872230403" lon="17.99737418520281"><ele>4.333333333333333</ele><time>2026-04-12T14:21:14Z</time></trkpt><trkpt lat="40.125446691199876" lon="17.99743461924811"><ele>4.166666666666666</ele><time>2026-04-12T14:21:15Z</time></trkpt><trkpt lat="40.125373349511044" lon="17.997536837609942"><ele>4.0</ele><time>2026-04-12T14:21:16Z</time></trkpt><trkpt lat="40.125292216777936" lon="17.997646974629145"><ele>4.0</ele><time>2026-04-12T14:21:17Z</time></trkpt><trkpt lat="40.125225132508774" lon="17.997747479211373"><ele>4.0</ele><time>2026-04-12T14:21:18Z</time></trkpt><trkpt lat="40.125159397594366" lon="17.997826326995884"><ele>4.0</ele><time>2026-04-12T14:21:19Z</time></trkpt><trkpt lat="40.125110333779816" lon="17.997889958069536"><ele>4.0</ele><time>2026-04-12T14:21:20Z</time></trkpt><trkpt lat="40.1250273680219" lon="17.997989636871086"><ele>4.0</ele><time>2026-04-12T14:21:22Z</time></trkpt><trkpt lat="40.12498094848078" lon="17.99807833479265"><ele>4.0</ele><time>2026-04-12T14:21:24Z</time></trkpt><trkpt lat="40.12493545883386" lon="17.998169031881908"><ele>4.0</ele><time>2026-04-12T14:21:26Z</time></trkpt><trkpt lat="40.12486153570632" lon="17.998284838038664"><ele>4.0</ele><time>2026-04-12T14:21:28Z</time></trkpt><trkpt lat="40.12475922128375" lon="17.99838780786876"><ele>4.0</ele><time>2026-04-12T14:21:30Z</time></trkpt><trkpt lat="40.12469076539901" lon="17.998432746290376"><ele>4.0</ele><time>2026-04-12T14:21:31Z</time></trkpt><trkpt lat="40.124620807693454" lon="17.998463447229458"><ele>4.166666666666666</ele><time>2026-04-12T14:21:32Z</time></trkpt><trkpt lat="40.12454897535441" lon="17.998485727137933"><ele>4.333333333333333</ele><time>2026-04-12T14:21:33Z</time></trkpt><trkpt lat="40.12447636787512" lon="17.99851210504671"><ele>4.5</ele><time>2026-04-12T14:21:34Z</time></trkpt><trkpt lat="40.12440656310854" lon="17.998538578423062"><ele>4.666666666666667</ele><time>2026-04-12T14:21:35Z</time></trkpt><trkpt lat="40.12433040347137" lon="17.998569478594508"><ele>4.833333333333334</ele><time>2026-04-12T14:21:36Z</time></trkpt><trkpt lat="40.12424203002124" lon="17.998609572624325"><ele>5.0</ele><time>2026-04-12T14:21:36.999Z</time></trkpt><trkpt lat="40.124122993842676" lon="17.99865556499621"><ele>4.666666666666667</ele><time>2026-04-12T14:21:37.999Z</time></trkpt><trkpt lat="40.123965462716555" lon="17.998689673735456"><ele>4.333333333333333</ele><time>2026-04-12T14:21:39Z</time></trkpt><trkpt lat="40.12378828775952" lon="17.9987241163135"><ele>4.0</ele><time>2026-04-12T14:21:40Z</time></trkpt><trkpt lat="40.12358526105685" lon="17.998755739771962"><ele>4.0</ele><time>2026-04-12T14:21:41Z</time></trkpt><trkpt lat="40.12335743650072" lon="17.998804484925284"><ele>4.0</ele><time>2026-04-12T14:21:41.999Z</time></trkpt><trkpt lat="40.12316939267415" lon="17.998811350721766"><ele>4.0</ele><time>2026-04-12T14:21:43Z</time></trkpt><trkpt lat="40.12301623781441" lon="17.998805705732813"><ele>4.0</ele><time>2026-04-12T14:21:44Z</time></trkpt><trkpt lat="40.12287185090041" lon="17.998782051447762"><ele>4.0</ele><time>2026-04-12T14:21:44.999Z</time></trkpt><trkpt lat="40.12276019786273" lon="17.998777439679955"><ele>4.0</ele><time>2026-04-12T14:21:46Z</time></trkpt><trkpt lat="40.12264760692384" lon="17.9987618060864"><ele>4.0</ele><time>2026-04-12T14:21:47Z</time></trkpt><trkpt lat="40.122551038528364" lon="17.998711047385335"><ele>4.0</ele><time>2026-04-12T14:21:48Z</time></trkpt><trkpt lat="40.12245079752663" lon="17.99863526028659"><ele>4.0</ele><time>2026-04-12T14:21:49Z</time></trkpt><trkpt lat="40.12237394474171" lon="17.9985469393577"><ele>4.0</ele><time>2026-04-12T14:21:50Z</time></trkpt><trkpt lat="40.12229541962847" lon="17.99845079295517"><ele>4.0</ele><time>2026-04-12T14:21:51Z</time></trkpt><trkpt lat="40.12223273103352" lon="17.998342416748024"><ele>4.0</ele><time>2026-04-12T14:21:52Z</time></trkpt><trkpt lat="40.122166215508884" lon="17.998219929574283"><ele>4.5</ele><time>2026-04-12T14:21:53Z</time></trkpt><trkpt lat="40.122115742205956" lon="17.997999166000238"><ele>5.0</ele><time>2026-04-12T14:21:54Z</time></trkpt><trkpt lat="40.12155871596806" lon="17.999494292625066"><ele>5.0</ele><time>2026-04-12T14:21:55Z</time></trkpt><trkpt lat="40.121486872026495" lon="17.999532249788228"><ele>5.0</ele><time>2026-04-12T14:21:57Z</time></trkpt><trkpt lat="40.12141933757398" lon="17.99955120180777"><ele>5.0</ele><time>2026-04-12T14:22:22Z</time></trkpt><trkpt lat="40.12134383643325" lon="17.99957711647672"><ele>5.0</ele><time>2026-04-12T14:22:28Z</time></trkpt><trkpt lat="40.12127258912665" lon="17.999592149349482"><ele>5.0</ele><time>2026-04-12T14:22:34Z</time></trkpt><trkpt lat="40.12121245931425" lon="17.999530449487633"><ele>5.0</ele><time>2026-04-12T14:22:39Z</time></trkpt><trkpt lat="40.1211510654304" lon="17.999467816845073"><ele>5.0</ele><time>2026-04-12T14:25:13.999Z</time></trkpt><trkpt lat="40.12105921538853" lon="17.999460181660282"><ele>5.0</ele><time>2026-04-12T14:25:17.999Z</time></trkpt><trkpt lat="40.120970848184264" lon="17.99948027859213"><ele>5.0</ele><time>2026-04-12T14:25:19.999Z</time></trkpt><trkpt lat="40.12086471431412" lon="17.99954860105449"><ele>5.0</ele><time>2026-04-12T14:25:21.999Z</time></trkpt><trkpt lat="40.12079703246811" lon="17.999596916482897"><ele>5.0</ele><time>2026-04-12T14:25:22.999Z</time></trkpt><trkpt lat="40.12069535876982" lon="17.999642902300586"><ele>4.4</ele><time>2026-04-12T14:25:24.999Z</time></trkpt><trkpt lat="40.12058670389749" lon="17.999702347412388"><ele>3.8</ele><time>2026-04-12T14:25:26.999Z</time></trkpt><trkpt lat="40.12049183926051" lon="17.999792350541906"><ele>3.2</ele><time>2026-04-12T14:25:28.999Z</time></trkpt><trkpt lat="40.120415978107395" lon="17.999881446658343"><ele>2.6</ele><time>2026-04-12T14:25:30.999Z</time></trkpt><trkpt lat="40.12034614398408" lon="17.999943627601528"><ele>2.0</ele><time>2026-04-12T14:25:32.999Z</time></trkpt><trkpt lat="40.120291556331345" lon="17.99999388700563"><ele>1.9999999999999998</ele><time>2026-04-12T14:25:34.999Z</time></trkpt><trkpt lat="40.120224182725096" lon="18.000041806183543"><ele>2.0</ele><time>2026-04-12T14:25:36.999Z</time></trkpt><trkpt lat="40.12014214597359" lon="18.000157628057394"><ele>2.0</ele><time>2026-04-12T14:25:38.999Z</time></trkpt><trkpt lat="40.12007132179573" lon="18.00024901456551"><ele>2.0</ele><time>2026-04-12T14:25:40.999Z</time></trkpt><trkpt lat="40.120018908647225" lon="18.000300692015106"><ele>1.9999999999999998</ele><time>2026-04-12T14:25:42.999Z</time></trkpt><trkpt lat="40.11995712176761" lon="18.000360302600342"><ele>2.0</ele><time>2026-04-12T14:25:44.999Z</time></trkpt><trkpt lat="40.119913170672646" lon="18.000439598365645"><ele>1.9999999999999998</ele><time>2026-04-12T14:25:47.998Z</time></trkpt><trkpt lat="40.11998606375695" lon="18.000446076276617"><ele>2.0</ele><time>2026-04-12T14:25:52.999Z</time></trkpt><trkpt lat="40.12002859128775" lon="18.00036457623311"><ele>2.0</ele><time>2026-04-12T14:25:54.999Z</time></trkpt><trkpt lat="40.12004629625104" lon="18.000283740617192"><ele>2.0</ele><time>2026-04-12T14:25:56.998Z</time></trkpt><trkpt lat="40.1201155690725" lon="18.00018135601029"><ele>1.9999999999999998</ele><time>2026-04-12T14:25:58.998Z</time></trkpt><trkpt lat="40.12020328935448" lon="18.00006569389129"><ele>2.0</ele><time>2026-04-12T14:26:00.998Z</time></trkpt><trkpt lat="40.12025528512962" lon="17.999999243813242"><ele>1.9999999999999998</ele><time>2026-04-12T14:26:01.998Z</time></trkpt><trkpt lat="40.12030231640226" lon="17.999944517541156"><ele>2.0</ele><time>2026-04-12T14:26:02.998Z</time></trkpt><trkpt lat="40.120362549003076" lon="17.999874294667997"><ele>2.0</ele><time>2026-04-12T14:26:03.998Z</time></trkpt><trkpt lat="40.1204222287464" lon="17.999826772666257"><ele>2.0</ele><time>2026-04-12T14:26:04.998Z</time></trkpt><trkpt lat="40.120499325421044" lon="17.99977480794565"><ele>1.9999999999999998</ele><time>2026-04-12T14:26:05.998Z</time></trkpt><trkpt lat="40.12060083128613" lon="17.999698145173188"><ele>2.0</ele><time>2026-04-12T14:26:06.998Z</time></trkpt><trkpt lat="40.1207098629215" lon="17.99963246136729"><ele>2.5</ele><time>2026-04-12T14:26:07.998Z</time></trkpt><trkpt lat="40.120786175765005" lon="17.99957656263172"><ele>3.0</ele><time>2026-04-12T14:26:08.998Z</time></trkpt><trkpt lat="40.12085192891499" lon="17.999531424044417"><ele>3.5</ele><time>2026-04-12T14:26:09.998Z</time></trkpt><trkpt lat="40.12093751617566" lon="17.99947792754118"><ele>4.0</ele><time>2026-04-12T14:26:11.998Z</time></trkpt><trkpt lat="40.12102013159421" lon="17.9994459160417"><ele>4.5</ele><time>2026-04-12T14:26:14.998Z</time></trkpt><trkpt lat="40.12111305036474" lon="17.99947296358291"><ele>5.0</ele><time>2026-04-12T14:26:17.998Z</time></trkpt><trkpt lat="40.12119326751933" lon="17.999494689221383"><ele>5.0</ele><time>2026-04-12T14:26:19.998Z</time></trkpt><trkpt lat="40.12123678058288" lon="17.999560680898938"><ele>5.0</ele><time>2026-04-12T14:26:23.998Z</time></trkpt><trkpt lat="40.12116369939115" lon="17.999661164708577"><ele>5.0</ele><time>2026-04-12T14:26:27.998Z</time></trkpt><trkpt lat="40.121094603118834" lon="17.999683038346202"><ele>5.0</ele><time>2026-04-12T14:26:28.998Z</time></trkpt><trkpt lat="40.12101694531263" lon="17.9997183861048"><ele>5.0</ele><time>2026-04-12T14:26:29.998Z</time></trkpt><trkpt lat="40.12091271703828" lon="17.999768179993104"><ele>5.0</ele><time>2026-04-12T14:26:30.998Z</time></trkpt><trkpt lat="40.12077395261057" lon="17.99983706991862"><ele>4.0</ele><time>2026-04-12T14:26:31.998Z</time></trkpt><trkpt lat="40.12059932012053" lon="17.999935535677224"><ele>3.0</ele><time>2026-04-12T14:26:32.998Z</time></trkpt><trkpt lat="40.12042034861355" lon="18.000070754040024"><ele>2.0</ele><time>2026-04-12T14:26:33.998Z</time></trkpt><trkpt lat="40.12023286982435" lon="18.000257561516463"><ele>2.0</ele><time>2026-04-12T14:26:34.998Z</time></trkpt><trkpt lat="40.12004414708287" lon="18.00047520962101"><ele>2.0</ele><time>2026-04-12T14:26:35.998Z</time></trkpt><trkpt lat="40.11984943230037" lon="18.000722701146866"><ele>1.5</ele><time>2026-04-12T14:26:36.998Z</time></trkpt><trkpt lat="40.11963755397022" lon="18.000985252961126"><ele>1.0</ele><time>2026-04-12T14:26:37.998Z</time></trkpt><trkpt lat="40.11941744259426" lon="18.001249350353373"><ele>1.0</ele><time>2026-04-12T14:26:38.998Z</time></trkpt><trkpt lat="40.119229002705694" lon="18.001470237486842"><ele>1.0</ele><time>2026-04-12T14:26:39.998Z</time></trkpt><trkpt lat="40.11907356273385" lon="18.001646383141065"><ele>1.3333333333333333</ele><time>2026-04-12T14:26:40.998Z</time></trkpt><trkpt lat="40.11893403744321" lon="18.001803255139905"><ele>1.6666666666666665</ele><time>2026-04-12T14:26:41.998Z</time></trkpt><trkpt lat="40.11880231790346" lon="18.001945245831642"><ele>2.0</ele><time>2026-04-12T14:26:42.998Z</time></trkpt><trkpt lat="40.1186573714773" lon="18.00208367504114"><ele>2.0</ele><time>2026-04-12T14:26:43.998Z</time></trkpt><trkpt lat="40.11848881020307" lon="18.00221205860471"><ele>2.0</ele><time>2026-04-12T14:26:44.998Z</time></trkpt><trkpt lat="40.11831476817011" lon="18.002326508111747"><ele>2.0</ele><time>2026-04-12T14:26:45.998Z</time></trkpt><trkpt lat="40.11813527032108" lon="18.002416240910144"><ele>2.6666666666666665</ele><time>2026-04-12T14:26:46.998Z</time></trkpt><trkpt lat="40.11796497333423" lon="18.002490029249195"><ele>3.333333333333333</ele><time>2026-04-12T14:26:47.998Z</time></trkpt><trkpt lat="40.117810001124354" lon="18.002559667555946"><ele>4.0</ele><time>2026-04-12T14:26:48.998Z</time></trkpt><trkpt lat="40.117652260246054" lon="18.002619630769768"><ele>4.0</ele><time>2026-04-12T14:26:49.998Z</time></trkpt><trkpt lat="40.117495734312094" lon="18.00268083605703"><ele>4.0</ele><time>2026-04-12T14:26:50.998Z</time></trkpt><trkpt lat="40.11734521934727" lon="18.002796419375596"><ele>4.0</ele><time>2026-04-12T14:26:51.998Z</time></trkpt><trkpt lat="40.1171844103053" lon="18.002869796711035"><ele>3.333333333333333</ele><time>2026-04-12T14:26:52.998Z</time></trkpt><trkpt lat="40.11701730741577" lon="18.002942089095217"><ele>2.6666666666666665</ele><time>2026-04-12T14:26:53.998Z</time></trkpt><trkpt lat="40.116841312553966" lon="18.003018985421566"><ele>2.0</ele><time>2026-04-12T14:26:54.998Z</time></trkpt><trkpt lat="40.11667046604351" lon="18.003095638590196"><ele>2.0</ele><time>2026-04-12T14:26:55.998Z</time></trkpt><trkpt lat="40.11648228445537" lon="18.003166067066463"><ele>2.0</ele><time>2026-04-12T14:26:56.998Z</time></trkpt><trkpt lat="40.11628998578232" lon="18.003228589358724"><ele>2.0</ele><time>2026-04-12T14:26:57.998Z</time></trkpt><trkpt lat="40.11613223430197" lon="18.003269125719722"><ele>2.0</ele><time>2026-04-12T14:26:58.998Z</time></trkpt><trkpt lat="40.11599732630149" lon="18.00330269554524"><ele>2.0</ele><time>2026-04-12T14:26:59.998Z</time></trkpt><trkpt lat="40.11587902695283" lon="18.003326581441414"><ele>2.0</ele><time>2026-04-12T14:27:00.998Z</time></trkpt><trkpt lat="40.11575880015165" lon="18.003349034631075"><ele>2.0</ele><time>2026-04-12T14:27:01.998Z</time></trkpt><trkpt lat="40.11563836498034" lon="18.003372025893928"><ele>4.25</ele><time>2026-04-12T14:27:02.998Z</time></trkpt><trkpt lat="40.11552259844431" lon="18.003397128031065"><ele>6.5</ele><time>2026-04-12T14:27:03.998Z</time></trkpt><trkpt lat="40.11540420124056" lon="18.003426868793497"><ele>8.75</ele><time>2026-04-12T14:27:04.998Z</time></trkpt><trkpt lat="40.1152906255097" lon="18.003445357631346"><ele>11.0</ele><time>2026-04-12T14:27:05.998Z</time></trkpt><trkpt lat="40.11517445426995" lon="18.003464857836274"><ele>11.0</ele><time>2026-04-12T14:27:06.998Z</time></trkpt><trkpt lat="40.11506134041353" lon="18.003485188979315"><ele>11.0</ele><time>2026-04-12T14:27:07.998Z</time></trkpt><trkpt lat="40.11494241223098" lon="18.003511690750045"><ele>11.0</ele><time>2026-04-12T14:27:08.998Z</time></trkpt><trkpt lat="40.11482047201766" lon="18.003533372576523"><ele>11.0</ele><time>2026-04-12T14:27:09.998Z</time></trkpt><trkpt lat="40.11470331391514" lon="18.003561390592505"><ele>9.200000000000001</ele><time>2026-04-12T14:27:10.998Z</time></trkpt><trkpt lat="40.114588906742554" lon="18.00359365597809"><ele>7.4</ele><time>2026-04-12T14:27:11.998Z</time></trkpt><trkpt lat="40.114483938072965" lon="18.003632557631615"><ele>5.6000000000000005</ele><time>2026-04-12T14:27:12.998Z</time></trkpt><trkpt lat="40.11437792743556" lon="18.003682253026327"><ele>3.8000000000000003</ele><time>2026-04-12T14:27:13.998Z</time></trkpt><trkpt lat="40.11430139839044" lon="18.003740993324254"><ele>2.0</ele><time>2026-04-12T14:27:14.998Z</time></trkpt><trkpt lat="40.11421092096598" lon="18.003789443892217"><ele>1.9999999999999998</ele><time>2026-04-12T14:27:15.998Z</time></trkpt><trkpt lat="40.11412640989812" lon="18.003833702866245"><ele>2.0</ele><time>2026-04-12T14:27:16.998Z</time></trkpt><trkpt lat="40.114045513107996" lon="18.003877957495423"><ele>2.0</ele><time>2026-04-12T14:27:17.998Z</time></trkpt><trkpt lat="40.11397313315173" lon="18.00392490792977"><ele>2.0</ele><time>2026-04-12T14:27:18.998Z</time></trkpt><trkpt lat="40.113913332369535" lon="18.003975154148026"><ele>1.9999999999999998</ele><time>2026-04-12T14:27:19.998Z</time></trkpt><trkpt lat="40.113874934620426" lon="18.00405864377012"><ele>2.0</ele><time>2026-04-12T14:27:20.998Z</time></trkpt><trkpt lat="40.11383644880005" lon="18.0041344590685"><ele>2.0</ele><time>2026-04-12T14:27:21.998Z</time></trkpt><trkpt lat="40.11381911701496" lon="18.004249291991027"><ele>2.0</ele><time>2026-04-12T14:27:22.998Z</time></trkpt><trkpt lat="40.11380039921048" lon="18.00437096309056"><ele>2.0</ele><time>2026-04-12T14:27:23.998Z</time></trkpt><trkpt lat="40.11378987159766" lon="18.00450484336455"><ele>2.0</ele><time>2026-04-12T14:27:24.998Z</time></trkpt><trkpt lat="40.11377123853745" lon="18.004629367637765"><ele>2.0</ele><time>2026-04-12T14:27:25.998Z</time></trkpt><trkpt lat="40.11376439927114" lon="18.004741260318553"><ele>1.9999999999999998</ele><time>2026-04-12T14:27:26.998Z</time></trkpt><trkpt lat="40.113746415359245" lon="18.00484966584481"><ele>2.0</ele><time>2026-04-12T14:27:27.998Z</time></trkpt><trkpt lat="40.113722526714895" lon="18.00494778787039"><ele>2.0</ele><time>2026-04-12T14:27:28.998Z</time></trkpt><trkpt lat="40.11368973633865" lon="18.005035685240795"><ele>2.0</ele><time>2026-04-12T14:27:29.998Z</time></trkpt><trkpt lat="40.11363379433074" lon="18.00510678738556"><ele>1.9999999999999998</ele><time>2026-04-12T14:27:30.998Z</time></trkpt><trkpt lat="40.11358090290544" lon="18.00518364520894"><ele>2.0</ele><time>2026-04-12T14:27:31.998Z</time></trkpt><trkpt lat="40.11352702252941" lon="18.005254638620652"><ele>1.8333333333333333</ele><time>2026-04-12T14:27:32.998Z</time></trkpt><trkpt lat="40.11347690241368" lon="18.005334376477062"><ele>1.6666666666666665</ele><time>2026-04-12T14:27:33.998Z</time></trkpt><trkpt lat="40.113422583429156" lon="18.00540749902173"><ele>1.5</ele><time>2026-04-12T14:27:34.998Z</time></trkpt><trkpt lat="40.11337220804847" lon="18.00548193185557"><ele>1.3333333333333333</ele><time>2026-04-12T14:27:35.998Z</time></trkpt><trkpt lat="40.113319899497455" lon="18.00554637910476"><ele>1.1666666666666665</ele><time>2026-04-12T14:27:36.998Z</time></trkpt><trkpt lat="40.11326709080948" lon="18.005618933917006"><ele>1.0</ele><time>2026-04-12T14:27:37.998Z</time></trkpt><trkpt lat="40.11322305404094" lon="18.005691336969168"><ele>0.9999999999999999</ele><time>2026-04-12T14:27:38.998Z</time></trkpt><trkpt lat="40.11317085739909" lon="18.00576103554845"><ele>1.0</ele><time>2026-04-12T14:27:39.998Z</time></trkpt><trkpt lat="40.113123163476146" lon="18.005827445180216"><ele>1.0</ele><time>2026-04-12T14:27:40.998Z</time></trkpt><trkpt lat="40.11307616517249" lon="18.00589415351008"><ele>1.0</ele><time>2026-04-12T14:27:41.998Z</time></trkpt><trkpt lat="40.11303360492808" lon="18.005956403747025"><ele>0.9999999999999999</ele><time>2026-04-12T14:27:42.998Z</time></trkpt><trkpt lat="40.112985589853956" lon="18.006011937345043"><ele>1.0</ele><time>2026-04-12T14:27:43.998Z</time></trkpt><trkpt lat="40.112898024586684" lon="18.00612719472957"><ele>1.3333333333333333</ele><time>2026-04-12T14:27:45.998Z</time></trkpt><trkpt lat="40.11285405432644" lon="18.00619009891638"><ele>1.6666666666666665</ele><time>2026-04-12T14:27:46.998Z</time></trkpt><trkpt lat="40.11280248999552" lon="18.00626216206399"><ele>2.0</ele><time>2026-04-12T14:27:47.998Z</time></trkpt><trkpt lat="40.112746514475624" lon="18.006335260765375"><ele>2.3333333333333335</ele><time>2026-04-12T14:27:48.998Z</time></trkpt><trkpt lat="40.11269161854536" lon="18.006417481462414"><ele>2.6666666666666665</ele><time>2026-04-12T14:27:49.998Z</time></trkpt><trkpt lat="40.112632616537496" lon="18.006496776607445"><ele>3.0</ele><time>2026-04-12T14:27:50.998Z</time></trkpt><trkpt lat="40.11257805953422" lon="18.006574778751638"><ele>3.0</ele><time>2026-04-12T14:27:51.999Z</time></trkpt><trkpt lat="40.11252350990603" lon="18.00665048048771"><ele>3.0</ele><time>2026-04-12T14:27:52.998Z</time></trkpt><trkpt lat="40.11247321244227" lon="18.006720806221434"><ele>3.0</ele><time>2026-04-12T14:27:53.998Z</time></trkpt><trkpt lat="40.11242638387419" lon="18.006787889685956"><ele>3.0</ele><time>2026-04-12T14:27:54.998Z</time></trkpt><trkpt lat="40.1123805614739" lon="18.00685041536087"><ele>3.0</ele><time>2026-04-12T14:27:55.998Z</time></trkpt><trkpt lat="40.112292281827955" lon="18.006968172259242"><ele>3.0</ele><time>2026-04-12T14:27:57.998Z</time></trkpt><trkpt lat="40.11224939581355" lon="18.007032018332737"><ele>3.0</ele><time>2026-04-12T14:27:58.998Z</time></trkpt><trkpt lat="40.11216654094977" lon="18.00714605806378"><ele>3.0</ele><time>2026-04-12T14:28:00.998Z</time></trkpt><trkpt lat="40.11209464357441" lon="18.007251407284926"><ele>3.0</ele><time>2026-04-12T14:28:02.998Z</time></trkpt><trkpt lat="40.11202674507236" lon="18.00734473787606"><ele>3.0</ele><time>2026-04-12T14:28:04.998Z</time></trkpt><trkpt lat="40.111948677366115" lon="18.00745284979293"><ele>3.0</ele><time>2026-04-12T14:28:06.998Z</time></trkpt><trkpt lat="40.11186876326397" lon="18.007576235819858"><ele>3.4</ele><time>2026-04-12T14:28:08.998Z</time></trkpt><trkpt lat="40.11178772609027" lon="18.007694951607235"><ele>3.8</ele><time>2026-04-12T14:28:10.998Z</time></trkpt><trkpt lat="40.11170937136337" lon="18.007799606166394"><ele>4.2</ele><time>2026-04-12T14:28:12.998Z</time></trkpt><trkpt lat="40.11166696874081" lon="18.007865089501536"><ele>4.6</ele><time>2026-04-12T14:28:13.998Z</time></trkpt><trkpt lat="40.11161733864621" lon="18.007937904554723"><ele>5.0</ele><time>2026-04-12T14:28:14.998Z</time></trkpt><trkpt lat="40.111559232128364" lon="18.008018181151673"><ele>4.0</ele><time>2026-04-12T14:28:15.998Z</time></trkpt><trkpt lat="40.11149823780037" lon="18.00810364270869"><ele>3.0</ele><time>2026-04-12T14:28:16.998Z</time></trkpt><trkpt lat="40.11143022774873" lon="18.008197097905285"><ele>2.0</ele><time>2026-04-12T14:28:17.998Z</time></trkpt><trkpt lat="40.111358117421915" lon="18.00829666074295"><ele>1.0</ele><time>2026-04-12T14:28:18.998Z</time></trkpt><trkpt lat="40.111272369234136" lon="18.008421319708297"><ele>0.0</ele><time>2026-04-12T14:28:19.998Z</time></trkpt><trkpt lat="40.11116403981091" lon="18.008562616654327"><ele>0.0</ele><time>2026-04-12T14:28:20.998Z</time></trkpt><trkpt lat="40.11105935647531" lon="18.008699249260477"><ele>0.0</ele><time>2026-04-12T14:28:21.998Z</time></trkpt><trkpt lat="40.11096642915667" lon="18.008820254205336"><ele>0.0</ele><time>2026-04-12T14:28:22.998Z</time></trkpt><trkpt lat="40.110884716182646" lon="18.008930408852724"><ele>0.0</ele><time>2026-04-12T14:28:23.998Z</time></trkpt><trkpt lat="40.11080963961263" lon="18.00902873345717"><ele>0.0</ele><time>2026-04-12T14:28:24.998Z</time></trkpt><trkpt lat="40.1107401854677" lon="18.009123667465428"><ele>0.0</ele><time>2026-04-12T14:28:25.998Z</time></trkpt><trkpt lat="40.110661118638745" lon="18.009222329353882"><ele>0.0</ele><time>2026-04-12T14:28:26.998Z</time></trkpt><trkpt lat="40.110590234187676" lon="18.00931865922077"><ele>0.0</ele><time>2026-04-12T14:28:27.998Z</time></trkpt><trkpt lat="40.11053455288185" lon="18.009390937810405"><ele>0.0</ele><time>2026-04-12T14:28:28.998Z</time></trkpt><trkpt lat="40.11049428662857" lon="18.009455836476015"><ele>0.0</ele><time>2026-04-12T14:28:29.998Z</time></trkpt><trkpt lat="40.110414553141254" lon="18.009569508193078"><ele>0.0</ele><time>2026-04-12T14:28:31.998Z</time></trkpt><trkpt lat="40.11036461712388" lon="18.00962764245491"><ele>0.0</ele><time>2026-04-12T14:28:32.998Z</time></trkpt><trkpt lat="40.1103180035782" lon="18.00968685920836"><ele>0.0</ele><time>2026-04-12T14:28:33.998Z</time></trkpt><trkpt lat="40.11027057213671" lon="18.00974300061907"><ele>0.0</ele><time>2026-04-12T14:28:34.998Z</time></trkpt><trkpt lat="40.11019271924574" lon="18.009847888234816"><ele>0.0</ele><time>2026-04-12T14:28:36.998Z</time></trkpt><trkpt lat="40.11013069822058" lon="18.009929148041042"><ele>0.3333333333333333</ele><time>2026-04-12T14:28:38.998Z</time></trkpt><trkpt lat="40.110068686343844" lon="18.010012089624134"><ele>0.6666666666666666</ele><time>2026-04-12T14:28:41.998Z</time></trkpt><trkpt lat="40.11002319483109" lon="18.010069202269165"><ele>1.0</ele><time>2026-04-12T14:28:43.998Z</time></trkpt><trkpt lat="40.10997402431527" lon="18.01013675951455"><ele>1.3333333333333333</ele><time>2026-04-12T14:28:45.998Z</time></trkpt><trkpt lat="40.10990661536022" lon="18.01021831134846"><ele>1.6666666666666665</ele><time>2026-04-12T14:28:47.998Z</time></trkpt><trkpt lat="40.10985179411567" lon="18.010276371695458"><ele>2.0</ele><time>2026-04-12T14:28:48.998Z</time></trkpt><trkpt lat="40.10980233548514" lon="18.01034863456456"><ele>1.9999999999999998</ele><time>2026-04-12T14:28:49.998Z</time></trkpt><trkpt lat="40.1097477088715" lon="18.010428801457206"><ele>2.0</ele><time>2026-04-12T14:28:50.998Z</time></trkpt><trkpt lat="40.10968380904194" lon="18.010501938168908"><ele>2.0</ele><time>2026-04-12T14:28:51.998Z</time></trkpt><trkpt lat="40.10961547865234" lon="18.010575394232056"><ele>2.0</ele><time>2026-04-12T14:28:52.998Z</time></trkpt><trkpt lat="40.10955403039072" lon="18.010667709647855"><ele>1.9999999999999998</ele><time>2026-04-12T14:28:53.998Z</time></trkpt><trkpt lat="40.1094978559792" lon="18.010765499444094"><ele>2.0</ele><time>2026-04-12T14:28:54.998Z</time></trkpt><trkpt lat="40.10944251617936" lon="18.01085738922865"><ele>2.6666666666666665</ele><time>2026-04-12T14:28:55.998Z</time></trkpt><trkpt lat="40.10939834203209" lon="18.010942282712353"><ele>3.333333333333333</ele><time>2026-04-12T14:28:56.998Z</time></trkpt><trkpt lat="40.10936457813616" lon="18.011015902455913"><ele>4.0</ele><time>2026-04-12T14:28:57.998Z</time></trkpt><trkpt lat="40.10931357460351" lon="18.0111423713835"><ele>4.666666666666667</ele><time>2026-04-12T14:28:59.998Z</time></trkpt><trkpt lat="40.10926449152511" lon="18.011284300871424"><ele>5.333333333333333</ele><time>2026-04-12T14:29:01.998Z</time></trkpt><trkpt lat="40.10923572898675" lon="18.01137617738089"><ele>6.0</ele><time>2026-04-12T14:29:02.998Z</time></trkpt><trkpt lat="40.10920559064793" lon="18.01147671996679"><ele>6.0</ele><time>2026-04-12T14:29:03.998Z</time></trkpt><trkpt lat="40.10917800910087" lon="18.011591064881866"><ele>6.0</ele><time>2026-04-12T14:29:04.998Z</time></trkpt><trkpt lat="40.10914773719419" lon="18.011712700216297"><ele>6.0</ele><time>2026-04-12T14:29:05.998Z</time></trkpt><trkpt lat="40.10911965604828" lon="18.01185006483666"><ele>6.0</ele><time>2026-04-12T14:29:06.998Z</time></trkpt><trkpt lat="40.10909351145903" lon="18.012004050590008"><ele>6.0</ele><time>2026-04-12T14:29:07.998Z</time></trkpt><trkpt lat="40.10905766206183" lon="18.012168672012297"><ele>6.0</ele><time>2026-04-12T14:29:08.998Z</time></trkpt><trkpt lat="40.109025531759514" lon="18.01233112088313"><ele>6.0</ele><time>2026-04-12T14:29:09.998Z</time></trkpt><trkpt lat="40.108991825565035" lon="18.01246344147065"><ele>6.0</ele><time>2026-04-12T14:29:10.998Z</time></trkpt><trkpt lat="40.10895952201796" lon="18.012584238400414"><ele>6.0</ele><time>2026-04-12T14:29:11.998Z</time></trkpt><trkpt lat="40.10893070818844" lon="18.01270562764749"><ele>6.0</ele><time>2026-04-12T14:29:12.998Z</time></trkpt><trkpt lat="40.10889729882612" lon="18.01282304226662"><ele>6.0</ele><time>2026-04-12T14:29:13.998Z</time></trkpt><trkpt lat="40.10886571133986" lon="18.012927946125252"><ele>6.0</ele><time>2026-04-12T14:29:14.998Z</time></trkpt><trkpt lat="40.10884127870447" lon="18.013035364270127"><ele>6.0</ele><time>2026-04-12T14:29:15.998Z</time></trkpt><trkpt lat="40.10881689224066" lon="18.013153936899048"><ele>6.0</ele><time>2026-04-12T14:29:16.998Z</time></trkpt><trkpt lat="40.1087866472906" lon="18.013278065694255"><ele>6.0</ele><time>2026-04-12T14:29:17.998Z</time></trkpt><trkpt lat="40.10875665582888" lon="18.013414507895533"><ele>6.6</ele><time>2026-04-12T14:29:18.998Z</time></trkpt><trkpt lat="40.10871974422489" lon="18.013544568530975"><ele>7.199999999999999</ele><time>2026-04-12T14:29:19.998Z</time></trkpt><trkpt lat="40.10869560245716" lon="18.01365549513317"><ele>7.800000000000001</ele><time>2026-04-12T14:29:20.998Z</time></trkpt><trkpt lat="40.10867514929782" lon="18.01376152602329"><ele>8.4</ele><time>2026-04-12T14:29:21.998Z</time></trkpt><trkpt lat="40.10865195398774" lon="18.01387263743882"><ele>9.0</ele><time>2026-04-12T14:29:22.998Z</time></trkpt><trkpt lat="40.1086266955531" lon="18.01398769323585"><ele>9.0</ele><time>2026-04-12T14:29:23.998Z</time></trkpt><trkpt lat="40.10860750901343" lon="18.014091311037635"><ele>9.0</ele><time>2026-04-12T14:29:24.998Z</time></trkpt><trkpt lat="40.10858723785024" lon="18.014184390091412"><ele>9.0</ele><time>2026-04-12T14:29:25.998Z</time></trkpt><trkpt lat="40.10856492966725" lon="18.01426871831601"><ele>9.0</ele><time>2026-04-12T14:29:26.998Z</time></trkpt><trkpt lat="40.108540982987435" lon="18.01435095563864"><ele>9.0</ele><time>2026-04-12T14:29:27.998Z</time></trkpt><trkpt lat="40.108512356611385" lon="18.014451921102097"><ele>9.0</ele><time>2026-04-12T14:29:28.998Z</time></trkpt><trkpt lat="40.10849196926974" lon="18.01455734798276"><ele>9.25</ele><time>2026-04-12T14:29:29.998Z</time></trkpt><trkpt lat="40.10846119192885" lon="18.014691715131818"><ele>9.5</ele><time>2026-04-12T14:29:30.998Z</time></trkpt><trkpt lat="40.10843525086456" lon="18.014840664805593"><ele>9.75</ele><time>2026-04-12T14:29:31.998Z</time></trkpt><trkpt lat="40.10840101399943" lon="18.014987555227144"><ele>10.0</ele><time>2026-04-12T14:29:32.998Z</time></trkpt><trkpt lat="40.108363808326075" lon="18.01514372026948"><ele>10.75</ele><time>2026-04-12T14:29:33.998Z</time></trkpt><trkpt lat="40.10832009976461" lon="18.015285749572627"><ele>11.5</ele><time>2026-04-12T14:29:34.998Z</time></trkpt><trkpt lat="40.1082702970478" lon="18.01542448287682"><ele>12.25</ele><time>2026-04-12T14:29:35.998Z</time></trkpt><trkpt lat="40.10821916374799" lon="18.01555744574628"><ele>13.0</ele><time>2026-04-12T14:29:36.998Z</time></trkpt><trkpt lat="40.108162121199335" lon="18.015687463408405"><ele>12.25</ele><time>2026-04-12T14:29:37.998Z</time></trkpt><trkpt lat="40.10810134229262" lon="18.015817550375626"><ele>11.5</ele><time>2026-04-12T14:29:38.998Z</time></trkpt><trkpt lat="40.108031220503634" lon="18.01594284891394"><ele>10.75</ele><time>2026-04-12T14:29:39.998Z</time></trkpt><trkpt lat="40.107959300292556" lon="18.01607213136161"><ele>10.0</ele><time>2026-04-12T14:29:40.998Z</time></trkpt><trkpt lat="40.10787750117997" lon="18.016193203295728"><ele>10.0</ele><time>2026-04-12T14:29:41.998Z</time></trkpt><trkpt lat="40.107792365699325" lon="18.016316654945893"><ele>10.0</ele><time>2026-04-12T14:29:42.998Z</time></trkpt><trkpt lat="40.1076992068047" lon="18.016441278728855"><ele>10.0</ele><time>2026-04-12T14:29:43.998Z</time></trkpt><trkpt lat="40.10760898627476" lon="18.016585310836298"><ele>10.0</ele><time>2026-04-12T14:29:44.998Z</time></trkpt><trkpt lat="40.10750463815474" lon="18.016748190519202"><ele>10.0</ele><time>2026-04-12T14:29:45.998Z</time></trkpt><trkpt lat="40.10738830067461" lon="18.01691216580857"><ele>10.0</ele><time>2026-04-12T14:29:46.998Z</time></trkpt><trkpt lat="40.10726834299105" lon="18.01706046503296"><ele>10.0</ele><time>2026-04-12T14:29:47.998Z</time></trkpt><trkpt lat="40.10715761513204" lon="18.017182564897894"><ele>10.0</ele><time>2026-04-12T14:29:48.998Z</time></trkpt><trkpt lat="40.10706019123343" lon="18.017297646571237"><ele>10.0</ele><time>2026-04-12T14:29:49.998Z</time></trkpt><trkpt lat="40.1069627580786" lon="18.017401340652185"><ele>10.0</ele><time>2026-04-12T14:29:50.998Z</time></trkpt><trkpt lat="40.10684854405349" lon="18.017522689605425"><ele>10.0</ele><time>2026-04-12T14:29:51.998Z</time></trkpt><trkpt lat="40.10675913240604" lon="18.017610125215167"><ele>10.0</ele><time>2026-04-12T14:29:52.998Z</time></trkpt><trkpt lat="40.10667186665899" lon="18.01769735230265"><ele>10.0</ele><time>2026-04-12T14:29:53.998Z</time></trkpt><trkpt lat="40.10658486171971" lon="18.017776119406392"><ele>10.0</ele><time>2026-04-12T14:29:54.997Z</time></trkpt><trkpt lat="40.10649019060888" lon="18.017842430375772"><ele>10.0</ele><time>2026-04-12T14:29:55.997Z</time></trkpt><trkpt lat="40.106386909244264" lon="18.017902472982033"><ele>10.0</ele><time>2026-04-12T14:29:56.997Z</time></trkpt><trkpt lat="40.106289899871854" lon="18.01795447710362"><ele>10.0</ele><time>2026-04-12T14:29:57.998Z</time></trkpt><trkpt lat="40.10619573340394" lon="18.018002103603017"><ele>10.0</ele><time>2026-04-12T14:29:58.998Z</time></trkpt><trkpt lat="40.10611107383618" lon="18.018048072178512"><ele>10.0</ele><time>2026-04-12T14:29:59.998Z</time></trkpt><trkpt lat="40.1060252731805" lon="18.018087488097176"><ele>10.0</ele><time>2026-04-12T14:30:00.997Z</time></trkpt><trkpt lat="40.10593193191452" lon="18.018129271490828"><ele>10.0</ele><time>2026-04-12T14:30:01.998Z</time></trkpt><trkpt lat="40.10583299735147" lon="18.01817714535253"><ele>9.75</ele><time>2026-04-12T14:30:02.998Z</time></trkpt><trkpt lat="40.105720801789694" lon="18.018236374392103"><ele>9.5</ele><time>2026-04-12T14:30:03.998Z</time></trkpt><trkpt lat="40.105605502025725" lon="18.01830518342776"><ele>9.25</ele><time>2026-04-12T14:30:04.997Z</time></trkpt><trkpt lat="40.105499779791074" lon="18.01836214947506"><ele>9.0</ele><time>2026-04-12T14:30:05.997Z</time></trkpt><trkpt lat="40.10539219910856" lon="18.01841563974823"><ele>9.0</ele><time>2026-04-12T14:30:06.997Z</time></trkpt><trkpt lat="40.105284970431775" lon="18.018466233668757"><ele>9.0</ele><time>2026-04-12T14:30:07.997Z</time></trkpt><trkpt lat="40.105189590137975" lon="18.018518032181824"><ele>9.0</ele><time>2026-04-12T14:30:08.997Z</time></trkpt><trkpt lat="40.10509617830428" lon="18.018569059723333"><ele>9.0</ele><time>2026-04-12T14:30:09.997Z</time></trkpt><trkpt lat="40.10499636615575" lon="18.01862082873353"><ele>9.0</ele><time>2026-04-12T14:30:10.997Z</time></trkpt><trkpt lat="40.10489199243808" lon="18.018675170938014"><ele>9.0</ele><time>2026-04-12T14:30:11.997Z</time></trkpt><trkpt lat="40.104775658980515" lon="18.018746041088317"><ele>9.0</ele><time>2026-04-12T14:30:12.997Z</time></trkpt><trkpt lat="40.104636381077285" lon="18.018829305778127"><ele>9.0</ele><time>2026-04-12T14:30:13.997Z</time></trkpt><trkpt lat="40.10445046829355" lon="18.018943786087238"><ele>9.0</ele><time>2026-04-12T14:30:14.997Z</time></trkpt><trkpt lat="40.104291842430705" lon="18.019004802279973"><ele>9.0</ele><time>2026-04-12T14:30:15.997Z</time></trkpt><trkpt lat="40.10415196226689" lon="18.019039756208816"><ele>9.0</ele><time>2026-04-12T14:30:16.997Z</time></trkpt><trkpt lat="40.104034533629864" lon="18.019117685597614"><ele>9.0</ele><time>2026-04-12T14:30:18.997Z</time></trkpt><trkpt lat="40.10395087079018" lon="18.019175084489213"><ele>10.0</ele><time>2026-04-12T14:30:19.997Z</time></trkpt><trkpt lat="40.10386416307924" lon="18.019224947213974"><ele>11.0</ele><time>2026-04-12T14:30:20.997Z</time></trkpt><trkpt lat="40.10378341206737" lon="18.01927259446624"><ele>11.999999999999998</ele><time>2026-04-12T14:30:21.997Z</time></trkpt><trkpt lat="40.1037131741383" lon="18.019314907633458"><ele>13.0</ele><time>2026-04-12T14:30:22.997Z</time></trkpt><trkpt lat="40.10359780213028" lon="18.019374089960117"><ele>14.0</ele><time>2026-04-12T14:30:24.997Z</time></trkpt><trkpt lat="40.103480747694775" lon="18.019410056885285"><ele>14.0</ele><time>2026-04-12T14:30:26.997Z</time></trkpt><trkpt lat="40.103385055874654" lon="18.019397964604373"><ele>13.999999999999998</ele><time>2026-04-12T14:30:28.997Z</time></trkpt><trkpt lat="40.103307454276624" lon="18.019339744186748"><ele>13.999999999999998</ele><time>2026-04-12T14:30:30.997Z</time></trkpt><trkpt lat="40.103230713267806" lon="18.019226361268124"><ele>14.0</ele><time>2026-04-12T14:30:32.997Z</time></trkpt><trkpt lat="40.10316691085665" lon="18.019164687188493"><ele>14.0</ele><time>2026-04-12T14:30:33.997Z</time></trkpt><trkpt lat="40.10309754846833" lon="18.019166709122167"><ele>13.833333333333334</ele><time>2026-04-12T14:30:34.997Z</time></trkpt><trkpt lat="40.10300525693627" lon="18.01923162623253"><ele>13.666666666666668</ele><time>2026-04-12T14:30:36.997Z</time></trkpt><trkpt lat="40.10294984259201" lon="18.01931003126341"><ele>13.5</ele><time>2026-04-12T14:30:38.997Z</time></trkpt><trkpt lat="40.1029227980008" lon="18.019389881471472"><ele>13.333333333333332</ele><time>2026-04-12T14:30:39.997Z</time></trkpt><trkpt lat="40.102912057076615" lon="18.01948230689606"><ele>13.166666666666666</ele><time>2026-04-12T14:30:40.997Z</time></trkpt><trkpt lat="40.102898968065965" lon="18.019628065741717"><ele>13.0</ele><time>2026-04-12T14:30:42.997Z</time></trkpt><trkpt lat="40.102824532318394" lon="18.019724319355173"><ele>13.0</ele><time>2026-04-12T14:30:44.997Z</time></trkpt><trkpt lat="40.10276584287265" lon="18.01977438743985"><ele>13.0</ele><time>2026-04-12T14:30:45.997Z</time></trkpt><trkpt lat="40.10269753081484" lon="18.019815957815364"><ele>13.0</ele><time>2026-04-12T14:30:46.997Z</time></trkpt><trkpt lat="40.10257280357017" lon="18.019830905567183"><ele>13.0</ele><time>2026-04-12T14:30:47.997Z</time></trkpt><trkpt lat="40.102397292837566" lon="18.019860138155533"><ele>13.0</ele><time>2026-04-12T14:30:48.997Z</time></trkpt><trkpt lat="40.10216548691707" lon="18.019841798790928"><ele>12.333333333333332</ele><time>2026-04-12T14:30:49.997Z</time></trkpt><trkpt lat="40.10195799608707" lon="18.01984456091312"><ele>11.666666666666666</ele><time>2026-04-12T14:30:50.997Z</time></trkpt><trkpt lat="40.10178146895168" lon="18.019849554556334"><ele>11.0</ele><time>2026-04-12T14:30:51.997Z</time></trkpt><trkpt lat="40.101634911023595" lon="18.019842371755562"><ele>10.75</ele><time>2026-04-12T14:30:52.997Z</time></trkpt><trkpt lat="40.10150924386768" lon="18.019858124992297"><ele>10.5</ele><time>2026-04-12T14:30:53.997Z</time></trkpt><trkpt lat="40.10138416591602" lon="18.019868228016875"><ele>10.25</ele><time>2026-04-12T14:30:54.997Z</time></trkpt><trkpt lat="40.10126348487433" lon="18.01987343643676"><ele>10.0</ele><time>2026-04-12T14:30:55.997Z</time></trkpt><trkpt lat="40.1011431733926" lon="18.019879983158315"><ele>10.0</ele><time>2026-04-12T14:30:56.997Z</time></trkpt><trkpt lat="40.10101944698561" lon="18.01988638522657"><ele>10.0</ele><time>2026-04-12T14:30:57.997Z</time></trkpt><trkpt lat="40.100886840766236" lon="18.01988694124755"><ele>10.0</ele><time>2026-04-12T14:30:58.997Z</time></trkpt><trkpt lat="40.100737140049546" lon="18.019888832433193"><ele>10.0</ele><time>2026-04-12T14:30:59.997Z</time></trkpt><trkpt lat="40.100568867655994" lon="18.01989012006818"><ele>9.333333333333334</ele><time>2026-04-12T14:31:00.997Z</time></trkpt><trkpt lat="40.10038150433304" lon="18.019906388838443"><ele>8.666666666666666</ele><time>2026-04-12T14:31:01.997Z</time></trkpt><trkpt lat="40.100179701635106" lon="18.01991010420958"><ele>8.0</ele><time>2026-04-12T14:31:02.997Z</time></trkpt><trkpt lat="40.099965246008956" lon="18.019909068980642"><ele>7.333333333333333</ele><time>2026-04-12T14:31:03.997Z</time></trkpt><trkpt lat="40.099744304467976" lon="18.019917165082944"><ele>6.666666666666666</ele><time>2026-04-12T14:31:04.997Z</time></trkpt><trkpt lat="40.09952618720552" lon="18.01992777900697"><ele>6.0</ele><time>2026-04-12T14:31:05.997Z</time></trkpt><trkpt lat="40.0993128878368" lon="18.019952469852477"><ele>7.0</ele><time>2026-04-12T14:31:06.997Z</time></trkpt><trkpt lat="40.09910222531947" lon="18.019991979702368"><ele>8.0</ele><time>2026-04-12T14:31:07.997Z</time></trkpt><trkpt lat="40.09889074865817" lon="18.02007458185909"><ele>9.0</ele><time>2026-04-12T14:31:08.997Z</time></trkpt><trkpt lat="40.09869334966147" lon="18.020173759280414"><ele>9.0</ele><time>2026-04-12T14:31:09.997Z</time></trkpt><trkpt lat="40.098494700492196" lon="18.02030102499159"><ele>9.0</ele><time>2026-04-12T14:31:10.997Z</time></trkpt><trkpt lat="40.09829945767207" lon="18.020439279612894"><ele>9.0</ele><time>2026-04-12T14:31:11.997Z</time></trkpt><trkpt lat="40.09809928213415" lon="18.02057428867074"><ele>8.666666666666666</ele><time>2026-04-12T14:31:12.997Z</time></trkpt><trkpt lat="40.09791657569471" lon="18.02069492251639"><ele>8.333333333333332</ele><time>2026-04-12T14:31:13.997Z</time></trkpt><trkpt lat="40.09774408624271" lon="18.020799371926255"><ele>8.0</ele><time>2026-04-12T14:31:14.997Z</time></trkpt><trkpt lat="40.09757645070559" lon="18.020885388616993"><ele>8.666666666666666</ele><time>2026-04-12T14:31:15.997Z</time></trkpt><trkpt lat="40.09740327523545" lon="18.020954270314075"><ele>9.333333333333334</ele><time>2026-04-12T14:31:16.997Z</time></trkpt><trkpt lat="40.09720697674166" lon="18.0210002429478"><ele>10.0</ele><time>2026-04-12T14:31:17.997Z</time></trkpt><trkpt lat="40.096998079898405" lon="18.021035433751035"><ele>10.0</ele><time>2026-04-12T14:31:18.997Z</time></trkpt><trkpt lat="40.096780820037864" lon="18.021057186528626"><ele>10.0</ele><time>2026-04-12T14:31:19.997Z</time></trkpt><trkpt lat="40.096554754714745" lon="18.021077877036255"><ele>10.0</ele><time>2026-04-12T14:31:20.997Z</time></trkpt><trkpt lat="40.09631905978864" lon="18.02110060902289"><ele>9.5</ele><time>2026-04-12T14:31:21.997Z</time></trkpt><trkpt lat="40.096068995897724" lon="18.021139527307422"><ele>9.0</ele><time>2026-04-12T14:31:22.997Z</time></trkpt><trkpt lat="40.09580498669075" lon="18.021180129954956"><ele>9.5</ele><time>2026-04-12T14:31:23.997Z</time></trkpt><trkpt lat="40.09553269035578" lon="18.021213370922148"><ele>10.0</ele><time>2026-04-12T14:31:24.997Z</time></trkpt><trkpt lat="40.095261360445356" lon="18.021248811570224"><ele>10.0</ele><time>2026-04-12T14:31:25.997Z</time></trkpt><trkpt lat="40.09499867706096" lon="18.021283564516914"><ele>10.0</ele><time>2026-04-12T14:31:26.997Z</time></trkpt><trkpt lat="40.094769362970325" lon="18.02131517414445"><ele>9.333333333333334</ele><time>2026-04-12T14:31:27.997Z</time></trkpt><trkpt lat="40.094556917207" lon="18.021355574741687"><ele>8.666666666666666</ele><time>2026-04-12T14:31:28.997Z</time></trkpt><trkpt lat="40.09435177216984" lon="18.021392235655423"><ele>8.0</ele><time>2026-04-12T14:31:29.997Z</time></trkpt><trkpt lat="40.09415902560177" lon="18.02141989227144"><ele>7.333333333333333</ele><time>2026-04-12T14:31:30.997Z</time></trkpt><trkpt lat="40.09397843164218" lon="18.021441020929046"><ele>6.666666666666666</ele><time>2026-04-12T14:31:31.997Z</time></trkpt><trkpt lat="40.093805758427436" lon="18.0214415459515"><ele>6.0</ele><time>2026-04-12T14:31:32.997Z</time></trkpt><trkpt lat="40.09361669717988" lon="18.021415058977386"><ele>6.0</ele><time>2026-04-12T14:31:33.997Z</time></trkpt><trkpt lat="40.09341613237255" lon="18.021368946504108"><ele>6.0</ele><time>2026-04-12T14:31:34.997Z</time></trkpt><trkpt lat="40.093217171967275" lon="18.021307062626803"><ele>6.0</ele><time>2026-04-12T14:31:35.997Z</time></trkpt><trkpt lat="40.09302864273052" lon="18.021217705667684"><ele>6.0</ele><time>2026-04-12T14:31:36.997Z</time></trkpt><trkpt lat="40.09283882625731" lon="18.021103745449466"><ele>6.0</ele><time>2026-04-12T14:31:37.997Z</time></trkpt><trkpt lat="40.092657391370174" lon="18.020972936998838"><ele>6.0</ele><time>2026-04-12T14:31:38.997Z</time></trkpt><trkpt lat="40.09248081098705" lon="18.02082393474889"><ele>5.666666666666667</ele><time>2026-04-12T14:31:39.997Z</time></trkpt><trkpt lat="40.092313358711316" lon="18.020652606266673"><ele>5.333333333333334</ele><time>2026-04-12T14:31:40.997Z</time></trkpt><trkpt lat="40.092150698148686" lon="18.020447861455914"><ele>5.0</ele><time>2026-04-12T14:31:41.997Z</time></trkpt><trkpt lat="40.09200560509899" lon="18.020219496336843"><ele>5.0</ele><time>2026-04-12T14:31:42.997Z</time></trkpt><trkpt lat="40.091889487297586" lon="18.020003497594363"><ele>5.0</ele><time>2026-04-12T14:31:43.997Z</time></trkpt><trkpt lat="40.0917940131123" lon="18.019762152124915"><ele>5.0</ele><time>2026-04-12T14:31:44.997Z</time></trkpt><trkpt lat="40.09170534110409" lon="18.019488886872523"><ele>4.666666666666667</ele><time>2026-04-12T14:31:45.997Z</time></trkpt><trkpt lat="40.09163560344316" lon="18.019235609999267"><ele>4.333333333333333</ele><time>2026-04-12T14:31:46.997Z</time></trkpt><trkpt lat="40.09157956632548" lon="18.01895898923339"><ele>4.0</ele><time>2026-04-12T14:31:47.997Z</time></trkpt><trkpt lat="40.091530856352485" lon="18.018663661877426"><ele>3.6666666666666665</ele><time>2026-04-12T14:31:48.997Z</time></trkpt><trkpt lat="40.091469150817794" lon="18.018375877818734"><ele>3.333333333333333</ele><time>2026-04-12T14:31:49.997Z</time></trkpt><trkpt lat="40.09141241720857" lon="18.01814318792449"><ele>3.0</ele><time>2026-04-12T14:31:50.997Z</time></trkpt><trkpt lat="40.09136067683281" lon="18.017949753896133"><ele>2.8</ele><time>2026-04-12T14:31:51.997Z</time></trkpt><trkpt lat="40.09131167821508" lon="18.017796424650843"><ele>2.5999999999999996</ele><time>2026-04-12T14:31:52.997Z</time></trkpt><trkpt lat="40.09127277666258" lon="18.017671336174395"><ele>2.4000000000000004</ele><time>2026-04-12T14:31:53.997Z</time></trkpt><trkpt lat="40.09124503650112" lon="18.017555809641003"><ele>2.2</ele><time>2026-04-12T14:31:54.997Z</time></trkpt><trkpt lat="40.09124297528829" lon="18.017440424152525"><ele>2.0</ele><time>2026-04-12T14:31:55.997Z</time></trkpt><trkpt lat="40.09124955582591" lon="18.017321767349916"><ele>1.8</ele><time>2026-04-12T14:31:56.997Z</time></trkpt><trkpt lat="40.091243885128776" lon="18.017215866146746"><ele>1.6</ele><time>2026-04-12T14:31:57.997Z</time></trkpt><trkpt lat="40.09119528894654" lon="18.017138158383712"><ele>1.4000000000000001</ele><time>2026-04-12T14:31:58.997Z</time></trkpt><trkpt lat="40.09112483796279" lon="18.017080792060664"><ele>1.2000000000000002</ele><time>2026-04-12T14:31:59.997Z</time></trkpt><trkpt lat="40.091028081258536" lon="18.017027511590037"><ele>1.0</ele><time>2026-04-12T14:32:00.997Z</time></trkpt><trkpt lat="40.09091214048279" lon="18.016943256066597"><ele>1.0</ele><time>2026-04-12T14:32:01.997Z</time></trkpt><trkpt lat="40.09079147707897" lon="18.016817034925705"><ele>1.0</ele><time>2026-04-12T14:32:02.997Z</time></trkpt><trkpt lat="40.09066309290578" lon="18.016637905280437"><ele>1.0</ele><time>2026-04-12T14:32:03.996Z</time></trkpt><trkpt lat="40.090510884863406" lon="18.016443963706223"><ele>1.5</ele><time>2026-04-12T14:32:04.996Z</time></trkpt><trkpt lat="40.090336897465214" lon="18.016259101114176"><ele>2.0</ele><time>2026-04-12T14:32:05.996Z</time></trkpt><trkpt lat="40.090142327395725" lon="18.01608064699473"><ele>2.0</ele><time>2026-04-12T14:32:06.997Z</time></trkpt><trkpt lat="40.08995265606761" lon="18.015938430993575"><ele>2.0</ele><time>2026-04-12T14:32:07.996Z</time></trkpt><trkpt lat="40.08976328786831" lon="18.015821579896155"><ele>2.0</ele><time>2026-04-12T14:32:08.996Z</time></trkpt><trkpt lat="40.089561950789395" lon="18.015715878235326"><ele>2.0</ele><time>2026-04-12T14:32:09.997Z</time></trkpt><trkpt lat="40.08933489579035" lon="18.015608775438213"><ele>2.0</ele><time>2026-04-12T14:32:10.997Z</time></trkpt><trkpt lat="40.08908735178267" lon="18.015513321061604"><ele>1.5</ele><time>2026-04-12T14:32:11.997Z</time></trkpt><trkpt lat="40.08882168153811" lon="18.015413151042324"><ele>1.0</ele><time>2026-04-12T14:32:12.996Z</time></trkpt><trkpt lat="40.08854466111496" lon="18.01531615550535"><ele>1.0</ele><time>2026-04-12T14:32:13.996Z</time></trkpt><trkpt lat="40.08826194201279" lon="18.015209999098122"><ele>1.0</ele><time>2026-04-12T14:32:14.996Z</time></trkpt><trkpt lat="40.088001141479694" lon="18.015114029770892"><ele>1.0</ele><time>2026-04-12T14:32:15.996Z</time></trkpt><trkpt lat="40.08776704949189" lon="18.015028999777986"><ele>1.0</ele><time>2026-04-12T14:32:16.996Z</time></trkpt><trkpt lat="40.087549373345645" lon="18.014947963741033"><ele>1.6666666666666665</ele><time>2026-04-12T14:32:17.996Z</time></trkpt><trkpt lat="40.08733957161171" lon="18.014864858111185"><ele>2.3333333333333335</ele><time>2026-04-12T14:32:18.996Z</time></trkpt><trkpt lat="40.08715042942807" lon="18.01478632743152"><ele>3.0</ele><time>2026-04-12T14:32:19.996Z</time></trkpt><trkpt lat="40.0869896392693" lon="18.014717484142714"><ele>3.0</ele><time>2026-04-12T14:32:20.996Z</time></trkpt><trkpt lat="40.08686306699378" lon="18.01465505046183"><ele>3.0</ele><time>2026-04-12T14:32:21.996Z</time></trkpt><trkpt lat="40.086749642733345" lon="18.014571451115636"><ele>3.0</ele><time>2026-04-12T14:32:22.996Z</time></trkpt><trkpt lat="40.08663956554395" lon="18.01448161500368"><ele>3.0</ele><time>2026-04-12T14:32:23.996Z</time></trkpt><trkpt lat="40.0865266308878" lon="18.01437145086053"><ele>3.0</ele><time>2026-04-12T14:32:24.996Z</time></trkpt><trkpt lat="40.08642726702013" lon="18.014277504428385"><ele>3.0</ele><time>2026-04-12T14:32:25.996Z</time></trkpt><trkpt lat="40.08633793607337" lon="18.014196596117852"><ele>3.0</ele><time>2026-04-12T14:32:26.996Z</time></trkpt><trkpt lat="40.08620818268103" lon="18.01413928609507"><ele>3.0</ele><time>2026-04-12T14:32:27.996Z</time></trkpt><trkpt lat="40.08613237816019" lon="18.014070709102825"><ele>3.0</ele><time>2026-04-12T14:32:28.996Z</time></trkpt><trkpt lat="40.086054300892656" lon="18.014007194053775"><ele>3.0</ele><time>2026-04-12T14:32:29.996Z</time></trkpt><trkpt lat="40.085986697161815" lon="18.01394819125525"><ele>3.0</ele><time>2026-04-12T14:32:30.996Z</time></trkpt><trkpt lat="40.085933186729505" lon="18.013900361638143"><ele>3.0</ele><time>2026-04-12T14:32:31.996Z</time></trkpt><trkpt lat="40.08588118328943" lon="18.013846340740972"><ele>3.0</ele><time>2026-04-12T14:32:33.996Z</time></trkpt><trkpt lat="40.08583032023682" lon="18.013791496836873"><ele>3.0</ele><time>2026-04-12T14:32:42.996Z</time></trkpt><trkpt lat="40.08575105217159" lon="18.013730553868463"><ele>2.8</ele><time>2026-04-12T14:32:45.996Z</time></trkpt><trkpt lat="40.085669744907776" lon="18.013642060452042"><ele>2.5999999999999996</ele><time>2026-04-12T14:32:47.996Z</time></trkpt><trkpt lat="40.085564325881414" lon="18.013552273608557"><ele>2.4000000000000004</ele><time>2026-04-12T14:32:49.996Z</time></trkpt><trkpt lat="40.08550026574846" lon="18.013495335812024"><ele>2.2</ele><time>2026-04-12T14:32:50.996Z</time></trkpt><trkpt lat="40.08543077289839" lon="18.01343698156685"><ele>2.0</ele><time>2026-04-12T14:32:51.996Z</time></trkpt><trkpt lat="40.08537015249924" lon="18.013379115748076"><ele>1.9999999999999998</ele><time>2026-04-12T14:32:52.996Z</time></trkpt><trkpt lat="40.08530915168433" lon="18.013325664779597"><ele>2.0</ele><time>2026-04-12T14:32:53.996Z</time></trkpt><trkpt lat="40.085252443759686" lon="18.01326583642204"><ele>2.0</ele><time>2026-04-12T14:32:54.996Z</time></trkpt><trkpt lat="40.08517807182091" lon="18.013202232229578"><ele>2.0</ele><time>2026-04-12T14:32:55.996Z</time></trkpt><trkpt lat="40.085116510282134" lon="18.013145392937787"><ele>1.9999999999999998</ele><time>2026-04-12T14:32:56.996Z</time></trkpt><trkpt lat="40.085051306609124" lon="18.01308776173972"><ele>2.0</ele><time>2026-04-12T14:32:57.996Z</time></trkpt><trkpt lat="40.08498368131221" lon="18.01303038612692"><ele>2.1666666666666665</ele><time>2026-04-12T14:32:58.996Z</time></trkpt><trkpt lat="40.08490499502455" lon="18.01297300370223"><ele>2.333333333333333</ele><time>2026-04-12T14:32:59.996Z</time></trkpt><trkpt lat="40.08483918113021" lon="18.012922737013657"><ele>2.5</ele><time>2026-04-12T14:33:00.996Z</time></trkpt><trkpt lat="40.084787046819116" lon="18.01286990303481"><ele>2.6666666666666665</ele><time>2026-04-12T14:33:01.996Z</time></trkpt><trkpt lat="40.08473244460648" lon="18.01282326714615"><ele>2.8333333333333335</ele><time>2026-04-12T14:33:02.996Z</time></trkpt><trkpt lat="40.084636470947416" lon="18.012738035651857"><ele>3.0</ele><time>2026-04-12T14:33:04.996Z</time></trkpt><trkpt lat="40.08455589205341" lon="18.01264757007981"><ele>3.0</ele><time>2026-04-12T14:33:06.996Z</time></trkpt><trkpt lat="40.08450187618949" lon="18.012604946770843"><ele>3.0</ele><time>2026-04-12T14:33:07.996Z</time></trkpt><trkpt lat="40.084441288631666" lon="18.01255197538348"><ele>3.0</ele><time>2026-04-12T14:33:08.996Z</time></trkpt><trkpt lat="40.08437289822104" lon="18.012497867659363"><ele>3.0</ele><time>2026-04-12T14:33:09.996Z</time></trkpt><trkpt lat="40.084293044266445" lon="18.012440897057388"><ele>3.0</ele><time>2026-04-12T14:33:10.996Z</time></trkpt><trkpt lat="40.08420323310285" lon="18.01235834070042"><ele>3.0</ele><time>2026-04-12T14:33:11.996Z</time></trkpt><trkpt lat="40.08409582818245" lon="18.012272320662117"><ele>3.25</ele><time>2026-04-12T14:33:12.996Z</time></trkpt><trkpt lat="40.08397420586139" lon="18.012170978344447"><ele>3.5</ele><time>2026-04-12T14:33:13.996Z</time></trkpt><trkpt lat="40.083843265104555" lon="18.012067201782695"><ele>3.75</ele><time>2026-04-12T14:33:14.996Z</time></trkpt><trkpt lat="40.083718659971595" lon="18.011969253126306"><ele>4.0</ele><time>2026-04-12T14:33:15.996Z</time></trkpt><trkpt lat="40.08359873235132" lon="18.011871168975123"><ele>4.0</ele><time>2026-04-12T14:33:16.996Z</time></trkpt><trkpt lat="40.08348977411593" lon="18.011759654418732"><ele>4.0</ele><time>2026-04-12T14:33:17.996Z</time></trkpt><trkpt lat="40.08339040963235" lon="18.01166277704059"><ele>4.0</ele><time>2026-04-12T14:33:18.996Z</time></trkpt><trkpt lat="40.08328601222835" lon="18.011567521449933"><ele>4.0</ele><time>2026-04-12T14:33:19.996Z</time></trkpt><trkpt lat="40.08319131393961" lon="18.0114811119692"><ele>4.0</ele><time>2026-04-12T14:33:20.996Z</time></trkpt><trkpt lat="40.083104438831015" lon="18.011400144408682"><ele>4.0</ele><time>2026-04-12T14:33:21.996Z</time></trkpt><trkpt lat="40.08302277465505" lon="18.01131892835778"><ele>4.0</ele><time>2026-04-12T14:33:22.996Z</time></trkpt><trkpt lat="40.08293649881704" lon="18.01124016570921"><ele>4.0</ele><time>2026-04-12T14:33:23.996Z</time></trkpt><trkpt lat="40.082857741239984" lon="18.011165953977304"><ele>4.0</ele><time>2026-04-12T14:33:24.996Z</time></trkpt><trkpt lat="40.08277743423359" lon="18.011103015112038"><ele>3.9999999999999996</ele><time>2026-04-12T14:33:25.996Z</time></trkpt><trkpt lat="40.08270202627489" lon="18.011048556358322"><ele>4.0</ele><time>2026-04-12T14:33:26.996Z</time></trkpt><trkpt lat="40.08263435474739" lon="18.010984599067463"><ele>4.0</ele><time>2026-04-12T14:33:27.996Z</time></trkpt><trkpt lat="40.082569780396206" lon="18.010931023115205"><ele>4.0</ele><time>2026-04-12T14:33:28.996Z</time></trkpt><trkpt lat="40.08251197103607" lon="18.01087809005754"><ele>3.9999999999999996</ele><time>2026-04-12T14:33:29.996Z</time></trkpt><trkpt lat="40.08244808992729" lon="18.01083395328974"><ele>4.0</ele><time>2026-04-12T14:33:30.996Z</time></trkpt><trkpt lat="40.08238582561438" lon="18.010785112038132"><ele>4.333333333333333</ele><time>2026-04-12T14:33:31.996Z</time></trkpt><trkpt lat="40.0823164554772" lon="18.010737419837483"><ele>4.666666666666666</ele><time>2026-04-12T14:33:32.996Z</time></trkpt><trkpt lat="40.08224555790623" lon="18.01069064715568"><ele>5.0</ele><time>2026-04-12T14:33:33.996Z</time></trkpt><trkpt lat="40.082171330700966" lon="18.010634565973014"><ele>5.333333333333333</ele><time>2026-04-12T14:33:34.996Z</time></trkpt><trkpt lat="40.08208752068658" lon="18.01057716415741"><ele>5.666666666666667</ele><time>2026-04-12T14:33:35.996Z</time></trkpt><trkpt lat="40.08199743671455" lon="18.010514505778037"><ele>6.0</ele><time>2026-04-12T14:33:36.996Z</time></trkpt><trkpt lat="40.08190330984227" lon="18.010454845478336"><ele>6.0</ele><time>2026-04-12T14:33:37.996Z</time></trkpt><trkpt lat="40.08181408528694" lon="18.01039257088546"><ele>6.0</ele><time>2026-04-12T14:33:38.996Z</time></trkpt><trkpt lat="40.08173355934421" lon="18.010325747568558"><ele>6.0</ele><time>2026-04-12T14:33:39.996Z</time></trkpt><trkpt lat="40.081640281706946" lon="18.010261396301644"><ele>6.0</ele><time>2026-04-12T14:33:40.996Z</time></trkpt><trkpt lat="40.08152518002373" lon="18.010183329740926"><ele>6.0</ele><time>2026-04-12T14:33:41.996Z</time></trkpt><trkpt lat="40.081389658405925" lon="18.01009521362042"><ele>6.0</ele><time>2026-04-12T14:33:42.996Z</time></trkpt><trkpt lat="40.08125378768463" lon="18.01001041351737"><ele>6.0</ele><time>2026-04-12T14:33:43.996Z</time></trkpt><trkpt lat="40.081115931439726" lon="18.009924146816633"><ele>6.0</ele><time>2026-04-12T14:33:44.996Z</time></trkpt><trkpt lat="40.080979198770805" lon="18.009828810063834"><ele>5.666666666666667</ele><time>2026-04-12T14:33:45.996Z</time></trkpt><trkpt lat="40.080838877915554" lon="18.00973082821841"><ele>5.333333333333334</ele><time>2026-04-12T14:33:46.996Z</time></trkpt><trkpt lat="40.08068772968548" lon="18.00962369536439"><ele>5.0</ele><time>2026-04-12T14:33:47.996Z</time></trkpt><trkpt lat="40.08053323308433" lon="18.009511698922267"><ele>4.666666666666667</ele><time>2026-04-12T14:33:48.996Z</time></trkpt><trkpt lat="40.08037030191075" lon="18.00940882744"><ele>4.333333333333333</ele><time>2026-04-12T14:33:49.996Z</time></trkpt><trkpt lat="40.0802056657418" lon="18.00930043256108"><ele>4.0</ele><time>2026-04-12T14:33:50.996Z</time></trkpt><trkpt lat="40.080033335059454" lon="18.00918381529703"><ele>3.0</ele><time>2026-04-12T14:33:51.996Z</time></trkpt><trkpt lat="40.0798494059067" lon="18.009059404352705"><ele>2.0</ele><time>2026-04-12T14:33:52.996Z</time></trkpt><trkpt lat="40.07967946143428" lon="18.008927211605496"><ele>1.0</ele><time>2026-04-12T14:33:53.996Z</time></trkpt><trkpt lat="40.07952587230609" lon="18.00881081269319"><ele>1.0</ele><time>2026-04-12T14:33:54.996Z</time></trkpt><trkpt lat="40.07939288773621" lon="18.008691664217128"><ele>1.0</ele><time>2026-04-12T14:33:55.996Z</time></trkpt><trkpt lat="40.07927092330667" lon="18.008546297411158"><ele>1.0</ele><time>2026-04-12T14:33:56.996Z</time></trkpt><trkpt lat="40.079138689887294" lon="18.00841643433728"><ele>0.6666666666666666</ele><time>2026-04-12T14:33:57.996Z</time></trkpt><trkpt lat="40.079001651530014" lon="18.008282436040613"><ele>0.3333333333333333</ele><time>2026-04-12T14:33:58.996Z</time></trkpt><trkpt lat="40.07886385305083" lon="18.008155479771098"><ele>0.0</ele><time>2026-04-12T14:33:59.996Z</time></trkpt><trkpt lat="40.07872053225452" lon="18.00803541114992"><ele>0.0</ele><time>2026-04-12T14:34:00.996Z</time></trkpt><trkpt lat="40.0785726398277" lon="18.00791840530629"><ele>0.0</ele><time>2026-04-12T14:34:01.996Z</time></trkpt><trkpt lat="40.07841524459452" lon="18.007810544409896"><ele>0.0</ele><time>2026-04-12T14:34:02.996Z</time></trkpt><trkpt lat="40.0782428926008" lon="18.007709243406424"><ele>0.0</ele><time>2026-04-12T14:34:03.996Z</time></trkpt><trkpt lat="40.07805144173823" lon="18.007616761024163"><ele>0.0</ele><time>2026-04-12T14:34:04.996Z</time></trkpt><trkpt lat="40.077836358596905" lon="18.007542004483575"><ele>0.0</ele><time>2026-04-12T14:34:05.996Z</time></trkpt><trkpt lat="40.077605876747114" lon="18.00747739750229"><ele>0.0</ele><time>2026-04-12T14:34:06.997Z</time></trkpt><trkpt lat="40.07736261400095" lon="18.007404903823232"><ele>0.0</ele><time>2026-04-12T14:34:07.996Z</time></trkpt><trkpt lat="40.07710847892802" lon="18.007323955032806"><ele>0.0</ele><time>2026-04-12T14:34:08.996Z</time></trkpt><trkpt lat="40.07684235300091" lon="18.007242572784424"><ele>0.0</ele><time>2026-04-12T14:34:09.996Z</time></trkpt><trkpt lat="40.07657645841407" lon="18.007157350704787"><ele>-0.5</ele><time>2026-04-12T14:34:10.996Z</time></trkpt><trkpt lat="40.076316052057" lon="18.007091527358604"><ele>-1.0</ele><time>2026-04-12T14:34:11.996Z</time></trkpt><trkpt lat="40.07608427146552" lon="18.007019845638116"><ele>-1.0</ele><time>2026-04-12T14:34:12.997Z</time></trkpt><trkpt lat="40.07586671010449" lon="18.00695086876503"><ele>-1.0</ele><time>2026-04-12T14:34:13.996Z</time></trkpt><trkpt lat="40.07566080270869" lon="18.006887017562185"><ele>-1.0</ele><time>2026-04-12T14:34:14.996Z</time></trkpt><trkpt lat="40.075469017780485" lon="18.006832453984885"><ele>0.0</ele><time>2026-04-12T14:34:15.997Z</time></trkpt><trkpt lat="40.07528853216196" lon="18.006780698250772"><ele>1.0</ele><time>2026-04-12T14:34:16.996Z</time></trkpt><trkpt lat="40.0751220802335" lon="18.006726108107138"><ele>2.0</ele><time>2026-04-12T14:34:17.996Z</time></trkpt><trkpt lat="40.07495384278626" lon="18.006675309212223"><ele>1.0</ele><time>2026-04-12T14:34:18.996Z</time></trkpt><trkpt lat="40.07478645147105" lon="18.006624949464165"><ele>0.0</ele><time>2026-04-12T14:34:19.997Z</time></trkpt><trkpt lat="40.07461279745568" lon="18.00657270950348"><ele>-1.0</ele><time>2026-04-12T14:34:20.997Z</time></trkpt><trkpt lat="40.07443866377083" lon="18.006520299802922"><ele>-1.0</ele><time>2026-04-12T14:34:21.997Z</time></trkpt><trkpt lat="40.07425766164427" lon="18.00647110096855"><ele>-1.0</ele><time>2026-04-12T14:34:22.997Z</time></trkpt><trkpt lat="40.07408973092689" lon="18.006422869927455"><ele>-1.0</ele><time>2026-04-12T14:34:23.997Z</time></trkpt><trkpt lat="40.073936403785105" lon="18.006378339333548"><ele>-0.5</ele><time>2026-04-12T14:34:24.997Z</time></trkpt><trkpt lat="40.07380151424855" lon="18.00633563511442"><ele>0.0</ele><time>2026-04-12T14:34:25.997Z</time></trkpt><trkpt lat="40.07366211843694" lon="18.006299641512285"><ele>0.5</ele><time>2026-04-12T14:34:26.997Z</time></trkpt><trkpt lat="40.073507000019696" lon="18.00626283923241"><ele>1.0</ele><time>2026-04-12T14:34:27.997Z</time></trkpt><trkpt lat="40.07334672956956" lon="18.006186860912017"><ele>0.6666666666666666</ele><time>2026-04-12T14:34:28.997Z</time></trkpt><trkpt lat="40.07317016891551" lon="18.00609064569796"><ele>0.3333333333333333</ele><time>2026-04-12T14:34:29.997Z</time></trkpt><trkpt lat="40.07298593368457" lon="18.005990645164623"><ele>0.0</ele><time>2026-04-12T14:34:30.997Z</time></trkpt><trkpt lat="40.072787979601515" lon="18.005905540323745"><ele>-0.3333333333333333</ele><time>2026-04-12T14:34:31.997Z</time></trkpt><trkpt lat="40.07259540024694" lon="18.005810786050088"><ele>-0.6666666666666666</ele><time>2026-04-12T14:34:32.997Z</time></trkpt><trkpt lat="40.072397050753715" lon="18.005718481829746"><ele>-1.0</ele><time>2026-04-12T14:34:33.997Z</time></trkpt><trkpt lat="40.07219970140153" lon="18.00562082429581"><ele>-1.0</ele><time>2026-04-12T14:34:34.997Z</time></trkpt><trkpt lat="40.07200195312107" lon="18.005529416439757"><ele>-1.0</ele><time>2026-04-12T14:34:35.997Z</time></trkpt><trkpt lat="40.07180676771395" lon="18.005439054993712"><ele>-1.0</ele><time>2026-04-12T14:34:36.997Z</time></trkpt><trkpt lat="40.07161068857623" lon="18.005345677133967"><ele>0.0</ele><time>2026-04-12T14:34:37.997Z</time></trkpt><trkpt lat="40.07141924847223" lon="18.005244642233386"><ele>1.0</ele><time>2026-04-12T14:34:38.997Z</time></trkpt><trkpt lat="40.071226860500346" lon="18.005154415168928"><ele>2.0</ele><time>2026-04-12T14:34:39.997Z</time></trkpt><trkpt lat="40.071035365435556" lon="18.005065259579695"><ele>2.0</ele><time>2026-04-12T14:34:40.996Z</time></trkpt><trkpt lat="40.070844688338084" lon="18.00498142289725"><ele>2.0</ele><time>2026-04-12T14:34:41.996Z</time></trkpt><trkpt lat="40.07066549626014" lon="18.00489132110646"><ele>2.0</ele><time>2026-04-12T14:34:42.996Z</time></trkpt><trkpt lat="40.07048182855879" lon="18.00480187072768"><ele>2.0</ele><time>2026-04-12T14:34:43.996Z</time></trkpt><trkpt lat="40.07030018125958" lon="18.00470956121922"><ele>2.0</ele><time>2026-04-12T14:34:44.996Z</time></trkpt><trkpt lat="40.070113227818396" lon="18.00461919819039"><ele>2.0</ele><time>2026-04-12T14:34:45.996Z</time></trkpt><trkpt lat="40.06991799172566" lon="18.00453016176459"><ele>2.0</ele><time>2026-04-12T14:34:46.996Z</time></trkpt><trkpt lat="40.06972015958628" lon="18.004434676765765"><ele>2.0</ele><time>2026-04-12T14:34:47.996Z</time></trkpt><trkpt lat="40.06953078953149" lon="18.00434146134681"><ele>2.0</ele><time>2026-04-12T14:34:48.996Z</time></trkpt><trkpt lat="40.069360270632814" lon="18.00426559898707"><ele>2.0</ele><time>2026-04-12T14:34:49.996Z</time></trkpt><trkpt lat="40.06920430351276" lon="18.004194328496418"><ele>2.0</ele><time>2026-04-12T14:34:50.996Z</time></trkpt><trkpt lat="40.06905460521821" lon="18.004135538280526"><ele>2.0</ele><time>2026-04-12T14:34:51.996Z</time></trkpt><trkpt lat="40.06891951860588" lon="18.004071144857267"><ele>2.0</ele><time>2026-04-12T14:34:52.996Z</time></trkpt><trkpt lat="40.06879562592621" lon="18.004013700735825"><ele>2.0</ele><time>2026-04-12T14:34:53.996Z</time></trkpt><trkpt lat="40.06868901747165" lon="18.003944486097563"><ele>2.0</ele><time>2026-04-12T14:34:54.996Z</time></trkpt><trkpt lat="40.06859037711132" lon="18.003885069953693"><ele>2.0</ele><time>2026-04-12T14:34:55.996Z</time></trkpt><trkpt lat="40.06850483278956" lon="18.003834700013496"><ele>2.0</ele><time>2026-04-12T14:34:56.996Z</time></trkpt><trkpt lat="40.06843021384198" lon="18.003784579216497"><ele>2.0</ele><time>2026-04-12T14:34:57.996Z</time></trkpt><trkpt lat="40.068361012422635" lon="18.003707819304815"><ele>2.0</ele><time>2026-04-12T14:34:58.996Z</time></trkpt><trkpt lat="40.0682906517583" lon="18.003624975153144"><ele>2.0</ele><time>2026-04-12T14:34:59.996Z</time></trkpt><trkpt lat="40.06821436596426" lon="18.00354166549772"><ele>2.0</ele><time>2026-04-12T14:35:00.996Z</time></trkpt><trkpt lat="40.06812715633365" lon="18.0034835875169"><ele>2.0</ele><time>2026-04-12T14:35:01.996Z</time></trkpt><trkpt lat="40.068036682219415" lon="18.003453466829278"><ele>2.0</ele><time>2026-04-12T14:35:02.996Z</time></trkpt><trkpt lat="40.06793658921271" lon="18.00345514657091"><ele>2.0</ele><time>2026-04-12T14:35:03.996Z</time></trkpt><trkpt lat="40.06784419337778" lon="18.003467400967033"><ele>2.0</ele><time>2026-04-12T14:35:04.996Z</time></trkpt><trkpt lat="40.06775621497704" lon="18.00346418138917"><ele>2.0</ele><time>2026-04-12T14:35:05.996Z</time></trkpt><trkpt lat="40.06766948605125" lon="18.003419311781556"><ele>2.0</ele><time>2026-04-12T14:35:06.996Z</time></trkpt><trkpt lat="40.067582620922884" lon="18.003341904208735"><ele>2.0</ele><time>2026-04-12T14:35:07.996Z</time></trkpt><trkpt lat="40.067497940312826" lon="18.003244881465896"><ele>2.0</ele><time>2026-04-12T14:35:08.996Z</time></trkpt><trkpt lat="40.06742808913519" lon="18.003152904526083"><ele>2.0</ele><time>2026-04-12T14:35:09.996Z</time></trkpt><trkpt lat="40.06735671894532" lon="18.00305574235492"><ele>2.0</ele><time>2026-04-12T14:35:10.996Z</time></trkpt><trkpt lat="40.06728071114073" lon="18.002956949868302"><ele>2.75</ele><time>2026-04-12T14:35:11.996Z</time></trkpt><trkpt lat="40.06719169754145" lon="18.002853630640974"><ele>3.5</ele><time>2026-04-12T14:35:12.996Z</time></trkpt><trkpt lat="40.06710226680145" lon="18.002744268537764"><ele>4.25</ele><time>2026-04-12T14:35:13.996Z</time></trkpt><trkpt lat="40.06701950222057" lon="18.002631536724927"><ele>5.0</ele><time>2026-04-12T14:35:14.996Z</time></trkpt><trkpt lat="40.06694152888686" lon="18.002530342538996"><ele>4.6</ele><time>2026-04-12T14:35:15.996Z</time></trkpt><trkpt lat="40.066869116129915" lon="18.00243391894502"><ele>4.2</ele><time>2026-04-12T14:35:16.996Z</time></trkpt><trkpt lat="40.06679132428489" lon="18.00234493737639"><ele>3.8</ele><time>2026-04-12T14:35:17.996Z</time></trkpt><trkpt lat="40.06671059825542" lon="18.002245160638868"><ele>3.4</ele><time>2026-04-12T14:35:18.996Z</time></trkpt><trkpt lat="40.06662810403799" lon="18.002142778619376"><ele>3.0</ele><time>2026-04-12T14:35:19.996Z</time></trkpt><trkpt lat="40.06654268495372" lon="18.002031904348435"><ele>3.0</ele><time>2026-04-12T14:35:20.996Z</time></trkpt><trkpt lat="40.066452907776124" lon="18.001919283980275"><ele>3.0</ele><time>2026-04-12T14:35:21.996Z</time></trkpt><trkpt lat="40.06636801768531" lon="18.00180922935552"><ele>3.0</ele><time>2026-04-12T14:35:22.996Z</time></trkpt><trkpt lat="40.06628547654617" lon="18.00169943035198"><ele>3.0</ele><time>2026-04-12T14:35:23.996Z</time></trkpt><trkpt lat="40.06620532636971" lon="18.001596418006546"><ele>3.0</ele><time>2026-04-12T14:35:24.996Z</time></trkpt><trkpt lat="40.066122769068734" lon="18.001495253216124"><ele>3.0</ele><time>2026-04-12T14:35:25.996Z</time></trkpt><trkpt lat="40.06604059598292" lon="18.001392035319"><ele>3.0</ele><time>2026-04-12T14:35:26.996Z</time></trkpt><trkpt lat="40.06595741739888" lon="18.001288503769164"><ele>3.0</ele><time>2026-04-12T14:35:27.996Z</time></trkpt><trkpt lat="40.06587646365359" lon="18.001179677676912"><ele>3.0</ele><time>2026-04-12T14:35:28.996Z</time></trkpt><trkpt lat="40.06579020818805" lon="18.001070534749278"><ele>3.0</ele><time>2026-04-12T14:35:29.996Z</time></trkpt><trkpt lat="40.06570343611339" lon="18.000965007942476"><ele>3.0</ele><time>2026-04-12T14:35:30.996Z</time></trkpt><trkpt lat="40.06561424146646" lon="18.00085615871621"><ele>3.0</ele><time>2026-04-12T14:35:31.996Z</time></trkpt><trkpt lat="40.06552322300025" lon="18.000744169330147"><ele>3.0</ele><time>2026-04-12T14:35:32.996Z</time></trkpt><trkpt lat="40.065437324598335" lon="18.00062467938691"><ele>3.0</ele><time>2026-04-12T14:35:33.996Z</time></trkpt><trkpt lat="40.06535621236072" lon="18.00050683687332"><ele>3.0</ele><time>2026-04-12T14:35:34.996Z</time></trkpt><trkpt lat="40.065274556380764" lon="18.000403165627876"><ele>3.0</ele><time>2026-04-12T14:35:35.996Z</time></trkpt><trkpt lat="40.06518727542578" lon="18.000300106679525"><ele>3.0</ele><time>2026-04-12T14:35:36.996Z</time></trkpt><trkpt lat="40.06510028273695" lon="18.000189033332944"><ele>3.0</ele><time>2026-04-12T14:35:37.996Z</time></trkpt><trkpt lat="40.0650144127822" lon="18.000068062411902"><ele>3.0</ele><time>2026-04-12T14:35:38.996Z</time></trkpt><trkpt lat="40.0649269119091" lon="17.999949867955657"><ele>3.0</ele><time>2026-04-12T14:35:39.996Z</time></trkpt><trkpt lat="40.064839551196144" lon="17.999832822995014"><ele>3.25</ele><time>2026-04-12T14:35:40.996Z</time></trkpt><trkpt lat="40.06475082864926" lon="17.99971850233205"><ele>3.5</ele><time>2026-04-12T14:35:41.996Z</time></trkpt><trkpt lat="40.064658069649504" lon="17.99960445623079"><ele>3.75</ele><time>2026-04-12T14:35:42.996Z</time></trkpt><trkpt lat="40.064572797411515" lon="17.99949322601287"><ele>4.0</ele><time>2026-04-12T14:35:43.996Z</time></trkpt><trkpt lat="40.064487156495346" lon="17.999385210570146"><ele>4.0</ele><time>2026-04-12T14:35:44.996Z</time></trkpt><trkpt lat="40.06440517898039" lon="17.99927953588964"><ele>4.0</ele><time>2026-04-12T14:35:45.996Z</time></trkpt><trkpt lat="40.06432880595945" lon="17.999178812739526"><ele>4.0</ele><time>2026-04-12T14:35:46.996Z</time></trkpt><trkpt lat="40.06425306929396" lon="17.99908325539405"><ele>4.0</ele><time>2026-04-12T14:35:47.996Z</time></trkpt><trkpt lat="40.064173135247195" lon="17.998985304682318"><ele>4.0</ele><time>2026-04-12T14:35:48.996Z</time></trkpt><trkpt lat="40.06409140016918" lon="17.99888253994343"><ele>4.75</ele><time>2026-04-12T14:35:49.996Z</time></trkpt><trkpt lat="40.06400687809902" lon="17.99877732694456"><ele>5.5</ele><time>2026-04-12T14:35:50.996Z</time></trkpt><trkpt lat="40.06392717000718" lon="17.998672262092615"><ele>6.25</ele><time>2026-04-12T14:35:51.996Z</time></trkpt><trkpt lat="40.063847468467834" lon="17.998564443808725"><ele>7.0</ele><time>2026-04-12T14:35:52.996Z</time></trkpt><trkpt lat="40.06376424034156" lon="17.998453322170754"><ele>7.0</ele><time>2026-04-12T14:35:53.996Z</time></trkpt><trkpt lat="40.06367957702206" lon="17.998343215029166"><ele>7.0</ele><time>2026-04-12T14:35:54.996Z</time></trkpt><trkpt lat="40.06359368701227" lon="17.99823379494827"><ele>7.0</ele><time>2026-04-12T14:35:55.996Z</time></trkpt><trkpt lat="40.0635114747236" lon="17.99812787610455"><ele>7.0</ele><time>2026-04-12T14:35:56.996Z</time></trkpt><trkpt lat="40.06342969211731" lon="17.99802151140494"><ele>7.0</ele><time>2026-04-12T14:35:57.996Z</time></trkpt><trkpt lat="40.06334878236037" lon="17.99791998417149"><ele>6.999999999999999</ele><time>2026-04-12T14:35:58.996Z</time></trkpt><trkpt lat="40.06327348207516" lon="17.997818598650706"><ele>6.999999999999999</ele><time>2026-04-12T14:35:59.996Z</time></trkpt><trkpt lat="40.06319418773554" lon="17.997719698412865"><ele>7.0</ele><time>2026-04-12T14:36:00.996Z</time></trkpt><trkpt lat="40.06311591139378" lon="17.997619302044768"><ele>7.0</ele><time>2026-04-12T14:36:01.996Z</time></trkpt><trkpt lat="40.06303472417385" lon="17.99751948156174"><ele>7.199999999999999</ele><time>2026-04-12T14:36:02.996Z</time></trkpt><trkpt lat="40.0629511009536" lon="17.997415915829546"><ele>7.3999999999999995</ele><time>2026-04-12T14:36:03.996Z</time></trkpt><trkpt lat="40.062869572387584" lon="17.99731741752684"><ele>7.6000000000000005</ele><time>2026-04-12T14:36:04.996Z</time></trkpt><trkpt lat="40.062792423778234" lon="17.99722215524893"><ele>7.800000000000001</ele><time>2026-04-12T14:36:05.996Z</time></trkpt><trkpt lat="40.062716805659655" lon="17.997127137671466"><ele>8.0</ele><time>2026-04-12T14:36:06.996Z</time></trkpt><trkpt lat="40.062642798891815" lon="17.997038365976493"><ele>8.0</ele><time>2026-04-12T14:36:07.996Z</time></trkpt><trkpt lat="40.06256550411671" lon="17.996945236280244"><ele>8.0</ele><time>2026-04-12T14:36:08.996Z</time></trkpt><trkpt lat="40.06248754002535" lon="17.9968452271295"><ele>8.0</ele><time>2026-04-12T14:36:09.996Z</time></trkpt><trkpt lat="40.062404201361694" lon="17.996750498278274"><ele>8.0</ele><time>2026-04-12T14:36:10.996Z</time></trkpt><trkpt lat="40.062318865212426" lon="17.996659015013893"><ele>8.0</ele><time>2026-04-12T14:36:11.996Z</time></trkpt><trkpt lat="40.06223610877293" lon="17.996564951462798"><ele>9.4</ele><time>2026-04-12T14:36:12.996Z</time></trkpt><trkpt lat="40.062152599978134" lon="17.996468213165286"><ele>10.8</ele><time>2026-04-12T14:36:13.996Z</time></trkpt><trkpt lat="40.06207230910207" lon="17.9963660233163"><ele>12.2</ele><time>2026-04-12T14:36:14.996Z</time></trkpt><trkpt lat="40.061993978730335" lon="17.996273186905178"><ele>13.6</ele><time>2026-04-12T14:36:15.996Z</time></trkpt><trkpt lat="40.0619208167999" lon="17.996187846468974"><ele>15.0</ele><time>2026-04-12T14:36:16.996Z</time></trkpt><trkpt lat="40.061849136389554" lon="17.996101365930755"><ele>15.0</ele><time>2026-04-12T14:36:17.996Z</time></trkpt><trkpt lat="40.06178487591497" lon="17.99601393903541"><ele>15.0</ele><time>2026-04-12T14:36:18.997Z</time></trkpt><trkpt lat="40.061721320977796" lon="17.995930722162885"><ele>15.0</ele><time>2026-04-12T14:36:19.995Z</time></trkpt><trkpt lat="40.06165827924207" lon="17.995835894436535"><ele>15.0</ele><time>2026-04-12T14:36:20.995Z</time></trkpt><trkpt lat="40.06158535361266" lon="17.99574831856025"><ele>15.0</ele><time>2026-04-12T14:36:21.996Z</time></trkpt><trkpt lat="40.06151270457833" lon="17.995665613257874"><ele>15.6</ele><time>2026-04-12T14:36:22.996Z</time></trkpt><trkpt lat="40.061446715772334" lon="17.99557891019528"><ele>16.2</ele><time>2026-04-12T14:36:23.996Z</time></trkpt><trkpt lat="40.06138747759906" lon="17.995480675570896"><ele>16.8</ele><time>2026-04-12T14:36:24.996Z</time></trkpt><trkpt lat="40.0613303398666" lon="17.99538282879108"><ele>17.4</ele><time>2026-04-12T14:36:25.997Z</time></trkpt><trkpt lat="40.061270905140375" lon="17.995279913296773"><ele>18.0</ele><time>2026-04-12T14:36:26.997Z</time></trkpt><trkpt lat="40.0612089260837" lon="17.995164361494115"><ele>18.0</ele><time>2026-04-12T14:36:27.997Z</time></trkpt><trkpt lat="40.06115187765016" lon="17.995042515703638"><ele>18.0</ele><time>2026-04-12T14:36:28.997Z</time></trkpt><trkpt lat="40.061105232778786" lon="17.994932443718078"><ele>18.0</ele><time>2026-04-12T14:36:29.997Z</time></trkpt><trkpt lat="40.06105302295653" lon="17.994822714739904"><ele>18.0</ele><time>2026-04-12T14:36:30.997Z</time></trkpt><trkpt lat="40.06099845496574" lon="17.994708123691176"><ele>18.0</ele><time>2026-04-12T14:36:31.997Z</time></trkpt><trkpt lat="40.06095067571724" lon="17.99460506266332"><ele>17.833333333333332</ele><time>2026-04-12T14:36:32.997Z</time></trkpt><trkpt lat="40.06089977510086" lon="17.994506411644576"><ele>17.666666666666668</ele><time>2026-04-12T14:36:33.997Z</time></trkpt><trkpt lat="40.0608441988504" lon="17.994410151941622"><ele>17.5</ele><time>2026-04-12T14:36:34.997Z</time></trkpt><trkpt lat="40.06078598066885" lon="17.99432035612013"><ele>17.333333333333336</ele><time>2026-04-12T14:36:35.997Z</time></trkpt><trkpt lat="40.060726649665966" lon="17.994239616123707"><ele>17.166666666666668</ele><time>2026-04-12T14:36:36.997Z</time></trkpt><trkpt lat="40.060653912903625" lon="17.99417167556701"><ele>17.0</ele><time>2026-04-12T14:36:37.997Z</time></trkpt><trkpt lat="40.06057793414366" lon="17.994112832404326"><ele>17.0</ele><time>2026-04-12T14:36:38.997Z</time></trkpt><trkpt lat="40.06049926585312" lon="17.994054084686177"><ele>17.0</ele><time>2026-04-12T14:36:39.996Z</time></trkpt><trkpt lat="40.06040910282633" lon="17.99401448160389"><ele>17.0</ele><time>2026-04-12T14:36:40.996Z</time></trkpt><trkpt lat="40.060324273975226" lon="17.993986755955763"><ele>17.0</ele><time>2026-04-12T14:36:41.996Z</time></trkpt><trkpt lat="40.06023092040559" lon="17.993958378119117"><ele>17.0</ele><time>2026-04-12T14:36:42.996Z</time></trkpt><trkpt lat="40.06013225672467" lon="17.99392676773437"><ele>17.0</ele><time>2026-04-12T14:36:43.996Z</time></trkpt><trkpt lat="40.06002770847602" lon="17.99389334388154"><ele>17.0</ele><time>2026-04-12T14:36:44.996Z</time></trkpt><trkpt lat="40.059928052589214" lon="17.993862882417876"><ele>17.0</ele><time>2026-04-12T14:36:45.996Z</time></trkpt><trkpt lat="40.05982865819166" lon="17.99383115552447"><ele>17.0</ele><time>2026-04-12T14:36:46.996Z</time></trkpt><trkpt lat="40.059728283751106" lon="17.993796780309424"><ele>17.0</ele><time>2026-04-12T14:36:47.996Z</time></trkpt><trkpt lat="40.05962416070588" lon="17.993765883053538"><ele>18.0</ele><time>2026-04-12T14:36:48.996Z</time></trkpt><trkpt lat="40.05952007059315" lon="17.993735994672523"><ele>19.0</ele><time>2026-04-12T14:36:49.996Z</time></trkpt><trkpt lat="40.05940828969446" lon="17.993712354614225"><ele>20.0</ele><time>2026-04-12T14:36:50.996Z</time></trkpt><trkpt lat="40.059287450611585" lon="17.99368414690049"><ele>21.0</ele><time>2026-04-12T14:36:51.996Z</time></trkpt><trkpt lat="40.059178774416154" lon="17.993658489652436"><ele>21.25</ele><time>2026-04-12T14:36:52.996Z</time></trkpt><trkpt lat="40.05906529647689" lon="17.99363024659537"><ele>21.5</ele><time>2026-04-12T14:36:53.996Z</time></trkpt><trkpt lat="40.058962705820896" lon="17.993597592969227"><ele>21.75</ele><time>2026-04-12T14:36:54.996Z</time></trkpt><trkpt lat="40.05884973547459" lon="17.993556891870693"><ele>22.0</ele><time>2026-04-12T14:36:55.996Z</time></trkpt><trkpt lat="40.05873107113781" lon="17.993511350675412"><ele>22.0</ele><time>2026-04-12T14:36:56.996Z</time></trkpt><trkpt lat="40.05861570063125" lon="17.993492940607883"><ele>22.0</ele><time>2026-04-12T14:36:57.996Z</time></trkpt><trkpt lat="40.058500464105535" lon="17.99346362237787"><ele>22.0</ele><time>2026-04-12T14:36:58.996Z</time></trkpt><trkpt lat="40.0583900823858" lon="17.993423737900354"><ele>22.0</ele><time>2026-04-12T14:36:59.996Z</time></trkpt><trkpt lat="40.058289881503825" lon="17.99339140394922"><ele>21.200000000000003</ele><time>2026-04-12T14:37:00.996Z</time></trkpt><trkpt lat="40.058190345588265" lon="17.993367507349113"><ele>20.400000000000002</ele><time>2026-04-12T14:37:01.996Z</time></trkpt><trkpt lat="40.05809917580534" lon="17.993349072431748"><ele>19.6</ele><time>2026-04-12T14:37:02.996Z</time></trkpt><trkpt lat="40.058006839934414" lon="17.99332439522561"><ele>18.8</ele><time>2026-04-12T14:37:03.996Z</time></trkpt><trkpt lat="40.05792278389769" lon="17.993308658229328"><ele>18.0</ele><time>2026-04-12T14:37:04.996Z</time></trkpt><trkpt lat="40.05784106547567" lon="17.99329352095481"><ele>17.8</ele><time>2026-04-12T14:37:05.996Z</time></trkpt><trkpt lat="40.057765754971484" lon="17.99327020215588"><ele>17.6</ele><time>2026-04-12T14:37:06.996Z</time></trkpt><trkpt lat="40.057691670050005" lon="17.993230588960778"><ele>17.4</ele><time>2026-04-12T14:37:08.996Z</time></trkpt><trkpt lat="40.05759240271096" lon="17.993195110123626"><ele>17.2</ele><time>2026-04-12T14:37:13.996Z</time></trkpt><trkpt lat="40.0575009403143" lon="17.99316612425697"><ele>17.0</ele><time>2026-04-12T14:37:14.996Z</time></trkpt><trkpt lat="40.05740179028195" lon="17.993135034441842"><ele>17.0</ele><time>2026-04-12T14:37:15.996Z</time></trkpt><trkpt lat="40.0573147322394" lon="17.99309973885019"><ele>17.0</ele><time>2026-04-12T14:37:16.996Z</time></trkpt><trkpt lat="40.05722995620606" lon="17.993067713305482"><ele>17.0</ele><time>2026-04-12T14:37:17.996Z</time></trkpt><trkpt lat="40.05715743788762" lon="17.993056361286797"><ele>17.0</ele><time>2026-04-12T14:37:18.996Z</time></trkpt><trkpt lat="40.05708841599251" lon="17.993049173253585"><ele>17.0</ele><time>2026-04-12T14:37:19.996Z</time></trkpt><trkpt lat="40.056968290965585" lon="17.993022184875375"><ele>17.0</ele><time>2026-04-12T14:37:21.996Z</time></trkpt><trkpt lat="40.05687201807123" lon="17.992976483878888"><ele>17.0</ele><time>2026-04-12T14:37:23.996Z</time></trkpt><trkpt lat="40.05674369346537" lon="17.99294580407457"><ele>17.0</ele><time>2026-04-12T14:37:25.996Z</time></trkpt><trkpt lat="40.05667476327652" lon="17.992923634583732"><ele>17.0</ele><time>2026-04-12T14:37:26.996Z</time></trkpt><trkpt lat="40.05660168960749" lon="17.992902605920694"><ele>17.0</ele><time>2026-04-12T14:37:27.996Z</time></trkpt><trkpt lat="40.05652920447853" lon="17.992880686142453"><ele>17.0</ele><time>2026-04-12T14:37:28.996Z</time></trkpt><trkpt lat="40.056458861542396" lon="17.992848089742328"><ele>17.0</ele><time>2026-04-12T14:37:29.996Z</time></trkpt><trkpt lat="40.05639095054954" lon="17.99281715605936"><ele>17.0</ele><time>2026-04-12T14:37:30.996Z</time></trkpt><trkpt lat="40.05632655650831" lon="17.99279266474788"><ele>17.0</ele><time>2026-04-12T14:37:31.996Z</time></trkpt><trkpt lat="40.056235424681695" lon="17.992707024135374"><ele>17.0</ele><time>2026-04-12T14:37:33.996Z</time></trkpt><trkpt lat="40.05618157185424" lon="17.99258758624284"><ele>17.0</ele><time>2026-04-12T14:37:35.996Z</time></trkpt><trkpt lat="40.056148751912225" lon="17.992505966730594"><ele>17.0</ele><time>2026-04-12T14:37:37.996Z</time></trkpt><trkpt lat="40.056108756028294" lon="17.992439044092244"><ele>17.0</ele><time>2026-04-12T14:37:40.996Z</time></trkpt><trkpt lat="40.05605782634146" lon="17.992371372539274"><ele>17.166666666666668</ele><time>2026-04-12T14:37:43.996Z</time></trkpt><trkpt lat="40.055989461730725" lon="17.99232706870923"><ele>17.333333333333336</ele><time>2026-04-12T14:37:46.996Z</time></trkpt><trkpt lat="40.055951564520335" lon="17.99221309313877"><ele>17.5</ele><time>2026-04-12T14:37:49.996Z</time></trkpt><trkpt lat="40.055958349429744" lon="17.992067535542237"><ele>17.666666666666668</ele><time>2026-04-12T14:37:51.996Z</time></trkpt><trkpt lat="40.05596078814468" lon="17.991978913574847"><ele>17.833333333333332</ele><time>2026-04-12T14:37:52.996Z</time></trkpt><trkpt lat="40.055977471557725" lon="17.99189378321048"><ele>18.0</ele><time>2026-04-12T14:37:53.996Z</time></trkpt><trkpt lat="40.05599083909403" lon="17.991728606792115"><ele>17.833333333333332</ele><time>2026-04-12T14:37:55.996Z</time></trkpt><trkpt lat="40.05599392469325" lon="17.991631916113658"><ele>17.666666666666668</ele><time>2026-04-12T14:37:56.996Z</time></trkpt><trkpt lat="40.05600730939285" lon="17.99152929994187"><ele>17.5</ele><time>2026-04-12T14:37:57.996Z</time></trkpt><trkpt lat="40.05601117694511" lon="17.99141557679917"><ele>17.333333333333336</ele><time>2026-04-12T14:37:58.996Z</time></trkpt><trkpt lat="40.05601361055915" lon="17.991315196801605"><ele>17.166666666666668</ele><time>2026-04-12T14:37:59.996Z</time></trkpt><trkpt lat="40.05601786123784" lon="17.991216776427876"><ele>17.0</ele><time>2026-04-12T14:38:00.996Z</time></trkpt><trkpt lat="40.056023851683804" lon="17.991116936378063"><ele>16.999999999999996</ele><time>2026-04-12T14:38:01.996Z</time></trkpt><trkpt lat="40.056020149745734" lon="17.991011613354832"><ele>17.0</ele><time>2026-04-12T14:38:02.996Z</time></trkpt><trkpt lat="40.056018645478346" lon="17.990912332629517"><ele>17.0</ele><time>2026-04-12T14:38:03.996Z</time></trkpt><trkpt lat="40.056019471446724" lon="17.990812681305"><ele>17.0</ele><time>2026-04-12T14:38:04.996Z</time></trkpt><trkpt lat="40.056016973793994" lon="17.99071763108059"><ele>17.0</ele><time>2026-04-12T14:38:05.996Z</time></trkpt><trkpt lat="40.05602124113656" lon="17.990624856200533"><ele>16.999999999999996</ele><time>2026-04-12T14:38:06.996Z</time></trkpt><trkpt lat="40.05602229160182" lon="17.99053236354815"><ele>17.0</ele><time>2026-04-12T14:38:07.996Z</time></trkpt><trkpt lat="40.05602036556523" lon="17.990438771948547"><ele>16.833333333333336</ele><time>2026-04-12T14:38:08.996Z</time></trkpt><trkpt lat="40.056024626052064" lon="17.99034137727985"><ele>16.666666666666668</ele><time>2026-04-12T14:38:09.996Z</time></trkpt><trkpt lat="40.05602371962228" lon="17.990250820066144"><ele>16.5</ele><time>2026-04-12T14:38:10.996Z</time></trkpt><trkpt lat="40.056019559011716" lon="17.9901550728154"><ele>16.333333333333332</ele><time>2026-04-12T14:38:11.996Z</time></trkpt><trkpt lat="40.05602204534037" lon="17.990056293492643"><ele>16.166666666666664</ele><time>2026-04-12T14:38:12.996Z</time></trkpt><trkpt lat="40.05602005559579" lon="17.989947201722245"><ele>16.0</ele><time>2026-04-12T14:38:13.996Z</time></trkpt><trkpt lat="40.056019830273314" lon="17.98984232999175"><ele>15.714285714285714</ele><time>2026-04-12T14:38:14.996Z</time></trkpt><trkpt lat="40.05602344544724" lon="17.98973425513643"><ele>15.428571428571427</ele><time>2026-04-12T14:38:15.996Z</time></trkpt><trkpt lat="40.05602964828464" lon="17.98963611262471"><ele>15.142857142857142</ele><time>2026-04-12T14:38:16.996Z</time></trkpt><trkpt lat="40.05602859291272" lon="17.98954925135961"><ele>14.857142857142858</ele><time>2026-04-12T14:38:17.996Z</time></trkpt><trkpt lat="40.05603717468378" lon="17.9894575154912"><ele>14.571428571428571</ele><time>2026-04-12T14:38:18.996Z</time></trkpt><trkpt lat="40.05604181439722" lon="17.989359943479606"><ele>14.285714285714285</ele><time>2026-04-12T14:38:19.996Z</time></trkpt><trkpt lat="40.05604429333679" lon="17.989271298899986"><ele>14.0</ele><time>2026-04-12T14:38:20.996Z</time></trkpt><trkpt lat="40.0560471818388" lon="17.989180086779104"><ele>13.333333333333334</ele><time>2026-04-12T14:38:21.996Z</time></trkpt><trkpt lat="40.05605112759625" lon="17.989083941735228"><ele>12.666666666666668</ele><time>2026-04-12T14:38:22.996Z</time></trkpt><trkpt lat="40.05605520971597" lon="17.98897661010527"><ele>12.0</ele><time>2026-04-12T14:38:23.996Z</time></trkpt><trkpt lat="40.05605411783742" lon="17.98886119195857"><ele>11.333333333333334</ele><time>2026-04-12T14:38:24.996Z</time></trkpt><trkpt lat="40.05605524970654" lon="17.988737375097195"><ele>10.666666666666668</ele><time>2026-04-12T14:38:25.996Z</time></trkpt><trkpt lat="40.05606371797614" lon="17.988623410756322"><ele>10.0</ele><time>2026-04-12T14:38:26.996Z</time></trkpt><trkpt lat="40.05606663587386" lon="17.988516536098622"><ele>10.0</ele><time>2026-04-12T14:38:27.996Z</time></trkpt><trkpt lat="40.05606539587064" lon="17.988416949565757"><ele>10.0</ele><time>2026-04-12T14:38:28.996Z</time></trkpt><trkpt lat="40.05606395740086" lon="17.988327454166285"><ele>10.0</ele><time>2026-04-12T14:38:29.996Z</time></trkpt><trkpt lat="40.056064475524" lon="17.988240466604754"><ele>10.0</ele><time>2026-04-12T14:38:30.996Z</time></trkpt><trkpt lat="40.05606450035043" lon="17.988149347267697"><ele>10.0</ele><time>2026-04-12T14:38:31.996Z</time></trkpt><trkpt lat="40.05606580127098" lon="17.988057076255494"><ele>10.0</ele><time>2026-04-12T14:38:32.996Z</time></trkpt><trkpt lat="40.056064497718616" lon="17.987971708662077"><ele>10.0</ele><time>2026-04-12T14:38:33.996Z</time></trkpt><trkpt lat="40.05606459776167" lon="17.987879416498544"><ele>10.0</ele><time>2026-04-12T14:38:34.995Z</time></trkpt><trkpt lat="40.056071654738275" lon="17.987789843176778"><ele>10.0</ele><time>2026-04-12T14:38:35.995Z</time></trkpt><trkpt lat="40.0560728445182" lon="17.987624186089114"><ele>10.0</ele><time>2026-04-12T14:38:37.995Z</time></trkpt><trkpt lat="40.05608122077391" lon="17.98747092833112"><ele>10.0</ele><time>2026-04-12T14:38:39.995Z</time></trkpt><trkpt lat="40.05608645803947" lon="17.98732667685317"><ele>10.0</ele><time>2026-04-12T14:38:41.995Z</time></trkpt><trkpt lat="40.05609070159482" lon="17.98716970199464"><ele>10.166666666666668</ele><time>2026-04-12T14:38:43.995Z</time></trkpt><trkpt lat="40.05609222424465" lon="17.98701681745605"><ele>10.333333333333334</ele><time>2026-04-12T14:38:45.995Z</time></trkpt><trkpt lat="40.05609762978344" lon="17.986929277228164"><ele>10.5</ele><time>2026-04-12T14:38:46.995Z</time></trkpt><trkpt lat="40.056091142456445" lon="17.986840590953683"><ele>10.666666666666666</ele><time>2026-04-12T14:38:47.995Z</time></trkpt><trkpt lat="40.056091497492694" lon="17.986735221819444"><ele>10.833333333333332</ele><time>2026-04-12T14:38:48.995Z</time></trkpt><trkpt lat="40.05609285408284" lon="17.986618158328444"><ele>11.0</ele><time>2026-04-12T14:38:49.995Z</time></trkpt><trkpt lat="40.05609056759655" lon="17.986478860680588"><ele>10.600000000000001</ele><time>2026-04-12T14:38:50.995Z</time></trkpt><trkpt lat="40.05609623821754" lon="17.986351314370612"><ele>10.200000000000001</ele><time>2026-04-12T14:38:51.995Z</time></trkpt><trkpt lat="40.05610152663484" lon="17.986237688817607"><ele>9.8</ele><time>2026-04-12T14:38:52.995Z</time></trkpt><trkpt lat="40.056107342600484" lon="17.986120324241703"><ele>9.4</ele><time>2026-04-12T14:38:53.995Z</time></trkpt><trkpt lat="40.05611058613417" lon="17.98600239880458"><ele>9.0</ele><time>2026-04-12T14:38:54.995Z</time></trkpt><trkpt lat="40.056115075722296" lon="17.985888808655385"><ele>8.5</ele><time>2026-04-12T14:38:55.995Z</time></trkpt><trkpt lat="40.05612274356401" lon="17.98576943395468"><ele>8.0</ele><time>2026-04-12T14:38:56.995Z</time></trkpt><trkpt lat="40.05612440720801" lon="17.985655303288695"><ele>7.5</ele><time>2026-04-12T14:38:57.995Z</time></trkpt><trkpt lat="40.05613174022683" lon="17.98554950523831"><ele>7.0</ele><time>2026-04-12T14:38:58.995Z</time></trkpt><trkpt lat="40.056134569621896" lon="17.985449556274958"><ele>6.5</ele><time>2026-04-12T14:38:59.995Z</time></trkpt><trkpt lat="40.05613738596724" lon="17.985335402666735"><ele>6.0</ele><time>2026-04-12T14:39:00.995Z</time></trkpt><trkpt lat="40.0561389683467" lon="17.985196585127092"><ele>6.0</ele><time>2026-04-12T14:39:01.995Z</time></trkpt><trkpt lat="40.056136839242086" lon="17.98503285699961"><ele>6.0</ele><time>2026-04-12T14:39:02.995Z</time></trkpt><trkpt lat="40.056138498866595" lon="17.984845469190326"><ele>6.0</ele><time>2026-04-12T14:39:03.995Z</time></trkpt><trkpt lat="40.05613339546841" lon="17.98465501714775"><ele>6.0</ele><time>2026-04-12T14:39:04.995Z</time></trkpt><trkpt lat="40.05613268130806" lon="17.98448374390049"><ele>5.5</ele><time>2026-04-12T14:39:05.995Z</time></trkpt><trkpt lat="40.05613485374579" lon="17.98431124837709"><ele>5.0</ele><time>2026-04-12T14:39:06.995Z</time></trkpt><trkpt lat="40.05613923141777" lon="17.984150865445084"><ele>4.5</ele><time>2026-04-12T14:39:07.995Z</time></trkpt><trkpt lat="40.056141479206715" lon="17.984000953294792"><ele>4.0</ele><time>2026-04-12T14:39:08.995Z</time></trkpt><trkpt lat="40.05614209821852" lon="17.98386612147255"><ele>3.833333333333333</ele><time>2026-04-12T14:39:09.995Z</time></trkpt><trkpt lat="40.0561416363467" lon="17.983739479390973"><ele>3.6666666666666665</ele><time>2026-04-12T14:39:10.995Z</time></trkpt><trkpt lat="40.056144337847414" lon="17.983635804407633"><ele>3.5</ele><time>2026-04-12T14:39:11.995Z</time></trkpt><trkpt lat="40.056143021192774" lon="17.98350199636325"><ele>3.333333333333333</ele><time>2026-04-12T14:39:13.995Z</time></trkpt><trkpt lat="40.056086449780025" lon="17.983418248395083"><ele>3.1666666666666665</ele><time>2026-04-12T14:39:16.995Z</time></trkpt><trkpt lat="40.05601558362315" lon="17.98343892827355"><ele>3.0</ele><time>2026-04-12T14:39:17.995Z</time></trkpt><trkpt lat="40.05593853654779" lon="17.983443091374536"><ele>3.0</ele><time>2026-04-12T14:39:18.995Z</time></trkpt><trkpt lat="40.05585609819995" lon="17.983438659543552"><ele>3.0</ele><time>2026-04-12T14:39:19.995Z</time></trkpt><trkpt lat="40.05576950010189" lon="17.983432968860253"><ele>3.0</ele><time>2026-04-12T14:39:20.995Z</time></trkpt><trkpt lat="40.05567609277526" lon="17.98342170793498"><ele>3.0</ele><time>2026-04-12T14:39:21.995Z</time></trkpt><trkpt lat="40.05558140286262" lon="17.983408833590456"><ele>3.0</ele><time>2026-04-12T14:39:22.995Z</time></trkpt><trkpt lat="40.05550344023032" lon="17.983404022770234"><ele>3.0</ele><time>2026-04-12T14:39:23.995Z</time></trkpt><trkpt lat="40.05543891558079" lon="17.983396549699417"><ele>2.6</ele><time>2026-04-12T14:39:24.995Z</time></trkpt><trkpt lat="40.055323253125366" lon="17.983398874253435"><ele>2.1999999999999997</ele><time>2026-04-12T14:39:26.995Z</time></trkpt><trkpt lat="40.05521528241826" lon="17.98342780904043"><ele>1.8</ele><time>2026-04-12T14:39:28.995Z</time></trkpt><trkpt lat="40.05513971429196" lon="17.98344467806453"><ele>1.4</ele><time>2026-04-12T14:39:30.995Z</time></trkpt><trkpt lat="40.05505722044708" lon="17.983438007120597"><ele>1.0</ele><time>2026-04-12T14:39:46.995Z</time></trkpt><trkpt lat="40.05500653529963" lon="17.983521007488804"><ele>0.9999999999999999</ele><time>2026-04-12T14:39:48.995Z</time></trkpt><trkpt lat="40.05501444281078" lon="17.983669993450402"><ele>1.0</ele><time>2026-04-12T14:39:50.995Z</time></trkpt><trkpt lat="40.05501887474838" lon="17.983755849517795"><ele>1.0</ele><time>2026-04-12T14:39:51.995Z</time></trkpt><trkpt lat="40.05502740486278" lon="17.983851356180413"><ele>1.0</ele><time>2026-04-12T14:39:52.995Z</time></trkpt><trkpt lat="40.055030033533896" lon="17.983953637093244"><ele>0.9999999999999999</ele><time>2026-04-12T14:39:53.995Z</time></trkpt><trkpt lat="40.05503376721797" lon="17.9840611207824"><ele>1.0</ele><time>2026-04-12T14:39:54.995Z</time></trkpt><trkpt lat="40.05503082137487" lon="17.9841552994416"><ele>0.8571428571428571</ele><time>2026-04-12T14:39:55.995Z</time></trkpt><trkpt lat="40.055016982584" lon="17.98424730877379"><ele>0.7142857142857142</ele><time>2026-04-12T14:39:56.995Z</time></trkpt><trkpt lat="40.05499354857139" lon="17.984342024566168"><ele>0.5714285714285714</ele><time>2026-04-12T14:39:57.995Z</time></trkpt><trkpt lat="40.0549710655967" lon="17.984422802244133"><ele>0.42857142857142855</ele><time>2026-04-12T14:39:58.995Z</time></trkpt><trkpt lat="40.05494003394747" lon="17.98450496903127"><ele>0.2857142857142857</ele><time>2026-04-12T14:39:59.995Z</time></trkpt><trkpt lat="40.05490567201321" lon="17.98457398772108"><ele>0.14285714285714285</ele><time>2026-04-12T14:40:00.995Z</time></trkpt><trkpt lat="40.054868285042524" lon="17.98465471041152"><ele>0.0</ele><time>2026-04-12T14:40:01.995Z</time></trkpt><trkpt lat="40.05483289745556" lon="17.98474862824888"><ele>0.0</ele><time>2026-04-12T14:40:02.995Z</time></trkpt><trkpt lat="40.05479571441038" lon="17.984854045557363"><ele>0.0</ele><time>2026-04-12T14:40:03.995Z</time></trkpt><trkpt lat="40.05475633911156" lon="17.984990990497913"><ele>0.0</ele><time>2026-04-12T14:40:04.995Z</time></trkpt><trkpt lat="40.054712063210275" lon="17.985155426747532"><ele>0.0</ele><time>2026-04-12T14:40:05.995Z</time></trkpt><trkpt lat="40.05464232526754" lon="17.98533213623437"><ele>0.3333333333333333</ele><time>2026-04-12T14:40:06.995Z</time></trkpt><trkpt lat="40.054561585441874" lon="17.985511659398878"><ele>0.6666666666666666</ele><time>2026-04-12T14:40:07.995Z</time></trkpt><trkpt lat="40.05449211376633" lon="17.985685152078627"><ele>1.0</ele><time>2026-04-12T14:40:08.995Z</time></trkpt><trkpt lat="40.05444358510819" lon="17.985872264488815"><ele>1.5</ele><time>2026-04-12T14:40:09.995Z</time></trkpt><trkpt lat="40.05440582677558" lon="17.986049234500637"><ele>2.0</ele><time>2026-04-12T14:40:10.995Z</time></trkpt><trkpt lat="40.05437021469854" lon="17.986217873067208"><ele>2.5</ele><time>2026-04-12T14:40:11.995Z</time></trkpt><trkpt lat="40.05433253745516" lon="17.986382974172848"><ele>3.0</ele><time>2026-04-12T14:40:12.995Z</time></trkpt><trkpt lat="40.05428563339289" lon="17.98653717849324"><ele>3.75</ele><time>2026-04-12T14:40:13.995Z</time></trkpt><trkpt lat="40.05426666797946" lon="17.986691398724414"><ele>4.5</ele><time>2026-04-12T14:40:14.995Z</time></trkpt><trkpt lat="40.0542335565583" lon="17.986839693532165"><ele>5.25</ele><time>2026-04-12T14:40:15.995Z</time></trkpt><trkpt lat="40.054205546366404" lon="17.98699214741816"><ele>6.0</ele><time>2026-04-12T14:40:16.995Z</time></trkpt><trkpt lat="40.054182672979294" lon="17.987146204858508"><ele>6.0</ele><time>2026-04-12T14:40:17.995Z</time></trkpt><trkpt lat="40.05416729877227" lon="17.987290477746843"><ele>6.0</ele><time>2026-04-12T14:40:18.995Z</time></trkpt><trkpt lat="40.054152168612724" lon="17.987424441760556"><ele>6.0</ele><time>2026-04-12T14:40:19.995Z</time></trkpt><trkpt lat="40.05413687613449" lon="17.98754308046689"><ele>6.0</ele><time>2026-04-12T14:40:20.995Z</time></trkpt><trkpt lat="40.0541262442387" lon="17.987655430217686"><ele>6.0</ele><time>2026-04-12T14:40:21.995Z</time></trkpt><trkpt lat="40.05410453170857" lon="17.987779802149756"><ele>5.2</ele><time>2026-04-12T14:40:22.995Z</time></trkpt><trkpt lat="40.05407595905191" lon="17.987913757208066"><ele>4.3999999999999995</ele><time>2026-04-12T14:40:23.995Z</time></trkpt><trkpt lat="40.05405097347986" lon="17.98804379721537"><ele>3.6</ele><time>2026-04-12T14:40:24.996Z</time></trkpt><trkpt lat="40.05402359718918" lon="17.98815661566021"><ele>2.8</ele><time>2026-04-12T14:40:25.996Z</time></trkpt><trkpt lat="40.05399882326349" lon="17.988267494624445"><ele>2.0</ele><time>2026-04-12T14:40:26.996Z</time></trkpt><trkpt lat="40.053976400826194" lon="17.988371444710484"><ele>2.0</ele><time>2026-04-12T14:40:27.996Z</time></trkpt><trkpt lat="40.05395573092564" lon="17.988466353234617"><ele>2.0</ele><time>2026-04-12T14:40:28.995Z</time></trkpt><trkpt lat="40.05393376688244" lon="17.98855372704383"><ele>2.0</ele><time>2026-04-12T14:40:29.995Z</time></trkpt><trkpt lat="40.05391049578434" lon="17.98865922237695"><ele>2.0</ele><time>2026-04-12T14:40:30.995Z</time></trkpt><trkpt lat="40.053889250564545" lon="17.988792691729124"><ele>2.0</ele><time>2026-04-12T14:40:31.995Z</time></trkpt><trkpt lat="40.0538697816408" lon="17.988957890248862"><ele>2.0</ele><time>2026-04-12T14:40:32.995Z</time></trkpt><trkpt lat="40.053870962325334" lon="17.989150420891278"><ele>2.0</ele><time>2026-04-12T14:40:33.995Z</time></trkpt><trkpt lat="40.05386972126761" lon="17.989343000273248"><ele>2.0</ele><time>2026-04-12T14:40:34.996Z</time></trkpt><trkpt lat="40.05385607373444" lon="17.989495712342315"><ele>2.0</ele><time>2026-04-12T14:40:35.996Z</time></trkpt><trkpt lat="40.05385574659091" lon="17.989632098099264"><ele>1.8333333333333333</ele><time>2026-04-12T14:40:36.996Z</time></trkpt><trkpt lat="40.05385000656168" lon="17.98977208725752"><ele>1.6666666666666665</ele><time>2026-04-12T14:40:37.995Z</time></trkpt><trkpt lat="40.053845941809364" lon="17.989879183535297"><ele>1.5</ele><time>2026-04-12T14:40:38.995Z</time></trkpt><trkpt lat="40.05383659574288" lon="17.98998006488971"><ele>1.3333333333333333</ele><time>2026-04-12T14:40:39.995Z</time></trkpt><trkpt lat="40.053818408156886" lon="17.99007930598286"><ele>1.1666666666666665</ele><time>2026-04-12T14:40:40.995Z</time></trkpt><trkpt lat="40.05379186042178" lon="17.99018655732922"><ele>1.0</ele><time>2026-04-12T14:40:41.995Z</time></trkpt><trkpt lat="40.05376969690024" lon="17.990302219526605"><ele>1.5</ele><time>2026-04-12T14:40:42.995Z</time></trkpt><trkpt lat="40.053749737901754" lon="17.990409803557128"><ele>2.0</ele><time>2026-04-12T14:40:43.995Z</time></trkpt><trkpt lat="40.05371482210251" lon="17.990505647774356"><ele>2.5</ele><time>2026-04-12T14:40:44.995Z</time></trkpt><trkpt lat="40.05368940774572" lon="17.990593240647346"><ele>3.0</ele><time>2026-04-12T14:40:45.995Z</time></trkpt><trkpt lat="40.05365510942695" lon="17.990668945554834"><ele>3.4999999999999996</ele><time>2026-04-12T14:40:46.995Z</time></trkpt><trkpt lat="40.05360530619261" lon="17.990811008076054"><ele>4.0</ele><time>2026-04-12T14:40:48.995Z</time></trkpt><trkpt lat="40.053553639805784" lon="17.990940988849655"><ele>4.333333333333333</ele><time>2026-04-12T14:40:50.995Z</time></trkpt><trkpt lat="40.05349792640259" lon="17.9910906025949"><ele>4.666666666666666</ele><time>2026-04-12T14:40:52.995Z</time></trkpt><trkpt lat="40.05347109894946" lon="17.99117446537322"><ele>5.0</ele><time>2026-04-12T14:40:53.995Z</time></trkpt><trkpt lat="40.05344290007812" lon="17.991258884382116"><ele>5.333333333333333</ele><time>2026-04-12T14:40:54.995Z</time></trkpt><trkpt lat="40.053417460983944" lon="17.991341181309608"><ele>5.666666666666667</ele><time>2026-04-12T14:40:55.995Z</time></trkpt><trkpt lat="40.053389260580985" lon="17.99142596596186"><ele>6.0</ele><time>2026-04-12T14:40:56.995Z</time></trkpt><trkpt lat="40.05335954592971" lon="17.991511006870393"><ele>5.999999999999999</ele><time>2026-04-12T14:40:57.995Z</time></trkpt><trkpt lat="40.05332972034677" lon="17.991595031023046"><ele>6.0</ele><time>2026-04-12T14:40:58.995Z</time></trkpt><trkpt lat="40.05329923150785" lon="17.991673570172242"><ele>6.0</ele><time>2026-04-12T14:40:59.995Z</time></trkpt><trkpt lat="40.053275259093475" lon="17.99175087290923"><ele>6.0</ele><time>2026-04-12T14:41:00.995Z</time></trkpt><trkpt lat="40.05325192674392" lon="17.991829618688378"><ele>6.0</ele><time>2026-04-12T14:41:01.995Z</time></trkpt><trkpt lat="40.05322878985533" lon="17.99190941157774"><ele>5.999999999999999</ele><time>2026-04-12T14:41:02.995Z</time></trkpt><trkpt lat="40.05317952267408" lon="17.992041446845704"><ele>6.0</ele><time>2026-04-12T14:41:04.995Z</time></trkpt><trkpt lat="40.05313503279783" lon="17.992150963969003"><ele>6.0</ele><time>2026-04-12T14:41:06.995Z</time></trkpt><trkpt lat="40.05308661432396" lon="17.992270401570977"><ele>6.0</ele><time>2026-04-12T14:41:08.995Z</time></trkpt><trkpt lat="40.05303490084564" lon="17.99240628625603"><ele>6.0</ele><time>2026-04-12T14:41:10.995Z</time></trkpt><trkpt lat="40.052987223115785" lon="17.99251935475438"><ele>6.0</ele><time>2026-04-12T14:41:12.995Z</time></trkpt><trkpt lat="40.052947316675684" lon="17.992618618727043"><ele>6.0</ele><time>2026-04-12T14:41:14.995Z</time></trkpt><trkpt lat="40.052918923771685" lon="17.99276816505471"><ele>6.0</ele><time>2026-04-12T14:41:16.995Z</time></trkpt><trkpt lat="40.05288271094264" lon="17.992875819470427"><ele>6.0</ele><time>2026-04-12T14:41:17.995Z</time></trkpt><trkpt lat="40.05283371066247" lon="17.99301978912519"><ele>6.0</ele><time>2026-04-12T14:41:18.995Z</time></trkpt><trkpt lat="40.052781929155366" lon="17.993183218100494"><ele>6.0</ele><time>2026-04-12T14:41:19.995Z</time></trkpt><trkpt lat="40.052714937003174" lon="17.993363908033555"><ele>7.333333333333334</ele><time>2026-04-12T14:41:20.995Z</time></trkpt><trkpt lat="40.05264756697592" lon="17.99355743211696"><ele>8.666666666666668</ele><time>2026-04-12T14:41:21.995Z</time></trkpt><trkpt lat="40.05257665562368" lon="17.993750196030884"><ele>10.0</ele><time>2026-04-12T14:41:22.995Z</time></trkpt><trkpt lat="40.052508261814474" lon="17.993950265241505"><ele>7.666666666666667</ele><time>2026-04-12T14:41:23.995Z</time></trkpt><trkpt lat="40.05243636172985" lon="17.9941477184502"><ele>5.333333333333334</ele><time>2026-04-12T14:41:24.995Z</time></trkpt><trkpt lat="40.052369524550954" lon="17.994341795063537"><ele>3.0</ele><time>2026-04-12T14:41:25.995Z</time></trkpt><trkpt lat="40.0523082682705" lon="17.994512988875588"><ele>2.75</ele><time>2026-04-12T14:41:26.995Z</time></trkpt><trkpt lat="40.0522516932163" lon="17.994693962342016"><ele>2.5</ele><time>2026-04-12T14:41:27.995Z</time></trkpt><trkpt lat="40.05219496872445" lon="17.99487613802531"><ele>2.25</ele><time>2026-04-12T14:41:28.995Z</time></trkpt><trkpt lat="40.05213679069516" lon="17.995050991410274"><ele>2.0</ele><time>2026-04-12T14:41:29.995Z</time></trkpt><trkpt lat="40.05207538486466" lon="17.995222316239662"><ele>2.5</ele><time>2026-04-12T14:41:30.995Z</time></trkpt><trkpt lat="40.05201990413606" lon="17.99539619345696"><ele>3.0</ele><time>2026-04-12T14:41:31.995Z</time></trkpt><trkpt lat="40.051961086865724" lon="17.995572763237234"><ele>3.5</ele><time>2026-04-12T14:41:32.995Z</time></trkpt><trkpt lat="40.05190311710817" lon="17.99573815799993"><ele>4.0</ele><time>2026-04-12T14:41:33.995Z</time></trkpt><trkpt lat="40.051853104662634" lon="17.995891055848055"><ele>5.25</ele><time>2026-04-12T14:41:34.995Z</time></trkpt><trkpt lat="40.05180956729972" lon="17.996037099820462"><ele>6.5</ele><time>2026-04-12T14:41:35.995Z</time></trkpt><trkpt lat="40.05176233828531" lon="17.996181719652395"><ele>7.75</ele><time>2026-04-12T14:41:36.995Z</time></trkpt><trkpt lat="40.05171175148695" lon="17.996329382703042"><ele>9.0</ele><time>2026-04-12T14:41:37.995Z</time></trkpt><trkpt lat="40.05166025127865" lon="17.99647941245865"><ele>7.6000000000000005</ele><time>2026-04-12T14:41:38.995Z</time></trkpt><trkpt lat="40.05161386983182" lon="17.99662025045859"><ele>6.2</ele><time>2026-04-12T14:41:39.995Z</time></trkpt><trkpt lat="40.05156985044841" lon="17.99675248843825"><ele>4.800000000000001</ele><time>2026-04-12T14:41:40.995Z</time></trkpt><trkpt lat="40.05152700705424" lon="17.99687848243058"><ele>3.4000000000000004</ele><time>2026-04-12T14:41:41.995Z</time></trkpt><trkpt lat="40.051485310680114" lon="17.996995150598462"><ele>2.0</ele><time>2026-04-12T14:41:42.995Z</time></trkpt><trkpt lat="40.051443946578274" lon="17.997112983713077"><ele>2.0</ele><time>2026-04-12T14:41:43.995Z</time></trkpt><trkpt lat="40.05140032376581" lon="17.997244220020605"><ele>2.0</ele><time>2026-04-12T14:41:44.995Z</time></trkpt><trkpt lat="40.051358068836066" lon="17.99737490420505"><ele>2.0</ele><time>2026-04-12T14:41:45.995Z</time></trkpt><trkpt lat="40.051313702670036" lon="17.99750530497731"><ele>2.0</ele><time>2026-04-12T14:41:46.995Z</time></trkpt><trkpt lat="40.05126398747672" lon="17.99763735038423"><ele>2.0</ele><time>2026-04-12T14:41:47.995Z</time></trkpt><trkpt lat="40.051211296849075" lon="17.997769349794627"><ele>2.5</ele><time>2026-04-12T14:41:48.995Z</time></trkpt><trkpt lat="40.051154742348025" lon="17.997898489145616"><ele>3.0</ele><time>2026-04-12T14:41:49.995Z</time></trkpt><trkpt lat="40.05108676841022" lon="17.998034484785656"><ele>3.5</ele><time>2026-04-12T14:41:50.995Z</time></trkpt><trkpt lat="40.0510148736864" lon="17.998170632457104"><ele>4.0</ele><time>2026-04-12T14:41:51.995Z</time></trkpt><trkpt lat="40.0509405727625" lon="17.998301027025406"><ele>4.0</ele><time>2026-04-12T14:41:52.995Z</time></trkpt><trkpt lat="40.05086022176219" lon="17.9984333001686"><ele>4.0</ele><time>2026-04-12T14:41:53.995Z</time></trkpt><trkpt lat="40.05077420902195" lon="17.99856834237818"><ele>4.0</ele><time>2026-04-12T14:41:54.995Z</time></trkpt><trkpt lat="40.05068015606857" lon="17.998707863509285"><ele>4.0</ele><time>2026-04-12T14:41:55.995Z</time></trkpt><trkpt lat="40.05058006801979" lon="17.998851763548544"><ele>4.0</ele><time>2026-04-12T14:41:56.995Z</time></trkpt><trkpt lat="40.05047533452179" lon="17.999000904946012"><ele>4.0</ele><time>2026-04-12T14:41:57.995Z</time></trkpt><trkpt lat="40.050371449916604" lon="17.999151305397817"><ele>4.0</ele><time>2026-04-12T14:41:58.995Z</time></trkpt><trkpt lat="40.05026471614031" lon="17.999307895779378"><ele>3.0</ele><time>2026-04-12T14:41:59.995Z</time></trkpt><trkpt lat="40.05016207657992" lon="17.99945962683945"><ele>2.0</ele><time>2026-04-12T14:42:00.995Z</time></trkpt><trkpt lat="40.0500717469101" lon="17.999597484677793"><ele>1.0</ele><time>2026-04-12T14:42:01.995Z</time></trkpt><trkpt lat="40.04998871224513" lon="17.999721069487762"><ele>0.0</ele><time>2026-04-12T14:42:02.995Z</time></trkpt><trkpt lat="40.049912645217184" lon="17.999835226933588"><ele>0.0</ele><time>2026-04-12T14:42:03.995Z</time></trkpt><trkpt lat="40.04984255977572" lon="17.99994096951306"><ele>0.0</ele><time>2026-04-12T14:42:04.995Z</time></trkpt><trkpt lat="40.04977363832594" lon="18.00004000907322"><ele>0.0</ele><time>2026-04-12T14:42:05.995Z</time></trkpt><trkpt lat="40.04970859469098" lon="18.000139016381475"><ele>0.0</ele><time>2026-04-12T14:42:06.995Z</time></trkpt><trkpt lat="40.04964211027528" lon="18.000239670490167"><ele>0.0</ele><time>2026-04-12T14:42:07.995Z</time></trkpt><trkpt lat="40.049577230254826" lon="18.000333720381295"><ele>0.0</ele><time>2026-04-12T14:42:08.995Z</time></trkpt><trkpt lat="40.04951650416083" lon="18.000426383175213"><ele>0.0</ele><time>2026-04-12T14:42:09.995Z</time></trkpt><trkpt lat="40.04945980768466" lon="18.00051318695529"><ele>0.0</ele><time>2026-04-12T14:42:10.995Z</time></trkpt><trkpt lat="40.049400862814764" lon="18.000601485830355"><ele>0.0</ele><time>2026-04-12T14:42:11.995Z</time></trkpt><trkpt lat="40.049342852361264" lon="18.000699216433947"><ele>0.0</ele><time>2026-04-12T14:42:12.995Z</time></trkpt><trkpt lat="40.04928861738492" lon="18.000800834363996"><ele>0.0</ele><time>2026-04-12T14:42:13.995Z</time></trkpt><trkpt lat="40.049237200429" lon="18.000905643793786"><ele>0.0</ele><time>2026-04-12T14:42:14.995Z</time></trkpt><trkpt lat="40.04918603302995" lon="18.00100801632276"><ele>0.0</ele><time>2026-04-12T14:42:15.995Z</time></trkpt><trkpt lat="40.04913851255558" lon="18.001105631430633"><ele>0.0</ele><time>2026-04-12T14:42:16.995Z</time></trkpt><trkpt lat="40.0490934206644" lon="18.001197277343365"><ele>0.0</ele><time>2026-04-12T14:42:17.995Z</time></trkpt><trkpt lat="40.049048799485924" lon="18.00128238025302"><ele>0.0</ele><time>2026-04-12T14:42:18.995Z</time></trkpt><trkpt lat="40.04900863548288" lon="18.00136555541929"><ele>0.0</ele><time>2026-04-12T14:42:19.995Z</time></trkpt><trkpt lat="40.0489667903617" lon="18.001451804585386"><ele>0.0</ele><time>2026-04-12T14:42:20.995Z</time></trkpt><trkpt lat="40.04892576480069" lon="18.001536728503922"><ele>0.0</ele><time>2026-04-12T14:42:21.995Z</time></trkpt><trkpt lat="40.048887392025854" lon="18.00161698995726"><ele>0.0</ele><time>2026-04-12T14:42:22.995Z</time></trkpt><trkpt lat="40.04884817269312" lon="18.001697066724784"><ele>0.0</ele><time>2026-04-12T14:42:23.995Z</time></trkpt><trkpt lat="40.04881333391563" lon="18.001779366188646"><ele>0.0</ele><time>2026-04-12T14:42:24.995Z</time></trkpt><trkpt lat="40.048774067501284" lon="18.001876717327388"><ele>0.6666666666666666</ele><time>2026-04-12T14:42:25.995Z</time></trkpt><trkpt lat="40.04873190695699" lon="18.001983402114483"><ele>1.3333333333333333</ele><time>2026-04-12T14:42:26.995Z</time></trkpt><trkpt lat="40.04868643728185" lon="18.002095329411187"><ele>2.0</ele><time>2026-04-12T14:42:27.995Z</time></trkpt><trkpt lat="40.04864399433984" lon="18.002205328606877"><ele>2.6666666666666665</ele><time>2026-04-12T14:42:28.995Z</time></trkpt><trkpt lat="40.04860210245302" lon="18.00229683836412"><ele>3.333333333333333</ele><time>2026-04-12T14:42:29.995Z</time></trkpt><trkpt lat="40.048563835427956" lon="18.00239244720524"><ele>4.0</ele><time>2026-04-12T14:42:30.995Z</time></trkpt><trkpt lat="40.04852884657248" lon="18.002495735488353"><ele>3.5</ele><time>2026-04-12T14:42:31.995Z</time></trkpt><trkpt lat="40.04847990662372" lon="18.002616656945282"><ele>3.0</ele><time>2026-04-12T14:42:32.995Z</time></trkpt><trkpt lat="40.04843280045624" lon="18.00275406514158"><ele>2.5</ele><time>2026-04-12T14:42:33.996Z</time></trkpt><trkpt lat="40.04838371695621" lon="18.00290076666219"><ele>2.0</ele><time>2026-04-12T14:42:34.995Z</time></trkpt><trkpt lat="40.048325585083255" lon="18.00306164963156"><ele>1.5</ele><time>2026-04-12T14:42:35.995Z</time></trkpt><trkpt lat="40.04826509170602" lon="18.003219907619016"><ele>1.0</ele><time>2026-04-12T14:42:36.995Z</time></trkpt><trkpt lat="40.04819654659661" lon="18.003375397502246"><ele>0.5</ele><time>2026-04-12T14:42:37.995Z</time></trkpt><trkpt lat="40.048125518033565" lon="18.003536797581965"><ele>0.0</ele><time>2026-04-12T14:42:38.995Z</time></trkpt><trkpt lat="40.04805076961772" lon="18.0036974241735"><ele>0.0</ele><time>2026-04-12T14:42:39.995Z</time></trkpt><trkpt lat="40.04797718837402" lon="18.00386116665417"><ele>0.0</ele><time>2026-04-12T14:42:40.995Z</time></trkpt><trkpt lat="40.04788582639295" lon="18.004021931063928"><ele>0.0</ele><time>2026-04-12T14:42:41.995Z</time></trkpt><trkpt lat="40.047793031568666" lon="18.004189641615735"><ele>0.3333333333333333</ele><time>2026-04-12T14:42:42.996Z</time></trkpt><trkpt lat="40.04770248610782" lon="18.004361528168914"><ele>0.6666666666666666</ele><time>2026-04-12T14:42:43.995Z</time></trkpt><trkpt lat="40.047605690250315" lon="18.00453382601298"><ele>1.0</ele><time>2026-04-12T14:42:44.995Z</time></trkpt><trkpt lat="40.04751571309083" lon="18.004712716809937"><ele>1.0</ele><time>2026-04-12T14:42:45.995Z</time></trkpt><trkpt lat="40.04742983253754" lon="18.004896255104377"><ele>1.0</ele><time>2026-04-12T14:42:46.995Z</time></trkpt><trkpt lat="40.04734627911169" lon="18.005073862153544"><ele>1.0</ele><time>2026-04-12T14:42:47.995Z</time></trkpt><trkpt lat="40.047249293535124" lon="18.005236832589855"><ele>1.0</ele><time>2026-04-12T14:42:48.995Z</time></trkpt><trkpt lat="40.04717008652311" lon="18.005384080990876"><ele>1.0</ele><time>2026-04-12T14:42:49.995Z</time></trkpt><trkpt lat="40.04709138750454" lon="18.005524191984613"><ele>1.0</ele><time>2026-04-12T14:42:50.995Z</time></trkpt><trkpt lat="40.047004527691925" lon="18.005642819879903"><ele>1.0</ele><time>2026-04-12T14:42:51.995Z</time></trkpt><trkpt lat="40.0469048905896" lon="18.005756947950502"><ele>1.3333333333333333</ele><time>2026-04-12T14:42:52.995Z</time></trkpt><trkpt lat="40.04678677793525" lon="18.005881404032383"><ele>1.6666666666666665</ele><time>2026-04-12T14:42:53.995Z</time></trkpt><trkpt lat="40.04665294983576" lon="18.006024054302006"><ele>2.0</ele><time>2026-04-12T14:42:54.995Z</time></trkpt><trkpt lat="40.04651228292091" lon="18.00618187653485"><ele>1.3333333333333333</ele><time>2026-04-12T14:42:55.995Z</time></trkpt><trkpt lat="40.04637841307502" lon="18.00633476351998"><ele>0.6666666666666666</ele><time>2026-04-12T14:42:56.995Z</time></trkpt><trkpt lat="40.04625963027902" lon="18.006470269353397"><ele>0.0</ele><time>2026-04-12T14:42:57.995Z</time></trkpt><trkpt lat="40.046149975579425" lon="18.006595204717406"><ele>0.0</ele><time>2026-04-12T14:42:58.995Z</time></trkpt><trkpt lat="40.046047407479925" lon="18.006714431334437"><ele>0.0</ele><time>2026-04-12T14:42:59.995Z</time></trkpt><trkpt lat="40.04595493839141" lon="18.00682408363407"><ele>0.0</ele><time>2026-04-12T14:43:00.995Z</time></trkpt><trkpt lat="40.04586680348186" lon="18.006930125630348"><ele>0.0</ele><time>2026-04-12T14:43:01.995Z</time></trkpt><trkpt lat="40.0457850046806" lon="18.007029932999504"><ele>0.0</ele><time>2026-04-12T14:43:02.995Z</time></trkpt><trkpt lat="40.04571140417351" lon="18.007115103869914"><ele>0.0</ele><time>2026-04-12T14:43:03.995Z</time></trkpt><trkpt lat="40.04564730376238" lon="18.00718748242135"><ele>0.0</ele><time>2026-04-12T14:43:04.995Z</time></trkpt><trkpt lat="40.04558902698978" lon="18.007245993470015"><ele>0.0</ele><time>2026-04-12T14:43:05.995Z</time></trkpt><trkpt lat="40.0455083267846" lon="18.00733496943716"><ele>0.0</ele><time>2026-04-12T14:43:07.995Z</time></trkpt><trkpt lat="40.04545170397723" lon="18.007402035322432"><ele>0.0</ele><time>2026-04-12T14:43:09.995Z</time></trkpt><trkpt lat="40.04538894996348" lon="18.007476242215905"><ele>0.0</ele><time>2026-04-12T14:43:12.995Z</time></trkpt><trkpt lat="40.04533246024257" lon="18.007538826106604"><ele>1.0</ele><time>2026-04-12T14:43:14.995Z</time></trkpt><trkpt lat="40.04525990851511" lon="18.007594581986243"><ele>1.0</ele><time>2026-04-12T14:43:17.995Z</time></trkpt><trkpt lat="40.04518563158118" lon="18.007648175993634"><ele>1.0</ele><time>2026-04-12T14:43:20.995Z</time></trkpt><trkpt lat="40.04512937266326" lon="18.00769856596189"><ele>1.0</ele><time>2026-04-12T14:43:24.995Z</time></trkpt></trkseg><trkseg><trkpt lat="40.04512770955865" lon="18.00781604845882"><ele>0.9999999999999999</ele><time>2026-04-12T14:56:58.998Z</time></trkpt><trkpt lat="40.04520610041575" lon="18.00781798337249"><ele>1.0</ele><time>2026-04-12T14:57:01.998Z</time></trkpt><trkpt lat="40.04526403051237" lon="18.007685520583955"><ele>1.0</ele><time>2026-04-12T14:57:03.998Z</time></trkpt><trkpt lat="40.04531657922336" lon="18.00761793983337"><ele>1.0</ele><time>2026-04-12T14:57:04.998Z</time></trkpt><trkpt lat="40.04537952143375" lon="18.007552284348506"><ele>0.9999999999999999</ele><time>2026-04-12T14:57:05.998Z</time></trkpt><trkpt lat="40.04545030258908" lon="18.00748284082499"><ele>1.0</ele><time>2026-04-12T14:57:06.998Z</time></trkpt><trkpt lat="40.0455145496001" lon="18.00741037231941"><ele>0.9999999999999999</ele><time>2026-04-12T14:57:07.998Z</time></trkpt><trkpt lat="40.045578712684275" lon="18.007338733907865"><ele>1.0</ele><time>2026-04-12T14:57:08.998Z</time></trkpt><trkpt lat="40.04564119947031" lon="18.007263157911957"><ele>1.0</ele><time>2026-04-12T14:57:09.998Z</time></trkpt><trkpt lat="40.045705524723395" lon="18.007194000458718"><ele>1.0</ele><time>2026-04-12T14:57:10.998Z</time></trkpt><trkpt lat="40.0457696032609" lon="18.007122743452086"><ele>0.9999999999999999</ele><time>2026-04-12T14:57:11.998Z</time></trkpt><trkpt lat="40.04583837568564" lon="18.007053730484316"><ele>1.0</ele><time>2026-04-12T14:57:12.998Z</time></trkpt><trkpt lat="40.04590386506854" lon="18.006986836155644"><ele>1.0</ele><time>2026-04-12T14:57:13.998Z</time></trkpt><trkpt lat="40.04597221207163" lon="18.006912357127216"><ele>1.0</ele><time>2026-04-12T14:57:14.998Z</time></trkpt><trkpt lat="40.04604124451235" lon="18.006832386589124"><ele>1.0</ele><time>2026-04-12T14:57:15.998Z</time></trkpt><trkpt lat="40.04611284315429" lon="18.006748387229838"><ele>1.0</ele><time>2026-04-12T14:57:16.998Z</time></trkpt><trkpt lat="40.04619199705806" lon="18.006655747836927"><ele>1.0</ele><time>2026-04-12T14:57:17.998Z</time></trkpt><trkpt lat="40.046272196063306" lon="18.006562236786053"><ele>0.8</ele><time>2026-04-12T14:57:18.998Z</time></trkpt><trkpt lat="40.04635393192794" lon="18.0064808770133"><ele>0.6000000000000001</ele><time>2026-04-12T14:57:19.998Z</time></trkpt><trkpt lat="40.0464304403432" lon="18.00639786409069"><ele>0.4</ele><time>2026-04-12T14:57:20.998Z</time></trkpt><trkpt lat="40.04649659083594" lon="18.006316856073102"><ele>0.2</ele><time>2026-04-12T14:57:21.998Z</time></trkpt><trkpt lat="40.04655813972239" lon="18.006240441134025"><ele>0.0</ele><time>2026-04-12T14:57:22.998Z</time></trkpt><trkpt lat="40.04661575402853" lon="18.00617807052189"><ele>0.4</ele><time>2026-04-12T14:57:23.998Z</time></trkpt><trkpt lat="40.04670481877078" lon="18.0061017070921"><ele>0.8</ele><time>2026-04-12T14:57:25.998Z</time></trkpt><trkpt lat="40.04679707117067" lon="18.006111109026186"><ele>1.2000000000000002</ele><time>2026-04-12T14:57:27.998Z</time></trkpt><trkpt lat="40.04689057666171" lon="18.006137782280554"><ele>1.6</ele><time>2026-04-12T14:57:29.999Z</time></trkpt><trkpt lat="40.04695404447594" lon="18.00602444097534"><ele>2.0</ele><time>2026-04-12T14:57:31.999Z</time></trkpt><trkpt lat="40.04695390971" lon="18.005929161691654"><ele>1.8</ele><time>2026-04-12T14:57:32.999Z</time></trkpt><trkpt lat="40.04696235204747" lon="18.005826022842786"><ele>1.6</ele><time>2026-04-12T14:57:33.998Z</time></trkpt><trkpt lat="40.047000900383416" lon="18.00571940378819"><ele>1.4000000000000001</ele><time>2026-04-12T14:57:34.998Z</time></trkpt><trkpt lat="40.0470685546578" lon="18.00561038248925"><ele>1.2000000000000002</ele><time>2026-04-12T14:57:35.999Z</time></trkpt><trkpt lat="40.047152668402" lon="18.005498842705798"><ele>1.0</ele><time>2026-04-12T14:57:36.999Z</time></trkpt><trkpt lat="40.04724231501517" lon="18.005379477546807"><ele>1.0</ele><time>2026-04-12T14:57:37.999Z</time></trkpt><trkpt lat="40.04732673844027" lon="18.005235166387045"><ele>1.0</ele><time>2026-04-12T14:57:38.999Z</time></trkpt><trkpt lat="40.047393386523076" lon="18.005098376076308"><ele>1.0</ele><time>2026-04-12T14:57:39.998Z</time></trkpt><trkpt lat="40.04747273121783" lon="18.00495898793301"><ele>1.0</ele><time>2026-04-12T14:57:40.998Z</time></trkpt><trkpt lat="40.04754997201468" lon="18.004818077309288"><ele>1.0</ele><time>2026-04-12T14:57:41.999Z</time></trkpt><trkpt lat="40.04762375702732" lon="18.004674386299914"><ele>1.0</ele><time>2026-04-12T14:57:42.999Z</time></trkpt><trkpt lat="40.047701282676165" lon="18.004531885896657"><ele>1.0</ele><time>2026-04-12T14:57:43.999Z</time></trkpt><trkpt lat="40.047778644529856" lon="18.004395323531302"><ele>1.0</ele><time>2026-04-12T14:57:44.999Z</time></trkpt><trkpt lat="40.04785058564575" lon="18.004261098736475"><ele>0.75</ele><time>2026-04-12T14:57:45.999Z</time></trkpt><trkpt lat="40.04791863937555" lon="18.004131963473153"><ele>0.5</ele><time>2026-04-12T14:57:46.999Z</time></trkpt><trkpt lat="40.04798720800056" lon="18.004001632201714"><ele>0.25</ele><time>2026-04-12T14:57:47.999Z</time></trkpt><trkpt lat="40.04805650819084" lon="18.003869670508056"><ele>0.0</ele><time>2026-04-12T14:57:48.999Z</time></trkpt><trkpt lat="40.048129261797506" lon="18.003739482130822"><ele>0.0</ele><time>2026-04-12T14:57:49.999Z</time></trkpt><trkpt lat="40.048190426169704" lon="18.003608573155812"><ele>0.0</ele><time>2026-04-12T14:57:50.999Z</time></trkpt><trkpt lat="40.04824878431259" lon="18.003475031525973"><ele>0.0</ele><time>2026-04-12T14:57:51.999Z</time></trkpt><trkpt lat="40.04830680074942" lon="18.003337152175742"><ele>0.0</ele><time>2026-04-12T14:57:52.999Z</time></trkpt><trkpt lat="40.0483603691848" lon="18.003193118747113"><ele>0.5</ele><time>2026-04-12T14:57:53.999Z</time></trkpt><trkpt lat="40.04841128521766" lon="18.003039921491705"><ele>1.0</ele><time>2026-04-12T14:57:54.999Z</time></trkpt><trkpt lat="40.04846310687324" lon="18.002882148956026"><ele>1.5</ele><time>2026-04-12T14:57:55.999Z</time></trkpt><trkpt lat="40.04851505741613" lon="18.002725125510807"><ele>2.0</ele><time>2026-04-12T14:57:56.999Z</time></trkpt><trkpt lat="40.04857075558626" lon="18.002567265405546"><ele>2.5</ele><time>2026-04-12T14:57:57.999Z</time></trkpt><trkpt lat="40.04862610200559" lon="18.00242122028949"><ele>3.0</ele><time>2026-04-12T14:57:58.999Z</time></trkpt><trkpt lat="40.04868347310182" lon="18.00228107302415"><ele>3.5</ele><time>2026-04-12T14:57:59.999Z</time></trkpt><trkpt lat="40.048744149700205" lon="18.00213972995561"><ele>4.0</ele><time>2026-04-12T14:58:00.999Z</time></trkpt><trkpt lat="40.04880630391232" lon="18.00200426292293"><ele>4.0</ele><time>2026-04-12T14:58:01.999Z</time></trkpt><trkpt lat="40.04886483044446" lon="18.001869934403448"><ele>4.0</ele><time>2026-04-12T14:58:02.999Z</time></trkpt><trkpt lat="40.048919420563635" lon="18.001753925620232"><ele>4.0</ele><time>2026-04-12T14:58:03.999Z</time></trkpt><trkpt lat="40.04897058232443" lon="18.001641234580315"><ele>4.0</ele><time>2026-04-12T14:58:04.999Z</time></trkpt><trkpt lat="40.049014723724675" lon="18.001538734597116"><ele>4.0</ele><time>2026-04-12T14:58:05.999Z</time></trkpt><trkpt lat="40.049054305723985" lon="18.001449136450017"><ele>3.9999999999999996</ele><time>2026-04-12T14:58:06.999Z</time></trkpt><trkpt lat="40.04909342124555" lon="18.001358731068187"><ele>4.0</ele><time>2026-04-12T14:58:07.999Z</time></trkpt><trkpt lat="40.0491323022888" lon="18.001274648174647"><ele>4.0</ele><time>2026-04-12T14:58:08.999Z</time></trkpt><trkpt lat="40.04917015380681" lon="18.001195332235003"><ele>4.0</ele><time>2026-04-12T14:58:09.999Z</time></trkpt><trkpt lat="40.04923541383203" lon="18.001077219198862"><ele>3.9999999999999996</ele><time>2026-04-12T14:58:11.999Z</time></trkpt><trkpt lat="40.0492802595745" lon="18.001008990119022"><ele>4.0</ele><time>2026-04-12T14:58:13.999Z</time></trkpt><trkpt lat="40.04935408102286" lon="18.000871842079448"><ele>3.333333333333333</ele><time>2026-04-12T15:03:49Z</time></trkpt><trkpt lat="40.049422650438196" lon="18.00072796516167"><ele>2.6666666666666665</ele><time>2026-04-12T15:03:51Z</time></trkpt><trkpt lat="40.0494662240232" lon="18.000656321570137"><ele>2.0</ele><time>2026-04-12T15:03:52Z</time></trkpt><trkpt lat="40.049515458301975" lon="18.000569038161707"><ele>1.3333333333333333</ele><time>2026-04-12T15:03:54Z</time></trkpt><trkpt lat="40.049526816057586" lon="18.000483921302248"><ele>0.6666666666666666</ele><time>2026-04-12T15:03:59Z</time></trkpt><trkpt lat="40.04944823468" lon="18.00053425145317"><ele>0.0</ele><time>2026-04-12T15:04:17Z</time></trkpt><trkpt lat="40.049405675368256" lon="18.00059492023334"><ele>0.0</ele><time>2026-04-12T15:04:18Z</time></trkpt><trkpt lat="40.04934074080428" lon="18.00069527262991"><ele>0.0</ele><time>2026-04-12T15:04:19Z</time></trkpt><trkpt lat="40.049291073061994" lon="18.000778873459407"><ele>0.0</ele><time>2026-04-12T15:04:20Z</time></trkpt><trkpt lat="40.04925239269654" lon="18.00085297270828"><ele>0.0</ele><time>2026-04-12T15:04:21Z</time></trkpt><trkpt lat="40.04921175315281" lon="18.000925359219774"><ele>0.0</ele><time>2026-04-12T15:04:22Z</time></trkpt><trkpt lat="40.04917360596589" lon="18.000995453912868"><ele>0.0</ele><time>2026-04-12T15:04:23Z</time></trkpt><trkpt lat="40.049108898233875" lon="18.00112423391926"><ele>0.0</ele><time>2026-04-12T15:04:25Z</time></trkpt><trkpt lat="40.04906388187287" lon="18.00124784061043"><ele>0.0</ele><time>2026-04-12T15:04:27Z</time></trkpt><trkpt lat="40.048999586107676" lon="18.001385278917574"><ele>0.0</ele><time>2026-04-12T15:04:29Z</time></trkpt><trkpt lat="40.04896058137045" lon="18.001458673704498"><ele>0.0</ele><time>2026-04-12T15:04:30Z</time></trkpt><trkpt lat="40.04892150366321" lon="18.001536366153108"><ele>0.0</ele><time>2026-04-12T15:04:31Z</time></trkpt><trkpt lat="40.048879181082114" lon="18.00162415002755"><ele>0.0</ele><time>2026-04-12T15:04:32Z</time></trkpt><trkpt lat="40.04883371252802" lon="18.001716186149377"><ele>0.8</ele><time>2026-04-12T15:04:33Z</time></trkpt><trkpt lat="40.04878407717568" lon="18.00181757006306"><ele>1.6</ele><time>2026-04-12T15:04:34Z</time></trkpt><trkpt lat="40.04873493887463" lon="18.001922995617587"><ele>2.4000000000000004</ele><time>2026-04-12T15:04:35Z</time></trkpt><trkpt lat="40.04868925826314" lon="18.002033267505677"><ele>3.2</ele><time>2026-04-12T15:04:36Z</time></trkpt><trkpt lat="40.04864246985764" lon="18.002143318426004"><ele>4.0</ele><time>2026-04-12T15:04:37Z</time></trkpt><trkpt lat="40.0485995058482" lon="18.00224410649881"><ele>4.0</ele><time>2026-04-12T15:04:38Z</time></trkpt><trkpt lat="40.04855895839112" lon="18.002343142043674"><ele>4.0</ele><time>2026-04-12T15:04:39Z</time></trkpt><trkpt lat="40.0485187020847" lon="18.00245859147254"><ele>4.0</ele><time>2026-04-12T15:04:40Z</time></trkpt><trkpt lat="40.04847788186913" lon="18.002594865215205"><ele>4.0</ele><time>2026-04-12T15:04:41Z</time></trkpt><trkpt lat="40.04843167670687" lon="18.002734156499773"><ele>4.0</ele><time>2026-04-12T15:04:42Z</time></trkpt><trkpt lat="40.04838236900829" lon="18.002875338312627"><ele>3.5</ele><time>2026-04-12T15:04:43Z</time></trkpt><trkpt lat="40.04833063107537" lon="18.003015549290662"><ele>3.0</ele><time>2026-04-12T15:04:44Z</time></trkpt><trkpt lat="40.048282660362936" lon="18.00314855193546"><ele>2.5</ele><time>2026-04-12T15:04:45Z</time></trkpt><trkpt lat="40.04823557096468" lon="18.003284731863555"><ele>2.0</ele><time>2026-04-12T15:04:46Z</time></trkpt><trkpt lat="40.048188594654164" lon="18.00341684399528"><ele>1.5</ele><time>2026-04-12T15:04:47Z</time></trkpt><trkpt lat="40.048132075114516" lon="18.003550391242968"><ele>1.0</ele><time>2026-04-12T15:04:48Z</time></trkpt><trkpt lat="40.04807034826214" lon="18.00368429747626"><ele>0.5</ele><time>2026-04-12T15:04:49Z</time></trkpt><trkpt lat="40.048005005666056" lon="18.00381642657661"><ele>0.0</ele><time>2026-04-12T15:04:50Z</time></trkpt><trkpt lat="40.047934853086396" lon="18.003948903854532"><ele>0.0</ele><time>2026-04-12T15:04:51Z</time></trkpt><trkpt lat="40.047861727626824" lon="18.004091209860615"><ele>0.0</ele><time>2026-04-12T15:04:52Z</time></trkpt><trkpt lat="40.04778688807428" lon="18.004230615781758"><ele>0.0</ele><time>2026-04-12T15:04:53Z</time></trkpt><trkpt lat="40.047710604720294" lon="18.00437626779356"><ele>0.0</ele><time>2026-04-12T15:04:54Z</time></trkpt><trkpt lat="40.04762790621445" lon="18.004523925966456"><ele>0.0</ele><time>2026-04-12T15:04:55Z</time></trkpt><trkpt lat="40.04754455705443" lon="18.00466867691036"><ele>0.0</ele><time>2026-04-12T15:04:56Z</time></trkpt><trkpt lat="40.04746500663576" lon="18.004807968965252"><ele>0.0</ele><time>2026-04-12T15:04:57Z</time></trkpt><trkpt lat="40.04739096942377" lon="18.00494974331462"><ele>0.0</ele><time>2026-04-12T15:04:58Z</time></trkpt><trkpt lat="40.04732038243229" lon="18.005083245534543"><ele>0.25</ele><time>2026-04-12T15:04:59Z</time></trkpt><trkpt lat="40.047249094100124" lon="18.005211465686113"><ele>0.5</ele><time>2026-04-12T15:05:00Z</time></trkpt><trkpt lat="40.047175337229106" lon="18.005339487322974"><ele>0.75</ele><time>2026-04-12T15:05:01Z</time></trkpt><trkpt lat="40.04710240404594" lon="18.005462596110725"><ele>1.0</ele><time>2026-04-12T15:05:02Z</time></trkpt><trkpt lat="40.04702583754206" lon="18.00557816057367"><ele>1.0</ele><time>2026-04-12T15:05:03Z</time></trkpt><trkpt lat="40.04695449880505" lon="18.005683971454708"><ele>1.0</ele><time>2026-04-12T15:05:04Z</time></trkpt><trkpt lat="40.04689903245083" lon="18.005773680380006"><ele>1.0</ele><time>2026-04-12T15:05:05Z</time></trkpt><trkpt lat="40.04685479828406" lon="18.005837838985446"><ele>1.0</ele><time>2026-04-12T15:05:06Z</time></trkpt><trkpt lat="40.04678354497187" lon="18.005939294751236"><ele>1.0</ele><time>2026-04-12T15:05:08Z</time></trkpt><trkpt lat="40.04676552753646" lon="18.006069789778138"><ele>1.25</ele><time>2026-04-12T15:05:10Z</time></trkpt><trkpt lat="40.04683915350784" lon="18.006216185064275"><ele>1.5</ele><time>2026-04-12T15:05:12Z</time></trkpt><trkpt lat="40.046897391735996" lon="18.006307276769824"><ele>1.75</ele><time>2026-04-12T15:05:13Z</time></trkpt><trkpt lat="40.04696896221968" lon="18.006420650830247"><ele>2.0</ele><time>2026-04-12T15:05:14Z</time></trkpt><trkpt lat="40.047067427302416" lon="18.006544467300547"><ele>2.25</ele><time>2026-04-12T15:05:14.999Z</time></trkpt><trkpt lat="40.04715199184037" lon="18.006666036319952"><ele>2.5</ele><time>2026-04-12T15:05:15.999Z</time></trkpt><trkpt lat="40.04724023780745" lon="18.006776662254666"><ele>2.75</ele><time>2026-04-12T15:05:16.999Z</time></trkpt><trkpt lat="40.047315121622944" lon="18.006874509035878"><ele>3.0</ele><time>2026-04-12T15:05:17.999Z</time></trkpt><trkpt lat="40.04737885490509" lon="18.006969608631817"><ele>3.0</ele><time>2026-04-12T15:05:18.999Z</time></trkpt><trkpt lat="40.04744995240131" lon="18.007038428229105"><ele>3.0</ele><time>2026-04-12T15:05:19.999Z</time></trkpt><trkpt lat="40.04750055884962" lon="18.007104050219258"><ele>3.0</ele><time>2026-04-12T15:05:20.999Z</time></trkpt><trkpt lat="40.0475396799216" lon="18.00717372510167"><ele>3.0</ele><time>2026-04-12T15:05:21.999Z</time></trkpt><trkpt lat="40.04756527182512" lon="18.007266925758813"><ele>3.0</ele><time>2026-04-12T15:05:22.999Z</time></trkpt><trkpt lat="40.04757327864215" lon="18.00737940726734"><ele>3.0</ele><time>2026-04-12T15:05:23.999Z</time></trkpt><trkpt lat="40.04757846014976" lon="18.00750624896413"><ele>2.5</ele><time>2026-04-12T15:05:24.999Z</time></trkpt><trkpt lat="40.047594131352" lon="18.00765070324269"><ele>2.0</ele><time>2026-04-12T15:05:25.999Z</time></trkpt><trkpt lat="40.04760234820836" lon="18.007819137487253"><ele>1.5</ele><time>2026-04-12T15:05:26.999Z</time></trkpt><trkpt lat="40.047616875289684" lon="18.008005592210093"><ele>1.0</ele><time>2026-04-12T15:05:27.999Z</time></trkpt><trkpt lat="40.0476378128946" lon="18.00820732079685"><ele>1.6666666666666665</ele><time>2026-04-12T15:05:28.999Z</time></trkpt><trkpt lat="40.047661841579405" lon="18.008424391550072"><ele>2.3333333333333335</ele><time>2026-04-12T15:05:29.999Z</time></trkpt><trkpt lat="40.047677928248625" lon="18.008659068069555"><ele>3.0</ele><time>2026-04-12T15:05:30.999Z</time></trkpt><trkpt lat="40.047699082242914" lon="18.00889767164097"><ele>3.0</ele><time>2026-04-12T15:05:31.999Z</time></trkpt><trkpt lat="40.047732335794876" lon="18.0091375426122"><ele>3.0</ele><time>2026-04-12T15:05:32.999Z</time></trkpt><trkpt lat="40.04778590370913" lon="18.009382691051762"><ele>3.0</ele><time>2026-04-12T15:05:33.999Z</time></trkpt><trkpt lat="40.04784408700383" lon="18.009621172967325"><ele>3.0</ele><time>2026-04-12T15:05:34.999Z</time></trkpt><trkpt lat="40.047902078219124" lon="18.009858495456815"><ele>3.0</ele><time>2026-04-12T15:05:35.999Z</time></trkpt><trkpt lat="40.04796091128362" lon="18.01009691485036"><ele>3.0</ele><time>2026-04-12T15:05:36.999Z</time></trkpt><trkpt lat="40.04801892657089" lon="18.010319044258722"><ele>3.0</ele><time>2026-04-12T15:05:37.999Z</time></trkpt><trkpt lat="40.04807218599846" lon="18.010532028402583"><ele>3.0</ele><time>2026-04-12T15:05:38.999Z</time></trkpt><trkpt lat="40.048116192823215" lon="18.010724227943285"><ele>3.0</ele><time>2026-04-12T15:05:39.999Z</time></trkpt><trkpt lat="40.04815359296669" lon="18.010897481225058"><ele>3.25</ele><time>2026-04-12T15:05:40.999Z</time></trkpt><trkpt lat="40.04818997269646" lon="18.011061339072242"><ele>3.5</ele><time>2026-04-12T15:05:41.999Z</time></trkpt><trkpt lat="40.048216746877614" lon="18.01121255751381"><ele>3.75</ele><time>2026-04-12T15:05:42.999Z</time></trkpt><trkpt lat="40.048241423488584" lon="18.011360239923807"><ele>4.0</ele><time>2026-04-12T15:05:43.999Z</time></trkpt><trkpt lat="40.04826826507306" lon="18.011498998770964"><ele>4.4</ele><time>2026-04-12T15:05:44.999Z</time></trkpt><trkpt lat="40.04830165662071" lon="18.0116184536333"><ele>4.800000000000001</ele><time>2026-04-12T15:05:45.999Z</time></trkpt><trkpt lat="40.04832583788908" lon="18.011718058174505"><ele>5.199999999999999</ele><time>2026-04-12T15:05:46.999Z</time></trkpt><trkpt lat="40.04835032992045" lon="18.011818544811206"><ele>5.6</ele><time>2026-04-12T15:05:47.999Z</time></trkpt><trkpt lat="40.04837932055985" lon="18.011921516138226"><ele>6.0</ele><time>2026-04-12T15:05:48.999Z</time></trkpt><trkpt lat="40.04845251194242" lon="18.012052117248494"><ele>6.0</ele><time>2026-04-12T15:05:49.999Z</time></trkpt><trkpt lat="40.04847835545295" lon="18.012166290386887"><ele>6.0</ele><time>2026-04-12T15:05:50.999Z</time></trkpt><trkpt lat="40.04850775679757" lon="18.012287429816528"><ele>6.0</ele><time>2026-04-12T15:05:51.999Z</time></trkpt><trkpt lat="40.048538188690515" lon="18.012425986568463"><ele>6.0</ele><time>2026-04-12T15:05:52.999Z</time></trkpt><trkpt lat="40.048575601096154" lon="18.012570363865283"><ele>6.0</ele><time>2026-04-12T15:05:54Z</time></trkpt><trkpt lat="40.04861865477574" lon="18.012718629256725"><ele>6.0</ele><time>2026-04-12T15:05:55Z</time></trkpt><trkpt lat="40.048664692403875" lon="18.012867287890536"><ele>6.0</ele><time>2026-04-12T15:05:56Z</time></trkpt><trkpt lat="40.04870462145018" lon="18.013023892222957"><ele>6.0</ele><time>2026-04-12T15:05:57Z</time></trkpt><trkpt lat="40.04873806165742" lon="18.01317967797109"><ele>6.0</ele><time>2026-04-12T15:05:58Z</time></trkpt><trkpt lat="40.048767134802546" lon="18.013321807474128"><ele>6.6</ele><time>2026-04-12T15:05:59Z</time></trkpt><trkpt lat="40.048784272240816" lon="18.01345685097078"><ele>7.199999999999999</ele><time>2026-04-12T15:06:00Z</time></trkpt><trkpt lat="40.048785470673785" lon="18.013589330665887"><ele>7.800000000000001</ele><time>2026-04-12T15:06:01Z</time></trkpt><trkpt lat="40.0487688597002" lon="18.01372534493073"><ele>8.4</ele><time>2026-04-12T15:06:02Z</time></trkpt><trkpt lat="40.04873427313495" lon="18.01385241933223"><ele>9.0</ele><time>2026-04-12T15:06:03.001Z</time></trkpt><trkpt lat="40.04867663271724" lon="18.013979358527425"><ele>9.0</ele><time>2026-04-12T15:06:04Z</time></trkpt><trkpt lat="40.048597827090894" lon="18.014097384568576"><ele>9.0</ele><time>2026-04-12T15:06:05Z</time></trkpt><trkpt lat="40.048499568337576" lon="18.014201646879116"><ele>9.0</ele><time>2026-04-12T15:06:06.001Z</time></trkpt><trkpt lat="40.048401242974755" lon="18.014278060957594"><ele>9.0</ele><time>2026-04-12T15:06:07Z</time></trkpt><trkpt lat="40.04829953575428" lon="18.014333086884047"><ele>8.8</ele><time>2026-04-12T15:06:08Z</time></trkpt><trkpt lat="40.04819218708111" lon="18.01436648510432"><ele>8.600000000000001</ele><time>2026-04-12T15:06:09Z</time></trkpt><trkpt lat="40.048084051907125" lon="18.014387941618022"><ele>8.4</ele><time>2026-04-12T15:06:10Z</time></trkpt><trkpt lat="40.04798182109034" lon="18.0143875000804"><ele>8.200000000000001</ele><time>2026-04-12T15:06:11Z</time></trkpt><trkpt lat="40.04787891797129" lon="18.0143650968215"><ele>8.0</ele><time>2026-04-12T15:06:12Z</time></trkpt><trkpt lat="40.0477813771654" lon="18.014327482511003"><ele>8.0</ele><time>2026-04-12T15:06:13Z</time></trkpt><trkpt lat="40.047681051728546" lon="18.014214181501412"><ele>8.0</ele><time>2026-04-12T15:06:14Z</time></trkpt><trkpt lat="40.047596098824684" lon="18.014136212008516"><ele>8.0</ele><time>2026-04-12T15:06:15Z</time></trkpt><trkpt lat="40.047518545134714" lon="18.01404832449308"><ele>8.0</ele><time>2026-04-12T15:06:16Z</time></trkpt><trkpt lat="40.04744911482113" lon="18.01396939522881"><ele>8.0</ele><time>2026-04-12T15:06:17Z</time></trkpt><trkpt lat="40.04738482608034" lon="18.013890493932077"><ele>7.166666666666666</ele><time>2026-04-12T15:06:18Z</time></trkpt><trkpt lat="40.047324030583916" lon="18.01382457312578"><ele>6.333333333333333</ele><time>2026-04-12T15:06:19Z</time></trkpt><trkpt lat="40.04727217537492" lon="18.01376397663098"><ele>5.5</ele><time>2026-04-12T15:06:20Z</time></trkpt><trkpt lat="40.04720843159241" lon="18.01367721135424"><ele>4.666666666666666</ele><time>2026-04-12T15:06:22Z</time></trkpt><trkpt lat="40.04715782370649" lon="18.01358589365976"><ele>3.833333333333333</ele><time>2026-04-12T15:06:52.999Z</time></trkpt><trkpt lat="40.04710121069207" lon="18.01350034691812"><ele>3.0</ele><time>2026-04-12T15:06:54.999Z</time></trkpt><trkpt lat="40.04700815649097" lon="18.013451662495086"><ele>3.0</ele><time>2026-04-12T15:06:56.999Z</time></trkpt><trkpt lat="40.046886975731354" lon="18.013508206644946"><ele>3.0</ele><time>2026-04-12T15:06:58.999Z</time></trkpt><trkpt lat="40.04683877205427" lon="18.01356801284451"><ele>3.0</ele><time>2026-04-12T15:06:59.999Z</time></trkpt><trkpt lat="40.046771262125375" lon="18.013650991663987"><ele>3.0</ele><time>2026-04-12T15:07:00.999Z</time></trkpt><trkpt lat="40.046704976067744" lon="18.013728266986366"><ele>3.0</ele><time>2026-04-12T15:07:01.999Z</time></trkpt><trkpt lat="40.046637138105396" lon="18.013803661628664"><ele>3.0</ele><time>2026-04-12T15:07:02.999Z</time></trkpt><trkpt lat="40.04655845767789" lon="18.013884297491764"><ele>3.0</ele><time>2026-04-12T15:07:03.999Z</time></trkpt><trkpt lat="40.04647744695084" lon="18.013973681233196"><ele>3.0</ele><time>2026-04-12T15:07:04.999Z</time></trkpt><trkpt lat="40.04638052841048" lon="18.014087327640482"><ele>3.0</ele><time>2026-04-12T15:07:05.999Z</time></trkpt><trkpt lat="40.04627913261381" lon="18.014202428085632"><ele>3.0</ele><time>2026-04-12T15:07:06.999Z</time></trkpt><trkpt lat="40.0461766846484" lon="18.014314940075298"><ele>3.0</ele><time>2026-04-12T15:07:07.999Z</time></trkpt><trkpt lat="40.04608044000016" lon="18.014416479356395"><ele>3.0</ele><time>2026-04-12T15:07:08.999Z</time></trkpt><trkpt lat="40.04598889151188" lon="18.014507511921778"><ele>3.0</ele><time>2026-04-12T15:07:09.999Z</time></trkpt><trkpt lat="40.04590142666605" lon="18.014597953926522"><ele>3.0</ele><time>2026-04-12T15:07:10.999Z</time></trkpt><trkpt lat="40.04581396045994" lon="18.014697373765944"><ele>3.0</ele><time>2026-04-12T15:07:11.999Z</time></trkpt><trkpt lat="40.04573026881991" lon="18.01480209319303"><ele>3.0</ele><time>2026-04-12T15:07:12.999Z</time></trkpt><trkpt lat="40.04563675000255" lon="18.014903734238455"><ele>3.0</ele><time>2026-04-12T15:07:13.999Z</time></trkpt><trkpt lat="40.04553265055268" lon="18.01501452623812"><ele>3.0</ele><time>2026-04-12T15:07:14.999Z</time></trkpt><trkpt lat="40.045427680271736" lon="18.015128490974806"><ele>3.0</ele><time>2026-04-12T15:07:15.999Z</time></trkpt><trkpt lat="40.0453134159459" lon="18.01525075400688"><ele>3.0</ele><time>2026-04-12T15:07:16.999Z</time></trkpt><trkpt lat="40.045202849547444" lon="18.015373802674347"><ele>3.0</ele><time>2026-04-12T15:07:17.999Z</time></trkpt><trkpt lat="40.04508464713065" lon="18.01549932368887"><ele>3.0</ele><time>2026-04-12T15:07:18.999Z</time></trkpt><trkpt lat="40.04496764427715" lon="18.015624126571893"><ele>3.0</ele><time>2026-04-12T15:07:19.999Z</time></trkpt><trkpt lat="40.04485836878164" lon="18.01574269806505"><ele>3.0</ele><time>2026-04-12T15:07:20.999Z</time></trkpt><trkpt lat="40.04475545522294" lon="18.015858980102628"><ele>3.0</ele><time>2026-04-12T15:07:21.999Z</time></trkpt><trkpt lat="40.04465264137952" lon="18.01597353819531"><ele>3.25</ele><time>2026-04-12T15:07:22.999Z</time></trkpt><trkpt lat="40.04455277553622" lon="18.016089635199773"><ele>3.5</ele><time>2026-04-12T15:07:23.999Z</time></trkpt><trkpt lat="40.04446170458269" lon="18.016191130618473"><ele>3.75</ele><time>2026-04-12T15:07:24.999Z</time></trkpt><trkpt lat="40.04438019808681" lon="18.01628378384289"><ele>4.0</ele><time>2026-04-12T15:07:25.999Z</time></trkpt><trkpt lat="40.044306670343445" lon="18.01637177662903"><ele>3.9999999999999996</ele><time>2026-04-12T15:07:26.999Z</time></trkpt><trkpt lat="40.0442476986873" lon="18.016450060211564"><ele>4.0</ele><time>2026-04-12T15:07:27.999Z</time></trkpt><trkpt lat="40.04419533938942" lon="18.016518072760142"><ele>4.0</ele><time>2026-04-12T15:07:28.999Z</time></trkpt><trkpt lat="40.044153395225756" lon="18.01658030766104"><ele>4.0</ele><time>2026-04-12T15:07:29.999Z</time></trkpt><trkpt lat="40.04413013458147" lon="18.016720854400223"><ele>3.9999999999999996</ele><time>2026-04-12T15:07:31.999Z</time></trkpt><trkpt lat="40.04415137181333" lon="18.01680763884398"><ele>4.0</ele><time>2026-04-12T15:07:32.999Z</time></trkpt><trkpt lat="40.044189855832535" lon="18.01690804734198"><ele>4.0</ele><time>2026-04-12T15:07:33.999Z</time></trkpt><trkpt lat="40.04425142049765" lon="18.01701489484111"><ele>4.0</ele><time>2026-04-12T15:07:34.999Z</time></trkpt><trkpt lat="40.044313401435254" lon="18.01713747242836"><ele>4.0</ele><time>2026-04-12T15:07:35.999Z</time></trkpt><trkpt lat="40.04436100534754" lon="18.017284135251067"><ele>4.0</ele><time>2026-04-12T15:07:36.999Z</time></trkpt><trkpt lat="40.04440565057332" lon="18.017467376539695"><ele>4.333333333333333</ele><time>2026-04-12T15:07:37.999Z</time></trkpt><trkpt lat="40.044439885341674" lon="18.01766140845347"><ele>4.666666666666667</ele><time>2026-04-12T15:07:38.999Z</time></trkpt><trkpt lat="40.044465129064655" lon="18.017869294575046"><ele>5.0</ele><time>2026-04-12T15:07:39.999Z</time></trkpt><trkpt lat="40.044485681588064" lon="18.018091661612562"><ele>5.0</ele><time>2026-04-12T15:07:40.999Z</time></trkpt><trkpt lat="40.04450133352038" lon="18.018307534166425"><ele>5.0</ele><time>2026-04-12T15:07:41.999Z</time></trkpt><trkpt lat="40.04450813504972" lon="18.018526072147605"><ele>5.0</ele><time>2026-04-12T15:07:42.999Z</time></trkpt><trkpt lat="40.044501168867185" lon="18.0187349023801"><ele>5.333333333333334</ele><time>2026-04-12T15:07:43.999Z</time></trkpt><trkpt lat="40.04447215224594" lon="18.018953970799004"><ele>5.666666666666667</ele><time>2026-04-12T15:07:44.999Z</time></trkpt><trkpt lat="40.044432600466564" lon="18.01917021702489"><ele>6.0</ele><time>2026-04-12T15:07:45.999Z</time></trkpt><trkpt lat="40.04438305724199" lon="18.0193730472945"><ele>7.0</ele><time>2026-04-12T15:07:46.999Z</time></trkpt><trkpt lat="40.044320836013775" lon="18.019571884207984"><ele>8.0</ele><time>2026-04-12T15:07:47.999Z</time></trkpt><trkpt lat="40.04424537284702" lon="18.019765683719857"><ele>9.0</ele><time>2026-04-12T15:07:48.999Z</time></trkpt><trkpt lat="40.04416953973475" lon="18.019956657935293"><ele>9.0</ele><time>2026-04-12T15:07:49.999Z</time></trkpt><trkpt lat="40.044049753087165" lon="18.020115789534447"><ele>9.0</ele><time>2026-04-12T15:07:50.999Z</time></trkpt><trkpt lat="40.04392574226959" lon="18.020228105742046"><ele>9.0</ele><time>2026-04-12T15:07:51.999Z</time></trkpt><trkpt lat="40.043803627625685" lon="18.020342743007085"><ele>9.0</ele><time>2026-04-12T15:07:52.999Z</time></trkpt><trkpt lat="40.043667355507566" lon="18.02045537205137"><ele>9.0</ele><time>2026-04-12T15:07:53.999Z</time></trkpt><trkpt lat="40.04352919278041" lon="18.020563268249244"><ele>9.0</ele><time>2026-04-12T15:07:54.999Z</time></trkpt><trkpt lat="40.043384710130375" lon="18.02064752124628"><ele>8.0</ele><time>2026-04-12T15:07:55.999Z</time></trkpt><trkpt lat="40.043238719518925" lon="18.020715062007664"><ele>7.0</ele><time>2026-04-12T15:07:56.999Z</time></trkpt><trkpt lat="40.04308582188667" lon="18.020771064458703"><ele>6.0</ele><time>2026-04-12T15:07:57.999Z</time></trkpt><trkpt lat="40.04293467758435" lon="18.020802452989493"><ele>6.0</ele><time>2026-04-12T15:07:58.999Z</time></trkpt><trkpt lat="40.04280727078679" lon="18.020814928327194"><ele>6.0</ele><time>2026-04-12T15:08:00Z</time></trkpt><trkpt lat="40.04269585338484" lon="18.02080674559923"><ele>6.0</ele><time>2026-04-12T15:08:01Z</time></trkpt><trkpt lat="40.04259685711604" lon="18.02078073368575"><ele>6.0</ele><time>2026-04-12T15:08:02Z</time></trkpt><trkpt lat="40.04251226360477" lon="18.02071932293914"><ele>6.0</ele><time>2026-04-12T15:08:03.001Z</time></trkpt><trkpt lat="40.042444053181676" lon="18.02062303245089"><ele>5.6</ele><time>2026-04-12T15:08:04Z</time></trkpt><trkpt lat="40.04239008150095" lon="18.02050682110312"><ele>5.199999999999999</ele><time>2026-04-12T15:08:05Z</time></trkpt><trkpt lat="40.04236373703425" lon="18.020367846741237"><ele>4.800000000000001</ele><time>2026-04-12T15:08:06Z</time></trkpt><trkpt lat="40.042369349806236" lon="18.020223893426593"><ele>4.4</ele><time>2026-04-12T15:08:07Z</time></trkpt><trkpt lat="40.04240515314636" lon="18.02007606292375"><ele>4.0</ele><time>2026-04-12T15:08:08Z</time></trkpt><trkpt lat="40.04246438382595" lon="18.019948654890186"><ele>4.5</ele><time>2026-04-12T15:08:09.001Z</time></trkpt><trkpt lat="40.042548454284" lon="18.019856955872203"><ele>5.0</ele><time>2026-04-12T15:08:10Z</time></trkpt><trkpt lat="40.042655889946104" lon="18.019788021970843"><ele>5.5</ele><time>2026-04-12T15:08:11Z</time></trkpt><trkpt lat="40.04279417819305" lon="18.019755167437488"><ele>6.0</ele><time>2026-04-12T15:08:12.001Z</time></trkpt><trkpt lat="40.0429501107203" lon="18.019740596226132"><ele>6.0</ele><time>2026-04-12T15:08:13Z</time></trkpt><trkpt lat="40.043106587979274" lon="18.019723586177516"><ele>6.0</ele><time>2026-04-12T15:08:14Z</time></trkpt><trkpt lat="40.043261038907666" lon="18.019704604549915"><ele>6.0</ele><time>2026-04-12T15:08:15Z</time></trkpt><trkpt lat="40.04342230171181" lon="18.0196781745992"><ele>6.666666666666666</ele><time>2026-04-12T15:08:16Z</time></trkpt><trkpt lat="40.04358616807956" lon="18.01965411751827"><ele>7.333333333333333</ele><time>2026-04-12T15:08:17Z</time></trkpt><trkpt lat="40.04376547381489" lon="18.01964906379727"><ele>8.0</ele><time>2026-04-12T15:08:18Z</time></trkpt><trkpt lat="40.043961460637874" lon="18.01965268495469"><ele>8.333333333333332</ele><time>2026-04-12T15:08:19Z</time></trkpt><trkpt lat="40.0441705422717" lon="18.019660845382234"><ele>8.666666666666666</ele><time>2026-04-12T15:08:20Z</time></trkpt><trkpt lat="40.04439754673308" lon="18.019686919872566"><ele>9.0</ele><time>2026-04-12T15:08:21Z</time></trkpt><trkpt lat="40.04463636636217" lon="18.019711183880116"><ele>9.0</ele><time>2026-04-12T15:08:22Z</time></trkpt><trkpt lat="40.04488392715522" lon="18.019738347684804"><ele>9.0</ele><time>2026-04-12T15:08:23Z</time></trkpt><trkpt lat="40.045138631853376" lon="18.019768799378635"><ele>9.5</ele><time>2026-04-12T15:08:24Z</time></trkpt><trkpt lat="40.04539875962354" lon="18.019800803154777"><ele>10.0</ele><time>2026-04-12T15:08:25Z</time></trkpt><trkpt lat="40.045674276185736" lon="18.01982890925272"><ele>11.0</ele><time>2026-04-12T15:08:26Z</time></trkpt><trkpt lat="40.04594781803985" lon="18.019863117717108"><ele>12.0</ele><time>2026-04-12T15:08:27Z</time></trkpt><trkpt lat="40.04622715310009" lon="18.019900479920317"><ele>12.0</ele><time>2026-04-12T15:08:28Z</time></trkpt><trkpt lat="40.04649618043032" lon="18.019937511352094"><ele>12.0</ele><time>2026-04-12T15:08:29Z</time></trkpt><trkpt lat="40.0467340293985" lon="18.019973938217085"><ele>15.5</ele><time>2026-04-12T15:08:30Z</time></trkpt><trkpt lat="40.0469516898374" lon="18.020022013755504"><ele>19.0</ele><time>2026-04-12T15:08:31Z</time></trkpt><trkpt lat="40.047184418730836" lon="18.020018144841753"><ele>19.0</ele><time>2026-04-12T15:08:32Z</time></trkpt><trkpt lat="40.04740989733664" lon="18.020035550683165"><ele>19.0</ele><time>2026-04-12T15:08:33Z</time></trkpt><trkpt lat="40.04786654609219" lon="18.020151136470407"><ele>19.5</ele><time>2026-04-12T15:08:34Z</time></trkpt><trkpt lat="40.04814516466467" lon="18.020192099698907"><ele>20.0</ele><time>2026-04-12T15:08:35Z</time></trkpt><trkpt lat="40.04842218618293" lon="18.020236926816587"><ele>20.0</ele><time>2026-04-12T15:08:36Z</time></trkpt><trkpt lat="40.04870077781964" lon="18.020279042397586"><ele>20.0</ele><time>2026-04-12T15:08:37Z</time></trkpt><trkpt lat="40.048980541347696" lon="18.020321892921533"><ele>19.0</ele><time>2026-04-12T15:08:38Z</time></trkpt><trkpt lat="40.049254500385494" lon="18.020364126274814"><ele>18.0</ele><time>2026-04-12T15:08:39Z</time></trkpt><trkpt lat="40.04952778698408" lon="18.020402075632635"><ele>18.0</ele><time>2026-04-12T15:08:40Z</time></trkpt><trkpt lat="40.04979987871906" lon="18.02044061749556"><ele>18.0</ele><time>2026-04-12T15:08:41Z</time></trkpt><trkpt lat="40.05006406321797" lon="18.020479668894623"><ele>18.0</ele><time>2026-04-12T15:08:42Z</time></trkpt><trkpt lat="40.05032575688183" lon="18.02050917086219"><ele>18.0</ele><time>2026-04-12T15:08:43Z</time></trkpt><trkpt lat="40.05058817378497" lon="18.020534110186183"><ele>17.5</ele><time>2026-04-12T15:08:44Z</time></trkpt><trkpt lat="40.05085113510809" lon="18.020546055892932"><ele>17.0</ele><time>2026-04-12T15:08:45Z</time></trkpt><trkpt lat="40.051110954520624" lon="18.02055787975107"><ele>17.0</ele><time>2026-04-12T15:08:46Z</time></trkpt><trkpt lat="40.05137661839357" lon="18.02055729645477"><ele>17.0</ele><time>2026-04-12T15:08:47Z</time></trkpt><trkpt lat="40.05164326700614" lon="18.020549340361594"><ele>17.5</ele><time>2026-04-12T15:08:48Z</time></trkpt><trkpt lat="40.05190221199793" lon="18.02053546144634"><ele>18.0</ele><time>2026-04-12T15:08:49Z</time></trkpt><trkpt lat="40.052164406702715" lon="18.0205202509408"><ele>18.0</ele><time>2026-04-12T15:08:50Z</time></trkpt><trkpt lat="40.052427524433355" lon="18.0205020223463"><ele>18.0</ele><time>2026-04-12T15:08:51Z</time></trkpt><trkpt lat="40.05269548520164" lon="18.02048210889469"><ele>20.0</ele><time>2026-04-12T15:08:52Z</time></trkpt><trkpt lat="40.05295873483098" lon="18.020445379933417"><ele>22.0</ele><time>2026-04-12T15:08:53Z</time></trkpt><trkpt lat="40.053229052919754" lon="18.02040275170643"><ele>22.5</ele><time>2026-04-12T15:08:54Z</time></trkpt><trkpt lat="40.05349997552097" lon="18.020351990766258"><ele>23.0</ele><time>2026-04-12T15:08:55Z</time></trkpt><trkpt lat="40.05376928779133" lon="18.02029127916283"><ele>23.0</ele><time>2026-04-12T15:08:56Z</time></trkpt><trkpt lat="40.0540354360906" lon="18.02020350841495"><ele>23.0</ele><time>2026-04-12T15:08:57Z</time></trkpt><trkpt lat="40.054301643220214" lon="18.020130513999387"><ele>23.0</ele><time>2026-04-12T15:08:58Z</time></trkpt><trkpt lat="40.054566313231746" lon="18.020052342097525"><ele>23.0</ele><time>2026-04-12T15:08:59Z</time></trkpt><trkpt lat="40.05482780755848" lon="18.01996543976798"><ele>25.0</ele><time>2026-04-12T15:09:00Z</time></trkpt><trkpt lat="40.05509181105012" lon="18.019873104730284"><ele>27.0</ele><time>2026-04-12T15:09:01Z</time></trkpt><trkpt lat="40.05535016326398" lon="18.019781229107217"><ele>27.0</ele><time>2026-04-12T15:09:02Z</time></trkpt><trkpt lat="40.05560731794414" lon="18.019680105701333"><ele>27.0</ele><time>2026-04-12T15:09:03Z</time></trkpt><trkpt lat="40.05586360640815" lon="18.019570357941994"><ele>30.5</ele><time>2026-04-12T15:09:04Z</time></trkpt><trkpt lat="40.056119688874105" lon="18.01945059774809"><ele>34.0</ele><time>2026-04-12T15:09:05Z</time></trkpt><trkpt lat="40.05636969041686" lon="18.01932930271877"><ele>36.5</ele><time>2026-04-12T15:09:06Z</time></trkpt><trkpt lat="40.05662365662788" lon="18.01919968161172"><ele>39.0</ele><time>2026-04-12T15:09:07Z</time></trkpt><trkpt lat="40.05687573601179" lon="18.019066618477037"><ele>39.5</ele><time>2026-04-12T15:09:08Z</time></trkpt><trkpt lat="40.057123318541535" lon="18.01893146324218"><ele>40.0</ele><time>2026-04-12T15:09:09Z</time></trkpt><trkpt lat="40.05737058739992" lon="18.018798786609477"><ele>41.5</ele><time>2026-04-12T15:09:10Z</time></trkpt><trkpt lat="40.05761206331094" lon="18.01866963475695"><ele>43.0</ele><time>2026-04-12T15:09:11Z</time></trkpt><trkpt lat="40.05785307149634" lon="18.018539972908485"><ele>43.0</ele><time>2026-04-12T15:09:12Z</time></trkpt><trkpt lat="40.058091878962514" lon="18.01841015306405"><ele>43.0</ele><time>2026-04-12T15:09:13Z</time></trkpt><trkpt lat="40.05833000357565" lon="18.018283719463668"><ele>43.0</ele><time>2026-04-12T15:09:14Z</time></trkpt><trkpt lat="40.058565205354405" lon="18.018156722007177"><ele>43.0</ele><time>2026-04-12T15:09:15Z</time></trkpt><trkpt lat="40.058805037242266" lon="18.018019260389817"><ele>43.0</ele><time>2026-04-12T15:09:16Z</time></trkpt><trkpt lat="40.05904836160213" lon="18.01789582975383"><ele>43.0</ele><time>2026-04-12T15:09:17Z</time></trkpt><trkpt lat="40.05928923289902" lon="18.017765077440888"><ele>43.5</ele><time>2026-04-12T15:09:18Z</time></trkpt><trkpt lat="40.05952784077565" lon="18.017641145375418"><ele>44.0</ele><time>2026-04-12T15:09:19Z</time></trkpt><trkpt lat="40.059765189452946" lon="18.017516565444087"><ele>43.5</ele><time>2026-04-12T15:09:20Z</time></trkpt><trkpt lat="40.059997712966045" lon="18.017396610510243"><ele>43.0</ele><time>2026-04-12T15:09:21Z</time></trkpt><trkpt lat="40.06023224772218" lon="18.017274893966164"><ele>43.0</ele><time>2026-04-12T15:09:22Z</time></trkpt><trkpt lat="40.06046601638712" lon="18.01714783647509"><ele>43.0</ele><time>2026-04-12T15:09:23Z</time></trkpt><trkpt lat="40.06070539635796" lon="18.017017193716434"><ele>43.5</ele><time>2026-04-12T15:09:24Z</time></trkpt><trkpt lat="40.060946732465965" lon="18.016890958208396"><ele>44.0</ele><time>2026-04-12T15:09:25Z</time></trkpt><trkpt lat="40.06118970841837" lon="18.01675978842525"><ele>45.0</ele><time>2026-04-12T15:09:26Z</time></trkpt><trkpt lat="40.061435963361966" lon="18.01663096831138"><ele>46.0</ele><time>2026-04-12T15:09:27Z</time></trkpt><trkpt lat="40.06167905947582" lon="18.016500737738077"><ele>47.0</ele><time>2026-04-12T15:09:28Z</time></trkpt><trkpt lat="40.06192074092991" lon="18.01637058007846"><ele>48.0</ele><time>2026-04-12T15:09:29Z</time></trkpt><trkpt lat="40.06216355457446" lon="18.016238136394794"><ele>48.0</ele><time>2026-04-12T15:09:30Z</time></trkpt><trkpt lat="40.06240860804054" lon="18.016107760886932"><ele>48.0</ele><time>2026-04-12T15:09:31Z</time></trkpt><trkpt lat="40.062653270690454" lon="18.01597265108701"><ele>47.5</ele><time>2026-04-12T15:09:32Z</time></trkpt><trkpt lat="40.06290617526797" lon="18.015840445211456"><ele>47.0</ele><time>2026-04-12T15:09:33Z</time></trkpt><trkpt lat="40.063153734475264" lon="18.015706518023272"><ele>44.5</ele><time>2026-04-12T15:09:34Z</time></trkpt><trkpt lat="40.06339453679754" lon="18.015574331349615"><ele>42.0</ele><time>2026-04-12T15:09:35Z</time></trkpt><trkpt lat="40.063646733303194" lon="18.01545130623556"><ele>42.0</ele><time>2026-04-12T15:09:36Z</time></trkpt><trkpt lat="40.06389572767703" lon="18.015330277065424"><ele>42.0</ele><time>2026-04-12T15:09:37Z</time></trkpt><trkpt lat="40.06414516399948" lon="18.015199260738875"><ele>36.5</ele><time>2026-04-12T15:09:38Z</time></trkpt><trkpt lat="40.06440346042453" lon="18.01507245478012"><ele>31.0</ele><time>2026-04-12T15:09:39Z</time></trkpt><trkpt lat="40.064664663255016" lon="18.014957386952016"><ele>29.0</ele><time>2026-04-12T15:09:40Z</time></trkpt><trkpt lat="40.06492643631404" lon="18.014840401561113"><ele>27.0</ele><time>2026-04-12T15:09:41Z</time></trkpt><trkpt lat="40.0651839940206" lon="18.01473404870579"><ele>24.0</ele><time>2026-04-12T15:09:42Z</time></trkpt><trkpt lat="40.06545103908655" lon="18.014623037762732"><ele>21.0</ele><time>2026-04-12T15:09:43Z</time></trkpt><trkpt lat="40.06571018866343" lon="18.014513258522946"><ele>21.0</ele><time>2026-04-12T15:09:44Z</time></trkpt><trkpt lat="40.06597459326633" lon="18.014408464125577"><ele>21.0</ele><time>2026-04-12T15:09:45Z</time></trkpt><trkpt lat="40.066247963079704" lon="18.014301355419473"><ele>21.0</ele><time>2026-04-12T15:09:46Z</time></trkpt><trkpt lat="40.06649121224563" lon="18.014208033176356"><ele>21.0</ele><time>2026-04-12T15:09:47Z</time></trkpt><trkpt lat="40.066761828817526" lon="18.014099106365194"><ele>18.0</ele><time>2026-04-12T15:09:48Z</time></trkpt><trkpt lat="40.06703394864274" lon="18.01399232303766"><ele>15.0</ele><time>2026-04-12T15:09:49Z</time></trkpt><trkpt lat="40.06728991998002" lon="18.013883282092788"><ele>15.5</ele><time>2026-04-12T15:09:50Z</time></trkpt><trkpt lat="40.067547008265144" lon="18.013768520293496"><ele>16.0</ele><time>2026-04-12T15:09:51Z</time></trkpt><trkpt lat="40.0678093085493" lon="18.01365577727536"><ele>16.0</ele><time>2026-04-12T15:09:52Z</time></trkpt><trkpt lat="40.06806877460383" lon="18.013544090838195"><ele>16.0</ele><time>2026-04-12T15:09:53Z</time></trkpt><trkpt lat="40.06832987554975" lon="18.01343305440643"><ele>15.0</ele><time>2026-04-12T15:09:54Z</time></trkpt><trkpt lat="40.068587809686036" lon="18.013324413026506"><ele>14.0</ele><time>2026-04-12T15:09:55Z</time></trkpt><trkpt lat="40.06883822548058" lon="18.01321831594131"><ele>12.0</ele><time>2026-04-12T15:09:56Z</time></trkpt><trkpt lat="40.06909387502502" lon="18.013108716653498"><ele>10.0</ele><time>2026-04-12T15:09:57Z</time></trkpt><trkpt lat="40.06934644835091" lon="18.01299816942948"><ele>10.0</ele><time>2026-04-12T15:09:58Z</time></trkpt><trkpt lat="40.06960226959021" lon="18.012890783406682"><ele>10.0</ele><time>2026-04-12T15:09:59Z</time></trkpt><trkpt lat="40.069856590509325" lon="18.012784216879695"><ele>9.5</ele><time>2026-04-12T15:10:00Z</time></trkpt><trkpt lat="40.07009854048795" lon="18.012689077018745"><ele>9.0</ele><time>2026-04-12T15:10:01Z</time></trkpt><trkpt lat="40.07032964186389" lon="18.012604726233477"><ele>9.0</ele><time>2026-04-12T15:10:02Z</time></trkpt><trkpt lat="40.070569150648694" lon="18.012544163543957"><ele>9.0</ele><time>2026-04-12T15:10:03Z</time></trkpt><trkpt lat="40.07081195394101" lon="18.01250411494156"><ele>8.0</ele><time>2026-04-12T15:10:04Z</time></trkpt><trkpt lat="40.071053377729925" lon="18.012471782099155"><ele>7.0</ele><time>2026-04-12T15:10:05Z</time></trkpt><trkpt lat="40.071297921060165" lon="18.012454925960384"><ele>7.0</ele><time>2026-04-12T15:10:06Z</time></trkpt><trkpt lat="40.07154490192676" lon="18.012447407719215"><ele>7.0</ele><time>2026-04-12T15:10:06.999Z</time></trkpt><trkpt lat="40.07179561781019" lon="18.012458779014704"><ele>7.5</ele><time>2026-04-12T15:10:07.999Z</time></trkpt><trkpt lat="40.072047053156865" lon="18.01249186946952"><ele>8.0</ele><time>2026-04-12T15:10:09Z</time></trkpt><trkpt lat="40.072292519006204" lon="18.012540829565697"><ele>8.5</ele><time>2026-04-12T15:10:10.001Z</time></trkpt><trkpt lat="40.07254344868601" lon="18.012594886018423"><ele>9.0</ele><time>2026-04-12T15:10:11.001Z</time></trkpt><trkpt lat="40.072783523371825" lon="18.01265751450495"><ele>9.0</ele><time>2026-04-12T15:10:12Z</time></trkpt><trkpt lat="40.07301469737742" lon="18.012742339309252"><ele>9.0</ele><time>2026-04-12T15:10:13Z</time></trkpt><trkpt lat="40.07325314072437" lon="18.01283188271357"><ele>8.0</ele><time>2026-04-12T15:10:14Z</time></trkpt><trkpt lat="40.073482192327276" lon="18.01293359076208"><ele>7.0</ele><time>2026-04-12T15:10:15Z</time></trkpt><trkpt lat="40.073707685112126" lon="18.013034298499285"><ele>7.0</ele><time>2026-04-12T15:10:16Z</time></trkpt><trkpt lat="40.073928280723095" lon="18.01312647744175"><ele>7.0</ele><time>2026-04-12T15:10:17Z</time></trkpt><trkpt lat="40.07414640628969" lon="18.01322252039123"><ele>6.0</ele><time>2026-04-12T15:10:18Z</time></trkpt><trkpt lat="40.074361532108334" lon="18.013318288228536"><ele>5.0</ele><time>2026-04-12T15:10:19Z</time></trkpt><trkpt lat="40.074579374891314" lon="18.013414165830277"><ele>5.0</ele><time>2026-04-12T15:10:20Z</time></trkpt><trkpt lat="40.074795651891485" lon="18.013513743494336"><ele>5.0</ele><time>2026-04-12T15:10:21Z</time></trkpt><trkpt lat="40.07500980513726" lon="18.013619391197427"><ele>4.5</ele><time>2026-04-12T15:10:22Z</time></trkpt><trkpt lat="40.07522323382511" lon="18.013725708800703"><ele>4.0</ele><time>2026-04-12T15:10:23Z</time></trkpt><trkpt lat="40.075432201452834" lon="18.01384085534099"><ele>4.0</ele><time>2026-04-12T15:10:24Z</time></trkpt><trkpt lat="40.0756382923763" lon="18.013969984186456"><ele>4.0</ele><time>2026-04-12T15:10:25Z</time></trkpt><trkpt lat="40.07583170271593" lon="18.014116889290328"><ele>4.5</ele><time>2026-04-12T15:10:26Z</time></trkpt><trkpt lat="40.07603099588361" lon="18.014273642073675"><ele>5.0</ele><time>2026-04-12T15:10:27Z</time></trkpt><trkpt lat="40.07622849362366" lon="18.01443153124869"><ele>5.0</ele><time>2026-04-12T15:10:28Z</time></trkpt><trkpt lat="40.076426768554946" lon="18.014598142093107"><ele>5.0</ele><time>2026-04-12T15:10:29Z</time></trkpt><trkpt lat="40.07662121480203" lon="18.014771922881792"><ele>5.0</ele><time>2026-04-12T15:10:30Z</time></trkpt><trkpt lat="40.076813533175454" lon="18.014955296727404"><ele>5.0</ele><time>2026-04-12T15:10:31Z</time></trkpt><trkpt lat="40.07700146369487" lon="18.0151474721767"><ele>5.0</ele><time>2026-04-12T15:10:32Z</time></trkpt><trkpt lat="40.07718358217869" lon="18.01535431163547"><ele>5.0</ele><time>2026-04-12T15:10:33Z</time></trkpt><trkpt lat="40.07734859788847" lon="18.015567907785663"><ele>5.0</ele><time>2026-04-12T15:10:34Z</time></trkpt><trkpt lat="40.0775161360508" lon="18.015791182970716"><ele>5.0</ele><time>2026-04-12T15:10:35Z</time></trkpt><trkpt lat="40.077683780604936" lon="18.01601828808114"><ele>5.0</ele><time>2026-04-12T15:10:36Z</time></trkpt><trkpt lat="40.077856903150284" lon="18.016237355618482"><ele>5.0</ele><time>2026-04-12T15:10:37Z</time></trkpt><trkpt lat="40.07802260234834" lon="18.016457698653664"><ele>5.5</ele><time>2026-04-12T15:10:38Z</time></trkpt><trkpt lat="40.078194373937485" lon="18.01667370006828"><ele>6.0</ele><time>2026-04-12T15:10:39Z</time></trkpt><trkpt lat="40.07836780166492" lon="18.01689084587031"><ele>6.0</ele><time>2026-04-12T15:10:40Z</time></trkpt><trkpt lat="40.07854256121933" lon="18.01711119536551"><ele>6.0</ele><time>2026-04-12T15:10:41Z</time></trkpt><trkpt lat="40.078715403019324" lon="18.01733345552914"><ele>6.5</ele><time>2026-04-12T15:10:42Z</time></trkpt><trkpt lat="40.07888440427491" lon="18.0175544483228"><ele>7.0</ele><time>2026-04-12T15:10:43Z</time></trkpt><trkpt lat="40.079056230068794" lon="18.017775618340973"><ele>7.0</ele><time>2026-04-12T15:10:44Z</time></trkpt><trkpt lat="40.07922857904934" lon="18.0179972628905"><ele>7.0</ele><time>2026-04-12T15:10:45Z</time></trkpt><trkpt lat="40.0794013247872" lon="18.01821636642183"><ele>8.0</ele><time>2026-04-12T15:10:46Z</time></trkpt><trkpt lat="40.07957147104471" lon="18.0184354815641"><ele>9.0</ele><time>2026-04-12T15:10:47Z</time></trkpt><trkpt lat="40.07974480081965" lon="18.018656350324047"><ele>9.0</ele><time>2026-04-12T15:10:48Z</time></trkpt><trkpt lat="40.079915380862346" lon="18.018875543546816"><ele>9.0</ele><time>2026-04-12T15:10:49Z</time></trkpt><trkpt lat="40.080088295355964" lon="18.019095933610018"><ele>8.5</ele><time>2026-04-12T15:10:50Z</time></trkpt><trkpt lat="40.08026080360494" lon="18.019312614161837"><ele>8.0</ele><time>2026-04-12T15:10:51Z</time></trkpt><trkpt lat="40.080432239991374" lon="18.019533988556628"><ele>8.0</ele><time>2026-04-12T15:10:52Z</time></trkpt><trkpt lat="40.08060284489149" lon="18.019756996293818"><ele>8.0</ele><time>2026-04-12T15:10:53Z</time></trkpt><trkpt lat="40.080773922371954" lon="18.01998029718928"><ele>8.5</ele><time>2026-04-12T15:10:54Z</time></trkpt><trkpt lat="40.080947086578455" lon="18.020199451775298"><ele>9.0</ele><time>2026-04-12T15:10:55Z</time></trkpt><trkpt lat="40.081120470330845" lon="18.020419735329508"><ele>9.0</ele><time>2026-04-12T15:10:56Z</time></trkpt><trkpt lat="40.081291809840145" lon="18.020640874733147"><ele>9.0</ele><time>2026-04-12T15:10:57Z</time></trkpt><trkpt lat="40.08146404125663" lon="18.02086270417778"><ele>9.5</ele><time>2026-04-12T15:10:58Z</time></trkpt><trkpt lat="40.081635222140875" lon="18.021083870870918"><ele>10.0</ele><time>2026-04-12T15:10:59Z</time></trkpt><trkpt lat="40.081807057368955" lon="18.021299607400437"><ele>10.0</ele><time>2026-04-12T15:11:00Z</time></trkpt><trkpt lat="40.081978142138254" lon="18.021519338871233"><ele>10.0</ele><time>2026-04-12T15:11:01Z</time></trkpt><trkpt lat="40.08214833427721" lon="18.021741927253856"><ele>10.0</ele><time>2026-04-12T15:11:02Z</time></trkpt><trkpt lat="40.08231958284092" lon="18.021965248801525"><ele>10.0</ele><time>2026-04-12T15:11:03Z</time></trkpt><trkpt lat="40.08249077022977" lon="18.02218607192233"><ele>10.0</ele><time>2026-04-12T15:11:04Z</time></trkpt><trkpt lat="40.082663825976226" lon="18.02240873855459"><ele>10.0</ele><time>2026-04-12T15:11:05Z</time></trkpt><trkpt lat="40.08283503212078" lon="18.022631211909296"><ele>10.0</ele><time>2026-04-12T15:11:06Z</time></trkpt><trkpt lat="40.0829980321465" lon="18.02285609160903"><ele>10.0</ele><time>2026-04-12T15:11:07Z</time></trkpt><trkpt lat="40.08316810450814" lon="18.023074858733203"><ele>10.0</ele><time>2026-04-12T15:11:08Z</time></trkpt><trkpt lat="40.083346696030404" lon="18.02329041759101"><ele>10.0</ele><time>2026-04-12T15:11:09Z</time></trkpt><trkpt lat="40.083519765944374" lon="18.023510497892314"><ele>10.0</ele><time>2026-04-12T15:11:10Z</time></trkpt><trkpt lat="40.083694956157274" lon="18.023730140640218"><ele>10.0</ele><time>2026-04-12T15:11:11Z</time></trkpt><trkpt lat="40.08387132380492" lon="18.023953659022567"><ele>10.5</ele><time>2026-04-12T15:11:12Z</time></trkpt><trkpt lat="40.08404377597158" lon="18.0241736677569"><ele>11.0</ele><time>2026-04-12T15:11:13Z</time></trkpt><trkpt lat="40.0842156704046" lon="18.024396871084882"><ele>11.0</ele><time>2026-04-12T15:11:14Z</time></trkpt><trkpt lat="40.084389055412124" lon="18.024619425592018"><ele>11.0</ele><time>2026-04-12T15:11:15Z</time></trkpt><trkpt lat="40.084561402748825" lon="18.02484581835215"><ele>11.0</ele><time>2026-04-12T15:11:16Z</time></trkpt><trkpt lat="40.08473348048616" lon="18.02506672415944"><ele>11.0</ele><time>2026-04-12T15:11:17Z</time></trkpt><trkpt lat="40.08490505331387" lon="18.02528758143804"><ele>10.5</ele><time>2026-04-12T15:11:18Z</time></trkpt><trkpt lat="40.085076778505375" lon="18.025505622072856"><ele>10.0</ele><time>2026-04-12T15:11:19Z</time></trkpt><trkpt lat="40.0852479483208" lon="18.02572209215615"><ele>11.0</ele><time>2026-04-12T15:11:20Z</time></trkpt><trkpt lat="40.085419190227576" lon="18.025938485215242"><ele>12.0</ele><time>2026-04-12T15:11:21Z</time></trkpt><trkpt lat="40.08559009723383" lon="18.02615710423995"><ele>12.0</ele><time>2026-04-12T15:11:22Z</time></trkpt><trkpt lat="40.08576186917707" lon="18.026376853113074"><ele>12.0</ele><time>2026-04-12T15:11:23Z</time></trkpt><trkpt lat="40.08593376124933" lon="18.02659592418281"><ele>13.0</ele><time>2026-04-12T15:11:24Z</time></trkpt><trkpt lat="40.0861052810944" lon="18.02681845852085"><ele>14.0</ele><time>2026-04-12T15:11:25Z</time></trkpt><trkpt lat="40.08627468610443" lon="18.027039986098607"><ele>14.0</ele><time>2026-04-12T15:11:26Z</time></trkpt><trkpt lat="40.08644526341069" lon="18.02726483454761"><ele>14.0</ele><time>2026-04-12T15:11:27Z</time></trkpt><trkpt lat="40.08661807607612" lon="18.027483514190386"><ele>14.0</ele><time>2026-04-12T15:11:28Z</time></trkpt><trkpt lat="40.086791377701914" lon="18.027704315524858"><ele>14.0</ele><time>2026-04-12T15:11:29Z</time></trkpt><trkpt lat="40.086960719106486" lon="18.027919474842744"><ele>14.0</ele><time>2026-04-12T15:11:30Z</time></trkpt><trkpt lat="40.0871315418113" lon="18.02813411985089"><ele>14.0</ele><time>2026-04-12T15:11:31Z</time></trkpt><trkpt lat="40.08730462103195" lon="18.028349530453887"><ele>15.0</ele><time>2026-04-12T15:11:32Z</time></trkpt><trkpt lat="40.08747685872881" lon="18.028566687005185"><ele>16.0</ele><time>2026-04-12T15:11:33Z</time></trkpt><trkpt lat="40.08764622202316" lon="18.028786422619103"><ele>16.0</ele><time>2026-04-12T15:11:34Z</time></trkpt><trkpt lat="40.08781434306604" lon="18.0290052665517"><ele>16.0</ele><time>2026-04-12T15:11:35Z</time></trkpt><trkpt lat="40.087982518928506" lon="18.029225916598286"><ele>17.0</ele><time>2026-04-12T15:11:36Z</time></trkpt><trkpt lat="40.088151002675396" lon="18.029448338572127"><ele>18.0</ele><time>2026-04-12T15:11:37Z</time></trkpt><trkpt lat="40.088323582906085" lon="18.029667337095198"><ele>18.5</ele><time>2026-04-12T15:11:38Z</time></trkpt><trkpt lat="40.08849564644739" lon="18.02988773233005"><ele>19.0</ele><time>2026-04-12T15:11:39Z</time></trkpt><trkpt lat="40.08866891906878" lon="18.030103867330876"><ele>19.5</ele><time>2026-04-12T15:11:40Z</time></trkpt><trkpt lat="40.08884182748757" lon="18.03031418765653"><ele>20.0</ele><time>2026-04-12T15:11:41Z</time></trkpt><trkpt lat="40.08902566043985" lon="18.030530246537737"><ele>21.0</ele><time>2026-04-12T15:11:42Z</time></trkpt><trkpt lat="40.089214942530084" lon="18.030729205524693"><ele>22.0</ele><time>2026-04-12T15:11:43Z</time></trkpt><trkpt lat="40.08941201196265" lon="18.030909846536012"><ele>23.0</ele><time>2026-04-12T15:11:44Z</time></trkpt><trkpt lat="40.08961726975647" lon="18.031073904874578"><ele>24.0</ele><time>2026-04-12T15:11:45Z</time></trkpt><trkpt lat="40.08982946860973" lon="18.031229553207517"><ele>23.5</ele><time>2026-04-12T15:11:46Z</time></trkpt><trkpt lat="40.09004967802722" lon="18.03136457964198"><ele>23.0</ele><time>2026-04-12T15:11:47Z</time></trkpt><trkpt lat="40.09027452052355" lon="18.031488916459505"><ele>23.0</ele><time>2026-04-12T15:11:48Z</time></trkpt><trkpt lat="40.0905033090964" lon="18.031593570107802"><ele>23.0</ele><time>2026-04-12T15:11:49Z</time></trkpt><trkpt lat="40.09073501094972" lon="18.03167906569984"><ele>24.0</ele><time>2026-04-12T15:11:50Z</time></trkpt><trkpt lat="40.09096850451659" lon="18.031744577936358"><ele>25.0</ele><time>2026-04-12T15:11:51Z</time></trkpt><trkpt lat="40.091205836884015" lon="18.031797411442245"><ele>25.0</ele><time>2026-04-12T15:11:52Z</time></trkpt><trkpt lat="40.091446880259234" lon="18.031837107691555"><ele>25.0</ele><time>2026-04-12T15:11:53Z</time></trkpt><trkpt lat="40.091690590109515" lon="18.031857447217703"><ele>27.5</ele><time>2026-04-12T15:11:54Z</time></trkpt><trkpt lat="40.09193620027596" lon="18.031857673558893"><ele>30.0</ele><time>2026-04-12T15:11:55Z</time></trkpt><trkpt lat="40.092179336559475" lon="18.031842552525777"><ele>30.0</ele><time>2026-04-12T15:11:56Z</time></trkpt><trkpt lat="40.09241814311195" lon="18.031808063268947"><ele>30.0</ele><time>2026-04-12T15:11:57Z</time></trkpt><trkpt lat="40.092654903862105" lon="18.03175836232462"><ele>29.0</ele><time>2026-04-12T15:11:58Z</time></trkpt><trkpt lat="40.092887767614556" lon="18.03168987897997"><ele>28.0</ele><time>2026-04-12T15:11:59Z</time></trkpt><trkpt lat="40.093117636816245" lon="18.031605857221265"><ele>33.0</ele><time>2026-04-12T15:12:00Z</time></trkpt><trkpt lat="40.0933438763098" lon="18.031506866339196"><ele>38.0</ele><time>2026-04-12T15:12:01Z</time></trkpt><trkpt lat="40.093567484992356" lon="18.031401452718317"><ele>38.0</ele><time>2026-04-12T15:12:02Z</time></trkpt><trkpt lat="40.093784200081174" lon="18.0312837163206"><ele>38.0</ele><time>2026-04-12T15:12:03Z</time></trkpt><trkpt lat="40.094000787543955" lon="18.03115708103873"><ele>41.5</ele><time>2026-04-12T15:12:04Z</time></trkpt><trkpt lat="40.09421737716165" lon="18.03102485547021"><ele>45.0</ele><time>2026-04-12T15:12:05Z</time></trkpt><trkpt lat="40.09443776217733" lon="18.030898079270248"><ele>43.5</ele><time>2026-04-12T15:12:06Z</time></trkpt><trkpt lat="40.09465899862296" lon="18.03077329224546"><ele>42.0</ele><time>2026-04-12T15:12:07Z</time></trkpt><trkpt lat="40.09488790665254" lon="18.03064754056057"><ele>45.5</ele><time>2026-04-12T15:12:08Z</time></trkpt><trkpt lat="40.09511191147677" lon="18.03052530311939"><ele>49.0</ele><time>2026-04-12T15:12:09Z</time></trkpt><trkpt lat="40.09533801860748" lon="18.030400502193103"><ele>49.0</ele><time>2026-04-12T15:12:10Z</time></trkpt><trkpt lat="40.09556515148428" lon="18.030274474180544"><ele>49.0</ele><time>2026-04-12T15:12:11Z</time></trkpt><trkpt lat="40.09578922262893" lon="18.030146197870817"><ele>50.5</ele><time>2026-04-12T15:12:12.001Z</time></trkpt><trkpt lat="40.096016360838064" lon="18.030025829952525"><ele>52.0</ele><time>2026-04-12T15:12:12.999Z</time></trkpt><trkpt lat="40.0962473971231" lon="18.02992268565062"><ele>52.0</ele><time>2026-04-12T15:12:13.999Z</time></trkpt><trkpt lat="40.096478538100556" lon="18.029836595369563"><ele>52.0</ele><time>2026-04-12T15:12:15Z</time></trkpt><trkpt lat="40.09670849748328" lon="18.029765822373143"><ele>54.5</ele><time>2026-04-12T15:12:15.999Z</time></trkpt><trkpt lat="40.09694389876117" lon="18.02970901148594"><ele>57.0</ele><time>2026-04-12T15:12:16.999Z</time></trkpt><trkpt lat="40.097182707918066" lon="18.029666342438436"><ele>59.5</ele><time>2026-04-12T15:12:18Z</time></trkpt><trkpt lat="40.097424715961445" lon="18.02963490603609"><ele>62.0</ele><time>2026-04-12T15:12:19Z</time></trkpt><trkpt lat="40.097668373030146" lon="18.029615992752195"><ele>62.0</ele><time>2026-04-12T15:12:19.999Z</time></trkpt><trkpt lat="40.09790834959642" lon="18.029607802514587"><ele>62.0</ele><time>2026-04-12T15:12:21Z</time></trkpt><trkpt lat="40.09814982963074" lon="18.029611334409122"><ele>63.5</ele><time>2026-04-12T15:12:22Z</time></trkpt><trkpt lat="40.098392228728194" lon="18.029634582029658"><ele>65.0</ele><time>2026-04-12T15:12:23Z</time></trkpt><trkpt lat="40.09863252400682" lon="18.029671635029963"><ele>65.0</ele><time>2026-04-12T15:12:24Z</time></trkpt><trkpt lat="40.098869191995405" lon="18.02972214534543"><ele>65.0</ele><time>2026-04-12T15:12:25Z</time></trkpt><trkpt lat="40.09910866852012" lon="18.029789818300078"><ele>65.5</ele><time>2026-04-12T15:12:26Z</time></trkpt><trkpt lat="40.0993422027606" lon="18.029867916257114"><ele>66.0</ele><time>2026-04-12T15:12:27Z</time></trkpt><trkpt lat="40.09957364845974" lon="18.02995916440432"><ele>66.0</ele><time>2026-04-12T15:12:28Z</time></trkpt><trkpt lat="40.099802407537354" lon="18.030061722909146"><ele>66.0</ele><time>2026-04-12T15:12:29Z</time></trkpt><trkpt lat="40.10002461220414" lon="18.030177886074014"><ele>65.5</ele><time>2026-04-12T15:12:30Z</time></trkpt><trkpt lat="40.10024592531924" lon="18.030310252046462"><ele>65.0</ele><time>2026-04-12T15:12:31Z</time></trkpt><trkpt lat="40.10046351043798" lon="18.030452477079358"><ele>65.0</ele><time>2026-04-12T15:12:32Z</time></trkpt><trkpt lat="40.100673848775784" lon="18.030609670179786"><ele>65.0</ele><time>2026-04-12T15:12:33Z</time></trkpt><trkpt lat="40.10087431657645" lon="18.030775845478324"><ele>64.5</ele><time>2026-04-12T15:12:34Z</time></trkpt><trkpt lat="40.101077661706654" lon="18.030956189047778"><ele>64.0</ele><time>2026-04-12T15:12:35Z</time></trkpt><trkpt lat="40.10128156990078" lon="18.031142126521637"><ele>64.0</ele><time>2026-04-12T15:12:36Z</time></trkpt><trkpt lat="40.10148944133287" lon="18.031327533955686"><ele>64.0</ele><time>2026-04-12T15:12:37Z</time></trkpt><trkpt lat="40.10169774757598" lon="18.03151375456132"><ele>64.0</ele><time>2026-04-12T15:12:38Z</time></trkpt><trkpt lat="40.101905806595724" lon="18.03170126137731"><ele>64.0</ele><time>2026-04-12T15:12:39Z</time></trkpt><trkpt lat="40.10211477213697" lon="18.031888003314904"><ele>64.0</ele><time>2026-04-12T15:12:40Z</time></trkpt><trkpt lat="40.102322548775376" lon="18.032075890210674"><ele>64.0</ele><time>2026-04-12T15:12:41Z</time></trkpt><trkpt lat="40.1025332019102" lon="18.03226356437036"><ele>64.0</ele><time>2026-04-12T15:12:42Z</time></trkpt><trkpt lat="40.10274405914397" lon="18.03245145144125"><ele>64.0</ele><time>2026-04-12T15:12:43Z</time></trkpt><trkpt lat="40.10295429541474" lon="18.03263847661888"><ele>64.0</ele><time>2026-04-12T15:12:44Z</time></trkpt><trkpt lat="40.10316336123046" lon="18.032823590527368"><ele>64.0</ele><time>2026-04-12T15:12:45Z</time></trkpt><trkpt lat="40.103371699235346" lon="18.033009029314638"><ele>64.5</ele><time>2026-04-12T15:12:46Z</time></trkpt><trkpt lat="40.10357983333453" lon="18.03319461856165"><ele>65.0</ele><time>2026-04-12T15:12:47Z</time></trkpt><trkpt lat="40.10378913793218" lon="18.033381251723483"><ele>65.5</ele><time>2026-04-12T15:12:48Z</time></trkpt><trkpt lat="40.1039958487881" lon="18.033565069968777"><ele>66.0</ele><time>2026-04-12T15:12:49Z</time></trkpt><trkpt lat="40.10420421488257" lon="18.033748866315996"><ele>66.0</ele><time>2026-04-12T15:12:50Z</time></trkpt><trkpt lat="40.10441095801778" lon="18.033932888315533"><ele>66.0</ele><time>2026-04-12T15:12:51Z</time></trkpt><trkpt lat="40.10461630599476" lon="18.03411587138219"><ele>66.0</ele><time>2026-04-12T15:12:52Z</time></trkpt><trkpt lat="40.104823966138426" lon="18.034300637307577"><ele>66.0</ele><time>2026-04-12T15:12:53Z</time></trkpt><trkpt lat="40.10503221521967" lon="18.03448437968307"><ele>66.0</ele><time>2026-04-12T15:12:54Z</time></trkpt><trkpt lat="40.10524093256815" lon="18.034669510191605"><ele>66.0</ele><time>2026-04-12T15:12:55Z</time></trkpt><trkpt lat="40.105450640175334" lon="18.034854783878128"><ele>66.5</ele><time>2026-04-12T15:12:55.999Z</time></trkpt><trkpt lat="40.10566075885291" lon="18.035041597092352"><ele>67.0</ele><time>2026-04-12T15:12:56.999Z</time></trkpt><trkpt lat="40.10587093109626" lon="18.035229943673937"><ele>67.0</ele><time>2026-04-12T15:12:57.999Z</time></trkpt><trkpt lat="40.10607901923625" lon="18.035415504465686"><ele>67.0</ele><time>2026-04-12T15:12:58.999Z</time></trkpt><trkpt lat="40.106285933095194" lon="18.035602211568477"><ele>67.0</ele><time>2026-04-12T15:12:59.999Z</time></trkpt><trkpt lat="40.10649574483029" lon="18.03578810677618"><ele>67.0</ele><time>2026-04-12T15:13:00.999Z</time></trkpt><trkpt lat="40.10670660053077" lon="18.035973249211715"><ele>67.0</ele><time>2026-04-12T15:13:01.999Z</time></trkpt><trkpt lat="40.10691844760603" lon="18.0361588301339"><ele>67.0</ele><time>2026-04-12T15:13:02.999Z</time></trkpt><trkpt lat="40.10713027405892" lon="18.036342813770236"><ele>67.0</ele><time>2026-04-12T15:13:03.999Z</time></trkpt><trkpt lat="40.10734079054899" lon="18.036528181743385"><ele>67.0</ele><time>2026-04-12T15:13:04.999Z</time></trkpt><trkpt lat="40.10755004759835" lon="18.0367120056604"><ele>68.5</ele><time>2026-04-12T15:13:05.999Z</time></trkpt><trkpt lat="40.10776001378652" lon="18.036895044461016"><ele>70.0</ele><time>2026-04-12T15:13:06.999Z</time></trkpt><trkpt lat="40.1079684796309" lon="18.037078210289607"><ele>70.0</ele><time>2026-04-12T15:13:07.999Z</time></trkpt><trkpt lat="40.10817531675289" lon="18.03726040567195"><ele>70.0</ele><time>2026-04-12T15:13:08.999Z</time></trkpt><trkpt lat="40.10838352675295" lon="18.037444427187342"><ele>70.0</ele><time>2026-04-12T15:13:09.999Z</time></trkpt><trkpt lat="40.10859187637914" lon="18.0376266854424"><ele>70.0</ele><time>2026-04-12T15:13:10.999Z</time></trkpt><trkpt lat="40.10880030911559" lon="18.037809612806452"><ele>70.0</ele><time>2026-04-12T15:13:11.999Z</time></trkpt><trkpt lat="40.10901011758651" lon="18.037990342043397"><ele>70.0</ele><time>2026-04-12T15:13:12.999Z</time></trkpt><trkpt lat="40.10921897938711" lon="18.03817491911887"><ele>72.0</ele><time>2026-04-12T15:13:13.999Z</time></trkpt><trkpt lat="40.10943047500594" lon="18.038360421818666"><ele>74.0</ele><time>2026-04-12T15:13:14.999Z</time></trkpt><trkpt lat="40.109638083758014" lon="18.038552331336774"><ele>74.0</ele><time>2026-04-12T15:13:15.999Z</time></trkpt><trkpt lat="40.109845776005095" lon="18.03874457991781"><ele>74.0</ele><time>2026-04-12T15:13:16.999Z</time></trkpt><trkpt lat="40.11005104044086" lon="18.038932726378132"><ele>73.5</ele><time>2026-04-12T15:13:17.999Z</time></trkpt><trkpt lat="40.110255886974" lon="18.039120816167166"><ele>73.0</ele><time>2026-04-12T15:13:18.999Z</time></trkpt><trkpt lat="40.11046257033959" lon="18.039311800020407"><ele>73.0</ele><time>2026-04-12T15:13:19.999Z</time></trkpt><trkpt lat="40.11067052192827" lon="18.039499265183938"><ele>73.0</ele><time>2026-04-12T15:13:20.999Z</time></trkpt><trkpt lat="40.1108752693325" lon="18.03968705505583"><ele>73.5</ele><time>2026-04-12T15:13:21.999Z</time></trkpt><trkpt lat="40.11108290423171" lon="18.039874229621276"><ele>74.0</ele><time>2026-04-12T15:13:22.999Z</time></trkpt><trkpt lat="40.111292049780516" lon="18.0400605672327"><ele>75.5</ele><time>2026-04-12T15:13:23.999Z</time></trkpt><trkpt lat="40.111502718734435" lon="18.040250179219733"><ele>77.0</ele><time>2026-04-12T15:13:24.999Z</time></trkpt><trkpt lat="40.1117130313548" lon="18.040440455228755"><ele>77.5</ele><time>2026-04-12T15:13:25.999Z</time></trkpt><trkpt lat="40.11192442604766" lon="18.04062762424922"><ele>78.0</ele><time>2026-04-12T15:13:26.999Z</time></trkpt><trkpt lat="40.11213697082949" lon="18.040821757910308"><ele>78.5</ele><time>2026-04-12T15:13:27.999Z</time></trkpt><trkpt lat="40.112348779405" lon="18.041007742378365"><ele>79.0</ele><time>2026-04-12T15:13:28.999Z</time></trkpt><trkpt lat="40.11255854605963" lon="18.041192957290722"><ele>79.0</ele><time>2026-04-12T15:13:29.999Z</time></trkpt><trkpt lat="40.11276552948926" lon="18.04137495042939"><ele>79.0</ele><time>2026-04-12T15:13:30.999Z</time></trkpt><trkpt lat="40.11295924416226" lon="18.041549424676628"><ele>79.5</ele><time>2026-04-12T15:13:31.999Z</time></trkpt><trkpt lat="40.1131458467617" lon="18.041715662903343"><ele>80.0</ele><time>2026-04-12T15:13:32.999Z</time></trkpt><trkpt lat="40.11332987156593" lon="18.04188212457877"><ele>80.0</ele><time>2026-04-12T15:13:33.999Z</time></trkpt><trkpt lat="40.11350979094111" lon="18.04204637570462"><ele>80.0</ele><time>2026-04-12T15:13:34.999Z</time></trkpt><trkpt lat="40.113692000962864" lon="18.0422083465625"><ele>80.0</ele><time>2026-04-12T15:13:35.999Z</time></trkpt><trkpt lat="40.11386871847416" lon="18.04236690193818"><ele>80.33333333333334</ele><time>2026-04-12T15:13:36.999Z</time></trkpt><trkpt lat="40.11404775484699" lon="18.04252874664642"><ele>80.66666666666667</ele><time>2026-04-12T15:13:37.999Z</time></trkpt><trkpt lat="40.11422545217021" lon="18.04268834443026"><ele>81.0</ele><time>2026-04-12T15:13:38.999Z</time></trkpt><trkpt lat="40.11440676591947" lon="18.04284973117597"><ele>81.0</ele><time>2026-04-12T15:13:39.999Z</time></trkpt><trkpt lat="40.114589479756035" lon="18.04300699562987"><ele>81.0</ele><time>2026-04-12T15:13:40.999Z</time></trkpt><trkpt lat="40.11477455530542" lon="18.043167501021014"><ele>81.0</ele><time>2026-04-12T15:13:41.999Z</time></trkpt><trkpt lat="40.114962386153195" lon="18.043323234441353"><ele>81.0</ele><time>2026-04-12T15:13:42.999Z</time></trkpt><trkpt lat="40.115154343340286" lon="18.04348707907024"><ele>81.0</ele><time>2026-04-12T15:13:43.999Z</time></trkpt><trkpt lat="40.11534540364934" lon="18.043647855599406"><ele>81.0</ele><time>2026-04-12T15:13:44.999Z</time></trkpt><trkpt lat="40.11553099397989" lon="18.043808877266212"><ele>81.0</ele><time>2026-04-12T15:13:45.999Z</time></trkpt><trkpt lat="40.11571377513468" lon="18.043968751418834"><ele>81.0</ele><time>2026-04-12T15:13:46.999Z</time></trkpt><trkpt lat="40.11588529130175" lon="18.044125642143545"><ele>80.66666666666667</ele><time>2026-04-12T15:13:47.999Z</time></trkpt><trkpt lat="40.11604051406558" lon="18.044279969118914"><ele>80.33333333333334</ele><time>2026-04-12T15:13:48.999Z</time></trkpt><trkpt lat="40.11618868595107" lon="18.04444032027758"><ele>80.0</ele><time>2026-04-12T15:13:49.999Z</time></trkpt><trkpt lat="40.11633553910734" lon="18.04460283233256"><ele>80.0</ele><time>2026-04-12T15:13:50.999Z</time></trkpt><trkpt lat="40.116471667952084" lon="18.044785409345263"><ele>80.0</ele><time>2026-04-12T15:13:51.999Z</time></trkpt><trkpt lat="40.11659889967199" lon="18.04497346655715"><ele>80.0</ele><time>2026-04-12T15:13:52.999Z</time></trkpt><trkpt lat="40.1167399413982" lon="18.045161678468524"><ele>80.0</ele><time>2026-04-12T15:13:53.999Z</time></trkpt><trkpt lat="40.116891182245574" lon="18.045327468404462"><ele>80.0</ele><time>2026-04-12T15:13:54.999Z</time></trkpt><trkpt lat="40.11705320579782" lon="18.045473862849263"><ele>80.0</ele><time>2026-04-12T15:13:55.999Z</time></trkpt><trkpt lat="40.11722286819034" lon="18.045608297255693"><ele>80.0</ele><time>2026-04-12T15:13:56.999Z</time></trkpt><trkpt lat="40.1174086727963" lon="18.045712541639432"><ele>80.0</ele><time>2026-04-12T15:13:57.999Z</time></trkpt><trkpt lat="40.117615108971826" lon="18.045738550915623"><ele>80.0</ele><time>2026-04-12T15:13:58.999Z</time></trkpt><trkpt lat="40.11778369911882" lon="18.045855369623"><ele>80.0</ele><time>2026-04-12T15:13:59.999Z</time></trkpt><trkpt lat="40.11794545120042" lon="18.045981051335644"><ele>80.0</ele><time>2026-04-12T15:14:00.999Z</time></trkpt><trkpt lat="40.11810743381416" lon="18.046099859207487"><ele>80.0</ele><time>2026-04-12T15:14:01.999Z</time></trkpt><trkpt lat="40.11826747803143" lon="18.0462238483926"><ele>80.0</ele><time>2026-04-12T15:14:02.999Z</time></trkpt><trkpt lat="40.11842797984158" lon="18.04635312140564"><ele>80.0</ele><time>2026-04-12T15:14:03.999Z</time></trkpt><trkpt lat="40.118592588651076" lon="18.046488820990287"><ele>80.0</ele><time>2026-04-12T15:14:04.999Z</time></trkpt><trkpt lat="40.11875897645497" lon="18.046609736631414"><ele>80.0</ele><time>2026-04-12T15:14:05.999Z</time></trkpt><trkpt lat="40.11893252026437" lon="18.046717555689245"><ele>80.0</ele><time>2026-04-12T15:14:06.999Z</time></trkpt><trkpt lat="40.11909391090041" lon="18.04684027712477"><ele>80.0</ele><time>2026-04-12T15:14:07.999Z</time></trkpt><trkpt lat="40.119247046439106" lon="18.04700605346537"><ele>80.0</ele><time>2026-04-12T15:14:08.999Z</time></trkpt><trkpt lat="40.119402350142124" lon="18.047153995410966"><ele>80.0</ele><time>2026-04-12T15:14:09.999Z</time></trkpt><trkpt lat="40.11955228767221" lon="18.04730021678505"><ele>80.0</ele><time>2026-04-12T15:14:10.999Z</time></trkpt><trkpt lat="40.11969988531177" lon="18.047440212795323"><ele>80.0</ele><time>2026-04-12T15:14:11.999Z</time></trkpt><trkpt lat="40.119848915051016" lon="18.047577663911003"><ele>80.0</ele><time>2026-04-12T15:14:12.999Z</time></trkpt><trkpt lat="40.119996938798785" lon="18.047713945142775"><ele>80.0</ele><time>2026-04-12T15:14:13.999Z</time></trkpt><trkpt lat="40.12014557218494" lon="18.047850059012312"><ele>80.0</ele><time>2026-04-12T15:14:14.999Z</time></trkpt><trkpt lat="40.12029977639885" lon="18.04798707353048"><ele>80.0</ele><time>2026-04-12T15:14:15.999Z</time></trkpt><trkpt lat="40.120455325821425" lon="18.048123655620923"><ele>80.0</ele><time>2026-04-12T15:14:17Z</time></trkpt><trkpt lat="40.120613716243916" lon="18.048261259753307"><ele>80.66666666666667</ele><time>2026-04-12T15:14:18Z</time></trkpt><trkpt lat="40.120774607124005" lon="18.048406090352028"><ele>81.33333333333333</ele><time>2026-04-12T15:14:19Z</time></trkpt><trkpt lat="40.1209411622392" lon="18.048555166893365"><ele>82.0</ele><time>2026-04-12T15:14:20Z</time></trkpt><trkpt lat="40.12111652331147" lon="18.04871331514623"><ele>82.0</ele><time>2026-04-12T15:14:21Z</time></trkpt><trkpt lat="40.12130082610939" lon="18.048895949436716"><ele>82.0</ele><time>2026-04-12T15:14:22Z</time></trkpt><trkpt lat="40.12149819970139" lon="18.049075701741458"><ele>83.5</ele><time>2026-04-12T15:14:23Z</time></trkpt><trkpt lat="40.12170171451159" lon="18.04926735348411"><ele>85.0</ele><time>2026-04-12T15:14:24Z</time></trkpt><trkpt lat="40.1218926182399" lon="18.04948862751408"><ele>85.0</ele><time>2026-04-12T15:14:25Z</time></trkpt><trkpt lat="40.122083374385944" lon="18.049707356914436"><ele>85.0</ele><time>2026-04-12T15:14:26Z</time></trkpt><trkpt lat="40.12228013972943" lon="18.04991220837137"><ele>84.5</ele><time>2026-04-12T15:14:27Z</time></trkpt><trkpt lat="40.12247814200003" lon="18.05010808099628"><ele>84.0</ele><time>2026-04-12T15:14:28Z</time></trkpt><trkpt lat="40.12268420866519" lon="18.05030763459262"><ele>84.0</ele><time>2026-04-12T15:14:29Z</time></trkpt><trkpt lat="40.12289541596574" lon="18.050481017476475"><ele>84.0</ele><time>2026-04-12T15:14:29.999Z</time></trkpt><trkpt lat="40.1231423079908" lon="18.05058453380978"><ele>84.5</ele><time>2026-04-12T15:14:30.999Z</time></trkpt><trkpt lat="40.12336516384122" lon="18.050739115288962"><ele>85.0</ele><time>2026-04-12T15:14:31.999Z</time></trkpt><trkpt lat="40.12358614588708" lon="18.05090016457127"><ele>84.0</ele><time>2026-04-12T15:14:32.999Z</time></trkpt><trkpt lat="40.12380133886036" lon="18.051073220295176"><ele>83.0</ele><time>2026-04-12T15:14:33.999Z</time></trkpt><trkpt lat="40.12401432388471" lon="18.051255177319273"><ele>84.0</ele><time>2026-04-12T15:14:34.999Z</time></trkpt><trkpt lat="40.12422481976893" lon="18.051441085910984"><ele>85.0</ele><time>2026-04-12T15:14:35.999Z</time></trkpt><trkpt lat="40.12443927995302" lon="18.051618507595627"><ele>85.5</ele><time>2026-04-12T15:14:36.999Z</time></trkpt><trkpt lat="40.124656156914874" lon="18.051785536005053"><ele>86.0</ele><time>2026-04-12T15:14:37.999Z</time></trkpt><trkpt lat="40.1248724764948" lon="18.05193490144099"><ele>86.0</ele><time>2026-04-12T15:14:38.999Z</time></trkpt><trkpt lat="40.125092114734045" lon="18.052077924478304"><ele>86.0</ele><time>2026-04-12T15:14:39.999Z</time></trkpt><trkpt lat="40.12531659597696" lon="18.052212082871023"><ele>86.0</ele><time>2026-04-12T15:14:40.999Z</time></trkpt><trkpt lat="40.12554487039349" lon="18.05234042870359"><ele>86.0</ele><time>2026-04-12T15:14:41.999Z</time></trkpt><trkpt lat="40.12577829204421" lon="18.052461564971427"><ele>87.5</ele><time>2026-04-12T15:14:42.999Z</time></trkpt><trkpt lat="40.12601498319241" lon="18.052574682934196"><ele>89.0</ele><time>2026-04-12T15:14:43.999Z</time></trkpt><trkpt lat="40.12624738773286" lon="18.05268251906022"><ele>89.0</ele><time>2026-04-12T15:14:44.999Z</time></trkpt><trkpt lat="40.126482437893074" lon="18.052783660266265"><ele>89.0</ele><time>2026-04-12T15:14:45.999Z</time></trkpt><trkpt lat="40.12671959797359" lon="18.052876816543357"><ele>88.5</ele><time>2026-04-12T15:14:46.999Z</time></trkpt><trkpt lat="40.12695693051999" lon="18.052956557848542"><ele>88.0</ele><time>2026-04-12T15:14:47.999Z</time></trkpt><trkpt lat="40.127194521614236" lon="18.0530287347244"><ele>86.0</ele><time>2026-04-12T15:14:48.999Z</time></trkpt><trkpt lat="40.12743622215191" lon="18.05309248268886"><ele>84.0</ele><time>2026-04-12T15:14:49.999Z</time></trkpt><trkpt lat="40.12767833144971" lon="18.05315203133656"><ele>84.0</ele><time>2026-04-12T15:14:50.999Z</time></trkpt><trkpt lat="40.12792188821169" lon="18.053197573015947"><ele>84.0</ele><time>2026-04-12T15:14:51.999Z</time></trkpt><trkpt lat="40.12816641789797" lon="18.05323488245783"><ele>84.5</ele><time>2026-04-12T15:14:52.999Z</time></trkpt><trkpt lat="40.12841457552936" lon="18.05326204120137"><ele>85.0</ele><time>2026-04-12T15:14:53.999Z</time></trkpt><trkpt lat="40.12866435345427" lon="18.05328197260682"><ele>85.0</ele><time>2026-04-12T15:14:54.999Z</time></trkpt><trkpt lat="40.1289145774219" lon="18.053297687823363"><ele>85.0</ele><time>2026-04-12T15:14:55.999Z</time></trkpt><trkpt lat="40.12916633916684" lon="18.053304733005394"><ele>85.0</ele><time>2026-04-12T15:14:56.999Z</time></trkpt><trkpt lat="40.12941818394099" lon="18.053301032297092"><ele>85.0</ele><time>2026-04-12T15:14:57.999Z</time></trkpt><trkpt lat="40.12966897598228" lon="18.05328334163"><ele>85.0</ele><time>2026-04-12T15:14:58.999Z</time></trkpt><trkpt lat="40.129925711800425" lon="18.053258123026826"><ele>85.0</ele><time>2026-04-12T15:14:59.999Z</time></trkpt><trkpt lat="40.13017827860127" lon="18.053221147686063"><ele>85.0</ele><time>2026-04-12T15:15:00.999Z</time></trkpt><trkpt lat="40.130437701318996" lon="18.05317687458133"><ele>85.0</ele><time>2026-04-12T15:15:01.999Z</time></trkpt><trkpt lat="40.13069516353181" lon="18.05312106377975"><ele>84.0</ele><time>2026-04-12T15:15:02.999Z</time></trkpt><trkpt lat="40.13095356163032" lon="18.053057299302285"><ele>83.0</ele><time>2026-04-12T15:15:03.999Z</time></trkpt><trkpt lat="40.13121414651885" lon="18.052981797142422"><ele>83.0</ele><time>2026-04-12T15:15:04.999Z</time></trkpt><trkpt lat="40.131475604314836" lon="18.052903658777417"><ele>83.0</ele><time>2026-04-12T15:15:05.999Z</time></trkpt><trkpt lat="40.13173937524235" lon="18.052823749286226"><ele>82.5</ele><time>2026-04-12T15:15:06.999Z</time></trkpt><trkpt lat="40.132002320718826" lon="18.05274453861724"><ele>82.0</ele><time>2026-04-12T15:15:07.999Z</time></trkpt><trkpt lat="40.13226441575853" lon="18.052666501987975"><ele>81.5</ele><time>2026-04-12T15:15:08.999Z</time></trkpt><trkpt lat="40.13252586048783" lon="18.052586716701118"><ele>81.0</ele><time>2026-04-12T15:15:09.999Z</time></trkpt><trkpt lat="40.13278148741602" lon="18.052506296494418"><ele>81.0</ele><time>2026-04-12T15:15:10.999Z</time></trkpt><trkpt lat="40.13303836204693" lon="18.05242714471929"><ele>81.0</ele><time>2026-04-12T15:15:11.999Z</time></trkpt><trkpt lat="40.13329784399886" lon="18.05234858215927"><ele>80.5</ele><time>2026-04-12T15:15:12.999Z</time></trkpt><trkpt lat="40.13355487797408" lon="18.052268630617327"><ele>80.0</ele><time>2026-04-12T15:15:13.999Z</time></trkpt><trkpt lat="40.13381308424314" lon="18.052183159238673"><ele>79.5</ele><time>2026-04-12T15:15:14.999Z</time></trkpt><trkpt lat="40.13407048883428" lon="18.052098203593108"><ele>79.0</ele><time>2026-04-12T15:15:15.999Z</time></trkpt><trkpt lat="40.13433221898188" lon="18.052017333324617"><ele>79.0</ele><time>2026-04-12T15:15:16.999Z</time></trkpt><trkpt lat="40.134593157624515" lon="18.051940101190212"><ele>79.0</ele><time>2026-04-12T15:15:17.999Z</time></trkpt><trkpt lat="40.13484920618858" lon="18.051865818726625"><ele>77.0</ele><time>2026-04-12T15:15:18.999Z</time></trkpt><trkpt lat="40.13508584409366" lon="18.051803191223417"><ele>75.0</ele><time>2026-04-12T15:15:19.999Z</time></trkpt><trkpt lat="40.135307212192416" lon="18.051742322443282"><ele>75.0</ele><time>2026-04-12T15:15:20.999Z</time></trkpt><trkpt lat="40.13552010954793" lon="18.05167395131401"><ele>75.0</ele><time>2026-04-12T15:15:21.999Z</time></trkpt><trkpt lat="40.13573652063887" lon="18.051600031885794"><ele>75.0</ele><time>2026-04-12T15:15:22.999Z</time></trkpt><trkpt lat="40.135953753590016" lon="18.051519709765202"><ele>74.0</ele><time>2026-04-12T15:15:23.999Z</time></trkpt><trkpt lat="40.1361794282035" lon="18.05143692901162"><ele>73.0</ele><time>2026-04-12T15:15:24.999Z</time></trkpt><trkpt lat="40.136414965577906" lon="18.05136006647352"><ele>73.0</ele><time>2026-04-12T15:15:25.999Z</time></trkpt><trkpt lat="40.13665536832362" lon="18.0512884991851"><ele>73.0</ele><time>2026-04-12T15:15:26.999Z</time></trkpt><trkpt lat="40.13689868752638" lon="18.05122036339885"><ele>73.0</ele><time>2026-04-12T15:15:27.999Z</time></trkpt><trkpt lat="40.13714431961899" lon="18.05115045748695"><ele>73.0</ele><time>2026-04-12T15:15:28.999Z</time></trkpt><trkpt lat="40.13738905973916" lon="18.051077097377302"><ele>72.0</ele><time>2026-04-12T15:15:29.999Z</time></trkpt><trkpt lat="40.137641614773635" lon="18.051000741930142"><ele>71.0</ele><time>2026-04-12T15:15:30.999Z</time></trkpt><trkpt lat="40.13789336401577" lon="18.050924080691654"><ele>71.0</ele><time>2026-04-12T15:15:31.999Z</time></trkpt><trkpt lat="40.13815214864034" lon="18.050849562361105"><ele>71.0</ele><time>2026-04-12T15:15:32.999Z</time></trkpt><trkpt lat="40.13841117291549" lon="18.05077544299981"><ele>70.0</ele><time>2026-04-12T15:15:33.999Z</time></trkpt><trkpt lat="40.13867228034138" lon="18.050693428959075"><ele>69.0</ele><time>2026-04-12T15:15:34.999Z</time></trkpt><trkpt lat="40.13893169438399" lon="18.05061121092705"><ele>69.0</ele><time>2026-04-12T15:15:35.999Z</time></trkpt><trkpt lat="40.139191361143226" lon="18.050530627055984"><ele>69.0</ele><time>2026-04-12T15:15:36.999Z</time></trkpt><trkpt lat="40.13945056934601" lon="18.050450566670953"><ele>69.0</ele><time>2026-04-12T15:15:37.999Z</time></trkpt><trkpt lat="40.13970385190249" lon="18.050378229087507"><ele>69.0</ele><time>2026-04-12T15:15:38.999Z</time></trkpt><trkpt lat="40.13995424446982" lon="18.050311354231983"><ele>68.5</ele><time>2026-04-12T15:15:39.999Z</time></trkpt><trkpt lat="40.14020264860741" lon="18.050239765800427"><ele>68.0</ele><time>2026-04-12T15:15:40.999Z</time></trkpt><trkpt lat="40.14045868320057" lon="18.05016061014835"><ele>67.5</ele><time>2026-04-12T15:15:41.999Z</time></trkpt><trkpt lat="40.14071698016476" lon="18.05007102297976"><ele>67.0</ele><time>2026-04-12T15:15:42.999Z</time></trkpt><trkpt lat="40.14098032934814" lon="18.049988339130234"><ele>66.0</ele><time>2026-04-12T15:15:43.999Z</time></trkpt><trkpt lat="40.141242492206324" lon="18.049903463416793"><ele>65.0</ele><time>2026-04-12T15:15:44.999Z</time></trkpt><trkpt lat="40.14150500972197" lon="18.04981783078773"><ele>63.5</ele><time>2026-04-12T15:15:45.999Z</time></trkpt><trkpt lat="40.141766015827756" lon="18.049736840089754"><ele>62.0</ele><time>2026-04-12T15:15:46.999Z</time></trkpt><trkpt lat="40.14202570153406" lon="18.04965910204667"><ele>62.0</ele><time>2026-04-12T15:15:47.999Z</time></trkpt><trkpt lat="40.14228547095942" lon="18.049583632323824"><ele>62.0</ele><time>2026-04-12T15:15:48.999Z</time></trkpt><trkpt lat="40.1425463549522" lon="18.049517109163947"><ele>62.5</ele><time>2026-04-12T15:15:49.999Z</time></trkpt><trkpt lat="40.14280844029338" lon="18.049457245201324"><ele>63.0</ele><time>2026-04-12T15:15:50.999Z</time></trkpt><trkpt lat="40.14306931225711" lon="18.049403523931755"><ele>63.0</ele><time>2026-04-12T15:15:51.999Z</time></trkpt><trkpt lat="40.143330764644105" lon="18.049358207929203"><ele>63.0</ele><time>2026-04-12T15:15:52.999Z</time></trkpt><trkpt lat="40.14359062279958" lon="18.049317726300632"><ele>63.0</ele><time>2026-04-12T15:15:53.999Z</time></trkpt><trkpt lat="40.143848795230724" lon="18.049280852086902"><ele>63.0</ele><time>2026-04-12T15:15:54.999Z</time></trkpt><trkpt lat="40.14410823481161" lon="18.049255127191696"><ele>62.0</ele><time>2026-04-12T15:15:55.999Z</time></trkpt><trkpt lat="40.144365694051" lon="18.04923389245751"><ele>61.0</ele><time>2026-04-12T15:15:56.999Z</time></trkpt><trkpt lat="40.14461752416889" lon="18.04921736368588"><ele>61.0</ele><time>2026-04-12T15:15:57.999Z</time></trkpt><trkpt lat="40.144868061104475" lon="18.04920487615804"><ele>61.0</ele><time>2026-04-12T15:15:58.999Z</time></trkpt><trkpt lat="40.14512003871601" lon="18.04919540005211"><ele>60.0</ele><time>2026-04-12T15:15:59.999Z</time></trkpt><trkpt lat="40.14537302431545" lon="18.049182335163472"><ele>59.0</ele><time>2026-04-12T15:16:00.999Z</time></trkpt><trkpt lat="40.14562567154723" lon="18.049175517799984"><ele>59.0</ele><time>2026-04-12T15:16:01.999Z</time></trkpt><trkpt lat="40.1458788929876" lon="18.049177136853235"><ele>59.0</ele><time>2026-04-12T15:16:02.999Z</time></trkpt><trkpt lat="40.146138502416484" lon="18.049182580517034"><ele>59.0</ele><time>2026-04-12T15:16:03.999Z</time></trkpt><trkpt lat="40.14639362099693" lon="18.04918775248435"><ele>59.0</ele><time>2026-04-12T15:16:04.999Z</time></trkpt><trkpt lat="40.14665043470199" lon="18.049206039826135"><ele>58.5</ele><time>2026-04-12T15:16:05.999Z</time></trkpt><trkpt lat="40.14690254068467" lon="18.049233143098842"><ele>58.0</ele><time>2026-04-12T15:16:06.999Z</time></trkpt><trkpt lat="40.14716047291685" lon="18.04925876980909"><ele>57.5</ele><time>2026-04-12T15:16:07.999Z</time></trkpt><trkpt lat="40.147418310465966" lon="18.049294057584987"><ele>57.0</ele><time>2026-04-12T15:16:08.999Z</time></trkpt><trkpt lat="40.147680877212565" lon="18.04933769512461"><ele>57.0</ele><time>2026-04-12T15:16:09.999Z</time></trkpt><trkpt lat="40.14794315312679" lon="18.04938798884342"><ele>57.0</ele><time>2026-04-12T15:16:10.999Z</time></trkpt><trkpt lat="40.14820431483426" lon="18.049446469061145"><ele>57.0</ele><time>2026-04-12T15:16:11.999Z</time></trkpt><trkpt lat="40.148466221797065" lon="18.0495070315095"><ele>57.0</ele><time>2026-04-12T15:16:12.999Z</time></trkpt><trkpt lat="40.14872630276473" lon="18.0495683784378"><ele>57.0</ele><time>2026-04-12T15:16:13.999Z</time></trkpt><trkpt lat="40.148987670542354" lon="18.049629696705246"><ele>57.0</ele><time>2026-04-12T15:16:14.999Z</time></trkpt><trkpt lat="40.14924667382701" lon="18.04969103698677"><ele>55.5</ele><time>2026-04-12T15:16:15.999Z</time></trkpt><trkpt lat="40.149505784581386" lon="18.049752525662527"><ele>54.0</ele><time>2026-04-12T15:16:16.999Z</time></trkpt><trkpt lat="40.14976689556798" lon="18.04981507748614"><ele>53.5</ele><time>2026-04-12T15:16:17.999Z</time></trkpt><trkpt lat="40.150029397622944" lon="18.049882655750807"><ele>53.0</ele><time>2026-04-12T15:16:18.999Z</time></trkpt><trkpt lat="40.150288684108965" lon="18.049955684760818"><ele>52.5</ele><time>2026-04-12T15:16:19.999Z</time></trkpt><trkpt lat="40.15054737977768" lon="18.050030067348086"><ele>52.0</ele><time>2026-04-12T15:16:20.999Z</time></trkpt><trkpt lat="40.15080410919553" lon="18.05010163329489"><ele>51.5</ele><time>2026-04-12T15:16:21.999Z</time></trkpt><trkpt lat="40.15105710459322" lon="18.050169217651177"><ele>51.0</ele><time>2026-04-12T15:16:23Z</time></trkpt><trkpt lat="40.15131052195398" lon="18.050229988736678"><ele>50.0</ele><time>2026-04-12T15:16:24Z</time></trkpt><trkpt lat="40.15155961892333" lon="18.05029143394931"><ele>49.0</ele><time>2026-04-12T15:16:25Z</time></trkpt><trkpt lat="40.151810899180376" lon="18.050351159886674"><ele>49.0</ele><time>2026-04-12T15:16:26.001Z</time></trkpt><trkpt lat="40.152055702419794" lon="18.05041422004163"><ele>49.0</ele><time>2026-04-12T15:16:27Z</time></trkpt><trkpt lat="40.15230216971161" lon="18.050476934120066"><ele>48.5</ele><time>2026-04-12T15:16:28Z</time></trkpt><trkpt lat="40.15255238641668" lon="18.05053904118099"><ele>48.0</ele><time>2026-04-12T15:16:29.001Z</time></trkpt><trkpt lat="40.15280349199763" lon="18.050598490533876"><ele>48.0</ele><time>2026-04-12T15:16:30Z</time></trkpt><trkpt lat="40.15305387967283" lon="18.050657670808437"><ele>48.0</ele><time>2026-04-12T15:16:31Z</time></trkpt><trkpt lat="40.15330038073171" lon="18.05072044286564"><ele>48.0</ele><time>2026-04-12T15:16:32Z</time></trkpt><trkpt lat="40.15354690616273" lon="18.050782649784416"><ele>48.0</ele><time>2026-04-12T15:16:33Z</time></trkpt><trkpt lat="40.1537896897276" lon="18.050837238149303"><ele>48.0</ele><time>2026-04-12T15:16:34Z</time></trkpt><trkpt lat="40.15403656295609" lon="18.050896010734846"><ele>48.0</ele><time>2026-04-12T15:16:35Z</time></trkpt><trkpt lat="40.154282314634855" lon="18.05095729042033"><ele>48.5</ele><time>2026-04-12T15:16:36Z</time></trkpt><trkpt lat="40.15453392535301" lon="18.05102055010905"><ele>49.0</ele><time>2026-04-12T15:16:37Z</time></trkpt><trkpt lat="40.154780575931355" lon="18.05108545180826"><ele>48.0</ele><time>2026-04-12T15:16:38Z</time></trkpt><trkpt lat="40.15502713843031" lon="18.051159334676566"><ele>47.0</ele><time>2026-04-12T15:16:39Z</time></trkpt><trkpt lat="40.15527321209492" lon="18.0512432965407"><ele>47.0</ele><time>2026-04-12T15:16:40Z</time></trkpt><trkpt lat="40.15551939058712" lon="18.051337325346218"><ele>47.0</ele><time>2026-04-12T15:16:41Z</time></trkpt><trkpt lat="40.15576048551832" lon="18.051444280123736"><ele>47.0</ele><time>2026-04-12T15:16:42Z</time></trkpt><trkpt lat="40.15599675678573" lon="18.051564799447235"><ele>47.0</ele><time>2026-04-12T15:16:43Z</time></trkpt><trkpt lat="40.15622766669448" lon="18.05169766437066"><ele>47.0</ele><time>2026-04-12T15:16:44Z</time></trkpt><trkpt lat="40.156454097361255" lon="18.051839920875246"><ele>47.0</ele><time>2026-04-12T15:16:45Z</time></trkpt><trkpt lat="40.156676789738874" lon="18.051989347560717"><ele>47.0</ele><time>2026-04-12T15:16:46Z</time></trkpt><trkpt lat="40.15690096580344" lon="18.052146378665533"><ele>47.0</ele><time>2026-04-12T15:16:47Z</time></trkpt><trkpt lat="40.15712419123124" lon="18.052303025920818"><ele>46.5</ele><time>2026-04-12T15:16:48Z</time></trkpt><trkpt lat="40.15733844112022" lon="18.05247169173621"><ele>46.0</ele><time>2026-04-12T15:16:49Z</time></trkpt><trkpt lat="40.15755360905261" lon="18.05264846684235"><ele>46.0</ele><time>2026-04-12T15:16:50Z</time></trkpt><trkpt lat="40.15776496446702" lon="18.052832703510617"><ele>46.0</ele><time>2026-04-12T15:16:51Z</time></trkpt><trkpt lat="40.15797251939511" lon="18.05302319630905"><ele>46.0</ele><time>2026-04-12T15:16:52Z</time></trkpt><trkpt lat="40.158169591781096" lon="18.053224197933726"><ele>46.0</ele><time>2026-04-12T15:16:53Z</time></trkpt><trkpt lat="40.158361394792614" lon="18.053431710450674"><ele>47.0</ele><time>2026-04-12T15:16:54Z</time></trkpt><trkpt lat="40.15855538742231" lon="18.05364739775073"><ele>48.0</ele><time>2026-04-12T15:16:55Z</time></trkpt><trkpt lat="40.15874276803607" lon="18.053867746235607"><ele>48.0</ele><time>2026-04-12T15:16:56Z</time></trkpt><trkpt lat="40.15892277968536" lon="18.054095306491515"><ele>48.0</ele><time>2026-04-12T15:16:57Z</time></trkpt><trkpt lat="40.1590961568968" lon="18.05433284296757"><ele>47.5</ele><time>2026-04-12T15:16:58Z</time></trkpt><trkpt lat="40.15926647756579" lon="18.05458140227134"><ele>47.0</ele><time>2026-04-12T15:16:59Z</time></trkpt><trkpt lat="40.15942845414884" lon="18.05483428190518"><ele>48.0</ele><time>2026-04-12T15:17:00Z</time></trkpt><trkpt lat="40.15958865010117" lon="18.055088392001988"><ele>49.0</ele><time>2026-04-12T15:17:01Z</time></trkpt><trkpt lat="40.15974546485529" lon="18.055343798318773"><ele>48.0</ele><time>2026-04-12T15:17:02Z</time></trkpt><trkpt lat="40.15990554512907" lon="18.055596635367134"><ele>47.0</ele><time>2026-04-12T15:17:03Z</time></trkpt><trkpt lat="40.160069133829225" lon="18.05584654113144"><ele>47.0</ele><time>2026-04-12T15:17:04Z</time></trkpt><trkpt lat="40.16022923850242" lon="18.056102456855044"><ele>47.0</ele><time>2026-04-12T15:17:05Z</time></trkpt><trkpt lat="40.160391407279185" lon="18.056359788386207"><ele>47.0</ele><time>2026-04-12T15:17:06Z</time></trkpt><trkpt lat="40.16055257408005" lon="18.05661385771967"><ele>47.0</ele><time>2026-04-12T15:17:07Z</time></trkpt><trkpt lat="40.160706331576215" lon="18.056866524134367"><ele>46.5</ele><time>2026-04-12T15:17:08Z</time></trkpt><trkpt lat="40.16086116141345" lon="18.057111385980537"><ele>46.0</ele><time>2026-04-12T15:17:09Z</time></trkpt><trkpt lat="40.16101534456597" lon="18.0573509901424"><ele>46.0</ele><time>2026-04-12T15:17:10Z</time></trkpt><trkpt lat="40.16116258748935" lon="18.057587497667576"><ele>46.0</ele><time>2026-04-12T15:17:11Z</time></trkpt><trkpt lat="40.16131044176983" lon="18.05782490368324"><ele>46.0</ele><time>2026-04-12T15:17:12Z</time></trkpt><trkpt lat="40.1614605436109" lon="18.05806194179631"><ele>46.0</ele><time>2026-04-12T15:17:13Z</time></trkpt><trkpt lat="40.16160681580939" lon="18.058296211402553"><ele>46.0</ele><time>2026-04-12T15:17:14Z</time></trkpt><trkpt lat="40.161759849639324" lon="18.058531810832307"><ele>46.0</ele><time>2026-04-12T15:17:15Z</time></trkpt><trkpt lat="40.16191033157467" lon="18.058768750774313"><ele>46.0</ele><time>2026-04-12T15:17:16Z</time></trkpt><trkpt lat="40.16206250468255" lon="18.05900875484037"><ele>46.0</ele><time>2026-04-12T15:17:17Z</time></trkpt><trkpt lat="40.162216798213215" lon="18.05925350780999"><ele>47.0</ele><time>2026-04-12T15:17:18Z</time></trkpt><trkpt lat="40.162371263477745" lon="18.059497409419485"><ele>48.0</ele><time>2026-04-12T15:17:19Z</time></trkpt><trkpt lat="40.16252387815657" lon="18.059739452734096"><ele>47.5</ele><time>2026-04-12T15:17:20Z</time></trkpt><trkpt lat="40.16267867534279" lon="18.059986292085277"><ele>47.0</ele><time>2026-04-12T15:17:21Z</time></trkpt><trkpt lat="40.162837012922296" lon="18.060242881551478"><ele>47.0</ele><time>2026-04-12T15:17:22Z</time></trkpt><trkpt lat="40.1630016361096" lon="18.060500955886315"><ele>47.0</ele><time>2026-04-12T15:17:23Z</time></trkpt><trkpt lat="40.163166145819275" lon="18.06075891916482"><ele>48.0</ele><time>2026-04-12T15:17:24Z</time></trkpt><trkpt lat="40.16332910311474" lon="18.061014258891966"><ele>49.0</ele><time>2026-04-12T15:17:25Z</time></trkpt><trkpt lat="40.16348876510416" lon="18.061268706241545"><ele>49.0</ele><time>2026-04-12T15:17:26Z</time></trkpt><trkpt lat="40.16364217984909" lon="18.061513019124728"><ele>49.0</ele><time>2026-04-12T15:17:27Z</time></trkpt><trkpt lat="40.16378635406375" lon="18.06174716310567"><ele>48.666666666666664</ele><time>2026-04-12T15:17:28Z</time></trkpt><trkpt lat="40.16392818694813" lon="18.061968837571467"><ele>48.33333333333333</ele><time>2026-04-12T15:17:29Z</time></trkpt><trkpt lat="40.16407287345971" lon="18.062189884812767"><ele>48.0</ele><time>2026-04-12T15:17:30Z</time></trkpt><trkpt lat="40.16421379672034" lon="18.062409523918035"><ele>47.666666666666664</ele><time>2026-04-12T15:17:31Z</time></trkpt><trkpt lat="40.16434879927365" lon="18.062627695240767"><ele>47.33333333333333</ele><time>2026-04-12T15:17:32Z</time></trkpt><trkpt lat="40.164483913784686" lon="18.062842422711615"><ele>47.0</ele><time>2026-04-12T15:17:33Z</time></trkpt><trkpt lat="40.16461925023374" lon="18.063059326577463"><ele>47.0</ele><time>2026-04-12T15:17:34Z</time></trkpt><trkpt lat="40.16475684022794" lon="18.063270649233147"><ele>47.0</ele><time>2026-04-12T15:17:35Z</time></trkpt><trkpt lat="40.164895899553976" lon="18.063488200288244"><ele>47.0</ele><time>2026-04-12T15:17:36Z</time></trkpt><trkpt lat="40.16503511280084" lon="18.063714986477876"><ele>46.666666666666664</ele><time>2026-04-12T15:17:37Z</time></trkpt><trkpt lat="40.165175914710744" lon="18.063942463920306"><ele>46.333333333333336</ele><time>2026-04-12T15:17:38Z</time></trkpt><trkpt lat="40.16531948838209" lon="18.064170521886087"><ele>46.0</ele><time>2026-04-12T15:17:39Z</time></trkpt><trkpt lat="40.165466802390604" lon="18.06439899770314"><ele>46.0</ele><time>2026-04-12T15:17:40Z</time></trkpt><trkpt lat="40.16561377067674" lon="18.06463093171061"><ele>46.0</ele><time>2026-04-12T15:17:41Z</time></trkpt><trkpt lat="40.16576159488669" lon="18.06486094613441"><ele>46.5</ele><time>2026-04-12T15:17:42Z</time></trkpt><trkpt lat="40.16591052599545" lon="18.065093632413856"><ele>47.0</ele><time>2026-04-12T15:17:43Z</time></trkpt><trkpt lat="40.166060579713275" lon="18.0653285658959"><ele>47.0</ele><time>2026-04-12T15:17:44Z</time></trkpt><trkpt lat="40.16620982889655" lon="18.065562831380454"><ele>47.0</ele><time>2026-04-12T15:17:45Z</time></trkpt><trkpt lat="40.166357206718715" lon="18.065800653369983"><ele>46.5</ele><time>2026-04-12T15:17:46Z</time></trkpt><trkpt lat="40.16650555658326" lon="18.066037298887046"><ele>46.0</ele><time>2026-04-12T15:17:47Z</time></trkpt><trkpt lat="40.16665460578199" lon="18.066279130401142"><ele>46.0</ele><time>2026-04-12T15:17:48Z</time></trkpt><trkpt lat="40.16680347042258" lon="18.06651877703124"><ele>46.0</ele><time>2026-04-12T15:17:49Z</time></trkpt><trkpt lat="40.166955852564826" lon="18.066757736435445"><ele>46.0</ele><time>2026-04-12T15:17:50Z</time></trkpt><trkpt lat="40.16710888345956" lon="18.066996749173178"><ele>46.0</ele><time>2026-04-12T15:17:51Z</time></trkpt><trkpt lat="40.16726611842021" lon="18.067233455297554"><ele>45.5</ele><time>2026-04-12T15:17:52Z</time></trkpt><trkpt lat="40.16742302526827" lon="18.0674700185151"><ele>45.0</ele><time>2026-04-12T15:17:53Z</time></trkpt><trkpt lat="40.16758043092379" lon="18.06770613478884"><ele>45.0</ele><time>2026-04-12T15:17:54Z</time></trkpt><trkpt lat="40.16774282388708" lon="18.06794887543459"><ele>45.0</ele><time>2026-04-12T15:17:55Z</time></trkpt><trkpt lat="40.16789863156588" lon="18.068195508146033"><ele>44.5</ele><time>2026-04-12T15:17:56Z</time></trkpt><trkpt lat="40.16805405839921" lon="18.06844530204128"><ele>44.0</ele><time>2026-04-12T15:17:57Z</time></trkpt><trkpt lat="40.168204038192144" lon="18.06869687753034"><ele>44.0</ele><time>2026-04-12T15:17:58Z</time></trkpt><trkpt lat="40.168354111951636" lon="18.0689439095711"><ele>44.0</ele><time>2026-04-12T15:17:59Z</time></trkpt><trkpt lat="40.16850631868506" lon="18.069194342065487"><ele>44.0</ele><time>2026-04-12T15:18:00Z</time></trkpt><trkpt lat="40.16865614574997" lon="18.069446626297317"><ele>44.0</ele><time>2026-04-12T15:18:01Z</time></trkpt><trkpt lat="40.168811720401195" lon="18.06969927424908"><ele>43.5</ele><time>2026-04-12T15:18:02Z</time></trkpt><trkpt lat="40.168968773389444" lon="18.069953227609545"><ele>43.0</ele><time>2026-04-12T15:18:03Z</time></trkpt><trkpt lat="40.169127519873754" lon="18.070205000335054"><ele>43.0</ele><time>2026-04-12T15:18:04Z</time></trkpt><trkpt lat="40.169286478373614" lon="18.070459786260756"><ele>43.0</ele><time>2026-04-12T15:18:05Z</time></trkpt><trkpt lat="40.16944652819266" lon="18.070712594706436"><ele>44.0</ele><time>2026-04-12T15:18:06Z</time></trkpt><trkpt lat="40.169607872821864" lon="18.07097174647631"><ele>45.0</ele><time>2026-04-12T15:18:07Z</time></trkpt><trkpt lat="40.16977140428462" lon="18.071233621955873"><ele>45.0</ele><time>2026-04-12T15:18:08Z</time></trkpt><trkpt lat="40.16993662826037" lon="18.07149977049118"><ele>45.0</ele><time>2026-04-12T15:18:09Z</time></trkpt><trkpt lat="40.170103672981824" lon="18.071763194037327"><ele>45.0</ele><time>2026-04-12T15:18:10Z</time></trkpt><trkpt lat="40.17027017534088" lon="18.072026211657978"><ele>45.0</ele><time>2026-04-12T15:18:11Z</time></trkpt><trkpt lat="40.170437398044676" lon="18.072292237173258"><ele>44.5</ele><time>2026-04-12T15:18:12Z</time></trkpt><trkpt lat="40.17060222636129" lon="18.072555072552905"><ele>44.0</ele><time>2026-04-12T15:18:13Z</time></trkpt><trkpt lat="40.17076823852564" lon="18.07281409024383"><ele>44.0</ele><time>2026-04-12T15:18:14Z</time></trkpt><trkpt lat="40.17093539842065" lon="18.073079582606393"><ele>44.0</ele><time>2026-04-12T15:18:15Z</time></trkpt><trkpt lat="40.171105449395114" lon="18.073344649594183"><ele>44.0</ele><time>2026-04-12T15:18:15.999Z</time></trkpt><trkpt lat="40.1712729654294" lon="18.073608115928764"><ele>44.0</ele><time>2026-04-12T15:18:16.999Z</time></trkpt><trkpt lat="40.171434543714575" lon="18.07387095357608"><ele>43.0</ele><time>2026-04-12T15:18:17.999Z</time></trkpt><trkpt lat="40.17159894382411" lon="18.074130944461945"><ele>42.0</ele><time>2026-04-12T15:18:18.999Z</time></trkpt><trkpt lat="40.17175955515632" lon="18.07438597795217"><ele>42.0</ele><time>2026-04-12T15:18:19.999Z</time></trkpt><trkpt lat="40.17192253506009" lon="18.074647484033925"><ele>42.0</ele><time>2026-04-12T15:18:20.999Z</time></trkpt><trkpt lat="40.17208134665668" lon="18.07490922297774"><ele>42.0</ele><time>2026-04-12T15:18:21.999Z</time></trkpt><trkpt lat="40.17224292417176" lon="18.075169969150835"><ele>42.0</ele><time>2026-04-12T15:18:22.999Z</time></trkpt><trkpt lat="40.172405393185485" lon="18.075429599317008"><ele>43.0</ele><time>2026-04-12T15:18:23.999Z</time></trkpt><trkpt lat="40.172569479115424" lon="18.075691662628607"><ele>44.0</ele><time>2026-04-12T15:18:24.999Z</time></trkpt><trkpt lat="40.17273244413771" lon="18.075956398629227"><ele>44.0</ele><time>2026-04-12T15:18:25.999Z</time></trkpt><trkpt lat="40.172896690342064" lon="18.076223150924054"><ele>44.0</ele><time>2026-04-12T15:18:26.999Z</time></trkpt><trkpt lat="40.173063313581125" lon="18.076491189546058"><ele>43.0</ele><time>2026-04-12T15:18:27.999Z</time></trkpt><trkpt lat="40.17323078067855" lon="18.076761620795423"><ele>42.0</ele><time>2026-04-12T15:18:29Z</time></trkpt><trkpt lat="40.17340107368678" lon="18.077038005136522"><ele>42.0</ele><time>2026-04-12T15:18:30Z</time></trkpt><trkpt lat="40.17356745114843" lon="18.077309055103672"><ele>42.0</ele><time>2026-04-12T15:18:31Z</time></trkpt><trkpt lat="40.17373851341222" lon="18.077580429535228"><ele>43.0</ele><time>2026-04-12T15:18:32Z</time></trkpt><trkpt lat="40.17390795444161" lon="18.077851819557875"><ele>44.0</ele><time>2026-04-12T15:18:33Z</time></trkpt><trkpt lat="40.17407331310624" lon="18.07811930487613"><ele>43.5</ele><time>2026-04-12T15:18:34Z</time></trkpt><trkpt lat="40.174231788554955" lon="18.07838448499162"><ele>43.0</ele><time>2026-04-12T15:18:35Z</time></trkpt><trkpt lat="40.1743930456907" lon="18.078650930980185"><ele>43.0</ele><time>2026-04-12T15:18:36Z</time></trkpt><trkpt lat="40.174562254971526" lon="18.078912662403805"><ele>43.0</ele><time>2026-04-12T15:18:37Z</time></trkpt><trkpt lat="40.17472110854826" lon="18.07916708089721"><ele>42.0</ele><time>2026-04-12T15:18:38Z</time></trkpt><trkpt lat="40.17487714153179" lon="18.079406540469588"><ele>41.0</ele><time>2026-04-12T15:18:39Z</time></trkpt><trkpt lat="40.17503363814989" lon="18.079649527828636"><ele>41.0</ele><time>2026-04-12T15:18:40Z</time></trkpt><trkpt lat="40.17518498316294" lon="18.079888731042086"><ele>41.0</ele><time>2026-04-12T15:18:41Z</time></trkpt><trkpt lat="40.17533640843393" lon="18.08012082344985"><ele>41.5</ele><time>2026-04-12T15:18:42Z</time></trkpt><trkpt lat="40.17549350643706" lon="18.080347855445417"><ele>42.0</ele><time>2026-04-12T15:18:43Z</time></trkpt><trkpt lat="40.17565668067757" lon="18.080571096292772"><ele>42.5</ele><time>2026-04-12T15:18:44Z</time></trkpt><trkpt lat="40.175825999220585" lon="18.08079186251102"><ele>43.0</ele><time>2026-04-12T15:18:45Z</time></trkpt><trkpt lat="40.17599728003078" lon="18.081009581704777"><ele>43.0</ele><time>2026-04-12T15:18:46Z</time></trkpt><trkpt lat="40.176170982582256" lon="18.081222222796985"><ele>43.0</ele><time>2026-04-12T15:18:47Z</time></trkpt><trkpt lat="40.17634752105027" lon="18.081428681783507"><ele>43.5</ele><time>2026-04-12T15:18:48Z</time></trkpt><trkpt lat="40.17653077155511" lon="18.081636313704305"><ele>44.0</ele><time>2026-04-12T15:18:49Z</time></trkpt><trkpt lat="40.17671934260181" lon="18.08183671962867"><ele>44.0</ele><time>2026-04-12T15:18:50Z</time></trkpt><trkpt lat="40.17690778488136" lon="18.08203105763418"><ele>44.0</ele><time>2026-04-12T15:18:51Z</time></trkpt><trkpt lat="40.17710138754902" lon="18.082220205695712"><ele>44.0</ele><time>2026-04-12T15:18:52Z</time></trkpt><trkpt lat="40.17729766068081" lon="18.08240126298887"><ele>44.0</ele><time>2026-04-12T15:18:53Z</time></trkpt><trkpt lat="40.177501084427945" lon="18.08257568714305"><ele>43.5</ele><time>2026-04-12T15:18:54Z</time></trkpt><trkpt lat="40.17770484712746" lon="18.082745155885128"><ele>43.0</ele><time>2026-04-12T15:18:55Z</time></trkpt><trkpt lat="40.17791328262462" lon="18.082904765891655"><ele>43.0</ele><time>2026-04-12T15:18:56Z</time></trkpt><trkpt lat="40.17812538091918" lon="18.083059020974247"><ele>43.0</ele><time>2026-04-12T15:18:57Z</time></trkpt><trkpt lat="40.178339972575706" lon="18.08320501253548"><ele>43.5</ele><time>2026-04-12T15:18:58Z</time></trkpt><trkpt lat="40.17855895279554" lon="18.08334926145929"><ele>44.0</ele><time>2026-04-12T15:18:59Z</time></trkpt><trkpt lat="40.178778064938754" lon="18.083489058146284"><ele>44.0</ele><time>2026-04-12T15:19:00Z</time></trkpt><trkpt lat="40.178998480480466" lon="18.08361966062109"><ele>44.0</ele><time>2026-04-12T15:19:01Z</time></trkpt><trkpt lat="40.17922325804073" lon="18.083740895256884"><ele>43.0</ele><time>2026-04-12T15:19:02Z</time></trkpt><trkpt lat="40.17944879007885" lon="18.0838543242103"><ele>42.0</ele><time>2026-04-12T15:19:03Z</time></trkpt><trkpt lat="40.179672914421765" lon="18.083960501962167"><ele>42.0</ele><time>2026-04-12T15:19:04Z</time></trkpt><trkpt lat="40.17989612601728" lon="18.084064398235054"><ele>42.0</ele><time>2026-04-12T15:19:05Z</time></trkpt><trkpt lat="40.1801127883447" lon="18.084162868166583"><ele>43.0</ele><time>2026-04-12T15:19:06Z</time></trkpt><trkpt lat="40.18033106984662" lon="18.084252885052493"><ele>44.0</ele><time>2026-04-12T15:19:07Z</time></trkpt><trkpt lat="40.18055185637289" lon="18.08434927491672"><ele>44.5</ele><time>2026-04-12T15:19:08Z</time></trkpt><trkpt lat="40.18077071711873" lon="18.084443158128142"><ele>45.0</ele><time>2026-04-12T15:19:09Z</time></trkpt><trkpt lat="40.18098727603916" lon="18.08452247048283"><ele>45.0</ele><time>2026-04-12T15:19:10Z</time></trkpt><trkpt lat="40.18120702445372" lon="18.084604829959172"><ele>45.0</ele><time>2026-04-12T15:19:11Z</time></trkpt><trkpt lat="40.18143861165338" lon="18.084695968917284"><ele>45.5</ele><time>2026-04-12T15:19:12Z</time></trkpt><trkpt lat="40.18167625104721" lon="18.084794892765686"><ele>46.0</ele><time>2026-04-12T15:19:13Z</time></trkpt><trkpt lat="40.18191589437813" lon="18.08490162109441"><ele>46.5</ele><time>2026-04-12T15:19:14Z</time></trkpt><trkpt lat="40.18216039577468" lon="18.085008710485276"><ele>47.0</ele><time>2026-04-12T15:19:15Z</time></trkpt><trkpt lat="40.1824067272962" lon="18.08512033279272"><ele>47.5</ele><time>2026-04-12T15:19:16Z</time></trkpt><trkpt lat="40.18266497358317" lon="18.08523898264159"><ele>48.0</ele><time>2026-04-12T15:19:17Z</time></trkpt><trkpt lat="40.18291973269251" lon="18.08535182659428"><ele>48.0</ele><time>2026-04-12T15:19:18Z</time></trkpt><trkpt lat="40.18317929346798" lon="18.08546538906608"><ele>48.0</ele><time>2026-04-12T15:19:19Z</time></trkpt><trkpt lat="40.183435529690726" lon="18.085582579578688"><ele>47.5</ele><time>2026-04-12T15:19:20Z</time></trkpt><trkpt lat="40.183694404382585" lon="18.085699496763294"><ele>47.0</ele><time>2026-04-12T15:19:21Z</time></trkpt><trkpt lat="40.18395394961269" lon="18.085818652518896"><ele>47.5</ele><time>2026-04-12T15:19:22Z</time></trkpt><trkpt lat="40.184212972152906" lon="18.085940508246868"><ele>48.0</ele><time>2026-04-12T15:19:23Z</time></trkpt><trkpt lat="40.184471722200904" lon="18.086060307035297"><ele>48.0</ele><time>2026-04-12T15:19:24Z</time></trkpt><trkpt lat="40.184724257845716" lon="18.086178866940884"><ele>48.0</ele><time>2026-04-12T15:19:25Z</time></trkpt><trkpt lat="40.18497505392178" lon="18.086292453231096"><ele>48.0</ele><time>2026-04-12T15:19:26Z</time></trkpt><trkpt lat="40.185226074046405" lon="18.086405686134512"><ele>48.0</ele><time>2026-04-12T15:19:27Z</time></trkpt><trkpt lat="40.18546947772555" lon="18.086521793386172"><ele>48.5</ele><time>2026-04-12T15:19:28Z</time></trkpt><trkpt lat="40.1857084143684" lon="18.086633439365627"><ele>49.0</ele><time>2026-04-12T15:19:29Z</time></trkpt><trkpt lat="40.18594369782845" lon="18.08674368521036"><ele>49.0</ele><time>2026-04-12T15:19:30Z</time></trkpt><trkpt lat="40.18617307305578" lon="18.086845540703735"><ele>49.0</ele><time>2026-04-12T15:19:31Z</time></trkpt><trkpt lat="40.18640135562956" lon="18.086945183673016"><ele>48.5</ele><time>2026-04-12T15:19:32Z</time></trkpt><trkpt lat="40.186629628096824" lon="18.08705433379732"><ele>48.0</ele><time>2026-04-12T15:19:33Z</time></trkpt><trkpt lat="40.18685723030994" lon="18.08716004009343"><ele>48.0</ele><time>2026-04-12T15:19:34Z</time></trkpt><trkpt lat="40.18707939237707" lon="18.087258060783892"><ele>48.0</ele><time>2026-04-12T15:19:35Z</time></trkpt><trkpt lat="40.187303306655004" lon="18.08734768569221"><ele>48.5</ele><time>2026-04-12T15:19:36Z</time></trkpt><trkpt lat="40.1875265388538" lon="18.087437610194602"><ele>49.0</ele><time>2026-04-12T15:19:37Z</time></trkpt><trkpt lat="40.18775426778496" lon="18.087527758422354"><ele>49.0</ele><time>2026-04-12T15:19:38Z</time></trkpt><trkpt lat="40.187980003795225" lon="18.08762278721579"><ele>49.0</ele><time>2026-04-12T15:19:39Z</time></trkpt><trkpt lat="40.188208420946225" lon="18.08772364128128"><ele>49.0</ele><time>2026-04-12T15:19:40Z</time></trkpt><trkpt lat="40.18843700465666" lon="18.08782351890618"><ele>49.0</ele><time>2026-04-12T15:19:41Z</time></trkpt><trkpt lat="40.18866335547051" lon="18.087927052991194"><ele>49.0</ele><time>2026-04-12T15:19:42Z</time></trkpt><trkpt lat="40.18888967479987" lon="18.088030548526635"><ele>49.0</ele><time>2026-04-12T15:19:43Z</time></trkpt><trkpt lat="40.18911503818284" lon="18.08813253012519"><ele>49.0</ele><time>2026-04-12T15:19:44Z</time></trkpt><trkpt lat="40.18934116981601" lon="18.088233140289997"><ele>49.0</ele><time>2026-04-12T15:19:45Z</time></trkpt><trkpt lat="40.18957020347469" lon="18.088335303052787"><ele>49.0</ele><time>2026-04-12T15:19:46Z</time></trkpt><trkpt lat="40.18980162623844" lon="18.088432557714153"><ele>49.0</ele><time>2026-04-12T15:19:47Z</time></trkpt><trkpt lat="40.19003550859639" lon="18.08852912110461"><ele>49.0</ele><time>2026-04-12T15:19:48Z</time></trkpt><trkpt lat="40.19027438502551" lon="18.0886235340799"><ele>49.0</ele><time>2026-04-12T15:19:49Z</time></trkpt><trkpt lat="40.19051676951576" lon="18.088721661626217"><ele>49.0</ele><time>2026-04-12T15:19:50Z</time></trkpt><trkpt lat="40.19075931368969" lon="18.08882118667686"><ele>49.0</ele><time>2026-04-12T15:19:51Z</time></trkpt><trkpt lat="40.191011776722185" lon="18.088927263369595"><ele>49.0</ele><time>2026-04-12T15:19:52Z</time></trkpt><trkpt lat="40.19126513640432" lon="18.089038323527927"><ele>49.0</ele><time>2026-04-12T15:19:53Z</time></trkpt><trkpt lat="40.19151870995354" lon="18.089155107130253"><ele>49.5</ele><time>2026-04-12T15:19:54Z</time></trkpt><trkpt lat="40.19177020072373" lon="18.089269730879778"><ele>50.0</ele><time>2026-04-12T15:19:55Z</time></trkpt><trkpt lat="40.19202228740169" lon="18.089384559983035"><ele>50.0</ele><time>2026-04-12T15:19:56Z</time></trkpt><trkpt lat="40.19227503449596" lon="18.089499953497945"><ele>50.0</ele><time>2026-04-12T15:19:57Z</time></trkpt><trkpt lat="40.19252763041202" lon="18.089616687577397"><ele>50.0</ele><time>2026-04-12T15:19:58Z</time></trkpt><trkpt lat="40.19278062556771" lon="18.08973489035311"><ele>50.0</ele><time>2026-04-12T15:19:59Z</time></trkpt><trkpt lat="40.19303248268025" lon="18.089853827550396"><ele>51.0</ele><time>2026-04-12T15:20:00Z</time></trkpt><trkpt lat="40.19328291821717" lon="18.089969177325056"><ele>52.0</ele><time>2026-04-12T15:20:01Z</time></trkpt><trkpt lat="40.19353702188073" lon="18.090083518214943"><ele>52.0</ele><time>2026-04-12T15:20:02Z</time></trkpt><trkpt lat="40.193787444940945" lon="18.090195855826167"><ele>52.0</ele><time>2026-04-12T15:20:03Z</time></trkpt><trkpt lat="40.194032274903435" lon="18.09030576166078"><ele>51.5</ele><time>2026-04-12T15:20:04Z</time></trkpt><trkpt lat="40.194277112773946" lon="18.090416543668688"><ele>51.0</ele><time>2026-04-12T15:20:05Z</time></trkpt><trkpt lat="40.19451806244894" lon="18.090523693722112"><ele>51.0</ele><time>2026-04-12T15:20:06Z</time></trkpt><trkpt lat="40.1947531216614" lon="18.090628253535993"><ele>51.0</ele><time>2026-04-12T15:20:07Z</time></trkpt><trkpt lat="40.19498410875646" lon="18.09072766825295"><ele>51.5</ele><time>2026-04-12T15:20:08Z</time></trkpt><trkpt lat="40.195209866402244" lon="18.09082849493388"><ele>52.0</ele><time>2026-04-12T15:20:09Z</time></trkpt><trkpt lat="40.1954344526905" lon="18.09092805115133"><ele>52.0</ele><time>2026-04-12T15:20:10Z</time></trkpt><trkpt lat="40.19565776301813" lon="18.091025053105742"><ele>52.0</ele><time>2026-04-12T15:20:11Z</time></trkpt><trkpt lat="40.1958801690851" lon="18.091119174900516"><ele>52.5</ele><time>2026-04-12T15:20:12Z</time></trkpt><trkpt lat="40.196102267924715" lon="18.091217526738344"><ele>53.0</ele><time>2026-04-12T15:20:13Z</time></trkpt><trkpt lat="40.19632579963811" lon="18.091319746089912"><ele>52.5</ele><time>2026-04-12T15:20:14Z</time></trkpt><trkpt lat="40.19654956092872" lon="18.0914243127603"><ele>52.0</ele><time>2026-04-12T15:20:15Z</time></trkpt><trkpt lat="40.196776380562575" lon="18.091530027453192"><ele>53.5</ele><time>2026-04-12T15:20:16Z</time></trkpt><trkpt lat="40.19700138539332" lon="18.09163158082016"><ele>55.0</ele><time>2026-04-12T15:20:17Z</time></trkpt><trkpt lat="40.19722587553941" lon="18.09173193193153"><ele>54.5</ele><time>2026-04-12T15:20:18Z</time></trkpt><trkpt lat="40.197449628618564" lon="18.091832660801312"><ele>54.0</ele><time>2026-04-12T15:20:19Z</time></trkpt><trkpt lat="40.19767182988233" lon="18.091933865598396"><ele>54.0</ele><time>2026-04-12T15:20:20Z</time></trkpt><trkpt lat="40.197898539830604" lon="18.092037499167255"><ele>54.0</ele><time>2026-04-12T15:20:21Z</time></trkpt><trkpt lat="40.19812748629786" lon="18.092138589993215"><ele>55.0</ele><time>2026-04-12T15:20:22Z</time></trkpt><trkpt lat="40.198358215981926" lon="18.092241024493756"><ele>56.0</ele><time>2026-04-12T15:20:23Z</time></trkpt><trkpt lat="40.198590390873896" lon="18.092343742491366"><ele>57.0</ele><time>2026-04-12T15:20:24Z</time></trkpt><trkpt lat="40.19882122127584" lon="18.092444615793006"><ele>58.0</ele><time>2026-04-12T15:20:25Z</time></trkpt><trkpt lat="40.199057251422055" lon="18.09254904756603"><ele>58.5</ele><time>2026-04-12T15:20:26Z</time></trkpt><trkpt lat="40.199294120303016" lon="18.09265185782451"><ele>59.0</ele><time>2026-04-12T15:20:27Z</time></trkpt><trkpt lat="40.19952778946497" lon="18.092756657513675"><ele>59.0</ele><time>2026-04-12T15:20:28Z</time></trkpt><trkpt lat="40.19976090082684" lon="18.09285830567508"><ele>59.0</ele><time>2026-04-12T15:20:29Z</time></trkpt><trkpt lat="40.19999720239537" lon="18.092964839078583"><ele>58.5</ele><time>2026-04-12T15:20:30Z</time></trkpt><trkpt lat="40.2002296700124" lon="18.093071442124224"><ele>58.0</ele><time>2026-04-12T15:20:31Z</time></trkpt><trkpt lat="40.2004634749678" lon="18.093174013167186"><ele>58.5</ele><time>2026-04-12T15:20:31.999Z</time></trkpt><trkpt lat="40.20070017789753" lon="18.09327886665632"><ele>59.0</ele><time>2026-04-12T15:20:32.999Z</time></trkpt><trkpt lat="40.20093670778605" lon="18.09338321549019"><ele>59.0</ele><time>2026-04-12T15:20:33.999Z</time></trkpt><trkpt lat="40.20117033039634" lon="18.09348747937751"><ele>59.0</ele><time>2026-04-12T15:20:35Z</time></trkpt><trkpt lat="40.20140447476176" lon="18.09359153174098"><ele>58.5</ele><time>2026-04-12T15:20:36Z</time></trkpt><trkpt lat="40.20163823782684" lon="18.093693212374244"><ele>58.0</ele><time>2026-04-12T15:20:37Z</time></trkpt><trkpt lat="40.201868958092916" lon="18.09379573221913"><ele>58.0</ele><time>2026-04-12T15:20:38Z</time></trkpt><trkpt lat="40.202101062077446" lon="18.093899372574644"><ele>58.0</ele><time>2026-04-12T15:20:39Z</time></trkpt><trkpt lat="40.20233395899227" lon="18.094003657148598"><ele>59.0</ele><time>2026-04-12T15:20:40Z</time></trkpt><trkpt lat="40.20257175387338" lon="18.094110224301033"><ele>60.0</ele><time>2026-04-12T15:20:41.001Z</time></trkpt><trkpt lat="40.20280411298009" lon="18.09421037272931"><ele>60.0</ele><time>2026-04-12T15:20:42Z</time></trkpt><trkpt lat="40.20303558694865" lon="18.094310872775498"><ele>60.0</ele><time>2026-04-12T15:20:43Z</time></trkpt><trkpt lat="40.20327316695687" lon="18.094414558896833"><ele>59.5</ele><time>2026-04-12T15:20:44Z</time></trkpt><trkpt lat="40.20350741094281" lon="18.09452272512565"><ele>59.0</ele><time>2026-04-12T15:20:45Z</time></trkpt><trkpt lat="40.20374143019895" lon="18.09462925961032"><ele>59.0</ele><time>2026-04-12T15:20:46Z</time></trkpt><trkpt lat="40.203975867829904" lon="18.094735220972538"><ele>59.0</ele><time>2026-04-12T15:20:47.001Z</time></trkpt><trkpt lat="40.20421163685137" lon="18.094842932801406"><ele>59.0</ele><time>2026-04-12T15:20:48Z</time></trkpt><trkpt lat="40.204444608006085" lon="18.09494907998205"><ele>59.0</ele><time>2026-04-12T15:20:49Z</time></trkpt><trkpt lat="40.2046798706185" lon="18.09505347800721"><ele>58.5</ele><time>2026-04-12T15:20:50Z</time></trkpt><trkpt lat="40.20491463504151" lon="18.09515624643189"><ele>58.0</ele><time>2026-04-12T15:20:51Z</time></trkpt><trkpt lat="40.205150367992836" lon="18.09525509092973"><ele>58.0</ele><time>2026-04-12T15:20:52Z</time></trkpt><trkpt lat="40.20537915436055" lon="18.095351162499405"><ele>58.0</ele><time>2026-04-12T15:20:53Z</time></trkpt><trkpt lat="40.205603189705414" lon="18.095448285299387"><ele>58.5</ele><time>2026-04-12T15:20:54Z</time></trkpt><trkpt lat="40.20582082438219" lon="18.09554545450756"><ele>59.0</ele><time>2026-04-12T15:20:55Z</time></trkpt><trkpt lat="40.206031940973844" lon="18.09563880526111"><ele>59.0</ele><time>2026-04-12T15:20:56Z</time></trkpt><trkpt lat="40.206241631984305" lon="18.095733402412865"><ele>59.0</ele><time>2026-04-12T15:20:57Z</time></trkpt><trkpt lat="40.2064472488486" lon="18.095825061773606"><ele>59.0</ele><time>2026-04-12T15:20:58Z</time></trkpt><trkpt lat="40.20665531863851" lon="18.095916054977497"><ele>59.333333333333336</ele><time>2026-04-12T15:20:59Z</time></trkpt><trkpt lat="40.206861259437716" lon="18.096006300380324"><ele>59.66666666666667</ele><time>2026-04-12T15:21:00Z</time></trkpt><trkpt lat="40.207066244427" lon="18.096093714610518"><ele>60.0</ele><time>2026-04-12T15:21:01Z</time></trkpt><trkpt lat="40.207271889026146" lon="18.09618413973253"><ele>59.66666666666667</ele><time>2026-04-12T15:21:02Z</time></trkpt><trkpt lat="40.20747750873678" lon="18.0962768013335"><ele>59.333333333333336</ele><time>2026-04-12T15:21:03Z</time></trkpt><trkpt lat="40.207686082996105" lon="18.09636800531461"><ele>59.0</ele><time>2026-04-12T15:21:04Z</time></trkpt><trkpt lat="40.20789435213387" lon="18.09646248243797"><ele>59.0</ele><time>2026-04-12T15:21:05Z</time></trkpt><trkpt lat="40.208097353130036" lon="18.096555984208177"><ele>59.0</ele><time>2026-04-12T15:21:06Z</time></trkpt><trkpt lat="40.20830159646272" lon="18.096648896326858"><ele>59.0</ele><time>2026-04-12T15:21:07Z</time></trkpt><trkpt lat="40.20850651034013" lon="18.09673982631553"><ele>57.66666666666667</ele><time>2026-04-12T15:21:08Z</time></trkpt><trkpt lat="40.20871403344828" lon="18.096833723933276"><ele>56.33333333333333</ele><time>2026-04-12T15:21:09Z</time></trkpt><trkpt lat="40.20892202046361" lon="18.096928383634463"><ele>55.0</ele><time>2026-04-12T15:21:10Z</time></trkpt><trkpt lat="40.20913177661401" lon="18.09702450638497"><ele>54.0</ele><time>2026-04-12T15:21:11Z</time></trkpt><trkpt lat="40.209346311970094" lon="18.09711963144644"><ele>53.0</ele><time>2026-04-12T15:21:12Z</time></trkpt><trkpt lat="40.20955938731933" lon="18.09721754837079"><ele>53.0</ele><time>2026-04-12T15:21:13Z</time></trkpt><trkpt lat="40.209773401679975" lon="18.097316420839064"><ele>53.0</ele><time>2026-04-12T15:21:14Z</time></trkpt><trkpt lat="40.20998679780614" lon="18.09741672627678"><ele>49.5</ele><time>2026-04-12T15:21:15Z</time></trkpt><trkpt lat="40.210200685257206" lon="18.097516210865596"><ele>46.0</ele><time>2026-04-12T15:21:16Z</time></trkpt><trkpt lat="40.21041134526756" lon="18.09761392093875"><ele>46.0</ele><time>2026-04-12T15:21:17Z</time></trkpt><trkpt lat="40.21062295054459" lon="18.097708375045073"><ele>46.0</ele><time>2026-04-12T15:21:18Z</time></trkpt><trkpt lat="40.21082952927549" lon="18.09780532810391"><ele>46.0</ele><time>2026-04-12T15:21:19Z</time></trkpt><trkpt lat="40.21103803265815" lon="18.097900572621015"><ele>46.0</ele><time>2026-04-12T15:21:20Z</time></trkpt><trkpt lat="40.211251119186564" lon="18.097995305437983"><ele>46.0</ele><time>2026-04-12T15:21:21Z</time></trkpt><trkpt lat="40.21146377488531" lon="18.09808838098385"><ele>46.0</ele><time>2026-04-12T15:21:22Z</time></trkpt><trkpt lat="40.21168317892423" lon="18.098181770744656"><ele>46.0</ele><time>2026-04-12T15:21:23Z</time></trkpt><trkpt lat="40.21190331735699" lon="18.098276430737766"><ele>46.0</ele><time>2026-04-12T15:21:24Z</time></trkpt><trkpt lat="40.21212518264814" lon="18.098375185341098"><ele>46.0</ele><time>2026-04-12T15:21:25Z</time></trkpt><trkpt lat="40.212349484881024" lon="18.098472515937864"><ele>46.0</ele><time>2026-04-12T15:21:26Z</time></trkpt><trkpt lat="40.212576152896546" lon="18.098570308184428"><ele>46.0</ele><time>2026-04-12T15:21:27Z</time></trkpt><trkpt lat="40.212801819472595" lon="18.09866843929728"><ele>46.0</ele><time>2026-04-12T15:21:28Z</time></trkpt><trkpt lat="40.213023338795836" lon="18.098763331073933"><ele>45.0</ele><time>2026-04-12T15:21:29Z</time></trkpt><trkpt lat="40.213243992245125" lon="18.098858020437063"><ele>44.0</ele><time>2026-04-12T15:21:30Z</time></trkpt><trkpt lat="40.21346374073984" lon="18.098952822760854"><ele>44.0</ele><time>2026-04-12T15:21:31Z</time></trkpt><trkpt lat="40.2136844620965" lon="18.099052940518504"><ele>44.0</ele><time>2026-04-12T15:21:32Z</time></trkpt><trkpt lat="40.213903404926754" lon="18.09914848270598"><ele>43.5</ele><time>2026-04-12T15:21:33Z</time></trkpt><trkpt lat="40.2141223443098" lon="18.099244416065954"><ele>43.0</ele><time>2026-04-12T15:21:34Z</time></trkpt><trkpt lat="40.21433916087536" lon="18.099336818799774"><ele>43.0</ele><time>2026-04-12T15:21:35Z</time></trkpt><trkpt lat="40.21455376917759" lon="18.099428175012598"><ele>43.0</ele><time>2026-04-12T15:21:36Z</time></trkpt><trkpt lat="40.21476388268511" lon="18.099521676208393"><ele>43.0</ele><time>2026-04-12T15:21:37Z</time></trkpt><trkpt lat="40.214971088641164" lon="18.099618874970805"><ele>43.0</ele><time>2026-04-12T15:21:38Z</time></trkpt><trkpt lat="40.21517541336103" lon="18.09971327117864"><ele>43.0</ele><time>2026-04-12T15:21:39Z</time></trkpt><trkpt lat="40.21538068242704" lon="18.09980911860466"><ele>43.0</ele><time>2026-04-12T15:21:40Z</time></trkpt><trkpt lat="40.2155920124038" lon="18.099911340091058"><ele>43.5</ele><time>2026-04-12T15:21:41Z</time></trkpt><trkpt lat="40.215801537256034" lon="18.10001076565273"><ele>44.0</ele><time>2026-04-12T15:21:42Z</time></trkpt><trkpt lat="40.21601727016267" lon="18.10011437996583"><ele>44.0</ele><time>2026-04-12T15:21:43Z</time></trkpt><trkpt lat="40.21622979849678" lon="18.100214553539967"><ele>44.0</ele><time>2026-04-12T15:21:44Z</time></trkpt><trkpt lat="40.216445043368914" lon="18.10031535856845"><ele>43.666666666666664</ele><time>2026-04-12T15:21:45Z</time></trkpt><trkpt lat="40.21665805988914" lon="18.100413235163636"><ele>43.333333333333336</ele><time>2026-04-12T15:21:46Z</time></trkpt><trkpt lat="40.21686590748829" lon="18.100510436468305"><ele>43.0</ele><time>2026-04-12T15:21:47Z</time></trkpt><trkpt lat="40.217067258833254" lon="18.100599855565772"><ele>43.0</ele><time>2026-04-12T15:21:48Z</time></trkpt><trkpt lat="40.21726805267994" lon="18.100690139570364"><ele>43.0</ele><time>2026-04-12T15:21:49Z</time></trkpt><trkpt lat="40.217467239812244" lon="18.10078340459893"><ele>43.0</ele><time>2026-04-12T15:21:50Z</time></trkpt><trkpt lat="40.21766744214218" lon="18.1008765330484"><ele>43.333333333333336</ele><time>2026-04-12T15:21:51Z</time></trkpt><trkpt lat="40.21786574759431" lon="18.100965099115257"><ele>43.666666666666664</ele><time>2026-04-12T15:21:52Z</time></trkpt><trkpt lat="40.21806142979114" lon="18.101050743069838"><ele>44.0</ele><time>2026-04-12T15:21:53Z</time></trkpt><trkpt lat="40.218264558454024" lon="18.10117711840258"><ele>44.5</ele><time>2026-04-12T15:21:54Z</time></trkpt><trkpt lat="40.218461629760164" lon="18.10132859683428"><ele>45.0</ele><time>2026-04-12T15:21:55Z</time></trkpt><trkpt lat="40.21867329053405" lon="18.101522881841788"><ele>45.0</ele><time>2026-04-12T15:21:56Z</time></trkpt><trkpt lat="40.21888195306019" lon="18.101701891964424"><ele>45.0</ele><time>2026-04-12T15:21:57Z</time></trkpt><trkpt lat="40.21908820411934" lon="18.101890930229175"><ele>44.0</ele><time>2026-04-12T15:21:58Z</time></trkpt><trkpt lat="40.21932101969649" lon="18.102061796059704"><ele>43.0</ele><time>2026-04-12T15:21:59Z</time></trkpt><trkpt lat="40.21954576004143" lon="18.102201427298418"><ele>43.0</ele><time>2026-04-12T15:22:00Z</time></trkpt><trkpt lat="40.219623488290075" lon="18.101775336522994"><ele>43.0</ele><time>2026-04-12T15:22:01Z</time></trkpt><trkpt lat="40.21981300765818" lon="18.101859071768803"><ele>43.333333333333336</ele><time>2026-04-12T15:22:02Z</time></trkpt><trkpt lat="40.22000447200581" lon="18.101948351962825"><ele>43.666666666666664</ele><time>2026-04-12T15:22:03Z</time></trkpt><trkpt lat="40.22019625481451" lon="18.102035499415106"><ele>44.0</ele><time>2026-04-12T15:22:04Z</time></trkpt><trkpt lat="40.220387898598524" lon="18.102122674853682"><ele>44.0</ele><time>2026-04-12T15:22:05Z</time></trkpt><trkpt lat="40.220582722472294" lon="18.102214842807197"><ele>44.0</ele><time>2026-04-12T15:22:06Z</time></trkpt><trkpt lat="40.220778213615205" lon="18.10230302098821"><ele>44.0</ele><time>2026-04-12T15:22:07Z</time></trkpt><trkpt lat="40.22097699683263" lon="18.102389850421392"><ele>44.0</ele><time>2026-04-12T15:22:08Z</time></trkpt><trkpt lat="40.221174209446865" lon="18.102479374466473"><ele>44.0</ele><time>2026-04-12T15:22:09Z</time></trkpt><trkpt lat="40.22137142408679" lon="18.102568020619458"><ele>44.0</ele><time>2026-04-12T15:22:10Z</time></trkpt><trkpt lat="40.22156779040786" lon="18.10265528415427"><ele>44.0</ele><time>2026-04-12T15:22:11Z</time></trkpt><trkpt lat="40.22176436172498" lon="18.10274776449164"><ele>44.0</ele><time>2026-04-12T15:22:12Z</time></trkpt><trkpt lat="40.22196034250798" lon="18.10283705593493"><ele>44.0</ele><time>2026-04-12T15:22:13Z</time></trkpt><trkpt lat="40.22215635210779" lon="18.102928529930033"><ele>43.666666666666664</ele><time>2026-04-12T15:22:14Z</time></trkpt><trkpt lat="40.222353734353135" lon="18.103017905831702"><ele>43.333333333333336</ele><time>2026-04-12T15:22:15Z</time></trkpt><trkpt lat="40.22254849566762" lon="18.103105942731275"><ele>43.0</ele><time>2026-04-12T15:22:16Z</time></trkpt><trkpt lat="40.22273932428252" lon="18.10318920122854"><ele>43.333333333333336</ele><time>2026-04-12T15:22:17Z</time></trkpt><trkpt lat="40.22292919361856" lon="18.103273623365634"><ele>43.666666666666664</ele><time>2026-04-12T15:22:18Z</time></trkpt><trkpt lat="40.22311336630438" lon="18.103352905615928"><ele>44.0</ele><time>2026-04-12T15:22:19Z</time></trkpt><trkpt lat="40.22329347253244" lon="18.103434456319114"><ele>44.666666666666664</ele><time>2026-04-12T15:22:20Z</time></trkpt><trkpt lat="40.22347002898144" lon="18.10351449294881"><ele>45.333333333333336</ele><time>2026-04-12T15:22:21Z</time></trkpt><trkpt lat="40.223645179976366" lon="18.103597263998658"><ele>46.0</ele><time>2026-04-12T15:22:22Z</time></trkpt><trkpt lat="40.223823061650094" lon="18.103677671354138"><ele>45.66666666666667</ele><time>2026-04-12T15:22:23Z</time></trkpt><trkpt lat="40.22399397974908" lon="18.103753226702025"><ele>45.333333333333336</ele><time>2026-04-12T15:22:24Z</time></trkpt><trkpt lat="40.22416084509507" lon="18.10382498426791"><ele>45.0</ele><time>2026-04-12T15:22:25Z</time></trkpt><trkpt lat="40.22431668191462" lon="18.103894819167998"><ele>45.0</ele><time>2026-04-12T15:22:26Z</time></trkpt><trkpt lat="40.22447218612941" lon="18.10396932317973"><ele>45.0</ele><time>2026-04-12T15:22:27Z</time></trkpt><trkpt lat="40.22462885304926" lon="18.10403721125333"><ele>45.0</ele><time>2026-04-12T15:22:28Z</time></trkpt><trkpt lat="40.224791502403264" lon="18.10411143653465"><ele>45.333333333333336</ele><time>2026-04-12T15:22:29Z</time></trkpt><trkpt lat="40.224957918434754" lon="18.104186706766907"><ele>45.66666666666667</ele><time>2026-04-12T15:22:30Z</time></trkpt><trkpt lat="40.225116475612204" lon="18.1042583743965"><ele>46.0</ele><time>2026-04-12T15:22:31Z</time></trkpt><trkpt lat="40.225264594001295" lon="18.10433067357646"><ele>46.0</ele><time>2026-04-12T15:22:32Z</time></trkpt><trkpt lat="40.22541971891659" lon="18.10440200373413"><ele>46.0</ele><time>2026-04-12T15:22:33Z</time></trkpt><trkpt lat="40.22557665716044" lon="18.104462862343503"><ele>46.0</ele><time>2026-04-12T15:22:34Z</time></trkpt><trkpt lat="40.225736974240135" lon="18.104529694090132"><ele>46.0</ele><time>2026-04-12T15:22:35Z</time></trkpt><trkpt lat="40.22590351449226" lon="18.104604774063908"><ele>46.0</ele><time>2026-04-12T15:22:36Z</time></trkpt><trkpt lat="40.226071870789475" lon="18.104685661213534"><ele>46.0</ele><time>2026-04-12T15:22:37Z</time></trkpt><trkpt lat="40.22623937867246" lon="18.10476539144386"><ele>46.0</ele><time>2026-04-12T15:22:38Z</time></trkpt><trkpt lat="40.226403109211915" lon="18.104847637574345"><ele>46.0</ele><time>2026-04-12T15:22:39Z</time></trkpt><trkpt lat="40.22657121464017" lon="18.104918940447806"><ele>46.0</ele><time>2026-04-12T15:22:40Z</time></trkpt><trkpt lat="40.226736759319515" lon="18.10498784385251"><ele>46.333333333333336</ele><time>2026-04-12T15:22:41.001Z</time></trkpt><trkpt lat="40.22689576942734" lon="18.10505006191943"><ele>46.666666666666664</ele><time>2026-04-12T15:22:42Z</time></trkpt><trkpt lat="40.227055116929954" lon="18.105119390265667"><ele>47.0</ele><time>2026-04-12T15:22:43Z</time></trkpt><trkpt lat="40.22721907565471" lon="18.105195702517264"><ele>47.33333333333333</ele><time>2026-04-12T15:22:44.001Z</time></trkpt><trkpt lat="40.227380019136504" lon="18.105269604441386"><ele>47.666666666666664</ele><time>2026-04-12T15:22:45Z</time></trkpt><trkpt lat="40.22755238500471" lon="18.105344574088118"><ele>48.0</ele><time>2026-04-12T15:22:46Z</time></trkpt><trkpt lat="40.22772693514913" lon="18.105428677623305"><ele>48.0</ele><time>2026-04-12T15:22:47.001Z</time></trkpt><trkpt lat="40.227891872074665" lon="18.105508490048837"><ele>48.0</ele><time>2026-04-12T15:22:48.001Z</time></trkpt><trkpt lat="40.22806702696944" lon="18.10557995943563"><ele>48.0</ele><time>2026-04-12T15:22:49.001Z</time></trkpt><trkpt lat="40.22824022751503" lon="18.105647573623063"><ele>47.333333333333336</ele><time>2026-04-12T15:22:50.001Z</time></trkpt><trkpt lat="40.22840522219371" lon="18.10571777064537"><ele>46.66666666666667</ele><time>2026-04-12T15:22:51.001Z</time></trkpt><trkpt lat="40.228558651180435" lon="18.105789992802684"><ele>46.0</ele><time>2026-04-12T15:22:52.001Z</time></trkpt><trkpt lat="40.228726820893016" lon="18.1058732199229"><ele>46.0</ele><time>2026-04-12T15:22:53.001Z</time></trkpt><trkpt lat="40.22890544358549" lon="18.105953388614605"><ele>46.0</ele><time>2026-04-12T15:22:54.001Z</time></trkpt><trkpt lat="40.22908901191951" lon="18.10602666939855"><ele>46.0</ele><time>2026-04-12T15:22:55.001Z</time></trkpt><trkpt lat="40.2292764009444" lon="18.106094389447133"><ele>46.0</ele><time>2026-04-12T15:22:56.001Z</time></trkpt><trkpt lat="40.229482284411084" lon="18.106186984110586"><ele>46.0</ele><time>2026-04-12T15:22:57.001Z</time></trkpt><trkpt lat="40.22968675960973" lon="18.106276992158854"><ele>46.0</ele><time>2026-04-12T15:22:58.001Z</time></trkpt><trkpt lat="40.229875209014956" lon="18.106354281051168"><ele>46.0</ele><time>2026-04-12T15:22:59.001Z</time></trkpt><trkpt lat="40.230078735650785" lon="18.10644443352838"><ele>46.0</ele><time>2026-04-12T15:23:00.001Z</time></trkpt><trkpt lat="40.23029622817289" lon="18.10654266523216"><ele>46.0</ele><time>2026-04-12T15:23:01.001Z</time></trkpt><trkpt lat="40.2305359854785" lon="18.106645898660798"><ele>48.0</ele><time>2026-04-12T15:23:02.001Z</time></trkpt><trkpt lat="40.23078155932327" lon="18.10675681177022"><ele>50.0</ele><time>2026-04-12T15:23:03.001Z</time></trkpt><trkpt lat="40.23102861411689" lon="18.106882275627722"><ele>50.0</ele><time>2026-04-12T15:23:04.001Z</time></trkpt><trkpt lat="40.231276399962155" lon="18.107000908861874"><ele>50.0</ele><time>2026-04-12T15:23:05.001Z</time></trkpt><trkpt lat="40.2315377601974" lon="18.107112917399355"><ele>50.0</ele><time>2026-04-12T15:23:06.001Z</time></trkpt><trkpt lat="40.231801137509485" lon="18.10722353065705"><ele>50.0</ele><time>2026-04-12T15:23:07.001Z</time></trkpt><trkpt lat="40.2320762565589" lon="18.107344777864075"><ele>50.0</ele><time>2026-04-12T15:23:08.001Z</time></trkpt><trkpt lat="40.23234417300025" lon="18.10747429159633"><ele>50.0</ele><time>2026-04-12T15:23:09.001Z</time></trkpt><trkpt lat="40.23260254740409" lon="18.10758313486059"><ele>50.0</ele><time>2026-04-12T15:23:10.001Z</time></trkpt><trkpt lat="40.2328703091057" lon="18.107696861939193"><ele>50.0</ele><time>2026-04-12T15:23:11.001Z</time></trkpt><trkpt lat="40.233136369054826" lon="18.10781614874004"><ele>49.5</ele><time>2026-04-12T15:23:12.001Z</time></trkpt><trkpt lat="40.23340338980649" lon="18.107942089049622"><ele>49.0</ele><time>2026-04-12T15:23:13.001Z</time></trkpt><trkpt lat="40.2336920104189" lon="18.108057543171412"><ele>49.0</ele><time>2026-04-12T15:23:14.001Z</time></trkpt><trkpt lat="40.23395626691057" lon="18.10818429700101"><ele>49.0</ele><time>2026-04-12T15:23:15.001Z</time></trkpt><trkpt lat="40.2341965114974" lon="18.1082899582558"><ele>50.0</ele><time>2026-04-12T15:23:16.001Z</time></trkpt><trkpt lat="40.234419939644" lon="18.108389259387117"><ele>51.0</ele><time>2026-04-12T15:23:17Z</time></trkpt><trkpt lat="40.2346509507749" lon="18.10849012391743"><ele>52.0</ele><time>2026-04-12T15:23:18Z</time></trkpt><trkpt lat="40.23489541384599" lon="18.108601026623806"><ele>53.0</ele><time>2026-04-12T15:23:19Z</time></trkpt><trkpt lat="40.235139742484854" lon="18.10870524178435"><ele>53.0</ele><time>2026-04-12T15:23:20Z</time></trkpt><trkpt lat="40.23538417129357" lon="18.10881347287435"><ele>53.0</ele><time>2026-04-12T15:23:21Z</time></trkpt><trkpt lat="40.23562971197958" lon="18.10892073356853"><ele>52.5</ele><time>2026-04-12T15:23:22Z</time></trkpt><trkpt lat="40.23587132362281" lon="18.10902532959197"><ele>52.0</ele><time>2026-04-12T15:23:23Z</time></trkpt><trkpt lat="40.23610515678764" lon="18.10913414875496"><ele>52.0</ele><time>2026-04-12T15:23:24Z</time></trkpt><trkpt lat="40.236335742261886" lon="18.109242652680212"><ele>52.0</ele><time>2026-04-12T15:23:25Z</time></trkpt><trkpt lat="40.23657228200368" lon="18.109343093546087"><ele>52.0</ele><time>2026-04-12T15:23:26Z</time></trkpt><trkpt lat="40.23680336576161" lon="18.109447528292964"><ele>52.0</ele><time>2026-04-12T15:23:27Z</time></trkpt><trkpt lat="40.23703589607515" lon="18.10955249671745"><ele>52.0</ele><time>2026-04-12T15:23:28Z</time></trkpt><trkpt lat="40.23727627680062" lon="18.109658505106577"><ele>52.0</ele><time>2026-04-12T15:23:29Z</time></trkpt><trkpt lat="40.23751978781431" lon="18.109770093991916"><ele>52.5</ele><time>2026-04-12T15:23:30Z</time></trkpt><trkpt lat="40.23775924567359" lon="18.109875826207286"><ele>53.0</ele><time>2026-04-12T15:23:31Z</time></trkpt><trkpt lat="40.23800356627349" lon="18.10997965980561"><ele>53.5</ele><time>2026-04-12T15:23:32Z</time></trkpt><trkpt lat="40.23824901100294" lon="18.110086749475595"><ele>54.0</ele><time>2026-04-12T15:23:33Z</time></trkpt><trkpt lat="40.23849110261244" lon="18.110191336180772"><ele>54.0</ele><time>2026-04-12T15:23:34Z</time></trkpt><trkpt lat="40.23873813349194" lon="18.110299358501074"><ele>54.0</ele><time>2026-04-12T15:23:35Z</time></trkpt><trkpt lat="40.23898481771091" lon="18.110414619462265"><ele>54.0</ele><time>2026-04-12T15:23:36Z</time></trkpt><trkpt lat="40.239231261654005" lon="18.110528570286704"><ele>54.0</ele><time>2026-04-12T15:23:37Z</time></trkpt><trkpt lat="40.23947650873572" lon="18.11063887680178"><ele>54.5</ele><time>2026-04-12T15:23:38Z</time></trkpt><trkpt lat="40.2397211201636" lon="18.110749983739726"><ele>55.0</ele><time>2026-04-12T15:23:39Z</time></trkpt><trkpt lat="40.23996138734932" lon="18.110858864413963"><ele>55.0</ele><time>2026-04-12T15:23:40Z</time></trkpt><trkpt lat="40.240202340776364" lon="18.110961415108612"><ele>55.0</ele><time>2026-04-12T15:23:41Z</time></trkpt><trkpt lat="40.24044198072719" lon="18.111068012453494"><ele>56.5</ele><time>2026-04-12T15:23:42Z</time></trkpt><trkpt lat="40.240685724534096" lon="18.11117053769829"><ele>58.0</ele><time>2026-04-12T15:23:43Z</time></trkpt><trkpt lat="40.24092310273765" lon="18.111280719169862"><ele>58.0</ele><time>2026-04-12T15:23:44Z</time></trkpt><trkpt lat="40.241162644887304" lon="18.11138494949779"><ele>58.0</ele><time>2026-04-12T15:23:45Z</time></trkpt><trkpt lat="40.24140502569939" lon="18.111493478363137"><ele>57.0</ele><time>2026-04-12T15:23:46Z</time></trkpt><trkpt lat="40.24165112114646" lon="18.11160113678952"><ele>56.0</ele><time>2026-04-12T15:23:47Z</time></trkpt><trkpt lat="40.24186799529724" lon="18.111699991246557"><ele>56.0</ele><time>2026-04-12T15:23:48Z</time></trkpt><trkpt lat="40.242095899476574" lon="18.11180161103296"><ele>56.0</ele><time>2026-04-12T15:23:49Z</time></trkpt><trkpt lat="40.242343683630196" lon="18.111904769898977"><ele>56.0</ele><time>2026-04-12T15:23:50Z</time></trkpt><trkpt lat="40.242605461121926" lon="18.11201242357336"><ele>56.0</ele><time>2026-04-12T15:23:51Z</time></trkpt><trkpt lat="40.24287094477771" lon="18.112125345370078"><ele>56.5</ele><time>2026-04-12T15:23:52Z</time></trkpt><trkpt lat="40.243141149063035" lon="18.11225101898759"><ele>57.0</ele><time>2026-04-12T15:23:53Z</time></trkpt><trkpt lat="40.24340135616901" lon="18.112376249005248"><ele>57.5</ele><time>2026-04-12T15:23:54Z</time></trkpt><trkpt lat="40.24366983284279" lon="18.112498693065675"><ele>58.0</ele><time>2026-04-12T15:23:55Z</time></trkpt><trkpt lat="40.24393072983292" lon="18.112612074820877"><ele>57.5</ele><time>2026-04-12T15:23:56Z</time></trkpt><trkpt lat="40.24419238522542" lon="18.112722718104937"><ele>57.0</ele><time>2026-04-12T15:23:57Z</time></trkpt><trkpt lat="40.24445845935591" lon="18.112838812519374"><ele>57.0</ele><time>2026-04-12T15:23:58Z</time></trkpt><trkpt lat="40.24472353789197" lon="18.11295579353842"><ele>57.0</ele><time>2026-04-12T15:23:59Z</time></trkpt><trkpt lat="40.24500972938031" lon="18.11308458690336"><ele>57.5</ele><time>2026-04-12T15:24:00Z</time></trkpt><trkpt lat="40.245268776066055" lon="18.113210074455242"><ele>58.0</ele><time>2026-04-12T15:24:01Z</time></trkpt><trkpt lat="40.245510456718954" lon="18.11331775508927"><ele>57.0</ele><time>2026-04-12T15:24:02Z</time></trkpt><trkpt lat="40.24575737968925" lon="18.11342564587282"><ele>56.0</ele><time>2026-04-12T15:24:03Z</time></trkpt><trkpt lat="40.246009985106994" lon="18.113536900504414"><ele>56.0</ele><time>2026-04-12T15:24:04Z</time></trkpt><trkpt lat="40.24626736548271" lon="18.11365513217561"><ele>56.0</ele><time>2026-04-12T15:24:05Z</time></trkpt><trkpt lat="40.24652631829347" lon="18.113769635184326"><ele>56.0</ele><time>2026-04-12T15:24:06Z</time></trkpt><trkpt lat="40.24678920374855" lon="18.113887898159415"><ele>56.0</ele><time>2026-04-12T15:24:07Z</time></trkpt><trkpt lat="40.24705381007304" lon="18.11400891312027"><ele>55.5</ele><time>2026-04-12T15:24:08Z</time></trkpt><trkpt lat="40.24731819999964" lon="18.114130584838556"><ele>55.0</ele><time>2026-04-12T15:24:09Z</time></trkpt><trkpt lat="40.24757822829085" lon="18.114247622783175"><ele>55.0</ele><time>2026-04-12T15:24:10Z</time></trkpt><trkpt lat="40.247838024763205" lon="18.11436390287417"><ele>55.0</ele><time>2026-04-12T15:24:11Z</time></trkpt><trkpt lat="40.24809651094805" lon="18.114478373567888"><ele>54.0</ele><time>2026-04-12T15:24:12Z</time></trkpt><trkpt lat="40.24835974382907" lon="18.114592992733385"><ele>53.0</ele><time>2026-04-12T15:24:13Z</time></trkpt><trkpt lat="40.24861949538347" lon="18.114709838315807"><ele>53.0</ele><time>2026-04-12T15:24:14Z</time></trkpt><trkpt lat="40.248885968791335" lon="18.114827449322217"><ele>53.0</ele><time>2026-04-12T15:24:15Z</time></trkpt><trkpt lat="40.24912611397485" lon="18.114914160034612"><ele>50.5</ele><time>2026-04-12T15:24:16Z</time></trkpt><trkpt lat="40.24939274660921" lon="18.115037418819735"><ele>48.0</ele><time>2026-04-12T15:24:17Z</time></trkpt><trkpt lat="40.24967806705712" lon="18.115179583923165"><ele>48.0</ele><time>2026-04-12T15:24:18Z</time></trkpt><trkpt lat="40.24994804077711" lon="18.11530219764104"><ele>48.0</ele><time>2026-04-12T15:24:19Z</time></trkpt><trkpt lat="40.250206908616505" lon="18.11541649862923"><ele>48.0</ele><time>2026-04-12T15:24:20Z</time></trkpt><trkpt lat="40.25046503204486" lon="18.115529753478143"><ele>48.0</ele><time>2026-04-12T15:24:21Z</time></trkpt><trkpt lat="40.25072155943496" lon="18.115641203376132"><ele>46.5</ele><time>2026-04-12T15:24:22Z</time></trkpt><trkpt lat="40.250978501893684" lon="18.11574888340454"><ele>45.0</ele><time>2026-04-12T15:24:23Z</time></trkpt><trkpt lat="40.25123574276999" lon="18.115865773262467"><ele>45.0</ele><time>2026-04-12T15:24:24Z</time></trkpt><trkpt lat="40.25149539965893" lon="18.11598432421156"><ele>45.0</ele><time>2026-04-12T15:24:25Z</time></trkpt><trkpt lat="40.251751901041565" lon="18.11610162043485"><ele>45.0</ele><time>2026-04-12T15:24:26Z</time></trkpt><trkpt lat="40.252011821865615" lon="18.11621564824361"><ele>45.0</ele><time>2026-04-12T15:24:27Z</time></trkpt><trkpt lat="40.252268354562446" lon="18.11633586952335"><ele>45.5</ele><time>2026-04-12T15:24:28Z</time></trkpt><trkpt lat="40.25252779127744" lon="18.116449642989718"><ele>46.0</ele><time>2026-04-12T15:24:29Z</time></trkpt><trkpt lat="40.25278600535311" lon="18.116564523753283"><ele>45.0</ele><time>2026-04-12T15:24:30Z</time></trkpt><trkpt lat="40.25304002955489" lon="18.116672447111945"><ele>44.0</ele><time>2026-04-12T15:24:31Z</time></trkpt><trkpt lat="40.25329054638306" lon="18.116781677621375"><ele>44.0</ele><time>2026-04-12T15:24:32Z</time></trkpt><trkpt lat="40.25354319198653" lon="18.116895249769893"><ele>44.0</ele><time>2026-04-12T15:24:33Z</time></trkpt><trkpt lat="40.2537918131469" lon="18.117004306325068"><ele>44.5</ele><time>2026-04-12T15:24:34Z</time></trkpt><trkpt lat="40.25404111981708" lon="18.117115730854735"><ele>45.0</ele><time>2026-04-12T15:24:35Z</time></trkpt><trkpt lat="40.254289497946665" lon="18.117222734170728"><ele>45.0</ele><time>2026-04-12T15:24:36Z</time></trkpt><trkpt lat="40.254541655517585" lon="18.117331676233984"><ele>45.0</ele><time>2026-04-12T15:24:37Z</time></trkpt><trkpt lat="40.25478756265488" lon="18.11744349693782"><ele>45.0</ele><time>2026-04-12T15:24:38Z</time></trkpt><trkpt lat="40.255035189551556" lon="18.117554488931084"><ele>45.0</ele><time>2026-04-12T15:24:39Z</time></trkpt><trkpt lat="40.25528785043846" lon="18.117661530287307"><ele>45.0</ele><time>2026-04-12T15:24:40Z</time></trkpt><trkpt lat="40.25553723667583" lon="18.117772865561893"><ele>45.0</ele><time>2026-04-12T15:24:41Z</time></trkpt><trkpt lat="40.25578734786421" lon="18.11787900366267"><ele>44.5</ele><time>2026-04-12T15:24:42Z</time></trkpt><trkpt lat="40.25603429058756" lon="18.11799206293345"><ele>44.0</ele><time>2026-04-12T15:24:43Z</time></trkpt><trkpt lat="40.256284585428546" lon="18.11810430080619"><ele>44.5</ele><time>2026-04-12T15:24:44Z</time></trkpt><trkpt lat="40.25653163955509" lon="18.118218444735557"><ele>45.0</ele><time>2026-04-12T15:24:45Z</time></trkpt><trkpt lat="40.25678172044573" lon="18.118332142797236"><ele>45.0</ele><time>2026-04-12T15:24:46Z</time></trkpt><trkpt lat="40.25703015329885" lon="18.118445010538675"><ele>45.0</ele><time>2026-04-12T15:24:47Z</time></trkpt><trkpt lat="40.25727796540962" lon="18.118555210938812"><ele>46.5</ele><time>2026-04-12T15:24:48Z</time></trkpt><trkpt lat="40.25752530921862" lon="18.118665718078073"><ele>48.0</ele><time>2026-04-12T15:24:49Z</time></trkpt><trkpt lat="40.257771068046196" lon="18.11877459406247"><ele>48.0</ele><time>2026-04-12T15:24:50.001Z</time></trkpt><trkpt lat="40.25801840839608" lon="18.11888238345539"><ele>48.0</ele><time>2026-04-12T15:24:51.001Z</time></trkpt><trkpt lat="40.25826478864415" lon="18.118994342525355"><ele>47.5</ele><time>2026-04-12T15:24:52Z</time></trkpt><trkpt lat="40.2585100974835" lon="18.119103110187456"><ele>47.0</ele><time>2026-04-12T15:24:53Z</time></trkpt><trkpt lat="40.25875147362874" lon="18.119212459461206"><ele>47.0</ele><time>2026-04-12T15:24:54Z</time></trkpt><trkpt lat="40.258988639585034" lon="18.119319683005404"><ele>47.0</ele><time>2026-04-12T15:24:55.001Z</time></trkpt><trkpt lat="40.2592323703895" lon="18.11942581729278"><ele>47.0</ele><time>2026-04-12T15:24:56Z</time></trkpt><trkpt lat="40.25946973792229" lon="18.119529024352826"><ele>47.0</ele><time>2026-04-12T15:24:57Z</time></trkpt><trkpt lat="40.25970755878349" lon="18.119634721894826"><ele>47.0</ele><time>2026-04-12T15:24:58.001Z</time></trkpt><trkpt lat="40.25994863701249" lon="18.119742386250365"><ele>47.0</ele><time>2026-04-12T15:24:59Z</time></trkpt><trkpt lat="40.26019220018957" lon="18.119852693178935"><ele>46.5</ele><time>2026-04-12T15:25:00Z</time></trkpt><trkpt lat="40.260436862913714" lon="18.119961281109546"><ele>46.0</ele><time>2026-04-12T15:25:01Z</time></trkpt><trkpt lat="40.260686003999204" lon="18.120071869502087"><ele>46.0</ele><time>2026-04-12T15:25:02Z</time></trkpt><trkpt lat="40.260936571600865" lon="18.12018043597522"><ele>46.0</ele><time>2026-04-12T15:25:03Z</time></trkpt><trkpt lat="40.2611940544679" lon="18.12029095385243"><ele>46.0</ele><time>2026-04-12T15:25:04Z</time></trkpt><trkpt lat="40.26145074844849" lon="18.120401465513183"><ele>46.0</ele><time>2026-04-12T15:25:05Z</time></trkpt><trkpt lat="40.261706285890796" lon="18.12051766324569"><ele>46.0</ele><time>2026-04-12T15:25:06Z</time></trkpt><trkpt lat="40.26196286494444" lon="18.120637362229015"><ele>46.0</ele><time>2026-04-12T15:25:07Z</time></trkpt><trkpt lat="40.26221997691095" lon="18.120754881834518"><ele>46.5</ele><time>2026-04-12T15:25:08Z</time></trkpt><trkpt lat="40.262476348281815" lon="18.12086619276952"><ele>47.0</ele><time>2026-04-12T15:25:09Z</time></trkpt><trkpt lat="40.26273480754554" lon="18.120977736849532"><ele>47.0</ele><time>2026-04-12T15:25:10Z</time></trkpt><trkpt lat="40.262991600886274" lon="18.121089659018665"><ele>47.0</ele><time>2026-04-12T15:25:11Z</time></trkpt><trkpt lat="40.26325158430281" lon="18.121202340653873"><ele>47.0</ele><time>2026-04-12T15:25:12Z</time></trkpt><trkpt lat="40.26351066165994" lon="18.121318002170995"><ele>47.0</ele><time>2026-04-12T15:25:13Z</time></trkpt><trkpt lat="40.26376832065741" lon="18.12143443443971"><ele>47.0</ele><time>2026-04-12T15:25:14Z</time></trkpt><trkpt lat="40.264025485253605" lon="18.12155202023406"><ele>47.0</ele><time>2026-04-12T15:25:15Z</time></trkpt><trkpt lat="40.264279278352404" lon="18.121673643422497"><ele>47.0</ele><time>2026-04-12T15:25:16Z</time></trkpt><trkpt lat="40.264531023212854" lon="18.12179586324273"><ele>47.0</ele><time>2026-04-12T15:25:17Z</time></trkpt><trkpt lat="40.26478245521902" lon="18.12191529993494"><ele>45.5</ele><time>2026-04-12T15:25:18Z</time></trkpt><trkpt lat="40.26503510373648" lon="18.122030449576698"><ele>44.0</ele><time>2026-04-12T15:25:19Z</time></trkpt><trkpt lat="40.265289477171194" lon="18.122144625109442"><ele>44.0</ele><time>2026-04-12T15:25:20Z</time></trkpt><trkpt lat="40.265546653463424" lon="18.122256312290233"><ele>44.0</ele><time>2026-04-12T15:25:21Z</time></trkpt><trkpt lat="40.265804804727146" lon="18.122368589459928"><ele>45.5</ele><time>2026-04-12T15:25:22Z</time></trkpt><trkpt lat="40.26606376756725" lon="18.122486068664088"><ele>47.0</ele><time>2026-04-12T15:25:23Z</time></trkpt><trkpt lat="40.26631993354818" lon="18.122606068150247"><ele>46.0</ele><time>2026-04-12T15:25:24Z</time></trkpt><trkpt lat="40.26657598375866" lon="18.12272729570419"><ele>45.0</ele><time>2026-04-12T15:25:25Z</time></trkpt><trkpt lat="40.266836184224196" lon="18.122846334462412"><ele>45.0</ele><time>2026-04-12T15:25:26Z</time></trkpt><trkpt lat="40.267092742767105" lon="18.122958624931297"><ele>45.0</ele><time>2026-04-12T15:25:27Z</time></trkpt><trkpt lat="40.267351088048216" lon="18.123072545931862"><ele>45.5</ele><time>2026-04-12T15:25:28Z</time></trkpt><trkpt lat="40.26761266112955" lon="18.12318831422275"><ele>46.0</ele><time>2026-04-12T15:25:29Z</time></trkpt><trkpt lat="40.26787401600155" lon="18.12329851988012"><ele>45.0</ele><time>2026-04-12T15:25:30Z</time></trkpt><trkpt lat="40.26813627603695" lon="18.123409213362297"><ele>44.0</ele><time>2026-04-12T15:25:31Z</time></trkpt><trkpt lat="40.26840394085214" lon="18.1235226434411"><ele>44.0</ele><time>2026-04-12T15:25:32Z</time></trkpt><trkpt lat="40.26866285122067" lon="18.12362451264538"><ele>44.0</ele><time>2026-04-12T15:25:33Z</time></trkpt><trkpt lat="40.26890932956709" lon="18.123727331249164"><ele>44.5</ele><time>2026-04-12T15:25:34Z</time></trkpt><trkpt lat="40.26915650627033" lon="18.123840370398067"><ele>45.0</ele><time>2026-04-12T15:25:35Z</time></trkpt><trkpt lat="40.26940105223772" lon="18.1239509139354"><ele>45.5</ele><time>2026-04-12T15:25:36Z</time></trkpt><trkpt lat="40.26964793023326" lon="18.124063712621297"><ele>46.0</ele><time>2026-04-12T15:25:37Z</time></trkpt><trkpt lat="40.2699012737257" lon="18.1241755620358"><ele>45.0</ele><time>2026-04-12T15:25:38Z</time></trkpt><trkpt lat="40.27015664467691" lon="18.12428482299201"><ele>44.0</ele><time>2026-04-12T15:25:39Z</time></trkpt><trkpt lat="40.2704123508157" lon="18.124395912903317"><ele>43.0</ele><time>2026-04-12T15:25:40Z</time></trkpt><trkpt lat="40.27066362894544" lon="18.124509900005716"><ele>42.0</ele><time>2026-04-12T15:25:41Z</time></trkpt><trkpt lat="40.270913778438825" lon="18.1246207529639"><ele>42.0</ele><time>2026-04-12T15:25:42Z</time></trkpt><trkpt lat="40.271168420412145" lon="18.124731783151095"><ele>42.0</ele><time>2026-04-12T15:25:43Z</time></trkpt><trkpt lat="40.27142224688653" lon="18.12484425153633"><ele>42.5</ele><time>2026-04-12T15:25:44Z</time></trkpt><trkpt lat="40.27167670958384" lon="18.124955891792634"><ele>43.0</ele><time>2026-04-12T15:25:45Z</time></trkpt><trkpt lat="40.271930593127095" lon="18.125072010735845"><ele>43.0</ele><time>2026-04-12T15:25:46Z</time></trkpt><trkpt lat="40.272183303401874" lon="18.125187438766282"><ele>43.0</ele><time>2026-04-12T15:25:47Z</time></trkpt><trkpt lat="40.27243483283848" lon="18.125302146217077"><ele>44.0</ele><time>2026-04-12T15:25:48Z</time></trkpt><trkpt lat="40.27268932752767" lon="18.12541001042441"><ele>45.0</ele><time>2026-04-12T15:25:49Z</time></trkpt><trkpt lat="40.27294373390249" lon="18.12552297396356"><ele>44.0</ele><time>2026-04-12T15:25:50Z</time></trkpt><trkpt lat="40.27319678990266" lon="18.12563499704322"><ele>43.0</ele><time>2026-04-12T15:25:51Z</time></trkpt><trkpt lat="40.2734475990846" lon="18.125747329890448"><ele>42.5</ele><time>2026-04-12T15:25:52Z</time></trkpt><trkpt lat="40.27369719903778" lon="18.125858072864467"><ele>42.0</ele><time>2026-04-12T15:25:53Z</time></trkpt><trkpt lat="40.273948937259" lon="18.125971746236285"><ele>43.0</ele><time>2026-04-12T15:25:54Z</time></trkpt><trkpt lat="40.27419906700535" lon="18.126082395697676"><ele>44.0</ele><time>2026-04-12T15:25:55Z</time></trkpt><trkpt lat="40.274444876331145" lon="18.12619298515593"><ele>44.0</ele><time>2026-04-12T15:25:56Z</time></trkpt><trkpt lat="40.27469134880236" lon="18.1263000686284"><ele>44.0</ele><time>2026-04-12T15:25:57Z</time></trkpt><trkpt lat="40.27493790754054" lon="18.126406773744556"><ele>46.0</ele><time>2026-04-12T15:25:58Z</time></trkpt><trkpt lat="40.2751854928754" lon="18.126515538738992"><ele>48.0</ele><time>2026-04-12T15:25:59Z</time></trkpt><trkpt lat="40.27543330735626" lon="18.12662428700101"><ele>48.5</ele><time>2026-04-12T15:26:00Z</time></trkpt><trkpt lat="40.27568163713603" lon="18.126733002102714"><ele>49.0</ele><time>2026-04-12T15:26:01Z</time></trkpt><trkpt lat="40.27593059824836" lon="18.12683954712655"><ele>49.0</ele><time>2026-04-12T15:26:02Z</time></trkpt><trkpt lat="40.27618456194182" lon="18.126952079500363"><ele>49.0</ele><time>2026-04-12T15:26:03Z</time></trkpt><trkpt lat="40.27643462086936" lon="18.127069199871208"><ele>51.0</ele><time>2026-04-12T15:26:04Z</time></trkpt><trkpt lat="40.27668526990596" lon="18.127180689710404"><ele>53.0</ele><time>2026-04-12T15:26:05Z</time></trkpt><trkpt lat="40.27693846532246" lon="18.127292731690304"><ele>54.5</ele><time>2026-04-12T15:26:06Z</time></trkpt><trkpt lat="40.27719243835995" lon="18.12740946217345"><ele>56.0</ele><time>2026-04-12T15:26:07Z</time></trkpt><trkpt lat="40.277441363199856" lon="18.127524632910667"><ele>56.0</ele><time>2026-04-12T15:26:08Z</time></trkpt><trkpt lat="40.277692046602155" lon="18.127638817600022"><ele>56.0</ele><time>2026-04-12T15:26:09Z</time></trkpt><trkpt lat="40.27794085612685" lon="18.12774649427122"><ele>52.5</ele><time>2026-04-12T15:26:10Z</time></trkpt><trkpt lat="40.27819262204851" lon="18.127856462434654"><ele>49.0</ele><time>2026-04-12T15:26:11Z</time></trkpt><trkpt lat="40.27844341774083" lon="18.12796408378181"><ele>49.0</ele><time>2026-04-12T15:26:12Z</time></trkpt><trkpt lat="40.278695034299766" lon="18.128069191229528"><ele>49.0</ele><time>2026-04-12T15:26:13Z</time></trkpt><trkpt lat="40.278943120900514" lon="18.128179257903763"><ele>48.5</ele><time>2026-04-12T15:26:14Z</time></trkpt><trkpt lat="40.2791890653674" lon="18.12828742854701"><ele>48.0</ele><time>2026-04-12T15:26:15Z</time></trkpt><trkpt lat="40.27943675042119" lon="18.128401093836818"><ele>48.0</ele><time>2026-04-12T15:26:16Z</time></trkpt><trkpt lat="40.27968376588355" lon="18.128517543872967"><ele>48.0</ele><time>2026-04-12T15:26:17Z</time></trkpt><trkpt lat="40.27993063421855" lon="18.128630758234024"><ele>49.0</ele><time>2026-04-12T15:26:18Z</time></trkpt><trkpt lat="40.28017492906564" lon="18.12874056353607"><ele>50.0</ele><time>2026-04-12T15:26:19Z</time></trkpt><trkpt lat="40.28041725144627" lon="18.12885413704456"><ele>50.0</ele><time>2026-04-12T15:26:20Z</time></trkpt><trkpt lat="40.28065763063559" lon="18.128967124977148"><ele>50.0</ele><time>2026-04-12T15:26:21Z</time></trkpt><trkpt lat="40.28090125988302" lon="18.129077160752203"><ele>50.0</ele><time>2026-04-12T15:26:22Z</time></trkpt><trkpt lat="40.281147506034095" lon="18.129186021658775"><ele>50.0</ele><time>2026-04-12T15:26:23Z</time></trkpt><trkpt lat="40.281387800303285" lon="18.129296102233482"><ele>49.0</ele><time>2026-04-12T15:26:24Z</time></trkpt><trkpt lat="40.28162756567494" lon="18.12940559477045"><ele>48.0</ele><time>2026-04-12T15:26:25Z</time></trkpt><trkpt lat="40.28186696529252" lon="18.129509768583798"><ele>48.0</ele><time>2026-04-12T15:26:26Z</time></trkpt><trkpt lat="40.28210767803653" lon="18.129616214519338"><ele>48.0</ele><time>2026-04-12T15:26:27Z</time></trkpt><trkpt lat="40.28234368832928" lon="18.129722286058968"><ele>47.5</ele><time>2026-04-12T15:26:28Z</time></trkpt><trkpt lat="40.282580538633624" lon="18.12982936196169"><ele>47.0</ele><time>2026-04-12T15:26:29Z</time></trkpt><trkpt lat="40.28282126089026" lon="18.12993878527966"><ele>47.5</ele><time>2026-04-12T15:26:30Z</time></trkpt><trkpt lat="40.28306468398634" lon="18.13005184080139"><ele>48.0</ele><time>2026-04-12T15:26:31Z</time></trkpt><trkpt lat="40.28330673371321" lon="18.130162135600052"><ele>48.0</ele><time>2026-04-12T15:26:32Z</time></trkpt><trkpt lat="40.28354325605769" lon="18.130274799763505"><ele>48.0</ele><time>2026-04-12T15:26:33Z</time></trkpt><trkpt lat="40.28377777394345" lon="18.13038143757573"><ele>47.5</ele><time>2026-04-12T15:26:33.999Z</time></trkpt><trkpt lat="40.28402176830787" lon="18.130502734723716"><ele>47.0</ele><time>2026-04-12T15:26:34.999Z</time></trkpt><trkpt lat="40.28426180127602" lon="18.13061696989893"><ele>47.0</ele><time>2026-04-12T15:26:35.999Z</time></trkpt><trkpt lat="40.28449585669367" lon="18.130718899262963"><ele>47.0</ele><time>2026-04-12T15:26:36.999Z</time></trkpt><trkpt lat="40.28473465101675" lon="18.13082708303592"><ele>48.5</ele><time>2026-04-12T15:26:37.999Z</time></trkpt><trkpt lat="40.28495881865057" lon="18.130923482412356"><ele>50.0</ele><time>2026-04-12T15:26:38.999Z</time></trkpt><trkpt lat="40.28518050856219" lon="18.131016769885107"><ele>50.0</ele><time>2026-04-12T15:26:39.999Z</time></trkpt><trkpt lat="40.285402581421906" lon="18.131110268851003"><ele>50.0</ele><time>2026-04-12T15:26:40.999Z</time></trkpt><trkpt lat="40.28562291113693" lon="18.131205711656037"><ele>49.5</ele><time>2026-04-12T15:26:41.999Z</time></trkpt><trkpt lat="40.285842516218615" lon="18.131300977515906"><ele>49.0</ele><time>2026-04-12T15:26:42.999Z</time></trkpt><trkpt lat="40.28605697370565" lon="18.131393778193374"><ele>49.0</ele><time>2026-04-12T15:26:43.999Z</time></trkpt><trkpt lat="40.28627140109797" lon="18.13148755769072"><ele>49.0</ele><time>2026-04-12T15:26:44.999Z</time></trkpt><trkpt lat="40.28648390654206" lon="18.131582565360947"><ele>49.0</ele><time>2026-04-12T15:26:45.999Z</time></trkpt><trkpt lat="40.28670088129885" lon="18.131681337880558"><ele>49.0</ele><time>2026-04-12T15:26:46.999Z</time></trkpt><trkpt lat="40.28691708727915" lon="18.131780301468606"><ele>49.0</ele><time>2026-04-12T15:26:47.999Z</time></trkpt><trkpt lat="40.28713387436273" lon="18.13187652302489"><ele>49.0</ele><time>2026-04-12T15:26:48.999Z</time></trkpt><trkpt lat="40.287351457221845" lon="18.131972664471295"><ele>48.5</ele><time>2026-04-12T15:26:49.999Z</time></trkpt><trkpt lat="40.28757071351203" lon="18.13206980260345"><ele>48.0</ele><time>2026-04-12T15:26:50.999Z</time></trkpt><trkpt lat="40.287789436538255" lon="18.13216166023672"><ele>48.0</ele><time>2026-04-12T15:26:52.001Z</time></trkpt><trkpt lat="40.288006673614575" lon="18.132255009428675"><ele>48.0</ele><time>2026-04-12T15:26:53.001Z</time></trkpt><trkpt lat="40.28822854252215" lon="18.132353069858247"><ele>48.5</ele><time>2026-04-12T15:26:54.001Z</time></trkpt><trkpt lat="40.288445281453114" lon="18.13245343265148"><ele>49.0</ele><time>2026-04-12T15:26:55.001Z</time></trkpt><trkpt lat="40.28866279570493" lon="18.13255127705612"><ele>49.0</ele><time>2026-04-12T15:26:56.001Z</time></trkpt><trkpt lat="40.288878433556825" lon="18.13264342065997"><ele>49.0</ele><time>2026-04-12T15:26:57.001Z</time></trkpt><trkpt lat="40.28909226642014" lon="18.132739474075027"><ele>50.0</ele><time>2026-04-12T15:26:58.001Z</time></trkpt><trkpt lat="40.289305779461344" lon="18.132829926227522"><ele>51.0</ele><time>2026-04-12T15:26:59Z</time></trkpt><trkpt lat="40.289517642838234" lon="18.132917596784264"><ele>52.0</ele><time>2026-04-12T15:27:00Z</time></trkpt><trkpt lat="40.289725634117694" lon="18.133008636607208"><ele>51.5</ele><time>2026-04-12T15:27:01Z</time></trkpt><trkpt lat="40.2899494059139" lon="18.133071167414023"><ele>51.0</ele><time>2026-04-12T15:27:02.001Z</time></trkpt><trkpt lat="40.290180381409364" lon="18.133118454248116"><ele>51.0</ele><time>2026-04-12T15:27:03.001Z</time></trkpt><trkpt lat="40.290403992550395" lon="18.13316035187701"><ele>51.0</ele><time>2026-04-12T15:27:04.001Z</time></trkpt><trkpt lat="40.29063050001639" lon="18.13319583323376"><ele>51.5</ele><time>2026-04-12T15:27:05.001Z</time></trkpt><trkpt lat="40.29085729293672" lon="18.133211983779855"><ele>52.0</ele><time>2026-04-12T15:27:06.001Z</time></trkpt><trkpt lat="40.291083399165615" lon="18.133208549716578"><ele>52.0</ele><time>2026-04-12T15:27:07.001Z</time></trkpt><trkpt lat="40.2913085144188" lon="18.133186831750823"><ele>52.0</ele><time>2026-04-12T15:27:08.001Z</time></trkpt><trkpt lat="40.291535768992524" lon="18.133148347686937"><ele>51.5</ele><time>2026-04-12T15:27:09.001Z</time></trkpt><trkpt lat="40.29176121592639" lon="18.13309588441082"><ele>51.0</ele><time>2026-04-12T15:27:10.001Z</time></trkpt><trkpt lat="40.291983901834215" lon="18.133038852574593"><ele>51.0</ele><time>2026-04-12T15:27:11.001Z</time></trkpt><trkpt lat="40.292213967729346" lon="18.13299033672071"><ele>51.0</ele><time>2026-04-12T15:27:12.001Z</time></trkpt><trkpt lat="40.292437451540614" lon="18.132933140373225"><ele>50.66666666666667</ele><time>2026-04-12T15:27:13.001Z</time></trkpt><trkpt lat="40.292623749802466" lon="18.132965817369517"><ele>50.333333333333336</ele><time>2026-04-12T15:27:14.001Z</time></trkpt><trkpt lat="40.29281603113648" lon="18.132929106805257"><ele>50.0</ele><time>2026-04-12T15:27:15.001Z</time></trkpt><trkpt lat="40.29300332937752" lon="18.132896928484904"><ele>49.333333333333336</ele><time>2026-04-12T15:27:16.001Z</time></trkpt><trkpt lat="40.29319770945566" lon="18.132865002504566"><ele>48.66666666666667</ele><time>2026-04-12T15:27:17.001Z</time></trkpt><trkpt lat="40.293399495494114" lon="18.132827038519295"><ele>48.0</ele><time>2026-04-12T15:27:18.001Z</time></trkpt><trkpt lat="40.293600612734195" lon="18.13278645001463"><ele>48.0</ele><time>2026-04-12T15:27:19.001Z</time></trkpt><trkpt lat="40.293813532200794" lon="18.13274338873565"><ele>48.0</ele><time>2026-04-12T15:27:20.001Z</time></trkpt><trkpt lat="40.29403556042095" lon="18.132697666487527"><ele>48.0</ele><time>2026-04-12T15:27:21.001Z</time></trkpt><trkpt lat="40.29426626492427" lon="18.13265330519654"><ele>46.5</ele><time>2026-04-12T15:27:22.001Z</time></trkpt><trkpt lat="40.29450697109005" lon="18.132606014253493"><ele>45.0</ele><time>2026-04-12T15:27:23.001Z</time></trkpt><trkpt lat="40.294761217876236" lon="18.132555478851014"><ele>44.0</ele><time>2026-04-12T15:27:24.001Z</time></trkpt><trkpt lat="40.295021135371826" lon="18.1324967836898"><ele>43.0</ele><time>2026-04-12T15:27:25.001Z</time></trkpt><trkpt lat="40.29529040840441" lon="18.132442734207455"><ele>43.0</ele><time>2026-04-12T15:27:26.001Z</time></trkpt><trkpt lat="40.29555871546834" lon="18.13239610656295"><ele>43.0</ele><time>2026-04-12T15:27:27.001Z</time></trkpt><trkpt lat="40.29582848622922" lon="18.132349984153073"><ele>43.5</ele><time>2026-04-12T15:27:28.001Z</time></trkpt><trkpt lat="40.296099212826775" lon="18.132302947631953"><ele>44.0</ele><time>2026-04-12T15:27:29.001Z</time></trkpt><trkpt lat="40.29636908897565" lon="18.132256600650937"><ele>44.0</ele><time>2026-04-12T15:27:30.001Z</time></trkpt><trkpt lat="40.29664086479878" lon="18.132214148445723"><ele>44.0</ele><time>2026-04-12T15:27:31.001Z</time></trkpt><trkpt lat="40.29691357746909" lon="18.132178140620603"><ele>44.0</ele><time>2026-04-12T15:27:32.001Z</time></trkpt><trkpt lat="40.29718596628517" lon="18.132152598114235"><ele>44.0</ele><time>2026-04-12T15:27:33.001Z</time></trkpt><trkpt lat="40.297460544482504" lon="18.13214308832428"><ele>43.0</ele><time>2026-04-12T15:27:34.001Z</time></trkpt><trkpt lat="40.2977369043528" lon="18.13215003983478"><ele>42.0</ele><time>2026-04-12T15:27:35.001Z</time></trkpt><trkpt lat="40.298013140829035" lon="18.13216923343832"><ele>42.0</ele><time>2026-04-12T15:27:36.001Z</time></trkpt><trkpt lat="40.298303850552756" lon="18.13222898762637"><ele>42.0</ele><time>2026-04-12T15:27:37.001Z</time></trkpt><trkpt lat="40.2985711959478" lon="18.13227146254047"><ele>42.0</ele><time>2026-04-12T15:27:38.001Z</time></trkpt><trkpt lat="40.29883902270224" lon="18.13232492463779"><ele>42.0</ele><time>2026-04-12T15:27:39.001Z</time></trkpt><trkpt lat="40.29910686837567" lon="18.132378995324846"><ele>42.0</ele><time>2026-04-12T15:27:40.001Z</time></trkpt><trkpt lat="40.29937228254629" lon="18.13245380933837"><ele>42.0</ele><time>2026-04-12T15:27:41.001Z</time></trkpt><trkpt lat="40.29961170863538" lon="18.132551049951644"><ele>40.5</ele><time>2026-04-12T15:27:42.001Z</time></trkpt><trkpt lat="40.299851601727426" lon="18.13263846057136"><ele>39.0</ele><time>2026-04-12T15:27:43.001Z</time></trkpt><trkpt lat="40.30008062331818" lon="18.132732807933653"><ele>39.0</ele><time>2026-04-12T15:27:44.001Z</time></trkpt><trkpt lat="40.30031275905561" lon="18.13281862439193"><ele>39.0</ele><time>2026-04-12T15:27:45.001Z</time></trkpt><trkpt lat="40.30053529146392" lon="18.13292107433585"><ele>38.0</ele><time>2026-04-12T15:27:46.001Z</time></trkpt><trkpt lat="40.30075123843498" lon="18.13302418052867"><ele>37.0</ele><time>2026-04-12T15:27:47.001Z</time></trkpt><trkpt lat="40.30096782627331" lon="18.133127377662966"><ele>37.66666666666667</ele><time>2026-04-12T15:27:48.001Z</time></trkpt><trkpt lat="40.3011735787086" lon="18.13322287695362"><ele>38.333333333333336</ele><time>2026-04-12T15:27:49.001Z</time></trkpt><trkpt lat="40.30137882943084" lon="18.133304924031197"><ele>39.0</ele><time>2026-04-12T15:27:50.001Z</time></trkpt><trkpt lat="40.301581949727186" lon="18.133398250520287"><ele>39.333333333333336</ele><time>2026-04-12T15:27:51.001Z</time></trkpt><trkpt lat="40.30178651896396" lon="18.133483875708766"><ele>39.66666666666667</ele><time>2026-04-12T15:27:52.001Z</time></trkpt><trkpt lat="40.301984138638595" lon="18.133573652579322"><ele>40.0</ele><time>2026-04-12T15:27:53.001Z</time></trkpt><trkpt lat="40.30218852572608" lon="18.133664678387905"><ele>40.333333333333336</ele><time>2026-04-12T15:27:54.001Z</time></trkpt><trkpt lat="40.302399508334645" lon="18.13373130408369"><ele>40.666666666666664</ele><time>2026-04-12T15:27:55.001Z</time></trkpt><trkpt lat="40.302602308709126" lon="18.133822148659842"><ele>41.0</ele><time>2026-04-12T15:27:56.001Z</time></trkpt><trkpt lat="40.302769910469124" lon="18.133940479258985"><ele>41.0</ele><time>2026-04-12T15:27:57.001Z</time></trkpt><trkpt lat="40.302950263541945" lon="18.13402830761581"><ele>41.0</ele><time>2026-04-12T15:27:58.001Z</time></trkpt><trkpt lat="40.303138199019855" lon="18.134109329331157"><ele>41.0</ele><time>2026-04-12T15:27:59.001Z</time></trkpt><trkpt lat="40.30333129843339" lon="18.134186825281944"><ele>41.0</ele><time>2026-04-12T15:28:00.001Z</time></trkpt><trkpt lat="40.303532909904106" lon="18.134275276105058"><ele>41.0</ele><time>2026-04-12T15:28:01.001Z</time></trkpt><trkpt lat="40.30372709436763" lon="18.134359436917258"><ele>41.0</ele><time>2026-04-12T15:28:02.001Z</time></trkpt><trkpt lat="40.30392498373973" lon="18.13444648406975"><ele>41.0</ele><time>2026-04-12T15:28:03.001Z</time></trkpt><trkpt lat="40.30411194992733" lon="18.134531628838733"><ele>41.0</ele><time>2026-04-12T15:28:04.001Z</time></trkpt><trkpt lat="40.30428847488197" lon="18.134611486456404"><ele>41.0</ele><time>2026-04-12T15:28:05.001Z</time></trkpt><trkpt lat="40.30445436274692" lon="18.134676617084843"><ele>41.0</ele><time>2026-04-12T15:28:06.001Z</time></trkpt><trkpt lat="40.3046187834949" lon="18.134727326253476"><ele>41.0</ele><time>2026-04-12T15:28:07.001Z</time></trkpt><trkpt lat="40.30478116488472" lon="18.13478146554022"><ele>41.0</ele><time>2026-04-12T15:28:08.001Z</time></trkpt><trkpt lat="40.30494704480039" lon="18.134834427926535"><ele>40.666666666666664</ele><time>2026-04-12T15:28:09.001Z</time></trkpt><trkpt lat="40.305114024725285" lon="18.1348895710485"><ele>40.333333333333336</ele><time>2026-04-12T15:28:10.001Z</time></trkpt><trkpt lat="40.30527766554524" lon="18.13494467415413"><ele>40.0</ele><time>2026-04-12T15:28:11.001Z</time></trkpt><trkpt lat="40.305443880369886" lon="18.134998325545236"><ele>40.333333333333336</ele><time>2026-04-12T15:28:12.001Z</time></trkpt><trkpt lat="40.305622369219016" lon="18.135051156671267"><ele>40.666666666666664</ele><time>2026-04-12T15:28:13.001Z</time></trkpt><trkpt lat="40.30582229204592" lon="18.135110860597024"><ele>41.0</ele><time>2026-04-12T15:28:14.001Z</time></trkpt><trkpt lat="40.30603901834759" lon="18.13517660818528"><ele>41.0</ele><time>2026-04-12T15:28:15.001Z</time></trkpt><trkpt lat="40.306273309653655" lon="18.135249612766703"><ele>41.0</ele><time>2026-04-12T15:28:16.001Z</time></trkpt><trkpt lat="40.30651830477819" lon="18.13533327677974"><ele>41.0</ele><time>2026-04-12T15:28:17.001Z</time></trkpt><trkpt lat="40.30676043060292" lon="18.13541685068799"><ele>41.0</ele><time>2026-04-12T15:28:18.001Z</time></trkpt><trkpt lat="40.307003170996715" lon="18.135505350363427"><ele>41.0</ele><time>2026-04-12T15:28:19.001Z</time></trkpt><trkpt lat="40.307240557731696" lon="18.135591459706053"><ele>41.0</ele><time>2026-04-12T15:28:20.001Z</time></trkpt><trkpt lat="40.30746945236202" lon="18.135676937624762"><ele>39.666666666666664</ele><time>2026-04-12T15:28:21.001Z</time></trkpt><trkpt lat="40.307691497049206" lon="18.135764447426897"><ele>38.333333333333336</ele><time>2026-04-12T15:28:22.001Z</time></trkpt><trkpt lat="40.3078997704553" lon="18.135846389669133"><ele>37.0</ele><time>2026-04-12T15:28:23Z</time></trkpt><trkpt lat="40.30810692327268" lon="18.13592754880429"><ele>36.66666666666667</ele><time>2026-04-12T15:28:24Z</time></trkpt><trkpt lat="40.308315418904606" lon="18.136002810877734"><ele>36.333333333333336</ele><time>2026-04-12T15:28:25Z</time></trkpt><trkpt lat="40.308525316424394" lon="18.136076587602975"><ele>36.0</ele><time>2026-04-12T15:28:26Z</time></trkpt><trkpt lat="40.3087346192987" lon="18.136151220105123"><ele>36.0</ele><time>2026-04-12T15:28:27Z</time></trkpt><trkpt lat="40.30894962771166" lon="18.136228218227636"><ele>36.0</ele><time>2026-04-12T15:28:28Z</time></trkpt><trkpt lat="40.30916208208105" lon="18.136302656258987"><ele>36.0</ele><time>2026-04-12T15:28:29Z</time></trkpt><trkpt lat="40.30937086031085" lon="18.13637695663988"><ele>36.0</ele><time>2026-04-12T15:28:30Z</time></trkpt><trkpt lat="40.30957661345217" lon="18.13644777309639"><ele>36.0</ele><time>2026-04-12T15:28:31Z</time></trkpt><trkpt lat="40.309773249985554" lon="18.13651801742628"><ele>36.0</ele><time>2026-04-12T15:28:32Z</time></trkpt><trkpt lat="40.3099554517784" lon="18.13658014995316"><ele>35.666666666666664</ele><time>2026-04-12T15:28:33Z</time></trkpt><trkpt lat="40.31013792926242" lon="18.13664038910298"><ele>35.33333333333333</ele><time>2026-04-12T15:28:34Z</time></trkpt><trkpt lat="40.31032659209793" lon="18.13670314585711"><ele>35.0</ele><time>2026-04-12T15:28:35Z</time></trkpt><trkpt lat="40.31051905598716" lon="18.13677243801735"><ele>35.33333333333333</ele><time>2026-04-12T15:28:36Z</time></trkpt><trkpt lat="40.31071202674622" lon="18.13684197975538"><ele>35.666666666666664</ele><time>2026-04-12T15:28:37Z</time></trkpt><trkpt lat="40.31090601396329" lon="18.136909155605654"><ele>36.0</ele><time>2026-04-12T15:28:38Z</time></trkpt><trkpt lat="40.31110313605911" lon="18.136981423759707"><ele>36.0</ele><time>2026-04-12T15:28:39Z</time></trkpt><trkpt lat="40.31130568380867" lon="18.137053237549424"><ele>36.0</ele><time>2026-04-12T15:28:40Z</time></trkpt><trkpt lat="40.311501989426105" lon="18.137124291535642"><ele>36.0</ele><time>2026-04-12T15:28:41Z</time></trkpt><trkpt lat="40.31170786733232" lon="18.137193585406905"><ele>36.0</ele><time>2026-04-12T15:28:42Z</time></trkpt><trkpt lat="40.31191322645933" lon="18.13725562259715"><ele>36.0</ele><time>2026-04-12T15:28:43Z</time></trkpt><trkpt lat="40.31211302014594" lon="18.13734336973816"><ele>36.0</ele><time>2026-04-12T15:28:44Z</time></trkpt><trkpt lat="40.3123160304015" lon="18.13744068526136"><ele>36.0</ele><time>2026-04-12T15:28:45Z</time></trkpt><trkpt lat="40.31251500555618" lon="18.137563480790654"><ele>36.0</ele><time>2026-04-12T15:28:46Z</time></trkpt><trkpt lat="40.312708072615195" lon="18.137703545472966"><ele>36.0</ele><time>2026-04-12T15:28:47Z</time></trkpt><trkpt lat="40.31289867010545" lon="18.13785455584475"><ele>35.666666666666664</ele><time>2026-04-12T15:28:48Z</time></trkpt><trkpt lat="40.31308342925605" lon="18.13801503885826"><ele>35.33333333333333</ele><time>2026-04-12T15:28:49Z</time></trkpt><trkpt lat="40.313262519223166" lon="18.13819090806912"><ele>35.0</ele><time>2026-04-12T15:28:50Z</time></trkpt><trkpt lat="40.313431426380646" lon="18.13838601717804"><ele>35.0</ele><time>2026-04-12T15:28:51Z</time></trkpt><trkpt lat="40.31359339010833" lon="18.13860037196101"><ele>35.0</ele><time>2026-04-12T15:28:52Z</time></trkpt><trkpt lat="40.3137449261757" lon="18.138823937417186"><ele>35.0</ele><time>2026-04-12T15:28:53Z</time></trkpt><trkpt lat="40.313890427687" lon="18.139052510014533"><ele>35.0</ele><time>2026-04-12T15:28:54Z</time></trkpt><trkpt lat="40.31402688820353" lon="18.13929703236598"><ele>35.5</ele><time>2026-04-12T15:28:55Z</time></trkpt><trkpt lat="40.3141503061989" lon="18.13955186013455"><ele>36.0</ele><time>2026-04-12T15:28:56Z</time></trkpt><trkpt lat="40.314266150941265" lon="18.139817333172832"><ele>36.0</ele><time>2026-04-12T15:28:57Z</time></trkpt><trkpt lat="40.31438015022148" lon="18.140076900242306"><ele>36.0</ele><time>2026-04-12T15:28:58Z</time></trkpt><trkpt lat="40.31450239753981" lon="18.140329989897715"><ele>36.0</ele><time>2026-04-12T15:28:59.001Z</time></trkpt><trkpt lat="40.31461538635133" lon="18.140572617814797"><ele>36.0</ele><time>2026-04-12T15:29:00.001Z</time></trkpt><trkpt lat="40.314724405977096" lon="18.140807133226268"><ele>36.0</ele><time>2026-04-12T15:29:01Z</time></trkpt><trkpt lat="40.31483281715687" lon="18.14104547358963"><ele>35.666666666666664</ele><time>2026-04-12T15:29:02Z</time></trkpt><trkpt lat="40.314942036561646" lon="18.141287210377364"><ele>35.33333333333333</ele><time>2026-04-12T15:29:03Z</time></trkpt><trkpt lat="40.31505426229457" lon="18.141532053176654"><ele>35.0</ele><time>2026-04-12T15:29:04.001Z</time></trkpt><trkpt lat="40.31516214719637" lon="18.14177037080795"><ele>35.0</ele><time>2026-04-12T15:29:05.001Z</time></trkpt><trkpt lat="40.31526781001195" lon="18.141995959098843"><ele>35.0</ele><time>2026-04-12T15:29:06.001Z</time></trkpt><trkpt lat="40.3153698772952" lon="18.14221958037201"><ele>35.0</ele><time>2026-04-12T15:29:07Z</time></trkpt><trkpt lat="40.31547207350072" lon="18.14243987842532"><ele>35.33333333333333</ele><time>2026-04-12T15:29:08Z</time></trkpt><trkpt lat="40.315572586847125" lon="18.14266266515666"><ele>35.666666666666664</ele><time>2026-04-12T15:29:09Z</time></trkpt><trkpt lat="40.31567140218932" lon="18.142878642343202"><ele>36.0</ele><time>2026-04-12T15:29:10.001Z</time></trkpt><trkpt lat="40.31576594993736" lon="18.14308630850771"><ele>35.333333333333336</ele><time>2026-04-12T15:29:11.001Z</time></trkpt><trkpt lat="40.31586445057801" lon="18.143301112193715"><ele>34.66666666666667</ele><time>2026-04-12T15:29:12.001Z</time></trkpt><trkpt lat="40.315964967074606" lon="18.143500127702087"><ele>34.0</ele><time>2026-04-12T15:29:13.001Z</time></trkpt><trkpt lat="40.3160623790548" lon="18.14370039000855"><ele>34.0</ele><time>2026-04-12T15:29:14.001Z</time></trkpt><trkpt lat="40.316162555448926" lon="18.143901620922602"><ele>34.0</ele><time>2026-04-12T15:29:15.001Z</time></trkpt><trkpt lat="40.31626461006426" lon="18.144087747474043"><ele>34.0</ele><time>2026-04-12T15:29:16.001Z</time></trkpt><trkpt lat="40.31637423148278" lon="18.144267176486757"><ele>33.333333333333336</ele><time>2026-04-12T15:29:17.001Z</time></trkpt><trkpt lat="40.31649011743711" lon="18.14443201258819"><ele>32.666666666666664</ele><time>2026-04-12T15:29:18.001Z</time></trkpt><trkpt lat="40.31660533740826" lon="18.144593691836526"><ele>32.0</ele><time>2026-04-12T15:29:19.001Z</time></trkpt><trkpt lat="40.31673129246991" lon="18.14475731086516"><ele>31.666666666666664</ele><time>2026-04-12T15:29:20.001Z</time></trkpt><trkpt lat="40.31686884054222" lon="18.14492024697689"><ele>31.333333333333336</ele><time>2026-04-12T15:29:21.001Z</time></trkpt><trkpt lat="40.31700793676266" lon="18.14507031495978"><ele>31.0</ele><time>2026-04-12T15:29:22Z</time></trkpt><trkpt lat="40.317144765345645" lon="18.14520266723131"><ele>30.666666666666668</ele><time>2026-04-12T15:29:23Z</time></trkpt><trkpt lat="40.317284941721766" lon="18.145321955987278"><ele>30.333333333333336</ele><time>2026-04-12T15:29:24Z</time></trkpt><trkpt lat="40.31742064243961" lon="18.145436353518615"><ele>30.0</ele><time>2026-04-12T15:29:25Z</time></trkpt><trkpt lat="40.31755948046816" lon="18.145546132822233"><ele>30.0</ele><time>2026-04-12T15:29:26Z</time></trkpt><trkpt lat="40.317701340925076" lon="18.14564794117839"><ele>30.0</ele><time>2026-04-12T15:29:27Z</time></trkpt><trkpt lat="40.31785219722482" lon="18.145739560694903"><ele>30.0</ele><time>2026-04-12T15:29:28Z</time></trkpt><trkpt lat="40.318009932836546" lon="18.14582599072923"><ele>27.666666666666668</ele><time>2026-04-12T15:29:29Z</time></trkpt><trkpt lat="40.31815398294277" lon="18.145903275489466"><ele>25.333333333333336</ele><time>2026-04-12T15:29:30Z</time></trkpt><trkpt lat="40.3182986651278" lon="18.14597866177956"><ele>23.0</ele><time>2026-04-12T15:29:31Z</time></trkpt><trkpt lat="40.31845165396618" lon="18.146055547510315"><ele>23.0</ele><time>2026-04-12T15:29:32Z</time></trkpt><trkpt lat="40.318610786919045" lon="18.146145427010577"><ele>23.0</ele><time>2026-04-12T15:29:33Z</time></trkpt><trkpt lat="40.31877956236104" lon="18.146227717241313"><ele>23.0</ele><time>2026-04-12T15:29:34Z</time></trkpt><trkpt lat="40.31896667029872" lon="18.146308064601506"><ele>22.5</ele><time>2026-04-12T15:29:35Z</time></trkpt><trkpt lat="40.31917982782294" lon="18.146401765826816"><ele>22.0</ele><time>2026-04-12T15:29:36Z</time></trkpt><trkpt lat="40.31941762156959" lon="18.146503977217737"><ele>22.5</ele><time>2026-04-12T15:29:37Z</time></trkpt><trkpt lat="40.319663275030365" lon="18.146628320659772"><ele>23.0</ele><time>2026-04-12T15:29:38Z</time></trkpt><trkpt lat="40.31991707337726" lon="18.146765546292325"><ele>23.0</ele><time>2026-04-12T15:29:39Z</time></trkpt><trkpt lat="40.32016213349012" lon="18.14689774282786"><ele>23.0</ele><time>2026-04-12T15:29:40Z</time></trkpt><trkpt lat="40.32039455369739" lon="18.147010968570203"><ele>22.5</ele><time>2026-04-12T15:29:41Z</time></trkpt><trkpt lat="40.32063068239512" lon="18.14712875138618"><ele>22.0</ele><time>2026-04-12T15:29:42Z</time></trkpt><trkpt lat="40.32086318359843" lon="18.14724789388581"><ele>22.0</ele><time>2026-04-12T15:29:43Z</time></trkpt><trkpt lat="40.32109512177958" lon="18.14737126517004"><ele>22.0</ele><time>2026-04-12T15:29:44Z</time></trkpt><trkpt lat="40.3213231043879" lon="18.147495080746737"><ele>23.0</ele><time>2026-04-12T15:29:45Z</time></trkpt><trkpt lat="40.321550578902546" lon="18.147613652404313"><ele>24.0</ele><time>2026-04-12T15:29:46Z</time></trkpt><trkpt lat="40.32177693150994" lon="18.147736417903857"><ele>24.0</ele><time>2026-04-12T15:29:47Z</time></trkpt><trkpt lat="40.32199825926096" lon="18.147852806211958"><ele>24.0</ele><time>2026-04-12T15:29:48Z</time></trkpt><trkpt lat="40.322209718910436" lon="18.147967829605168"><ele>24.0</ele><time>2026-04-12T15:29:49Z</time></trkpt><trkpt lat="40.32241922263004" lon="18.14808011824037"><ele>24.0</ele><time>2026-04-12T15:29:50Z</time></trkpt><trkpt lat="40.322622615391346" lon="18.148192363580776"><ele>24.0</ele><time>2026-04-12T15:29:51Z</time></trkpt><trkpt lat="40.32282469446517" lon="18.148300408688467"><ele>24.0</ele><time>2026-04-12T15:29:52Z</time></trkpt><trkpt lat="40.32302795775016" lon="18.148403905981898"><ele>24.0</ele><time>2026-04-12T15:29:53Z</time></trkpt><trkpt lat="40.32323709539117" lon="18.148514860370234"><ele>24.0</ele><time>2026-04-12T15:29:54Z</time></trkpt><trkpt lat="40.32344312587721" lon="18.148621604211435"><ele>24.666666666666664</ele><time>2026-04-12T15:29:55Z</time></trkpt><trkpt lat="40.32364847693667" lon="18.14873118118507"><ele>25.333333333333332</ele><time>2026-04-12T15:29:56Z</time></trkpt><trkpt lat="40.32385329271422" lon="18.14883992119236"><ele>26.0</ele><time>2026-04-12T15:29:57Z</time></trkpt><trkpt lat="40.324058213935466" lon="18.148947196873827"><ele>26.333333333333332</ele><time>2026-04-12T15:29:58Z</time></trkpt><trkpt lat="40.32426542740118" lon="18.149056395116794"><ele>26.666666666666664</ele><time>2026-04-12T15:29:59Z</time></trkpt><trkpt lat="40.32446933059895" lon="18.14916455206978"><ele>27.0</ele><time>2026-04-12T15:30:00Z</time></trkpt><trkpt lat="40.32467435560312" lon="18.149273021238983"><ele>28.666666666666664</ele><time>2026-04-12T15:30:01Z</time></trkpt><trkpt lat="40.3248777791438" lon="18.149383889079566"><ele>30.333333333333332</ele><time>2026-04-12T15:30:02Z</time></trkpt><trkpt lat="40.32507906381169" lon="18.14949368363379"><ele>32.0</ele><time>2026-04-12T15:30:03Z</time></trkpt><trkpt lat="40.32528489864741" lon="18.14960311720134"><ele>32.0</ele><time>2026-04-12T15:30:04Z</time></trkpt><trkpt lat="40.32549393232996" lon="18.149712221376802"><ele>32.0</ele><time>2026-04-12T15:30:05Z</time></trkpt><trkpt lat="40.32570364451884" lon="18.14982289790514"><ele>30.5</ele><time>2026-04-12T15:30:06Z</time></trkpt><trkpt lat="40.32591274649268" lon="18.149935678674538"><ele>29.0</ele><time>2026-04-12T15:30:07Z</time></trkpt><trkpt lat="40.32612282463799" lon="18.150049666998196"><ele>29.0</ele><time>2026-04-12T15:30:08Z</time></trkpt><trkpt lat="40.326330149328676" lon="18.150157701176518"><ele>29.0</ele><time>2026-04-12T15:30:09Z</time></trkpt><trkpt lat="40.32653863922791" lon="18.150264330277647"><ele>29.0</ele><time>2026-04-12T15:30:10Z</time></trkpt><trkpt lat="40.32674423973319" lon="18.150369643803252"><ele>29.0</ele><time>2026-04-12T15:30:11Z</time></trkpt><trkpt lat="40.32694654059407" lon="18.150477946513764"><ele>29.0</ele><time>2026-04-12T15:30:12Z</time></trkpt><trkpt lat="40.32714181322905" lon="18.15058582235923"><ele>29.0</ele><time>2026-04-12T15:30:13Z</time></trkpt><trkpt lat="40.327339148858414" lon="18.150693978326736"><ele>29.666666666666664</ele><time>2026-04-12T15:30:14Z</time></trkpt><trkpt lat="40.32753732163283" lon="18.150800468135376"><ele>30.333333333333336</ele><time>2026-04-12T15:30:15Z</time></trkpt><trkpt lat="40.32773503433877" lon="18.150906288963025"><ele>31.0</ele><time>2026-04-12T15:30:16Z</time></trkpt><trkpt lat="40.32793089657696" lon="18.151010133266325"><ele>31.666666666666668</ele><time>2026-04-12T15:30:17Z</time></trkpt><trkpt lat="40.32812554727524" lon="18.151108752670552"><ele>32.333333333333336</ele><time>2026-04-12T15:30:18Z</time></trkpt><trkpt lat="40.32831658790352" lon="18.15123198297557"><ele>33.0</ele><time>2026-04-12T15:30:19Z</time></trkpt><trkpt lat="40.328512204701525" lon="18.1513689189254"><ele>34.0</ele><time>2026-04-12T15:30:20Z</time></trkpt><trkpt lat="40.328728459270536" lon="18.151542205028125"><ele>35.0</ele><time>2026-04-12T15:30:21Z</time></trkpt><trkpt lat="40.32892487034536" lon="18.151778042487607"><ele>35.0</ele><time>2026-04-12T15:30:22Z</time></trkpt><trkpt lat="40.32913753079401" lon="18.152046853038073"><ele>35.0</ele><time>2026-04-12T15:30:23Z</time></trkpt><trkpt lat="40.329301996502814" lon="18.151740534982924"><ele>35.0</ele><time>2026-04-12T15:30:24Z</time></trkpt><trkpt lat="40.32949991978854" lon="18.151847990454822"><ele>35.0</ele><time>2026-04-12T15:30:25Z</time></trkpt><trkpt lat="40.32969889464273" lon="18.151956947665404"><ele>35.0</ele><time>2026-04-12T15:30:26Z</time></trkpt><trkpt lat="40.32989858264049" lon="18.152061801007005"><ele>35.0</ele><time>2026-04-12T15:30:27Z</time></trkpt><trkpt lat="40.3300924197344" lon="18.152163011182463"><ele>35.0</ele><time>2026-04-12T15:30:28Z</time></trkpt><trkpt lat="40.330281815029736" lon="18.152263950504107"><ele>35.0</ele><time>2026-04-12T15:30:29Z</time></trkpt><trkpt lat="40.33046684812403" lon="18.152353836889144"><ele>36.666666666666664</ele><time>2026-04-12T15:30:30Z</time></trkpt><trkpt lat="40.33066105209683" lon="18.152449110910414"><ele>38.333333333333336</ele><time>2026-04-12T15:30:31Z</time></trkpt><trkpt lat="40.33085948395183" lon="18.152551633674882"><ele>40.0</ele><time>2026-04-12T15:30:32Z</time></trkpt><trkpt lat="40.33107181461918" lon="18.152664293565188"><ele>40.0</ele><time>2026-04-12T15:30:33Z</time></trkpt><trkpt lat="40.33129351209956" lon="18.152777547028176"><ele>40.0</ele><time>2026-04-12T15:30:34Z</time></trkpt><trkpt lat="40.33152601904422" lon="18.152901263134805"><ele>41.5</ele><time>2026-04-12T15:30:35Z</time></trkpt><trkpt lat="40.33176820677589" lon="18.15302652257203"><ele>43.0</ele><time>2026-04-12T15:30:36Z</time></trkpt><trkpt lat="40.33200576683429" lon="18.153155470740796"><ele>43.0</ele><time>2026-04-12T15:30:37Z</time></trkpt><trkpt lat="40.332219690470225" lon="18.153276916757637"><ele>43.0</ele><time>2026-04-12T15:30:38Z</time></trkpt><trkpt lat="40.33241663033401" lon="18.153394019722583"><ele>43.0</ele><time>2026-04-12T15:30:39Z</time></trkpt><trkpt lat="40.33260514179295" lon="18.153501704767454"><ele>44.333333333333336</ele><time>2026-04-12T15:30:40Z</time></trkpt><trkpt lat="40.33278182203778" lon="18.153596599733113"><ele>45.666666666666664</ele><time>2026-04-12T15:30:41Z</time></trkpt><trkpt lat="40.33294337087793" lon="18.15368559719167"><ele>47.0</ele><time>2026-04-12T15:30:42Z</time></trkpt><trkpt lat="40.33309723175512" lon="18.153766940978663"><ele>47.0</ele><time>2026-04-12T15:30:43Z</time></trkpt><trkpt lat="40.33324201754976" lon="18.153843508756328"><ele>47.0</ele><time>2026-04-12T15:30:44Z</time></trkpt><trkpt lat="40.33339312243318" lon="18.153925226019734"><ele>47.0</ele><time>2026-04-12T15:30:45Z</time></trkpt><trkpt lat="40.33354539289465" lon="18.154008286307644"><ele>47.33333333333333</ele><time>2026-04-12T15:30:46Z</time></trkpt><trkpt lat="40.33369840870183" lon="18.15408989743566"><ele>47.666666666666664</ele><time>2026-04-12T15:30:47Z</time></trkpt><trkpt lat="40.333859084903494" lon="18.154183897056935"><ele>48.0</ele><time>2026-04-12T15:30:48Z</time></trkpt><trkpt lat="40.33401748017036" lon="18.154276885249192"><ele>48.0</ele><time>2026-04-12T15:30:49Z</time></trkpt><trkpt lat="40.33416805192309" lon="18.15435375682079"><ele>48.0</ele><time>2026-04-12T15:30:50Z</time></trkpt><trkpt lat="40.33432199378013" lon="18.154427588019253"><ele>48.0</ele><time>2026-04-12T15:30:51Z</time></trkpt><trkpt lat="40.33445642879909" lon="18.15450445178373"><ele>48.0</ele><time>2026-04-12T15:30:52Z</time></trkpt><trkpt lat="40.33459364508881" lon="18.15458119361428"><ele>48.0</ele><time>2026-04-12T15:30:53Z</time></trkpt><trkpt lat="40.33473354877238" lon="18.15466068552718"><ele>48.0</ele><time>2026-04-12T15:30:54Z</time></trkpt><trkpt lat="40.33487417591161" lon="18.154736881488066"><ele>48.25</ele><time>2026-04-12T15:30:55Z</time></trkpt><trkpt lat="40.33500536251163" lon="18.154807514198986"><ele>48.5</ele><time>2026-04-12T15:30:56Z</time></trkpt><trkpt lat="40.33512753790882" lon="18.15487122812244"><ele>48.75</ele><time>2026-04-12T15:30:57Z</time></trkpt><trkpt lat="40.335248708716634" lon="18.154937292209826"><ele>49.0</ele><time>2026-04-12T15:30:58Z</time></trkpt><trkpt lat="40.335372296746584" lon="18.155007320106073"><ele>49.0</ele><time>2026-04-12T15:30:59Z</time></trkpt><trkpt lat="40.33550272967452" lon="18.155073321604082"><ele>49.0</ele><time>2026-04-12T15:31:00Z</time></trkpt><trkpt lat="40.33562269577005" lon="18.15512939986486"><ele>49.0</ele><time>2026-04-12T15:31:01Z</time></trkpt><trkpt lat="40.335735171783654" lon="18.155185352090243"><ele>49.0</ele><time>2026-04-12T15:31:02Z</time></trkpt><trkpt lat="40.33584307718827" lon="18.155245524496"><ele>49.2</ele><time>2026-04-12T15:31:03Z</time></trkpt><trkpt lat="40.3359533263388" lon="18.15530102292683"><ele>49.400000000000006</ele><time>2026-04-12T15:31:04Z</time></trkpt><trkpt lat="40.33605621553824" lon="18.155363022662943"><ele>49.6</ele><time>2026-04-12T15:31:05Z</time></trkpt><trkpt lat="40.33615785170486" lon="18.155414434855288"><ele>49.8</ele><time>2026-04-12T15:31:06Z</time></trkpt><trkpt lat="40.33625310090257" lon="18.155460926800497"><ele>50.0</ele><time>2026-04-12T15:31:07.001Z</time></trkpt><trkpt lat="40.33634777416466" lon="18.15550716084366"><ele>49.2</ele><time>2026-04-12T15:31:08Z</time></trkpt><trkpt lat="40.33643423707797" lon="18.155556862150707"><ele>48.4</ele><time>2026-04-12T15:31:09Z</time></trkpt><trkpt lat="40.336512275300926" lon="18.155601319575915"><ele>47.599999999999994</ele><time>2026-04-12T15:31:10Z</time></trkpt><trkpt lat="40.336598383665574" lon="18.15564922853096"><ele>46.8</ele><time>2026-04-12T15:31:11Z</time></trkpt><trkpt lat="40.33668873865341" lon="18.15569784790975"><ele>46.0</ele><time>2026-04-12T15:31:12Z</time></trkpt><trkpt lat="40.336777027183544" lon="18.155756497228282"><ele>46.0</ele><time>2026-04-12T15:31:13.001Z</time></trkpt><trkpt lat="40.33687305763993" lon="18.15580829326455"><ele>46.0</ele><time>2026-04-12T15:31:14.001Z</time></trkpt><trkpt lat="40.33696401380383" lon="18.155846987594902"><ele>46.0</ele><time>2026-04-12T15:31:15.001Z</time></trkpt><trkpt lat="40.337042628886" lon="18.155906574337592"><ele>46.0</ele><time>2026-04-12T15:31:17Z</time></trkpt><trkpt lat="40.33713065451078" lon="18.155947122847806"><ele>46.0</ele><time>2026-04-12T15:31:19Z</time></trkpt><trkpt lat="40.33724740245326" lon="18.156014070491466"><ele>45.833333333333336</ele><time>2026-04-12T15:31:21Z</time></trkpt><trkpt lat="40.3373329371486" lon="18.1560527435103"><ele>45.66666666666667</ele><time>2026-04-12T15:31:22Z</time></trkpt><trkpt lat="40.33741523286402" lon="18.156085920463372"><ele>45.5</ele><time>2026-04-12T15:31:23Z</time></trkpt><trkpt lat="40.33748497896949" lon="18.156125096674803"><ele>45.333333333333336</ele><time>2026-04-12T15:31:24Z</time></trkpt><trkpt lat="40.337555111259306" lon="18.15617507370412"><ele>45.166666666666664</ele><time>2026-04-12T15:31:25Z</time></trkpt><trkpt lat="40.337641399599164" lon="18.15622712946758"><ele>45.0</ele><time>2026-04-12T15:31:26Z</time></trkpt><trkpt lat="40.33773734648427" lon="18.15627713532031"><ele>45.0</ele><time>2026-04-12T15:31:27Z</time></trkpt><trkpt lat="40.337830682594365" lon="18.15632896597797"><ele>45.0</ele><time>2026-04-12T15:31:28Z</time></trkpt><trkpt lat="40.33792949537742" lon="18.156375057000997"><ele>45.0</ele><time>2026-04-12T15:31:29Z</time></trkpt><trkpt lat="40.3380100620591" lon="18.15641805720229"><ele>45.0</ele><time>2026-04-12T15:31:30Z</time></trkpt><trkpt lat="40.33808677576411" lon="18.156463209716176"><ele>45.0</ele><time>2026-04-12T15:31:31Z</time></trkpt><trkpt lat="40.3381700122693" lon="18.156517623502396"><ele>44.666666666666664</ele><time>2026-04-12T15:31:32Z</time></trkpt><trkpt lat="40.338253808791045" lon="18.15656441836641"><ele>44.333333333333336</ele><time>2026-04-12T15:31:33Z</time></trkpt><trkpt lat="40.338334380175624" lon="18.156607488361807"><ele>44.0</ele><time>2026-04-12T15:31:34Z</time></trkpt><trkpt lat="40.338410018019076" lon="18.156646672951062"><ele>43.66666666666667</ele><time>2026-04-12T15:31:35Z</time></trkpt><trkpt lat="40.338487588750176" lon="18.156690670505405"><ele>43.333333333333336</ele><time>2026-04-12T15:31:36Z</time></trkpt><trkpt lat="40.338565488812705" lon="18.156732253498333"><ele>43.0</ele><time>2026-04-12T15:31:37Z</time></trkpt><trkpt lat="40.33864099807806" lon="18.156777206846723"><ele>43.00000000000001</ele><time>2026-04-12T15:31:38Z</time></trkpt><trkpt lat="40.338715027447655" lon="18.15681331588144"><ele>43.0</ele><time>2026-04-12T15:31:39Z</time></trkpt><trkpt lat="40.33878390691558" lon="18.156850034146107"><ele>43.0</ele><time>2026-04-12T15:31:40Z</time></trkpt><trkpt lat="40.33885007314143" lon="18.156878735165314"><ele>43.0</ele><time>2026-04-12T15:31:41Z</time></trkpt><trkpt lat="40.33891188796164" lon="18.15691360175788"><ele>43.0</ele><time>2026-04-12T15:31:42Z</time></trkpt><trkpt lat="40.33899238311548" lon="18.156977508178556"><ele>43.00000000000001</ele><time>2026-04-12T15:31:44Z</time></trkpt><trkpt lat="40.33905102414879" lon="18.157009512024082"><ele>43.0</ele><time>2026-04-12T15:31:46Z</time></trkpt><trkpt lat="40.339114715167874" lon="18.1570543018908"><ele>43.16666666666667</ele><time>2026-04-12T15:32:02Z</time></trkpt><trkpt lat="40.339188413843004" lon="18.15709241488736"><ele>43.333333333333336</ele><time>2026-04-12T15:32:04Z</time></trkpt><trkpt lat="40.339301557834425" lon="18.157152543090525"><ele>43.5</ele><time>2026-04-12T15:32:06Z</time></trkpt><trkpt lat="40.33936517534691" lon="18.157185885839564"><ele>43.666666666666664</ele><time>2026-04-12T15:32:07Z</time></trkpt><trkpt lat="40.33943403335587" lon="18.15721792378272"><ele>43.83333333333333</ele><time>2026-04-12T15:32:08Z</time></trkpt><trkpt lat="40.3395178816108" lon="18.1572588367752"><ele>44.0</ele><time>2026-04-12T15:32:09Z</time></trkpt><trkpt lat="40.33960177357144" lon="18.15730047604616"><ele>44.0</ele><time>2026-04-12T15:32:10Z</time></trkpt><trkpt lat="40.33969677673623" lon="18.157345326502675"><ele>44.0</ele><time>2026-04-12T15:32:11Z</time></trkpt><trkpt lat="40.3397858758235" lon="18.157389894658934"><ele>44.0</ele><time>2026-04-12T15:32:12Z</time></trkpt><trkpt lat="40.33987863616269" lon="18.15743930823898"><ele>44.0</ele><time>2026-04-12T15:32:13Z</time></trkpt><trkpt lat="40.33997679308566" lon="18.157494011501623"><ele>44.0</ele><time>2026-04-12T15:32:14Z</time></trkpt><trkpt lat="40.34007795758502" lon="18.15754916179833"><ele>44.2</ele><time>2026-04-12T15:32:15Z</time></trkpt><trkpt lat="40.340176195189585" lon="18.1576010177241"><ele>44.400000000000006</ele><time>2026-04-12T15:32:16Z</time></trkpt><trkpt lat="40.34028167917627" lon="18.157654793260804"><ele>44.6</ele><time>2026-04-12T15:32:17Z</time></trkpt><trkpt lat="40.340384712499805" lon="18.157710472803092"><ele>44.8</ele><time>2026-04-12T15:32:18Z</time></trkpt><trkpt lat="40.34049084158716" lon="18.157764107512325"><ele>45.0</ele><time>2026-04-12T15:32:19Z</time></trkpt><trkpt lat="40.34060379121177" lon="18.15782197457756"><ele>45.25</ele><time>2026-04-12T15:32:20Z</time></trkpt><trkpt lat="40.34071764574364" lon="18.15788004122989"><ele>45.5</ele><time>2026-04-12T15:32:21Z</time></trkpt><trkpt lat="40.34082739826392" lon="18.15794013320483"><ele>45.75</ele><time>2026-04-12T15:32:22Z</time></trkpt><trkpt lat="40.340936003316045" lon="18.158005146180752"><ele>46.0</ele><time>2026-04-12T15:32:23Z</time></trkpt><trkpt lat="40.341034004793094" lon="18.158056006593053"><ele>46.0</ele><time>2026-04-12T15:32:24Z</time></trkpt><trkpt lat="40.34113238846063" lon="18.158109873811775"><ele>46.0</ele><time>2026-04-12T15:32:25Z</time></trkpt><trkpt lat="40.341228764910554" lon="18.158150377641945"><ele>46.0</ele><time>2026-04-12T15:32:26Z</time></trkpt><trkpt lat="40.34131353052647" lon="18.158197998814014"><ele>46.0</ele><time>2026-04-12T15:32:27Z</time></trkpt><trkpt lat="40.34139369442698" lon="18.15824166880846"><ele>46.0</ele><time>2026-04-12T15:32:28Z</time></trkpt><trkpt lat="40.34146608552839" lon="18.15828140941837"><ele>45.833333333333336</ele><time>2026-04-12T15:32:29Z</time></trkpt><trkpt lat="40.34152950280131" lon="18.158314838039214"><ele>45.66666666666667</ele><time>2026-04-12T15:32:30Z</time></trkpt><trkpt lat="40.34163768324229" lon="18.158363544327806"><ele>45.5</ele><time>2026-04-12T15:32:32Z</time></trkpt><trkpt lat="40.34173535740623" lon="18.15839899436649"><ele>45.333333333333336</ele><time>2026-04-12T15:32:34Z</time></trkpt><trkpt lat="40.34179765462222" lon="18.15842649225706"><ele>45.166666666666664</ele><time>2026-04-12T15:32:35Z</time></trkpt><trkpt lat="40.34187557942323" lon="18.158453355944673"><ele>45.0</ele><time>2026-04-12T15:32:36Z</time></trkpt><trkpt lat="40.341948449210506" lon="18.158491763650954"><ele>45.0</ele><time>2026-04-12T15:32:37Z</time></trkpt><trkpt lat="40.34201539220717" lon="18.158533771853513"><ele>45.0</ele><time>2026-04-12T15:32:38Z</time></trkpt><trkpt lat="40.34208003565248" lon="18.158570630648246"><ele>45.0</ele><time>2026-04-12T15:32:39Z</time></trkpt><trkpt lat="40.342139545837206" lon="18.15860863810902"><ele>45.0</ele><time>2026-04-12T15:32:40Z</time></trkpt><trkpt lat="40.34224008693993" lon="18.158668954385597"><ele>45.0</ele><time>2026-04-12T15:32:42Z</time></trkpt><trkpt lat="40.3422962514335" lon="18.158716812787528"><ele>45.0</ele><time>2026-04-12T15:32:44Z</time></trkpt><trkpt lat="40.342359119608325" lon="18.158764581890352"><ele>45.2</ele><time>2026-04-12T15:33:12Z</time></trkpt><trkpt lat="40.34242140222691" lon="18.158811045333888"><ele>45.4</ele><time>2026-04-12T15:33:15.001Z</time></trkpt><trkpt lat="40.34253091479375" lon="18.158868997060488"><ele>45.599999999999994</ele><time>2026-04-12T15:33:17Z</time></trkpt><trkpt lat="40.342629812492405" lon="18.158927003695236"><ele>45.8</ele><time>2026-04-12T15:33:19Z</time></trkpt><trkpt lat="40.342701704333024" lon="18.158958403208167"><ele>46.0</ele><time>2026-04-12T15:33:21Z</time></trkpt><trkpt lat="40.34277337257658" lon="18.158999427781158"><ele>46.199999999999996</ele><time>2026-04-12T15:33:23Z</time></trkpt><trkpt lat="40.34288410736687" lon="18.15906884936266"><ele>46.4</ele><time>2026-04-12T15:33:25Z</time></trkpt><trkpt lat="40.34299773166266" lon="18.159134628060766"><ele>46.6</ele><time>2026-04-12T15:33:27Z</time></trkpt><trkpt lat="40.34306620332834" lon="18.15916157910563"><ele>46.8</ele><time>2026-04-12T15:33:28Z</time></trkpt><trkpt lat="40.343141103221775" lon="18.159188471661153"><ele>47.0</ele><time>2026-04-12T15:33:29Z</time></trkpt><trkpt lat="40.343217840072846" lon="18.15921584069027"><ele>47.2</ele><time>2026-04-12T15:33:30Z</time></trkpt><trkpt lat="40.34329479884599" lon="18.15924948160029"><ele>47.400000000000006</ele><time>2026-04-12T15:33:31Z</time></trkpt><trkpt lat="40.34337945895533" lon="18.159288669345365"><ele>47.599999999999994</ele><time>2026-04-12T15:33:32Z</time></trkpt><trkpt lat="40.34345967502973" lon="18.15933326809894"><ele>47.8</ele><time>2026-04-12T15:33:33Z</time></trkpt><trkpt lat="40.343547991165636" lon="18.159383328004683"><ele>48.0</ele><time>2026-04-12T15:33:34Z</time></trkpt><trkpt lat="40.34363850198857" lon="18.159433181131924"><ele>48.0</ele><time>2026-04-12T15:33:35Z</time></trkpt><trkpt lat="40.34372292515444" lon="18.15948880549867"><ele>48.0</ele><time>2026-04-12T15:33:36Z</time></trkpt><trkpt lat="40.34381497925936" lon="18.159530920033948"><ele>48.0</ele><time>2026-04-12T15:33:37Z</time></trkpt><trkpt lat="40.343899205746645" lon="18.15957994199285"><ele>48.0</ele><time>2026-04-12T15:33:38Z</time></trkpt><trkpt lat="40.343988702257796" lon="18.159633258052114"><ele>48.0</ele><time>2026-04-12T15:33:39Z</time></trkpt><trkpt lat="40.3440769071341" lon="18.159686016790967"><ele>48.0</ele><time>2026-04-12T15:33:40Z</time></trkpt><trkpt lat="40.344165756964294" lon="18.15974480812108"><ele>48.0</ele><time>2026-04-12T15:33:41Z</time></trkpt><trkpt lat="40.34425302924532" lon="18.15979633425438"><ele>48.0</ele><time>2026-04-12T15:33:42Z</time></trkpt><trkpt lat="40.34433972059968" lon="18.15984435004055"><ele>48.0</ele><time>2026-04-12T15:33:43Z</time></trkpt><trkpt lat="40.344425132052045" lon="18.159888227607667"><ele>48.0</ele><time>2026-04-12T15:33:44Z</time></trkpt><trkpt lat="40.34450540528123" lon="18.15992765278368"><ele>48.0</ele><time>2026-04-12T15:33:45Z</time></trkpt><trkpt lat="40.344592482240486" lon="18.159954636903638"><ele>48.0</ele><time>2026-04-12T15:33:46Z</time></trkpt><trkpt lat="40.344673656107844" lon="18.159991668870656"><ele>48.0</ele><time>2026-04-12T15:33:47Z</time></trkpt><trkpt lat="40.34475104242577" lon="18.160025827116858"><ele>48.0</ele><time>2026-04-12T15:33:48Z</time></trkpt><trkpt lat="40.344826308300846" lon="18.160063524974415"><ele>48.0</ele><time>2026-04-12T15:33:49Z</time></trkpt><trkpt lat="40.344908259424535" lon="18.160103260002423"><ele>48.0</ele><time>2026-04-12T15:33:50Z</time></trkpt><trkpt lat="40.344990534432306" lon="18.160138640577383"><ele>48.4</ele><time>2026-04-12T15:33:51Z</time></trkpt><trkpt lat="40.345074911852535" lon="18.16018779427673"><ele>48.8</ele><time>2026-04-12T15:33:52Z</time></trkpt><trkpt lat="40.34516963636033" lon="18.1602405556355"><ele>49.2</ele><time>2026-04-12T15:33:53Z</time></trkpt><trkpt lat="40.34526555118641" lon="18.160292463399635"><ele>49.6</ele><time>2026-04-12T15:33:54Z</time></trkpt><trkpt lat="40.34536281099939" lon="18.160339888889958"><ele>50.0</ele><time>2026-04-12T15:33:55Z</time></trkpt><trkpt lat="40.34546468888075" lon="18.160386639624726"><ele>50.4</ele><time>2026-04-12T15:33:56Z</time></trkpt><trkpt lat="40.3455688110638" lon="18.16043576903402"><ele>50.8</ele><time>2026-04-12T15:33:57Z</time></trkpt><trkpt lat="40.3456628498889" lon="18.16048193355888"><ele>51.2</ele><time>2026-04-12T15:33:58Z</time></trkpt><trkpt lat="40.34575273196783" lon="18.160528456731665"><ele>51.6</ele><time>2026-04-12T15:33:59Z</time></trkpt><trkpt lat="40.345837086771745" lon="18.160580663264323"><ele>52.0</ele><time>2026-04-12T15:34:00Z</time></trkpt><trkpt lat="40.34591808208737" lon="18.160614428216448"><ele>52.0</ele><time>2026-04-12T15:34:01Z</time></trkpt><trkpt lat="40.34599722313395" lon="18.16066876219165"><ele>52.0</ele><time>2026-04-12T15:34:02Z</time></trkpt><trkpt lat="40.3460760495109" lon="18.160714019830852"><ele>52.0</ele><time>2026-04-12T15:34:03Z</time></trkpt><trkpt lat="40.346166082831424" lon="18.160763853677"><ele>52.0</ele><time>2026-04-12T15:34:04Z</time></trkpt><trkpt lat="40.346259756865145" lon="18.16080774652456"><ele>52.0</ele><time>2026-04-12T15:34:05Z</time></trkpt><trkpt lat="40.34636531982365" lon="18.160850901142414"><ele>52.2</ele><time>2026-04-12T15:34:06Z</time></trkpt><trkpt lat="40.34645914878819" lon="18.160904454047255"><ele>52.400000000000006</ele><time>2026-04-12T15:34:07Z</time></trkpt><trkpt lat="40.34654938098701" lon="18.160980359237776"><ele>52.599999999999994</ele><time>2026-04-12T15:34:08Z</time></trkpt><trkpt lat="40.34661866648622" lon="18.161062315384918"><ele>52.8</ele><time>2026-04-12T15:34:09Z</time></trkpt><trkpt lat="40.346699415114635" lon="18.161118958900502"><ele>53.0</ele><time>2026-04-12T15:34:10Z</time></trkpt><trkpt lat="40.34676943525451" lon="18.161162701507436"><ele>53.00000000000001</ele><time>2026-04-12T15:34:11Z</time></trkpt><trkpt lat="40.346839515100065" lon="18.16120742054199"><ele>53.0</ele><time>2026-04-12T15:34:12Z</time></trkpt><trkpt lat="40.34690979612132" lon="18.161257587561206"><ele>53.0</ele><time>2026-04-12T15:34:13Z</time></trkpt><trkpt lat="40.34698444394627" lon="18.161299065614323"><ele>53.0</ele><time>2026-04-12T15:34:14Z</time></trkpt><trkpt lat="40.347048587288164" lon="18.161330908223675"><ele>53.00000000000001</ele><time>2026-04-12T15:34:15Z</time></trkpt><trkpt lat="40.34713950128819" lon="18.161334197229664"><ele>53.0</ele><time>2026-04-12T15:34:17Z</time></trkpt><trkpt lat="40.3471992715589" lon="18.161239510726848"><ele>52.4</ele><time>2026-04-12T15:34:19Z</time></trkpt><trkpt lat="40.34722395112231" lon="18.16115599125218"><ele>51.8</ele><time>2026-04-12T15:34:20Z</time></trkpt><trkpt lat="40.34726320666138" lon="18.161052253404772"><ele>51.2</ele><time>2026-04-12T15:34:21Z</time></trkpt><trkpt lat="40.34732142171284" lon="18.160935123410628"><ele>50.6</ele><time>2026-04-12T15:34:22Z</time></trkpt><trkpt lat="40.34739417496278" lon="18.16083277507461"><ele>50.0</ele><time>2026-04-12T15:34:23Z</time></trkpt><trkpt lat="40.347460006778725" lon="18.16075436040188"><ele>50.00000000000001</ele><time>2026-04-12T15:34:24Z</time></trkpt><trkpt lat="40.3475273436964" lon="18.160698552616193"><ele>50.0</ele><time>2026-04-12T15:34:25Z</time></trkpt><trkpt lat="40.34759023114346" lon="18.160663322710082"><ele>50.0</ele><time>2026-04-12T15:34:26Z</time></trkpt><trkpt lat="40.34765699710843" lon="18.160641155953645"><ele>50.0</ele><time>2026-04-12T15:34:27Z</time></trkpt><trkpt lat="40.347724873291575" lon="18.160636520826156"><ele>50.0</ele><time>2026-04-12T15:34:28Z</time></trkpt><trkpt lat="40.34779042321232" lon="18.160638843491093"><ele>50.00000000000001</ele><time>2026-04-12T15:34:29Z</time></trkpt><trkpt lat="40.34787470926675" lon="18.16066844656748"><ele>50.0</ele><time>2026-04-12T15:34:30Z</time></trkpt><trkpt lat="40.34796420315508" lon="18.16073209943522"><ele>50.0</ele><time>2026-04-12T15:34:31Z</time></trkpt><trkpt lat="40.3480567514052" lon="18.160826154427124"><ele>50.0</ele><time>2026-04-12T15:34:32Z</time></trkpt><trkpt lat="40.34815113327478" lon="18.160929576765874"><ele>50.0</ele><time>2026-04-12T15:34:33Z</time></trkpt><trkpt lat="40.34826600130553" lon="18.1610401892308"><ele>50.0</ele><time>2026-04-12T15:34:34Z</time></trkpt><trkpt lat="40.348401214180626" lon="18.161161943195754"><ele>50.0</ele><time>2026-04-12T15:34:35Z</time></trkpt><trkpt lat="40.348504978910874" lon="18.161244354586728"><ele>50.0</ele><time>2026-04-12T15:34:36Z</time></trkpt><trkpt lat="40.34860968340478" lon="18.161339626240036"><ele>50.0</ele><time>2026-04-12T15:34:37Z</time></trkpt><trkpt lat="40.34868579959953" lon="18.16142757645913"><ele>50.0</ele><time>2026-04-12T15:34:38Z</time></trkpt><trkpt lat="40.34873437044339" lon="18.16151806625095"><ele>50.0</ele><time>2026-04-12T15:34:39Z</time></trkpt><trkpt lat="40.348740335565076" lon="18.16164786124317"><ele>50.333333333333336</ele><time>2026-04-12T15:34:40Z</time></trkpt><trkpt lat="40.348761705129064" lon="18.161725939259878"><ele>50.66666666666667</ele><time>2026-04-12T15:34:41Z</time></trkpt><trkpt lat="40.348761140943694" lon="18.161816053389085"><ele>51.0</ele><time>2026-04-12T15:34:42Z</time></trkpt><trkpt lat="40.34872865196124" lon="18.161921572364044"><ele>51.33333333333333</ele><time>2026-04-12T15:34:44Z</time></trkpt><trkpt lat="40.34867914145173" lon="18.161979203704295"><ele>51.666666666666664</ele><time>2026-04-12T15:34:48Z</time></trkpt><trkpt lat="40.34863260941945" lon="18.16207453058868"><ele>52.0</ele><time>2026-04-12T15:34:53Z</time></trkpt><trkpt lat="40.348622532920714" lon="18.16219914618445"><ele>51.99999999999999</ele><time>2026-04-12T15:34:56Z</time></trkpt><trkpt lat="40.348613722932065" lon="18.162325097144866"><ele>52.0</ele><time>2026-04-12T15:34:58Z</time></trkpt><trkpt lat="40.34857776514779" lon="18.162404173682116"><ele>52.0</ele><time>2026-04-12T15:34:59Z</time></trkpt><trkpt lat="40.34852924959188" lon="18.16248258662358"><ele>52.0</ele><time>2026-04-12T15:35:00Z</time></trkpt><trkpt lat="40.34847998340989" lon="18.16256547095233"><ele>51.99999999999999</ele><time>2026-04-12T15:35:01Z</time></trkpt><trkpt lat="40.34843962957791" lon="18.162657534283767"><ele>52.0</ele><time>2026-04-12T15:35:02Z</time></trkpt><trkpt lat="40.34839833874345" lon="18.16274281651287"><ele>51.8</ele><time>2026-04-12T15:35:03Z</time></trkpt><trkpt lat="40.3483492403642" lon="18.16282512258033"><ele>51.6</ele><time>2026-04-12T15:35:04Z</time></trkpt><trkpt lat="40.34830722151908" lon="18.16292921666144"><ele>51.4</ele><time>2026-04-12T15:35:05Z</time></trkpt><trkpt lat="40.34825985311998" lon="18.163046397835167"><ele>51.199999999999996</ele><time>2026-04-12T15:35:06Z</time></trkpt><trkpt lat="40.348216841236415" lon="18.163156858650424"><ele>51.0</ele><time>2026-04-12T15:35:07Z</time></trkpt><trkpt lat="40.348174201303415" lon="18.163258142606587"><ele>50.833333333333336</ele><time>2026-04-12T15:35:08Z</time></trkpt><trkpt lat="40.34812381277776" lon="18.163354336209032"><ele>50.66666666666667</ele><time>2026-04-12T15:35:09Z</time></trkpt><trkpt lat="40.348087776633" lon="18.163439894112923"><ele>50.5</ele><time>2026-04-12T15:35:10Z</time></trkpt><trkpt lat="40.34803518749792" lon="18.16356494116168"><ele>50.333333333333336</ele><time>2026-04-12T15:35:12Z</time></trkpt><trkpt lat="40.34801913495166" lon="18.163672492901867"><ele>50.16666666666667</ele><time>2026-04-12T15:35:14Z</time></trkpt><trkpt lat="40.34805460743084" lon="18.163758307676492"><ele>50.0</ele><time>2026-04-12T15:35:16Z</time></trkpt><trkpt lat="40.34815751028058" lon="18.16386667741504"><ele>50.833333333333336</ele><time>2026-04-12T15:35:18Z</time></trkpt><trkpt lat="40.348228152541395" lon="18.16394537023219"><ele>51.66666666666667</ele><time>2026-04-12T15:35:19Z</time></trkpt><trkpt lat="40.34829549663273" lon="18.16402858837521"><ele>52.5</ele><time>2026-04-12T15:35:20Z</time></trkpt><trkpt lat="40.3483542196391" lon="18.164093706743863"><ele>53.33333333333333</ele><time>2026-04-12T15:35:21Z</time></trkpt><trkpt lat="40.34843007423782" lon="18.164152568604152"><ele>54.166666666666664</ele><time>2026-04-12T15:35:23Z</time></trkpt><trkpt lat="40.348505985157935" lon="18.164075025423806"><ele>55.0</ele><time>2026-04-12T15:35:27Z</time></trkpt><trkpt lat="40.34854413877514" lon="18.163998263169074"><ele>55.0</ele><time>2026-04-12T15:35:28Z</time></trkpt><trkpt lat="40.34858052735418" lon="18.163919596298754"><ele>55.0</ele><time>2026-04-12T15:35:29Z</time></trkpt><trkpt lat="40.34864986986612" lon="18.16380731413061"><ele>55.0</ele><time>2026-04-12T15:35:31Z</time></trkpt><trkpt lat="40.348754629205324" lon="18.163758702668506"><ele>55.0</ele><time>2026-04-12T15:35:33Z</time></trkpt><trkpt lat="40.348776634027324" lon="18.16367306779297"><ele>55.0</ele><time>2026-04-12T15:35:36Z</time></trkpt></trkseg><trkseg><trkpt lat="40.34785008479686" lon="18.164027757868723"><ele>50.00000000000001</ele><time>2026-04-12T16:00:16.004Z</time></trkpt><trkpt lat="40.34788508226975" lon="18.163947808968913"><ele>50.0</ele><time>2026-04-12T16:00:17.004Z</time></trkpt><trkpt lat="40.34791400063918" lon="18.16385490889498"><ele>50.0</ele><time>2026-04-12T16:00:18.004Z</time></trkpt><trkpt lat="40.34796682652312" lon="18.163790124348726"><ele>50.0</ele><time>2026-04-12T16:00:19.004Z</time></trkpt><trkpt lat="40.348011492534006" lon="18.163713041143403"><ele>50.00000000000001</ele><time>2026-04-12T16:00:20.004Z</time></trkpt><trkpt lat="40.34804459772642" lon="18.163601112560357"><ele>50.0</ele><time>2026-04-12T16:00:21.004Z</time></trkpt><trkpt lat="40.348082837811056" lon="18.163504717629415"><ele>50.2</ele><time>2026-04-12T16:00:22.004Z</time></trkpt><trkpt lat="40.34813806931336" lon="18.163413963710543"><ele>50.4</ele><time>2026-04-12T16:00:23.004Z</time></trkpt><trkpt lat="40.348192274848984" lon="18.163312046573235"><ele>50.599999999999994</ele><time>2026-04-12T16:00:24.004Z</time></trkpt><trkpt lat="40.34824742713398" lon="18.16320784326094"><ele>50.8</ele><time>2026-04-12T16:00:25.004Z</time></trkpt><trkpt lat="40.348295048584845" lon="18.163101278306982"><ele>51.0</ele><time>2026-04-12T16:00:26.004Z</time></trkpt><trkpt lat="40.34835638647528" lon="18.162998174005367"><ele>51.0</ele><time>2026-04-12T16:00:27.004Z</time></trkpt><trkpt lat="40.34842092179428" lon="18.16288279102162"><ele>51.0</ele><time>2026-04-12T16:00:28.004Z</time></trkpt><trkpt lat="40.34848146572852" lon="18.162769614946107"><ele>51.0</ele><time>2026-04-12T16:00:29.004Z</time></trkpt><trkpt lat="40.34853418269176" lon="18.16266022388145"><ele>51.0</ele><time>2026-04-12T16:00:30.004Z</time></trkpt><trkpt lat="40.348579201594504" lon="18.162567036662196"><ele>51.0</ele><time>2026-04-12T16:00:31.004Z</time></trkpt><trkpt lat="40.348623305346266" lon="18.16249679922728"><ele>51.0</ele><time>2026-04-12T16:00:32.004Z</time></trkpt><trkpt lat="40.34866380636571" lon="18.162414234564004"><ele>51.0</ele><time>2026-04-12T16:00:34.004Z</time></trkpt><trkpt lat="40.348686232660214" lon="18.162327958480777"><ele>51.0</ele><time>2026-04-12T16:00:43.004Z</time></trkpt><trkpt lat="40.34875559352607" lon="18.16220634905828"><ele>51.0</ele><time>2026-04-12T16:00:47.004Z</time></trkpt><trkpt lat="40.34879069687019" lon="18.16213488705888"><ele>51.0</ele><time>2026-04-12T16:00:48.004Z</time></trkpt><trkpt lat="40.34882497771151" lon="18.16203516468156"><ele>51.0</ele><time>2026-04-12T16:00:49.004Z</time></trkpt><trkpt lat="40.348856137588534" lon="18.161923504148987"><ele>51.166666666666664</ele><time>2026-04-12T16:00:50.004Z</time></trkpt><trkpt lat="40.348868211425106" lon="18.161811269138152"><ele>51.33333333333333</ele><time>2026-04-12T16:00:51.004Z</time></trkpt><trkpt lat="40.34887365740789" lon="18.161726189313473"><ele>51.5</ele><time>2026-04-12T16:00:52.004Z</time></trkpt><trkpt lat="40.34885900478012" lon="18.161639560075823"><ele>51.666666666666664</ele><time>2026-04-12T16:00:53.004Z</time></trkpt><trkpt lat="40.34882260904865" lon="18.161522230856914"><ele>51.83333333333333</ele><time>2026-04-12T16:00:54.004Z</time></trkpt><trkpt lat="40.34876880125513" lon="18.161408647356936"><ele>52.0</ele><time>2026-04-12T16:00:55.004Z</time></trkpt><trkpt lat="40.3486935585478" lon="18.161298140406792"><ele>51.5</ele><time>2026-04-12T16:00:56.004Z</time></trkpt><trkpt lat="40.34860974290085" lon="18.16120019374838"><ele>51.0</ele><time>2026-04-12T16:00:57.004Z</time></trkpt><trkpt lat="40.34851192503696" lon="18.161109083414942"><ele>50.5</ele><time>2026-04-12T16:00:58.004Z</time></trkpt><trkpt lat="40.34841308496475" lon="18.161009275951546"><ele>50.0</ele><time>2026-04-12T16:00:59.004Z</time></trkpt><trkpt lat="40.34832099755891" lon="18.160931960768288"><ele>50.00000000000001</ele><time>2026-04-12T16:01:00.004Z</time></trkpt><trkpt lat="40.34822672671575" lon="18.160853907411525"><ele>50.0</ele><time>2026-04-12T16:01:01.004Z</time></trkpt><trkpt lat="40.34814414313318" lon="18.16078743295009"><ele>50.0</ele><time>2026-04-12T16:01:02.004Z</time></trkpt><trkpt lat="40.348070402101314" lon="18.16072968270071"><ele>50.0</ele><time>2026-04-12T16:01:03.004Z</time></trkpt><trkpt lat="40.348010825151555" lon="18.16067967445019"><ele>50.00000000000001</ele><time>2026-04-12T16:01:04.004Z</time></trkpt><trkpt lat="40.34795561188503" lon="18.160637839699376"><ele>50.0</ele><time>2026-04-12T16:01:05.004Z</time></trkpt><trkpt lat="40.347862939759224" lon="18.160562275131962"><ele>49.75</ele><time>2026-04-12T16:01:07.004Z</time></trkpt><trkpt lat="40.34781674302582" lon="18.160497501090973"><ele>49.5</ele><time>2026-04-12T16:01:09.004Z</time></trkpt><trkpt lat="40.34780728583554" lon="18.160407992185974"><ele>49.25</ele><time>2026-04-12T16:01:11.004Z</time></trkpt><trkpt lat="40.347790331321924" lon="18.160294727976254"><ele>49.0</ele><time>2026-04-12T16:01:14.004Z</time></trkpt><trkpt lat="40.34423801353513" lon="18.15807754911621"><ele>48.49999999999999</ele><time>2026-04-12T16:02:15.004Z</time></trkpt><trkpt lat="40.34414292033009" lon="18.158008165883142"><ele>48.0</ele><time>2026-04-12T16:02:51.004Z</time></trkpt><trkpt lat="40.34406033591489" lon="18.157969456742094"><ele>47.5</ele><time>2026-04-12T16:02:53.004Z</time></trkpt><trkpt lat="40.34396902711193" lon="18.157953865840955"><ele>47.0</ele><time>2026-04-12T16:02:56.004Z</time></trkpt><trkpt lat="40.343906005311375" lon="18.158022215581283"><ele>46.5</ele><time>2026-04-12T16:02:58.004Z</time></trkpt><trkpt lat="40.34385981171636" lon="18.158097706692317"><ele>46.0</ele><time>2026-04-12T16:03:00.004Z</time></trkpt><trkpt lat="40.34380259488664" lon="18.158182642483318"><ele>46.25</ele><time>2026-04-12T16:03:02.004Z</time></trkpt><trkpt lat="40.34371906339014" lon="18.15831763756674"><ele>46.5</ele><time>2026-04-12T16:03:04.004Z</time></trkpt><trkpt lat="40.343656737707775" lon="18.15841642389465"><ele>46.75</ele><time>2026-04-12T16:03:05.004Z</time></trkpt><trkpt lat="40.3435905431061" lon="18.158524847720063"><ele>47.0</ele><time>2026-04-12T16:03:06.004Z</time></trkpt><trkpt lat="40.343503409598824" lon="18.158628903538872"><ele>47.0</ele><time>2026-04-12T16:03:07.004Z</time></trkpt><trkpt lat="40.34342141727753" lon="18.15872425705989"><ele>47.0</ele><time>2026-04-12T16:03:08.004Z</time></trkpt><trkpt lat="40.343342786240456" lon="18.158823193141547"><ele>47.0</ele><time>2026-04-12T16:03:09.004Z</time></trkpt><trkpt lat="40.34330506919877" lon="18.15891740733776"><ele>47.0</ele><time>2026-04-12T16:03:10.004Z</time></trkpt><trkpt lat="40.34326572771724" lon="18.15899081334117"><ele>47.0</ele><time>2026-04-12T16:03:11.004Z</time></trkpt><trkpt lat="40.34315080947652" lon="18.159046818553087"><ele>47.5</ele><time>2026-04-12T16:03:13.004Z</time></trkpt><trkpt lat="40.34307251687261" lon="18.159048981660217"><ele>48.0</ele><time>2026-04-12T16:03:14.004Z</time></trkpt><trkpt lat="40.33742686961338" lon="18.15607298240811"><ele>47.5</ele><time>2026-04-12T16:04:15.004Z</time></trkpt><trkpt lat="40.33730725648123" lon="18.156005455241417"><ele>47.0</ele><time>2026-04-12T16:04:16.004Z</time></trkpt><trkpt lat="40.33719484192003" lon="18.15593358699389"><ele>46.5</ele><time>2026-04-12T16:04:17.004Z</time></trkpt><trkpt lat="40.3370950615922" lon="18.15588184575847"><ele>46.0</ele><time>2026-04-12T16:04:18.004Z</time></trkpt><trkpt lat="40.33700390259375" lon="18.155832122030713"><ele>46.0</ele><time>2026-04-12T16:04:19.004Z</time></trkpt><trkpt lat="40.33691625538888" lon="18.155788214311535"><ele>46.0</ele><time>2026-04-12T16:04:20.004Z</time></trkpt><trkpt lat="40.33682097009497" lon="18.155733552840474"><ele>46.0</ele><time>2026-04-12T16:04:21.004Z</time></trkpt><trkpt lat="40.336708288995126" lon="18.15567182909674"><ele>46.0</ele><time>2026-04-12T16:04:22.004Z</time></trkpt><trkpt lat="40.336579837740764" lon="18.155600345104325"><ele>45.66666666666667</ele><time>2026-04-12T16:04:23.004Z</time></trkpt><trkpt lat="40.33643497621177" lon="18.155514878104146"><ele>45.333333333333336</ele><time>2026-04-12T16:04:24.004Z</time></trkpt><trkpt lat="40.336282136898994" lon="18.15543541484565"><ele>45.0</ele><time>2026-04-12T16:04:25.004Z</time></trkpt><trkpt lat="40.33612116756373" lon="18.155350620460574"><ele>46.66666666666667</ele><time>2026-04-12T16:04:26.004Z</time></trkpt><trkpt lat="40.335956666105375" lon="18.15526752941559"><ele>48.333333333333336</ele><time>2026-04-12T16:04:27.004Z</time></trkpt><trkpt lat="40.335796993891776" lon="18.155179004760317"><ele>50.0</ele><time>2026-04-12T16:04:28.004Z</time></trkpt><trkpt lat="40.33562684703681" lon="18.15509901445273"><ele>50.0</ele><time>2026-04-12T16:04:29.004Z</time></trkpt><trkpt lat="40.33545782039629" lon="18.15500264026389"><ele>50.0</ele><time>2026-04-12T16:04:30.004Z</time></trkpt><trkpt lat="40.33528027919985" lon="18.154915766199828"><ele>50.0</ele><time>2026-04-12T16:04:31.004Z</time></trkpt><trkpt lat="40.33510960533666" lon="18.154815257473988"><ele>50.0</ele><time>2026-04-12T16:04:32.004Z</time></trkpt><trkpt lat="40.334933417453975" lon="18.15472171849448"><ele>50.0</ele><time>2026-04-12T16:04:33.004Z</time></trkpt><trkpt lat="40.33475257645255" lon="18.154631977102717"><ele>50.0</ele><time>2026-04-12T16:04:34.004Z</time></trkpt><trkpt lat="40.33457463388092" lon="18.154531381319156"><ele>49.333333333333336</ele><time>2026-04-12T16:04:35.004Z</time></trkpt><trkpt lat="40.33438902801566" lon="18.15442444143693"><ele>48.66666666666667</ele><time>2026-04-12T16:04:36.004Z</time></trkpt><trkpt lat="40.33420086980858" lon="18.154319425441674"><ele>48.0</ele><time>2026-04-12T16:04:37.004Z</time></trkpt><trkpt lat="40.3340118608445" lon="18.154206231673157"><ele>48.33333333333333</ele><time>2026-04-12T16:04:38.004Z</time></trkpt><trkpt lat="40.33381325131903" lon="18.154106540157915"><ele>48.666666666666664</ele><time>2026-04-12T16:04:39.004Z</time></trkpt><trkpt lat="40.33361601960037" lon="18.153996582597756"><ele>49.0</ele><time>2026-04-12T16:04:40.004Z</time></trkpt><trkpt lat="40.33341648101998" lon="18.153887384825875"><ele>48.33333333333333</ele><time>2026-04-12T16:04:41.004Z</time></trkpt><trkpt lat="40.333215456593" lon="18.15379079425991"><ele>47.666666666666664</ele><time>2026-04-12T16:04:42.004Z</time></trkpt><trkpt lat="40.33301131739198" lon="18.153681401843894"><ele>47.0</ele><time>2026-04-12T16:04:43.004Z</time></trkpt><trkpt lat="40.33280481037491" lon="18.153568663303805"><ele>47.0</ele><time>2026-04-12T16:04:44.004Z</time></trkpt><trkpt lat="40.332599803297185" lon="18.153454425363382"><ele>47.0</ele><time>2026-04-12T16:04:45.004Z</time></trkpt><trkpt lat="40.33239454293881" lon="18.15334898201937"><ele>47.0</ele><time>2026-04-12T16:04:46.004Z</time></trkpt><trkpt lat="40.33218957871831" lon="18.15323618481473"><ele>45.666666666666664</ele><time>2026-04-12T16:04:47.004Z</time></trkpt><trkpt lat="40.331984547867094" lon="18.153125770932466"><ele>44.333333333333336</ele><time>2026-04-12T16:04:48.004Z</time></trkpt><trkpt lat="40.331775477183186" lon="18.153017099895674"><ele>43.0</ele><time>2026-04-12T16:04:49.004Z</time></trkpt><trkpt lat="40.331568096599426" lon="18.152905170332808"><ele>41.5</ele><time>2026-04-12T16:04:50.004Z</time></trkpt><trkpt lat="40.33136030679486" lon="18.152794976835207"><ele>40.0</ele><time>2026-04-12T16:04:51.004Z</time></trkpt><trkpt lat="40.33114912689182" lon="18.152681008711685"><ele>40.0</ele><time>2026-04-12T16:04:52.004Z</time></trkpt><trkpt lat="40.33093866104488" lon="18.152569340192542"><ele>40.0</ele><time>2026-04-12T16:04:53.004Z</time></trkpt><trkpt lat="40.33072674814504" lon="18.152454058808864"><ele>37.5</ele><time>2026-04-12T16:04:54.004Z</time></trkpt><trkpt lat="40.33051660046537" lon="18.152339624831068"><ele>35.0</ele><time>2026-04-12T16:04:55.004Z</time></trkpt><trkpt lat="40.33031543681975" lon="18.15221530465632"><ele>35.0</ele><time>2026-04-12T16:04:56.004Z</time></trkpt><trkpt lat="40.330115133715026" lon="18.15209442730938"><ele>35.0</ele><time>2026-04-12T16:04:57.004Z</time></trkpt><trkpt lat="40.32991602759885" lon="18.15197379942816"><ele>35.0</ele><time>2026-04-12T16:04:58.004Z</time></trkpt><trkpt lat="40.32971706719026" lon="18.151857408414294"><ele>35.0</ele><time>2026-04-12T16:04:59.004Z</time></trkpt><trkpt lat="40.32951814146584" lon="18.151748624540808"><ele>35.0</ele><time>2026-04-12T16:05:00.004Z</time></trkpt><trkpt lat="40.32931612940503" lon="18.151642301672165"><ele>35.0</ele><time>2026-04-12T16:05:01.004Z</time></trkpt><trkpt lat="40.32911477047721" lon="18.15153488244717"><ele>35.0</ele><time>2026-04-12T16:05:02.004Z</time></trkpt><trkpt lat="40.32891303493584" lon="18.15142549499645"><ele>35.0</ele><time>2026-04-12T16:05:03.004Z</time></trkpt><trkpt lat="40.328717038138045" lon="18.151312067842706"><ele>35.0</ele><time>2026-04-12T16:05:04.004Z</time></trkpt><trkpt lat="40.328512422365044" lon="18.15119872704355"><ele>34.33333333333333</ele><time>2026-04-12T16:05:05.004Z</time></trkpt><trkpt lat="40.32831281715581" lon="18.151092332633315"><ele>33.666666666666664</ele><time>2026-04-12T16:05:06.004Z</time></trkpt><trkpt lat="40.32810962784671" lon="18.15098734492136"><ele>33.0</ele><time>2026-04-12T16:05:07.004Z</time></trkpt><trkpt lat="40.327905037996345" lon="18.150877317351224"><ele>32.333333333333336</ele><time>2026-04-12T16:05:08.004Z</time></trkpt><trkpt lat="40.32770028909802" lon="18.150774895287594"><ele>31.666666666666668</ele><time>2026-04-12T16:05:09.004Z</time></trkpt><trkpt lat="40.327493838648834" lon="18.150672325322248"><ele>31.0</ele><time>2026-04-12T16:05:10.004Z</time></trkpt><trkpt lat="40.327288106896276" lon="18.150568149934603"><ele>30.0</ele><time>2026-04-12T16:05:11.004Z</time></trkpt><trkpt lat="40.32707630692298" lon="18.150460408661576"><ele>29.0</ele><time>2026-04-12T16:05:12.004Z</time></trkpt><trkpt lat="40.32686829212675" lon="18.150347185552768"><ele>29.0</ele><time>2026-04-12T16:05:13.004Z</time></trkpt><trkpt lat="40.32666115409838" lon="18.150230388685213"><ele>29.0</ele><time>2026-04-12T16:05:14.004Z</time></trkpt></trkseg><trkseg><trkpt lat="40.315013145133555" lon="18.141150693873996"><ele>34.0</ele><time>2026-04-12T16:06:16.005Z</time></trkpt><trkpt lat="40.3149001917376" lon="18.140923668416097"><ele>34.0</ele><time>2026-04-12T16:06:17.005Z</time></trkpt><trkpt lat="40.31479037512742" lon="18.14069469706101"><ele>34.0</ele><time>2026-04-12T16:06:18.005Z</time></trkpt><trkpt lat="40.314677950854254" lon="18.14045975095246"><ele>34.66666666666667</ele><time>2026-04-12T16:06:19.005Z</time></trkpt><trkpt lat="40.314564225874776" lon="18.140217987892424"><ele>35.333333333333336</ele><time>2026-04-12T16:06:20.005Z</time></trkpt><trkpt lat="40.31444852696484" lon="18.13997277812891"><ele>36.0</ele><time>2026-04-12T16:06:21.005Z</time></trkpt><trkpt lat="40.31433365937313" lon="18.139721347117188"><ele>36.0</ele><time>2026-04-12T16:06:22.005Z</time></trkpt><trkpt lat="40.31421973211712" lon="18.13947603085965"><ele>36.0</ele><time>2026-04-12T16:06:23.005Z</time></trkpt><trkpt lat="40.31409866318614" lon="18.139232031274336"><ele>36.0</ele><time>2026-04-12T16:06:24.005Z</time></trkpt><trkpt lat="40.313978247816294" lon="18.139004255690875"><ele>35.666666666666664</ele><time>2026-04-12T16:06:25.005Z</time></trkpt><trkpt lat="40.31384518235274" lon="18.13879007380018"><ele>35.33333333333333</ele><time>2026-04-12T16:06:26.005Z</time></trkpt><trkpt lat="40.31370993639285" lon="18.138578476335994"><ele>35.0</ele><time>2026-04-12T16:06:27.005Z</time></trkpt><trkpt lat="40.313561129797876" lon="18.13837009884309"><ele>35.0</ele><time>2026-04-12T16:06:28.005Z</time></trkpt><trkpt lat="40.313405480384866" lon="18.138177401498776"><ele>35.0</ele><time>2026-04-12T16:06:29.005Z</time></trkpt><trkpt lat="40.31324275773265" lon="18.137993525222026"><ele>35.0</ele><time>2026-04-12T16:06:30.005Z</time></trkpt><trkpt lat="40.31307075062704" lon="18.137821547656596"><ele>35.33333333333333</ele><time>2026-04-12T16:06:31.005Z</time></trkpt><trkpt lat="40.31289030654043" lon="18.137666132161307"><ele>35.666666666666664</ele><time>2026-04-12T16:06:32.005Z</time></trkpt><trkpt lat="40.31270111246521" lon="18.13752598381951"><ele>36.0</ele><time>2026-04-12T16:06:33.004Z</time></trkpt><trkpt lat="40.31250430091491" lon="18.137396463215644"><ele>35.333333333333336</ele><time>2026-04-12T16:06:34.004Z</time></trkpt><trkpt lat="40.31230624159831" lon="18.13727682494558"><ele>34.66666666666667</ele><time>2026-04-12T16:06:35.004Z</time></trkpt><trkpt lat="40.31210052763238" lon="18.137174835271153"><ele>34.0</ele><time>2026-04-12T16:06:36.004Z</time></trkpt><trkpt lat="40.31188961898453" lon="18.137087504522135"><ele>34.0</ele><time>2026-04-12T16:06:37.004Z</time></trkpt><trkpt lat="40.31167881044683" lon="18.137012872293163"><ele>34.0</ele><time>2026-04-12T16:06:38.004Z</time></trkpt><trkpt lat="40.31146576516044" lon="18.136942816418127"><ele>34.0</ele><time>2026-04-12T16:06:39.004Z</time></trkpt><trkpt lat="40.3112535143542" lon="18.136874151485667"><ele>34.66666666666667</ele><time>2026-04-12T16:06:40.004Z</time></trkpt><trkpt lat="40.311039085053125" lon="18.13679962202883"><ele>35.333333333333336</ele><time>2026-04-12T16:06:41.004Z</time></trkpt><trkpt lat="40.31082735502119" lon="18.13672646625349"><ele>36.0</ele><time>2026-04-12T16:06:42.004Z</time></trkpt><trkpt lat="40.31061684929997" lon="18.13665435162534"><ele>35.666666666666664</ele><time>2026-04-12T16:06:43.004Z</time></trkpt><trkpt lat="40.31040724567023" lon="18.136581413241622"><ele>35.33333333333333</ele><time>2026-04-12T16:06:44.004Z</time></trkpt><trkpt lat="40.31019672126962" lon="18.136509187087086"><ele>35.0</ele><time>2026-04-12T16:06:45.004Z</time></trkpt><trkpt lat="40.30998117184397" lon="18.136434401814917"><ele>34.666666666666664</ele><time>2026-04-12T16:06:46.004Z</time></trkpt><trkpt lat="40.30976846028578" lon="18.136358767656247"><ele>34.333333333333336</ele><time>2026-04-12T16:06:47.004Z</time></trkpt><trkpt lat="40.309554850923156" lon="18.13628455247539"><ele>34.0</ele><time>2026-04-12T16:06:48.004Z</time></trkpt><trkpt lat="40.30933813454462" lon="18.13621174687923"><ele>34.66666666666667</ele><time>2026-04-12T16:06:49.004Z</time></trkpt><trkpt lat="40.309123265286146" lon="18.136136888798372"><ele>35.333333333333336</ele><time>2026-04-12T16:06:50.004Z</time></trkpt><trkpt lat="40.30891016024341" lon="18.13606386766124"><ele>36.0</ele><time>2026-04-12T16:06:51.004Z</time></trkpt><trkpt lat="40.308693062576424" lon="18.135987401862447"><ele>36.0</ele><time>2026-04-12T16:06:52.004Z</time></trkpt><trkpt lat="40.308473252031625" lon="18.135910623808314"><ele>36.0</ele><time>2026-04-12T16:06:53.004Z</time></trkpt><trkpt lat="40.308255228184805" lon="18.135832692622994"><ele>36.5</ele><time>2026-04-12T16:06:54.004Z</time></trkpt><trkpt lat="40.308037487434" lon="18.135755143989464"><ele>37.0</ele><time>2026-04-12T16:06:55.004Z</time></trkpt><trkpt lat="40.30781811330898" lon="18.13567985347644"><ele>37.333333333333336</ele><time>2026-04-12T16:06:56.004Z</time></trkpt><trkpt lat="40.307598528908" lon="18.135605352638773"><ele>37.666666666666664</ele><time>2026-04-12T16:06:57.004Z</time></trkpt><trkpt lat="40.30738309318559" lon="18.135531899671157"><ele>38.0</ele><time>2026-04-12T16:06:58.004Z</time></trkpt><trkpt lat="40.307167924887224" lon="18.13545506774856"><ele>39.0</ele><time>2026-04-12T16:06:59.004Z</time></trkpt><trkpt lat="40.30695344706386" lon="18.13538029305942"><ele>40.0</ele><time>2026-04-12T16:07:00.004Z</time></trkpt><trkpt lat="40.306742756545496" lon="18.13530368066113"><ele>41.0</ele><time>2026-04-12T16:07:01.004Z</time></trkpt><trkpt lat="40.30653200634196" lon="18.13522966343242"><ele>41.0</ele><time>2026-04-12T16:07:02.004Z</time></trkpt><trkpt lat="40.30632458684296" lon="18.135155128217505"><ele>41.0</ele><time>2026-04-12T16:07:03.004Z</time></trkpt><trkpt lat="40.306113447100586" lon="18.135079258752874"><ele>41.0</ele><time>2026-04-12T16:07:04.004Z</time></trkpt><trkpt lat="40.305899180981974" lon="18.1350041190805"><ele>41.0</ele><time>2026-04-12T16:07:05.004Z</time></trkpt><trkpt lat="40.30568940013017" lon="18.13493615961746"><ele>41.0</ele><time>2026-04-12T16:07:06.004Z</time></trkpt><trkpt lat="40.3054760831494" lon="18.1348610236445"><ele>41.0</ele><time>2026-04-12T16:07:07.004Z</time></trkpt><trkpt lat="40.305262986592744" lon="18.13478463540331"><ele>41.0</ele><time>2026-04-12T16:07:08.004Z</time></trkpt><trkpt lat="40.30504877447239" lon="18.134709471009483"><ele>41.0</ele><time>2026-04-12T16:07:09.004Z</time></trkpt><trkpt lat="40.30483329793953" lon="18.13463729392624"><ele>41.0</ele><time>2026-04-12T16:07:10.004Z</time></trkpt><trkpt lat="40.30461810801711" lon="18.134568190448725"><ele>41.0</ele><time>2026-04-12T16:07:11.004Z</time></trkpt><trkpt lat="40.30440518128096" lon="18.134496264735212"><ele>41.0</ele><time>2026-04-12T16:07:12.004Z</time></trkpt><trkpt lat="40.3041925320167" lon="18.13442093346173"><ele>41.0</ele><time>2026-04-12T16:07:13.004Z</time></trkpt><trkpt lat="40.30398216584126" lon="18.134340597537708"><ele>52.0</ele><time>2026-04-12T16:07:14.004Z</time></trkpt><trkpt lat="40.29106615531296" lon="18.133044217504914"><ele>52.0</ele><time>2026-04-12T16:08:15.004Z</time></trkpt><trkpt lat="40.29087149196145" lon="18.133058968643955"><ele>52.0</ele><time>2026-04-12T16:08:16.004Z</time></trkpt><trkpt lat="40.29067264655859" lon="18.13306358151602"><ele>52.0</ele><time>2026-04-12T16:08:17.004Z</time></trkpt><trkpt lat="40.29047633254667" lon="18.133053198159224"><ele>51.666666666666664</ele><time>2026-04-12T16:08:18.004Z</time></trkpt><trkpt lat="40.29028618124244" lon="18.133040271910332"><ele>51.33333333333333</ele><time>2026-04-12T16:08:19.004Z</time></trkpt><trkpt lat="40.29009287617675" lon="18.1330067475279"><ele>51.0</ele><time>2026-04-12T16:08:20.004Z</time></trkpt><trkpt lat="40.28989035276853" lon="18.132955832003386"><ele>51.33333333333333</ele><time>2026-04-12T16:08:21.004Z</time></trkpt><trkpt lat="40.28968763191511" lon="18.132889613022012"><ele>51.666666666666664</ele><time>2026-04-12T16:08:22.004Z</time></trkpt><trkpt lat="40.28948466970557" lon="18.13281486810684"><ele>52.0</ele><time>2026-04-12T16:08:23.004Z</time></trkpt><trkpt lat="40.28927129043952" lon="18.13271418532739"><ele>52.0</ele><time>2026-04-12T16:08:24.004Z</time></trkpt><trkpt lat="40.28907094915997" lon="18.13262812968742"><ele>52.0</ele><time>2026-04-12T16:08:25.004Z</time></trkpt><trkpt lat="40.288871420821536" lon="18.132555073346616"><ele>52.0</ele><time>2026-04-12T16:08:26.004Z</time></trkpt><trkpt lat="40.288665016994905" lon="18.132472231507364"><ele>50.666666666666664</ele><time>2026-04-12T16:08:27.004Z</time></trkpt><trkpt lat="40.28846804927218" lon="18.132374136336118"><ele>49.33333333333333</ele><time>2026-04-12T16:08:28.004Z</time></trkpt><trkpt lat="40.2882763994228" lon="18.132274077512324"><ele>48.0</ele><time>2026-04-12T16:08:29.004Z</time></trkpt><trkpt lat="40.28808311235533" lon="18.13217586249974"><ele>48.0</ele><time>2026-04-12T16:08:30.004Z</time></trkpt><trkpt lat="40.28788446941317" lon="18.132081132899867"><ele>48.0</ele><time>2026-04-12T16:08:31.004Z</time></trkpt><trkpt lat="40.28768918667915" lon="18.131991571621427"><ele>48.0</ele><time>2026-04-12T16:08:32.004Z</time></trkpt><trkpt lat="40.28749381640737" lon="18.131900244318754"><ele>48.0</ele><time>2026-04-12T16:08:33.004Z</time></trkpt><trkpt lat="40.287302476136226" lon="18.131809852310152"><ele>48.0</ele><time>2026-04-12T16:08:34.004Z</time></trkpt><trkpt lat="40.287107232246505" lon="18.131715998558796"><ele>48.0</ele><time>2026-04-12T16:08:35.004Z</time></trkpt><trkpt lat="40.286910763452916" lon="18.13162624445693"><ele>48.0</ele><time>2026-04-12T16:08:36.004Z</time></trkpt><trkpt lat="40.28671565041225" lon="18.131533720861725"><ele>48.0</ele><time>2026-04-12T16:08:37.004Z</time></trkpt><trkpt lat="40.286518933851625" lon="18.13144112604651"><ele>48.0</ele><time>2026-04-12T16:08:38.004Z</time></trkpt><trkpt lat="40.28632489428917" lon="18.131352530710018"><ele>48.33333333333333</ele><time>2026-04-12T16:08:39.004Z</time></trkpt><trkpt lat="40.286130399517155" lon="18.131273462607627"><ele>48.666666666666664</ele><time>2026-04-12T16:08:40.004Z</time></trkpt><trkpt lat="40.28593597254679" lon="18.131181465853032"><ele>49.0</ele><time>2026-04-12T16:08:41.004Z</time></trkpt><trkpt lat="40.28574219153927" lon="18.131094987341008"><ele>49.33333333333333</ele><time>2026-04-12T16:08:42.004Z</time></trkpt><trkpt lat="40.28554759679654" lon="18.1310109820093"><ele>49.66666666666667</ele><time>2026-04-12T16:08:43.004Z</time></trkpt><trkpt lat="40.28535630717069" lon="18.13091475871366"><ele>50.0</ele><time>2026-04-12T16:08:44.004Z</time></trkpt><trkpt lat="40.28516227501311" lon="18.13082165945749"><ele>50.0</ele><time>2026-04-12T16:08:45.004Z</time></trkpt><trkpt lat="40.28496486862429" lon="18.130737161414793"><ele>50.0</ele><time>2026-04-12T16:08:46.004Z</time></trkpt><trkpt lat="40.28476864604743" lon="18.130652634749467"><ele>50.0</ele><time>2026-04-12T16:08:47.004Z</time></trkpt><trkpt lat="40.28457298465982" lon="18.130572426407785"><ele>49.0</ele><time>2026-04-12T16:08:48.004Z</time></trkpt><trkpt lat="40.284377910407365" lon="18.130489144252945"><ele>48.0</ele><time>2026-04-12T16:08:49.004Z</time></trkpt><trkpt lat="40.284184882290646" lon="18.130403463877347"><ele>47.0</ele><time>2026-04-12T16:08:50.004Z</time></trkpt><trkpt lat="40.283988271986345" lon="18.13031696464801"><ele>47.33333333333333</ele><time>2026-04-12T16:08:51.004Z</time></trkpt><trkpt lat="40.283790731397495" lon="18.13023160178163"><ele>47.666666666666664</ele><time>2026-04-12T16:08:52.004Z</time></trkpt><trkpt lat="40.28359392138337" lon="18.130144867649115"><ele>48.0</ele><time>2026-04-12T16:08:53.004Z</time></trkpt><trkpt lat="40.28339799476121" lon="18.13005774567656"><ele>48.0</ele><time>2026-04-12T16:08:54.004Z</time></trkpt><trkpt lat="40.283203328980626" lon="18.129971619536946"><ele>48.0</ele><time>2026-04-12T16:08:55.004Z</time></trkpt><trkpt lat="40.28300520762709" lon="18.12988539362559"><ele>48.0</ele><time>2026-04-12T16:08:56.004Z</time></trkpt><trkpt lat="40.28280982392538" lon="18.129797398894002"><ele>48.0</ele><time>2026-04-12T16:08:57.004Z</time></trkpt><trkpt lat="40.28261152294" lon="18.129708481960993"><ele>48.0</ele><time>2026-04-12T16:08:58.004Z</time></trkpt><trkpt lat="40.282415575544796" lon="18.129622046451455"><ele>48.0</ele><time>2026-04-12T16:08:59.004Z</time></trkpt><trkpt lat="40.28221692373501" lon="18.129532660085875"><ele>48.0</ele><time>2026-04-12T16:09:00.004Z</time></trkpt><trkpt lat="40.28202100626221" lon="18.12944590684114"><ele>48.0</ele><time>2026-04-12T16:09:01.004Z</time></trkpt><trkpt lat="40.281826379492415" lon="18.129363334670945"><ele>48.0</ele><time>2026-04-12T16:09:02.004Z</time></trkpt><trkpt lat="40.28163379020737" lon="18.129277070120303"><ele>48.0</ele><time>2026-04-12T16:09:03.004Z</time></trkpt><trkpt lat="40.281441295697945" lon="18.129191080778597"><ele>48.0</ele><time>2026-04-12T16:09:04.004Z</time></trkpt><trkpt lat="40.28124547971418" lon="18.129101432515824"><ele>48.0</ele><time>2026-04-12T16:09:05.004Z</time></trkpt><trkpt lat="40.28104885927011" lon="18.129012598382612"><ele>48.33333333333333</ele><time>2026-04-12T16:09:06.004Z</time></trkpt><trkpt lat="40.28085423738567" lon="18.128926754782768"><ele>48.666666666666664</ele><time>2026-04-12T16:09:07.004Z</time></trkpt><trkpt lat="40.28066035281201" lon="18.128841336439475"><ele>49.0</ele><time>2026-04-12T16:09:08.004Z</time></trkpt><trkpt lat="40.28046554949061" lon="18.12875054599455"><ele>49.33333333333333</ele><time>2026-04-12T16:09:09.004Z</time></trkpt><trkpt lat="40.280267727282265" lon="18.12866644022644"><ele>49.66666666666667</ele><time>2026-04-12T16:09:10.004Z</time></trkpt><trkpt lat="40.28006745344902" lon="18.12857948583296"><ele>50.0</ele><time>2026-04-12T16:09:11.004Z</time></trkpt><trkpt lat="40.27987003080073" lon="18.128493941033593"><ele>49.333333333333336</ele><time>2026-04-12T16:09:12.004Z</time></trkpt><trkpt lat="40.27966995795214" lon="18.128408354975765"><ele>48.66666666666667</ele><time>2026-04-12T16:09:13.004Z</time></trkpt><trkpt lat="40.27947375456001" lon="18.128320402544688"><ele>48.0</ele><time>2026-04-12T16:09:14.004Z</time></trkpt><trkpt lat="40.26923488264342" lon="18.121598429590872"><ele>47.666666666666664</ele><time>2026-04-12T16:10:15.004Z</time></trkpt><trkpt lat="40.26903651797764" lon="18.12169219614275"><ele>47.33333333333333</ele><time>2026-04-12T16:10:16.004Z</time></trkpt><trkpt lat="40.26884494090046" lon="18.121815570614725"><ele>47.0</ele><time>2026-04-12T16:10:17.004Z</time></trkpt><trkpt lat="40.26866709050505" lon="18.121963770443205"><ele>47.0</ele><time>2026-04-12T16:10:18.004Z</time></trkpt><trkpt lat="40.26849968541417" lon="18.12213694861279"><ele>47.0</ele><time>2026-04-12T16:10:19.004Z</time></trkpt><trkpt lat="40.26834790823425" lon="18.122333440079796"><ele>47.0</ele><time>2026-04-12T16:10:20.004Z</time></trkpt><trkpt lat="40.26821137235711" lon="18.122549974003476"><ele>46.666666666666664</ele><time>2026-04-12T16:10:21.004Z</time></trkpt><trkpt lat="40.26809417298186" lon="18.12278432423416"><ele>46.333333333333336</ele><time>2026-04-12T16:10:22.004Z</time></trkpt><trkpt lat="40.267991805748316" lon="18.12302604153244"><ele>46.0</ele><time>2026-04-12T16:10:23.004Z</time></trkpt><trkpt lat="40.267915114387534" lon="18.1232655742594"><ele>46.0</ele><time>2026-04-12T16:10:24.004Z</time></trkpt><trkpt lat="40.267853801534415" lon="18.123514844125427"><ele>46.0</ele><time>2026-04-12T16:10:25.004Z</time></trkpt><trkpt lat="40.267817443275135" lon="18.123781092320588"><ele>46.0</ele><time>2026-04-12T16:10:26.004Z</time></trkpt><trkpt lat="40.26783550095259" lon="18.124092949211608"><ele>46.333333333333336</ele><time>2026-04-12T16:10:27.004Z</time></trkpt><trkpt lat="40.26785254044835" lon="18.124373651525588"><ele>46.666666666666664</ele><time>2026-04-12T16:10:28.004Z</time></trkpt><trkpt lat="40.26789340871628" lon="18.12465197416375"><ele>47.0</ele><time>2026-04-12T16:10:29.004Z</time></trkpt><trkpt lat="40.267960657320394" lon="18.12492225596914"><ele>47.5</ele><time>2026-04-12T16:10:30.004Z</time></trkpt><trkpt lat="40.26804863656931" lon="18.12519261922973"><ele>48.0</ele><time>2026-04-12T16:10:31.004Z</time></trkpt><trkpt lat="40.268139631617785" lon="18.125469245749912"><ele>49.0</ele><time>2026-04-12T16:10:32.004Z</time></trkpt><trkpt lat="40.26824372129006" lon="18.125742910208267"><ele>50.0</ele><time>2026-04-12T16:10:33.004Z</time></trkpt><trkpt lat="40.268355697592796" lon="18.126023749115614"><ele>50.0</ele><time>2026-04-12T16:10:34.004Z</time></trkpt><trkpt lat="40.26845831969863" lon="18.12630633273816"><ele>50.0</ele><time>2026-04-12T16:10:35.004Z</time></trkpt><trkpt lat="40.26854213239932" lon="18.12659413754072"><ele>49.5</ele><time>2026-04-12T16:10:36.004Z</time></trkpt><trkpt lat="40.26860283474137" lon="18.12688924102919"><ele>49.0</ele><time>2026-04-12T16:10:37.004Z</time></trkpt><trkpt lat="40.2686411154792" lon="18.12719986101427"><ele>49.5</ele><time>2026-04-12T16:10:38.004Z</time></trkpt><trkpt lat="40.2686536958928" lon="18.12750166457244"><ele>50.0</ele><time>2026-04-12T16:10:39.004Z</time></trkpt><trkpt lat="40.26865147839445" lon="18.127811892609785"><ele>50.0</ele><time>2026-04-12T16:10:40.004Z</time></trkpt><trkpt lat="40.26862721775086" lon="18.12812384903653"><ele>50.0</ele><time>2026-04-12T16:10:41.004Z</time></trkpt><trkpt lat="40.26858569636117" lon="18.128436519691412"><ele>50.0</ele><time>2026-04-12T16:10:42.004Z</time></trkpt><trkpt lat="40.268526052240276" lon="18.128754251856773"><ele>50.0</ele><time>2026-04-12T16:10:43.004Z</time></trkpt><trkpt lat="40.268449524729604" lon="18.129066756355023"><ele>50.0</ele><time>2026-04-12T16:10:44.004Z</time></trkpt><trkpt lat="40.26836500369093" lon="18.12938079684385"><ele>50.0</ele><time>2026-04-12T16:10:45.004Z</time></trkpt><trkpt lat="40.268278329467286" lon="18.129681821435195"><ele>49.5</ele><time>2026-04-12T16:10:46.004Z</time></trkpt><trkpt lat="40.26819668448093" lon="18.129977326625383"><ele>49.0</ele><time>2026-04-12T16:10:47.004Z</time></trkpt><trkpt lat="40.268120902636994" lon="18.130273917029157"><ele>47.5</ele><time>2026-04-12T16:10:48.004Z</time></trkpt><trkpt lat="40.26803946266882" lon="18.13056910079874"><ele>46.0</ele><time>2026-04-12T16:10:49.004Z</time></trkpt><trkpt lat="40.2679646064533" lon="18.130867142584815"><ele>46.0</ele><time>2026-04-12T16:10:50.004Z</time></trkpt><trkpt lat="40.26789327383587" lon="18.13115540965856"><ele>46.0</ele><time>2026-04-12T16:10:51.004Z</time></trkpt><trkpt lat="40.26782458933593" lon="18.13143841231544"><ele>47.5</ele><time>2026-04-12T16:10:52.004Z</time></trkpt><trkpt lat="40.26776342290367" lon="18.131721173687914"><ele>49.0</ele><time>2026-04-12T16:10:53.004Z</time></trkpt><trkpt lat="40.26770592346791" lon="18.13201636999796"><ele>49.0</ele><time>2026-04-12T16:10:54.004Z</time></trkpt><trkpt lat="40.26764979775132" lon="18.132310207889017"><ele>49.0</ele><time>2026-04-12T16:10:55.004Z</time></trkpt><trkpt lat="40.267601448564236" lon="18.132607019635667"><ele>50.0</ele><time>2026-04-12T16:10:56.004Z</time></trkpt><trkpt lat="40.26755637866646" lon="18.132902807745054"><ele>51.0</ele><time>2026-04-12T16:10:57.004Z</time></trkpt><trkpt lat="40.2675224414887" lon="18.13320913888624"><ele>49.0</ele><time>2026-04-12T16:10:58.004Z</time></trkpt><trkpt lat="40.26749608126723" lon="18.13351205277945"><ele>47.0</ele><time>2026-04-12T16:10:59.004Z</time></trkpt><trkpt lat="40.26747541018004" lon="18.133816338142783"><ele>47.5</ele><time>2026-04-12T16:11:00.004Z</time></trkpt><trkpt lat="40.267465582954195" lon="18.13412081595097"><ele>48.0</ele><time>2026-04-12T16:11:01.004Z</time></trkpt><trkpt lat="40.26746245014547" lon="18.134429265291004"><ele>48.0</ele><time>2026-04-12T16:11:02.004Z</time></trkpt><trkpt lat="40.26746277534927" lon="18.134733901361432"><ele>48.0</ele><time>2026-04-12T16:11:03.004Z</time></trkpt><trkpt lat="40.26746660614287" lon="18.135040734945317"><ele>48.0</ele><time>2026-04-12T16:11:04.004Z</time></trkpt><trkpt lat="40.267476945448344" lon="18.135348773714856"><ele>48.0</ele><time>2026-04-12T16:11:05.004Z</time></trkpt><trkpt lat="40.2674909908413" lon="18.13565405549527"><ele>49.0</ele><time>2026-04-12T16:11:06.004Z</time></trkpt><trkpt lat="40.26750767003106" lon="18.135960444344942"><ele>50.0</ele><time>2026-04-12T16:11:07.004Z</time></trkpt><trkpt lat="40.26752653675666" lon="18.136265684146018"><ele>50.0</ele><time>2026-04-12T16:11:08.004Z</time></trkpt><trkpt lat="40.26753952379337" lon="18.136566808763178"><ele>50.0</ele><time>2026-04-12T16:11:09.004Z</time></trkpt><trkpt lat="40.2675559255376" lon="18.136866156809663"><ele>50.0</ele><time>2026-04-12T16:11:10.004Z</time></trkpt><trkpt lat="40.26756792807704" lon="18.137171778444344"><ele>50.0</ele><time>2026-04-12T16:11:11.004Z</time></trkpt><trkpt lat="40.26757842362286" lon="18.137479992643748"><ele>50.0</ele><time>2026-04-12T16:11:12.004Z</time></trkpt><trkpt lat="40.26758718953819" lon="18.13778428772334"><ele>50.0</ele><time>2026-04-12T16:11:13.004Z</time></trkpt><trkpt lat="40.26759728216498" lon="18.13808998925865"><ele>64.0</ele><time>2026-04-12T16:11:14.004Z</time></trkpt><trkpt lat="40.26197442313806" lon="18.15419817369222"><ele>64.0</ele><time>2026-04-12T16:12:15.005Z</time></trkpt><trkpt lat="40.2618026804233" lon="18.1544160370794"><ele>64.0</ele><time>2026-04-12T16:12:16.005Z</time></trkpt><trkpt lat="40.261628466168744" lon="18.15463420707725"><ele>64.0</ele><time>2026-04-12T16:12:17.005Z</time></trkpt><trkpt lat="40.261454317860746" lon="18.154852343285267"><ele>64.0</ele><time>2026-04-12T16:12:18.005Z</time></trkpt><trkpt lat="40.26128019896031" lon="18.155068103817595"><ele>64.0</ele><time>2026-04-12T16:12:19.005Z</time></trkpt><trkpt lat="40.261104118438304" lon="18.155285122352986"><ele>64.0</ele><time>2026-04-12T16:12:20.005Z</time></trkpt><trkpt lat="40.26093056801764" lon="18.155502015115896"><ele>64.0</ele><time>2026-04-12T16:12:21.005Z</time></trkpt><trkpt lat="40.2607548798977" lon="18.155718704221673"><ele>64.0</ele><time>2026-04-12T16:12:22.005Z</time></trkpt><trkpt lat="40.260577391136756" lon="18.155932875966002"><ele>63.5</ele><time>2026-04-12T16:12:23.005Z</time></trkpt><trkpt lat="40.26039777494263" lon="18.15614356558205"><ele>63.0</ele><time>2026-04-12T16:12:24.005Z</time></trkpt><trkpt lat="40.260216832201955" lon="18.156357469746652"><ele>63.5</ele><time>2026-04-12T16:12:25.005Z</time></trkpt><trkpt lat="40.26003703186957" lon="18.156569403896096"><ele>64.0</ele><time>2026-04-12T16:12:26.005Z</time></trkpt><trkpt lat="40.259859644375815" lon="18.156782211908975"><ele>63.0</ele><time>2026-04-12T16:12:27.005Z</time></trkpt><trkpt lat="40.25968090512657" lon="18.156996729208863"><ele>62.0</ele><time>2026-04-12T16:12:28.005Z</time></trkpt><trkpt lat="40.259502283564736" lon="18.15721001099838"><ele>63.0</ele><time>2026-04-12T16:12:29.005Z</time></trkpt><trkpt lat="40.25932175003738" lon="18.15742130353466"><ele>64.0</ele><time>2026-04-12T16:12:30.005Z</time></trkpt><trkpt lat="40.259142586962035" lon="18.15763364288301"><ele>64.0</ele><time>2026-04-12T16:12:31.005Z</time></trkpt><trkpt lat="40.25896739369443" lon="18.15784764607635"><ele>64.0</ele><time>2026-04-12T16:12:32.005Z</time></trkpt><trkpt lat="40.2587906058286" lon="18.158059163563166"><ele>63.5</ele><time>2026-04-12T16:12:33.005Z</time></trkpt><trkpt lat="40.258613556729536" lon="18.158270681370613"><ele>63.0</ele><time>2026-04-12T16:12:34.005Z</time></trkpt><trkpt lat="40.25843333073479" lon="18.158478885699438"><ele>63.0</ele><time>2026-04-12T16:12:35.005Z</time></trkpt><trkpt lat="40.25825058418457" lon="18.158681599892898"><ele>63.0</ele><time>2026-04-12T16:12:36.005Z</time></trkpt><trkpt lat="40.258065758647724" lon="18.158881150080195"><ele>63.0</ele><time>2026-04-12T16:12:37.005Z</time></trkpt><trkpt lat="40.25787980919852" lon="18.159082121611082"><ele>63.0</ele><time>2026-04-12T16:12:38.005Z</time></trkpt><trkpt lat="40.25769127033738" lon="18.159276898427922"><ele>63.0</ele><time>2026-04-12T16:12:39.005Z</time></trkpt><trkpt lat="40.257501544995904" lon="18.15946949240523"><ele>63.0</ele><time>2026-04-12T16:12:40.005Z</time></trkpt><trkpt lat="40.25730892299706" lon="18.159656485629043"><ele>63.5</ele><time>2026-04-12T16:12:41.005Z</time></trkpt><trkpt lat="40.25711731717966" lon="18.159845858453146"><ele>64.0</ele><time>2026-04-12T16:12:42.005Z</time></trkpt><trkpt lat="40.25692318900258" lon="18.16002903335646"><ele>64.0</ele><time>2026-04-12T16:12:43.005Z</time></trkpt><trkpt lat="40.25672703641934" lon="18.16021022854777"><ele>64.0</ele><time>2026-04-12T16:12:44.005Z</time></trkpt><trkpt lat="40.25652864581071" lon="18.160389741276187"><ele>64.0</ele><time>2026-04-12T16:12:45.005Z</time></trkpt><trkpt lat="40.25633328907576" lon="18.16056768807038"><ele>64.0</ele><time>2026-04-12T16:12:46.005Z</time></trkpt><trkpt lat="40.256131281726496" lon="18.160738020414975"><ele>64.0</ele><time>2026-04-12T16:12:47.005Z</time></trkpt><trkpt lat="40.255927003652715" lon="18.160912239576525"><ele>64.0</ele><time>2026-04-12T16:12:48.005Z</time></trkpt><trkpt lat="40.25572002579161" lon="18.16108025120767"><ele>63.5</ele><time>2026-04-12T16:12:49.005Z</time></trkpt><trkpt lat="40.255513536025596" lon="18.1612414089154"><ele>63.0</ele><time>2026-04-12T16:12:50.005Z</time></trkpt><trkpt lat="40.25531341867631" lon="18.161392593026186"><ele>63.0</ele><time>2026-04-12T16:12:51.005Z</time></trkpt><trkpt lat="40.2551248852638" lon="18.161523219731766"><ele>63.0</ele><time>2026-04-12T16:12:52.005Z</time></trkpt><trkpt lat="40.254949427995776" lon="18.161633379866757"><ele>63.0</ele><time>2026-04-12T16:12:53.005Z</time></trkpt><trkpt lat="40.254783563369" lon="18.161739089773725"><ele>62.33333333333333</ele><time>2026-04-12T16:12:54.005Z</time></trkpt><trkpt lat="40.25462764757417" lon="18.161838312763972"><ele>61.666666666666664</ele><time>2026-04-12T16:12:55.005Z</time></trkpt><trkpt lat="40.25447862561749" lon="18.161926710210967"><ele>61.0</ele><time>2026-04-12T16:12:56.005Z</time></trkpt><trkpt lat="40.25435150929879" lon="18.162048982823332"><ele>61.0</ele><time>2026-04-12T16:12:57.005Z</time></trkpt><trkpt lat="40.25422487944867" lon="18.162117275496218"><ele>61.0</ele><time>2026-04-12T16:12:58.005Z</time></trkpt><trkpt lat="40.25410114412591" lon="18.162170449681064"><ele>61.0</ele><time>2026-04-12T16:12:59.005Z</time></trkpt><trkpt lat="40.25396381523189" lon="18.162214934046812"><ele>61.0</ele><time>2026-04-12T16:13:00.005Z</time></trkpt><trkpt lat="40.25380904816986" lon="18.162247609696706"><ele>60.0</ele><time>2026-04-12T16:13:01.005Z</time></trkpt><trkpt lat="40.253643437372844" lon="18.162265230580715"><ele>59.0</ele><time>2026-04-12T16:13:02.005Z</time></trkpt><trkpt lat="40.253466705738425" lon="18.162260674143926"><ele>58.0</ele><time>2026-04-12T16:13:03.005Z</time></trkpt><trkpt lat="40.25328292999256" lon="18.16222953935122"><ele>56.666666666666664</ele><time>2026-04-12T16:13:04.005Z</time></trkpt><trkpt lat="40.2530929136518" lon="18.162163350535597"><ele>55.33333333333333</ele><time>2026-04-12T16:13:05.005Z</time></trkpt><trkpt lat="40.2529008921277" lon="18.162083641534355"><ele>54.0</ele><time>2026-04-12T16:13:06.005Z</time></trkpt><trkpt lat="40.252747041912244" lon="18.162025419549845"><ele>54.0</ele><time>2026-04-12T16:13:07.005Z</time></trkpt><trkpt lat="40.25260301768737" lon="18.161988093345965"><ele>54.0</ele><time>2026-04-12T16:13:08.005Z</time></trkpt><trkpt lat="40.25244233745182" lon="18.16197287929065"><ele>54.0</ele><time>2026-04-12T16:13:09.005Z</time></trkpt><trkpt lat="40.25226218125328" lon="18.161982561145223"><ele>53.66666666666667</ele><time>2026-04-12T16:13:10.005Z</time></trkpt><trkpt lat="40.252080492666835" lon="18.162017372062447"><ele>53.333333333333336</ele><time>2026-04-12T16:13:11.005Z</time></trkpt><trkpt lat="40.25190334521009" lon="18.162073918221083"><ele>53.0</ele><time>2026-04-12T16:13:12.005Z</time></trkpt><trkpt lat="40.25172950238173" lon="18.16215663663499"><ele>53.0</ele><time>2026-04-12T16:13:13.005Z</time></trkpt><trkpt lat="40.251559959362986" lon="18.162268759027643"><ele>53.0</ele><time>2026-04-12T16:13:14.005Z</time></trkpt><trkpt lat="40.241392212101175" lon="18.164887528121156"><ele>51.66666666666667</ele><time>2026-04-12T16:14:15.005Z</time></trkpt><trkpt lat="40.241191792526784" lon="18.16490496144746"><ele>50.33333333333333</ele><time>2026-04-12T16:14:16.005Z</time></trkpt><trkpt lat="40.2409840384274" lon="18.16491966790312"><ele>49.0</ele><time>2026-04-12T16:14:17.005Z</time></trkpt><trkpt lat="40.24077386297777" lon="18.164932157410117"><ele>48.666666666666664</ele><time>2026-04-12T16:14:18.005Z</time></trkpt><trkpt lat="40.240563844622116" lon="18.164942761411595"><ele>48.33333333333333</ele><time>2026-04-12T16:14:19.005Z</time></trkpt><trkpt lat="40.24035554282447" lon="18.164955603222214"><ele>48.0</ele><time>2026-04-12T16:14:20.005Z</time></trkpt><trkpt lat="40.24015259468622" lon="18.164967637955627"><ele>48.0</ele><time>2026-04-12T16:14:21.005Z</time></trkpt><trkpt lat="40.23995250856757" lon="18.164976690431963"><ele>48.0</ele><time>2026-04-12T16:14:22.005Z</time></trkpt><trkpt lat="40.23975193095563" lon="18.164989807921494"><ele>48.0</ele><time>2026-04-12T16:14:23.005Z</time></trkpt><trkpt lat="40.23955524881173" lon="18.165006912615222"><ele>48.33333333333333</ele><time>2026-04-12T16:14:24.005Z</time></trkpt><trkpt lat="40.23935789591413" lon="18.16502270394658"><ele>48.666666666666664</ele><time>2026-04-12T16:14:25.005Z</time></trkpt><trkpt lat="40.23916095590296" lon="18.165030174037568"><ele>49.0</ele><time>2026-04-12T16:14:26.005Z</time></trkpt><trkpt lat="40.238962344395745" lon="18.16503719970933"><ele>49.666666666666664</ele><time>2026-04-12T16:14:27.005Z</time></trkpt><trkpt lat="40.238765965683626" lon="18.16504751383882"><ele>50.33333333333333</ele><time>2026-04-12T16:14:28.005Z</time></trkpt><trkpt lat="40.23856966902665" lon="18.165059347253425"><ele>51.0</ele><time>2026-04-12T16:14:29.005Z</time></trkpt><trkpt lat="40.23837461691356" lon="18.165072463309688"><ele>51.0</ele><time>2026-04-12T16:14:30.005Z</time></trkpt><trkpt lat="40.238182543598924" lon="18.165083366243852"><ele>51.0</ele><time>2026-04-12T16:14:31.005Z</time></trkpt><trkpt lat="40.2379886583283" lon="18.16509337245491"><ele>51.0</ele><time>2026-04-12T16:14:32.005Z</time></trkpt><trkpt lat="40.2377940948457" lon="18.165102740400354"><ele>51.33333333333333</ele><time>2026-04-12T16:14:33.005Z</time></trkpt><trkpt lat="40.237598402587" lon="18.165114305819223"><ele>51.666666666666664</ele><time>2026-04-12T16:14:34.005Z</time></trkpt><trkpt lat="40.2374042042493" lon="18.165124643474165"><ele>52.0</ele><time>2026-04-12T16:14:35.005Z</time></trkpt><trkpt lat="40.23721171575993" lon="18.1651333955991"><ele>52.0</ele><time>2026-04-12T16:14:36.005Z</time></trkpt><trkpt lat="40.23701817766202" lon="18.16514313785825"><ele>52.0</ele><time>2026-04-12T16:14:37.004Z</time></trkpt><trkpt lat="40.236827020044856" lon="18.16515322179874"><ele>52.0</ele><time>2026-04-12T16:14:38.004Z</time></trkpt><trkpt lat="40.23663536481245" lon="18.16516570620632"><ele>51.666666666666664</ele><time>2026-04-12T16:14:39.004Z</time></trkpt><trkpt lat="40.23644281888634" lon="18.165179339013992"><ele>51.33333333333333</ele><time>2026-04-12T16:14:40.004Z</time></trkpt><trkpt lat="40.23624913765862" lon="18.16519522195424"><ele>51.0</ele><time>2026-04-12T16:14:41.004Z</time></trkpt><trkpt lat="40.236054464884695" lon="18.165214178780296"><ele>51.0</ele><time>2026-04-12T16:14:42.004Z</time></trkpt><trkpt lat="40.23585848776915" lon="18.165229957487455"><ele>51.0</ele><time>2026-04-12T16:14:43.004Z</time></trkpt><trkpt lat="40.23566039439262" lon="18.16523908866891"><ele>51.0</ele><time>2026-04-12T16:14:44.004Z</time></trkpt><trkpt lat="40.235462724364034" lon="18.165248928304674"><ele>51.33333333333333</ele><time>2026-04-12T16:14:45.004Z</time></trkpt><trkpt lat="40.23526492290827" lon="18.16525783740065"><ele>51.666666666666664</ele><time>2026-04-12T16:14:46.004Z</time></trkpt><trkpt lat="40.23506750574194" lon="18.165268723445916"><ele>52.0</ele><time>2026-04-12T16:14:47.004Z</time></trkpt><trkpt lat="40.234871862405186" lon="18.165280572149662"><ele>51.666666666666664</ele><time>2026-04-12T16:14:48.004Z</time></trkpt><trkpt lat="40.234678275189246" lon="18.16529289395618"><ele>51.33333333333333</ele><time>2026-04-12T16:14:49.004Z</time></trkpt><trkpt lat="40.23447948516276" lon="18.165307745091823"><ele>51.0</ele><time>2026-04-12T16:14:50.004Z</time></trkpt><trkpt lat="40.23428180184803" lon="18.165322588376654"><ele>51.0</ele><time>2026-04-12T16:14:51.004Z</time></trkpt><trkpt lat="40.23408539994134" lon="18.165335442444086"><ele>51.0</ele><time>2026-04-12T16:14:52.004Z</time></trkpt><trkpt lat="40.233889936386795" lon="18.1653444331232"><ele>51.0</ele><time>2026-04-12T16:14:53.004Z</time></trkpt><trkpt lat="40.233695603422454" lon="18.165353643013443"><ele>50.33333333333333</ele><time>2026-04-12T16:14:54.004Z</time></trkpt><trkpt lat="40.233504941719424" lon="18.165363569778798"><ele>49.666666666666664</ele><time>2026-04-12T16:14:55.004Z</time></trkpt><trkpt lat="40.23331602450462" lon="18.165375360034943"><ele>49.0</ele><time>2026-04-12T16:14:56.004Z</time></trkpt><trkpt lat="40.233131187921735" lon="18.16538780451632"><ele>49.0</ele><time>2026-04-12T16:14:57.004Z</time></trkpt><trkpt lat="40.232946207406336" lon="18.16539824314679"><ele>49.0</ele><time>2026-04-12T16:14:58.004Z</time></trkpt><trkpt lat="40.23275900358251" lon="18.16540657100846"><ele>49.0</ele><time>2026-04-12T16:14:59.004Z</time></trkpt><trkpt lat="40.23257518434378" lon="18.165419084675484"><ele>49.0</ele><time>2026-04-12T16:15:00.004Z</time></trkpt><trkpt lat="40.23238667999605" lon="18.16543054354748"><ele>49.0</ele><time>2026-04-12T16:15:01.004Z</time></trkpt><trkpt lat="40.232192485600294" lon="18.165441327106702"><ele>49.0</ele><time>2026-04-12T16:15:02.004Z</time></trkpt><trkpt lat="40.231996046836215" lon="18.165453364463676"><ele>49.666666666666664</ele><time>2026-04-12T16:15:03.004Z</time></trkpt><trkpt lat="40.231803055748664" lon="18.165470241427705"><ele>50.33333333333333</ele><time>2026-04-12T16:15:04.004Z</time></trkpt><trkpt lat="40.23161062773191" lon="18.16548233892649"><ele>51.0</ele><time>2026-04-12T16:15:05.004Z</time></trkpt><trkpt lat="40.231413725117044" lon="18.16549081329818"><ele>51.33333333333333</ele><time>2026-04-12T16:15:06.004Z</time></trkpt><trkpt lat="40.23122103529218" lon="18.165500503915972"><ele>51.666666666666664</ele><time>2026-04-12T16:15:07.004Z</time></trkpt><trkpt lat="40.23102563830959" lon="18.16550987338907"><ele>52.0</ele><time>2026-04-12T16:15:08.004Z</time></trkpt><trkpt lat="40.230834671789495" lon="18.165522380213392"><ele>52.0</ele><time>2026-04-12T16:15:09.004Z</time></trkpt><trkpt lat="40.23063996313051" lon="18.16553425626952"><ele>52.0</ele><time>2026-04-12T16:15:10.004Z</time></trkpt><trkpt lat="40.230446148726394" lon="18.165543008301952"><ele>52.0</ele><time>2026-04-12T16:15:11.004Z</time></trkpt><trkpt lat="40.230252835215786" lon="18.165552207961614"><ele>52.0</ele><time>2026-04-12T16:15:12.004Z</time></trkpt><trkpt lat="40.2300603547916" lon="18.16556296537263"><ele>52.0</ele><time>2026-04-12T16:15:13.004Z</time></trkpt><trkpt lat="40.22986341408204" lon="18.165577364518324"><ele>52.0</ele><time>2026-04-12T16:15:14.004Z</time></trkpt><trkpt lat="40.21894325599309" lon="18.16592290942264"><ele>52.400000000000006</ele><time>2026-04-12T16:16:15.006Z</time></trkpt><trkpt lat="40.218858442822196" lon="18.165880755432642"><ele>52.800000000000004</ele><time>2026-04-12T16:16:16.006Z</time></trkpt><trkpt lat="40.21876791229678" lon="18.165868076098146"><ele>53.2</ele><time>2026-04-12T16:16:17.006Z</time></trkpt><trkpt lat="40.218670200937346" lon="18.165890380241287"><ele>53.6</ele><time>2026-04-12T16:16:18.006Z</time></trkpt><trkpt lat="40.21858639388564" lon="18.165953388931957"><ele>54.0</ele><time>2026-04-12T16:16:19.006Z</time></trkpt><trkpt lat="40.21851697988893" lon="18.1660475855136"><ele>54.0</ele><time>2026-04-12T16:16:20.006Z</time></trkpt><trkpt lat="40.21848492248184" lon="18.16617923197183"><ele>54.00000000000001</ele><time>2026-04-12T16:16:21.006Z</time></trkpt><trkpt lat="40.21847700116666" lon="18.16632441041479"><ele>54.00000000000001</ele><time>2026-04-12T16:16:22.005Z</time></trkpt><trkpt lat="40.218473254941046" lon="18.166469202190164"><ele>54.0</ele><time>2026-04-12T16:16:23.005Z</time></trkpt><trkpt lat="40.21844646062404" lon="18.16658781204371"><ele>54.0</ele><time>2026-04-12T16:16:24.005Z</time></trkpt><trkpt lat="40.218406309211105" lon="18.166696633207327"><ele>54.25</ele><time>2026-04-12T16:16:25.006Z</time></trkpt><trkpt lat="40.218318865876576" lon="18.16680596831923"><ele>54.5</ele><time>2026-04-12T16:16:26.006Z</time></trkpt><trkpt lat="40.21820047965426" lon="18.16691043183752"><ele>54.75</ele><time>2026-04-12T16:16:27.006Z</time></trkpt><trkpt lat="40.218060505602125" lon="18.167027091614532"><ele>55.0</ele><time>2026-04-12T16:16:28.006Z</time></trkpt><trkpt lat="40.21790475776519" lon="18.167162954178963"><ele>54.33333333333333</ele><time>2026-04-12T16:16:29.006Z</time></trkpt><trkpt lat="40.21773351793585" lon="18.167313402477017"><ele>53.66666666666667</ele><time>2026-04-12T16:16:30.006Z</time></trkpt><trkpt lat="40.217563689912666" lon="18.16746340100924"><ele>53.0</ele><time>2026-04-12T16:16:31.006Z</time></trkpt><trkpt lat="40.21739650691181" lon="18.167614862215455"><ele>53.333333333333336</ele><time>2026-04-12T16:16:32.006Z</time></trkpt><trkpt lat="40.21722708421237" lon="18.167764535418048"><ele>53.66666666666667</ele><time>2026-04-12T16:16:33.006Z</time></trkpt><trkpt lat="40.21706145448964" lon="18.167914622417328"><ele>54.0</ele><time>2026-04-12T16:16:34.006Z</time></trkpt><trkpt lat="40.216903846764914" lon="18.168058367156444"><ele>54.0</ele><time>2026-04-12T16:16:35.006Z</time></trkpt><trkpt lat="40.21674089641088" lon="18.16820436672481"><ele>54.0</ele><time>2026-04-12T16:16:36.006Z</time></trkpt><trkpt lat="40.216577840734274" lon="18.168352789233836"><ele>54.0</ele><time>2026-04-12T16:16:37.006Z</time></trkpt><trkpt lat="40.21642331299802" lon="18.168502669425997"><ele>54.33333333333333</ele><time>2026-04-12T16:16:38.006Z</time></trkpt><trkpt lat="40.21627265230241" lon="18.168652415736698"><ele>54.666666666666664</ele><time>2026-04-12T16:16:39.006Z</time></trkpt><trkpt lat="40.216119464952165" lon="18.16880000539328"><ele>55.0</ele><time>2026-04-12T16:16:40.006Z</time></trkpt><trkpt lat="40.21597504880187" lon="18.1689446463065"><ele>55.0</ele><time>2026-04-12T16:16:41.006Z</time></trkpt><trkpt lat="40.21583173598581" lon="18.16908825360493"><ele>55.0</ele><time>2026-04-12T16:16:42.006Z</time></trkpt><trkpt lat="40.21568504413241" lon="18.16922861383635"><ele>55.0</ele><time>2026-04-12T16:16:43.006Z</time></trkpt><trkpt lat="40.21553405262852" lon="18.16937173596841"><ele>55.0</ele><time>2026-04-12T16:16:44.006Z</time></trkpt><trkpt lat="40.21537705537658" lon="18.169517695086892"><ele>55.0</ele><time>2026-04-12T16:16:45.006Z</time></trkpt><trkpt lat="40.215217655683155" lon="18.169670504436606"><ele>55.0</ele><time>2026-04-12T16:16:46.006Z</time></trkpt><trkpt lat="40.21505109955509" lon="18.169829991089195"><ele>55.0</ele><time>2026-04-12T16:16:47.006Z</time></trkpt><trkpt lat="40.21487728597516" lon="18.169995303656346"><ele>55.0</ele><time>2026-04-12T16:16:48.006Z</time></trkpt><trkpt lat="40.214702215756276" lon="18.170161202092473"><ele>55.0</ele><time>2026-04-12T16:16:49.006Z</time></trkpt><trkpt lat="40.21452275506427" lon="18.170327967737535"><ele>55.0</ele><time>2026-04-12T16:16:50.006Z</time></trkpt><trkpt lat="40.21433868207525" lon="18.170495442422645"><ele>55.0</ele><time>2026-04-12T16:16:51.006Z</time></trkpt><trkpt lat="40.21415564738188" lon="18.170666238109764"><ele>55.0</ele><time>2026-04-12T16:16:52.006Z</time></trkpt><trkpt lat="40.21396804924425" lon="18.170837643978913"><ele>55.0</ele><time>2026-04-12T16:16:53.006Z</time></trkpt><trkpt lat="40.21378119563968" lon="18.171009762000534"><ele>55.0</ele><time>2026-04-12T16:16:54.006Z</time></trkpt><trkpt lat="40.213592914637275" lon="18.1711823167768"><ele>55.0</ele><time>2026-04-12T16:16:55.006Z</time></trkpt><trkpt lat="40.21339965467769" lon="18.171359906744122"><ele>55.0</ele><time>2026-04-12T16:16:56.006Z</time></trkpt><trkpt lat="40.21320800168742" lon="18.171532722653026"><ele>56.5</ele><time>2026-04-12T16:16:57.006Z</time></trkpt><trkpt lat="40.213016537515344" lon="18.171704356331457"><ele>58.0</ele><time>2026-04-12T16:16:58.006Z</time></trkpt><trkpt lat="40.21282084926228" lon="18.171881024257644"><ele>58.0</ele><time>2026-04-12T16:16:59.006Z</time></trkpt><trkpt lat="40.21262441666279" lon="18.172056260092745"><ele>58.0</ele><time>2026-04-12T16:17:00.006Z</time></trkpt><trkpt lat="40.21242507280849" lon="18.17222625156666"><ele>57.5</ele><time>2026-04-12T16:17:01.006Z</time></trkpt><trkpt lat="40.21221409893681" lon="18.17238241197721"><ele>57.0</ele><time>2026-04-12T16:17:02.006Z</time></trkpt><trkpt lat="40.21199744470773" lon="18.172521149939307"><ele>57.0</ele><time>2026-04-12T16:17:03.006Z</time></trkpt><trkpt lat="40.21177305379598" lon="18.172639776062372"><ele>57.0</ele><time>2026-04-12T16:17:04.006Z</time></trkpt><trkpt lat="40.21154802182181" lon="18.172745196732116"><ele>57.5</ele><time>2026-04-12T16:17:05.006Z</time></trkpt><trkpt lat="40.21132560684393" lon="18.172843960743258"><ele>58.0</ele><time>2026-04-12T16:17:06.006Z</time></trkpt><trkpt lat="40.21110514136463" lon="18.172942250335353"><ele>58.0</ele><time>2026-04-12T16:17:07.006Z</time></trkpt><trkpt lat="40.21088427232963" lon="18.173041415855682"><ele>58.0</ele><time>2026-04-12T16:17:08.006Z</time></trkpt><trkpt lat="40.21066145977621" lon="18.173141571936753"><ele>59.0</ele><time>2026-04-12T16:17:09.006Z</time></trkpt><trkpt lat="40.21043861349575" lon="18.173243793561642"><ele>60.0</ele><time>2026-04-12T16:17:10.006Z</time></trkpt><trkpt lat="40.21021279157451" lon="18.173347637352954"><ele>60.0</ele><time>2026-04-12T16:17:11.006Z</time></trkpt><trkpt lat="40.20998576838089" lon="18.17345011933779"><ele>60.0</ele><time>2026-04-12T16:17:12.006Z</time></trkpt><trkpt lat="40.209759139239154" lon="18.173549895915496"><ele>60.0</ele><time>2026-04-12T16:17:13.006Z</time></trkpt><trkpt lat="40.20952992942521" lon="18.173650947733407"><ele>60.0</ele><time>2026-04-12T16:17:14.006Z</time></trkpt><trkpt lat="40.19785395094405" lon="18.1787089924396"><ele>62.0</ele><time>2026-04-12T16:18:15.006Z</time></trkpt><trkpt lat="40.19765209799037" lon="18.178796657695145"><ele>64.0</ele><time>2026-04-12T16:18:16.006Z</time></trkpt><trkpt lat="40.19745357735836" lon="18.178888450345248"><ele>66.0</ele><time>2026-04-12T16:18:17.006Z</time></trkpt><trkpt lat="40.19725783473686" lon="18.178990653208594"><ele>66.33333333333333</ele><time>2026-04-12T16:18:18.006Z</time></trkpt><trkpt lat="40.19706212459786" lon="18.179098998153354"><ele>66.66666666666666</ele><time>2026-04-12T16:18:19.006Z</time></trkpt><trkpt lat="40.196881580148585" lon="18.17923003090341"><ele>67.0</ele><time>2026-04-12T16:18:20.006Z</time></trkpt><trkpt lat="40.19668839542512" lon="18.179353254325317"><ele>67.0</ele><time>2026-04-12T16:18:21.006Z</time></trkpt><trkpt lat="40.19649235026291" lon="18.179499862479304"><ele>67.0</ele><time>2026-04-12T16:18:22.005Z</time></trkpt><trkpt lat="40.19630865496615" lon="18.17965106800368"><ele>67.0</ele><time>2026-04-12T16:18:23.005Z</time></trkpt><trkpt lat="40.196123509122" lon="18.179794151854423"><ele>67.33333333333333</ele><time>2026-04-12T16:18:24.006Z</time></trkpt><trkpt lat="40.19593623867148" lon="18.179933929258244"><ele>67.66666666666667</ele><time>2026-04-12T16:18:25.006Z</time></trkpt><trkpt lat="40.19575138149594" lon="18.180069162155657"><ele>68.0</ele><time>2026-04-12T16:18:26.006Z</time></trkpt><trkpt lat="40.195585391239646" lon="18.18020229637389"><ele>68.0</ele><time>2026-04-12T16:18:27.006Z</time></trkpt><trkpt lat="40.195425245205556" lon="18.180334385792673"><ele>68.0</ele><time>2026-04-12T16:18:28.005Z</time></trkpt><trkpt lat="40.1952579125712" lon="18.180445764659318"><ele>68.0</ele><time>2026-04-12T16:18:29.005Z</time></trkpt><trkpt lat="40.19510553710681" lon="18.180557525478136"><ele>68.0</ele><time>2026-04-12T16:18:30.006Z</time></trkpt><trkpt lat="40.19496245692834" lon="18.180667514263696"><ele>68.0</ele><time>2026-04-12T16:18:31.005Z</time></trkpt><trkpt lat="40.19481688184539" lon="18.18076661774168"><ele>68.0</ele><time>2026-04-12T16:18:32.005Z</time></trkpt><trkpt lat="40.194675565506216" lon="18.180861602317883"><ele>68.0</ele><time>2026-04-12T16:18:33.006Z</time></trkpt><trkpt lat="40.19453455521733" lon="18.18096223179437"><ele>68.0</ele><time>2026-04-12T16:18:34.006Z</time></trkpt><trkpt lat="40.194401560659884" lon="18.18105376748277"><ele>68.0</ele><time>2026-04-12T16:18:35.006Z</time></trkpt><trkpt lat="40.19427729134153" lon="18.1811357123834"><ele>68.0</ele><time>2026-04-12T16:18:36.006Z</time></trkpt><trkpt lat="40.194172455017004" lon="18.18120857929549"><ele>68.0</ele><time>2026-04-12T16:18:37.006Z</time></trkpt><trkpt lat="40.19407768295784" lon="18.181258431293976"><ele>68.0</ele><time>2026-04-12T16:18:38.006Z</time></trkpt><trkpt lat="40.19397493906976" lon="18.18126880636647"><ele>68.0</ele><time>2026-04-12T16:18:39.006Z</time></trkpt><trkpt lat="40.193863474719315" lon="18.181252119877716"><ele>68.0</ele><time>2026-04-12T16:18:40.006Z</time></trkpt><trkpt lat="40.19376192864711" lon="18.181201659841136"><ele>68.0</ele><time>2026-04-12T16:18:41.006Z</time></trkpt><trkpt lat="40.19367977735016" lon="18.18116756432241"><ele>68.0</ele><time>2026-04-12T16:18:42.006Z</time></trkpt><trkpt lat="40.19359703920716" lon="18.181166710514912"><ele>68.0</ele><time>2026-04-12T16:18:43.006Z</time></trkpt><trkpt lat="40.19351597822226" lon="18.18119709003547"><ele>68.0</ele><time>2026-04-12T16:18:44.006Z</time></trkpt><trkpt lat="40.19343892349864" lon="18.181261734177113"><ele>68.0</ele><time>2026-04-12T16:18:45.006Z</time></trkpt><trkpt lat="40.193376143961046" lon="18.18136527364376"><ele>68.0</ele><time>2026-04-12T16:18:46.006Z</time></trkpt><trkpt lat="40.19332184186081" lon="18.181484339291103"><ele>68.16666666666667</ele><time>2026-04-12T16:18:47.006Z</time></trkpt><trkpt lat="40.193279938877794" lon="18.18159922595443"><ele>68.33333333333334</ele><time>2026-04-12T16:18:48.006Z</time></trkpt><trkpt lat="40.193240382916855" lon="18.18169980484944"><ele>68.5</ele><time>2026-04-12T16:18:49.006Z</time></trkpt><trkpt lat="40.19319548358853" lon="18.18179006979445"><ele>68.66666666666667</ele><time>2026-04-12T16:18:50.006Z</time></trkpt><trkpt lat="40.193132060878334" lon="18.181865995915235"><ele>68.83333333333333</ele><time>2026-04-12T16:18:51.006Z</time></trkpt><trkpt lat="40.19305171798197" lon="18.181931019374137"><ele>69.0</ele><time>2026-04-12T16:18:52.006Z</time></trkpt><trkpt lat="40.19294995862144" lon="18.18198836960006"><ele>69.66666666666667</ele><time>2026-04-12T16:18:53.006Z</time></trkpt><trkpt lat="40.192823471230746" lon="18.182048114683848"><ele>70.33333333333334</ele><time>2026-04-12T16:18:54.006Z</time></trkpt><trkpt lat="40.1926613051397" lon="18.182112395060567"><ele>71.0</ele><time>2026-04-12T16:18:55.006Z</time></trkpt><trkpt lat="40.192485230631846" lon="18.182180955581902"><ele>70.66666666666667</ele><time>2026-04-12T16:18:56.006Z</time></trkpt><trkpt lat="40.19230790378746" lon="18.182248237572452"><ele>70.33333333333333</ele><time>2026-04-12T16:18:57.006Z</time></trkpt><trkpt lat="40.19213206037212" lon="18.18232312823253"><ele>70.0</ele><time>2026-04-12T16:18:58.006Z</time></trkpt><trkpt lat="40.19195899163526" lon="18.182396709391195"><ele>70.0</ele><time>2026-04-12T16:18:59.006Z</time></trkpt><trkpt lat="40.19178301510286" lon="18.182483232609375"><ele>70.0</ele><time>2026-04-12T16:19:00.006Z</time></trkpt><trkpt lat="40.19158798523064" lon="18.182573466391922"><ele>70.0</ele><time>2026-04-12T16:19:01.006Z</time></trkpt><trkpt lat="40.19138310502679" lon="18.18266060738137"><ele>69.66666666666666</ele><time>2026-04-12T16:19:02.006Z</time></trkpt><trkpt lat="40.19118459472115" lon="18.182749805938727"><ele>69.33333333333333</ele><time>2026-04-12T16:19:03.006Z</time></trkpt><trkpt lat="40.19098955962717" lon="18.18283623760499"><ele>69.0</ele><time>2026-04-12T16:19:04.006Z</time></trkpt><trkpt lat="40.190800500263386" lon="18.182916989774196"><ele>68.33333333333333</ele><time>2026-04-12T16:19:05.006Z</time></trkpt><trkpt lat="40.19061717400768" lon="18.18300308638417"><ele>67.66666666666666</ele><time>2026-04-12T16:19:06.006Z</time></trkpt><trkpt lat="40.19043031784458" lon="18.18308716054451"><ele>67.0</ele><time>2026-04-12T16:19:07.006Z</time></trkpt><trkpt lat="40.19024768174857" lon="18.18317067832041"><ele>67.0</ele><time>2026-04-12T16:19:08.006Z</time></trkpt><trkpt lat="40.19006150865361" lon="18.183256138844538"><ele>67.0</ele><time>2026-04-12T16:19:09.006Z</time></trkpt><trkpt lat="40.189878226072864" lon="18.18333896766362"><ele>67.0</ele><time>2026-04-12T16:19:10.006Z</time></trkpt><trkpt lat="40.18969092748883" lon="18.183404834887032"><ele>67.66666666666666</ele><time>2026-04-12T16:19:11.006Z</time></trkpt><trkpt lat="40.189509510464966" lon="18.18346713847656"><ele>68.33333333333333</ele><time>2026-04-12T16:19:12.006Z</time></trkpt><trkpt lat="40.18933693007811" lon="18.183530647845004"><ele>69.0</ele><time>2026-04-12T16:19:13.006Z</time></trkpt><trkpt lat="40.18915638200019" lon="18.18359494278849"><ele>72.0</ele><time>2026-04-12T16:19:14.006Z</time></trkpt><trkpt lat="40.18043108344916" lon="18.191154197557253"><ele>72.0</ele><time>2026-04-12T16:20:15.006Z</time></trkpt><trkpt lat="40.18024083123761" lon="18.19130214009094"><ele>72.0</ele><time>2026-04-12T16:20:16.006Z</time></trkpt><trkpt lat="40.18004800317659" lon="18.19145008952369"><ele>72.0</ele><time>2026-04-12T16:20:17.006Z</time></trkpt><trkpt lat="40.179866684719926" lon="18.19160384996504"><ele>72.0</ele><time>2026-04-12T16:20:18.006Z</time></trkpt><trkpt lat="40.17968358154406" lon="18.191751528128954"><ele>72.0</ele><time>2026-04-12T16:20:19.006Z</time></trkpt><trkpt lat="40.17950371033777" lon="18.19189855158749"><ele>72.0</ele><time>2026-04-12T16:20:20.006Z</time></trkpt><trkpt lat="40.17932592915017" lon="18.192044828012257"><ele>72.0</ele><time>2026-04-12T16:20:21.006Z</time></trkpt><trkpt lat="40.179148962655546" lon="18.19218772888269"><ele>72.0</ele><time>2026-04-12T16:20:22.006Z</time></trkpt><trkpt lat="40.17897761299119" lon="18.192335699720093"><ele>72.0</ele><time>2026-04-12T16:20:23.006Z</time></trkpt><trkpt lat="40.17883201171902" lon="18.192502693484425"><ele>72.33333333333333</ele><time>2026-04-12T16:20:24.006Z</time></trkpt><trkpt lat="40.178736478794065" lon="18.192716243303074"><ele>72.66666666666666</ele><time>2026-04-12T16:20:25.006Z</time></trkpt><trkpt lat="40.17870880944863" lon="18.192973793951754"><ele>73.0</ele><time>2026-04-12T16:20:26.006Z</time></trkpt><trkpt lat="40.17876345729918" lon="18.19323011648566"><ele>72.0</ele><time>2026-04-12T16:20:27.006Z</time></trkpt><trkpt lat="40.17804805820349" lon="18.192993853413796"><ele>72.0</ele><time>2026-04-12T16:20:28.006Z</time></trkpt><trkpt lat="40.17785272073512" lon="18.193104302706878"><ele>72.0</ele><time>2026-04-12T16:20:29.006Z</time></trkpt><trkpt lat="40.177654305519674" lon="18.19320367567284"><ele>72.0</ele><time>2026-04-12T16:20:30.006Z</time></trkpt><trkpt lat="40.17744809963066" lon="18.193291516619613"><ele>72.0</ele><time>2026-04-12T16:20:31.006Z</time></trkpt><trkpt lat="40.17723952632123" lon="18.19336729257907"><ele>72.0</ele><time>2026-04-12T16:20:32.006Z</time></trkpt><trkpt lat="40.17702419624543" lon="18.19343123813648"><ele>72.0</ele><time>2026-04-12T16:20:33.006Z</time></trkpt><trkpt lat="40.17680307431915" lon="18.193489730943224"><ele>72.0</ele><time>2026-04-12T16:20:34.006Z</time></trkpt><trkpt lat="40.17657239533403" lon="18.193540640939187"><ele>72.0</ele><time>2026-04-12T16:20:35.006Z</time></trkpt><trkpt lat="40.17633798828793" lon="18.193588436842106"><ele>72.0</ele><time>2026-04-12T16:20:36.006Z</time></trkpt><trkpt lat="40.17610300423533" lon="18.19363956458779"><ele>72.0</ele><time>2026-04-12T16:20:37.006Z</time></trkpt><trkpt lat="40.175868233135844" lon="18.19369000090158"><ele>71.5</ele><time>2026-04-12T16:20:38.006Z</time></trkpt><trkpt lat="40.17563604198103" lon="18.19374026241863"><ele>71.0</ele><time>2026-04-12T16:20:39.006Z</time></trkpt><trkpt lat="40.17540511432631" lon="18.19378948441635"><ele>71.0</ele><time>2026-04-12T16:20:40.006Z</time></trkpt><trkpt lat="40.175177382007426" lon="18.193837900624512"><ele>71.0</ele><time>2026-04-12T16:20:41.006Z</time></trkpt><trkpt lat="40.17496717079799" lon="18.193883838617612"><ele>71.0</ele><time>2026-04-12T16:20:42.006Z</time></trkpt><trkpt lat="40.17476899155688" lon="18.193929094516207"><ele>71.0</ele><time>2026-04-12T16:20:43.006Z</time></trkpt><trkpt lat="40.174576976351226" lon="18.193967855515485"><ele>71.0</ele><time>2026-04-12T16:20:44.006Z</time></trkpt><trkpt lat="40.174384769512756" lon="18.194004202724457"><ele>71.0</ele><time>2026-04-12T16:20:45.006Z</time></trkpt><trkpt lat="40.174194162811894" lon="18.19404023476822"><ele>71.33333333333334</ele><time>2026-04-12T16:20:46.006Z</time></trkpt><trkpt lat="40.174005964598635" lon="18.194066037678578"><ele>71.66666666666667</ele><time>2026-04-12T16:20:47.006Z</time></trkpt><trkpt lat="40.17381796124664" lon="18.19408219509135"><ele>72.0</ele><time>2026-04-12T16:20:48.006Z</time></trkpt><trkpt lat="40.173631764416925" lon="18.194072502704863"><ele>72.0</ele><time>2026-04-12T16:20:49.006Z</time></trkpt><trkpt lat="40.17343854813738" lon="18.19404245908931"><ele>72.0</ele><time>2026-04-12T16:20:50.006Z</time></trkpt><trkpt lat="40.17324382737589" lon="18.193978941706817"><ele>72.0</ele><time>2026-04-12T16:20:51.006Z</time></trkpt><trkpt lat="40.17304717208118" lon="18.193929061881903"><ele>71.66666666666667</ele><time>2026-04-12T16:20:52.006Z</time></trkpt><trkpt lat="40.17285294712294" lon="18.19386202904785"><ele>71.33333333333334</ele><time>2026-04-12T16:20:53.006Z</time></trkpt><trkpt lat="40.172662914489834" lon="18.193780713829412"><ele>71.0</ele><time>2026-04-12T16:20:54.006Z</time></trkpt><trkpt lat="40.17247507826895" lon="18.193678940136905"><ele>70.0</ele><time>2026-04-12T16:20:55.006Z</time></trkpt><trkpt lat="40.17228722115384" lon="18.19356579001927"><ele>69.0</ele><time>2026-04-12T16:20:56.006Z</time></trkpt><trkpt lat="40.1721003604915" lon="18.19344704393336"><ele>68.0</ele><time>2026-04-12T16:20:57.006Z</time></trkpt><trkpt lat="40.171934188956826" lon="18.193332972956913"><ele>68.0</ele><time>2026-04-12T16:20:58.006Z</time></trkpt><trkpt lat="40.17178514166614" lon="18.193218348949486"><ele>68.0</ele><time>2026-04-12T16:20:59.006Z</time></trkpt><trkpt lat="40.17165274203725" lon="18.19311504864682"><ele>68.0</ele><time>2026-04-12T16:21:00.006Z</time></trkpt><trkpt lat="40.17152768787807" lon="18.193028702508517"><ele>68.4</ele><time>2026-04-12T16:21:01.006Z</time></trkpt><trkpt lat="40.17142415197339" lon="18.192959854360996"><ele>68.8</ele><time>2026-04-12T16:21:02.006Z</time></trkpt><trkpt lat="40.17133049784809" lon="18.19289365110793"><ele>69.2</ele><time>2026-04-12T16:21:03.006Z</time></trkpt><trkpt lat="40.17124657024453" lon="18.192829572802875"><ele>69.6</ele><time>2026-04-12T16:21:04.006Z</time></trkpt><trkpt lat="40.17117584315777" lon="18.192775408199545"><ele>70.0</ele><time>2026-04-12T16:21:05.006Z</time></trkpt><trkpt lat="40.17112172164351" lon="18.192702077136197"><ele>70.0</ele><time>2026-04-12T16:21:06.006Z</time></trkpt><trkpt lat="40.17107649683282" lon="18.192605689347186"><ele>70.0</ele><time>2026-04-12T16:21:07.006Z</time></trkpt><trkpt lat="40.17102951807588" lon="18.192487351461555"><ele>70.0</ele><time>2026-04-12T16:21:08.006Z</time></trkpt><trkpt lat="40.1709833622736" lon="18.19236359985488"><ele>70.0</ele><time>2026-04-12T16:21:09.006Z</time></trkpt><trkpt lat="40.170932849609" lon="18.19226607663589"><ele>70.0</ele><time>2026-04-12T16:21:10.006Z</time></trkpt><trkpt lat="40.17086516421106" lon="18.192193564921933"><ele>70.0</ele><time>2026-04-12T16:21:11.006Z</time></trkpt><trkpt lat="40.17078406755794" lon="18.192151407671002"><ele>70.0</ele><time>2026-04-12T16:21:12.006Z</time></trkpt><trkpt lat="40.17069416502458" lon="18.19213292030595"><ele>70.0</ele><time>2026-04-12T16:21:13.006Z</time></trkpt><trkpt lat="40.170602774210046" lon="18.19214247181481"><ele>70.0</ele><time>2026-04-12T16:21:14.006Z</time></trkpt><trkpt lat="40.15950267830574" lon="18.185278475590323"><ele>69.33333333333333</ele><time>2026-04-12T16:22:15.006Z</time></trkpt><trkpt lat="40.15928591054217" lon="18.18522598213228"><ele>68.66666666666667</ele><time>2026-04-12T16:22:16.006Z</time></trkpt><trkpt lat="40.15906200988523" lon="18.185181818834028"><ele>68.0</ele><time>2026-04-12T16:22:17.006Z</time></trkpt><trkpt lat="40.15884019422453" lon="18.185150760449055"><ele>68.0</ele><time>2026-04-12T16:22:18.006Z</time></trkpt><trkpt lat="40.1586139570364" lon="18.18513302103565"><ele>68.0</ele><time>2026-04-12T16:22:19.006Z</time></trkpt><trkpt lat="40.15838869359997" lon="18.18511982301261"><ele>68.5</ele><time>2026-04-12T16:22:20.006Z</time></trkpt><trkpt lat="40.15815210923285" lon="18.185118673007583"><ele>69.0</ele><time>2026-04-12T16:22:21.006Z</time></trkpt><trkpt lat="40.157913928270936" lon="18.185134995705063"><ele>69.0</ele><time>2026-04-12T16:22:22.006Z</time></trkpt><trkpt lat="40.157673445393954" lon="18.18515830700384"><ele>69.0</ele><time>2026-04-12T16:22:23.006Z</time></trkpt><trkpt lat="40.15743645761602" lon="18.185188989463388"><ele>69.0</ele><time>2026-04-12T16:22:24.006Z</time></trkpt><trkpt lat="40.15719845407026" lon="18.185216417261554"><ele>69.0</ele><time>2026-04-12T16:22:25.006Z</time></trkpt><trkpt lat="40.15695778418449" lon="18.185231160423132"><ele>69.0</ele><time>2026-04-12T16:22:26.006Z</time></trkpt><trkpt lat="40.15671477436962" lon="18.185236788585563"><ele>69.0</ele><time>2026-04-12T16:22:27.006Z</time></trkpt><trkpt lat="40.156472273488774" lon="18.185224178244408"><ele>68.5</ele><time>2026-04-12T16:22:28.006Z</time></trkpt><trkpt lat="40.156235480047904" lon="18.185191207766906"><ele>68.0</ele><time>2026-04-12T16:22:29.006Z</time></trkpt><trkpt lat="40.15599397689626" lon="18.185158264549397"><ele>68.0</ele><time>2026-04-12T16:22:30.006Z</time></trkpt><trkpt lat="40.15575944837061" lon="18.18511719172303"><ele>68.0</ele><time>2026-04-12T16:22:31.006Z</time></trkpt><trkpt lat="40.15552144854753" lon="18.185059800654685"><ele>68.0</ele><time>2026-04-12T16:22:32.006Z</time></trkpt><trkpt lat="40.15528031699236" lon="18.184970377693524"><ele>68.0</ele><time>2026-04-12T16:22:33.007Z</time></trkpt><trkpt lat="40.155048872284134" lon="18.18486670344862"><ele>68.0</ele><time>2026-04-12T16:22:34.007Z</time></trkpt><trkpt lat="40.15482017813984" lon="18.184749062556897"><ele>68.0</ele><time>2026-04-12T16:22:35.007Z</time></trkpt><trkpt lat="40.154598005238114" lon="18.184626679511094"><ele>68.0</ele><time>2026-04-12T16:22:36.006Z</time></trkpt><trkpt lat="40.154380930576025" lon="18.184488485737653"><ele>68.0</ele><time>2026-04-12T16:22:37.006Z</time></trkpt><trkpt lat="40.15416321122311" lon="18.18433689654068"><ele>69.0</ele><time>2026-04-12T16:22:38.006Z</time></trkpt><trkpt lat="40.15395024131238" lon="18.184171148840555"><ele>70.0</ele><time>2026-04-12T16:22:39.006Z</time></trkpt><trkpt lat="40.153744679439555" lon="18.183994519895506"><ele>70.0</ele><time>2026-04-12T16:22:40.006Z</time></trkpt><trkpt lat="40.153541666357185" lon="18.183804167911322"><ele>70.0</ele><time>2026-04-12T16:22:41.006Z</time></trkpt><trkpt lat="40.15334793150813" lon="18.183610072950298"><ele>69.5</ele><time>2026-04-12T16:22:42.006Z</time></trkpt><trkpt lat="40.153163548658846" lon="18.183397593806053"><ele>69.0</ele><time>2026-04-12T16:22:43.006Z</time></trkpt><trkpt lat="40.152987016746906" lon="18.18318171489486"><ele>69.0</ele><time>2026-04-12T16:22:44.006Z</time></trkpt><trkpt lat="40.15281730933345" lon="18.182949718794358"><ele>69.0</ele><time>2026-04-12T16:22:45.006Z</time></trkpt><trkpt lat="40.15265660893335" lon="18.182706621810674"><ele>69.0</ele><time>2026-04-12T16:22:46.006Z</time></trkpt><trkpt lat="40.15250465100209" lon="18.18246051914006"><ele>69.0</ele><time>2026-04-12T16:22:47.006Z</time></trkpt><trkpt lat="40.15236130052374" lon="18.182200534344314"><ele>70.5</ele><time>2026-04-12T16:22:48.006Z</time></trkpt><trkpt lat="40.15221841023975" lon="18.181942037372323"><ele>72.0</ele><time>2026-04-12T16:22:49.006Z</time></trkpt><trkpt lat="40.1520823047947" lon="18.181684673881875"><ele>72.66666666666667</ele><time>2026-04-12T16:22:50.006Z</time></trkpt><trkpt lat="40.15195593890836" lon="18.181441575971654"><ele>73.33333333333334</ele><time>2026-04-12T16:22:51.006Z</time></trkpt><trkpt lat="40.15183946496941" lon="18.18122235405312"><ele>74.0</ele><time>2026-04-12T16:22:52.006Z</time></trkpt><trkpt lat="40.151733775696364" lon="18.18102189974037"><ele>74.0</ele><time>2026-04-12T16:22:53.006Z</time></trkpt><trkpt lat="40.151648030251245" lon="18.180858756906776"><ele>74.0</ele><time>2026-04-12T16:22:54.006Z</time></trkpt><trkpt lat="40.151574832947816" lon="18.18072220001012"><ele>74.0</ele><time>2026-04-12T16:22:55.006Z</time></trkpt><trkpt lat="40.151515877882154" lon="18.180598068585546"><ele>74.0</ele><time>2026-04-12T16:22:56.006Z</time></trkpt><trkpt lat="40.151472646663514" lon="18.18048758653396"><ele>73.60000000000001</ele><time>2026-04-12T16:22:57.006Z</time></trkpt><trkpt lat="40.15145567662879" lon="18.180392465203642"><ele>73.2</ele><time>2026-04-12T16:22:58.006Z</time></trkpt><trkpt lat="40.15146014654172" lon="18.180251301202336"><ele>72.80000000000001</ele><time>2026-04-12T16:23:00.006Z</time></trkpt><trkpt lat="40.15145954332809" lon="18.180067261347737"><ele>72.4</ele><time>2026-04-12T16:23:02.006Z</time></trkpt><trkpt lat="40.15143506066604" lon="18.17996691126023"><ele>72.0</ele><time>2026-04-12T16:23:03.006Z</time></trkpt><trkpt lat="40.151387252874294" lon="18.179883546758884"><ele>71.75</ele><time>2026-04-12T16:23:04.006Z</time></trkpt><trkpt lat="40.15130966591383" lon="18.179817413728745"><ele>71.5</ele><time>2026-04-12T16:23:05.006Z</time></trkpt><trkpt lat="40.15119963897817" lon="18.179747576777338"><ele>71.25</ele><time>2026-04-12T16:23:06.006Z</time></trkpt><trkpt lat="40.151070947111066" lon="18.179664968601024"><ele>71.0</ele><time>2026-04-12T16:23:07.006Z</time></trkpt><trkpt lat="40.15093873167704" lon="18.179561099065012"><ele>71.0</ele><time>2026-04-12T16:23:08.006Z</time></trkpt><trkpt lat="40.15079793521021" lon="18.179409986122298"><ele>71.0</ele><time>2026-04-12T16:23:09.006Z</time></trkpt><trkpt lat="40.150634847360244" lon="18.179221673831343"><ele>71.0</ele><time>2026-04-12T16:23:10.006Z</time></trkpt><trkpt lat="40.150470578251806" lon="18.17902061700447"><ele>69.5</ele><time>2026-04-12T16:23:11.006Z</time></trkpt><trkpt lat="40.15030102006862" lon="18.178819878713494"><ele>68.0</ele><time>2026-04-12T16:23:12.006Z</time></trkpt><trkpt lat="40.15012198589281" lon="18.17860880390635"><ele>68.0</ele><time>2026-04-12T16:23:13.006Z</time></trkpt><trkpt lat="40.14994004575351" lon="18.17838833962407"><ele>68.0</ele><time>2026-04-12T16:23:14.006Z</time></trkpt><trkpt lat="40.139557798613374" lon="18.16662302807445"><ele>68.2</ele><time>2026-04-12T16:24:15.006Z</time></trkpt><trkpt lat="40.13947811818444" lon="18.166568492866304"><ele>68.4</ele><time>2026-04-12T16:24:16.006Z</time></trkpt><trkpt lat="40.13938627149905" lon="18.16654092501798"><ele>68.60000000000001</ele><time>2026-04-12T16:24:17.006Z</time></trkpt><trkpt lat="40.139286110169195" lon="18.166554565040634"><ele>68.8</ele><time>2026-04-12T16:24:18.006Z</time></trkpt><trkpt lat="40.13918710236405" lon="18.166607480433807"><ele>69.0</ele><time>2026-04-12T16:24:19.006Z</time></trkpt><trkpt lat="40.13908804044176" lon="18.16669858405403"><ele>69.0</ele><time>2026-04-12T16:24:20.006Z</time></trkpt><trkpt lat="40.138979758971224" lon="18.16680494587676"><ele>69.0</ele><time>2026-04-12T16:24:21.006Z</time></trkpt><trkpt lat="40.138879800434474" lon="18.16688601320296"><ele>69.0</ele><time>2026-04-12T16:24:22.006Z</time></trkpt><trkpt lat="40.13878250627826" lon="18.1669149752501"><ele>69.0</ele><time>2026-04-12T16:24:23.006Z</time></trkpt><trkpt lat="40.1386810882683" lon="18.166914040835465"><ele>69.0</ele><time>2026-04-12T16:24:24.006Z</time></trkpt><trkpt lat="40.13857558315849" lon="18.16691142179646"><ele>69.0</ele><time>2026-04-12T16:24:25.006Z</time></trkpt><trkpt lat="40.13847053731299" lon="18.16689259932989"><ele>69.0</ele><time>2026-04-12T16:24:26.006Z</time></trkpt><trkpt lat="40.1384052583141" lon="18.166858752577436"><ele>69.0</ele><time>2026-04-12T16:24:27.006Z</time></trkpt><trkpt lat="40.13834860015854" lon="18.166805688859686"><ele>69.0</ele><time>2026-04-12T16:24:28.006Z</time></trkpt><trkpt lat="40.138293075482174" lon="18.166733387098436"><ele>69.0</ele><time>2026-04-12T16:24:29.006Z</time></trkpt><trkpt lat="40.13823398250665" lon="18.166665236603222"><ele>69.2</ele><time>2026-04-12T16:24:30.006Z</time></trkpt><trkpt lat="40.13817140314548" lon="18.16663674248953"><ele>69.4</ele><time>2026-04-12T16:24:31.006Z</time></trkpt><trkpt lat="40.138098986353135" lon="18.166641301580864"><ele>69.6</ele><time>2026-04-12T16:24:32.006Z</time></trkpt><trkpt lat="40.1379974994736" lon="18.166665598836627"><ele>69.8</ele><time>2026-04-12T16:24:33.006Z</time></trkpt><trkpt lat="40.137852128751994" lon="18.16672098068412"><ele>70.0</ele><time>2026-04-12T16:24:34.006Z</time></trkpt><trkpt lat="40.13768291028761" lon="18.166771719009525"><ele>70.0</ele><time>2026-04-12T16:24:35.006Z</time></trkpt><trkpt lat="40.137487381862876" lon="18.16680917786334"><ele>70.0</ele><time>2026-04-12T16:24:36.006Z</time></trkpt><trkpt lat="40.13727860658278" lon="18.166826414623024"><ele>70.0</ele><time>2026-04-12T16:24:37.006Z</time></trkpt><trkpt lat="40.1370663686801" lon="18.16682649706262"><ele>71.5</ele><time>2026-04-12T16:24:38.006Z</time></trkpt><trkpt lat="40.13684371021986" lon="18.16680750335341"><ele>73.0</ele><time>2026-04-12T16:24:39.006Z</time></trkpt><trkpt lat="40.13659437323871" lon="18.166785815200324"><ele>72.5</ele><time>2026-04-12T16:24:40.006Z</time></trkpt><trkpt lat="40.13632419069608" lon="18.16676252489343"><ele>72.0</ele><time>2026-04-12T16:24:41.006Z</time></trkpt><trkpt lat="40.136042615099974" lon="18.166741837436057"><ele>72.0</ele><time>2026-04-12T16:24:42.007Z</time></trkpt><trkpt lat="40.135748251291055" lon="18.166713754509868"><ele>72.0</ele><time>2026-04-12T16:24:43.007Z</time></trkpt><trkpt lat="40.13544995723821" lon="18.166693287062092"><ele>72.5</ele><time>2026-04-12T16:24:44.007Z</time></trkpt><trkpt lat="40.1351560720058" lon="18.166670079826485"><ele>73.0</ele><time>2026-04-12T16:24:45.007Z</time></trkpt><trkpt lat="40.13486534623737" lon="18.166647873134487"><ele>73.0</ele><time>2026-04-12T16:24:46.007Z</time></trkpt><trkpt lat="40.134581717253255" lon="18.166636160538566"><ele>73.0</ele><time>2026-04-12T16:24:47.007Z</time></trkpt><trkpt lat="40.13429507385027" lon="18.166622286834052"><ele>73.5</ele><time>2026-04-12T16:24:48.007Z</time></trkpt><trkpt lat="40.134005895857776" lon="18.16661239440375"><ele>74.0</ele><time>2026-04-12T16:24:49.007Z</time></trkpt><trkpt lat="40.13371041515489" lon="18.166590027050137"><ele>74.0</ele><time>2026-04-12T16:24:50.007Z</time></trkpt><trkpt lat="40.13341416472708" lon="18.16656897598121"><ele>74.0</ele><time>2026-04-12T16:24:51.007Z</time></trkpt><trkpt lat="40.133120030115215" lon="18.166549592597296"><ele>73.0</ele><time>2026-04-12T16:24:52.006Z</time></trkpt><trkpt lat="40.13282357158681" lon="18.16653349359085"><ele>72.0</ele><time>2026-04-12T16:24:53.006Z</time></trkpt><trkpt lat="40.13252119577524" lon="18.16651098589222"><ele>72.5</ele><time>2026-04-12T16:24:54.006Z</time></trkpt><trkpt lat="40.13221724986409" lon="18.166487166881087"><ele>73.0</ele><time>2026-04-12T16:24:55.006Z</time></trkpt><trkpt lat="40.13191004758409" lon="18.16646813644236"><ele>73.0</ele><time>2026-04-12T16:24:56.006Z</time></trkpt><trkpt lat="40.13160527018515" lon="18.16645422683369"><ele>73.0</ele><time>2026-04-12T16:24:57.006Z</time></trkpt><trkpt lat="40.13129985388387" lon="18.166428219060332"><ele>73.5</ele><time>2026-04-12T16:24:58.006Z</time></trkpt><trkpt lat="40.13098529537384" lon="18.166407870092648"><ele>74.0</ele><time>2026-04-12T16:24:59.006Z</time></trkpt><trkpt lat="40.13067031370704" lon="18.16639078470625"><ele>74.0</ele><time>2026-04-12T16:25:00.006Z</time></trkpt><trkpt lat="40.130360862867946" lon="18.166370895278853"><ele>74.0</ele><time>2026-04-12T16:25:01.006Z</time></trkpt><trkpt lat="40.130074246872184" lon="18.16635591819419"><ele>74.0</ele><time>2026-04-12T16:25:02.006Z</time></trkpt><trkpt lat="40.129813360283414" lon="18.16633834486835"><ele>74.0</ele><time>2026-04-12T16:25:03.006Z</time></trkpt><trkpt lat="40.1295679249842" lon="18.166328298312077"><ele>74.0</ele><time>2026-04-12T16:25:04.006Z</time></trkpt><trkpt lat="40.129330921939435" lon="18.16631698838336"><ele>74.0</ele><time>2026-04-12T16:25:05.006Z</time></trkpt><trkpt lat="40.12910763876744" lon="18.166308248076916"><ele>74.33333333333334</ele><time>2026-04-12T16:25:06.006Z</time></trkpt><trkpt lat="40.128905706741726" lon="18.16629579622875"><ele>74.66666666666667</ele><time>2026-04-12T16:25:07.006Z</time></trkpt><trkpt lat="40.1287159775703" lon="18.16628608712475"><ele>75.0</ele><time>2026-04-12T16:25:08.006Z</time></trkpt><trkpt lat="40.128552998011756" lon="18.16627893518158"><ele>75.0</ele><time>2026-04-12T16:25:09.006Z</time></trkpt><trkpt lat="40.12841345842801" lon="18.166262645647482"><ele>75.0</ele><time>2026-04-12T16:25:10.006Z</time></trkpt><trkpt lat="40.128294313340255" lon="18.166247227468425"><ele>75.0</ele><time>2026-04-12T16:25:11.006Z</time></trkpt><trkpt lat="40.12818717026237" lon="18.16622170172945"><ele>75.0</ele><time>2026-04-12T16:25:12.006Z</time></trkpt><trkpt lat="40.1281029757161" lon="18.166173820582575"><ele>78.0</ele><time>2026-04-12T16:25:13.006Z</time></trkpt><trkpt lat="40.128030643125925" lon="18.16611661395294"><ele>81.0</ele><time>2026-04-12T16:25:14.006Z</time></trkpt><trkpt lat="40.11548055235484" lon="18.16543764460102"><ele>83.0</ele><time>2026-04-12T16:26:15.006Z</time></trkpt><trkpt lat="40.115268682006956" lon="18.165437799794315"><ele>85.0</ele><time>2026-04-12T16:26:16.006Z</time></trkpt><trkpt lat="40.11507539206919" lon="18.165521653956812"><ele>87.0</ele><time>2026-04-12T16:26:17.006Z</time></trkpt><trkpt lat="40.11490749074063" lon="18.16561301824433"><ele>86.0</ele><time>2026-04-12T16:26:18.006Z</time></trkpt><trkpt lat="40.114446551634636" lon="18.16537712667236"><ele>86.0</ele><time>2026-04-12T16:26:19.006Z</time></trkpt><trkpt lat="40.1141833743368" lon="18.165359643976196"><ele>86.0</ele><time>2026-04-12T16:26:20.006Z</time></trkpt><trkpt lat="40.113924087223694" lon="18.16533926801238"><ele>87.0</ele><time>2026-04-12T16:26:21.006Z</time></trkpt><trkpt lat="40.11366653998664" lon="18.16531882641853"><ele>88.0</ele><time>2026-04-12T16:26:22.006Z</time></trkpt><trkpt lat="40.11340509879776" lon="18.165302323562745"><ele>88.5</ele><time>2026-04-12T16:26:23.006Z</time></trkpt><trkpt lat="40.113147910024885" lon="18.165283661234902"><ele>89.0</ele><time>2026-04-12T16:26:24.006Z</time></trkpt><trkpt lat="40.112882817872396" lon="18.165272514368176"><ele>89.0</ele><time>2026-04-12T16:26:25.006Z</time></trkpt><trkpt lat="40.11262378185281" lon="18.165260757073053"><ele>89.0</ele><time>2026-04-12T16:26:26.006Z</time></trkpt><trkpt lat="40.11236743277731" lon="18.16524286163015"><ele>89.0</ele><time>2026-04-12T16:26:27.006Z</time></trkpt><trkpt lat="40.11210932545001" lon="18.165225607191243"><ele>89.0</ele><time>2026-04-12T16:26:28.006Z</time></trkpt><trkpt lat="40.11186089757644" lon="18.165207863641214"><ele>89.0</ele><time>2026-04-12T16:26:29.006Z</time></trkpt><trkpt lat="40.11161147254925" lon="18.165191272817943"><ele>89.0</ele><time>2026-04-12T16:26:30.006Z</time></trkpt><trkpt lat="40.11136717380726" lon="18.165172433456558"><ele>89.0</ele><time>2026-04-12T16:26:31.006Z</time></trkpt><trkpt lat="40.111125120964246" lon="18.165158243344823"><ele>89.0</ele><time>2026-04-12T16:26:32.006Z</time></trkpt><trkpt lat="40.110881533593066" lon="18.16514430470956"><ele>90.0</ele><time>2026-04-12T16:26:33.006Z</time></trkpt><trkpt lat="40.11063857796576" lon="18.16513236883849"><ele>91.0</ele><time>2026-04-12T16:26:34.006Z</time></trkpt><trkpt lat="40.110401546015105" lon="18.165116597501978"><ele>91.0</ele><time>2026-04-12T16:26:35.006Z</time></trkpt><trkpt lat="40.11016245736735" lon="18.165095207266326"><ele>91.0</ele><time>2026-04-12T16:26:36.006Z</time></trkpt><trkpt lat="40.10992542678678" lon="18.165077410548268"><ele>90.5</ele><time>2026-04-12T16:26:37.006Z</time></trkpt><trkpt lat="40.10969035693317" lon="18.165063676661205"><ele>90.0</ele><time>2026-04-12T16:26:38.006Z</time></trkpt><trkpt lat="40.10944968365032" lon="18.165049250760113"><ele>90.0</ele><time>2026-04-12T16:26:39.006Z</time></trkpt><trkpt lat="40.10921207314582" lon="18.165033577369186"><ele>90.0</ele><time>2026-04-12T16:26:40.006Z</time></trkpt><trkpt lat="40.108973729140494" lon="18.165017477076912"><ele>91.0</ele><time>2026-04-12T16:26:41.006Z</time></trkpt><trkpt lat="40.108739669405296" lon="18.16500408247644"><ele>92.0</ele><time>2026-04-12T16:26:42.006Z</time></trkpt><trkpt lat="40.10850616876188" lon="18.164986304038752"><ele>92.0</ele><time>2026-04-12T16:26:43.006Z</time></trkpt><trkpt lat="40.10827124053562" lon="18.164964901884378"><ele>92.0</ele><time>2026-04-12T16:26:44.006Z</time></trkpt><trkpt lat="40.10803348488113" lon="18.164945763067905"><ele>92.5</ele><time>2026-04-12T16:26:45.007Z</time></trkpt><trkpt lat="40.10779814099537" lon="18.164934825314834"><ele>93.0</ele><time>2026-04-12T16:26:46.007Z</time></trkpt><trkpt lat="40.10756693485666" lon="18.164921255875786"><ele>92.5</ele><time>2026-04-12T16:26:47.007Z</time></trkpt><trkpt lat="40.107337090172955" lon="18.164907104217125"><ele>92.0</ele><time>2026-04-12T16:26:48.008Z</time></trkpt><trkpt lat="40.10710425966459" lon="18.16489154704294"><ele>92.0</ele><time>2026-04-12T16:26:49.007Z</time></trkpt><trkpt lat="40.10687173324634" lon="18.164874753046895"><ele>92.0</ele><time>2026-04-12T16:26:50.007Z</time></trkpt><trkpt lat="40.10663645747887" lon="18.164862864379575"><ele>92.0</ele><time>2026-04-12T16:26:51.007Z</time></trkpt><trkpt lat="40.106398773202145" lon="18.16485131861339"><ele>92.0</ele><time>2026-04-12T16:26:52.007Z</time></trkpt><trkpt lat="40.106165424690005" lon="18.164833595245913"><ele>92.0</ele><time>2026-04-12T16:26:53.007Z</time></trkpt><trkpt lat="40.105931113588056" lon="18.16481440905282"><ele>92.0</ele><time>2026-04-12T16:26:54.007Z</time></trkpt><trkpt lat="40.105695591608935" lon="18.164800548078436"><ele>92.5</ele><time>2026-04-12T16:26:55.007Z</time></trkpt><trkpt lat="40.10546234965779" lon="18.16478997427054"><ele>93.0</ele><time>2026-04-12T16:26:56.007Z</time></trkpt><trkpt lat="40.10522515279813" lon="18.164781551688243"><ele>93.0</ele><time>2026-04-12T16:26:57.007Z</time></trkpt><trkpt lat="40.10498636816463" lon="18.164772458927875"><ele>93.0</ele><time>2026-04-12T16:26:58.007Z</time></trkpt><trkpt lat="40.104747921654564" lon="18.164764462534748"><ele>94.0</ele><time>2026-04-12T16:26:59.007Z</time></trkpt><trkpt lat="40.10451048044788" lon="18.16474833686438"><ele>95.0</ele><time>2026-04-12T16:27:00.007Z</time></trkpt><trkpt lat="40.10427153580158" lon="18.16472408470454"><ele>96.0</ele><time>2026-04-12T16:27:01.007Z</time></trkpt><trkpt lat="40.104030809514335" lon="18.164705226890852"><ele>97.0</ele><time>2026-04-12T16:27:02.007Z</time></trkpt><trkpt lat="40.103791494298946" lon="18.164684552105125"><ele>97.0</ele><time>2026-04-12T16:27:03.007Z</time></trkpt><trkpt lat="40.103550329385556" lon="18.164666641735064"><ele>97.0</ele><time>2026-04-12T16:27:04.007Z</time></trkpt><trkpt lat="40.103311927082636" lon="18.16465755847735"><ele>96.0</ele><time>2026-04-12T16:27:05.007Z</time></trkpt><trkpt lat="40.10307142784743" lon="18.16464824771314"><ele>95.0</ele><time>2026-04-12T16:27:06.007Z</time></trkpt><trkpt lat="40.10282805022913" lon="18.164632350015257"><ele>95.0</ele><time>2026-04-12T16:27:07.007Z</time></trkpt><trkpt lat="40.102585402783895" lon="18.164609323876395"><ele>95.0</ele><time>2026-04-12T16:27:08.007Z</time></trkpt><trkpt lat="40.102350890216144" lon="18.16459298171359"><ele>95.0</ele><time>2026-04-12T16:27:09.007Z</time></trkpt><trkpt lat="40.102106827287834" lon="18.16457635839505"><ele>95.0</ele><time>2026-04-12T16:27:10.007Z</time></trkpt><trkpt lat="40.101864098042476" lon="18.164566412269146"><ele>95.0</ele><time>2026-04-12T16:27:11.007Z</time></trkpt><trkpt lat="40.101622584629965" lon="18.16454211986675"><ele>95.0</ele><time>2026-04-12T16:27:12.007Z</time></trkpt><trkpt lat="40.101382260023655" lon="18.16452718840334"><ele>95.5</ele><time>2026-04-12T16:27:13.007Z</time></trkpt><trkpt lat="40.101138944820605" lon="18.164510251110656"><ele>96.0</ele><time>2026-04-12T16:27:14.007Z</time></trkpt><trkpt lat="40.08779778176301" lon="18.16364644180928"><ele>101.0</ele><time>2026-04-12T16:28:15.007Z</time></trkpt><trkpt lat="40.087612312612336" lon="18.163631951578935"><ele>106.0</ele><time>2026-04-12T16:28:16.007Z</time></trkpt><trkpt lat="40.08743582046154" lon="18.163627618679634"><ele>111.0</ele><time>2026-04-12T16:28:17.007Z</time></trkpt><trkpt lat="40.08727197530162" lon="18.163619418382066"><ele>111.25</ele><time>2026-04-12T16:28:18.007Z</time></trkpt><trkpt lat="40.0871155296518" lon="18.163607599053954"><ele>111.5</ele><time>2026-04-12T16:28:19.007Z</time></trkpt><trkpt lat="40.08697537154193" lon="18.16359641162029"><ele>111.75</ele><time>2026-04-12T16:28:20.007Z</time></trkpt><trkpt lat="40.086845654046655" lon="18.163587598265057"><ele>112.0</ele><time>2026-04-12T16:28:21.007Z</time></trkpt><trkpt lat="40.08671774389337" lon="18.16357453944276"><ele>112.0</ele><time>2026-04-12T16:28:22.007Z</time></trkpt><trkpt lat="40.08660365102589" lon="18.163552956550248"><ele>111.99999999999999</ele><time>2026-04-12T16:28:23.007Z</time></trkpt><trkpt lat="40.08649282711999" lon="18.163527148332076"><ele>111.99999999999999</ele><time>2026-04-12T16:28:24.007Z</time></trkpt><trkpt lat="40.08638181892037" lon="18.16348408833938"><ele>112.0</ele><time>2026-04-12T16:28:25.007Z</time></trkpt><trkpt lat="40.086282402426484" lon="18.163439539652224"><ele>112.0</ele><time>2026-04-12T16:28:26.007Z</time></trkpt><trkpt lat="40.086206851414104" lon="18.16338973723001"><ele>111.83333333333334</ele><time>2026-04-12T16:28:27.007Z</time></trkpt><trkpt lat="40.08614923141798" lon="18.16332740626993"><ele>111.66666666666667</ele><time>2026-04-12T16:28:28.007Z</time></trkpt><trkpt lat="40.0860961185046" lon="18.16326894476879"><ele>111.5</ele><time>2026-04-12T16:28:29.007Z</time></trkpt><trkpt lat="40.08598502135166" lon="18.163239590364697"><ele>111.33333333333334</ele><time>2026-04-12T16:28:31.007Z</time></trkpt><trkpt lat="40.08592312554712" lon="18.163287110422207"><ele>111.16666666666667</ele><time>2026-04-12T16:28:32.007Z</time></trkpt><trkpt lat="40.08586975808622" lon="18.163364006593696"><ele>111.0</ele><time>2026-04-12T16:28:33.007Z</time></trkpt><trkpt lat="40.08582131949565" lon="18.163456327660427"><ele>111.5</ele><time>2026-04-12T16:28:34.007Z</time></trkpt><trkpt lat="40.08573399023086" lon="18.163527765586924"><ele>112.0</ele><time>2026-04-12T16:28:35.007Z</time></trkpt><trkpt lat="40.08562570935587" lon="18.16356314063427"><ele>112.5</ele><time>2026-04-12T16:28:36.007Z</time></trkpt><trkpt lat="40.08549263704329" lon="18.163565017333458"><ele>113.0</ele><time>2026-04-12T16:28:37.007Z</time></trkpt><trkpt lat="40.085342889624435" lon="18.163542452268864"><ele>113.0</ele><time>2026-04-12T16:28:38.007Z</time></trkpt><trkpt lat="40.08518309080077" lon="18.163523683287618"><ele>113.0</ele><time>2026-04-12T16:28:39.007Z</time></trkpt><trkpt lat="40.08499646829039" lon="18.163502187266864"><ele>113.0</ele><time>2026-04-12T16:28:40.007Z</time></trkpt><trkpt lat="40.08479675582113" lon="18.163487917725263"><ele>112.66666666666666</ele><time>2026-04-12T16:28:41.007Z</time></trkpt><trkpt lat="40.08458621969383" lon="18.16347789813567"><ele>112.33333333333334</ele><time>2026-04-12T16:28:42.007Z</time></trkpt><trkpt lat="40.08436780036876" lon="18.163466350563272"><ele>112.0</ele><time>2026-04-12T16:28:43.007Z</time></trkpt><trkpt lat="40.08414300869981" lon="18.16345244721682"><ele>112.5</ele><time>2026-04-12T16:28:44.007Z</time></trkpt><trkpt lat="40.08391712106058" lon="18.163445402506408"><ele>113.0</ele><time>2026-04-12T16:28:45.007Z</time></trkpt><trkpt lat="40.0836915709069" lon="18.1634262620588"><ele>113.0</ele><time>2026-04-12T16:28:46.007Z</time></trkpt><trkpt lat="40.083463132310065" lon="18.16341306389752"><ele>113.0</ele><time>2026-04-12T16:28:47.007Z</time></trkpt><trkpt lat="40.083229952363865" lon="18.163395430346686"><ele>113.5</ele><time>2026-04-12T16:28:48.007Z</time></trkpt><trkpt lat="40.08299820547973" lon="18.163376969447807"><ele>114.0</ele><time>2026-04-12T16:28:49.007Z</time></trkpt><trkpt lat="40.08276467772765" lon="18.1633644938818"><ele>114.0</ele><time>2026-04-12T16:28:50.007Z</time></trkpt><trkpt lat="40.082531596193576" lon="18.163352614749705"><ele>114.0</ele><time>2026-04-12T16:28:51.008Z</time></trkpt><trkpt lat="40.08229571021884" lon="18.163342410258423"><ele>115.0</ele><time>2026-04-12T16:28:52.007Z</time></trkpt><trkpt lat="40.08206097852174" lon="18.163326671752362"><ele>116.0</ele><time>2026-04-12T16:28:53.007Z</time></trkpt><trkpt lat="40.08182694259457" lon="18.163311343833243"><ele>116.0</ele><time>2026-04-12T16:28:54.008Z</time></trkpt><trkpt lat="40.081596924756546" lon="18.163298304433386"><ele>116.0</ele><time>2026-04-12T16:28:55.007Z</time></trkpt><trkpt lat="40.08137822874509" lon="18.163288618481666"><ele>116.0</ele><time>2026-04-12T16:28:56.007Z</time></trkpt><trkpt lat="40.08116141864788" lon="18.163276625403125"><ele>116.0</ele><time>2026-04-12T16:28:57.008Z</time></trkpt><trkpt lat="40.08094587310813" lon="18.163261672064383"><ele>116.0</ele><time>2026-04-12T16:28:58.008Z</time></trkpt><trkpt lat="40.080734839780476" lon="18.163246730077187"><ele>116.0</ele><time>2026-04-12T16:28:59.008Z</time></trkpt><trkpt lat="40.080523840359916" lon="18.163230906724564"><ele>115.0</ele><time>2026-04-12T16:29:00.007Z</time></trkpt><trkpt lat="40.080307145146854" lon="18.1632141212751"><ele>114.0</ele><time>2026-04-12T16:29:01.007Z</time></trkpt><trkpt lat="40.08008673527579" lon="18.163201401201572"><ele>113.0</ele><time>2026-04-12T16:29:02.007Z</time></trkpt><trkpt lat="40.07986398964096" lon="18.163185656697625"><ele>112.33333333333333</ele><time>2026-04-12T16:29:03.007Z</time></trkpt><trkpt lat="40.079647535385675" lon="18.16317307164292"><ele>111.66666666666666</ele><time>2026-04-12T16:29:04.007Z</time></trkpt><trkpt lat="40.07942389832468" lon="18.16316337869844"><ele>111.0</ele><time>2026-04-12T16:29:05.007Z</time></trkpt><trkpt lat="40.07921741690134" lon="18.163152633669274"><ele>110.66666666666666</ele><time>2026-04-12T16:29:06.007Z</time></trkpt><trkpt lat="40.0790082043696" lon="18.163137434326377"><ele>110.33333333333333</ele><time>2026-04-12T16:29:07.007Z</time></trkpt><trkpt lat="40.07880686570752" lon="18.163127166211595"><ele>110.0</ele><time>2026-04-12T16:29:08.007Z</time></trkpt><trkpt lat="40.07860595591044" lon="18.16311672117472"><ele>110.0</ele><time>2026-04-12T16:29:09.007Z</time></trkpt><trkpt lat="40.07841342486954" lon="18.16310911422565"><ele>110.0</ele><time>2026-04-12T16:29:10.007Z</time></trkpt><trkpt lat="40.0782177965437" lon="18.163104352575438"><ele>110.0</ele><time>2026-04-12T16:29:11.007Z</time></trkpt><trkpt lat="40.078018187409626" lon="18.163100013576337"><ele>109.66666666666666</ele><time>2026-04-12T16:29:12.007Z</time></trkpt><trkpt lat="40.077824162678006" lon="18.16308488682057"><ele>109.33333333333334</ele><time>2026-04-12T16:29:13.007Z</time></trkpt><trkpt lat="40.077631709122" lon="18.163059277378107"><ele>109.0</ele><time>2026-04-12T16:29:14.007Z</time></trkpt><trkpt lat="40.07229496329969" lon="18.16231808568704"><ele>112.0</ele><time>2026-04-12T16:30:15.007Z</time></trkpt><trkpt lat="40.072180634809975" lon="18.162186344233227"><ele>115.0</ele><time>2026-04-12T16:30:17.007Z</time></trkpt><trkpt lat="40.072097885903155" lon="18.162078945147478"><ele>118.0</ele><time>2026-04-12T16:30:18.007Z</time></trkpt><trkpt lat="40.07200891465253" lon="18.16196258857788"><ele>121.0</ele><time>2026-04-12T16:30:19.007Z</time></trkpt><trkpt lat="40.071917253248024" lon="18.16178677438665"><ele>121.0</ele><time>2026-04-12T16:30:20.007Z</time></trkpt><trkpt lat="40.07185683440905" lon="18.161652977544822"><ele>121.0</ele><time>2026-04-12T16:30:21.007Z</time></trkpt><trkpt lat="40.07179133265452" lon="18.161548273191524"><ele>121.0</ele><time>2026-04-12T16:30:22.007Z</time></trkpt><trkpt lat="40.07174150595473" lon="18.161478510378046"><ele>121.0</ele><time>2026-04-12T16:30:23.007Z</time></trkpt><trkpt lat="40.07169437886549" lon="18.16140649746617"><ele>121.0</ele><time>2026-04-12T16:30:24.007Z</time></trkpt><trkpt lat="40.071636728973566" lon="18.161296372096885"><ele>121.25</ele><time>2026-04-12T16:30:26.007Z</time></trkpt><trkpt lat="40.07155823261267" lon="18.161140568719173"><ele>121.5</ele><time>2026-04-12T16:31:11.008Z</time></trkpt><trkpt lat="40.07150200265319" lon="18.161021717428472"><ele>121.75</ele><time>2026-04-12T16:31:13.008Z</time></trkpt><trkpt lat="40.07146209682091" lon="18.16095276896646"><ele>122.0</ele><time>2026-04-12T16:31:14.008Z</time></trkpt><trkpt lat="40.069190943756304" lon="18.164065249449244"><ele>121.83333333333333</ele><time>2026-04-12T16:32:15.008Z</time></trkpt><trkpt lat="40.06910479058306" lon="18.16404443261975"><ele>121.66666666666666</ele><time>2026-04-12T16:32:19.008Z</time></trkpt><trkpt lat="40.06906202672998" lon="18.163968793550914"><ele>121.5</ele><time>2026-04-12T16:32:20.008Z</time></trkpt><trkpt lat="40.06902197131708" lon="18.163887521985373"><ele>121.33333333333334</ele><time>2026-04-12T16:32:21.008Z</time></trkpt><trkpt lat="40.06896117520929" lon="18.16378460792242"><ele>121.16666666666667</ele><time>2026-04-12T16:32:22.008Z</time></trkpt><trkpt lat="40.06891306049274" lon="18.163695054826224"><ele>121.0</ele><time>2026-04-12T16:32:23.008Z</time></trkpt><trkpt lat="40.06884410069686" lon="18.16360335199113"><ele>121.5</ele><time>2026-04-12T16:32:25.008Z</time></trkpt><trkpt lat="40.06873694688693" lon="18.16363513783825"><ele>122.0</ele><time>2026-04-12T16:32:27.008Z</time></trkpt><trkpt lat="40.068656069643374" lon="18.163691165846753"><ele>122.5</ele><time>2026-04-12T16:32:28.008Z</time></trkpt><trkpt lat="40.068543921824634" lon="18.163741056168686"><ele>123.0</ele><time>2026-04-12T16:32:29.008Z</time></trkpt><trkpt lat="40.06839118561434" lon="18.163796386367498"><ele>123.0</ele><time>2026-04-12T16:32:30.008Z</time></trkpt><trkpt lat="40.068234805632656" lon="18.163868309230626"><ele>123.0</ele><time>2026-04-12T16:32:31.008Z</time></trkpt><trkpt lat="40.06807244796818" lon="18.163945287969675"><ele>123.0</ele><time>2026-04-12T16:32:32.008Z</time></trkpt><trkpt lat="40.067896450860886" lon="18.164039137541753"><ele>123.0</ele><time>2026-04-12T16:32:33.008Z</time></trkpt><trkpt lat="40.06772557332256" lon="18.1641251687775"><ele>123.0</ele><time>2026-04-12T16:32:34.008Z</time></trkpt><trkpt lat="40.06756322362724" lon="18.164199475739238"><ele>123.0</ele><time>2026-04-12T16:32:35.008Z</time></trkpt><trkpt lat="40.06743759534975" lon="18.164291940470193"><ele>123.0</ele><time>2026-04-12T16:32:36.008Z</time></trkpt><trkpt lat="40.06732017463577" lon="18.16437510285622"><ele>123.00000000000001</ele><time>2026-04-12T16:32:37.008Z</time></trkpt><trkpt lat="40.067211535423084" lon="18.164442077399478"><ele>123.00000000000001</ele><time>2026-04-12T16:32:38.008Z</time></trkpt><trkpt lat="40.06712608493394" lon="18.164490734842065"><ele>123.0</ele><time>2026-04-12T16:32:39.008Z</time></trkpt><trkpt lat="40.067059170244846" lon="18.16453090161448"><ele>123.0</ele><time>2026-04-12T16:32:40.008Z</time></trkpt><trkpt lat="40.06695672073302" lon="18.164564769207583"><ele>123.0</ele><time>2026-04-12T16:32:41.008Z</time></trkpt><trkpt lat="40.06686382715654" lon="18.164664540477883"><ele>123.00000000000001</ele><time>2026-04-12T16:32:45.008Z</time></trkpt><trkpt lat="40.06679569550819" lon="18.164698588141746"><ele>123.00000000000001</ele><time>2026-04-12T16:32:46.008Z</time></trkpt><trkpt lat="40.06670756548142" lon="18.1647422954203"><ele>123.0</ele><time>2026-04-12T16:32:47.008Z</time></trkpt><trkpt lat="40.06660529477977" lon="18.16479437638986"><ele>123.0</ele><time>2026-04-12T16:32:48.008Z</time></trkpt><trkpt lat="40.06648030482369" lon="18.164856432084445"><ele>123.0</ele><time>2026-04-12T16:32:49.008Z</time></trkpt><trkpt lat="40.06634872998442" lon="18.16490762458419"><ele>123.0</ele><time>2026-04-12T16:32:50.008Z</time></trkpt><trkpt lat="40.06621094874393" lon="18.164958679780963"><ele>123.0</ele><time>2026-04-12T16:32:51.008Z</time></trkpt><trkpt lat="40.06605435682983" lon="18.16501073343651"><ele>123.0</ele><time>2026-04-12T16:32:52.008Z</time></trkpt><trkpt lat="40.06591842384063" lon="18.165055325867105"><ele>123.0</ele><time>2026-04-12T16:32:53.008Z</time></trkpt><trkpt lat="40.06578068369965" lon="18.16509778960883"><ele>123.0</ele><time>2026-04-12T16:32:54.008Z</time></trkpt><trkpt lat="40.06564219245971" lon="18.165127453510976"><ele>123.0</ele><time>2026-04-12T16:32:55.008Z</time></trkpt><trkpt lat="40.065493307696556" lon="18.165125763554116"><ele>123.0</ele><time>2026-04-12T16:32:56.008Z</time></trkpt><trkpt lat="40.06533781075195" lon="18.1651174233005"><ele>123.25</ele><time>2026-04-12T16:32:57.008Z</time></trkpt><trkpt lat="40.06519102110986" lon="18.165087206282422"><ele>123.5</ele><time>2026-04-12T16:32:58.008Z</time></trkpt><trkpt lat="40.06504885268282" lon="18.165060714399377"><ele>123.75</ele><time>2026-04-12T16:32:59.008Z</time></trkpt><trkpt lat="40.06489486860814" lon="18.165062430826733"><ele>124.0</ele><time>2026-04-12T16:33:00.008Z</time></trkpt><trkpt lat="40.06473268441116" lon="18.165078466390145"><ele>124.0</ele><time>2026-04-12T16:33:01.008Z</time></trkpt><trkpt lat="40.06456577239535" lon="18.16510698309062"><ele>124.0</ele><time>2026-04-12T16:33:02.008Z</time></trkpt><trkpt lat="40.06438741975215" lon="18.165154415812452"><ele>124.0</ele><time>2026-04-12T16:33:03.008Z</time></trkpt><trkpt lat="40.06419910576609" lon="18.165240331890804"><ele>124.0</ele><time>2026-04-12T16:33:04.008Z</time></trkpt><trkpt lat="40.064019241507715" lon="18.16532178720955"><ele>124.0</ele><time>2026-04-12T16:33:05.008Z</time></trkpt><trkpt lat="40.06383844179285" lon="18.165420240443463"><ele>124.0</ele><time>2026-04-12T16:33:06.008Z</time></trkpt><trkpt lat="40.063665281459244" lon="18.16555207317618"><ele>124.0</ele><time>2026-04-12T16:33:07.008Z</time></trkpt><trkpt lat="40.063502627908605" lon="18.165705419761203"><ele>124.0</ele><time>2026-04-12T16:33:08.008Z</time></trkpt><trkpt lat="40.06333223845874" lon="18.165873419159492"><ele>124.0</ele><time>2026-04-12T16:33:09.008Z</time></trkpt><trkpt lat="40.06316582789872" lon="18.166051704154402"><ele>124.0</ele><time>2026-04-12T16:33:10.008Z</time></trkpt><trkpt lat="40.06300355742619" lon="18.166238643892036"><ele>124.0</ele><time>2026-04-12T16:33:11.008Z</time></trkpt><trkpt lat="40.06283701176787" lon="18.166414811747593"><ele>124.0</ele><time>2026-04-12T16:33:12.008Z</time></trkpt><trkpt lat="40.06266294998481" lon="18.166583675470257"><ele>124.0</ele><time>2026-04-12T16:33:13.008Z</time></trkpt><trkpt lat="40.06248814115915" lon="18.166738556078073"><ele>124.0</ele><time>2026-04-12T16:33:14.008Z</time></trkpt><trkpt lat="40.04928629013365" lon="18.169604791166336"><ele>134.0</ele><time>2026-04-12T16:34:15.007Z</time></trkpt><trkpt lat="40.049080694093" lon="18.169719531305425"><ele>144.0</ele><time>2026-04-12T16:34:16.007Z</time></trkpt><trkpt lat="40.04887571556819" lon="18.16984272856337"><ele>154.0</ele><time>2026-04-12T16:34:17.007Z</time></trkpt><trkpt lat="40.04866991762121" lon="18.16997538606689"><ele>154.0</ele><time>2026-04-12T16:34:18.007Z</time></trkpt><trkpt lat="40.04846481507304" lon="18.170101514098924"><ele>154.0</ele><time>2026-04-12T16:34:19.007Z</time></trkpt><trkpt lat="40.04825887247216" lon="18.170226572902113"><ele>155.5</ele><time>2026-04-12T16:34:20.007Z</time></trkpt><trkpt lat="40.04805186586191" lon="18.170358235120194"><ele>157.0</ele><time>2026-04-12T16:34:21.007Z</time></trkpt><trkpt lat="40.047843855521194" lon="18.170490700345635"><ele>157.0</ele><time>2026-04-12T16:34:22.007Z</time></trkpt><trkpt lat="40.0476348130037" lon="18.17061235519017"><ele>157.0</ele><time>2026-04-12T16:34:23.007Z</time></trkpt><trkpt lat="40.04742850019269" lon="18.170733841377512"><ele>157.0</ele><time>2026-04-12T16:34:24.007Z</time></trkpt><trkpt lat="40.047216029914836" lon="18.170851914511363"><ele>157.0</ele><time>2026-04-12T16:34:25.007Z</time></trkpt><trkpt lat="40.04700273530369" lon="18.17096994645751"><ele>157.0</ele><time>2026-04-12T16:34:26.007Z</time></trkpt><trkpt lat="40.046791927361696" lon="18.17107894019844"><ele>157.0</ele><time>2026-04-12T16:34:27.007Z</time></trkpt><trkpt lat="40.04657842739533" lon="18.171177267522555"><ele>158.0</ele><time>2026-04-12T16:34:28.007Z</time></trkpt><trkpt lat="40.046366005916795" lon="18.171272353447318"><ele>159.0</ele><time>2026-04-12T16:34:29.007Z</time></trkpt><trkpt lat="40.046148046676244" lon="18.17136284306027"><ele>159.0</ele><time>2026-04-12T16:34:30.007Z</time></trkpt><trkpt lat="40.04593400473797" lon="18.17145430421773"><ele>159.0</ele><time>2026-04-12T16:34:31.007Z</time></trkpt><trkpt lat="40.0457164496973" lon="18.171540334860087"><ele>157.5</ele><time>2026-04-12T16:34:32.007Z</time></trkpt><trkpt lat="40.04549920863512" lon="18.171606872688145"><ele>156.0</ele><time>2026-04-12T16:34:33.007Z</time></trkpt><trkpt lat="40.04527314885211" lon="18.171668265011352"><ele>156.0</ele><time>2026-04-12T16:34:34.007Z</time></trkpt><trkpt lat="40.04504909335156" lon="18.171688075240308"><ele>156.0</ele><time>2026-04-12T16:34:35.007Z</time></trkpt><trkpt lat="40.04482058050906" lon="18.17170033270746"><ele>157.5</ele><time>2026-04-12T16:34:36.007Z</time></trkpt><trkpt lat="40.04458883694341" lon="18.17169542251724"><ele>159.0</ele><time>2026-04-12T16:34:37.007Z</time></trkpt><trkpt lat="40.04435254341188" lon="18.171680607858935"><ele>157.5</ele><time>2026-04-12T16:34:38.007Z</time></trkpt><trkpt lat="40.04411952245629" lon="18.171661506364426"><ele>156.0</ele><time>2026-04-12T16:34:39.007Z</time></trkpt><trkpt lat="40.04388480162291" lon="18.171645265879487"><ele>156.0</ele><time>2026-04-12T16:34:40.007Z</time></trkpt><trkpt lat="40.04364673344196" lon="18.171633195673017"><ele>156.0</ele><time>2026-04-12T16:34:41.007Z</time></trkpt><trkpt lat="40.04340700400752" lon="18.171619199142743"><ele>156.5</ele><time>2026-04-12T16:34:42.007Z</time></trkpt><trkpt lat="40.043164144143695" lon="18.1716058227852"><ele>157.0</ele><time>2026-04-12T16:34:43.007Z</time></trkpt><trkpt lat="40.042924425522486" lon="18.171590793382666"><ele>157.0</ele><time>2026-04-12T16:34:44.007Z</time></trkpt><trkpt lat="40.042683329688835" lon="18.17158328053598"><ele>157.0</ele><time>2026-04-12T16:34:45.007Z</time></trkpt><trkpt lat="40.042445723534215" lon="18.171574182962264"><ele>157.5</ele><time>2026-04-12T16:34:46.007Z</time></trkpt><trkpt lat="40.042211539135444" lon="18.17155602234698"><ele>158.0</ele><time>2026-04-12T16:34:47.007Z</time></trkpt><trkpt lat="40.041985398795156" lon="18.171534574189543"><ele>158.33333333333331</ele><time>2026-04-12T16:34:48.007Z</time></trkpt><trkpt lat="40.04176845252608" lon="18.171485669418164"><ele>158.66666666666666</ele><time>2026-04-12T16:34:49.007Z</time></trkpt><trkpt lat="40.04155768887008" lon="18.1714179662247"><ele>159.0</ele><time>2026-04-12T16:34:50.007Z</time></trkpt><trkpt lat="40.041343364051684" lon="18.171321651949132"><ele>159.0</ele><time>2026-04-12T16:34:51.007Z</time></trkpt><trkpt lat="40.041136890181676" lon="18.171203578344198"><ele>159.0</ele><time>2026-04-12T16:34:52.007Z</time></trkpt><trkpt lat="40.04092468110111" lon="18.17108278511322"><ele>160.5</ele><time>2026-04-12T16:34:53.007Z</time></trkpt><trkpt lat="40.04070691598713" lon="18.170958424001164"><ele>162.0</ele><time>2026-04-12T16:34:54.007Z</time></trkpt><trkpt lat="40.04049116367118" lon="18.170837173332757"><ele>162.0</ele><time>2026-04-12T16:34:55.007Z</time></trkpt><trkpt lat="40.04027654036659" lon="18.17071729630929"><ele>162.0</ele><time>2026-04-12T16:34:56.007Z</time></trkpt><trkpt lat="40.040060589883424" lon="18.170597027895404"><ele>164.0</ele><time>2026-04-12T16:34:57.007Z</time></trkpt><trkpt lat="40.03984482464072" lon="18.170476965104424"><ele>166.0</ele><time>2026-04-12T16:34:58.007Z</time></trkpt><trkpt lat="40.039632216316534" lon="18.170355705439494"><ele>166.0</ele><time>2026-04-12T16:34:59.007Z</time></trkpt><trkpt lat="40.039428168434505" lon="18.170239848673585"><ele>166.0</ele><time>2026-04-12T16:35:00.007Z</time></trkpt><trkpt lat="40.039233658342944" lon="18.170128963182222"><ele>166.0</ele><time>2026-04-12T16:35:01.007Z</time></trkpt><trkpt lat="40.03903985047963" lon="18.17002188071779"><ele>166.0</ele><time>2026-04-12T16:35:02.007Z</time></trkpt><trkpt lat="40.038843730128015" lon="18.1699422486955"><ele>166.0</ele><time>2026-04-12T16:35:03.007Z</time></trkpt><trkpt lat="40.038645207346214" lon="18.169872246427758"><ele>166.0</ele><time>2026-04-12T16:35:04.007Z</time></trkpt><trkpt lat="40.03844373149374" lon="18.16981799933973"><ele>165.33333333333334</ele><time>2026-04-12T16:35:05.007Z</time></trkpt><trkpt lat="40.038241084999946" lon="18.169781822538816"><ele>164.66666666666666</ele><time>2026-04-12T16:35:06.007Z</time></trkpt><trkpt lat="40.03802350788499" lon="18.169744956375226"><ele>164.0</ele><time>2026-04-12T16:35:07.007Z</time></trkpt><trkpt lat="40.03780022270297" lon="18.169702463017405"><ele>164.0</ele><time>2026-04-12T16:35:08.007Z</time></trkpt><trkpt lat="40.03757983761257" lon="18.16965798710785"><ele>164.0</ele><time>2026-04-12T16:35:09.008Z</time></trkpt><trkpt lat="40.03735912307564" lon="18.169610909262797"><ele>164.0</ele><time>2026-04-12T16:35:10.007Z</time></trkpt><trkpt lat="40.03713780959919" lon="18.16954453905099"><ele>164.5</ele><time>2026-04-12T16:35:11.007Z</time></trkpt><trkpt lat="40.036912925242106" lon="18.169473426714276"><ele>165.0</ele><time>2026-04-12T16:35:12.008Z</time></trkpt><trkpt lat="40.036687431283504" lon="18.169408802481783"><ele>164.0</ele><time>2026-04-12T16:35:13.008Z</time></trkpt><trkpt lat="40.03646034355384" lon="18.16936361754385"><ele>163.0</ele><time>2026-04-12T16:35:14.008Z</time></trkpt><trkpt lat="40.0267586223576" lon="18.16738541005321"><ele>157.33333333333334</ele><time>2026-04-12T16:36:15.008Z</time></trkpt><trkpt lat="40.02659984261883" lon="18.167554912344944"><ele>151.66666666666666</ele><time>2026-04-12T16:36:16.008Z</time></trkpt><trkpt lat="40.026429647609085" lon="18.167731233251427"><ele>146.0</ele><time>2026-04-12T16:36:17.008Z</time></trkpt><trkpt lat="40.026276199404954" lon="18.167900662707208"><ele>146.0</ele><time>2026-04-12T16:36:18.008Z</time></trkpt><trkpt lat="40.02614118399511" lon="18.16805739052683"><ele>146.0</ele><time>2026-04-12T16:36:19.008Z</time></trkpt><trkpt lat="40.02602008264517" lon="18.168196104637943"><ele>146.0</ele><time>2026-04-12T16:36:20.008Z</time></trkpt><trkpt lat="40.02591002916236" lon="18.168318602760607"><ele>146.0</ele><time>2026-04-12T16:36:21.008Z</time></trkpt><trkpt lat="40.02580525938596" lon="18.168441466672277"><ele>146.0</ele><time>2026-04-12T16:36:22.008Z</time></trkpt><trkpt lat="40.02570611837855" lon="18.168557304780155"><ele>146.0</ele><time>2026-04-12T16:36:23.008Z</time></trkpt><trkpt lat="40.025613325629216" lon="18.168661858777828"><ele>146.0</ele><time>2026-04-12T16:36:24.008Z</time></trkpt><trkpt lat="40.0255236181259" lon="18.168755687369785"><ele>146.0</ele><time>2026-04-12T16:36:25.008Z</time></trkpt><trkpt lat="40.02544127312473" lon="18.16884910025787"><ele>146.0</ele><time>2026-04-12T16:36:26.008Z</time></trkpt><trkpt lat="40.02537570759726" lon="18.16892341789334"><ele>146.0</ele><time>2026-04-12T16:36:27.008Z</time></trkpt><trkpt lat="40.02532813108343" lon="18.16898028370186"><ele>146.0</ele><time>2026-04-12T16:36:28.008Z</time></trkpt><trkpt lat="40.02526313333333" lon="18.169058390678074"><ele>146.0</ele><time>2026-04-12T16:36:30.008Z</time></trkpt><trkpt lat="40.02520506869427" lon="18.16913613441336"><ele>146.0</ele><time>2026-04-12T16:36:34.008Z</time></trkpt><trkpt lat="40.02512187446348" lon="18.169235008371878"><ele>145.6</ele><time>2026-04-12T16:36:36.008Z</time></trkpt><trkpt lat="40.02505292459462" lon="18.169305808312277"><ele>145.2</ele><time>2026-04-12T16:36:37.008Z</time></trkpt><trkpt lat="40.024971893812264" lon="18.169392310232773"><ele>144.8</ele><time>2026-04-12T16:36:38.008Z</time></trkpt><trkpt lat="40.02487970889472" lon="18.16949058473603"><ele>144.4</ele><time>2026-04-12T16:36:39.008Z</time></trkpt><trkpt lat="40.02478173063335" lon="18.169596881772225"><ele>144.0</ele><time>2026-04-12T16:36:40.008Z</time></trkpt><trkpt lat="40.024682384182945" lon="18.169720838369265"><ele>144.0</ele><time>2026-04-12T16:36:41.008Z</time></trkpt><trkpt lat="40.024575855345425" lon="18.169839729931148"><ele>144.0</ele><time>2026-04-12T16:36:42.008Z</time></trkpt><trkpt lat="40.02447027078676" lon="18.169959451025374"><ele>144.0</ele><time>2026-04-12T16:36:43.008Z</time></trkpt><trkpt lat="40.02437573058304" lon="18.170069656020285"><ele>144.0</ele><time>2026-04-12T16:36:44.008Z</time></trkpt><trkpt lat="40.02428932790945" lon="18.170173896364204"><ele>144.5</ele><time>2026-04-12T16:36:45.008Z</time></trkpt><trkpt lat="40.02420792057522" lon="18.170269314371474"><ele>145.0</ele><time>2026-04-12T16:36:46.008Z</time></trkpt><trkpt lat="40.02412310268342" lon="18.170366584846356"><ele>145.5</ele><time>2026-04-12T16:36:47.008Z</time></trkpt><trkpt lat="40.024028815316264" lon="18.170471604209528"><ele>146.0</ele><time>2026-04-12T16:36:48.008Z</time></trkpt><trkpt lat="40.023919902454914" lon="18.170597068284163"><ele>147.66666666666666</ele><time>2026-04-12T16:36:49.008Z</time></trkpt><trkpt lat="40.02379629903678" lon="18.17074059867938"><ele>149.33333333333334</ele><time>2026-04-12T16:36:50.008Z</time></trkpt><trkpt lat="40.02365771299135" lon="18.170896001101543"><ele>151.0</ele><time>2026-04-12T16:36:51.008Z</time></trkpt><trkpt lat="40.023504371925966" lon="18.17106950709914"><ele>151.0</ele><time>2026-04-12T16:36:52.008Z</time></trkpt><trkpt lat="40.02333953956896" lon="18.171252825132424"><ele>151.0</ele><time>2026-04-12T16:36:53.008Z</time></trkpt><trkpt lat="40.02316555984655" lon="18.17144764120039"><ele>151.0</ele><time>2026-04-12T16:36:54.008Z</time></trkpt><trkpt lat="40.02299142301233" lon="18.171648949147883"><ele>151.0</ele><time>2026-04-12T16:36:55.008Z</time></trkpt><trkpt lat="40.02281260485629" lon="18.17185120152143"><ele>151.0</ele><time>2026-04-12T16:36:56.008Z</time></trkpt><trkpt lat="40.02263053986393" lon="18.17205267020251"><ele>151.0</ele><time>2026-04-12T16:36:57.008Z</time></trkpt><trkpt lat="40.02244790734912" lon="18.172259468775387"><ele>151.0</ele><time>2026-04-12T16:36:58.008Z</time></trkpt><trkpt lat="40.02226852254426" lon="18.17246438872812"><ele>151.0</ele><time>2026-04-12T16:36:59.008Z</time></trkpt><trkpt lat="40.02208955586021" lon="18.17267063130867"><ele>151.0</ele><time>2026-04-12T16:37:00.008Z</time></trkpt><trkpt lat="40.021909253219306" lon="18.17287189373919"><ele>151.0</ele><time>2026-04-12T16:37:01.008Z</time></trkpt><trkpt lat="40.02173274551176" lon="18.173072328551246"><ele>151.0</ele><time>2026-04-12T16:37:02.008Z</time></trkpt><trkpt lat="40.02155601112379" lon="18.17327389519996"><ele>152.0</ele><time>2026-04-12T16:37:03.008Z</time></trkpt><trkpt lat="40.021379705240435" lon="18.173478128573326"><ele>153.0</ele><time>2026-04-12T16:37:04.008Z</time></trkpt><trkpt lat="40.02120223374135" lon="18.173683595102567"><ele>153.0</ele><time>2026-04-12T16:37:05.008Z</time></trkpt><trkpt lat="40.02102432558824" lon="18.17388850314487"><ele>153.0</ele><time>2026-04-12T16:37:06.008Z</time></trkpt><trkpt lat="40.02084322854195" lon="18.17409245740772"><ele>151.5</ele><time>2026-04-12T16:37:07.008Z</time></trkpt><trkpt lat="40.02066000109237" lon="18.17429289993756"><ele>150.0</ele><time>2026-04-12T16:37:08.008Z</time></trkpt><trkpt lat="40.0204756974603" lon="18.174491091721062"><ele>150.0</ele><time>2026-04-12T16:37:09.008Z</time></trkpt><trkpt lat="40.02028958171807" lon="18.174683074607543"><ele>150.0</ele><time>2026-04-12T16:37:10.008Z</time></trkpt><trkpt lat="40.02010289198323" lon="18.1748712310719"><ele>149.33333333333334</ele><time>2026-04-12T16:37:11.008Z</time></trkpt><trkpt lat="40.019927076012685" lon="18.17504510684754"><ele>148.66666666666669</ele><time>2026-04-12T16:37:12.008Z</time></trkpt><trkpt lat="40.01975956957407" lon="18.175194790602443"><ele>148.0</ele><time>2026-04-12T16:37:13.008Z</time></trkpt><trkpt lat="40.019598628087365" lon="18.1753262679389"><ele>141.0</ele><time>2026-04-12T16:37:14.008Z</time></trkpt><trkpt lat="40.012381246697714" lon="18.177330455109477"><ele>141.0</ele><time>2026-04-12T16:38:15.008Z</time></trkpt><trkpt lat="40.012301606494006" lon="18.177347246297405"><ele>141.0</ele><time>2026-04-12T16:38:16.008Z</time></trkpt><trkpt lat="40.01222866627118" lon="18.177362595156442"><ele>141.0</ele><time>2026-04-12T16:38:17.008Z</time></trkpt><trkpt lat="40.012124362737346" lon="18.17739651234861"><ele>141.0</ele><time>2026-04-12T16:38:19.008Z</time></trkpt><trkpt lat="40.012056614683786" lon="18.17746384109239"><ele>141.0</ele><time>2026-04-12T16:38:21.008Z</time></trkpt><trkpt lat="40.012092700087365" lon="18.17757768283482"><ele>141.0</ele><time>2026-04-12T16:38:23.008Z</time></trkpt><trkpt lat="40.01212636509078" lon="18.177656597653204"><ele>144.0</ele><time>2026-04-12T16:38:24.008Z</time></trkpt><trkpt lat="40.012178057729784" lon="18.177784082138995"><ele>144.0</ele><time>2026-04-12T16:38:26.008Z</time></trkpt><trkpt lat="40.012154105112806" lon="18.177868306737356"><ele>144.0</ele><time>2026-04-12T16:38:30.008Z</time></trkpt></trkseg></trk></gpx>